<?xml version="1.0" encoding="UTF-8" standalone="no" ?>
<gpx xmlns="http://www.topografix.com/GPX/1/1" xmlns:xsi="http://www.w3.org/2001/XMLSchema-instance" xsi:schemaLocation="http://www.topografix.com/GPX/1/1 http://www.topografix.com/GPX/1/1/gpx.xsd" version="1.1" creator="VisuGPX - https://www.visugpx.com">
  <metadata>
    <name>2016-09-27 Bike ride-Saule d'Oingt</name>
    <desc><![CDATA[2016-09-27 Bike ride-Saule d'Oingt]]></desc>
  </metadata>
  <wpt lat="45.92506" lon="4.73639">
    <ele>174</ele>
    <name><![CDATA[2016-09-27 10:48 (Start)]]></name>
  </wpt>
  <wpt lat="45.92462" lon="4.7371">
    <ele>174</ele>
    <name><![CDATA[2016-09-27 10:48 (End)]]></name>
    <desc><![CDATA[Created by Google My Tracks on Android  Name: 2016-09-27 10:48 Activity type: biking Description: - Total distance: 40.35 km (25.1 mi) Total time: 2:10:45 Moving time: 2:08:14 Average speed: 18.52 km/h (11.5 mi/h) Average moving speed: 18.88 km/h (11.7 mi/h) Max speed: 48.65 km/h (30.2 mi/h) Average pace: 3:14 min/km (5:13 min/mi) Average moving pace: 3:11 min/km (5:07 min/mi) Fastest pace: 1:14 min/km (1:59 min/mi) Max elevation: 560 m (1836 ft) Min elevation: 154 m (505 ft) Elevation gain: 929 m (3048 ft) Max grade: 19 % Min grade: -10 % Recorded: 27/09/2016 10:48]]></desc>
  </wpt>
  <trk>
    <name><![CDATA[2016-09-27 10:48]]></name>
    <trkseg>
      <trkpt lat="45.92506" lon="4.73639">
        <ele>174</ele>
        <time>2016-09-27T08:48:47.194Z</time>
      </trkpt>
      <trkpt lat="45.92513" lon="4.7364">
        <ele>174</ele>
        <time>2016-09-27T08:50:14Z</time>
      </trkpt>
      <trkpt lat="45.92516" lon="4.73639">
        <ele>173</ele>
        <time>2016-09-27T08:50:15Z</time>
      </trkpt>
      <trkpt lat="45.92524" lon="4.73638">
        <ele>173</ele>
        <time>2016-09-27T08:50:17Z</time>
      </trkpt>
      <trkpt lat="45.92528" lon="4.73638">
        <ele>173</ele>
        <time>2016-09-27T08:50:18Z</time>
      </trkpt>
      <trkpt lat="45.92534" lon="4.73638">
        <ele>173</ele>
        <time>2016-09-27T08:50:20Z</time>
      </trkpt>
      <trkpt lat="45.92538" lon="4.73639">
        <ele>173</ele>
        <time>2016-09-27T08:50:21Z</time>
      </trkpt>
      <trkpt lat="45.92543" lon="4.73638">
        <ele>173</ele>
        <time>2016-09-27T08:50:22Z</time>
      </trkpt>
      <trkpt lat="45.92547" lon="4.73636">
        <ele>173</ele>
        <time>2016-09-27T08:50:23Z</time>
      </trkpt>
      <trkpt lat="45.92552" lon="4.73635">
        <ele>173</ele>
        <time>2016-09-27T08:50:24Z</time>
      </trkpt>
      <trkpt lat="45.92557" lon="4.73633">
        <ele>173</ele>
        <time>2016-09-27T08:50:25Z</time>
      </trkpt>
      <trkpt lat="45.92563" lon="4.7363">
        <ele>173</ele>
        <time>2016-09-27T08:50:26Z</time>
      </trkpt>
      <trkpt lat="45.92568" lon="4.73628">
        <ele>173</ele>
        <time>2016-09-27T08:50:27Z</time>
      </trkpt>
      <trkpt lat="45.92573" lon="4.73626">
        <ele>173</ele>
        <time>2016-09-27T08:50:28Z</time>
      </trkpt>
      <trkpt lat="45.92579" lon="4.73625">
        <ele>173</ele>
        <time>2016-09-27T08:50:29Z</time>
      </trkpt>
      <trkpt lat="45.92584" lon="4.73625">
        <ele>172</ele>
        <time>2016-09-27T08:50:30Z</time>
      </trkpt>
      <trkpt lat="45.92589" lon="4.73625">
        <ele>172</ele>
        <time>2016-09-27T08:50:31Z</time>
      </trkpt>
      <trkpt lat="45.92596" lon="4.73626">
        <ele>173</ele>
        <time>2016-09-27T08:50:32Z</time>
      </trkpt>
      <trkpt lat="45.92601" lon="4.73626">
        <ele>173</ele>
        <time>2016-09-27T08:50:33Z</time>
      </trkpt>
      <trkpt lat="45.92607" lon="4.73626">
        <ele>173</ele>
        <time>2016-09-27T08:50:34Z</time>
      </trkpt>
      <trkpt lat="45.92612" lon="4.73627">
        <ele>173</ele>
        <time>2016-09-27T08:50:35Z</time>
      </trkpt>
      <trkpt lat="45.92618" lon="4.73627">
        <ele>173</ele>
        <time>2016-09-27T08:50:36Z</time>
      </trkpt>
      <trkpt lat="45.92623" lon="4.73631">
        <ele>173</ele>
        <time>2016-09-27T08:50:37Z</time>
      </trkpt>
      <trkpt lat="45.92627" lon="4.73636">
        <ele>173</ele>
        <time>2016-09-27T08:50:38Z</time>
      </trkpt>
      <trkpt lat="45.9263" lon="4.73642">
        <ele>173</ele>
        <time>2016-09-27T08:50:39Z</time>
      </trkpt>
      <trkpt lat="45.92632" lon="4.7365">
        <ele>173</ele>
        <time>2016-09-27T08:50:40Z</time>
      </trkpt>
      <trkpt lat="45.92634" lon="4.73658">
        <ele>173</ele>
        <time>2016-09-27T08:50:41Z</time>
      </trkpt>
      <trkpt lat="45.92636" lon="4.73668">
        <ele>173</ele>
        <time>2016-09-27T08:50:42Z</time>
      </trkpt>
      <trkpt lat="45.9264" lon="4.73674">
        <ele>173</ele>
        <time>2016-09-27T08:50:43Z</time>
      </trkpt>
      <trkpt lat="45.92644" lon="4.7368">
        <ele>173</ele>
        <time>2016-09-27T08:50:44Z</time>
      </trkpt>
      <trkpt lat="45.92647" lon="4.73686">
        <ele>173</ele>
        <time>2016-09-27T08:50:45Z</time>
      </trkpt>
      <trkpt lat="45.9265" lon="4.73692">
        <ele>173</ele>
        <time>2016-09-27T08:50:46Z</time>
      </trkpt>
      <trkpt lat="45.92654" lon="4.73696">
        <ele>173</ele>
        <time>2016-09-27T08:50:47Z</time>
      </trkpt>
      <trkpt lat="45.92659" lon="4.73701">
        <ele>173</ele>
        <time>2016-09-27T08:50:48Z</time>
      </trkpt>
      <trkpt lat="45.92665" lon="4.73705">
        <ele>173</ele>
        <time>2016-09-27T08:50:49Z</time>
      </trkpt>
      <trkpt lat="45.92671" lon="4.73708">
        <ele>174</ele>
        <time>2016-09-27T08:50:50Z</time>
      </trkpt>
      <trkpt lat="45.92676" lon="4.73711">
        <ele>174</ele>
        <time>2016-09-27T08:50:51Z</time>
      </trkpt>
      <trkpt lat="45.92682" lon="4.73713">
        <ele>173</ele>
        <time>2016-09-27T08:50:52Z</time>
      </trkpt>
      <trkpt lat="45.92688" lon="4.73714">
        <ele>173</ele>
        <time>2016-09-27T08:50:53Z</time>
      </trkpt>
      <trkpt lat="45.92694" lon="4.73716">
        <ele>173</ele>
        <time>2016-09-27T08:50:54Z</time>
      </trkpt>
      <trkpt lat="45.927" lon="4.73717">
        <ele>173</ele>
        <time>2016-09-27T08:50:55Z</time>
      </trkpt>
      <trkpt lat="45.92706" lon="4.73718">
        <ele>173</ele>
        <time>2016-09-27T08:50:56Z</time>
      </trkpt>
      <trkpt lat="45.92711" lon="4.73719">
        <ele>173</ele>
        <time>2016-09-27T08:50:57Z</time>
      </trkpt>
      <trkpt lat="45.92717" lon="4.73721">
        <ele>173</ele>
        <time>2016-09-27T08:50:58Z</time>
      </trkpt>
      <trkpt lat="45.92722" lon="4.73722">
        <ele>173</ele>
        <time>2016-09-27T08:50:59Z</time>
      </trkpt>
      <trkpt lat="45.92727" lon="4.73723">
        <ele>173</ele>
        <time>2016-09-27T08:51:00Z</time>
      </trkpt>
      <trkpt lat="45.92733" lon="4.73722">
        <ele>173</ele>
        <time>2016-09-27T08:51:01Z</time>
      </trkpt>
      <trkpt lat="45.92739" lon="4.73722">
        <ele>173</ele>
        <time>2016-09-27T08:51:02Z</time>
      </trkpt>
      <trkpt lat="45.92744" lon="4.73722">
        <ele>173</ele>
        <time>2016-09-27T08:51:03Z</time>
      </trkpt>
      <trkpt lat="45.92749" lon="4.73722">
        <ele>173</ele>
        <time>2016-09-27T08:51:04Z</time>
      </trkpt>
      <trkpt lat="45.92754" lon="4.73721">
        <ele>172</ele>
        <time>2016-09-27T08:51:05Z</time>
      </trkpt>
      <trkpt lat="45.92762" lon="4.73723">
        <ele>172</ele>
        <time>2016-09-27T08:51:07Z</time>
      </trkpt>
      <trkpt lat="45.92766" lon="4.73724">
        <ele>172</ele>
        <time>2016-09-27T08:51:08Z</time>
      </trkpt>
      <trkpt lat="45.9277" lon="4.73727">
        <ele>172</ele>
        <time>2016-09-27T08:51:09Z</time>
      </trkpt>
      <trkpt lat="45.92774" lon="4.73729">
        <ele>172</ele>
        <time>2016-09-27T08:51:10Z</time>
      </trkpt>
      <trkpt lat="45.92779" lon="4.73731">
        <ele>172</ele>
        <time>2016-09-27T08:51:11Z</time>
      </trkpt>
      <trkpt lat="45.92785" lon="4.73729">
        <ele>172</ele>
        <time>2016-09-27T08:51:12Z</time>
      </trkpt>
      <trkpt lat="45.9279" lon="4.7372">
        <ele>172</ele>
        <time>2016-09-27T08:51:14Z</time>
      </trkpt>
      <trkpt lat="45.92791" lon="4.73713">
        <ele>172</ele>
        <time>2016-09-27T08:51:15Z</time>
      </trkpt>
      <trkpt lat="45.92792" lon="4.73707">
        <ele>172</ele>
        <time>2016-09-27T08:51:16Z</time>
      </trkpt>
      <trkpt lat="45.92794" lon="4.73699">
        <ele>172</ele>
        <time>2016-09-27T08:51:17Z</time>
      </trkpt>
      <trkpt lat="45.92796" lon="4.73692">
        <ele>172</ele>
        <time>2016-09-27T08:51:18Z</time>
      </trkpt>
      <trkpt lat="45.92797" lon="4.73685">
        <ele>172</ele>
        <time>2016-09-27T08:51:19Z</time>
      </trkpt>
      <trkpt lat="45.92799" lon="4.73679">
        <ele>172</ele>
        <time>2016-09-27T08:51:20Z</time>
      </trkpt>
      <trkpt lat="45.928" lon="4.73672">
        <ele>172</ele>
        <time>2016-09-27T08:51:21Z</time>
      </trkpt>
      <trkpt lat="45.92802" lon="4.73665">
        <ele>172</ele>
        <time>2016-09-27T08:51:22Z</time>
      </trkpt>
      <trkpt lat="45.92804" lon="4.73658">
        <ele>172</ele>
        <time>2016-09-27T08:51:23Z</time>
      </trkpt>
      <trkpt lat="45.92806" lon="4.73652">
        <ele>172</ele>
        <time>2016-09-27T08:51:24Z</time>
      </trkpt>
      <trkpt lat="45.92808" lon="4.73646">
        <ele>172</ele>
        <time>2016-09-27T08:51:25Z</time>
      </trkpt>
      <trkpt lat="45.92813" lon="4.73637">
        <ele>172</ele>
        <time>2016-09-27T08:51:27Z</time>
      </trkpt>
      <trkpt lat="45.92816" lon="4.73635">
        <ele>172</ele>
        <time>2016-09-27T08:51:28Z</time>
      </trkpt>
      <trkpt lat="45.9282" lon="4.73626">
        <ele>172</ele>
        <time>2016-09-27T08:51:30Z</time>
      </trkpt>
      <trkpt lat="45.92821" lon="4.73619">
        <ele>172</ele>
        <time>2016-09-27T08:51:31Z</time>
      </trkpt>
      <trkpt lat="45.92821" lon="4.73611">
        <ele>172</ele>
        <time>2016-09-27T08:51:32Z</time>
      </trkpt>
      <trkpt lat="45.92821" lon="4.73604">
        <ele>171</ele>
        <time>2016-09-27T08:51:33Z</time>
      </trkpt>
      <trkpt lat="45.92822" lon="4.73595">
        <ele>171</ele>
        <time>2016-09-27T08:51:34Z</time>
      </trkpt>
      <trkpt lat="45.92822" lon="4.73587">
        <ele>171</ele>
        <time>2016-09-27T08:51:35Z</time>
      </trkpt>
      <trkpt lat="45.92822" lon="4.73578">
        <ele>171</ele>
        <time>2016-09-27T08:51:36Z</time>
      </trkpt>
      <trkpt lat="45.92823" lon="4.7357">
        <ele>171</ele>
        <time>2016-09-27T08:51:37Z</time>
      </trkpt>
      <trkpt lat="45.92823" lon="4.73562">
        <ele>171</ele>
        <time>2016-09-27T08:51:38Z</time>
      </trkpt>
      <trkpt lat="45.92824" lon="4.73553">
        <ele>171</ele>
        <time>2016-09-27T08:51:39Z</time>
      </trkpt>
      <trkpt lat="45.92825" lon="4.73545">
        <ele>171</ele>
        <time>2016-09-27T08:51:40Z</time>
      </trkpt>
      <trkpt lat="45.92825" lon="4.73537">
        <ele>172</ele>
        <time>2016-09-27T08:51:41Z</time>
      </trkpt>
      <trkpt lat="45.92827" lon="4.73528">
        <ele>172</ele>
        <time>2016-09-27T08:51:42Z</time>
      </trkpt>
      <trkpt lat="45.92827" lon="4.73518">
        <ele>172</ele>
        <time>2016-09-27T08:51:43Z</time>
      </trkpt>
      <trkpt lat="45.92828" lon="4.73509">
        <ele>172</ele>
        <time>2016-09-27T08:51:44Z</time>
      </trkpt>
      <trkpt lat="45.92829" lon="4.73499">
        <ele>172</ele>
        <time>2016-09-27T08:51:45Z</time>
      </trkpt>
      <trkpt lat="45.9283" lon="4.7349">
        <ele>172</ele>
        <time>2016-09-27T08:51:46Z</time>
      </trkpt>
      <trkpt lat="45.92831" lon="4.73481">
        <ele>172</ele>
        <time>2016-09-27T08:51:47Z</time>
      </trkpt>
      <trkpt lat="45.92832" lon="4.73472">
        <ele>172</ele>
        <time>2016-09-27T08:51:48Z</time>
      </trkpt>
      <trkpt lat="45.92833" lon="4.73463">
        <ele>172</ele>
        <time>2016-09-27T08:51:49Z</time>
      </trkpt>
      <trkpt lat="45.92833" lon="4.73454">
        <ele>172</ele>
        <time>2016-09-27T08:51:50Z</time>
      </trkpt>
      <trkpt lat="45.92834" lon="4.73446">
        <ele>172</ele>
        <time>2016-09-27T08:51:51Z</time>
      </trkpt>
      <trkpt lat="45.92834" lon="4.73437">
        <ele>172</ele>
        <time>2016-09-27T08:51:52Z</time>
      </trkpt>
      <trkpt lat="45.92835" lon="4.73428">
        <ele>172</ele>
        <time>2016-09-27T08:51:53Z</time>
      </trkpt>
      <trkpt lat="45.92835" lon="4.73419">
        <ele>172</ele>
        <time>2016-09-27T08:51:54Z</time>
      </trkpt>
      <trkpt lat="45.92836" lon="4.7341">
        <ele>172</ele>
        <time>2016-09-27T08:51:55Z</time>
      </trkpt>
      <trkpt lat="45.92838" lon="4.73401">
        <ele>172</ele>
        <time>2016-09-27T08:51:56Z</time>
      </trkpt>
      <trkpt lat="45.92839" lon="4.73393">
        <ele>172</ele>
        <time>2016-09-27T08:51:57Z</time>
      </trkpt>
      <trkpt lat="45.9284" lon="4.73385">
        <ele>172</ele>
        <time>2016-09-27T08:51:58Z</time>
      </trkpt>
      <trkpt lat="45.92841" lon="4.73377">
        <ele>172</ele>
        <time>2016-09-27T08:51:59Z</time>
      </trkpt>
      <trkpt lat="45.92843" lon="4.73369">
        <ele>171</ele>
        <time>2016-09-27T08:52:00Z</time>
      </trkpt>
      <trkpt lat="45.92844" lon="4.73362">
        <ele>171</ele>
        <time>2016-09-27T08:52:01Z</time>
      </trkpt>
      <trkpt lat="45.92845" lon="4.73355">
        <ele>171</ele>
        <time>2016-09-27T08:52:02Z</time>
      </trkpt>
      <trkpt lat="45.92847" lon="4.73348">
        <ele>171</ele>
        <time>2016-09-27T08:52:03Z</time>
      </trkpt>
      <trkpt lat="45.92848" lon="4.73341">
        <ele>171</ele>
        <time>2016-09-27T08:52:04Z</time>
      </trkpt>
      <trkpt lat="45.92849" lon="4.73333">
        <ele>171</ele>
        <time>2016-09-27T08:52:05Z</time>
      </trkpt>
      <trkpt lat="45.9285" lon="4.73325">
        <ele>171</ele>
        <time>2016-09-27T08:52:06Z</time>
      </trkpt>
      <trkpt lat="45.92851" lon="4.73317">
        <ele>171</ele>
        <time>2016-09-27T08:52:07Z</time>
      </trkpt>
      <trkpt lat="45.92852" lon="4.73309">
        <ele>171</ele>
        <time>2016-09-27T08:52:08Z</time>
      </trkpt>
      <trkpt lat="45.92854" lon="4.73301">
        <ele>171</ele>
        <time>2016-09-27T08:52:09Z</time>
      </trkpt>
      <trkpt lat="45.92855" lon="4.73293">
        <ele>171</ele>
        <time>2016-09-27T08:52:10Z</time>
      </trkpt>
      <trkpt lat="45.92856" lon="4.73285">
        <ele>171</ele>
        <time>2016-09-27T08:52:11Z</time>
      </trkpt>
      <trkpt lat="45.92857" lon="4.73277">
        <ele>171</ele>
        <time>2016-09-27T08:52:12Z</time>
      </trkpt>
      <trkpt lat="45.92859" lon="4.73268">
        <ele>171</ele>
        <time>2016-09-27T08:52:13Z</time>
      </trkpt>
      <trkpt lat="45.9286" lon="4.73259">
        <ele>171</ele>
        <time>2016-09-27T08:52:14Z</time>
      </trkpt>
      <trkpt lat="45.92861" lon="4.73251">
        <ele>171</ele>
        <time>2016-09-27T08:52:15Z</time>
      </trkpt>
      <trkpt lat="45.92861" lon="4.73242">
        <ele>171</ele>
        <time>2016-09-27T08:52:16Z</time>
      </trkpt>
      <trkpt lat="45.92863" lon="4.73234">
        <ele>171</ele>
        <time>2016-09-27T08:52:17Z</time>
      </trkpt>
      <trkpt lat="45.92864" lon="4.73225">
        <ele>171</ele>
        <time>2016-09-27T08:52:18Z</time>
      </trkpt>
      <trkpt lat="45.92866" lon="4.73217">
        <ele>171</ele>
        <time>2016-09-27T08:52:19Z</time>
      </trkpt>
      <trkpt lat="45.92867" lon="4.73209">
        <ele>171</ele>
        <time>2016-09-27T08:52:20Z</time>
      </trkpt>
      <trkpt lat="45.92868" lon="4.73201">
        <ele>171</ele>
        <time>2016-09-27T08:52:21Z</time>
      </trkpt>
      <trkpt lat="45.92868" lon="4.73194">
        <ele>171</ele>
        <time>2016-09-27T08:52:22Z</time>
      </trkpt>
      <trkpt lat="45.92869" lon="4.73187">
        <ele>171</ele>
        <time>2016-09-27T08:52:23Z</time>
      </trkpt>
      <trkpt lat="45.9287" lon="4.73179">
        <ele>171</ele>
        <time>2016-09-27T08:52:24Z</time>
      </trkpt>
      <trkpt lat="45.92871" lon="4.73171">
        <ele>171</ele>
        <time>2016-09-27T08:52:25Z</time>
      </trkpt>
      <trkpt lat="45.92871" lon="4.73164">
        <ele>171</ele>
        <time>2016-09-27T08:52:26Z</time>
      </trkpt>
      <trkpt lat="45.92873" lon="4.73157">
        <ele>171</ele>
        <time>2016-09-27T08:52:27Z</time>
      </trkpt>
      <trkpt lat="45.92873" lon="4.73149">
        <ele>171</ele>
        <time>2016-09-27T08:52:28Z</time>
      </trkpt>
      <trkpt lat="45.92874" lon="4.73142">
        <ele>171</ele>
        <time>2016-09-27T08:52:29Z</time>
      </trkpt>
      <trkpt lat="45.92876" lon="4.73134">
        <ele>171</ele>
        <time>2016-09-27T08:52:30Z</time>
      </trkpt>
      <trkpt lat="45.92878" lon="4.73126">
        <ele>172</ele>
        <time>2016-09-27T08:52:31Z</time>
      </trkpt>
      <trkpt lat="45.9288" lon="4.73118">
        <ele>172</ele>
        <time>2016-09-27T08:52:32Z</time>
      </trkpt>
      <trkpt lat="45.92881" lon="4.73109">
        <ele>172</ele>
        <time>2016-09-27T08:52:33Z</time>
      </trkpt>
      <trkpt lat="45.92883" lon="4.73101">
        <ele>172</ele>
        <time>2016-09-27T08:52:34Z</time>
      </trkpt>
      <trkpt lat="45.92886" lon="4.73094">
        <ele>172</ele>
        <time>2016-09-27T08:52:35Z</time>
      </trkpt>
      <trkpt lat="45.92889" lon="4.73086">
        <ele>172</ele>
        <time>2016-09-27T08:52:36Z</time>
      </trkpt>
      <trkpt lat="45.92892" lon="4.73079">
        <ele>172</ele>
        <time>2016-09-27T08:52:37Z</time>
      </trkpt>
      <trkpt lat="45.92895" lon="4.73071">
        <ele>172</ele>
        <time>2016-09-27T08:52:38Z</time>
      </trkpt>
      <trkpt lat="45.92899" lon="4.73064">
        <ele>172</ele>
        <time>2016-09-27T08:52:39Z</time>
      </trkpt>
      <trkpt lat="45.92902" lon="4.73057">
        <ele>172</ele>
        <time>2016-09-27T08:52:40Z</time>
      </trkpt>
      <trkpt lat="45.92906" lon="4.73051">
        <ele>172</ele>
        <time>2016-09-27T08:52:41Z</time>
      </trkpt>
      <trkpt lat="45.9291" lon="4.73044">
        <ele>172</ele>
        <time>2016-09-27T08:52:42Z</time>
      </trkpt>
      <trkpt lat="45.92913" lon="4.73041">
        <ele>172</ele>
        <time>2016-09-27T08:52:43Z</time>
      </trkpt>
      <trkpt lat="45.92918" lon="4.73034">
        <ele>172</ele>
        <time>2016-09-27T08:52:44Z</time>
      </trkpt>
      <trkpt lat="45.92923" lon="4.73027">
        <ele>171</ele>
        <time>2016-09-27T08:52:45Z</time>
      </trkpt>
      <trkpt lat="45.92928" lon="4.7302">
        <ele>171</ele>
        <time>2016-09-27T08:52:46Z</time>
      </trkpt>
      <trkpt lat="45.92933" lon="4.73015">
        <ele>171</ele>
        <time>2016-09-27T08:52:47Z</time>
      </trkpt>
      <trkpt lat="45.92938" lon="4.73009">
        <ele>171</ele>
        <time>2016-09-27T08:52:48Z</time>
      </trkpt>
      <trkpt lat="45.92942" lon="4.73004">
        <ele>171</ele>
        <time>2016-09-27T08:52:49Z</time>
      </trkpt>
      <trkpt lat="45.92947" lon="4.72998">
        <ele>171</ele>
        <time>2016-09-27T08:52:50Z</time>
      </trkpt>
      <trkpt lat="45.92951" lon="4.72992">
        <ele>171</ele>
        <time>2016-09-27T08:52:51Z</time>
      </trkpt>
      <trkpt lat="45.92956" lon="4.72986">
        <ele>171</ele>
        <time>2016-09-27T08:52:52Z</time>
      </trkpt>
      <trkpt lat="45.9296" lon="4.7298">
        <ele>171</ele>
        <time>2016-09-27T08:52:53Z</time>
      </trkpt>
      <trkpt lat="45.92964" lon="4.72975">
        <ele>171</ele>
        <time>2016-09-27T08:52:54Z</time>
      </trkpt>
      <trkpt lat="45.92969" lon="4.7297">
        <ele>171</ele>
        <time>2016-09-27T08:52:55Z</time>
      </trkpt>
      <trkpt lat="45.92973" lon="4.72964">
        <ele>171</ele>
        <time>2016-09-27T08:52:56Z</time>
      </trkpt>
      <trkpt lat="45.92977" lon="4.72959">
        <ele>171</ele>
        <time>2016-09-27T08:52:57Z</time>
      </trkpt>
      <trkpt lat="45.92981" lon="4.72953">
        <ele>171</ele>
        <time>2016-09-27T08:52:58Z</time>
      </trkpt>
      <trkpt lat="45.92984" lon="4.72949">
        <ele>171</ele>
        <time>2016-09-27T08:52:59Z</time>
      </trkpt>
      <trkpt lat="45.92988" lon="4.72945">
        <ele>171</ele>
        <time>2016-09-27T08:53:00Z</time>
      </trkpt>
      <trkpt lat="45.92991" lon="4.7294">
        <ele>171</ele>
        <time>2016-09-27T08:53:01Z</time>
      </trkpt>
      <trkpt lat="45.92998" lon="4.72933">
        <ele>171</ele>
        <time>2016-09-27T08:53:03Z</time>
      </trkpt>
      <trkpt lat="45.93001" lon="4.72929">
        <ele>170</ele>
        <time>2016-09-27T08:53:04Z</time>
      </trkpt>
      <trkpt lat="45.93008" lon="4.72922">
        <ele>170</ele>
        <time>2016-09-27T08:53:06Z</time>
      </trkpt>
      <trkpt lat="45.9301" lon="4.7292">
        <ele>170</ele>
        <time>2016-09-27T08:53:07Z</time>
      </trkpt>
      <trkpt lat="45.93016" lon="4.72913">
        <ele>171</ele>
        <time>2016-09-27T08:53:10Z</time>
      </trkpt>
      <trkpt lat="45.93018" lon="4.72911">
        <ele>171</ele>
        <time>2016-09-27T08:53:11Z</time>
      </trkpt>
      <trkpt lat="45.93023" lon="4.72905">
        <ele>172</ele>
        <time>2016-09-27T08:53:14Z</time>
      </trkpt>
      <trkpt lat="45.93025" lon="4.72902">
        <ele>172</ele>
        <time>2016-09-27T08:53:15Z</time>
      </trkpt>
      <trkpt lat="45.9303" lon="4.72896">
        <ele>172</ele>
        <time>2016-09-27T08:53:17Z</time>
      </trkpt>
      <trkpt lat="45.93031" lon="4.72891">
        <ele>172</ele>
        <time>2016-09-27T08:53:18Z</time>
      </trkpt>
      <trkpt lat="45.93034" lon="4.72884">
        <ele>172</ele>
        <time>2016-09-27T08:53:20Z</time>
      </trkpt>
      <trkpt lat="45.93036" lon="4.7288">
        <ele>172</ele>
        <time>2016-09-27T08:53:21Z</time>
      </trkpt>
      <trkpt lat="45.93042" lon="4.72875">
        <ele>172</ele>
        <time>2016-09-27T08:53:30Z</time>
      </trkpt>
      <trkpt lat="45.93044" lon="4.72872">
        <ele>172</ele>
        <time>2016-09-27T08:53:31Z</time>
      </trkpt>
      <trkpt lat="45.93051" lon="4.72866">
        <ele>172</ele>
        <time>2016-09-27T08:53:34Z</time>
      </trkpt>
      <trkpt lat="45.93052" lon="4.72863">
        <ele>172</ele>
        <time>2016-09-27T08:53:35Z</time>
      </trkpt>
      <trkpt lat="45.93059" lon="4.72857">
        <ele>172</ele>
        <time>2016-09-27T08:53:37Z</time>
      </trkpt>
      <trkpt lat="45.93061" lon="4.72856">
        <ele>172</ele>
        <time>2016-09-27T08:53:38Z</time>
      </trkpt>
      <trkpt lat="45.93067" lon="4.72848">
        <ele>172</ele>
        <time>2016-09-27T08:53:43Z</time>
      </trkpt>
      <trkpt lat="45.93069" lon="4.72846">
        <ele>172</ele>
        <time>2016-09-27T08:53:44Z</time>
      </trkpt>
      <trkpt lat="45.93098" lon="4.72797">
        <ele>171</ele>
        <time>2016-09-27T08:53:45Z</time>
      </trkpt>
      <trkpt lat="45.93104" lon="4.72803">
        <ele>171</ele>
        <time>2016-09-27T08:53:46Z</time>
      </trkpt>
      <trkpt lat="45.9311" lon="4.72795">
        <ele>171</ele>
        <time>2016-09-27T08:53:47Z</time>
      </trkpt>
      <trkpt lat="45.93115" lon="4.7279">
        <ele>171</ele>
        <time>2016-09-27T08:53:48Z</time>
      </trkpt>
      <trkpt lat="45.93121" lon="4.72787">
        <ele>171</ele>
        <time>2016-09-27T08:53:49Z</time>
      </trkpt>
      <trkpt lat="45.93127" lon="4.72783">
        <ele>171</ele>
        <time>2016-09-27T08:53:50Z</time>
      </trkpt>
      <trkpt lat="45.93132" lon="4.72778">
        <ele>171</ele>
        <time>2016-09-27T08:53:51Z</time>
      </trkpt>
      <trkpt lat="45.93138" lon="4.72772">
        <ele>171</ele>
        <time>2016-09-27T08:53:52Z</time>
      </trkpt>
      <trkpt lat="45.93143" lon="4.72766">
        <ele>171</ele>
        <time>2016-09-27T08:53:53Z</time>
      </trkpt>
      <trkpt lat="45.93148" lon="4.72761">
        <ele>171</ele>
        <time>2016-09-27T08:53:54Z</time>
      </trkpt>
      <trkpt lat="45.93153" lon="4.72755">
        <ele>170</ele>
        <time>2016-09-27T08:53:55Z</time>
      </trkpt>
      <trkpt lat="45.93158" lon="4.72749">
        <ele>170</ele>
        <time>2016-09-27T08:53:56Z</time>
      </trkpt>
      <trkpt lat="45.93163" lon="4.72743">
        <ele>170</ele>
        <time>2016-09-27T08:53:57Z</time>
      </trkpt>
      <trkpt lat="45.93168" lon="4.72737">
        <ele>170</ele>
        <time>2016-09-27T08:53:58Z</time>
      </trkpt>
      <trkpt lat="45.93173" lon="4.7273">
        <ele>170</ele>
        <time>2016-09-27T08:53:59Z</time>
      </trkpt>
      <trkpt lat="45.93177" lon="4.72724">
        <ele>170</ele>
        <time>2016-09-27T08:54:00Z</time>
      </trkpt>
      <trkpt lat="45.93181" lon="4.72718">
        <ele>169</ele>
        <time>2016-09-27T08:54:01Z</time>
      </trkpt>
      <trkpt lat="45.93185" lon="4.72712">
        <ele>169</ele>
        <time>2016-09-27T08:54:02Z</time>
      </trkpt>
      <trkpt lat="45.9319" lon="4.72706">
        <ele>169</ele>
        <time>2016-09-27T08:54:03Z</time>
      </trkpt>
      <trkpt lat="45.93195" lon="4.72698">
        <ele>169</ele>
        <time>2016-09-27T08:54:04Z</time>
      </trkpt>
      <trkpt lat="45.932" lon="4.7269">
        <ele>169</ele>
        <time>2016-09-27T08:54:05Z</time>
      </trkpt>
      <trkpt lat="45.93205" lon="4.72683">
        <ele>169</ele>
        <time>2016-09-27T08:54:06Z</time>
      </trkpt>
      <trkpt lat="45.9321" lon="4.72677">
        <ele>169</ele>
        <time>2016-09-27T08:54:07Z</time>
      </trkpt>
      <trkpt lat="45.93214" lon="4.7267">
        <ele>169</ele>
        <time>2016-09-27T08:54:08Z</time>
      </trkpt>
      <trkpt lat="45.93218" lon="4.72665">
        <ele>170</ele>
        <time>2016-09-27T08:54:09Z</time>
      </trkpt>
      <trkpt lat="45.93222" lon="4.72661">
        <ele>170</ele>
        <time>2016-09-27T08:54:10Z</time>
      </trkpt>
      <trkpt lat="45.93228" lon="4.72656">
        <ele>170</ele>
        <time>2016-09-27T08:54:11Z</time>
      </trkpt>
      <trkpt lat="45.93233" lon="4.72652">
        <ele>170</ele>
        <time>2016-09-27T08:54:12Z</time>
      </trkpt>
      <trkpt lat="45.93239" lon="4.72646">
        <ele>170</ele>
        <time>2016-09-27T08:54:13Z</time>
      </trkpt>
      <trkpt lat="45.93244" lon="4.7264">
        <ele>170</ele>
        <time>2016-09-27T08:54:14Z</time>
      </trkpt>
      <trkpt lat="45.93249" lon="4.72635">
        <ele>170</ele>
        <time>2016-09-27T08:54:15Z</time>
      </trkpt>
      <trkpt lat="45.93254" lon="4.72629">
        <ele>170</ele>
        <time>2016-09-27T08:54:16Z</time>
      </trkpt>
      <trkpt lat="45.93259" lon="4.72623">
        <ele>170</ele>
        <time>2016-09-27T08:54:17Z</time>
      </trkpt>
      <trkpt lat="45.93264" lon="4.72619">
        <ele>170</ele>
        <time>2016-09-27T08:54:18Z</time>
      </trkpt>
      <trkpt lat="45.93269" lon="4.72614">
        <ele>170</ele>
        <time>2016-09-27T08:54:19Z</time>
      </trkpt>
      <trkpt lat="45.93274" lon="4.72609">
        <ele>170</ele>
        <time>2016-09-27T08:54:20Z</time>
      </trkpt>
      <trkpt lat="45.9328" lon="4.72604">
        <ele>170</ele>
        <time>2016-09-27T08:54:21Z</time>
      </trkpt>
      <trkpt lat="45.93284" lon="4.72599">
        <ele>170</ele>
        <time>2016-09-27T08:54:22Z</time>
      </trkpt>
      <trkpt lat="45.93289" lon="4.72594">
        <ele>170</ele>
        <time>2016-09-27T08:54:23Z</time>
      </trkpt>
      <trkpt lat="45.93294" lon="4.72589">
        <ele>170</ele>
        <time>2016-09-27T08:54:24Z</time>
      </trkpt>
      <trkpt lat="45.93298" lon="4.72584">
        <ele>170</ele>
        <time>2016-09-27T08:54:25Z</time>
      </trkpt>
      <trkpt lat="45.93303" lon="4.72578">
        <ele>171</ele>
        <time>2016-09-27T08:54:26Z</time>
      </trkpt>
      <trkpt lat="45.93307" lon="4.72573">
        <ele>171</ele>
        <time>2016-09-27T08:54:27Z</time>
      </trkpt>
      <trkpt lat="45.93312" lon="4.72568">
        <ele>171</ele>
        <time>2016-09-27T08:54:28Z</time>
      </trkpt>
      <trkpt lat="45.93317" lon="4.72562">
        <ele>171</ele>
        <time>2016-09-27T08:54:29Z</time>
      </trkpt>
      <trkpt lat="45.93321" lon="4.72557">
        <ele>171</ele>
        <time>2016-09-27T08:54:30Z</time>
      </trkpt>
      <trkpt lat="45.93326" lon="4.72551">
        <ele>172</ele>
        <time>2016-09-27T08:54:31Z</time>
      </trkpt>
      <trkpt lat="45.93331" lon="4.72544">
        <ele>172</ele>
        <time>2016-09-27T08:54:32Z</time>
      </trkpt>
      <trkpt lat="45.93336" lon="4.72539">
        <ele>171</ele>
        <time>2016-09-27T08:54:33Z</time>
      </trkpt>
      <trkpt lat="45.9334" lon="4.72534">
        <ele>172</ele>
        <time>2016-09-27T08:54:34Z</time>
      </trkpt>
      <trkpt lat="45.93346" lon="4.7253">
        <ele>172</ele>
        <time>2016-09-27T08:54:35Z</time>
      </trkpt>
      <trkpt lat="45.9335" lon="4.72523">
        <ele>172</ele>
        <time>2016-09-27T08:54:36Z</time>
      </trkpt>
      <trkpt lat="45.93355" lon="4.72517">
        <ele>172</ele>
        <time>2016-09-27T08:54:37Z</time>
      </trkpt>
      <trkpt lat="45.93359" lon="4.72511">
        <ele>172</ele>
        <time>2016-09-27T08:54:38Z</time>
      </trkpt>
      <trkpt lat="45.93364" lon="4.72507">
        <ele>172</ele>
        <time>2016-09-27T08:54:39Z</time>
      </trkpt>
      <trkpt lat="45.93368" lon="4.72502">
        <ele>172</ele>
        <time>2016-09-27T08:54:40Z</time>
      </trkpt>
      <trkpt lat="45.93373" lon="4.72496">
        <ele>173</ele>
        <time>2016-09-27T08:54:41Z</time>
      </trkpt>
      <trkpt lat="45.93377" lon="4.72491">
        <ele>173</ele>
        <time>2016-09-27T08:54:42Z</time>
      </trkpt>
      <trkpt lat="45.93381" lon="4.72486">
        <ele>173</ele>
        <time>2016-09-27T08:54:43Z</time>
      </trkpt>
      <trkpt lat="45.93385" lon="4.72481">
        <ele>173</ele>
        <time>2016-09-27T08:54:44Z</time>
      </trkpt>
      <trkpt lat="45.93389" lon="4.72477">
        <ele>173</ele>
        <time>2016-09-27T08:54:45Z</time>
      </trkpt>
      <trkpt lat="45.93395" lon="4.72468">
        <ele>173</ele>
        <time>2016-09-27T08:54:47Z</time>
      </trkpt>
      <trkpt lat="45.93398" lon="4.72463">
        <ele>173</ele>
        <time>2016-09-27T08:54:48Z</time>
      </trkpt>
      <trkpt lat="45.93401" lon="4.72453">
        <ele>173</ele>
        <time>2016-09-27T08:54:50Z</time>
      </trkpt>
      <trkpt lat="45.93401" lon="4.7245">
        <ele>173</ele>
        <time>2016-09-27T08:54:51Z</time>
      </trkpt>
      <trkpt lat="45.93404" lon="4.7244">
        <ele>173</ele>
        <time>2016-09-27T08:54:57Z</time>
      </trkpt>
      <trkpt lat="45.93406" lon="4.72438">
        <ele>173</ele>
        <time>2016-09-27T08:54:58Z</time>
      </trkpt>
      <trkpt lat="45.9341" lon="4.7243">
        <ele>174</ele>
        <time>2016-09-27T08:55:01Z</time>
      </trkpt>
      <trkpt lat="45.93412" lon="4.72427">
        <ele>174</ele>
        <time>2016-09-27T08:55:02Z</time>
      </trkpt>
      <trkpt lat="45.93418" lon="4.7242">
        <ele>174</ele>
        <time>2016-09-27T08:55:04Z</time>
      </trkpt>
      <trkpt lat="45.93422" lon="4.72419">
        <ele>174</ele>
        <time>2016-09-27T08:55:05Z</time>
      </trkpt>
      <trkpt lat="45.93426" lon="4.72417">
        <ele>174</ele>
        <time>2016-09-27T08:55:06Z</time>
      </trkpt>
      <trkpt lat="45.93431" lon="4.72413">
        <ele>174</ele>
        <time>2016-09-27T08:55:07Z</time>
      </trkpt>
      <trkpt lat="45.93437" lon="4.72409">
        <ele>174</ele>
        <time>2016-09-27T08:55:08Z</time>
      </trkpt>
      <trkpt lat="45.93442" lon="4.72406">
        <ele>173</ele>
        <time>2016-09-27T08:55:09Z</time>
      </trkpt>
      <trkpt lat="45.93448" lon="4.72402">
        <ele>173</ele>
        <time>2016-09-27T08:55:10Z</time>
      </trkpt>
      <trkpt lat="45.93453" lon="4.72398">
        <ele>173</ele>
        <time>2016-09-27T08:55:11Z</time>
      </trkpt>
      <trkpt lat="45.93458" lon="4.72393">
        <ele>173</ele>
        <time>2016-09-27T08:55:12Z</time>
      </trkpt>
      <trkpt lat="45.93464" lon="4.72387">
        <ele>173</ele>
        <time>2016-09-27T08:55:13Z</time>
      </trkpt>
      <trkpt lat="45.93469" lon="4.72381">
        <ele>173</ele>
        <time>2016-09-27T08:55:14Z</time>
      </trkpt>
      <trkpt lat="45.93473" lon="4.72375">
        <ele>173</ele>
        <time>2016-09-27T08:55:15Z</time>
      </trkpt>
      <trkpt lat="45.93478" lon="4.72368">
        <ele>173</ele>
        <time>2016-09-27T08:55:16Z</time>
      </trkpt>
      <trkpt lat="45.93483" lon="4.72361">
        <ele>173</ele>
        <time>2016-09-27T08:55:17Z</time>
      </trkpt>
      <trkpt lat="45.93487" lon="4.72354">
        <ele>173</ele>
        <time>2016-09-27T08:55:18Z</time>
      </trkpt>
      <trkpt lat="45.93491" lon="4.72347">
        <ele>173</ele>
        <time>2016-09-27T08:55:19Z</time>
      </trkpt>
      <trkpt lat="45.93497" lon="4.72351">
        <ele>173</ele>
        <time>2016-09-27T08:55:20Z</time>
      </trkpt>
      <trkpt lat="45.93502" lon="4.72346">
        <ele>173</ele>
        <time>2016-09-27T08:55:21Z</time>
      </trkpt>
      <trkpt lat="45.93506" lon="4.7234">
        <ele>173</ele>
        <time>2016-09-27T08:55:22Z</time>
      </trkpt>
      <trkpt lat="45.93509" lon="4.72332">
        <ele>173</ele>
        <time>2016-09-27T08:55:23Z</time>
      </trkpt>
      <trkpt lat="45.93513" lon="4.72325">
        <ele>173</ele>
        <time>2016-09-27T08:55:24Z</time>
      </trkpt>
      <trkpt lat="45.93517" lon="4.72317">
        <ele>173</ele>
        <time>2016-09-27T08:55:25Z</time>
      </trkpt>
      <trkpt lat="45.9352" lon="4.7231">
        <ele>173</ele>
        <time>2016-09-27T08:55:26Z</time>
      </trkpt>
      <trkpt lat="45.93523" lon="4.72302">
        <ele>173</ele>
        <time>2016-09-27T08:55:27Z</time>
      </trkpt>
      <trkpt lat="45.93526" lon="4.72294">
        <ele>172</ele>
        <time>2016-09-27T08:55:28Z</time>
      </trkpt>
      <trkpt lat="45.93529" lon="4.72286">
        <ele>172</ele>
        <time>2016-09-27T08:55:29Z</time>
      </trkpt>
      <trkpt lat="45.93532" lon="4.72277">
        <ele>172</ele>
        <time>2016-09-27T08:55:30Z</time>
      </trkpt>
      <trkpt lat="45.93535" lon="4.7227">
        <ele>172</ele>
        <time>2016-09-27T08:55:31Z</time>
      </trkpt>
      <trkpt lat="45.93539" lon="4.72262">
        <ele>172</ele>
        <time>2016-09-27T08:55:32Z</time>
      </trkpt>
      <trkpt lat="45.93542" lon="4.72254">
        <ele>172</ele>
        <time>2016-09-27T08:55:33Z</time>
      </trkpt>
      <trkpt lat="45.93546" lon="4.72245">
        <ele>172</ele>
        <time>2016-09-27T08:55:34Z</time>
      </trkpt>
      <trkpt lat="45.93549" lon="4.72237">
        <ele>172</ele>
        <time>2016-09-27T08:55:35Z</time>
      </trkpt>
      <trkpt lat="45.93553" lon="4.72229">
        <ele>173</ele>
        <time>2016-09-27T08:55:36Z</time>
      </trkpt>
      <trkpt lat="45.93558" lon="4.72223">
        <ele>173</ele>
        <time>2016-09-27T08:55:37Z</time>
      </trkpt>
      <trkpt lat="45.93563" lon="4.72217">
        <ele>173</ele>
        <time>2016-09-27T08:55:38Z</time>
      </trkpt>
      <trkpt lat="45.93568" lon="4.72212">
        <ele>173</ele>
        <time>2016-09-27T08:55:39Z</time>
      </trkpt>
      <trkpt lat="45.93574" lon="4.72205">
        <ele>173</ele>
        <time>2016-09-27T08:55:40Z</time>
      </trkpt>
      <trkpt lat="45.93578" lon="4.72199">
        <ele>173</ele>
        <time>2016-09-27T08:55:41Z</time>
      </trkpt>
      <trkpt lat="45.93583" lon="4.72194">
        <ele>173</ele>
        <time>2016-09-27T08:55:42Z</time>
      </trkpt>
      <trkpt lat="45.93588" lon="4.72188">
        <ele>173</ele>
        <time>2016-09-27T08:55:43Z</time>
      </trkpt>
      <trkpt lat="45.93593" lon="4.72183">
        <ele>173</ele>
        <time>2016-09-27T08:55:44Z</time>
      </trkpt>
      <trkpt lat="45.93599" lon="4.72178">
        <ele>173</ele>
        <time>2016-09-27T08:55:45Z</time>
      </trkpt>
      <trkpt lat="45.93605" lon="4.72172">
        <ele>173</ele>
        <time>2016-09-27T08:55:46Z</time>
      </trkpt>
      <trkpt lat="45.93611" lon="4.72166">
        <ele>173</ele>
        <time>2016-09-27T08:55:47Z</time>
      </trkpt>
      <trkpt lat="45.93617" lon="4.7216">
        <ele>173</ele>
        <time>2016-09-27T08:55:48Z</time>
      </trkpt>
      <trkpt lat="45.93623" lon="4.72154">
        <ele>173</ele>
        <time>2016-09-27T08:55:49Z</time>
      </trkpt>
      <trkpt lat="45.93628" lon="4.72148">
        <ele>173</ele>
        <time>2016-09-27T08:55:50Z</time>
      </trkpt>
      <trkpt lat="45.93633" lon="4.72141">
        <ele>173</ele>
        <time>2016-09-27T08:55:51Z</time>
      </trkpt>
      <trkpt lat="45.93638" lon="4.72135">
        <ele>173</ele>
        <time>2016-09-27T08:55:52Z</time>
      </trkpt>
      <trkpt lat="45.93642" lon="4.72127">
        <ele>173</ele>
        <time>2016-09-27T08:55:53Z</time>
      </trkpt>
      <trkpt lat="45.93646" lon="4.72119">
        <ele>173</ele>
        <time>2016-09-27T08:55:54Z</time>
      </trkpt>
      <trkpt lat="45.9365" lon="4.72111">
        <ele>173</ele>
        <time>2016-09-27T08:55:55Z</time>
      </trkpt>
      <trkpt lat="45.93655" lon="4.72104">
        <ele>173</ele>
        <time>2016-09-27T08:55:56Z</time>
      </trkpt>
      <trkpt lat="45.9366" lon="4.72096">
        <ele>173</ele>
        <time>2016-09-27T08:55:57Z</time>
      </trkpt>
      <trkpt lat="45.93665" lon="4.72088">
        <ele>172</ele>
        <time>2016-09-27T08:55:58Z</time>
      </trkpt>
      <trkpt lat="45.9367" lon="4.7208">
        <ele>172</ele>
        <time>2016-09-27T08:55:59Z</time>
      </trkpt>
      <trkpt lat="45.93674" lon="4.72073">
        <ele>172</ele>
        <time>2016-09-27T08:56:00Z</time>
      </trkpt>
      <trkpt lat="45.93678" lon="4.72065">
        <ele>172</ele>
        <time>2016-09-27T08:56:01Z</time>
      </trkpt>
      <trkpt lat="45.93682" lon="4.72058">
        <ele>172</ele>
        <time>2016-09-27T08:56:02Z</time>
      </trkpt>
      <trkpt lat="45.93686" lon="4.72051">
        <ele>172</ele>
        <time>2016-09-27T08:56:03Z</time>
      </trkpt>
      <trkpt lat="45.9369" lon="4.72044">
        <ele>172</ele>
        <time>2016-09-27T08:56:04Z</time>
      </trkpt>
      <trkpt lat="45.93691" lon="4.72035">
        <ele>173</ele>
        <time>2016-09-27T08:56:05Z</time>
      </trkpt>
      <trkpt lat="45.93691" lon="4.72027">
        <ele>173</ele>
        <time>2016-09-27T08:56:06Z</time>
      </trkpt>
      <trkpt lat="45.93691" lon="4.7202">
        <ele>173</ele>
        <time>2016-09-27T08:56:07Z</time>
      </trkpt>
      <trkpt lat="45.9369" lon="4.72013">
        <ele>173</ele>
        <time>2016-09-27T08:56:08Z</time>
      </trkpt>
      <trkpt lat="45.93687" lon="4.72006">
        <ele>173</ele>
        <time>2016-09-27T08:56:09Z</time>
      </trkpt>
      <trkpt lat="45.93685" lon="4.72">
        <ele>173</ele>
        <time>2016-09-27T08:56:10Z</time>
      </trkpt>
      <trkpt lat="45.93682" lon="4.71993">
        <ele>173</ele>
        <time>2016-09-27T08:56:11Z</time>
      </trkpt>
      <trkpt lat="45.93678" lon="4.71987">
        <ele>173</ele>
        <time>2016-09-27T08:56:12Z</time>
      </trkpt>
      <trkpt lat="45.93676" lon="4.7198">
        <ele>173</ele>
        <time>2016-09-27T08:56:13Z</time>
      </trkpt>
      <trkpt lat="45.93671" lon="4.7197">
        <ele>173</ele>
        <time>2016-09-27T08:56:15Z</time>
      </trkpt>
      <trkpt lat="45.9367" lon="4.71965">
        <ele>173</ele>
        <time>2016-09-27T08:56:16Z</time>
      </trkpt>
      <trkpt lat="45.9367" lon="4.71964">
        <ele>173</ele>
        <time>2016-09-27T08:56:17Z</time>
      </trkpt>
      <trkpt lat="45.93671" lon="4.71963">
        <ele>173</ele>
        <time>2016-09-27T08:56:18Z</time>
      </trkpt>
      <trkpt lat="45.93668" lon="4.71951">
        <ele>173</ele>
        <time>2016-09-27T08:56:34Z</time>
      </trkpt>
      <trkpt lat="45.93667" lon="4.71949">
        <ele>173</ele>
        <time>2016-09-27T08:56:35Z</time>
      </trkpt>
      <trkpt lat="45.93661" lon="4.71944">
        <ele>175</ele>
        <time>2016-09-27T08:56:38Z</time>
      </trkpt>
      <trkpt lat="45.93659" lon="4.71939">
        <ele>175</ele>
        <time>2016-09-27T08:56:39Z</time>
      </trkpt>
      <trkpt lat="45.93656" lon="4.71933">
        <ele>175</ele>
        <time>2016-09-27T08:56:40Z</time>
      </trkpt>
      <trkpt lat="45.93655" lon="4.71926">
        <ele>175</ele>
        <time>2016-09-27T08:56:41Z</time>
      </trkpt>
      <trkpt lat="45.93651" lon="4.71916">
        <ele>176</ele>
        <time>2016-09-27T08:56:43Z</time>
      </trkpt>
      <trkpt lat="45.93649" lon="4.71914">
        <ele>176</ele>
        <time>2016-09-27T08:56:44Z</time>
      </trkpt>
      <trkpt lat="45.93645" lon="4.71903">
        <ele>177</ele>
        <time>2016-09-27T08:56:46Z</time>
      </trkpt>
      <trkpt lat="45.93644" lon="4.71898">
        <ele>177</ele>
        <time>2016-09-27T08:56:47Z</time>
      </trkpt>
      <trkpt lat="45.9364" lon="4.71886">
        <ele>177</ele>
        <time>2016-09-27T08:56:49Z</time>
      </trkpt>
      <trkpt lat="45.93638" lon="4.7188">
        <ele>177</ele>
        <time>2016-09-27T08:56:50Z</time>
      </trkpt>
      <trkpt lat="45.93636" lon="4.71874">
        <ele>177</ele>
        <time>2016-09-27T08:56:51Z</time>
      </trkpt>
      <trkpt lat="45.93634" lon="4.71868">
        <ele>177</ele>
        <time>2016-09-27T08:56:52Z</time>
      </trkpt>
      <trkpt lat="45.93632" lon="4.71862">
        <ele>178</ele>
        <time>2016-09-27T08:56:53Z</time>
      </trkpt>
      <trkpt lat="45.93629" lon="4.71856">
        <ele>178</ele>
        <time>2016-09-27T08:56:54Z</time>
      </trkpt>
      <trkpt lat="45.93625" lon="4.71845">
        <ele>178</ele>
        <time>2016-09-27T08:56:56Z</time>
      </trkpt>
      <trkpt lat="45.93625" lon="4.71841">
        <ele>178</ele>
        <time>2016-09-27T08:56:57Z</time>
      </trkpt>
      <trkpt lat="45.93621" lon="4.71832">
        <ele>179</ele>
        <time>2016-09-27T08:56:59Z</time>
      </trkpt>
      <trkpt lat="45.93621" lon="4.71827">
        <ele>179</ele>
        <time>2016-09-27T08:57:00Z</time>
      </trkpt>
      <trkpt lat="45.93616" lon="4.71819">
        <ele>179</ele>
        <time>2016-09-27T08:57:03Z</time>
      </trkpt>
      <trkpt lat="45.93613" lon="4.71819">
        <ele>179</ele>
        <time>2016-09-27T08:57:04Z</time>
      </trkpt>
      <trkpt lat="45.93606" lon="4.71824">
        <ele>179</ele>
        <time>2016-09-27T08:57:06Z</time>
      </trkpt>
      <trkpt lat="45.93602" lon="4.71827">
        <ele>179</ele>
        <time>2016-09-27T08:57:07Z</time>
      </trkpt>
      <trkpt lat="45.93594" lon="4.71831">
        <ele>180</ele>
        <time>2016-09-27T08:57:09Z</time>
      </trkpt>
      <trkpt lat="45.9359" lon="4.71831">
        <ele>180</ele>
        <time>2016-09-27T08:57:10Z</time>
      </trkpt>
      <trkpt lat="45.93584" lon="4.71834">
        <ele>180</ele>
        <time>2016-09-27T08:57:11Z</time>
      </trkpt>
      <trkpt lat="45.93579" lon="4.71834">
        <ele>180</ele>
        <time>2016-09-27T08:57:12Z</time>
      </trkpt>
      <trkpt lat="45.93572" lon="4.71831">
        <ele>180</ele>
        <time>2016-09-27T08:57:14Z</time>
      </trkpt>
      <trkpt lat="45.93568" lon="4.71828">
        <ele>180</ele>
        <time>2016-09-27T08:57:15Z</time>
      </trkpt>
      <trkpt lat="45.93563" lon="4.71829">
        <ele>180</ele>
        <time>2016-09-27T08:57:16Z</time>
      </trkpt>
      <trkpt lat="45.93558" lon="4.71829">
        <ele>180</ele>
        <time>2016-09-27T08:57:17Z</time>
      </trkpt>
      <trkpt lat="45.93554" lon="4.71829">
        <ele>180</ele>
        <time>2016-09-27T08:57:18Z</time>
      </trkpt>
      <trkpt lat="45.93548" lon="4.71831">
        <ele>180</ele>
        <time>2016-09-27T08:57:19Z</time>
      </trkpt>
      <trkpt lat="45.93543" lon="4.71831">
        <ele>180</ele>
        <time>2016-09-27T08:57:20Z</time>
      </trkpt>
      <trkpt lat="45.93538" lon="4.71833">
        <ele>179</ele>
        <time>2016-09-27T08:57:21Z</time>
      </trkpt>
      <trkpt lat="45.93533" lon="4.71833">
        <ele>179</ele>
        <time>2016-09-27T08:57:22Z</time>
      </trkpt>
      <trkpt lat="45.93528" lon="4.71833">
        <ele>179</ele>
        <time>2016-09-27T08:57:23Z</time>
      </trkpt>
      <trkpt lat="45.93523" lon="4.71833">
        <ele>179</ele>
        <time>2016-09-27T08:57:24Z</time>
      </trkpt>
      <trkpt lat="45.93517" lon="4.71834">
        <ele>179</ele>
        <time>2016-09-27T08:57:25Z</time>
      </trkpt>
      <trkpt lat="45.93508" lon="4.71836">
        <ele>179</ele>
        <time>2016-09-27T08:57:27Z</time>
      </trkpt>
      <trkpt lat="45.93504" lon="4.71836">
        <ele>179</ele>
        <time>2016-09-27T08:57:28Z</time>
      </trkpt>
      <trkpt lat="45.93498" lon="4.71838">
        <ele>179</ele>
        <time>2016-09-27T08:57:29Z</time>
      </trkpt>
      <trkpt lat="45.93493" lon="4.7184">
        <ele>179</ele>
        <time>2016-09-27T08:57:30Z</time>
      </trkpt>
      <trkpt lat="45.93488" lon="4.71842">
        <ele>180</ele>
        <time>2016-09-27T08:57:31Z</time>
      </trkpt>
      <trkpt lat="45.93483" lon="4.71843">
        <ele>180</ele>
        <time>2016-09-27T08:57:32Z</time>
      </trkpt>
      <trkpt lat="45.93478" lon="4.71844">
        <ele>180</ele>
        <time>2016-09-27T08:57:33Z</time>
      </trkpt>
      <trkpt lat="45.93472" lon="4.71848">
        <ele>180</ele>
        <time>2016-09-27T08:57:34Z</time>
      </trkpt>
      <trkpt lat="45.93465" lon="4.71846">
        <ele>180</ele>
        <time>2016-09-27T08:57:35Z</time>
      </trkpt>
      <trkpt lat="45.9346" lon="4.71845">
        <ele>181</ele>
        <time>2016-09-27T08:57:36Z</time>
      </trkpt>
      <trkpt lat="45.93455" lon="4.7184">
        <ele>181</ele>
        <time>2016-09-27T08:57:38Z</time>
      </trkpt>
      <trkpt lat="45.93453" lon="4.71836">
        <ele>181</ele>
        <time>2016-09-27T08:57:39Z</time>
      </trkpt>
      <trkpt lat="45.93449" lon="4.71824">
        <ele>182</ele>
        <time>2016-09-27T08:57:41Z</time>
      </trkpt>
      <trkpt lat="45.93448" lon="4.71818">
        <ele>182</ele>
        <time>2016-09-27T08:57:42Z</time>
      </trkpt>
      <trkpt lat="45.93445" lon="4.71812">
        <ele>182</ele>
        <time>2016-09-27T08:57:43Z</time>
      </trkpt>
      <trkpt lat="45.93443" lon="4.71807">
        <ele>182</ele>
        <time>2016-09-27T08:57:44Z</time>
      </trkpt>
      <trkpt lat="45.9344" lon="4.71797">
        <ele>182</ele>
        <time>2016-09-27T08:57:46Z</time>
      </trkpt>
      <trkpt lat="45.93439" lon="4.71793">
        <ele>182</ele>
        <time>2016-09-27T08:57:47Z</time>
      </trkpt>
      <trkpt lat="45.93435" lon="4.71784">
        <ele>182</ele>
        <time>2016-09-27T08:57:49Z</time>
      </trkpt>
      <trkpt lat="45.93433" lon="4.71778">
        <ele>182</ele>
        <time>2016-09-27T08:57:50Z</time>
      </trkpt>
      <trkpt lat="45.93428" lon="4.71768">
        <ele>182</ele>
        <time>2016-09-27T08:57:52Z</time>
      </trkpt>
      <trkpt lat="45.93426" lon="4.71763">
        <ele>182</ele>
        <time>2016-09-27T08:57:53Z</time>
      </trkpt>
      <trkpt lat="45.93423" lon="4.71758">
        <ele>182</ele>
        <time>2016-09-27T08:57:54Z</time>
      </trkpt>
      <trkpt lat="45.93421" lon="4.71752">
        <ele>183</ele>
        <time>2016-09-27T08:57:55Z</time>
      </trkpt>
      <trkpt lat="45.93418" lon="4.71746">
        <ele>183</ele>
        <time>2016-09-27T08:57:56Z</time>
      </trkpt>
      <trkpt lat="45.93415" lon="4.7174">
        <ele>183</ele>
        <time>2016-09-27T08:57:57Z</time>
      </trkpt>
      <trkpt lat="45.93413" lon="4.71735">
        <ele>184</ele>
        <time>2016-09-27T08:57:58Z</time>
      </trkpt>
      <trkpt lat="45.9341" lon="4.71729">
        <ele>184</ele>
        <time>2016-09-27T08:57:59Z</time>
      </trkpt>
      <trkpt lat="45.93408" lon="4.71724">
        <ele>184</ele>
        <time>2016-09-27T08:58:00Z</time>
      </trkpt>
      <trkpt lat="45.93405" lon="4.71718">
        <ele>184</ele>
        <time>2016-09-27T08:58:01Z</time>
      </trkpt>
      <trkpt lat="45.93404" lon="4.71707">
        <ele>184</ele>
        <time>2016-09-27T08:58:05Z</time>
      </trkpt>
      <trkpt lat="45.93404" lon="4.71706">
        <ele>184</ele>
        <time>2016-09-27T08:58:06Z</time>
      </trkpt>
      <trkpt lat="45.93401" lon="4.71697">
        <ele>184</ele>
        <time>2016-09-27T08:58:24Z</time>
      </trkpt>
      <trkpt lat="45.934" lon="4.71696">
        <ele>184</ele>
        <time>2016-09-27T08:58:25Z</time>
      </trkpt>
      <trkpt lat="45.93392" lon="4.71691">
        <ele>184</ele>
        <time>2016-09-27T08:58:36Z</time>
      </trkpt>
      <trkpt lat="45.9339" lon="4.71688">
        <ele>184</ele>
        <time>2016-09-27T08:58:37Z</time>
      </trkpt>
      <trkpt lat="45.93388" lon="4.71678">
        <ele>184</ele>
        <time>2016-09-27T08:58:39Z</time>
      </trkpt>
      <trkpt lat="45.93387" lon="4.71673">
        <ele>184</ele>
        <time>2016-09-27T08:58:40Z</time>
      </trkpt>
      <trkpt lat="45.93384" lon="4.71663">
        <ele>185</ele>
        <time>2016-09-27T08:58:42Z</time>
      </trkpt>
      <trkpt lat="45.93382" lon="4.71658">
        <ele>185</ele>
        <time>2016-09-27T08:58:43Z</time>
      </trkpt>
      <trkpt lat="45.93377" lon="4.71648">
        <ele>185</ele>
        <time>2016-09-27T08:58:45Z</time>
      </trkpt>
      <trkpt lat="45.93376" lon="4.71643">
        <ele>185</ele>
        <time>2016-09-27T08:58:46Z</time>
      </trkpt>
      <trkpt lat="45.93372" lon="4.71632">
        <ele>185</ele>
        <time>2016-09-27T08:58:48Z</time>
      </trkpt>
      <trkpt lat="45.93369" lon="4.71626">
        <ele>185</ele>
        <time>2016-09-27T08:58:49Z</time>
      </trkpt>
      <trkpt lat="45.93366" lon="4.71615">
        <ele>185</ele>
        <time>2016-09-27T08:58:51Z</time>
      </trkpt>
      <trkpt lat="45.93363" lon="4.71611">
        <ele>185</ele>
        <time>2016-09-27T08:58:52Z</time>
      </trkpt>
      <trkpt lat="45.9336" lon="4.71605">
        <ele>185</ele>
        <time>2016-09-27T08:58:53Z</time>
      </trkpt>
      <trkpt lat="45.93356" lon="4.71599">
        <ele>185</ele>
        <time>2016-09-27T08:58:54Z</time>
      </trkpt>
      <trkpt lat="45.93353" lon="4.71594">
        <ele>185</ele>
        <time>2016-09-27T08:58:55Z</time>
      </trkpt>
      <trkpt lat="45.93351" lon="4.71588">
        <ele>185</ele>
        <time>2016-09-27T08:58:56Z</time>
      </trkpt>
      <trkpt lat="45.93345" lon="4.71579">
        <ele>184</ele>
        <time>2016-09-27T08:58:58Z</time>
      </trkpt>
      <trkpt lat="45.93342" lon="4.71573">
        <ele>184</ele>
        <time>2016-09-27T08:58:59Z</time>
      </trkpt>
      <trkpt lat="45.93339" lon="4.71566">
        <ele>184</ele>
        <time>2016-09-27T08:59:00Z</time>
      </trkpt>
      <trkpt lat="45.93336" lon="4.71557">
        <ele>184</ele>
        <time>2016-09-27T08:59:01Z</time>
      </trkpt>
      <trkpt lat="45.93331" lon="4.71546">
        <ele>184</ele>
        <time>2016-09-27T08:59:02Z</time>
      </trkpt>
      <trkpt lat="45.93327" lon="4.71537">
        <ele>184</ele>
        <time>2016-09-27T08:59:03Z</time>
      </trkpt>
      <trkpt lat="45.93324" lon="4.71527">
        <ele>184</ele>
        <time>2016-09-27T08:59:04Z</time>
      </trkpt>
      <trkpt lat="45.9332" lon="4.71518">
        <ele>184</ele>
        <time>2016-09-27T08:59:05Z</time>
      </trkpt>
      <trkpt lat="45.9332" lon="4.71506">
        <ele>184</ele>
        <time>2016-09-27T08:59:08Z</time>
      </trkpt>
      <trkpt lat="45.93317" lon="4.71499">
        <ele>184</ele>
        <time>2016-09-27T08:59:09Z</time>
      </trkpt>
      <trkpt lat="45.93315" lon="4.71492">
        <ele>185</ele>
        <time>2016-09-27T08:59:10Z</time>
      </trkpt>
      <trkpt lat="45.93312" lon="4.71484">
        <ele>185</ele>
        <time>2016-09-27T08:59:11Z</time>
      </trkpt>
      <trkpt lat="45.93309" lon="4.71477">
        <ele>185</ele>
        <time>2016-09-27T08:59:12Z</time>
      </trkpt>
      <trkpt lat="45.93308" lon="4.71472">
        <ele>185</ele>
        <time>2016-09-27T08:59:13Z</time>
      </trkpt>
      <trkpt lat="45.93306" lon="4.71465">
        <ele>185</ele>
        <time>2016-09-27T08:59:14Z</time>
      </trkpt>
      <trkpt lat="45.93303" lon="4.71458">
        <ele>185</ele>
        <time>2016-09-27T08:59:15Z</time>
      </trkpt>
      <trkpt lat="45.933" lon="4.7145">
        <ele>185</ele>
        <time>2016-09-27T08:59:16Z</time>
      </trkpt>
      <trkpt lat="45.93296" lon="4.71443">
        <ele>185</ele>
        <time>2016-09-27T08:59:17Z</time>
      </trkpt>
      <trkpt lat="45.93292" lon="4.71435">
        <ele>185</ele>
        <time>2016-09-27T08:59:18Z</time>
      </trkpt>
      <trkpt lat="45.93287" lon="4.71428">
        <ele>185</ele>
        <time>2016-09-27T08:59:19Z</time>
      </trkpt>
      <trkpt lat="45.93283" lon="4.7142">
        <ele>185</ele>
        <time>2016-09-27T08:59:20Z</time>
      </trkpt>
      <trkpt lat="45.9328" lon="4.71413">
        <ele>186</ele>
        <time>2016-09-27T08:59:21Z</time>
      </trkpt>
      <trkpt lat="45.93276" lon="4.71405">
        <ele>186</ele>
        <time>2016-09-27T08:59:22Z</time>
      </trkpt>
      <trkpt lat="45.93273" lon="4.71397">
        <ele>186</ele>
        <time>2016-09-27T08:59:23Z</time>
      </trkpt>
      <trkpt lat="45.9327" lon="4.7139">
        <ele>186</ele>
        <time>2016-09-27T08:59:24Z</time>
      </trkpt>
      <trkpt lat="45.93268" lon="4.71383">
        <ele>186</ele>
        <time>2016-09-27T08:59:25Z</time>
      </trkpt>
      <trkpt lat="45.93264" lon="4.71376">
        <ele>186</ele>
        <time>2016-09-27T08:59:26Z</time>
      </trkpt>
      <trkpt lat="45.93261" lon="4.7137">
        <ele>186</ele>
        <time>2016-09-27T08:59:27Z</time>
      </trkpt>
      <trkpt lat="45.93257" lon="4.71363">
        <ele>186</ele>
        <time>2016-09-27T08:59:28Z</time>
      </trkpt>
      <trkpt lat="45.93254" lon="4.71358">
        <ele>186</ele>
        <time>2016-09-27T08:59:29Z</time>
      </trkpt>
      <trkpt lat="45.9325" lon="4.71351">
        <ele>186</ele>
        <time>2016-09-27T08:59:30Z</time>
      </trkpt>
      <trkpt lat="45.93246" lon="4.71343">
        <ele>186</ele>
        <time>2016-09-27T08:59:31Z</time>
      </trkpt>
      <trkpt lat="45.93242" lon="4.71336">
        <ele>186</ele>
        <time>2016-09-27T08:59:32Z</time>
      </trkpt>
      <trkpt lat="45.93238" lon="4.71329">
        <ele>187</ele>
        <time>2016-09-27T08:59:33Z</time>
      </trkpt>
      <trkpt lat="45.93235" lon="4.71322">
        <ele>187</ele>
        <time>2016-09-27T08:59:34Z</time>
      </trkpt>
      <trkpt lat="45.93232" lon="4.71316">
        <ele>187</ele>
        <time>2016-09-27T08:59:35Z</time>
      </trkpt>
      <trkpt lat="45.93229" lon="4.7131">
        <ele>187</ele>
        <time>2016-09-27T08:59:36Z</time>
      </trkpt>
      <trkpt lat="45.93226" lon="4.71304">
        <ele>188</ele>
        <time>2016-09-27T08:59:37Z</time>
      </trkpt>
      <trkpt lat="45.93224" lon="4.71298">
        <ele>188</ele>
        <time>2016-09-27T08:59:38Z</time>
      </trkpt>
      <trkpt lat="45.93221" lon="4.71292">
        <ele>188</ele>
        <time>2016-09-27T08:59:39Z</time>
      </trkpt>
      <trkpt lat="45.93219" lon="4.71286">
        <ele>188</ele>
        <time>2016-09-27T08:59:40Z</time>
      </trkpt>
      <trkpt lat="45.93216" lon="4.7128">
        <ele>188</ele>
        <time>2016-09-27T08:59:41Z</time>
      </trkpt>
      <trkpt lat="45.93213" lon="4.71274">
        <ele>188</ele>
        <time>2016-09-27T08:59:42Z</time>
      </trkpt>
      <trkpt lat="45.93211" lon="4.71268">
        <ele>188</ele>
        <time>2016-09-27T08:59:43Z</time>
      </trkpt>
      <trkpt lat="45.93209" lon="4.71258">
        <ele>189</ele>
        <time>2016-09-27T08:59:44Z</time>
      </trkpt>
      <trkpt lat="45.93206" lon="4.7125">
        <ele>189</ele>
        <time>2016-09-27T08:59:45Z</time>
      </trkpt>
      <trkpt lat="45.93201" lon="4.71245">
        <ele>190</ele>
        <time>2016-09-27T08:59:46Z</time>
      </trkpt>
      <trkpt lat="45.93197" lon="4.71239">
        <ele>190</ele>
        <time>2016-09-27T08:59:47Z</time>
      </trkpt>
      <trkpt lat="45.93193" lon="4.71232">
        <ele>190</ele>
        <time>2016-09-27T08:59:48Z</time>
      </trkpt>
      <trkpt lat="45.93189" lon="4.71225">
        <ele>190</ele>
        <time>2016-09-27T08:59:49Z</time>
      </trkpt>
      <trkpt lat="45.93187" lon="4.71219">
        <ele>190</ele>
        <time>2016-09-27T08:59:50Z</time>
      </trkpt>
      <trkpt lat="45.93184" lon="4.71214">
        <ele>190</ele>
        <time>2016-09-27T08:59:51Z</time>
      </trkpt>
      <trkpt lat="45.93181" lon="4.71208">
        <ele>190</ele>
        <time>2016-09-27T08:59:52Z</time>
      </trkpt>
      <trkpt lat="45.93179" lon="4.71203">
        <ele>190</ele>
        <time>2016-09-27T08:59:53Z</time>
      </trkpt>
      <trkpt lat="45.93175" lon="4.71192">
        <ele>190</ele>
        <time>2016-09-27T08:59:55Z</time>
      </trkpt>
      <trkpt lat="45.93173" lon="4.71187">
        <ele>190</ele>
        <time>2016-09-27T08:59:56Z</time>
      </trkpt>
      <trkpt lat="45.93168" lon="4.71176">
        <ele>190</ele>
        <time>2016-09-27T08:59:58Z</time>
      </trkpt>
      <trkpt lat="45.93163" lon="4.7117">
        <ele>190</ele>
        <time>2016-09-27T08:59:59Z</time>
      </trkpt>
      <trkpt lat="45.9316" lon="4.71165">
        <ele>190</ele>
        <time>2016-09-27T09:00:00Z</time>
      </trkpt>
      <trkpt lat="45.93157" lon="4.71159">
        <ele>191</ele>
        <time>2016-09-27T09:00:01Z</time>
      </trkpt>
      <trkpt lat="45.93154" lon="4.71153">
        <ele>191</ele>
        <time>2016-09-27T09:00:02Z</time>
      </trkpt>
      <trkpt lat="45.93151" lon="4.71147">
        <ele>191</ele>
        <time>2016-09-27T09:00:03Z</time>
      </trkpt>
      <trkpt lat="45.93148" lon="4.71141">
        <ele>191</ele>
        <time>2016-09-27T09:00:04Z</time>
      </trkpt>
      <trkpt lat="45.93146" lon="4.71135">
        <ele>192</ele>
        <time>2016-09-27T09:00:05Z</time>
      </trkpt>
      <trkpt lat="45.93142" lon="4.71124">
        <ele>192</ele>
        <time>2016-09-27T09:00:07Z</time>
      </trkpt>
      <trkpt lat="45.93139" lon="4.71118">
        <ele>192</ele>
        <time>2016-09-27T09:00:08Z</time>
      </trkpt>
      <trkpt lat="45.93134" lon="4.71108">
        <ele>192</ele>
        <time>2016-09-27T09:00:10Z</time>
      </trkpt>
      <trkpt lat="45.93132" lon="4.71103">
        <ele>192</ele>
        <time>2016-09-27T09:00:11Z</time>
      </trkpt>
      <trkpt lat="45.93127" lon="4.71093">
        <ele>192</ele>
        <time>2016-09-27T09:00:13Z</time>
      </trkpt>
      <trkpt lat="45.93123" lon="4.71085">
        <ele>192</ele>
        <time>2016-09-27T09:00:14Z</time>
      </trkpt>
      <trkpt lat="45.93118" lon="4.71078">
        <ele>195</ele>
        <time>2016-09-27T09:00:15Z</time>
      </trkpt>
      <trkpt lat="45.93114" lon="4.71072">
        <ele>195</ele>
        <time>2016-09-27T09:00:16Z</time>
      </trkpt>
      <trkpt lat="45.93109" lon="4.71065">
        <ele>195</ele>
        <time>2016-09-27T09:00:18Z</time>
      </trkpt>
      <trkpt lat="45.93108" lon="4.71061">
        <ele>195</ele>
        <time>2016-09-27T09:00:19Z</time>
      </trkpt>
      <trkpt lat="45.93104" lon="4.71052">
        <ele>195</ele>
        <time>2016-09-27T09:00:22Z</time>
      </trkpt>
      <trkpt lat="45.93102" lon="4.71047">
        <ele>196</ele>
        <time>2016-09-27T09:00:23Z</time>
      </trkpt>
      <trkpt lat="45.93097" lon="4.7104">
        <ele>196</ele>
        <time>2016-09-27T09:00:25Z</time>
      </trkpt>
      <trkpt lat="45.93093" lon="4.71034">
        <ele>196</ele>
        <time>2016-09-27T09:00:26Z</time>
      </trkpt>
      <trkpt lat="45.93088" lon="4.71025">
        <ele>196</ele>
        <time>2016-09-27T09:00:28Z</time>
      </trkpt>
      <trkpt lat="45.93086" lon="4.71021">
        <ele>197</ele>
        <time>2016-09-27T09:00:29Z</time>
      </trkpt>
      <trkpt lat="45.93083" lon="4.71015">
        <ele>197</ele>
        <time>2016-09-27T09:00:30Z</time>
      </trkpt>
      <trkpt lat="45.93081" lon="4.7101">
        <ele>197</ele>
        <time>2016-09-27T09:00:31Z</time>
      </trkpt>
      <trkpt lat="45.93077" lon="4.71">
        <ele>198</ele>
        <time>2016-09-27T09:00:33Z</time>
      </trkpt>
      <trkpt lat="45.93077" lon="4.70995">
        <ele>198</ele>
        <time>2016-09-27T09:00:34Z</time>
      </trkpt>
      <trkpt lat="45.93074" lon="4.70984">
        <ele>198</ele>
        <time>2016-09-27T09:00:36Z</time>
      </trkpt>
      <trkpt lat="45.93073" lon="4.70979">
        <ele>198</ele>
        <time>2016-09-27T09:00:37Z</time>
      </trkpt>
      <trkpt lat="45.9307" lon="4.70968">
        <ele>199</ele>
        <time>2016-09-27T09:00:39Z</time>
      </trkpt>
      <trkpt lat="45.93068" lon="4.70963">
        <ele>199</ele>
        <time>2016-09-27T09:00:40Z</time>
      </trkpt>
      <trkpt lat="45.93065" lon="4.70952">
        <ele>199</ele>
        <time>2016-09-27T09:00:43Z</time>
      </trkpt>
      <trkpt lat="45.93063" lon="4.70948">
        <ele>199</ele>
        <time>2016-09-27T09:00:44Z</time>
      </trkpt>
      <trkpt lat="45.93059" lon="4.70939">
        <ele>199</ele>
        <time>2016-09-27T09:00:46Z</time>
      </trkpt>
      <trkpt lat="45.93056" lon="4.70934">
        <ele>199</ele>
        <time>2016-09-27T09:00:47Z</time>
      </trkpt>
      <trkpt lat="45.93052" lon="4.70924">
        <ele>199</ele>
        <time>2016-09-27T09:00:49Z</time>
      </trkpt>
      <trkpt lat="45.9305" lon="4.70919">
        <ele>199</ele>
        <time>2016-09-27T09:00:50Z</time>
      </trkpt>
      <trkpt lat="45.93046" lon="4.7091">
        <ele>201</ele>
        <time>2016-09-27T09:00:52Z</time>
      </trkpt>
      <trkpt lat="45.93043" lon="4.70906">
        <ele>201</ele>
        <time>2016-09-27T09:00:53Z</time>
      </trkpt>
      <trkpt lat="45.93039" lon="4.70897">
        <ele>201</ele>
        <time>2016-09-27T09:00:55Z</time>
      </trkpt>
      <trkpt lat="45.93038" lon="4.70893">
        <ele>201</ele>
        <time>2016-09-27T09:00:56Z</time>
      </trkpt>
      <trkpt lat="45.93034" lon="4.70882">
        <ele>201</ele>
        <time>2016-09-27T09:00:59Z</time>
      </trkpt>
      <trkpt lat="45.93031" lon="4.70876">
        <ele>201</ele>
        <time>2016-09-27T09:01:00Z</time>
      </trkpt>
      <trkpt lat="45.93025" lon="4.70867">
        <ele>202</ele>
        <time>2016-09-27T09:01:02Z</time>
      </trkpt>
      <trkpt lat="45.93023" lon="4.70864">
        <ele>202</ele>
        <time>2016-09-27T09:01:03Z</time>
      </trkpt>
      <trkpt lat="45.93019" lon="4.70856">
        <ele>202</ele>
        <time>2016-09-27T09:01:05Z</time>
      </trkpt>
      <trkpt lat="45.93017" lon="4.70852">
        <ele>202</ele>
        <time>2016-09-27T09:01:06Z</time>
      </trkpt>
      <trkpt lat="45.93013" lon="4.70845">
        <ele>202</ele>
        <time>2016-09-27T09:01:08Z</time>
      </trkpt>
      <trkpt lat="45.93011" lon="4.70841">
        <ele>202</ele>
        <time>2016-09-27T09:01:09Z</time>
      </trkpt>
      <trkpt lat="45.93008" lon="4.70834">
        <ele>203</ele>
        <time>2016-09-27T09:01:11Z</time>
      </trkpt>
      <trkpt lat="45.93007" lon="4.70829">
        <ele>203</ele>
        <time>2016-09-27T09:01:12Z</time>
      </trkpt>
      <trkpt lat="45.93003" lon="4.7082">
        <ele>204</ele>
        <time>2016-09-27T09:01:15Z</time>
      </trkpt>
      <trkpt lat="45.93" lon="4.70816">
        <ele>204</ele>
        <time>2016-09-27T09:01:16Z</time>
      </trkpt>
      <trkpt lat="45.92995" lon="4.70807">
        <ele>204</ele>
        <time>2016-09-27T09:01:18Z</time>
      </trkpt>
      <trkpt lat="45.92993" lon="4.70803">
        <ele>204</ele>
        <time>2016-09-27T09:01:19Z</time>
      </trkpt>
      <trkpt lat="45.9299" lon="4.70796">
        <ele>204</ele>
        <time>2016-09-27T09:01:21Z</time>
      </trkpt>
      <trkpt lat="45.92989" lon="4.70792">
        <ele>204</ele>
        <time>2016-09-27T09:01:22Z</time>
      </trkpt>
      <trkpt lat="45.92984" lon="4.70781">
        <ele>204</ele>
        <time>2016-09-27T09:01:25Z</time>
      </trkpt>
      <trkpt lat="45.92983" lon="4.70777">
        <ele>204</ele>
        <time>2016-09-27T09:01:26Z</time>
      </trkpt>
      <trkpt lat="45.92979" lon="4.70766">
        <ele>204</ele>
        <time>2016-09-27T09:01:29Z</time>
      </trkpt>
      <trkpt lat="45.92978" lon="4.70763">
        <ele>204</ele>
        <time>2016-09-27T09:01:30Z</time>
      </trkpt>
      <trkpt lat="45.92973" lon="4.70753">
        <ele>204</ele>
        <time>2016-09-27T09:01:33Z</time>
      </trkpt>
      <trkpt lat="45.92971" lon="4.70749">
        <ele>207</ele>
        <time>2016-09-27T09:01:34Z</time>
      </trkpt>
      <trkpt lat="45.92966" lon="4.70739">
        <ele>207</ele>
        <time>2016-09-27T09:01:37Z</time>
      </trkpt>
      <trkpt lat="45.92964" lon="4.70735">
        <ele>207</ele>
        <time>2016-09-27T09:01:38Z</time>
      </trkpt>
      <trkpt lat="45.92961" lon="4.70726">
        <ele>208</ele>
        <time>2016-09-27T09:01:41Z</time>
      </trkpt>
      <trkpt lat="45.9296" lon="4.70723">
        <ele>208</ele>
        <time>2016-09-27T09:01:42Z</time>
      </trkpt>
      <trkpt lat="45.92955" lon="4.70713">
        <ele>208</ele>
        <time>2016-09-27T09:01:46Z</time>
      </trkpt>
      <trkpt lat="45.92953" lon="4.70711">
        <ele>208</ele>
        <time>2016-09-27T09:01:47Z</time>
      </trkpt>
      <trkpt lat="45.9295" lon="4.70701">
        <ele>209</ele>
        <time>2016-09-27T09:01:50Z</time>
      </trkpt>
      <trkpt lat="45.92948" lon="4.70698">
        <ele>209</ele>
        <time>2016-09-27T09:01:51Z</time>
      </trkpt>
      <trkpt lat="45.92945" lon="4.70689">
        <ele>209</ele>
        <time>2016-09-27T09:01:54Z</time>
      </trkpt>
      <trkpt lat="45.92944" lon="4.70686">
        <ele>209</ele>
        <time>2016-09-27T09:01:55Z</time>
      </trkpt>
      <trkpt lat="45.92937" lon="4.70679">
        <ele>210</ele>
        <time>2016-09-27T09:02:00Z</time>
      </trkpt>
      <trkpt lat="45.92936" lon="4.70677">
        <ele>210</ele>
        <time>2016-09-27T09:02:01Z</time>
      </trkpt>
      <trkpt lat="45.92933" lon="4.70668">
        <ele>210</ele>
        <time>2016-09-27T09:02:04Z</time>
      </trkpt>
      <trkpt lat="45.92931" lon="4.70665">
        <ele>214</ele>
        <time>2016-09-27T09:02:05Z</time>
      </trkpt>
      <trkpt lat="45.92927" lon="4.70656">
        <ele>214</ele>
        <time>2016-09-27T09:02:08Z</time>
      </trkpt>
      <trkpt lat="45.92926" lon="4.70653">
        <ele>215</ele>
        <time>2016-09-27T09:02:09Z</time>
      </trkpt>
      <trkpt lat="45.92924" lon="4.70642">
        <ele>216</ele>
        <time>2016-09-27T09:02:12Z</time>
      </trkpt>
      <trkpt lat="45.92923" lon="4.70639">
        <ele>216</ele>
        <time>2016-09-27T09:02:13Z</time>
      </trkpt>
      <trkpt lat="45.9292" lon="4.70629">
        <ele>217</ele>
        <time>2016-09-27T09:02:15Z</time>
      </trkpt>
      <trkpt lat="45.92919" lon="4.70627">
        <ele>217</ele>
        <time>2016-09-27T09:02:16Z</time>
      </trkpt>
      <trkpt lat="45.92914" lon="4.7062">
        <ele>216</ele>
        <time>2016-09-27T09:02:18Z</time>
      </trkpt>
      <trkpt lat="45.92912" lon="4.70617">
        <ele>216</ele>
        <time>2016-09-27T09:02:19Z</time>
      </trkpt>
      <trkpt lat="45.92907" lon="4.70608">
        <ele>217</ele>
        <time>2016-09-27T09:02:22Z</time>
      </trkpt>
      <trkpt lat="45.92906" lon="4.70605">
        <ele>217</ele>
        <time>2016-09-27T09:02:23Z</time>
      </trkpt>
      <trkpt lat="45.92901" lon="4.70594">
        <ele>218</ele>
        <time>2016-09-27T09:02:27Z</time>
      </trkpt>
      <trkpt lat="45.929" lon="4.70592">
        <ele>218</ele>
        <time>2016-09-27T09:02:28Z</time>
      </trkpt>
      <trkpt lat="45.92896" lon="4.70583">
        <ele>221</ele>
        <time>2016-09-27T09:02:31Z</time>
      </trkpt>
      <trkpt lat="45.92894" lon="4.7058">
        <ele>220</ele>
        <time>2016-09-27T09:02:32Z</time>
      </trkpt>
      <trkpt lat="45.9289" lon="4.70571">
        <ele>220</ele>
        <time>2016-09-27T09:02:35Z</time>
      </trkpt>
      <trkpt lat="45.92888" lon="4.70568">
        <ele>220</ele>
        <time>2016-09-27T09:02:36Z</time>
      </trkpt>
      <trkpt lat="45.92884" lon="4.70558">
        <ele>220</ele>
        <time>2016-09-27T09:02:39Z</time>
      </trkpt>
      <trkpt lat="45.92883" lon="4.70556">
        <ele>220</ele>
        <time>2016-09-27T09:02:40Z</time>
      </trkpt>
      <trkpt lat="45.92879" lon="4.70545">
        <ele>220</ele>
        <time>2016-09-27T09:02:43Z</time>
      </trkpt>
      <trkpt lat="45.92878" lon="4.70542">
        <ele>220</ele>
        <time>2016-09-27T09:02:44Z</time>
      </trkpt>
      <trkpt lat="45.92877" lon="4.70539">
        <ele>220</ele>
        <time>2016-09-27T09:02:45Z</time>
      </trkpt>
      <trkpt lat="45.92876" lon="4.70538">
        <ele>220</ele>
        <time>2016-09-27T09:02:46Z</time>
      </trkpt>
      <trkpt lat="45.92875" lon="4.70536">
        <ele>220</ele>
        <time>2016-09-27T09:02:47Z</time>
      </trkpt>
      <trkpt lat="45.92872" lon="4.70525">
        <ele>220</ele>
        <time>2016-09-27T09:02:50Z</time>
      </trkpt>
      <trkpt lat="45.92871" lon="4.70522">
        <ele>220</ele>
        <time>2016-09-27T09:02:51Z</time>
      </trkpt>
      <trkpt lat="45.92866" lon="4.70512">
        <ele>220</ele>
        <time>2016-09-27T09:02:55Z</time>
      </trkpt>
      <trkpt lat="45.92865" lon="4.70509">
        <ele>220</ele>
        <time>2016-09-27T09:02:56Z</time>
      </trkpt>
      <trkpt lat="45.92859" lon="4.705">
        <ele>222</ele>
        <time>2016-09-27T09:03:00Z</time>
      </trkpt>
      <trkpt lat="45.92859" lon="4.70497">
        <ele>222</ele>
        <time>2016-09-27T09:03:01Z</time>
      </trkpt>
      <trkpt lat="45.92856" lon="4.70487">
        <ele>222</ele>
        <time>2016-09-27T09:03:04Z</time>
      </trkpt>
      <trkpt lat="45.92855" lon="4.70484">
        <ele>222</ele>
        <time>2016-09-27T09:03:05Z</time>
      </trkpt>
      <trkpt lat="45.92852" lon="4.70473">
        <ele>223</ele>
        <time>2016-09-27T09:03:09Z</time>
      </trkpt>
      <trkpt lat="45.92851" lon="4.70471">
        <ele>223</ele>
        <time>2016-09-27T09:03:10Z</time>
      </trkpt>
      <trkpt lat="45.9285" lon="4.70461">
        <ele>224</ele>
        <time>2016-09-27T09:03:13Z</time>
      </trkpt>
      <trkpt lat="45.9285" lon="4.70457">
        <ele>224</ele>
        <time>2016-09-27T09:03:14Z</time>
      </trkpt>
      <trkpt lat="45.92852" lon="4.70444">
        <ele>225</ele>
        <time>2016-09-27T09:03:18Z</time>
      </trkpt>
      <trkpt lat="45.92852" lon="4.70441">
        <ele>225</ele>
        <time>2016-09-27T09:03:19Z</time>
      </trkpt>
      <trkpt lat="45.92855" lon="4.70431">
        <ele>225</ele>
        <time>2016-09-27T09:03:22Z</time>
      </trkpt>
      <trkpt lat="45.92855" lon="4.70428">
        <ele>225</ele>
        <time>2016-09-27T09:03:23Z</time>
      </trkpt>
      <trkpt lat="45.92856" lon="4.70418">
        <ele>225</ele>
        <time>2016-09-27T09:03:26Z</time>
      </trkpt>
      <trkpt lat="45.92857" lon="4.70414">
        <ele>227</ele>
        <time>2016-09-27T09:03:27Z</time>
      </trkpt>
      <trkpt lat="45.9286" lon="4.70405">
        <ele>227</ele>
        <time>2016-09-27T09:03:30Z</time>
      </trkpt>
      <trkpt lat="45.9286" lon="4.70402">
        <ele>227</ele>
        <time>2016-09-27T09:03:31Z</time>
      </trkpt>
      <trkpt lat="45.92862" lon="4.7039">
        <ele>227</ele>
        <time>2016-09-27T09:03:34Z</time>
      </trkpt>
      <trkpt lat="45.92861" lon="4.70386">
        <ele>227</ele>
        <time>2016-09-27T09:03:35Z</time>
      </trkpt>
      <trkpt lat="45.92863" lon="4.70375">
        <ele>227</ele>
        <time>2016-09-27T09:03:38Z</time>
      </trkpt>
      <trkpt lat="45.92864" lon="4.70372">
        <ele>227</ele>
        <time>2016-09-27T09:03:39Z</time>
      </trkpt>
      <trkpt lat="45.92865" lon="4.70366">
        <ele>228</ele>
        <time>2016-09-27T09:03:41Z</time>
      </trkpt>
      <trkpt lat="45.92865" lon="4.70363">
        <ele>228</ele>
        <time>2016-09-27T09:03:42Z</time>
      </trkpt>
      <trkpt lat="45.92865" lon="4.7036">
        <ele>228</ele>
        <time>2016-09-27T09:03:43Z</time>
      </trkpt>
      <trkpt lat="45.92866" lon="4.70349">
        <ele>228</ele>
        <time>2016-09-27T09:03:46Z</time>
      </trkpt>
      <trkpt lat="45.92867" lon="4.70345">
        <ele>228</ele>
        <time>2016-09-27T09:03:47Z</time>
      </trkpt>
      <trkpt lat="45.92868" lon="4.70332">
        <ele>230</ele>
        <time>2016-09-27T09:03:51Z</time>
      </trkpt>
      <trkpt lat="45.92869" lon="4.70329">
        <ele>230</ele>
        <time>2016-09-27T09:03:52Z</time>
      </trkpt>
      <trkpt lat="45.9287" lon="4.70319">
        <ele>231</ele>
        <time>2016-09-27T09:03:55Z</time>
      </trkpt>
      <trkpt lat="45.92871" lon="4.70315">
        <ele>231</ele>
        <time>2016-09-27T09:03:56Z</time>
      </trkpt>
      <trkpt lat="45.92874" lon="4.70305">
        <ele>231</ele>
        <time>2016-09-27T09:03:59Z</time>
      </trkpt>
      <trkpt lat="45.92874" lon="4.70301">
        <ele>231</ele>
        <time>2016-09-27T09:04:00Z</time>
      </trkpt>
      <trkpt lat="45.92876" lon="4.70289">
        <ele>231</ele>
        <time>2016-09-27T09:04:03Z</time>
      </trkpt>
      <trkpt lat="45.92877" lon="4.70286">
        <ele>231</ele>
        <time>2016-09-27T09:04:04Z</time>
      </trkpt>
      <trkpt lat="45.9288" lon="4.70276">
        <ele>232</ele>
        <time>2016-09-27T09:04:07Z</time>
      </trkpt>
      <trkpt lat="45.92881" lon="4.70273">
        <ele>232</ele>
        <time>2016-09-27T09:04:08Z</time>
      </trkpt>
      <trkpt lat="45.92882" lon="4.70262">
        <ele>232</ele>
        <time>2016-09-27T09:04:11Z</time>
      </trkpt>
      <trkpt lat="45.92883" lon="4.70259">
        <ele>232</ele>
        <time>2016-09-27T09:04:12Z</time>
      </trkpt>
      <trkpt lat="45.92885" lon="4.70246">
        <ele>235</ele>
        <time>2016-09-27T09:04:15Z</time>
      </trkpt>
      <trkpt lat="45.92885" lon="4.70243">
        <ele>235</ele>
        <time>2016-09-27T09:04:16Z</time>
      </trkpt>
      <trkpt lat="45.92885" lon="4.7023">
        <ele>235</ele>
        <time>2016-09-27T09:04:20Z</time>
      </trkpt>
      <trkpt lat="45.92886" lon="4.70228">
        <ele>235</ele>
        <time>2016-09-27T09:04:21Z</time>
      </trkpt>
      <trkpt lat="45.92887" lon="4.70218">
        <ele>235</ele>
        <time>2016-09-27T09:04:24Z</time>
      </trkpt>
      <trkpt lat="45.92886" lon="4.70215">
        <ele>236</ele>
        <time>2016-09-27T09:04:25Z</time>
      </trkpt>
      <trkpt lat="45.92887" lon="4.70203">
        <ele>236</ele>
        <time>2016-09-27T09:04:29Z</time>
      </trkpt>
      <trkpt lat="45.92887" lon="4.702">
        <ele>236</ele>
        <time>2016-09-27T09:04:30Z</time>
      </trkpt>
      <trkpt lat="45.92889" lon="4.70189">
        <ele>236</ele>
        <time>2016-09-27T09:04:33Z</time>
      </trkpt>
      <trkpt lat="45.92889" lon="4.70186">
        <ele>236</ele>
        <time>2016-09-27T09:04:34Z</time>
      </trkpt>
      <trkpt lat="45.92889" lon="4.70174">
        <ele>236</ele>
        <time>2016-09-27T09:04:38Z</time>
      </trkpt>
      <trkpt lat="45.92889" lon="4.7017">
        <ele>236</ele>
        <time>2016-09-27T09:04:39Z</time>
      </trkpt>
      <trkpt lat="45.92889" lon="4.70157">
        <ele>239</ele>
        <time>2016-09-27T09:04:43Z</time>
      </trkpt>
      <trkpt lat="45.9289" lon="4.70155">
        <ele>239</ele>
        <time>2016-09-27T09:04:44Z</time>
      </trkpt>
      <trkpt lat="45.92889" lon="4.70145">
        <ele>239</ele>
        <time>2016-09-27T09:04:47Z</time>
      </trkpt>
      <trkpt lat="45.92889" lon="4.70141">
        <ele>240</ele>
        <time>2016-09-27T09:04:48Z</time>
      </trkpt>
      <trkpt lat="45.92889" lon="4.70131">
        <ele>240</ele>
        <time>2016-09-27T09:04:51Z</time>
      </trkpt>
      <trkpt lat="45.9289" lon="4.70126">
        <ele>240</ele>
        <time>2016-09-27T09:04:52Z</time>
      </trkpt>
      <trkpt lat="45.92892" lon="4.70115">
        <ele>240</ele>
        <time>2016-09-27T09:04:55Z</time>
      </trkpt>
      <trkpt lat="45.92891" lon="4.70111">
        <ele>241</ele>
        <time>2016-09-27T09:04:56Z</time>
      </trkpt>
      <trkpt lat="45.92891" lon="4.70099">
        <ele>241</ele>
        <time>2016-09-27T09:05:00Z</time>
      </trkpt>
      <trkpt lat="45.92891" lon="4.70096">
        <ele>241</ele>
        <time>2016-09-27T09:05:01Z</time>
      </trkpt>
      <trkpt lat="45.92892" lon="4.70084">
        <ele>241</ele>
        <time>2016-09-27T09:05:05Z</time>
      </trkpt>
      <trkpt lat="45.92892" lon="4.70081">
        <ele>244</ele>
        <time>2016-09-27T09:05:06Z</time>
      </trkpt>
      <trkpt lat="45.92893" lon="4.7007">
        <ele>244</ele>
        <time>2016-09-27T09:05:10Z</time>
      </trkpt>
      <trkpt lat="45.92893" lon="4.70067">
        <ele>244</ele>
        <time>2016-09-27T09:05:11Z</time>
      </trkpt>
      <trkpt lat="45.92892" lon="4.70057">
        <ele>245</ele>
        <time>2016-09-27T09:05:14Z</time>
      </trkpt>
      <trkpt lat="45.92892" lon="4.70054">
        <ele>245</ele>
        <time>2016-09-27T09:05:15Z</time>
      </trkpt>
      <trkpt lat="45.92892" lon="4.70041">
        <ele>245</ele>
        <time>2016-09-27T09:05:19Z</time>
      </trkpt>
      <trkpt lat="45.92892" lon="4.70038">
        <ele>246</ele>
        <time>2016-09-27T09:05:20Z</time>
      </trkpt>
      <trkpt lat="45.92896" lon="4.70027">
        <ele>246</ele>
        <time>2016-09-27T09:05:24Z</time>
      </trkpt>
      <trkpt lat="45.92897" lon="4.70024">
        <ele>246</ele>
        <time>2016-09-27T09:05:25Z</time>
      </trkpt>
      <trkpt lat="45.92902" lon="4.70015">
        <ele>246</ele>
        <time>2016-09-27T09:05:29Z</time>
      </trkpt>
      <trkpt lat="45.92903" lon="4.70013">
        <ele>246</ele>
        <time>2016-09-27T09:05:30Z</time>
      </trkpt>
      <trkpt lat="45.92912" lon="4.70009">
        <ele>246</ele>
        <time>2016-09-27T09:05:34Z</time>
      </trkpt>
      <trkpt lat="45.92914" lon="4.70009">
        <ele>246</ele>
        <time>2016-09-27T09:05:35Z</time>
      </trkpt>
      <trkpt lat="45.92921" lon="4.70012">
        <ele>245</ele>
        <time>2016-09-27T09:05:38Z</time>
      </trkpt>
      <trkpt lat="45.92923" lon="4.70014">
        <ele>245</ele>
        <time>2016-09-27T09:05:39Z</time>
      </trkpt>
      <trkpt lat="45.92928" lon="4.7002">
        <ele>244</ele>
        <time>2016-09-27T09:05:42Z</time>
      </trkpt>
      <trkpt lat="45.92929" lon="4.70023">
        <ele>244</ele>
        <time>2016-09-27T09:05:43Z</time>
      </trkpt>
      <trkpt lat="45.92931" lon="4.70035">
        <ele>243</ele>
        <time>2016-09-27T09:05:47Z</time>
      </trkpt>
      <trkpt lat="45.92932" lon="4.70038">
        <ele>243</ele>
        <time>2016-09-27T09:05:48Z</time>
      </trkpt>
      <trkpt lat="45.92936" lon="4.70049">
        <ele>243</ele>
        <time>2016-09-27T09:05:52Z</time>
      </trkpt>
      <trkpt lat="45.92939" lon="4.70051">
        <ele>243</ele>
        <time>2016-09-27T09:05:53Z</time>
      </trkpt>
      <trkpt lat="45.92944" lon="4.7006">
        <ele>243</ele>
        <time>2016-09-27T09:05:56Z</time>
      </trkpt>
      <trkpt lat="45.92946" lon="4.70062">
        <ele>242</ele>
        <time>2016-09-27T09:05:57Z</time>
      </trkpt>
      <trkpt lat="45.92953" lon="4.70068">
        <ele>242</ele>
        <time>2016-09-27T09:06:01Z</time>
      </trkpt>
      <trkpt lat="45.92955" lon="4.70068">
        <ele>242</ele>
        <time>2016-09-27T09:06:02Z</time>
      </trkpt>
      <trkpt lat="45.92962" lon="4.70064">
        <ele>243</ele>
        <time>2016-09-27T09:06:05Z</time>
      </trkpt>
      <trkpt lat="45.92965" lon="4.70063">
        <ele>243</ele>
        <time>2016-09-27T09:06:06Z</time>
      </trkpt>
      <trkpt lat="45.92971" lon="4.70058">
        <ele>243</ele>
        <time>2016-09-27T09:06:09Z</time>
      </trkpt>
      <trkpt lat="45.92973" lon="4.70056">
        <ele>243</ele>
        <time>2016-09-27T09:06:10Z</time>
      </trkpt>
      <trkpt lat="45.92977" lon="4.70045">
        <ele>243</ele>
        <time>2016-09-27T09:06:13Z</time>
      </trkpt>
      <trkpt lat="45.92979" lon="4.70042">
        <ele>243</ele>
        <time>2016-09-27T09:06:14Z</time>
      </trkpt>
      <trkpt lat="45.92983" lon="4.70033">
        <ele>244</ele>
        <time>2016-09-27T09:06:17Z</time>
      </trkpt>
      <trkpt lat="45.92984" lon="4.70029">
        <ele>244</ele>
        <time>2016-09-27T09:06:18Z</time>
      </trkpt>
      <trkpt lat="45.92988" lon="4.70019">
        <ele>244</ele>
        <time>2016-09-27T09:06:21Z</time>
      </trkpt>
      <trkpt lat="45.92989" lon="4.70016">
        <ele>245</ele>
        <time>2016-09-27T09:06:22Z</time>
      </trkpt>
      <trkpt lat="45.92991" lon="4.70005">
        <ele>245</ele>
        <time>2016-09-27T09:06:25Z</time>
      </trkpt>
      <trkpt lat="45.92992" lon="4.70001">
        <ele>245</ele>
        <time>2016-09-27T09:06:26Z</time>
      </trkpt>
      <trkpt lat="45.92995" lon="4.69991">
        <ele>248</ele>
        <time>2016-09-27T09:06:29Z</time>
      </trkpt>
      <trkpt lat="45.92995" lon="4.69988">
        <ele>248</ele>
        <time>2016-09-27T09:06:30Z</time>
      </trkpt>
      <trkpt lat="45.92999" lon="4.69978">
        <ele>249</ele>
        <time>2016-09-27T09:06:34Z</time>
      </trkpt>
      <trkpt lat="45.93" lon="4.69975">
        <ele>250</ele>
        <time>2016-09-27T09:06:35Z</time>
      </trkpt>
      <trkpt lat="45.93003" lon="4.69964">
        <ele>250</ele>
        <time>2016-09-27T09:06:39Z</time>
      </trkpt>
      <trkpt lat="45.93005" lon="4.69961">
        <ele>250</ele>
        <time>2016-09-27T09:06:40Z</time>
      </trkpt>
      <trkpt lat="45.93009" lon="4.69952">
        <ele>251</ele>
        <time>2016-09-27T09:06:43Z</time>
      </trkpt>
      <trkpt lat="45.9301" lon="4.6995">
        <ele>251</ele>
        <time>2016-09-27T09:06:44Z</time>
      </trkpt>
      <trkpt lat="45.93016" lon="4.69943">
        <ele>252</ele>
        <time>2016-09-27T09:06:47Z</time>
      </trkpt>
      <trkpt lat="45.93017" lon="4.6994">
        <ele>252</ele>
        <time>2016-09-27T09:06:48Z</time>
      </trkpt>
      <trkpt lat="45.93023" lon="4.6993">
        <ele>252</ele>
        <time>2016-09-27T09:06:52Z</time>
      </trkpt>
      <trkpt lat="45.93025" lon="4.69928">
        <ele>252</ele>
        <time>2016-09-27T09:06:53Z</time>
      </trkpt>
      <trkpt lat="45.93033" lon="4.69922">
        <ele>252</ele>
        <time>2016-09-27T09:06:57Z</time>
      </trkpt>
      <trkpt lat="45.93034" lon="4.69921">
        <ele>252</ele>
        <time>2016-09-27T09:06:58Z</time>
      </trkpt>
      <trkpt lat="45.9304" lon="4.69914">
        <ele>257</ele>
        <time>2016-09-27T09:07:01Z</time>
      </trkpt>
      <trkpt lat="45.93042" lon="4.69911">
        <ele>257</ele>
        <time>2016-09-27T09:07:02Z</time>
      </trkpt>
      <trkpt lat="45.93048" lon="4.69905">
        <ele>256</ele>
        <time>2016-09-27T09:07:06Z</time>
      </trkpt>
      <trkpt lat="45.93049" lon="4.69903">
        <ele>256</ele>
        <time>2016-09-27T09:07:07Z</time>
      </trkpt>
      <trkpt lat="45.93056" lon="4.69898">
        <ele>256</ele>
        <time>2016-09-27T09:07:11Z</time>
      </trkpt>
      <trkpt lat="45.93058" lon="4.69895">
        <ele>256</ele>
        <time>2016-09-27T09:07:12Z</time>
      </trkpt>
      <trkpt lat="45.93063" lon="4.6989">
        <ele>256</ele>
        <time>2016-09-27T09:07:15Z</time>
      </trkpt>
      <trkpt lat="45.93065" lon="4.69888">
        <ele>256</ele>
        <time>2016-09-27T09:07:16Z</time>
      </trkpt>
      <trkpt lat="45.93072" lon="4.6988">
        <ele>257</ele>
        <time>2016-09-27T09:07:20Z</time>
      </trkpt>
      <trkpt lat="45.93074" lon="4.69878">
        <ele>257</ele>
        <time>2016-09-27T09:07:21Z</time>
      </trkpt>
      <trkpt lat="45.9308" lon="4.6987">
        <ele>258</ele>
        <time>2016-09-27T09:07:25Z</time>
      </trkpt>
      <trkpt lat="45.93081" lon="4.69866">
        <ele>258</ele>
        <time>2016-09-27T09:07:26Z</time>
      </trkpt>
      <trkpt lat="45.93087" lon="4.69859">
        <ele>256</ele>
        <time>2016-09-27T09:07:29Z</time>
      </trkpt>
      <trkpt lat="45.93089" lon="4.69857">
        <ele>256</ele>
        <time>2016-09-27T09:07:30Z</time>
      </trkpt>
      <trkpt lat="45.93096" lon="4.6985">
        <ele>256</ele>
        <time>2016-09-27T09:07:34Z</time>
      </trkpt>
      <trkpt lat="45.93098" lon="4.69848">
        <ele>257</ele>
        <time>2016-09-27T09:07:35Z</time>
      </trkpt>
      <trkpt lat="45.93104" lon="4.6984">
        <ele>257</ele>
        <time>2016-09-27T09:07:39Z</time>
      </trkpt>
      <trkpt lat="45.93107" lon="4.69838">
        <ele>256</ele>
        <time>2016-09-27T09:07:40Z</time>
      </trkpt>
      <trkpt lat="45.93112" lon="4.69832">
        <ele>263</ele>
        <time>2016-09-27T09:07:43Z</time>
      </trkpt>
      <trkpt lat="45.93114" lon="4.69831">
        <ele>263</ele>
        <time>2016-09-27T09:07:44Z</time>
      </trkpt>
      <trkpt lat="45.9312" lon="4.69824">
        <ele>263</ele>
        <time>2016-09-27T09:07:47Z</time>
      </trkpt>
      <trkpt lat="45.93122" lon="4.69822">
        <ele>264</ele>
        <time>2016-09-27T09:07:48Z</time>
      </trkpt>
      <trkpt lat="45.93128" lon="4.69815">
        <ele>264</ele>
        <time>2016-09-27T09:07:52Z</time>
      </trkpt>
      <trkpt lat="45.9313" lon="4.69814">
        <ele>264</ele>
        <time>2016-09-27T09:07:53Z</time>
      </trkpt>
      <trkpt lat="45.93137" lon="4.69811">
        <ele>264</ele>
        <time>2016-09-27T09:07:57Z</time>
      </trkpt>
      <trkpt lat="45.93139" lon="4.6981">
        <ele>264</ele>
        <time>2016-09-27T09:07:58Z</time>
      </trkpt>
      <trkpt lat="45.93146" lon="4.69807">
        <ele>264</ele>
        <time>2016-09-27T09:08:01Z</time>
      </trkpt>
      <trkpt lat="45.93148" lon="4.69806">
        <ele>264</ele>
        <time>2016-09-27T09:08:02Z</time>
      </trkpt>
      <trkpt lat="45.93155" lon="4.69799">
        <ele>265</ele>
        <time>2016-09-27T09:08:06Z</time>
      </trkpt>
      <trkpt lat="45.93157" lon="4.69798">
        <ele>265</ele>
        <time>2016-09-27T09:08:07Z</time>
      </trkpt>
      <trkpt lat="45.93164" lon="4.69793">
        <ele>265</ele>
        <time>2016-09-27T09:08:10Z</time>
      </trkpt>
      <trkpt lat="45.93167" lon="4.69793">
        <ele>264</ele>
        <time>2016-09-27T09:08:11Z</time>
      </trkpt>
      <trkpt lat="45.93174" lon="4.69789">
        <ele>265</ele>
        <time>2016-09-27T09:08:14Z</time>
      </trkpt>
      <trkpt lat="45.93176" lon="4.69788">
        <ele>265</ele>
        <time>2016-09-27T09:08:15Z</time>
      </trkpt>
      <trkpt lat="45.93183" lon="4.69786">
        <ele>265</ele>
        <time>2016-09-27T09:08:18Z</time>
      </trkpt>
      <trkpt lat="45.93186" lon="4.69785">
        <ele>265</ele>
        <time>2016-09-27T09:08:19Z</time>
      </trkpt>
      <trkpt lat="45.93194" lon="4.6978">
        <ele>266</ele>
        <time>2016-09-27T09:08:23Z</time>
      </trkpt>
      <trkpt lat="45.93195" lon="4.69779">
        <ele>266</ele>
        <time>2016-09-27T09:08:24Z</time>
      </trkpt>
      <trkpt lat="45.93203" lon="4.69777">
        <ele>266</ele>
        <time>2016-09-27T09:08:27Z</time>
      </trkpt>
      <trkpt lat="45.93205" lon="4.69774">
        <ele>266</ele>
        <time>2016-09-27T09:08:28Z</time>
      </trkpt>
      <trkpt lat="45.93212" lon="4.69772">
        <ele>266</ele>
        <time>2016-09-27T09:08:31Z</time>
      </trkpt>
      <trkpt lat="45.93214" lon="4.69772">
        <ele>266</ele>
        <time>2016-09-27T09:08:32Z</time>
      </trkpt>
      <trkpt lat="45.9322" lon="4.69768">
        <ele>266</ele>
        <time>2016-09-27T09:08:35Z</time>
      </trkpt>
      <trkpt lat="45.93222" lon="4.69766">
        <ele>267</ele>
        <time>2016-09-27T09:08:36Z</time>
      </trkpt>
      <trkpt lat="45.93229" lon="4.69764">
        <ele>267</ele>
        <time>2016-09-27T09:08:39Z</time>
      </trkpt>
      <trkpt lat="45.93232" lon="4.69764">
        <ele>267</ele>
        <time>2016-09-27T09:08:40Z</time>
      </trkpt>
      <trkpt lat="45.93239" lon="4.69763">
        <ele>268</ele>
        <time>2016-09-27T09:08:43Z</time>
      </trkpt>
      <trkpt lat="45.93242" lon="4.69761">
        <ele>268</ele>
        <time>2016-09-27T09:08:44Z</time>
      </trkpt>
      <trkpt lat="45.93249" lon="4.69759">
        <ele>269</ele>
        <time>2016-09-27T09:08:47Z</time>
      </trkpt>
      <trkpt lat="45.93251" lon="4.69759">
        <ele>269</ele>
        <time>2016-09-27T09:08:48Z</time>
      </trkpt>
      <trkpt lat="45.93259" lon="4.69759">
        <ele>269</ele>
        <time>2016-09-27T09:08:51Z</time>
      </trkpt>
      <trkpt lat="45.93261" lon="4.69758">
        <ele>268</ele>
        <time>2016-09-27T09:08:52Z</time>
      </trkpt>
      <trkpt lat="45.93269" lon="4.69756">
        <ele>268</ele>
        <time>2016-09-27T09:08:55Z</time>
      </trkpt>
      <trkpt lat="45.93271" lon="4.69755">
        <ele>268</ele>
        <time>2016-09-27T09:08:56Z</time>
      </trkpt>
      <trkpt lat="45.9328" lon="4.69752">
        <ele>267</ele>
        <time>2016-09-27T09:09:00Z</time>
      </trkpt>
      <trkpt lat="45.93282" lon="4.69752">
        <ele>267</ele>
        <time>2016-09-27T09:09:01Z</time>
      </trkpt>
      <trkpt lat="45.93288" lon="4.69747">
        <ele>273</ele>
        <time>2016-09-27T09:09:04Z</time>
      </trkpt>
      <trkpt lat="45.9329" lon="4.69744">
        <ele>273</ele>
        <time>2016-09-27T09:09:05Z</time>
      </trkpt>
      <trkpt lat="45.93294" lon="4.69736">
        <ele>273</ele>
        <time>2016-09-27T09:09:08Z</time>
      </trkpt>
      <trkpt lat="45.93295" lon="4.69732">
        <ele>274</ele>
        <time>2016-09-27T09:09:09Z</time>
      </trkpt>
      <trkpt lat="45.93292" lon="4.69721">
        <ele>274</ele>
        <time>2016-09-27T09:09:14Z</time>
      </trkpt>
      <trkpt lat="45.93291" lon="4.69717">
        <ele>275</ele>
        <time>2016-09-27T09:09:15Z</time>
      </trkpt>
      <trkpt lat="45.93288" lon="4.69709">
        <ele>275</ele>
        <time>2016-09-27T09:09:18Z</time>
      </trkpt>
      <trkpt lat="45.93286" lon="4.69706">
        <ele>276</ele>
        <time>2016-09-27T09:09:19Z</time>
      </trkpt>
      <trkpt lat="45.93279" lon="4.697">
        <ele>276</ele>
        <time>2016-09-27T09:09:22Z</time>
      </trkpt>
      <trkpt lat="45.93276" lon="4.697">
        <ele>277</ele>
        <time>2016-09-27T09:09:23Z</time>
      </trkpt>
      <trkpt lat="45.9327" lon="4.69697">
        <ele>277</ele>
        <time>2016-09-27T09:09:26Z</time>
      </trkpt>
      <trkpt lat="45.93267" lon="4.69695">
        <ele>277</ele>
        <time>2016-09-27T09:09:27Z</time>
      </trkpt>
      <trkpt lat="45.9326" lon="4.69695">
        <ele>278</ele>
        <time>2016-09-27T09:09:30Z</time>
      </trkpt>
      <trkpt lat="45.93258" lon="4.69696">
        <ele>278</ele>
        <time>2016-09-27T09:09:31Z</time>
      </trkpt>
      <trkpt lat="45.93251" lon="4.69698">
        <ele>278</ele>
        <time>2016-09-27T09:09:34Z</time>
      </trkpt>
      <trkpt lat="45.93248" lon="4.69698">
        <ele>281</ele>
        <time>2016-09-27T09:09:35Z</time>
      </trkpt>
      <trkpt lat="45.93241" lon="4.69699">
        <ele>281</ele>
        <time>2016-09-27T09:09:38Z</time>
      </trkpt>
      <trkpt lat="45.93238" lon="4.69699">
        <ele>281</ele>
        <time>2016-09-27T09:09:39Z</time>
      </trkpt>
      <trkpt lat="45.93231" lon="4.69698">
        <ele>281</ele>
        <time>2016-09-27T09:09:42Z</time>
      </trkpt>
      <trkpt lat="45.93226" lon="4.69698">
        <ele>281</ele>
        <time>2016-09-27T09:09:43Z</time>
      </trkpt>
      <trkpt lat="45.93217" lon="4.69698">
        <ele>281</ele>
        <time>2016-09-27T09:09:47Z</time>
      </trkpt>
      <trkpt lat="45.93215" lon="4.69698">
        <ele>281</ele>
        <time>2016-09-27T09:09:48Z</time>
      </trkpt>
      <trkpt lat="45.93208" lon="4.69698">
        <ele>281</ele>
        <time>2016-09-27T09:09:51Z</time>
      </trkpt>
      <trkpt lat="45.93205" lon="4.69698">
        <ele>281</ele>
        <time>2016-09-27T09:09:52Z</time>
      </trkpt>
      <trkpt lat="45.93197" lon="4.69695">
        <ele>282</ele>
        <time>2016-09-27T09:09:56Z</time>
      </trkpt>
      <trkpt lat="45.93195" lon="4.69694">
        <ele>282</ele>
        <time>2016-09-27T09:09:57Z</time>
      </trkpt>
      <trkpt lat="45.93188" lon="4.69693">
        <ele>283</ele>
        <time>2016-09-27T09:10:00Z</time>
      </trkpt>
      <trkpt lat="45.93186" lon="4.69693">
        <ele>283</ele>
        <time>2016-09-27T09:10:01Z</time>
      </trkpt>
      <trkpt lat="45.93179" lon="4.69691">
        <ele>284</ele>
        <time>2016-09-27T09:10:04Z</time>
      </trkpt>
      <trkpt lat="45.93177" lon="4.69691">
        <ele>284</ele>
        <time>2016-09-27T09:10:05Z</time>
      </trkpt>
      <trkpt lat="45.93168" lon="4.69692">
        <ele>284</ele>
        <time>2016-09-27T09:10:09Z</time>
      </trkpt>
      <trkpt lat="45.93165" lon="4.69692">
        <ele>285</ele>
        <time>2016-09-27T09:10:10Z</time>
      </trkpt>
      <trkpt lat="45.93159" lon="4.69691">
        <ele>285</ele>
        <time>2016-09-27T09:10:13Z</time>
      </trkpt>
      <trkpt lat="45.93156" lon="4.69692">
        <ele>285</ele>
        <time>2016-09-27T09:10:14Z</time>
      </trkpt>
      <trkpt lat="45.93147" lon="4.69689">
        <ele>285</ele>
        <time>2016-09-27T09:10:17Z</time>
      </trkpt>
      <trkpt lat="45.93143" lon="4.69689">
        <ele>285</ele>
        <time>2016-09-27T09:10:18Z</time>
      </trkpt>
      <trkpt lat="45.93139" lon="4.69687">
        <ele>285</ele>
        <time>2016-09-27T09:10:19Z</time>
      </trkpt>
      <trkpt lat="45.93135" lon="4.69684">
        <ele>285</ele>
        <time>2016-09-27T09:10:20Z</time>
      </trkpt>
      <trkpt lat="45.93128" lon="4.6968">
        <ele>285</ele>
        <time>2016-09-27T09:10:22Z</time>
      </trkpt>
      <trkpt lat="45.93124" lon="4.69677">
        <ele>285</ele>
        <time>2016-09-27T09:10:23Z</time>
      </trkpt>
      <trkpt lat="45.93117" lon="4.69676">
        <ele>285</ele>
        <time>2016-09-27T09:10:29Z</time>
      </trkpt>
      <trkpt lat="45.93114" lon="4.69676">
        <ele>285</ele>
        <time>2016-09-27T09:10:30Z</time>
      </trkpt>
      <trkpt lat="45.93108" lon="4.69674">
        <ele>286</ele>
        <time>2016-09-27T09:10:33Z</time>
      </trkpt>
      <trkpt lat="45.93105" lon="4.69673">
        <ele>286</ele>
        <time>2016-09-27T09:10:34Z</time>
      </trkpt>
      <trkpt lat="45.93098" lon="4.6967">
        <ele>287</ele>
        <time>2016-09-27T09:10:37Z</time>
      </trkpt>
      <trkpt lat="45.93096" lon="4.6967">
        <ele>287</ele>
        <time>2016-09-27T09:10:38Z</time>
      </trkpt>
      <trkpt lat="45.93089" lon="4.69668">
        <ele>289</ele>
        <time>2016-09-27T09:10:41Z</time>
      </trkpt>
      <trkpt lat="45.93087" lon="4.69667">
        <ele>291</ele>
        <time>2016-09-27T09:10:42Z</time>
      </trkpt>
      <trkpt lat="45.93079" lon="4.69665">
        <ele>291</ele>
        <time>2016-09-27T09:10:45Z</time>
      </trkpt>
      <trkpt lat="45.93076" lon="4.69664">
        <ele>291</ele>
        <time>2016-09-27T09:10:46Z</time>
      </trkpt>
      <trkpt lat="45.93068" lon="4.69659">
        <ele>292</ele>
        <time>2016-09-27T09:10:50Z</time>
      </trkpt>
      <trkpt lat="45.93066" lon="4.69659">
        <ele>292</ele>
        <time>2016-09-27T09:10:51Z</time>
      </trkpt>
      <trkpt lat="45.93058" lon="4.69656">
        <ele>292</ele>
        <time>2016-09-27T09:10:54Z</time>
      </trkpt>
      <trkpt lat="45.93055" lon="4.69655">
        <ele>292</ele>
        <time>2016-09-27T09:10:55Z</time>
      </trkpt>
      <trkpt lat="45.93049" lon="4.69649">
        <ele>292</ele>
        <time>2016-09-27T09:10:58Z</time>
      </trkpt>
      <trkpt lat="45.93047" lon="4.69648">
        <ele>292</ele>
        <time>2016-09-27T09:10:59Z</time>
      </trkpt>
      <trkpt lat="45.93039" lon="4.69644">
        <ele>292</ele>
        <time>2016-09-27T09:11:03Z</time>
      </trkpt>
      <trkpt lat="45.93037" lon="4.69643">
        <ele>292</ele>
        <time>2016-09-27T09:11:04Z</time>
      </trkpt>
      <trkpt lat="45.93031" lon="4.69639">
        <ele>293</ele>
        <time>2016-09-27T09:11:07Z</time>
      </trkpt>
      <trkpt lat="45.93029" lon="4.69638">
        <ele>293</ele>
        <time>2016-09-27T09:11:08Z</time>
      </trkpt>
      <trkpt lat="45.93022" lon="4.6963">
        <ele>293</ele>
        <time>2016-09-27T09:11:12Z</time>
      </trkpt>
      <trkpt lat="45.9302" lon="4.69628">
        <ele>293</ele>
        <time>2016-09-27T09:11:13Z</time>
      </trkpt>
      <trkpt lat="45.93014" lon="4.69619">
        <ele>294</ele>
        <time>2016-09-27T09:11:17Z</time>
      </trkpt>
      <trkpt lat="45.93013" lon="4.69617">
        <ele>294</ele>
        <time>2016-09-27T09:11:18Z</time>
      </trkpt>
      <trkpt lat="45.93007" lon="4.69612">
        <ele>295</ele>
        <time>2016-09-27T09:11:20Z</time>
      </trkpt>
      <trkpt lat="45.93004" lon="4.69611">
        <ele>295</ele>
        <time>2016-09-27T09:11:21Z</time>
      </trkpt>
      <trkpt lat="45.92997" lon="4.69605">
        <ele>292</ele>
        <time>2016-09-27T09:11:25Z</time>
      </trkpt>
      <trkpt lat="45.92995" lon="4.69603">
        <ele>292</ele>
        <time>2016-09-27T09:11:26Z</time>
      </trkpt>
      <trkpt lat="45.92989" lon="4.69597">
        <ele>293</ele>
        <time>2016-09-27T09:11:29Z</time>
      </trkpt>
      <trkpt lat="45.92987" lon="4.69595">
        <ele>293</ele>
        <time>2016-09-27T09:11:30Z</time>
      </trkpt>
      <trkpt lat="45.92981" lon="4.69588">
        <ele>292</ele>
        <time>2016-09-27T09:11:33Z</time>
      </trkpt>
      <trkpt lat="45.9298" lon="4.69586">
        <ele>292</ele>
        <time>2016-09-27T09:11:34Z</time>
      </trkpt>
      <trkpt lat="45.92975" lon="4.69578">
        <ele>297</ele>
        <time>2016-09-27T09:11:38Z</time>
      </trkpt>
      <trkpt lat="45.92973" lon="4.69575">
        <ele>297</ele>
        <time>2016-09-27T09:11:39Z</time>
      </trkpt>
      <trkpt lat="45.92969" lon="4.69565">
        <ele>297</ele>
        <time>2016-09-27T09:11:42Z</time>
      </trkpt>
      <trkpt lat="45.92967" lon="4.69564">
        <ele>297</ele>
        <time>2016-09-27T09:11:43Z</time>
      </trkpt>
      <trkpt lat="45.92961" lon="4.69556">
        <ele>297</ele>
        <time>2016-09-27T09:11:46Z</time>
      </trkpt>
      <trkpt lat="45.9296" lon="4.69554">
        <ele>297</ele>
        <time>2016-09-27T09:11:47Z</time>
      </trkpt>
      <trkpt lat="45.92955" lon="4.69545">
        <ele>297</ele>
        <time>2016-09-27T09:11:50Z</time>
      </trkpt>
      <trkpt lat="45.92953" lon="4.69543">
        <ele>297</ele>
        <time>2016-09-27T09:11:51Z</time>
      </trkpt>
      <trkpt lat="45.92949" lon="4.69533">
        <ele>297</ele>
        <time>2016-09-27T09:11:55Z</time>
      </trkpt>
      <trkpt lat="45.92947" lon="4.69531">
        <ele>297</ele>
        <time>2016-09-27T09:11:56Z</time>
      </trkpt>
      <trkpt lat="45.92941" lon="4.69524">
        <ele>297</ele>
        <time>2016-09-27T09:11:59Z</time>
      </trkpt>
      <trkpt lat="45.92939" lon="4.6952">
        <ele>297</ele>
        <time>2016-09-27T09:12:00Z</time>
      </trkpt>
      <trkpt lat="45.92935" lon="4.69511">
        <ele>297</ele>
        <time>2016-09-27T09:12:03Z</time>
      </trkpt>
      <trkpt lat="45.92932" lon="4.69509">
        <ele>297</ele>
        <time>2016-09-27T09:12:04Z</time>
      </trkpt>
      <trkpt lat="45.92928" lon="4.69503">
        <ele>297</ele>
        <time>2016-09-27T09:12:06Z</time>
      </trkpt>
      <trkpt lat="45.92926" lon="4.69499">
        <ele>300</ele>
        <time>2016-09-27T09:12:07Z</time>
      </trkpt>
      <trkpt lat="45.92921" lon="4.69492">
        <ele>300</ele>
        <time>2016-09-27T09:12:10Z</time>
      </trkpt>
      <trkpt lat="45.9292" lon="4.69489">
        <ele>300</ele>
        <time>2016-09-27T09:12:11Z</time>
      </trkpt>
      <trkpt lat="45.92916" lon="4.6948">
        <ele>297</ele>
        <time>2016-09-27T09:12:14Z</time>
      </trkpt>
      <trkpt lat="45.92915" lon="4.69477">
        <ele>297</ele>
        <time>2016-09-27T09:12:15Z</time>
      </trkpt>
      <trkpt lat="45.92911" lon="4.69468">
        <ele>298</ele>
        <time>2016-09-27T09:12:18Z</time>
      </trkpt>
      <trkpt lat="45.92909" lon="4.69465">
        <ele>298</ele>
        <time>2016-09-27T09:12:19Z</time>
      </trkpt>
      <trkpt lat="45.92908" lon="4.69454">
        <ele>299</ele>
        <time>2016-09-27T09:12:22Z</time>
      </trkpt>
      <trkpt lat="45.92908" lon="4.69451">
        <ele>299</ele>
        <time>2016-09-27T09:12:23Z</time>
      </trkpt>
      <trkpt lat="45.92905" lon="4.69441">
        <ele>300</ele>
        <time>2016-09-27T09:12:27Z</time>
      </trkpt>
      <trkpt lat="45.92903" lon="4.69438">
        <ele>300</ele>
        <time>2016-09-27T09:12:28Z</time>
      </trkpt>
      <trkpt lat="45.929" lon="4.69428">
        <ele>301</ele>
        <time>2016-09-27T09:12:31Z</time>
      </trkpt>
      <trkpt lat="45.92899" lon="4.69425">
        <ele>301</ele>
        <time>2016-09-27T09:12:32Z</time>
      </trkpt>
      <trkpt lat="45.92896" lon="4.69415">
        <ele>306</ele>
        <time>2016-09-27T09:12:35Z</time>
      </trkpt>
      <trkpt lat="45.92896" lon="4.69411">
        <ele>306</ele>
        <time>2016-09-27T09:12:36Z</time>
      </trkpt>
      <trkpt lat="45.92894" lon="4.694">
        <ele>307</ele>
        <time>2016-09-27T09:12:39Z</time>
      </trkpt>
      <trkpt lat="45.92893" lon="4.69396">
        <ele>307</ele>
        <time>2016-09-27T09:12:40Z</time>
      </trkpt>
      <trkpt lat="45.9289" lon="4.69387">
        <ele>307</ele>
        <time>2016-09-27T09:12:43Z</time>
      </trkpt>
      <trkpt lat="45.92889" lon="4.69384">
        <ele>307</ele>
        <time>2016-09-27T09:12:44Z</time>
      </trkpt>
      <trkpt lat="45.92886" lon="4.69375">
        <ele>307</ele>
        <time>2016-09-27T09:12:47Z</time>
      </trkpt>
      <trkpt lat="45.92885" lon="4.69371">
        <ele>308</ele>
        <time>2016-09-27T09:12:48Z</time>
      </trkpt>
      <trkpt lat="45.9288" lon="4.69362">
        <ele>308</ele>
        <time>2016-09-27T09:12:51Z</time>
      </trkpt>
      <trkpt lat="45.92879" lon="4.69358">
        <ele>308</ele>
        <time>2016-09-27T09:12:52Z</time>
      </trkpt>
      <trkpt lat="45.92874" lon="4.69349">
        <ele>308</ele>
        <time>2016-09-27T09:12:55Z</time>
      </trkpt>
      <trkpt lat="45.92873" lon="4.69346">
        <ele>308</ele>
        <time>2016-09-27T09:12:56Z</time>
      </trkpt>
      <trkpt lat="45.92869" lon="4.69338">
        <ele>308</ele>
        <time>2016-09-27T09:12:59Z</time>
      </trkpt>
      <trkpt lat="45.92867" lon="4.69336">
        <ele>307</ele>
        <time>2016-09-27T09:13:00Z</time>
      </trkpt>
      <trkpt lat="45.92863" lon="4.69326">
        <ele>313</ele>
        <time>2016-09-27T09:13:03Z</time>
      </trkpt>
      <trkpt lat="45.92862" lon="4.69324">
        <ele>313</ele>
        <time>2016-09-27T09:13:04Z</time>
      </trkpt>
      <trkpt lat="45.92861" lon="4.69322">
        <ele>313</ele>
        <time>2016-09-27T09:13:05Z</time>
      </trkpt>
      <trkpt lat="45.9286" lon="4.69321">
        <ele>313</ele>
        <time>2016-09-27T09:13:06Z</time>
      </trkpt>
      <trkpt lat="45.92856" lon="4.69314">
        <ele>313</ele>
        <time>2016-09-27T09:13:09Z</time>
      </trkpt>
      <trkpt lat="45.92854" lon="4.69311">
        <ele>313</ele>
        <time>2016-09-27T09:13:10Z</time>
      </trkpt>
      <trkpt lat="45.92849" lon="4.69305">
        <ele>313</ele>
        <time>2016-09-27T09:13:13Z</time>
      </trkpt>
      <trkpt lat="45.92847" lon="4.69302">
        <ele>313</ele>
        <time>2016-09-27T09:13:14Z</time>
      </trkpt>
      <trkpt lat="45.92842" lon="4.69295">
        <ele>314</ele>
        <time>2016-09-27T09:13:17Z</time>
      </trkpt>
      <trkpt lat="45.92839" lon="4.69292">
        <ele>314</ele>
        <time>2016-09-27T09:13:18Z</time>
      </trkpt>
      <trkpt lat="45.92835" lon="4.69284">
        <ele>315</ele>
        <time>2016-09-27T09:13:21Z</time>
      </trkpt>
      <trkpt lat="45.92833" lon="4.69281">
        <ele>312</ele>
        <time>2016-09-27T09:13:22Z</time>
      </trkpt>
      <trkpt lat="45.92827" lon="4.69273">
        <ele>313</ele>
        <time>2016-09-27T09:13:25Z</time>
      </trkpt>
      <trkpt lat="45.92826" lon="4.69271">
        <ele>313</ele>
        <time>2016-09-27T09:13:26Z</time>
      </trkpt>
      <trkpt lat="45.92819" lon="4.69267">
        <ele>314</ele>
        <time>2016-09-27T09:13:29Z</time>
      </trkpt>
      <trkpt lat="45.92818" lon="4.69264">
        <ele>314</ele>
        <time>2016-09-27T09:13:30Z</time>
      </trkpt>
      <trkpt lat="45.92814" lon="4.69254">
        <ele>314</ele>
        <time>2016-09-27T09:13:33Z</time>
      </trkpt>
      <trkpt lat="45.92813" lon="4.6925">
        <ele>314</ele>
        <time>2016-09-27T09:13:34Z</time>
      </trkpt>
      <trkpt lat="45.92811" lon="4.69239">
        <ele>318</ele>
        <time>2016-09-27T09:13:38Z</time>
      </trkpt>
      <trkpt lat="45.92812" lon="4.69234">
        <ele>318</ele>
        <time>2016-09-27T09:13:39Z</time>
      </trkpt>
      <trkpt lat="45.92812" lon="4.69223">
        <ele>319</ele>
        <time>2016-09-27T09:13:42Z</time>
      </trkpt>
      <trkpt lat="45.92813" lon="4.69219">
        <ele>319</ele>
        <time>2016-09-27T09:13:43Z</time>
      </trkpt>
      <trkpt lat="45.92813" lon="4.69209">
        <ele>319</ele>
        <time>2016-09-27T09:13:46Z</time>
      </trkpt>
      <trkpt lat="45.92813" lon="4.69206">
        <ele>319</ele>
        <time>2016-09-27T09:13:47Z</time>
      </trkpt>
      <trkpt lat="45.92812" lon="4.69196">
        <ele>319</ele>
        <time>2016-09-27T09:13:50Z</time>
      </trkpt>
      <trkpt lat="45.92813" lon="4.69193">
        <ele>319</ele>
        <time>2016-09-27T09:13:51Z</time>
      </trkpt>
      <trkpt lat="45.92814" lon="4.69182">
        <ele>320</ele>
        <time>2016-09-27T09:13:54Z</time>
      </trkpt>
      <trkpt lat="45.92815" lon="4.69178">
        <ele>320</ele>
        <time>2016-09-27T09:13:55Z</time>
      </trkpt>
      <trkpt lat="45.92815" lon="4.69167">
        <ele>321</ele>
        <time>2016-09-27T09:13:58Z</time>
      </trkpt>
      <trkpt lat="45.92815" lon="4.69163">
        <ele>321</ele>
        <time>2016-09-27T09:13:59Z</time>
      </trkpt>
      <trkpt lat="45.92816" lon="4.69152">
        <ele>321</ele>
        <time>2016-09-27T09:14:02Z</time>
      </trkpt>
      <trkpt lat="45.92816" lon="4.69148">
        <ele>321</ele>
        <time>2016-09-27T09:14:03Z</time>
      </trkpt>
      <trkpt lat="45.92818" lon="4.69138">
        <ele>321</ele>
        <time>2016-09-27T09:14:06Z</time>
      </trkpt>
      <trkpt lat="45.92819" lon="4.69134">
        <ele>322</ele>
        <time>2016-09-27T09:14:07Z</time>
      </trkpt>
      <trkpt lat="45.9282" lon="4.69124">
        <ele>322</ele>
        <time>2016-09-27T09:14:10Z</time>
      </trkpt>
      <trkpt lat="45.92821" lon="4.69121">
        <ele>322</ele>
        <time>2016-09-27T09:14:11Z</time>
      </trkpt>
      <trkpt lat="45.92823" lon="4.69111">
        <ele>322</ele>
        <time>2016-09-27T09:14:14Z</time>
      </trkpt>
      <trkpt lat="45.92823" lon="4.69108">
        <ele>322</ele>
        <time>2016-09-27T09:14:15Z</time>
      </trkpt>
      <trkpt lat="45.92824" lon="4.69098">
        <ele>322</ele>
        <time>2016-09-27T09:14:18Z</time>
      </trkpt>
      <trkpt lat="45.92823" lon="4.69095">
        <ele>322</ele>
        <time>2016-09-27T09:14:19Z</time>
      </trkpt>
      <trkpt lat="45.92822" lon="4.69085">
        <ele>322</ele>
        <time>2016-09-27T09:14:22Z</time>
      </trkpt>
      <trkpt lat="45.92822" lon="4.69082">
        <ele>324</ele>
        <time>2016-09-27T09:14:23Z</time>
      </trkpt>
      <trkpt lat="45.9282" lon="4.6907">
        <ele>324</ele>
        <time>2016-09-27T09:14:26Z</time>
      </trkpt>
      <trkpt lat="45.92819" lon="4.69066">
        <ele>324</ele>
        <time>2016-09-27T09:14:27Z</time>
      </trkpt>
      <trkpt lat="45.92816" lon="4.69054">
        <ele>325</ele>
        <time>2016-09-27T09:14:30Z</time>
      </trkpt>
      <trkpt lat="45.92815" lon="4.69052">
        <ele>325</ele>
        <time>2016-09-27T09:14:31Z</time>
      </trkpt>
      <trkpt lat="45.92809" lon="4.69044">
        <ele>325</ele>
        <time>2016-09-27T09:14:34Z</time>
      </trkpt>
      <trkpt lat="45.92807" lon="4.69041">
        <ele>325</ele>
        <time>2016-09-27T09:14:35Z</time>
      </trkpt>
      <trkpt lat="45.92802" lon="4.69034">
        <ele>325</ele>
        <time>2016-09-27T09:14:38Z</time>
      </trkpt>
      <trkpt lat="45.92801" lon="4.69032">
        <ele>326</ele>
        <time>2016-09-27T09:14:39Z</time>
      </trkpt>
      <trkpt lat="45.92794" lon="4.69028">
        <ele>326</ele>
        <time>2016-09-27T09:14:42Z</time>
      </trkpt>
      <trkpt lat="45.92792" lon="4.69027">
        <ele>326</ele>
        <time>2016-09-27T09:14:43Z</time>
      </trkpt>
      <trkpt lat="45.92784" lon="4.69022">
        <ele>326</ele>
        <time>2016-09-27T09:14:47Z</time>
      </trkpt>
      <trkpt lat="45.92782" lon="4.69022">
        <ele>326</ele>
        <time>2016-09-27T09:14:48Z</time>
      </trkpt>
      <trkpt lat="45.92774" lon="4.69016">
        <ele>326</ele>
        <time>2016-09-27T09:14:52Z</time>
      </trkpt>
      <trkpt lat="45.92773" lon="4.69015">
        <ele>326</ele>
        <time>2016-09-27T09:14:53Z</time>
      </trkpt>
      <trkpt lat="45.92766" lon="4.69014">
        <ele>327</ele>
        <time>2016-09-27T09:14:56Z</time>
      </trkpt>
      <trkpt lat="45.92764" lon="4.69014">
        <ele>327</ele>
        <time>2016-09-27T09:14:57Z</time>
      </trkpt>
      <trkpt lat="45.92755" lon="4.69014">
        <ele>327</ele>
        <time>2016-09-27T09:15:01Z</time>
      </trkpt>
      <trkpt lat="45.92755" lon="4.69008">
        <ele>328</ele>
        <time>2016-09-27T09:15:02Z</time>
      </trkpt>
      <trkpt lat="45.92748" lon="4.69006">
        <ele>329</ele>
        <time>2016-09-27T09:15:05Z</time>
      </trkpt>
      <trkpt lat="45.92745" lon="4.69006">
        <ele>329</ele>
        <time>2016-09-27T09:15:06Z</time>
      </trkpt>
      <trkpt lat="45.92737" lon="4.69005">
        <ele>329</ele>
        <time>2016-09-27T09:15:09Z</time>
      </trkpt>
      <trkpt lat="45.92735" lon="4.69005">
        <ele>329</ele>
        <time>2016-09-27T09:15:10Z</time>
      </trkpt>
      <trkpt lat="45.92727" lon="4.69003">
        <ele>329</ele>
        <time>2016-09-27T09:15:13Z</time>
      </trkpt>
      <trkpt lat="45.92724" lon="4.69003">
        <ele>329</ele>
        <time>2016-09-27T09:15:14Z</time>
      </trkpt>
      <trkpt lat="45.92716" lon="4.69002">
        <ele>329</ele>
        <time>2016-09-27T09:15:17Z</time>
      </trkpt>
      <trkpt lat="45.92709" lon="4.68999">
        <ele>333</ele>
        <time>2016-09-27T09:15:18Z</time>
      </trkpt>
      <trkpt lat="45.92704" lon="4.69002">
        <ele>330</ele>
        <time>2016-09-27T09:15:20Z</time>
      </trkpt>
      <trkpt lat="45.92701" lon="4.69003">
        <ele>330</ele>
        <time>2016-09-27T09:15:21Z</time>
      </trkpt>
      <trkpt lat="45.92696" lon="4.69008">
        <ele>330</ele>
        <time>2016-09-27T09:15:23Z</time>
      </trkpt>
      <trkpt lat="45.92693" lon="4.69011">
        <ele>330</ele>
        <time>2016-09-27T09:15:24Z</time>
      </trkpt>
      <trkpt lat="45.92686" lon="4.69018">
        <ele>331</ele>
        <time>2016-09-27T09:15:27Z</time>
      </trkpt>
      <trkpt lat="45.92684" lon="4.6902">
        <ele>331</ele>
        <time>2016-09-27T09:15:28Z</time>
      </trkpt>
      <trkpt lat="45.92679" lon="4.69027">
        <ele>330</ele>
        <time>2016-09-27T09:15:30Z</time>
      </trkpt>
      <trkpt lat="45.92678" lon="4.69031">
        <ele>330</ele>
        <time>2016-09-27T09:15:31Z</time>
      </trkpt>
      <trkpt lat="45.92676" lon="4.69043">
        <ele>330</ele>
        <time>2016-09-27T09:15:34Z</time>
      </trkpt>
      <trkpt lat="45.92676" lon="4.69047">
        <ele>330</ele>
        <time>2016-09-27T09:15:35Z</time>
      </trkpt>
      <trkpt lat="45.92675" lon="4.69056">
        <ele>330</ele>
        <time>2016-09-27T09:15:37Z</time>
      </trkpt>
      <trkpt lat="45.92674" lon="4.6906">
        <ele>330</ele>
        <time>2016-09-27T09:15:38Z</time>
      </trkpt>
      <trkpt lat="45.92673" lon="4.69069">
        <ele>331</ele>
        <time>2016-09-27T09:15:40Z</time>
      </trkpt>
      <trkpt lat="45.92672" lon="4.69074">
        <ele>331</ele>
        <time>2016-09-27T09:15:41Z</time>
      </trkpt>
      <trkpt lat="45.92672" lon="4.69082">
        <ele>331</ele>
        <time>2016-09-27T09:15:43Z</time>
      </trkpt>
      <trkpt lat="45.92672" lon="4.69087">
        <ele>331</ele>
        <time>2016-09-27T09:15:44Z</time>
      </trkpt>
      <trkpt lat="45.92673" lon="4.69096">
        <ele>330</ele>
        <time>2016-09-27T09:15:46Z</time>
      </trkpt>
      <trkpt lat="45.92673" lon="4.69102">
        <ele>330</ele>
        <time>2016-09-27T09:15:47Z</time>
      </trkpt>
      <trkpt lat="45.92673" lon="4.69111">
        <ele>329</ele>
        <time>2016-09-27T09:15:49Z</time>
      </trkpt>
      <trkpt lat="45.92673" lon="4.69116">
        <ele>329</ele>
        <time>2016-09-27T09:15:50Z</time>
      </trkpt>
      <trkpt lat="45.92674" lon="4.69125">
        <ele>329</ele>
        <time>2016-09-27T09:15:52Z</time>
      </trkpt>
      <trkpt lat="45.92675" lon="4.69129">
        <ele>329</ele>
        <time>2016-09-27T09:15:53Z</time>
      </trkpt>
      <trkpt lat="45.92676" lon="4.6914">
        <ele>330</ele>
        <time>2016-09-27T09:15:56Z</time>
      </trkpt>
      <trkpt lat="45.92677" lon="4.69145">
        <ele>330</ele>
        <time>2016-09-27T09:15:57Z</time>
      </trkpt>
      <trkpt lat="45.92675" lon="4.69155">
        <ele>331</ele>
        <time>2016-09-27T09:16:00Z</time>
      </trkpt>
      <trkpt lat="45.92675" lon="4.69158">
        <ele>331</ele>
        <time>2016-09-27T09:16:01Z</time>
      </trkpt>
      <trkpt lat="45.92671" lon="4.69169">
        <ele>333</ele>
        <time>2016-09-27T09:16:04Z</time>
      </trkpt>
      <trkpt lat="45.92671" lon="4.69173">
        <ele>332</ele>
        <time>2016-09-27T09:16:05Z</time>
      </trkpt>
      <trkpt lat="45.92667" lon="4.69184">
        <ele>335</ele>
        <time>2016-09-27T09:16:09Z</time>
      </trkpt>
      <trkpt lat="45.92664" lon="4.69185">
        <ele>335</ele>
        <time>2016-09-27T09:16:10Z</time>
      </trkpt>
      <trkpt lat="45.92657" lon="4.69186">
        <ele>335</ele>
        <time>2016-09-27T09:16:13Z</time>
      </trkpt>
      <trkpt lat="45.92655" lon="4.69187">
        <ele>335</ele>
        <time>2016-09-27T09:16:14Z</time>
      </trkpt>
      <trkpt lat="45.92646" lon="4.69186">
        <ele>335</ele>
        <time>2016-09-27T09:16:18Z</time>
      </trkpt>
      <trkpt lat="45.92645" lon="4.69184">
        <ele>335</ele>
        <time>2016-09-27T09:16:19Z</time>
      </trkpt>
      <trkpt lat="45.9264" lon="4.69177">
        <ele>335</ele>
        <time>2016-09-27T09:16:22Z</time>
      </trkpt>
      <trkpt lat="45.92639" lon="4.69173">
        <ele>335</ele>
        <time>2016-09-27T09:16:23Z</time>
      </trkpt>
      <trkpt lat="45.92633" lon="4.69168">
        <ele>336</ele>
        <time>2016-09-27T09:16:25Z</time>
      </trkpt>
      <trkpt lat="45.92631" lon="4.69166">
        <ele>337</ele>
        <time>2016-09-27T09:16:26Z</time>
      </trkpt>
      <trkpt lat="45.92626" lon="4.69156">
        <ele>337</ele>
        <time>2016-09-27T09:16:28Z</time>
      </trkpt>
      <trkpt lat="45.92624" lon="4.6915">
        <ele>338</ele>
        <time>2016-09-27T09:16:29Z</time>
      </trkpt>
      <trkpt lat="45.92618" lon="4.69142">
        <ele>338</ele>
        <time>2016-09-27T09:16:36Z</time>
      </trkpt>
      <trkpt lat="45.92617" lon="4.6914">
        <ele>338</ele>
        <time>2016-09-27T09:16:37Z</time>
      </trkpt>
      <trkpt lat="45.92613" lon="4.69131">
        <ele>338</ele>
        <time>2016-09-27T09:16:40Z</time>
      </trkpt>
      <trkpt lat="45.92613" lon="4.69128">
        <ele>338</ele>
        <time>2016-09-27T09:16:41Z</time>
      </trkpt>
      <trkpt lat="45.92614" lon="4.69119">
        <ele>338</ele>
        <time>2016-09-27T09:16:43Z</time>
      </trkpt>
      <trkpt lat="45.92614" lon="4.69112">
        <ele>338</ele>
        <time>2016-09-27T09:16:44Z</time>
      </trkpt>
      <trkpt lat="45.92607" lon="4.69109">
        <ele>339</ele>
        <time>2016-09-27T09:16:48Z</time>
      </trkpt>
      <trkpt lat="45.92606" lon="4.69107">
        <ele>339</ele>
        <time>2016-09-27T09:16:49Z</time>
      </trkpt>
      <trkpt lat="45.92602" lon="4.69099">
        <ele>339</ele>
        <time>2016-09-27T09:16:52Z</time>
      </trkpt>
      <trkpt lat="45.92601" lon="4.69094">
        <ele>340</ele>
        <time>2016-09-27T09:16:53Z</time>
      </trkpt>
      <trkpt lat="45.92593" lon="4.6909">
        <ele>341</ele>
        <time>2016-09-27T09:16:58Z</time>
      </trkpt>
      <trkpt lat="45.92592" lon="4.69086">
        <ele>341</ele>
        <time>2016-09-27T09:16:59Z</time>
      </trkpt>
      <trkpt lat="45.92587" lon="4.69076">
        <ele>341</ele>
        <time>2016-09-27T09:17:03Z</time>
      </trkpt>
      <trkpt lat="45.92587" lon="4.69073">
        <ele>341</ele>
        <time>2016-09-27T09:17:04Z</time>
      </trkpt>
      <trkpt lat="45.92583" lon="4.69062">
        <ele>345</ele>
        <time>2016-09-27T09:17:08Z</time>
      </trkpt>
      <trkpt lat="45.92583" lon="4.69059">
        <ele>345</ele>
        <time>2016-09-27T09:17:09Z</time>
      </trkpt>
      <trkpt lat="45.9258" lon="4.69048">
        <ele>345</ele>
        <time>2016-09-27T09:17:13Z</time>
      </trkpt>
      <trkpt lat="45.92579" lon="4.69045">
        <ele>345</ele>
        <time>2016-09-27T09:17:14Z</time>
      </trkpt>
      <trkpt lat="45.92574" lon="4.69034">
        <ele>345</ele>
        <time>2016-09-27T09:17:17Z</time>
      </trkpt>
      <trkpt lat="45.92573" lon="4.69031">
        <ele>345</ele>
        <time>2016-09-27T09:17:18Z</time>
      </trkpt>
      <trkpt lat="45.92569" lon="4.6902">
        <ele>345</ele>
        <time>2016-09-27T09:17:22Z</time>
      </trkpt>
      <trkpt lat="45.92567" lon="4.69018">
        <ele>345</ele>
        <time>2016-09-27T09:17:23Z</time>
      </trkpt>
      <trkpt lat="45.92562" lon="4.69007">
        <ele>345</ele>
        <time>2016-09-27T09:17:27Z</time>
      </trkpt>
      <trkpt lat="45.92561" lon="4.69004">
        <ele>345</ele>
        <time>2016-09-27T09:17:28Z</time>
      </trkpt>
      <trkpt lat="45.92557" lon="4.68998">
        <ele>348</ele>
        <time>2016-09-27T09:17:32Z</time>
      </trkpt>
      <trkpt lat="45.92555" lon="4.68994">
        <ele>348</ele>
        <time>2016-09-27T09:17:33Z</time>
      </trkpt>
      <trkpt lat="45.92547" lon="4.68992">
        <ele>349</ele>
        <time>2016-09-27T09:17:36Z</time>
      </trkpt>
      <trkpt lat="45.92545" lon="4.6899">
        <ele>349</ele>
        <time>2016-09-27T09:17:37Z</time>
      </trkpt>
      <trkpt lat="45.9254" lon="4.68982">
        <ele>349</ele>
        <time>2016-09-27T09:17:41Z</time>
      </trkpt>
      <trkpt lat="45.9254" lon="4.68978">
        <ele>350</ele>
        <time>2016-09-27T09:17:42Z</time>
      </trkpt>
      <trkpt lat="45.92537" lon="4.68965">
        <ele>350</ele>
        <time>2016-09-27T09:17:47Z</time>
      </trkpt>
      <trkpt lat="45.92537" lon="4.68962">
        <ele>350</ele>
        <time>2016-09-27T09:17:48Z</time>
      </trkpt>
      <trkpt lat="45.9254" lon="4.68951">
        <ele>350</ele>
        <time>2016-09-27T09:17:53Z</time>
      </trkpt>
      <trkpt lat="45.92541" lon="4.68949">
        <ele>350</ele>
        <time>2016-09-27T09:17:54Z</time>
      </trkpt>
      <trkpt lat="45.92543" lon="4.68938">
        <ele>350</ele>
        <time>2016-09-27T09:17:57Z</time>
      </trkpt>
      <trkpt lat="45.92544" lon="4.68936">
        <ele>350</ele>
        <time>2016-09-27T09:17:58Z</time>
      </trkpt>
      <trkpt lat="45.92548" lon="4.68924">
        <ele>350</ele>
        <time>2016-09-27T09:18:02Z</time>
      </trkpt>
      <trkpt lat="45.92549" lon="4.68921">
        <ele>350</ele>
        <time>2016-09-27T09:18:03Z</time>
      </trkpt>
      <trkpt lat="45.92552" lon="4.68911">
        <ele>353</ele>
        <time>2016-09-27T09:18:07Z</time>
      </trkpt>
      <trkpt lat="45.92552" lon="4.68908">
        <ele>353</ele>
        <time>2016-09-27T09:18:08Z</time>
      </trkpt>
      <trkpt lat="45.92554" lon="4.68898">
        <ele>354</ele>
        <time>2016-09-27T09:18:11Z</time>
      </trkpt>
      <trkpt lat="45.92555" lon="4.68894">
        <ele>354</ele>
        <time>2016-09-27T09:18:12Z</time>
      </trkpt>
      <trkpt lat="45.92558" lon="4.68885">
        <ele>354</ele>
        <time>2016-09-27T09:18:15Z</time>
      </trkpt>
      <trkpt lat="45.92559" lon="4.68882">
        <ele>354</ele>
        <time>2016-09-27T09:18:16Z</time>
      </trkpt>
      <trkpt lat="45.92561" lon="4.68871">
        <ele>355</ele>
        <time>2016-09-27T09:18:20Z</time>
      </trkpt>
      <trkpt lat="45.92561" lon="4.68868">
        <ele>355</ele>
        <time>2016-09-27T09:18:21Z</time>
      </trkpt>
      <trkpt lat="45.92564" lon="4.68858">
        <ele>355</ele>
        <time>2016-09-27T09:18:25Z</time>
      </trkpt>
      <trkpt lat="45.92564" lon="4.68856">
        <ele>355</ele>
        <time>2016-09-27T09:18:26Z</time>
      </trkpt>
      <trkpt lat="45.92566" lon="4.68845">
        <ele>356</ele>
        <time>2016-09-27T09:18:30Z</time>
      </trkpt>
      <trkpt lat="45.92567" lon="4.68843">
        <ele>356</ele>
        <time>2016-09-27T09:18:31Z</time>
      </trkpt>
      <trkpt lat="45.9257" lon="4.68832">
        <ele>359</ele>
        <time>2016-09-27T09:18:35Z</time>
      </trkpt>
      <trkpt lat="45.9257" lon="4.68829">
        <ele>359</ele>
        <time>2016-09-27T09:18:36Z</time>
      </trkpt>
      <trkpt lat="45.92573" lon="4.68819">
        <ele>360</ele>
        <time>2016-09-27T09:18:40Z</time>
      </trkpt>
      <trkpt lat="45.92574" lon="4.68817">
        <ele>360</ele>
        <time>2016-09-27T09:18:41Z</time>
      </trkpt>
      <trkpt lat="45.92574" lon="4.68806">
        <ele>361</ele>
        <time>2016-09-27T09:18:45Z</time>
      </trkpt>
      <trkpt lat="45.92574" lon="4.68803">
        <ele>362</ele>
        <time>2016-09-27T09:18:46Z</time>
      </trkpt>
      <trkpt lat="45.92574" lon="4.68815">
        <ele>360</ele>
        <time>2016-09-27T09:18:50Z</time>
      </trkpt>
      <trkpt lat="45.92576" lon="4.6881">
        <ele>361</ele>
        <time>2016-09-27T09:18:51Z</time>
      </trkpt>
      <trkpt lat="45.92577" lon="4.6881">
        <ele>361</ele>
        <time>2016-09-27T09:18:52Z</time>
      </trkpt>
      <trkpt lat="45.92578" lon="4.688">
        <ele>362</ele>
        <time>2016-09-27T09:18:54Z</time>
      </trkpt>
      <trkpt lat="45.92579" lon="4.68794">
        <ele>362</ele>
        <time>2016-09-27T09:18:55Z</time>
      </trkpt>
      <trkpt lat="45.9258" lon="4.68785">
        <ele>363</ele>
        <time>2016-09-27T09:18:57Z</time>
      </trkpt>
      <trkpt lat="45.92581" lon="4.68782">
        <ele>363</ele>
        <time>2016-09-27T09:18:58Z</time>
      </trkpt>
      <trkpt lat="45.92585" lon="4.68773">
        <ele>360</ele>
        <time>2016-09-27T09:19:00Z</time>
      </trkpt>
      <trkpt lat="45.92587" lon="4.68769">
        <ele>360</ele>
        <time>2016-09-27T09:19:01Z</time>
      </trkpt>
      <trkpt lat="45.92588" lon="4.68758">
        <ele>362</ele>
        <time>2016-09-27T09:19:04Z</time>
      </trkpt>
      <trkpt lat="45.92587" lon="4.68755">
        <ele>362</ele>
        <time>2016-09-27T09:19:05Z</time>
      </trkpt>
      <trkpt lat="45.92591" lon="4.68745">
        <ele>364</ele>
        <time>2016-09-27T09:19:10Z</time>
      </trkpt>
      <trkpt lat="45.92591" lon="4.68742">
        <ele>364</ele>
        <time>2016-09-27T09:19:11Z</time>
      </trkpt>
      <trkpt lat="45.92593" lon="4.68731">
        <ele>365</ele>
        <time>2016-09-27T09:19:15Z</time>
      </trkpt>
      <trkpt lat="45.92595" lon="4.6873">
        <ele>365</ele>
        <time>2016-09-27T09:19:16Z</time>
      </trkpt>
      <trkpt lat="45.92598" lon="4.68721">
        <ele>365</ele>
        <time>2016-09-27T09:19:20Z</time>
      </trkpt>
      <trkpt lat="45.92599" lon="4.68718">
        <ele>365</ele>
        <time>2016-09-27T09:19:21Z</time>
      </trkpt>
      <trkpt lat="45.926" lon="4.68709">
        <ele>366</ele>
        <time>2016-09-27T09:19:24Z</time>
      </trkpt>
      <trkpt lat="45.92601" lon="4.68705">
        <ele>366</ele>
        <time>2016-09-27T09:19:25Z</time>
      </trkpt>
      <trkpt lat="45.92602" lon="4.68694">
        <ele>367</ele>
        <time>2016-09-27T09:19:28Z</time>
      </trkpt>
      <trkpt lat="45.92603" lon="4.68691">
        <ele>367</ele>
        <time>2016-09-27T09:19:29Z</time>
      </trkpt>
      <trkpt lat="45.92604" lon="4.68679">
        <ele>368</ele>
        <time>2016-09-27T09:19:33Z</time>
      </trkpt>
      <trkpt lat="45.92605" lon="4.68675">
        <ele>368</ele>
        <time>2016-09-27T09:19:34Z</time>
      </trkpt>
      <trkpt lat="45.92607" lon="4.68664">
        <ele>370</ele>
        <time>2016-09-27T09:19:37Z</time>
      </trkpt>
      <trkpt lat="45.92609" lon="4.68659">
        <ele>370</ele>
        <time>2016-09-27T09:19:38Z</time>
      </trkpt>
      <trkpt lat="45.92611" lon="4.68651">
        <ele>369</ele>
        <time>2016-09-27T09:19:40Z</time>
      </trkpt>
      <trkpt lat="45.92613" lon="4.68647">
        <ele>369</ele>
        <time>2016-09-27T09:19:41Z</time>
      </trkpt>
      <trkpt lat="45.92615" lon="4.68639">
        <ele>369</ele>
        <time>2016-09-27T09:19:43Z</time>
      </trkpt>
      <trkpt lat="45.92617" lon="4.68635">
        <ele>369</ele>
        <time>2016-09-27T09:19:44Z</time>
      </trkpt>
      <trkpt lat="45.92616" lon="4.68626">
        <ele>369</ele>
        <time>2016-09-27T09:19:46Z</time>
      </trkpt>
      <trkpt lat="45.92616" lon="4.68622">
        <ele>369</ele>
        <time>2016-09-27T09:19:47Z</time>
      </trkpt>
      <trkpt lat="45.92613" lon="4.68613">
        <ele>369</ele>
        <time>2016-09-27T09:19:49Z</time>
      </trkpt>
      <trkpt lat="45.92612" lon="4.68607">
        <ele>369</ele>
        <time>2016-09-27T09:19:50Z</time>
      </trkpt>
      <trkpt lat="45.9261" lon="4.68595">
        <ele>369</ele>
        <time>2016-09-27T09:19:52Z</time>
      </trkpt>
      <trkpt lat="45.92609" lon="4.68589">
        <ele>369</ele>
        <time>2016-09-27T09:19:53Z</time>
      </trkpt>
      <trkpt lat="45.92608" lon="4.68582">
        <ele>368</ele>
        <time>2016-09-27T09:19:54Z</time>
      </trkpt>
      <trkpt lat="45.92606" lon="4.68576">
        <ele>368</ele>
        <time>2016-09-27T09:19:55Z</time>
      </trkpt>
      <trkpt lat="45.92605" lon="4.6857">
        <ele>368</ele>
        <time>2016-09-27T09:19:56Z</time>
      </trkpt>
      <trkpt lat="45.92604" lon="4.68563">
        <ele>368</ele>
        <time>2016-09-27T09:19:57Z</time>
      </trkpt>
      <trkpt lat="45.92603" lon="4.68555">
        <ele>367</ele>
        <time>2016-09-27T09:19:58Z</time>
      </trkpt>
      <trkpt lat="45.92602" lon="4.68548">
        <ele>367</ele>
        <time>2016-09-27T09:19:59Z</time>
      </trkpt>
      <trkpt lat="45.926" lon="4.6854">
        <ele>367</ele>
        <time>2016-09-27T09:20:00Z</time>
      </trkpt>
      <trkpt lat="45.92599" lon="4.68532">
        <ele>366</ele>
        <time>2016-09-27T09:20:01Z</time>
      </trkpt>
      <trkpt lat="45.92597" lon="4.68524">
        <ele>366</ele>
        <time>2016-09-27T09:20:02Z</time>
      </trkpt>
      <trkpt lat="45.92596" lon="4.68515">
        <ele>366</ele>
        <time>2016-09-27T09:20:03Z</time>
      </trkpt>
      <trkpt lat="45.92595" lon="4.68505">
        <ele>366</ele>
        <time>2016-09-27T09:20:04Z</time>
      </trkpt>
      <trkpt lat="45.92595" lon="4.68495">
        <ele>364</ele>
        <time>2016-09-27T09:20:05Z</time>
      </trkpt>
      <trkpt lat="45.92595" lon="4.68487">
        <ele>364</ele>
        <time>2016-09-27T09:20:06Z</time>
      </trkpt>
      <trkpt lat="45.92595" lon="4.68476">
        <ele>363</ele>
        <time>2016-09-27T09:20:07Z</time>
      </trkpt>
      <trkpt lat="45.92594" lon="4.68463">
        <ele>363</ele>
        <time>2016-09-27T09:20:08Z</time>
      </trkpt>
      <trkpt lat="45.92595" lon="4.6845">
        <ele>362</ele>
        <time>2016-09-27T09:20:09Z</time>
      </trkpt>
      <trkpt lat="45.92595" lon="4.68437">
        <ele>361</ele>
        <time>2016-09-27T09:20:10Z</time>
      </trkpt>
      <trkpt lat="45.92594" lon="4.68422">
        <ele>360</ele>
        <time>2016-09-27T09:20:11Z</time>
      </trkpt>
      <trkpt lat="45.92594" lon="4.68407">
        <ele>358</ele>
        <time>2016-09-27T09:20:12Z</time>
      </trkpt>
      <trkpt lat="45.92595" lon="4.68392">
        <ele>358</ele>
        <time>2016-09-27T09:20:13Z</time>
      </trkpt>
      <trkpt lat="45.92594" lon="4.68376">
        <ele>357</ele>
        <time>2016-09-27T09:20:14Z</time>
      </trkpt>
      <trkpt lat="45.92595" lon="4.68359">
        <ele>356</ele>
        <time>2016-09-27T09:20:15Z</time>
      </trkpt>
      <trkpt lat="45.92595" lon="4.68343">
        <ele>355</ele>
        <time>2016-09-27T09:20:16Z</time>
      </trkpt>
      <trkpt lat="45.92595" lon="4.68326">
        <ele>352</ele>
        <time>2016-09-27T09:20:17Z</time>
      </trkpt>
      <trkpt lat="45.92595" lon="4.68309">
        <ele>351</ele>
        <time>2016-09-27T09:20:18Z</time>
      </trkpt>
      <trkpt lat="45.92595" lon="4.68292">
        <ele>350</ele>
        <time>2016-09-27T09:20:19Z</time>
      </trkpt>
      <trkpt lat="45.92595" lon="4.68275">
        <ele>348</ele>
        <time>2016-09-27T09:20:20Z</time>
      </trkpt>
      <trkpt lat="45.92596" lon="4.68257">
        <ele>347</ele>
        <time>2016-09-27T09:20:21Z</time>
      </trkpt>
      <trkpt lat="45.92596" lon="4.6824">
        <ele>343</ele>
        <time>2016-09-27T09:20:22Z</time>
      </trkpt>
      <trkpt lat="45.92597" lon="4.68222">
        <ele>341</ele>
        <time>2016-09-27T09:20:23Z</time>
      </trkpt>
      <trkpt lat="45.92597" lon="4.68203">
        <ele>340</ele>
        <time>2016-09-27T09:20:24Z</time>
      </trkpt>
      <trkpt lat="45.92597" lon="4.68185">
        <ele>339</ele>
        <time>2016-09-27T09:20:25Z</time>
      </trkpt>
      <trkpt lat="45.92596" lon="4.68166">
        <ele>336</ele>
        <time>2016-09-27T09:20:26Z</time>
      </trkpt>
      <trkpt lat="45.92597" lon="4.68147">
        <ele>334</ele>
        <time>2016-09-27T09:20:27Z</time>
      </trkpt>
      <trkpt lat="45.92597" lon="4.68128">
        <ele>333</ele>
        <time>2016-09-27T09:20:28Z</time>
      </trkpt>
      <trkpt lat="45.92598" lon="4.68109">
        <ele>332</ele>
        <time>2016-09-27T09:20:29Z</time>
      </trkpt>
      <trkpt lat="45.92598" lon="4.6809">
        <ele>332</ele>
        <time>2016-09-27T09:20:30Z</time>
      </trkpt>
      <trkpt lat="45.92598" lon="4.68072">
        <ele>329</ele>
        <time>2016-09-27T09:20:31Z</time>
      </trkpt>
      <trkpt lat="45.92597" lon="4.68054">
        <ele>328</ele>
        <time>2016-09-27T09:20:32Z</time>
      </trkpt>
      <trkpt lat="45.92594" lon="4.68036">
        <ele>327</ele>
        <time>2016-09-27T09:20:33Z</time>
      </trkpt>
      <trkpt lat="45.92592" lon="4.68019">
        <ele>328</ele>
        <time>2016-09-27T09:20:34Z</time>
      </trkpt>
      <trkpt lat="45.92589" lon="4.68002">
        <ele>330</ele>
        <time>2016-09-27T09:20:35Z</time>
      </trkpt>
      <trkpt lat="45.92586" lon="4.67987">
        <ele>327</ele>
        <time>2016-09-27T09:20:36Z</time>
      </trkpt>
      <trkpt lat="45.92583" lon="4.67972">
        <ele>331</ele>
        <time>2016-09-27T09:20:37Z</time>
      </trkpt>
      <trkpt lat="45.92581" lon="4.67958">
        <ele>330</ele>
        <time>2016-09-27T09:20:38Z</time>
      </trkpt>
      <trkpt lat="45.92578" lon="4.67944">
        <ele>329</ele>
        <time>2016-09-27T09:20:39Z</time>
      </trkpt>
      <trkpt lat="45.92576" lon="4.6793">
        <ele>329</ele>
        <time>2016-09-27T09:20:40Z</time>
      </trkpt>
      <trkpt lat="45.92574" lon="4.67918">
        <ele>328</ele>
        <time>2016-09-27T09:20:41Z</time>
      </trkpt>
      <trkpt lat="45.92574" lon="4.67905">
        <ele>326</ele>
        <time>2016-09-27T09:20:42Z</time>
      </trkpt>
      <trkpt lat="45.92574" lon="4.67892">
        <ele>325</ele>
        <time>2016-09-27T09:20:43Z</time>
      </trkpt>
      <trkpt lat="45.92576" lon="4.67878">
        <ele>324</ele>
        <time>2016-09-27T09:20:44Z</time>
      </trkpt>
      <trkpt lat="45.92576" lon="4.67864">
        <ele>324</ele>
        <time>2016-09-27T09:20:45Z</time>
      </trkpt>
      <trkpt lat="45.92577" lon="4.67849">
        <ele>323</ele>
        <time>2016-09-27T09:20:46Z</time>
      </trkpt>
      <trkpt lat="45.92578" lon="4.67835">
        <ele>322</ele>
        <time>2016-09-27T09:20:47Z</time>
      </trkpt>
      <trkpt lat="45.92579" lon="4.6782">
        <ele>319</ele>
        <time>2016-09-27T09:20:48Z</time>
      </trkpt>
      <trkpt lat="45.9258" lon="4.67806">
        <ele>317</ele>
        <time>2016-09-27T09:20:49Z</time>
      </trkpt>
      <trkpt lat="45.92582" lon="4.67791">
        <ele>316</ele>
        <time>2016-09-27T09:20:50Z</time>
      </trkpt>
      <trkpt lat="45.92586" lon="4.67778">
        <ele>313</ele>
        <time>2016-09-27T09:20:51Z</time>
      </trkpt>
      <trkpt lat="45.92592" lon="4.67765">
        <ele>313</ele>
        <time>2016-09-27T09:20:52Z</time>
      </trkpt>
      <trkpt lat="45.92599" lon="4.67753">
        <ele>312</ele>
        <time>2016-09-27T09:20:53Z</time>
      </trkpt>
      <trkpt lat="45.92606" lon="4.6774">
        <ele>308</ele>
        <time>2016-09-27T09:20:54Z</time>
      </trkpt>
      <trkpt lat="45.92612" lon="4.67727">
        <ele>306</ele>
        <time>2016-09-27T09:20:55Z</time>
      </trkpt>
      <trkpt lat="45.92618" lon="4.67712">
        <ele>305</ele>
        <time>2016-09-27T09:20:56Z</time>
      </trkpt>
      <trkpt lat="45.92623" lon="4.67695">
        <ele>305</ele>
        <time>2016-09-27T09:20:57Z</time>
      </trkpt>
      <trkpt lat="45.92625" lon="4.67677">
        <ele>304</ele>
        <time>2016-09-27T09:20:58Z</time>
      </trkpt>
      <trkpt lat="45.92626" lon="4.67659">
        <ele>300</ele>
        <time>2016-09-27T09:20:59Z</time>
      </trkpt>
      <trkpt lat="45.92626" lon="4.67641">
        <ele>299</ele>
        <time>2016-09-27T09:21:00Z</time>
      </trkpt>
      <trkpt lat="45.92624" lon="4.67622">
        <ele>299</ele>
        <time>2016-09-27T09:21:01Z</time>
      </trkpt>
      <trkpt lat="45.92622" lon="4.67604">
        <ele>298</ele>
        <time>2016-09-27T09:21:02Z</time>
      </trkpt>
      <trkpt lat="45.92619" lon="4.67586">
        <ele>298</ele>
        <time>2016-09-27T09:21:03Z</time>
      </trkpt>
      <trkpt lat="45.92615" lon="4.67568">
        <ele>296</ele>
        <time>2016-09-27T09:21:04Z</time>
      </trkpt>
      <trkpt lat="45.92612" lon="4.67551">
        <ele>296</ele>
        <time>2016-09-27T09:21:05Z</time>
      </trkpt>
      <trkpt lat="45.92608" lon="4.67534">
        <ele>296</ele>
        <time>2016-09-27T09:21:06Z</time>
      </trkpt>
      <trkpt lat="45.92605" lon="4.67518">
        <ele>296</ele>
        <time>2016-09-27T09:21:07Z</time>
      </trkpt>
      <trkpt lat="45.92602" lon="4.67503">
        <ele>297</ele>
        <time>2016-09-27T09:21:08Z</time>
      </trkpt>
      <trkpt lat="45.92599" lon="4.67487">
        <ele>297</ele>
        <time>2016-09-27T09:21:09Z</time>
      </trkpt>
      <trkpt lat="45.92596" lon="4.67472">
        <ele>297</ele>
        <time>2016-09-27T09:21:10Z</time>
      </trkpt>
      <trkpt lat="45.92593" lon="4.67459">
        <ele>297</ele>
        <time>2016-09-27T09:21:11Z</time>
      </trkpt>
      <trkpt lat="45.9259" lon="4.67446">
        <ele>298</ele>
        <time>2016-09-27T09:21:12Z</time>
      </trkpt>
      <trkpt lat="45.92587" lon="4.67435">
        <ele>298</ele>
        <time>2016-09-27T09:21:13Z</time>
      </trkpt>
      <trkpt lat="45.92584" lon="4.67423">
        <ele>299</ele>
        <time>2016-09-27T09:21:14Z</time>
      </trkpt>
      <trkpt lat="45.92581" lon="4.67413">
        <ele>300</ele>
        <time>2016-09-27T09:21:15Z</time>
      </trkpt>
      <trkpt lat="45.92578" lon="4.67406">
        <ele>301</ele>
        <time>2016-09-27T09:21:16Z</time>
      </trkpt>
      <trkpt lat="45.92576" lon="4.67394">
        <ele>302</ele>
        <time>2016-09-27T09:21:18Z</time>
      </trkpt>
      <trkpt lat="45.92574" lon="4.6739">
        <ele>302</ele>
        <time>2016-09-27T09:21:19Z</time>
      </trkpt>
      <trkpt lat="45.9257" lon="4.67382">
        <ele>302</ele>
        <time>2016-09-27T09:21:21Z</time>
      </trkpt>
      <trkpt lat="45.92568" lon="4.67378">
        <ele>302</ele>
        <time>2016-09-27T09:21:22Z</time>
      </trkpt>
      <trkpt lat="45.92567" lon="4.67366">
        <ele>303</ele>
        <time>2016-09-27T09:21:25Z</time>
      </trkpt>
      <trkpt lat="45.92566" lon="4.67363">
        <ele>303</ele>
        <time>2016-09-27T09:21:26Z</time>
      </trkpt>
      <trkpt lat="45.92562" lon="4.67353">
        <ele>303</ele>
        <time>2016-09-27T09:21:30Z</time>
      </trkpt>
      <trkpt lat="45.92561" lon="4.67351">
        <ele>303</ele>
        <time>2016-09-27T09:21:31Z</time>
      </trkpt>
      <trkpt lat="45.92556" lon="4.6734">
        <ele>304</ele>
        <time>2016-09-27T09:21:35Z</time>
      </trkpt>
      <trkpt lat="45.92556" lon="4.67337">
        <ele>304</ele>
        <time>2016-09-27T09:21:36Z</time>
      </trkpt>
      <trkpt lat="45.92553" lon="4.67325">
        <ele>306</ele>
        <time>2016-09-27T09:21:40Z</time>
      </trkpt>
      <trkpt lat="45.92552" lon="4.67322">
        <ele>306</ele>
        <time>2016-09-27T09:21:41Z</time>
      </trkpt>
      <trkpt lat="45.92551" lon="4.67311">
        <ele>307</ele>
        <time>2016-09-27T09:21:45Z</time>
      </trkpt>
      <trkpt lat="45.9255" lon="4.67308">
        <ele>307</ele>
        <time>2016-09-27T09:21:46Z</time>
      </trkpt>
      <trkpt lat="45.9255" lon="4.67296">
        <ele>307</ele>
        <time>2016-09-27T09:21:50Z</time>
      </trkpt>
      <trkpt lat="45.92549" lon="4.67293">
        <ele>307</ele>
        <time>2016-09-27T09:21:51Z</time>
      </trkpt>
      <trkpt lat="45.92548" lon="4.67282">
        <ele>307</ele>
        <time>2016-09-27T09:21:55Z</time>
      </trkpt>
      <trkpt lat="45.92548" lon="4.67279">
        <ele>308</ele>
        <time>2016-09-27T09:21:56Z</time>
      </trkpt>
      <trkpt lat="45.92549" lon="4.67266">
        <ele>308</ele>
        <time>2016-09-27T09:22:00Z</time>
      </trkpt>
      <trkpt lat="45.92549" lon="4.67263">
        <ele>308</ele>
        <time>2016-09-27T09:22:01Z</time>
      </trkpt>
      <trkpt lat="45.92549" lon="4.67251">
        <ele>308</ele>
        <time>2016-09-27T09:22:05Z</time>
      </trkpt>
      <trkpt lat="45.92549" lon="4.67248">
        <ele>312</ele>
        <time>2016-09-27T09:22:06Z</time>
      </trkpt>
      <trkpt lat="45.92553" lon="4.67237">
        <ele>312</ele>
        <time>2016-09-27T09:22:10Z</time>
      </trkpt>
      <trkpt lat="45.92554" lon="4.67234">
        <ele>312</ele>
        <time>2016-09-27T09:22:11Z</time>
      </trkpt>
      <trkpt lat="45.92556" lon="4.67222">
        <ele>313</ele>
        <time>2016-09-27T09:22:15Z</time>
      </trkpt>
      <trkpt lat="45.92556" lon="4.67219">
        <ele>313</ele>
        <time>2016-09-27T09:22:16Z</time>
      </trkpt>
      <trkpt lat="45.92559" lon="4.67208">
        <ele>313</ele>
        <time>2016-09-27T09:22:20Z</time>
      </trkpt>
      <trkpt lat="45.92559" lon="4.67205">
        <ele>313</ele>
        <time>2016-09-27T09:22:21Z</time>
      </trkpt>
      <trkpt lat="45.92563" lon="4.67197">
        <ele>314</ele>
        <time>2016-09-27T09:22:25Z</time>
      </trkpt>
      <trkpt lat="45.92563" lon="4.67194">
        <ele>314</ele>
        <time>2016-09-27T09:22:26Z</time>
      </trkpt>
      <trkpt lat="45.92566" lon="4.67184">
        <ele>315</ele>
        <time>2016-09-27T09:22:30Z</time>
      </trkpt>
      <trkpt lat="45.92567" lon="4.67181">
        <ele>315</ele>
        <time>2016-09-27T09:22:31Z</time>
      </trkpt>
      <trkpt lat="45.92568" lon="4.67169">
        <ele>315</ele>
        <time>2016-09-27T09:22:35Z</time>
      </trkpt>
      <trkpt lat="45.92569" lon="4.67167">
        <ele>320</ele>
        <time>2016-09-27T09:22:36Z</time>
      </trkpt>
      <trkpt lat="45.92574" lon="4.67156">
        <ele>320</ele>
        <time>2016-09-27T09:22:41Z</time>
      </trkpt>
      <trkpt lat="45.92575" lon="4.67154">
        <ele>320</ele>
        <time>2016-09-27T09:22:42Z</time>
      </trkpt>
      <trkpt lat="45.92579" lon="4.67145">
        <ele>321</ele>
        <time>2016-09-27T09:22:46Z</time>
      </trkpt>
      <trkpt lat="45.9258" lon="4.67143">
        <ele>321</ele>
        <time>2016-09-27T09:22:47Z</time>
      </trkpt>
      <trkpt lat="45.92584" lon="4.67132">
        <ele>322</ele>
        <time>2016-09-27T09:22:51Z</time>
      </trkpt>
      <trkpt lat="45.92584" lon="4.67129">
        <ele>323</ele>
        <time>2016-09-27T09:22:52Z</time>
      </trkpt>
      <trkpt lat="45.9259" lon="4.67123">
        <ele>323</ele>
        <time>2016-09-27T09:22:56Z</time>
      </trkpt>
      <trkpt lat="45.92591" lon="4.6712">
        <ele>324</ele>
        <time>2016-09-27T09:22:57Z</time>
      </trkpt>
      <trkpt lat="45.92592" lon="4.6711">
        <ele>325</ele>
        <time>2016-09-27T09:23:01Z</time>
      </trkpt>
      <trkpt lat="45.92592" lon="4.67107">
        <ele>325</ele>
        <time>2016-09-27T09:23:02Z</time>
      </trkpt>
      <trkpt lat="45.92595" lon="4.67097">
        <ele>326</ele>
        <time>2016-09-27T09:23:05Z</time>
      </trkpt>
      <trkpt lat="45.92596" lon="4.67094">
        <ele>326</ele>
        <time>2016-09-27T09:23:06Z</time>
      </trkpt>
      <trkpt lat="45.92598" lon="4.67085">
        <ele>327</ele>
        <time>2016-09-27T09:23:09Z</time>
      </trkpt>
      <trkpt lat="45.926" lon="4.67082">
        <ele>331</ele>
        <time>2016-09-27T09:23:10Z</time>
      </trkpt>
      <trkpt lat="45.92604" lon="4.67071">
        <ele>331</ele>
        <time>2016-09-27T09:23:14Z</time>
      </trkpt>
      <trkpt lat="45.92605" lon="4.67068">
        <ele>331</ele>
        <time>2016-09-27T09:23:15Z</time>
      </trkpt>
      <trkpt lat="45.92603" lon="4.67056">
        <ele>331</ele>
        <time>2016-09-27T09:23:20Z</time>
      </trkpt>
      <trkpt lat="45.92604" lon="4.67054">
        <ele>331</ele>
        <time>2016-09-27T09:23:21Z</time>
      </trkpt>
      <trkpt lat="45.92602" lon="4.67043">
        <ele>332</ele>
        <time>2016-09-27T09:23:26Z</time>
      </trkpt>
      <trkpt lat="45.92602" lon="4.6704">
        <ele>332</ele>
        <time>2016-09-27T09:23:27Z</time>
      </trkpt>
      <trkpt lat="45.92603" lon="4.67029">
        <ele>333</ele>
        <time>2016-09-27T09:23:31Z</time>
      </trkpt>
      <trkpt lat="45.92604" lon="4.67027">
        <ele>333</ele>
        <time>2016-09-27T09:23:32Z</time>
      </trkpt>
      <trkpt lat="45.92603" lon="4.67016">
        <ele>334</ele>
        <time>2016-09-27T09:23:36Z</time>
      </trkpt>
      <trkpt lat="45.92604" lon="4.67012">
        <ele>334</ele>
        <time>2016-09-27T09:23:37Z</time>
      </trkpt>
      <trkpt lat="45.92605" lon="4.67">
        <ele>337</ele>
        <time>2016-09-27T09:23:43Z</time>
      </trkpt>
      <trkpt lat="45.92605" lon="4.66998">
        <ele>337</ele>
        <time>2016-09-27T09:23:44Z</time>
      </trkpt>
      <trkpt lat="45.92606" lon="4.66988">
        <ele>337</ele>
        <time>2016-09-27T09:23:48Z</time>
      </trkpt>
      <trkpt lat="45.92607" lon="4.66984">
        <ele>337</ele>
        <time>2016-09-27T09:23:49Z</time>
      </trkpt>
      <trkpt lat="45.9261" lon="4.66975">
        <ele>337</ele>
        <time>2016-09-27T09:23:52Z</time>
      </trkpt>
      <trkpt lat="45.9261" lon="4.66972">
        <ele>337</ele>
        <time>2016-09-27T09:23:53Z</time>
      </trkpt>
      <trkpt lat="45.92613" lon="4.66962">
        <ele>337</ele>
        <time>2016-09-27T09:23:56Z</time>
      </trkpt>
      <trkpt lat="45.92613" lon="4.66959">
        <ele>337</ele>
        <time>2016-09-27T09:23:57Z</time>
      </trkpt>
      <trkpt lat="45.92616" lon="4.66948">
        <ele>337</ele>
        <time>2016-09-27T09:24:00Z</time>
      </trkpt>
      <trkpt lat="45.92616" lon="4.66945">
        <ele>337</ele>
        <time>2016-09-27T09:24:01Z</time>
      </trkpt>
      <trkpt lat="45.92618" lon="4.66935">
        <ele>337</ele>
        <time>2016-09-27T09:24:04Z</time>
      </trkpt>
      <trkpt lat="45.92619" lon="4.66932">
        <ele>338</ele>
        <time>2016-09-27T09:24:05Z</time>
      </trkpt>
      <trkpt lat="45.92624" lon="4.66923">
        <ele>337</ele>
        <time>2016-09-27T09:24:08Z</time>
      </trkpt>
      <trkpt lat="45.92624" lon="4.6692">
        <ele>337</ele>
        <time>2016-09-27T09:24:09Z</time>
      </trkpt>
      <trkpt lat="45.92627" lon="4.6691">
        <ele>339</ele>
        <time>2016-09-27T09:24:12Z</time>
      </trkpt>
      <trkpt lat="45.92628" lon="4.66907">
        <ele>339</ele>
        <time>2016-09-27T09:24:13Z</time>
      </trkpt>
      <trkpt lat="45.92631" lon="4.66896">
        <ele>338</ele>
        <time>2016-09-27T09:24:16Z</time>
      </trkpt>
      <trkpt lat="45.92632" lon="4.66892">
        <ele>338</ele>
        <time>2016-09-27T09:24:17Z</time>
      </trkpt>
      <trkpt lat="45.92634" lon="4.66884">
        <ele>338</ele>
        <time>2016-09-27T09:24:19Z</time>
      </trkpt>
      <trkpt lat="45.92635" lon="4.6688">
        <ele>338</ele>
        <time>2016-09-27T09:24:20Z</time>
      </trkpt>
      <trkpt lat="45.92639" lon="4.66869">
        <ele>338</ele>
        <time>2016-09-27T09:24:23Z</time>
      </trkpt>
      <trkpt lat="45.92639" lon="4.66865">
        <ele>338</ele>
        <time>2016-09-27T09:24:24Z</time>
      </trkpt>
      <trkpt lat="45.92641" lon="4.66853">
        <ele>338</ele>
        <time>2016-09-27T09:24:27Z</time>
      </trkpt>
      <trkpt lat="45.92641" lon="4.66848">
        <ele>338</ele>
        <time>2016-09-27T09:24:28Z</time>
      </trkpt>
      <trkpt lat="45.92642" lon="4.66839">
        <ele>338</ele>
        <time>2016-09-27T09:24:30Z</time>
      </trkpt>
      <trkpt lat="45.92642" lon="4.66834">
        <ele>338</ele>
        <time>2016-09-27T09:24:31Z</time>
      </trkpt>
      <trkpt lat="45.92643" lon="4.66825">
        <ele>338</ele>
        <time>2016-09-27T09:24:33Z</time>
      </trkpt>
      <trkpt lat="45.92644" lon="4.66821">
        <ele>338</ele>
        <time>2016-09-27T09:24:34Z</time>
      </trkpt>
      <trkpt lat="45.92644" lon="4.66808">
        <ele>338</ele>
        <time>2016-09-27T09:24:37Z</time>
      </trkpt>
      <trkpt lat="45.92645" lon="4.66804">
        <ele>338</ele>
        <time>2016-09-27T09:24:38Z</time>
      </trkpt>
      <trkpt lat="45.92646" lon="4.66792">
        <ele>338</ele>
        <time>2016-09-27T09:24:41Z</time>
      </trkpt>
      <trkpt lat="45.92646" lon="4.66788">
        <ele>338</ele>
        <time>2016-09-27T09:24:42Z</time>
      </trkpt>
      <trkpt lat="45.92646" lon="4.66779">
        <ele>338</ele>
        <time>2016-09-27T09:24:45Z</time>
      </trkpt>
      <trkpt lat="45.92646" lon="4.66775">
        <ele>338</ele>
        <time>2016-09-27T09:24:46Z</time>
      </trkpt>
      <trkpt lat="45.92647" lon="4.66764">
        <ele>338</ele>
        <time>2016-09-27T09:24:49Z</time>
      </trkpt>
      <trkpt lat="45.92647" lon="4.6676">
        <ele>338</ele>
        <time>2016-09-27T09:24:50Z</time>
      </trkpt>
      <trkpt lat="45.92648" lon="4.66747">
        <ele>339</ele>
        <time>2016-09-27T09:24:53Z</time>
      </trkpt>
      <trkpt lat="45.92649" lon="4.66743">
        <ele>339</ele>
        <time>2016-09-27T09:24:54Z</time>
      </trkpt>
      <trkpt lat="45.92649" lon="4.66734">
        <ele>340</ele>
        <time>2016-09-27T09:24:56Z</time>
      </trkpt>
      <trkpt lat="45.92648" lon="4.66729">
        <ele>340</ele>
        <time>2016-09-27T09:24:57Z</time>
      </trkpt>
      <trkpt lat="45.92647" lon="4.66721">
        <ele>340</ele>
        <time>2016-09-27T09:24:59Z</time>
      </trkpt>
      <trkpt lat="45.92647" lon="4.66716">
        <ele>340</ele>
        <time>2016-09-27T09:25:00Z</time>
      </trkpt>
      <trkpt lat="45.92649" lon="4.66707">
        <ele>341</ele>
        <time>2016-09-27T09:25:02Z</time>
      </trkpt>
      <trkpt lat="45.92649" lon="4.66702">
        <ele>341</ele>
        <time>2016-09-27T09:25:03Z</time>
      </trkpt>
      <trkpt lat="45.92649" lon="4.66693">
        <ele>341</ele>
        <time>2016-09-27T09:25:05Z</time>
      </trkpt>
      <trkpt lat="45.92649" lon="4.66687">
        <ele>341</ele>
        <time>2016-09-27T09:25:06Z</time>
      </trkpt>
      <trkpt lat="45.92648" lon="4.66678">
        <ele>341</ele>
        <time>2016-09-27T09:25:08Z</time>
      </trkpt>
      <trkpt lat="45.92648" lon="4.66672">
        <ele>342</ele>
        <time>2016-09-27T09:25:09Z</time>
      </trkpt>
      <trkpt lat="45.92647" lon="4.66663">
        <ele>343</ele>
        <time>2016-09-27T09:25:11Z</time>
      </trkpt>
      <trkpt lat="45.92646" lon="4.66658">
        <ele>343</ele>
        <time>2016-09-27T09:25:12Z</time>
      </trkpt>
      <trkpt lat="45.92647" lon="4.66649">
        <ele>344</ele>
        <time>2016-09-27T09:25:14Z</time>
      </trkpt>
      <trkpt lat="45.92647" lon="4.66644">
        <ele>344</ele>
        <time>2016-09-27T09:25:15Z</time>
      </trkpt>
      <trkpt lat="45.92647" lon="4.66634">
        <ele>344</ele>
        <time>2016-09-27T09:25:17Z</time>
      </trkpt>
      <trkpt lat="45.92647" lon="4.66629">
        <ele>344</ele>
        <time>2016-09-27T09:25:18Z</time>
      </trkpt>
      <trkpt lat="45.92647" lon="4.66619">
        <ele>344</ele>
        <time>2016-09-27T09:25:20Z</time>
      </trkpt>
      <trkpt lat="45.92647" lon="4.66614">
        <ele>344</ele>
        <time>2016-09-27T09:25:21Z</time>
      </trkpt>
      <trkpt lat="45.92647" lon="4.66608">
        <ele>344</ele>
        <time>2016-09-27T09:25:22Z</time>
      </trkpt>
      <trkpt lat="45.92646" lon="4.66601">
        <ele>344</ele>
        <time>2016-09-27T09:25:23Z</time>
      </trkpt>
      <trkpt lat="45.92646" lon="4.66594">
        <ele>344</ele>
        <time>2016-09-27T09:25:24Z</time>
      </trkpt>
      <trkpt lat="45.92647" lon="4.66588">
        <ele>344</ele>
        <time>2016-09-27T09:25:25Z</time>
      </trkpt>
      <trkpt lat="45.92649" lon="4.6658">
        <ele>344</ele>
        <time>2016-09-27T09:25:26Z</time>
      </trkpt>
      <trkpt lat="45.9265" lon="4.66573">
        <ele>343</ele>
        <time>2016-09-27T09:25:27Z</time>
      </trkpt>
      <trkpt lat="45.9265" lon="4.66564">
        <ele>343</ele>
        <time>2016-09-27T09:25:28Z</time>
      </trkpt>
      <trkpt lat="45.92651" lon="4.66555">
        <ele>343</ele>
        <time>2016-09-27T09:25:29Z</time>
      </trkpt>
      <trkpt lat="45.92652" lon="4.66544">
        <ele>342</ele>
        <time>2016-09-27T09:25:30Z</time>
      </trkpt>
      <trkpt lat="45.92653" lon="4.66534">
        <ele>342</ele>
        <time>2016-09-27T09:25:31Z</time>
      </trkpt>
      <trkpt lat="45.92654" lon="4.66525">
        <ele>341</ele>
        <time>2016-09-27T09:25:32Z</time>
      </trkpt>
      <trkpt lat="45.92656" lon="4.66515">
        <ele>340</ele>
        <time>2016-09-27T09:25:33Z</time>
      </trkpt>
      <trkpt lat="45.92657" lon="4.66506">
        <ele>339</ele>
        <time>2016-09-27T09:25:34Z</time>
      </trkpt>
      <trkpt lat="45.92659" lon="4.66496">
        <ele>336</ele>
        <time>2016-09-27T09:25:35Z</time>
      </trkpt>
      <trkpt lat="45.9266" lon="4.66485">
        <ele>336</ele>
        <time>2016-09-27T09:25:36Z</time>
      </trkpt>
      <trkpt lat="45.92662" lon="4.66474">
        <ele>336</ele>
        <time>2016-09-27T09:25:37Z</time>
      </trkpt>
      <trkpt lat="45.92663" lon="4.66462">
        <ele>336</ele>
        <time>2016-09-27T09:25:38Z</time>
      </trkpt>
      <trkpt lat="45.92665" lon="4.6645">
        <ele>335</ele>
        <time>2016-09-27T09:25:39Z</time>
      </trkpt>
      <trkpt lat="45.92666" lon="4.66438">
        <ele>334</ele>
        <time>2016-09-27T09:25:40Z</time>
      </trkpt>
      <trkpt lat="45.92667" lon="4.66425">
        <ele>333</ele>
        <time>2016-09-27T09:25:41Z</time>
      </trkpt>
      <trkpt lat="45.92667" lon="4.66412">
        <ele>332</ele>
        <time>2016-09-27T09:25:42Z</time>
      </trkpt>
      <trkpt lat="45.92669" lon="4.66398">
        <ele>333</ele>
        <time>2016-09-27T09:25:43Z</time>
      </trkpt>
      <trkpt lat="45.9267" lon="4.66384">
        <ele>333</ele>
        <time>2016-09-27T09:25:44Z</time>
      </trkpt>
      <trkpt lat="45.92672" lon="4.66369">
        <ele>333</ele>
        <time>2016-09-27T09:25:45Z</time>
      </trkpt>
      <trkpt lat="45.92673" lon="4.66354">
        <ele>333</ele>
        <time>2016-09-27T09:25:46Z</time>
      </trkpt>
      <trkpt lat="45.92675" lon="4.66339">
        <ele>332</ele>
        <time>2016-09-27T09:25:47Z</time>
      </trkpt>
      <trkpt lat="45.92677" lon="4.66324">
        <ele>331</ele>
        <time>2016-09-27T09:25:48Z</time>
      </trkpt>
      <trkpt lat="45.92679" lon="4.66309">
        <ele>330</ele>
        <time>2016-09-27T09:25:49Z</time>
      </trkpt>
      <trkpt lat="45.92681" lon="4.66294">
        <ele>330</ele>
        <time>2016-09-27T09:25:50Z</time>
      </trkpt>
      <trkpt lat="45.92683" lon="4.66278">
        <ele>329</ele>
        <time>2016-09-27T09:25:51Z</time>
      </trkpt>
      <trkpt lat="45.92685" lon="4.66261">
        <ele>328</ele>
        <time>2016-09-27T09:25:52Z</time>
      </trkpt>
      <trkpt lat="45.92686" lon="4.66245">
        <ele>324</ele>
        <time>2016-09-27T09:25:53Z</time>
      </trkpt>
      <trkpt lat="45.92688" lon="4.66229">
        <ele>324</ele>
        <time>2016-09-27T09:25:54Z</time>
      </trkpt>
      <trkpt lat="45.92691" lon="4.66212">
        <ele>324</ele>
        <time>2016-09-27T09:25:55Z</time>
      </trkpt>
      <trkpt lat="45.92695" lon="4.66196">
        <ele>323</ele>
        <time>2016-09-27T09:25:56Z</time>
      </trkpt>
      <trkpt lat="45.92698" lon="4.66182">
        <ele>323</ele>
        <time>2016-09-27T09:25:57Z</time>
      </trkpt>
      <trkpt lat="45.92702" lon="4.66169">
        <ele>323</ele>
        <time>2016-09-27T09:25:58Z</time>
      </trkpt>
      <trkpt lat="45.92707" lon="4.66155">
        <ele>321</ele>
        <time>2016-09-27T09:25:59Z</time>
      </trkpt>
      <trkpt lat="45.92711" lon="4.66144">
        <ele>322</ele>
        <time>2016-09-27T09:26:00Z</time>
      </trkpt>
      <trkpt lat="45.92715" lon="4.66131">
        <ele>322</ele>
        <time>2016-09-27T09:26:01Z</time>
      </trkpt>
      <trkpt lat="45.92719" lon="4.66122">
        <ele>322</ele>
        <time>2016-09-27T09:26:02Z</time>
      </trkpt>
      <trkpt lat="45.92724" lon="4.6611">
        <ele>322</ele>
        <time>2016-09-27T09:26:03Z</time>
      </trkpt>
      <trkpt lat="45.92727" lon="4.66098">
        <ele>322</ele>
        <time>2016-09-27T09:26:04Z</time>
      </trkpt>
      <trkpt lat="45.92731" lon="4.66085">
        <ele>322</ele>
        <time>2016-09-27T09:26:05Z</time>
      </trkpt>
      <trkpt lat="45.92733" lon="4.66072">
        <ele>323</ele>
        <time>2016-09-27T09:26:06Z</time>
      </trkpt>
      <trkpt lat="45.92735" lon="4.66059">
        <ele>323</ele>
        <time>2016-09-27T09:26:07Z</time>
      </trkpt>
      <trkpt lat="45.92737" lon="4.66045">
        <ele>323</ele>
        <time>2016-09-27T09:26:08Z</time>
      </trkpt>
      <trkpt lat="45.92739" lon="4.66031">
        <ele>323</ele>
        <time>2016-09-27T09:26:09Z</time>
      </trkpt>
      <trkpt lat="45.92739" lon="4.66017">
        <ele>323</ele>
        <time>2016-09-27T09:26:10Z</time>
      </trkpt>
      <trkpt lat="45.9274" lon="4.66004">
        <ele>323</ele>
        <time>2016-09-27T09:26:11Z</time>
      </trkpt>
      <trkpt lat="45.92739" lon="4.65989">
        <ele>323</ele>
        <time>2016-09-27T09:26:12Z</time>
      </trkpt>
      <trkpt lat="45.9274" lon="4.65975">
        <ele>322</ele>
        <time>2016-09-27T09:26:13Z</time>
      </trkpt>
      <trkpt lat="45.92739" lon="4.65961">
        <ele>322</ele>
        <time>2016-09-27T09:26:14Z</time>
      </trkpt>
      <trkpt lat="45.92739" lon="4.65946">
        <ele>321</ele>
        <time>2016-09-27T09:26:15Z</time>
      </trkpt>
      <trkpt lat="45.92739" lon="4.65932">
        <ele>321</ele>
        <time>2016-09-27T09:26:16Z</time>
      </trkpt>
      <trkpt lat="45.92738" lon="4.65918">
        <ele>321</ele>
        <time>2016-09-27T09:26:17Z</time>
      </trkpt>
      <trkpt lat="45.92737" lon="4.65904">
        <ele>319</ele>
        <time>2016-09-27T09:26:18Z</time>
      </trkpt>
      <trkpt lat="45.92736" lon="4.6589">
        <ele>318</ele>
        <time>2016-09-27T09:26:19Z</time>
      </trkpt>
      <trkpt lat="45.92735" lon="4.65876">
        <ele>318</ele>
        <time>2016-09-27T09:26:20Z</time>
      </trkpt>
      <trkpt lat="45.92734" lon="4.65863">
        <ele>318</ele>
        <time>2016-09-27T09:26:21Z</time>
      </trkpt>
      <trkpt lat="45.92733" lon="4.6585">
        <ele>317</ele>
        <time>2016-09-27T09:26:22Z</time>
      </trkpt>
      <trkpt lat="45.92731" lon="4.65837">
        <ele>317</ele>
        <time>2016-09-27T09:26:23Z</time>
      </trkpt>
      <trkpt lat="45.92731" lon="4.65824">
        <ele>315</ele>
        <time>2016-09-27T09:26:24Z</time>
      </trkpt>
      <trkpt lat="45.92729" lon="4.65811">
        <ele>315</ele>
        <time>2016-09-27T09:26:25Z</time>
      </trkpt>
      <trkpt lat="45.92728" lon="4.65798">
        <ele>315</ele>
        <time>2016-09-27T09:26:26Z</time>
      </trkpt>
      <trkpt lat="45.92727" lon="4.65785">
        <ele>314</ele>
        <time>2016-09-27T09:26:27Z</time>
      </trkpt>
      <trkpt lat="45.92725" lon="4.65772">
        <ele>314</ele>
        <time>2016-09-27T09:26:28Z</time>
      </trkpt>
      <trkpt lat="45.92723" lon="4.6576">
        <ele>314</ele>
        <time>2016-09-27T09:26:29Z</time>
      </trkpt>
      <trkpt lat="45.92721" lon="4.65748">
        <ele>311</ele>
        <time>2016-09-27T09:26:30Z</time>
      </trkpt>
      <trkpt lat="45.92719" lon="4.65735">
        <ele>311</ele>
        <time>2016-09-27T09:26:31Z</time>
      </trkpt>
      <trkpt lat="45.92718" lon="4.65723">
        <ele>310</ele>
        <time>2016-09-27T09:26:32Z</time>
      </trkpt>
      <trkpt lat="45.92716" lon="4.65712">
        <ele>310</ele>
        <time>2016-09-27T09:26:33Z</time>
      </trkpt>
      <trkpt lat="45.92714" lon="4.65702">
        <ele>309</ele>
        <time>2016-09-27T09:26:34Z</time>
      </trkpt>
      <trkpt lat="45.92714" lon="4.65694">
        <ele>309</ele>
        <time>2016-09-27T09:26:35Z</time>
      </trkpt>
      <trkpt lat="45.92712" lon="4.65686">
        <ele>309</ele>
        <time>2016-09-27T09:26:36Z</time>
      </trkpt>
      <trkpt lat="45.92711" lon="4.6568">
        <ele>309</ele>
        <time>2016-09-27T09:26:37Z</time>
      </trkpt>
      <trkpt lat="45.92709" lon="4.65674">
        <ele>309</ele>
        <time>2016-09-27T09:26:38Z</time>
      </trkpt>
      <trkpt lat="45.92709" lon="4.65662">
        <ele>305</ele>
        <time>2016-09-27T09:26:41Z</time>
      </trkpt>
      <trkpt lat="45.92708" lon="4.65659">
        <ele>305</ele>
        <time>2016-09-27T09:26:42Z</time>
      </trkpt>
      <trkpt lat="45.92706" lon="4.65651">
        <ele>304</ele>
        <time>2016-09-27T09:26:44Z</time>
      </trkpt>
      <trkpt lat="45.92705" lon="4.65647">
        <ele>304</ele>
        <time>2016-09-27T09:26:45Z</time>
      </trkpt>
      <trkpt lat="45.92703" lon="4.65641">
        <ele>304</ele>
        <time>2016-09-27T09:26:46Z</time>
      </trkpt>
      <trkpt lat="45.92702" lon="4.65634">
        <ele>304</ele>
        <time>2016-09-27T09:26:47Z</time>
      </trkpt>
      <trkpt lat="45.927" lon="4.65628">
        <ele>304</ele>
        <time>2016-09-27T09:26:48Z</time>
      </trkpt>
      <trkpt lat="45.92698" lon="4.65621">
        <ele>303</ele>
        <time>2016-09-27T09:26:49Z</time>
      </trkpt>
      <trkpt lat="45.92696" lon="4.65614">
        <ele>303</ele>
        <time>2016-09-27T09:26:50Z</time>
      </trkpt>
      <trkpt lat="45.92695" lon="4.65608">
        <ele>303</ele>
        <time>2016-09-27T09:26:51Z</time>
      </trkpt>
      <trkpt lat="45.92693" lon="4.65601">
        <ele>303</ele>
        <time>2016-09-27T09:26:52Z</time>
      </trkpt>
      <trkpt lat="45.92692" lon="4.65594">
        <ele>302</ele>
        <time>2016-09-27T09:26:53Z</time>
      </trkpt>
      <trkpt lat="45.92692" lon="4.65588">
        <ele>302</ele>
        <time>2016-09-27T09:26:54Z</time>
      </trkpt>
      <trkpt lat="45.92692" lon="4.65581">
        <ele>301</ele>
        <time>2016-09-27T09:26:55Z</time>
      </trkpt>
      <trkpt lat="45.92691" lon="4.65574">
        <ele>301</ele>
        <time>2016-09-27T09:26:56Z</time>
      </trkpt>
      <trkpt lat="45.92691" lon="4.65567">
        <ele>301</ele>
        <time>2016-09-27T09:26:57Z</time>
      </trkpt>
      <trkpt lat="45.9269" lon="4.6556">
        <ele>301</ele>
        <time>2016-09-27T09:26:58Z</time>
      </trkpt>
      <trkpt lat="45.9269" lon="4.65552">
        <ele>301</ele>
        <time>2016-09-27T09:26:59Z</time>
      </trkpt>
      <trkpt lat="45.9269" lon="4.65544">
        <ele>301</ele>
        <time>2016-09-27T09:27:00Z</time>
      </trkpt>
      <trkpt lat="45.92691" lon="4.65536">
        <ele>301</ele>
        <time>2016-09-27T09:27:01Z</time>
      </trkpt>
      <trkpt lat="45.92691" lon="4.65529">
        <ele>301</ele>
        <time>2016-09-27T09:27:02Z</time>
      </trkpt>
      <trkpt lat="45.92692" lon="4.65522">
        <ele>301</ele>
        <time>2016-09-27T09:27:03Z</time>
      </trkpt>
      <trkpt lat="45.92694" lon="4.6551">
        <ele>302</ele>
        <time>2016-09-27T09:27:05Z</time>
      </trkpt>
      <trkpt lat="45.92696" lon="4.65504">
        <ele>302</ele>
        <time>2016-09-27T09:27:06Z</time>
      </trkpt>
      <trkpt lat="45.92698" lon="4.65492">
        <ele>303</ele>
        <time>2016-09-27T09:27:08Z</time>
      </trkpt>
      <trkpt lat="45.927" lon="4.65486">
        <ele>303</ele>
        <time>2016-09-27T09:27:09Z</time>
      </trkpt>
      <trkpt lat="45.92702" lon="4.6548">
        <ele>303</ele>
        <time>2016-09-27T09:27:10Z</time>
      </trkpt>
      <trkpt lat="45.92703" lon="4.65474">
        <ele>303</ele>
        <time>2016-09-27T09:27:11Z</time>
      </trkpt>
      <trkpt lat="45.92705" lon="4.65467">
        <ele>303</ele>
        <time>2016-09-27T09:27:12Z</time>
      </trkpt>
      <trkpt lat="45.92706" lon="4.6546">
        <ele>303</ele>
        <time>2016-09-27T09:27:13Z</time>
      </trkpt>
      <trkpt lat="45.92708" lon="4.65453">
        <ele>303</ele>
        <time>2016-09-27T09:27:14Z</time>
      </trkpt>
      <trkpt lat="45.92709" lon="4.65447">
        <ele>303</ele>
        <time>2016-09-27T09:27:15Z</time>
      </trkpt>
      <trkpt lat="45.92712" lon="4.65435">
        <ele>303</ele>
        <time>2016-09-27T09:27:17Z</time>
      </trkpt>
      <trkpt lat="45.92713" lon="4.65429">
        <ele>303</ele>
        <time>2016-09-27T09:27:18Z</time>
      </trkpt>
      <trkpt lat="45.92716" lon="4.65419">
        <ele>303</ele>
        <time>2016-09-27T09:27:20Z</time>
      </trkpt>
      <trkpt lat="45.92717" lon="4.65413">
        <ele>304</ele>
        <time>2016-09-27T09:27:21Z</time>
      </trkpt>
      <trkpt lat="45.92719" lon="4.65401">
        <ele>304</ele>
        <time>2016-09-27T09:27:23Z</time>
      </trkpt>
      <trkpt lat="45.92721" lon="4.65395">
        <ele>304</ele>
        <time>2016-09-27T09:27:24Z</time>
      </trkpt>
      <trkpt lat="45.92723" lon="4.65389">
        <ele>304</ele>
        <time>2016-09-27T09:27:25Z</time>
      </trkpt>
      <trkpt lat="45.92724" lon="4.65382">
        <ele>304</ele>
        <time>2016-09-27T09:27:26Z</time>
      </trkpt>
      <trkpt lat="45.92726" lon="4.65375">
        <ele>304</ele>
        <time>2016-09-27T09:27:27Z</time>
      </trkpt>
      <trkpt lat="45.92727" lon="4.65369">
        <ele>305</ele>
        <time>2016-09-27T09:27:28Z</time>
      </trkpt>
      <trkpt lat="45.9273" lon="4.65357">
        <ele>305</ele>
        <time>2016-09-27T09:27:30Z</time>
      </trkpt>
      <trkpt lat="45.92732" lon="4.65351">
        <ele>305</ele>
        <time>2016-09-27T09:27:31Z</time>
      </trkpt>
      <trkpt lat="45.92735" lon="4.6534">
        <ele>305</ele>
        <time>2016-09-27T09:27:33Z</time>
      </trkpt>
      <trkpt lat="45.92736" lon="4.65334">
        <ele>305</ele>
        <time>2016-09-27T09:27:34Z</time>
      </trkpt>
      <trkpt lat="45.92739" lon="4.65323">
        <ele>305</ele>
        <time>2016-09-27T09:27:36Z</time>
      </trkpt>
      <trkpt lat="45.9274" lon="4.65317">
        <ele>306</ele>
        <time>2016-09-27T09:27:37Z</time>
      </trkpt>
      <trkpt lat="45.92743" lon="4.65305">
        <ele>306</ele>
        <time>2016-09-27T09:27:39Z</time>
      </trkpt>
      <trkpt lat="45.92745" lon="4.653">
        <ele>306</ele>
        <time>2016-09-27T09:27:40Z</time>
      </trkpt>
      <trkpt lat="45.92748" lon="4.65289">
        <ele>306</ele>
        <time>2016-09-27T09:27:42Z</time>
      </trkpt>
      <trkpt lat="45.92749" lon="4.65284">
        <ele>306</ele>
        <time>2016-09-27T09:27:43Z</time>
      </trkpt>
      <trkpt lat="45.92751" lon="4.65273">
        <ele>307</ele>
        <time>2016-09-27T09:27:45Z</time>
      </trkpt>
      <trkpt lat="45.92752" lon="4.65268">
        <ele>307</ele>
        <time>2016-09-27T09:27:46Z</time>
      </trkpt>
      <trkpt lat="45.92755" lon="4.65257">
        <ele>307</ele>
        <time>2016-09-27T09:27:48Z</time>
      </trkpt>
      <trkpt lat="45.92756" lon="4.65252">
        <ele>307</ele>
        <time>2016-09-27T09:27:49Z</time>
      </trkpt>
      <trkpt lat="45.92758" lon="4.65241">
        <ele>307</ele>
        <time>2016-09-27T09:27:51Z</time>
      </trkpt>
      <trkpt lat="45.9276" lon="4.65237">
        <ele>308</ele>
        <time>2016-09-27T09:27:52Z</time>
      </trkpt>
      <trkpt lat="45.92763" lon="4.65227">
        <ele>308</ele>
        <time>2016-09-27T09:27:54Z</time>
      </trkpt>
      <trkpt lat="45.92765" lon="4.65223">
        <ele>308</ele>
        <time>2016-09-27T09:27:55Z</time>
      </trkpt>
      <trkpt lat="45.92769" lon="4.65214">
        <ele>308</ele>
        <time>2016-09-27T09:27:57Z</time>
      </trkpt>
      <trkpt lat="45.9277" lon="4.65209">
        <ele>308</ele>
        <time>2016-09-27T09:27:58Z</time>
      </trkpt>
      <trkpt lat="45.92773" lon="4.65201">
        <ele>308</ele>
        <time>2016-09-27T09:28:00Z</time>
      </trkpt>
      <trkpt lat="45.92775" lon="4.65196">
        <ele>308</ele>
        <time>2016-09-27T09:28:01Z</time>
      </trkpt>
      <trkpt lat="45.92778" lon="4.65186">
        <ele>309</ele>
        <time>2016-09-27T09:28:03Z</time>
      </trkpt>
      <trkpt lat="45.9278" lon="4.65182">
        <ele>309</ele>
        <time>2016-09-27T09:28:04Z</time>
      </trkpt>
      <trkpt lat="45.92783" lon="4.65172">
        <ele>309</ele>
        <time>2016-09-27T09:28:06Z</time>
      </trkpt>
      <trkpt lat="45.92785" lon="4.65167">
        <ele>309</ele>
        <time>2016-09-27T09:28:07Z</time>
      </trkpt>
      <trkpt lat="45.92789" lon="4.65156">
        <ele>310</ele>
        <time>2016-09-27T09:28:09Z</time>
      </trkpt>
      <trkpt lat="45.9279" lon="4.65152">
        <ele>310</ele>
        <time>2016-09-27T09:28:10Z</time>
      </trkpt>
      <trkpt lat="45.92794" lon="4.6514">
        <ele>310</ele>
        <time>2016-09-27T09:28:12Z</time>
      </trkpt>
      <trkpt lat="45.92795" lon="4.65135">
        <ele>310</ele>
        <time>2016-09-27T09:28:13Z</time>
      </trkpt>
      <trkpt lat="45.92799" lon="4.65124">
        <ele>311</ele>
        <time>2016-09-27T09:28:15Z</time>
      </trkpt>
      <trkpt lat="45.928" lon="4.65119">
        <ele>311</ele>
        <time>2016-09-27T09:28:16Z</time>
      </trkpt>
      <trkpt lat="45.92804" lon="4.65108">
        <ele>311</ele>
        <time>2016-09-27T09:28:18Z</time>
      </trkpt>
      <trkpt lat="45.92805" lon="4.65103">
        <ele>311</ele>
        <time>2016-09-27T09:28:19Z</time>
      </trkpt>
      <trkpt lat="45.92807" lon="4.65091">
        <ele>311</ele>
        <time>2016-09-27T09:28:21Z</time>
      </trkpt>
      <trkpt lat="45.92808" lon="4.65086">
        <ele>311</ele>
        <time>2016-09-27T09:28:22Z</time>
      </trkpt>
      <trkpt lat="45.9281" lon="4.65077">
        <ele>313</ele>
        <time>2016-09-27T09:28:24Z</time>
      </trkpt>
      <trkpt lat="45.92812" lon="4.65072">
        <ele>313</ele>
        <time>2016-09-27T09:28:25Z</time>
      </trkpt>
      <trkpt lat="45.92813" lon="4.65065">
        <ele>313</ele>
        <time>2016-09-27T09:28:27Z</time>
      </trkpt>
      <trkpt lat="45.92814" lon="4.6506">
        <ele>314</ele>
        <time>2016-09-27T09:28:28Z</time>
      </trkpt>
      <trkpt lat="45.92815" lon="4.6505">
        <ele>314</ele>
        <time>2016-09-27T09:28:30Z</time>
      </trkpt>
      <trkpt lat="45.92816" lon="4.65044">
        <ele>314</ele>
        <time>2016-09-27T09:28:31Z</time>
      </trkpt>
      <trkpt lat="45.92816" lon="4.65034">
        <ele>315</ele>
        <time>2016-09-27T09:28:33Z</time>
      </trkpt>
      <trkpt lat="45.92816" lon="4.65028">
        <ele>315</ele>
        <time>2016-09-27T09:28:34Z</time>
      </trkpt>
      <trkpt lat="45.92817" lon="4.65018">
        <ele>315</ele>
        <time>2016-09-27T09:28:36Z</time>
      </trkpt>
      <trkpt lat="45.92817" lon="4.65013">
        <ele>315</ele>
        <time>2016-09-27T09:28:37Z</time>
      </trkpt>
      <trkpt lat="45.92818" lon="4.65003">
        <ele>316</ele>
        <time>2016-09-27T09:28:39Z</time>
      </trkpt>
      <trkpt lat="45.92819" lon="4.64997">
        <ele>317</ele>
        <time>2016-09-27T09:28:40Z</time>
      </trkpt>
      <trkpt lat="45.9282" lon="4.64986">
        <ele>317</ele>
        <time>2016-09-27T09:28:42Z</time>
      </trkpt>
      <trkpt lat="45.9282" lon="4.6498">
        <ele>317</ele>
        <time>2016-09-27T09:28:43Z</time>
      </trkpt>
      <trkpt lat="45.92821" lon="4.64969">
        <ele>317</ele>
        <time>2016-09-27T09:28:45Z</time>
      </trkpt>
      <trkpt lat="45.9282" lon="4.64963">
        <ele>317</ele>
        <time>2016-09-27T09:28:46Z</time>
      </trkpt>
      <trkpt lat="45.9282" lon="4.64951">
        <ele>316</ele>
        <time>2016-09-27T09:28:48Z</time>
      </trkpt>
      <trkpt lat="45.92821" lon="4.64946">
        <ele>316</ele>
        <time>2016-09-27T09:28:49Z</time>
      </trkpt>
      <trkpt lat="45.92821" lon="4.64935">
        <ele>316</ele>
        <time>2016-09-27T09:28:51Z</time>
      </trkpt>
      <trkpt lat="45.92821" lon="4.6493">
        <ele>316</ele>
        <time>2016-09-27T09:28:52Z</time>
      </trkpt>
      <trkpt lat="45.9282" lon="4.64918">
        <ele>316</ele>
        <time>2016-09-27T09:28:54Z</time>
      </trkpt>
      <trkpt lat="45.92822" lon="4.64912">
        <ele>316</ele>
        <time>2016-09-27T09:28:55Z</time>
      </trkpt>
      <trkpt lat="45.92825" lon="4.64906">
        <ele>316</ele>
        <time>2016-09-27T09:28:56Z</time>
      </trkpt>
      <trkpt lat="45.92827" lon="4.649">
        <ele>316</ele>
        <time>2016-09-27T09:28:57Z</time>
      </trkpt>
      <trkpt lat="45.92827" lon="4.64888">
        <ele>316</ele>
        <time>2016-09-27T09:28:59Z</time>
      </trkpt>
      <trkpt lat="45.92828" lon="4.64882">
        <ele>316</ele>
        <time>2016-09-27T09:29:00Z</time>
      </trkpt>
      <trkpt lat="45.92827" lon="4.64872">
        <ele>316</ele>
        <time>2016-09-27T09:29:02Z</time>
      </trkpt>
      <trkpt lat="45.92827" lon="4.64866">
        <ele>316</ele>
        <time>2016-09-27T09:29:03Z</time>
      </trkpt>
      <trkpt lat="45.92826" lon="4.64855">
        <ele>317</ele>
        <time>2016-09-27T09:29:05Z</time>
      </trkpt>
      <trkpt lat="45.92826" lon="4.6485">
        <ele>317</ele>
        <time>2016-09-27T09:29:06Z</time>
      </trkpt>
      <trkpt lat="45.92823" lon="4.64838">
        <ele>317</ele>
        <time>2016-09-27T09:29:08Z</time>
      </trkpt>
      <trkpt lat="45.92823" lon="4.64833">
        <ele>317</ele>
        <time>2016-09-27T09:29:09Z</time>
      </trkpt>
      <trkpt lat="45.92819" lon="4.64827">
        <ele>317</ele>
        <time>2016-09-27T09:29:10Z</time>
      </trkpt>
      <trkpt lat="45.92818" lon="4.64822">
        <ele>318</ele>
        <time>2016-09-27T09:29:11Z</time>
      </trkpt>
      <trkpt lat="45.92822" lon="4.64816">
        <ele>318</ele>
        <time>2016-09-27T09:29:12Z</time>
      </trkpt>
      <trkpt lat="45.92824" lon="4.64811">
        <ele>318</ele>
        <time>2016-09-27T09:29:13Z</time>
      </trkpt>
      <trkpt lat="45.92824" lon="4.648">
        <ele>318</ele>
        <time>2016-09-27T09:29:15Z</time>
      </trkpt>
      <trkpt lat="45.92822" lon="4.64794">
        <ele>318</ele>
        <time>2016-09-27T09:29:16Z</time>
      </trkpt>
      <trkpt lat="45.9282" lon="4.64782">
        <ele>318</ele>
        <time>2016-09-27T09:29:18Z</time>
      </trkpt>
      <trkpt lat="45.9282" lon="4.64776">
        <ele>318</ele>
        <time>2016-09-27T09:29:19Z</time>
      </trkpt>
      <trkpt lat="45.92819" lon="4.64763">
        <ele>319</ele>
        <time>2016-09-27T09:29:21Z</time>
      </trkpt>
      <trkpt lat="45.92819" lon="4.64757">
        <ele>319</ele>
        <time>2016-09-27T09:29:22Z</time>
      </trkpt>
      <trkpt lat="45.92818" lon="4.64744">
        <ele>319</ele>
        <time>2016-09-27T09:29:24Z</time>
      </trkpt>
      <trkpt lat="45.92818" lon="4.64738">
        <ele>319</ele>
        <time>2016-09-27T09:29:25Z</time>
      </trkpt>
      <trkpt lat="45.92817" lon="4.64725">
        <ele>320</ele>
        <time>2016-09-27T09:29:27Z</time>
      </trkpt>
      <trkpt lat="45.92818" lon="4.6472">
        <ele>320</ele>
        <time>2016-09-27T09:29:28Z</time>
      </trkpt>
      <trkpt lat="45.92817" lon="4.64707">
        <ele>320</ele>
        <time>2016-09-27T09:29:30Z</time>
      </trkpt>
      <trkpt lat="45.92817" lon="4.64702">
        <ele>320</ele>
        <time>2016-09-27T09:29:31Z</time>
      </trkpt>
      <trkpt lat="45.92817" lon="4.6469">
        <ele>319</ele>
        <time>2016-09-27T09:29:33Z</time>
      </trkpt>
      <trkpt lat="45.92817" lon="4.64684">
        <ele>319</ele>
        <time>2016-09-27T09:29:34Z</time>
      </trkpt>
      <trkpt lat="45.92818" lon="4.64672">
        <ele>319</ele>
        <time>2016-09-27T09:29:36Z</time>
      </trkpt>
      <trkpt lat="45.92818" lon="4.64666">
        <ele>320</ele>
        <time>2016-09-27T09:29:37Z</time>
      </trkpt>
      <trkpt lat="45.92818" lon="4.64655">
        <ele>320</ele>
        <time>2016-09-27T09:29:39Z</time>
      </trkpt>
      <trkpt lat="45.92818" lon="4.64649">
        <ele>320</ele>
        <time>2016-09-27T09:29:40Z</time>
      </trkpt>
      <trkpt lat="45.92818" lon="4.64638">
        <ele>320</ele>
        <time>2016-09-27T09:29:42Z</time>
      </trkpt>
      <trkpt lat="45.92819" lon="4.64631">
        <ele>320</ele>
        <time>2016-09-27T09:29:43Z</time>
      </trkpt>
      <trkpt lat="45.92819" lon="4.6462">
        <ele>320</ele>
        <time>2016-09-27T09:29:45Z</time>
      </trkpt>
      <trkpt lat="45.92819" lon="4.64615">
        <ele>320</ele>
        <time>2016-09-27T09:29:46Z</time>
      </trkpt>
      <trkpt lat="45.92818" lon="4.64604">
        <ele>320</ele>
        <time>2016-09-27T09:29:48Z</time>
      </trkpt>
      <trkpt lat="45.92818" lon="4.64598">
        <ele>321</ele>
        <time>2016-09-27T09:29:49Z</time>
      </trkpt>
      <trkpt lat="45.92817" lon="4.64587">
        <ele>321</ele>
        <time>2016-09-27T09:29:51Z</time>
      </trkpt>
      <trkpt lat="45.92818" lon="4.64581">
        <ele>321</ele>
        <time>2016-09-27T09:29:52Z</time>
      </trkpt>
      <trkpt lat="45.92818" lon="4.64574">
        <ele>321</ele>
        <time>2016-09-27T09:29:53Z</time>
      </trkpt>
      <trkpt lat="45.92818" lon="4.64567">
        <ele>321</ele>
        <time>2016-09-27T09:29:54Z</time>
      </trkpt>
      <trkpt lat="45.92818" lon="4.6456">
        <ele>321</ele>
        <time>2016-09-27T09:29:55Z</time>
      </trkpt>
      <trkpt lat="45.92818" lon="4.64554">
        <ele>322</ele>
        <time>2016-09-27T09:29:56Z</time>
      </trkpt>
      <trkpt lat="45.92822" lon="4.64543">
        <ele>322</ele>
        <time>2016-09-27T09:29:58Z</time>
      </trkpt>
      <trkpt lat="45.92822" lon="4.64538">
        <ele>322</ele>
        <time>2016-09-27T09:29:59Z</time>
      </trkpt>
      <trkpt lat="45.92823" lon="4.64529">
        <ele>322</ele>
        <time>2016-09-27T09:30:01Z</time>
      </trkpt>
      <trkpt lat="45.92824" lon="4.64524">
        <ele>322</ele>
        <time>2016-09-27T09:30:02Z</time>
      </trkpt>
      <trkpt lat="45.92826" lon="4.64516">
        <ele>322</ele>
        <time>2016-09-27T09:30:04Z</time>
      </trkpt>
      <trkpt lat="45.92828" lon="4.64512">
        <ele>322</ele>
        <time>2016-09-27T09:30:05Z</time>
      </trkpt>
      <trkpt lat="45.92833" lon="4.64502">
        <ele>322</ele>
        <time>2016-09-27T09:30:07Z</time>
      </trkpt>
      <trkpt lat="45.92836" lon="4.64495">
        <ele>322</ele>
        <time>2016-09-27T09:30:08Z</time>
      </trkpt>
      <trkpt lat="45.92838" lon="4.64489">
        <ele>323</ele>
        <time>2016-09-27T09:30:09Z</time>
      </trkpt>
      <trkpt lat="45.92838" lon="4.64482">
        <ele>323</ele>
        <time>2016-09-27T09:30:10Z</time>
      </trkpt>
      <trkpt lat="45.92835" lon="4.64471">
        <ele>324</ele>
        <time>2016-09-27T09:30:12Z</time>
      </trkpt>
      <trkpt lat="45.92833" lon="4.64467">
        <ele>324</ele>
        <time>2016-09-27T09:30:13Z</time>
      </trkpt>
      <trkpt lat="45.92827" lon="4.64459">
        <ele>324</ele>
        <time>2016-09-27T09:30:15Z</time>
      </trkpt>
      <trkpt lat="45.92825" lon="4.64454">
        <ele>324</ele>
        <time>2016-09-27T09:30:16Z</time>
      </trkpt>
      <trkpt lat="45.92823" lon="4.64443">
        <ele>325</ele>
        <time>2016-09-27T09:30:18Z</time>
      </trkpt>
      <trkpt lat="45.92823" lon="4.64436">
        <ele>325</ele>
        <time>2016-09-27T09:30:19Z</time>
      </trkpt>
      <trkpt lat="45.92823" lon="4.64429">
        <ele>325</ele>
        <time>2016-09-27T09:30:20Z</time>
      </trkpt>
      <trkpt lat="45.92822" lon="4.64423">
        <ele>326</ele>
        <time>2016-09-27T09:30:21Z</time>
      </trkpt>
      <trkpt lat="45.92823" lon="4.64412">
        <ele>327</ele>
        <time>2016-09-27T09:30:22Z</time>
      </trkpt>
      <trkpt lat="45.92822" lon="4.64406">
        <ele>327</ele>
        <time>2016-09-27T09:30:23Z</time>
      </trkpt>
      <trkpt lat="45.92822" lon="4.64399">
        <ele>326</ele>
        <time>2016-09-27T09:30:24Z</time>
      </trkpt>
      <trkpt lat="45.92824" lon="4.64391">
        <ele>326</ele>
        <time>2016-09-27T09:30:25Z</time>
      </trkpt>
      <trkpt lat="45.92826" lon="4.64384">
        <ele>326</ele>
        <time>2016-09-27T09:30:26Z</time>
      </trkpt>
      <trkpt lat="45.92825" lon="4.64376">
        <ele>327</ele>
        <time>2016-09-27T09:30:27Z</time>
      </trkpt>
      <trkpt lat="45.92826" lon="4.64367">
        <ele>327</ele>
        <time>2016-09-27T09:30:28Z</time>
      </trkpt>
      <trkpt lat="45.92822" lon="4.64359">
        <ele>327</ele>
        <time>2016-09-27T09:30:29Z</time>
      </trkpt>
      <trkpt lat="45.92822" lon="4.6435">
        <ele>327</ele>
        <time>2016-09-27T09:30:31Z</time>
      </trkpt>
      <trkpt lat="45.92824" lon="4.64346">
        <ele>327</ele>
        <time>2016-09-27T09:30:32Z</time>
      </trkpt>
      <trkpt lat="45.92827" lon="4.64336">
        <ele>328</ele>
        <time>2016-09-27T09:30:34Z</time>
      </trkpt>
      <trkpt lat="45.92829" lon="4.64331">
        <ele>328</ele>
        <time>2016-09-27T09:30:35Z</time>
      </trkpt>
      <trkpt lat="45.92832" lon="4.64322">
        <ele>327</ele>
        <time>2016-09-27T09:30:37Z</time>
      </trkpt>
      <trkpt lat="45.92834" lon="4.64317">
        <ele>327</ele>
        <time>2016-09-27T09:30:38Z</time>
      </trkpt>
      <trkpt lat="45.92837" lon="4.64306">
        <ele>327</ele>
        <time>2016-09-27T09:30:40Z</time>
      </trkpt>
      <trkpt lat="45.92838" lon="4.64302">
        <ele>326</ele>
        <time>2016-09-27T09:30:41Z</time>
      </trkpt>
      <trkpt lat="45.9284" lon="4.64293">
        <ele>326</ele>
        <time>2016-09-27T09:30:43Z</time>
      </trkpt>
      <trkpt lat="45.92841" lon="4.64288">
        <ele>326</ele>
        <time>2016-09-27T09:30:44Z</time>
      </trkpt>
      <trkpt lat="45.92842" lon="4.64279">
        <ele>326</ele>
        <time>2016-09-27T09:30:46Z</time>
      </trkpt>
      <trkpt lat="45.92843" lon="4.64274">
        <ele>326</ele>
        <time>2016-09-27T09:30:47Z</time>
      </trkpt>
      <trkpt lat="45.92845" lon="4.64263">
        <ele>326</ele>
        <time>2016-09-27T09:30:49Z</time>
      </trkpt>
      <trkpt lat="45.92846" lon="4.64256">
        <ele>326</ele>
        <time>2016-09-27T09:30:50Z</time>
      </trkpt>
      <trkpt lat="45.92849" lon="4.64245">
        <ele>324</ele>
        <time>2016-09-27T09:30:52Z</time>
      </trkpt>
      <trkpt lat="45.92851" lon="4.64237">
        <ele>324</ele>
        <time>2016-09-27T09:30:53Z</time>
      </trkpt>
      <trkpt lat="45.92854" lon="4.64229">
        <ele>324</ele>
        <time>2016-09-27T09:30:54Z</time>
      </trkpt>
      <trkpt lat="45.92855" lon="4.6422">
        <ele>323</ele>
        <time>2016-09-27T09:30:55Z</time>
      </trkpt>
      <trkpt lat="45.92858" lon="4.64208">
        <ele>323</ele>
        <time>2016-09-27T09:30:57Z</time>
      </trkpt>
      <trkpt lat="45.92859" lon="4.64202">
        <ele>323</ele>
        <time>2016-09-27T09:30:58Z</time>
      </trkpt>
      <trkpt lat="45.92859" lon="4.64195">
        <ele>323</ele>
        <time>2016-09-27T09:30:59Z</time>
      </trkpt>
      <trkpt lat="45.92859" lon="4.64187">
        <ele>322</ele>
        <time>2016-09-27T09:31:00Z</time>
      </trkpt>
      <trkpt lat="45.92859" lon="4.6418">
        <ele>322</ele>
        <time>2016-09-27T09:31:01Z</time>
      </trkpt>
      <trkpt lat="45.9286" lon="4.64173">
        <ele>322</ele>
        <time>2016-09-27T09:31:02Z</time>
      </trkpt>
      <trkpt lat="45.9286" lon="4.64165">
        <ele>321</ele>
        <time>2016-09-27T09:31:03Z</time>
      </trkpt>
      <trkpt lat="45.9286" lon="4.64157">
        <ele>321</ele>
        <time>2016-09-27T09:31:04Z</time>
      </trkpt>
      <trkpt lat="45.92859" lon="4.64149">
        <ele>321</ele>
        <time>2016-09-27T09:31:05Z</time>
      </trkpt>
      <trkpt lat="45.92858" lon="4.64142">
        <ele>321</ele>
        <time>2016-09-27T09:31:06Z</time>
      </trkpt>
      <trkpt lat="45.92858" lon="4.64134">
        <ele>321</ele>
        <time>2016-09-27T09:31:07Z</time>
      </trkpt>
      <trkpt lat="45.92858" lon="4.64125">
        <ele>321</ele>
        <time>2016-09-27T09:31:08Z</time>
      </trkpt>
      <trkpt lat="45.92858" lon="4.64116">
        <ele>321</ele>
        <time>2016-09-27T09:31:09Z</time>
      </trkpt>
      <trkpt lat="45.92857" lon="4.64108">
        <ele>321</ele>
        <time>2016-09-27T09:31:10Z</time>
      </trkpt>
      <trkpt lat="45.92857" lon="4.641">
        <ele>321</ele>
        <time>2016-09-27T09:31:11Z</time>
      </trkpt>
      <trkpt lat="45.92857" lon="4.64092">
        <ele>322</ele>
        <time>2016-09-27T09:31:12Z</time>
      </trkpt>
      <trkpt lat="45.92857" lon="4.64084">
        <ele>322</ele>
        <time>2016-09-27T09:31:13Z</time>
      </trkpt>
      <trkpt lat="45.92857" lon="4.64076">
        <ele>323</ele>
        <time>2016-09-27T09:31:14Z</time>
      </trkpt>
      <trkpt lat="45.92857" lon="4.64068">
        <ele>323</ele>
        <time>2016-09-27T09:31:15Z</time>
      </trkpt>
      <trkpt lat="45.92857" lon="4.64061">
        <ele>323</ele>
        <time>2016-09-27T09:31:16Z</time>
      </trkpt>
      <trkpt lat="45.92856" lon="4.64054">
        <ele>323</ele>
        <time>2016-09-27T09:31:17Z</time>
      </trkpt>
      <trkpt lat="45.92856" lon="4.64048">
        <ele>324</ele>
        <time>2016-09-27T09:31:18Z</time>
      </trkpt>
      <trkpt lat="45.92855" lon="4.64035">
        <ele>324</ele>
        <time>2016-09-27T09:31:20Z</time>
      </trkpt>
      <trkpt lat="45.92855" lon="4.64029">
        <ele>324</ele>
        <time>2016-09-27T09:31:21Z</time>
      </trkpt>
      <trkpt lat="45.92852" lon="4.64018">
        <ele>325</ele>
        <time>2016-09-27T09:31:23Z</time>
      </trkpt>
      <trkpt lat="45.9285" lon="4.64014">
        <ele>325</ele>
        <time>2016-09-27T09:31:24Z</time>
      </trkpt>
      <trkpt lat="45.92848" lon="4.64004">
        <ele>326</ele>
        <time>2016-09-27T09:31:26Z</time>
      </trkpt>
      <trkpt lat="45.92848" lon="4.63999">
        <ele>327</ele>
        <time>2016-09-27T09:31:27Z</time>
      </trkpt>
      <trkpt lat="45.92847" lon="4.63989">
        <ele>327</ele>
        <time>2016-09-27T09:31:29Z</time>
      </trkpt>
      <trkpt lat="45.92846" lon="4.63984">
        <ele>327</ele>
        <time>2016-09-27T09:31:30Z</time>
      </trkpt>
      <trkpt lat="45.92845" lon="4.63975">
        <ele>327</ele>
        <time>2016-09-27T09:31:32Z</time>
      </trkpt>
      <trkpt lat="45.92844" lon="4.6397">
        <ele>327</ele>
        <time>2016-09-27T09:31:33Z</time>
      </trkpt>
      <trkpt lat="45.92843" lon="4.6396">
        <ele>327</ele>
        <time>2016-09-27T09:31:35Z</time>
      </trkpt>
      <trkpt lat="45.92843" lon="4.63955">
        <ele>327</ele>
        <time>2016-09-27T09:31:36Z</time>
      </trkpt>
      <trkpt lat="45.92845" lon="4.63945">
        <ele>327</ele>
        <time>2016-09-27T09:31:38Z</time>
      </trkpt>
      <trkpt lat="45.92846" lon="4.6394">
        <ele>327</ele>
        <time>2016-09-27T09:31:39Z</time>
      </trkpt>
      <trkpt lat="45.92848" lon="4.63929">
        <ele>327</ele>
        <time>2016-09-27T09:31:41Z</time>
      </trkpt>
      <trkpt lat="45.92849" lon="4.63924">
        <ele>327</ele>
        <time>2016-09-27T09:31:42Z</time>
      </trkpt>
      <trkpt lat="45.92851" lon="4.63917">
        <ele>327</ele>
        <time>2016-09-27T09:31:43Z</time>
      </trkpt>
      <trkpt lat="45.92854" lon="4.63911">
        <ele>327</ele>
        <time>2016-09-27T09:31:44Z</time>
      </trkpt>
      <trkpt lat="45.92857" lon="4.63905">
        <ele>327</ele>
        <time>2016-09-27T09:31:45Z</time>
      </trkpt>
      <trkpt lat="45.92859" lon="4.63898">
        <ele>327</ele>
        <time>2016-09-27T09:31:46Z</time>
      </trkpt>
      <trkpt lat="45.92861" lon="4.63891">
        <ele>327</ele>
        <time>2016-09-27T09:31:47Z</time>
      </trkpt>
      <trkpt lat="45.92863" lon="4.63885">
        <ele>327</ele>
        <time>2016-09-27T09:31:48Z</time>
      </trkpt>
      <trkpt lat="45.92865" lon="4.63878">
        <ele>327</ele>
        <time>2016-09-27T09:31:49Z</time>
      </trkpt>
      <trkpt lat="45.92868" lon="4.63872">
        <ele>327</ele>
        <time>2016-09-27T09:31:50Z</time>
      </trkpt>
      <trkpt lat="45.9287" lon="4.63866">
        <ele>327</ele>
        <time>2016-09-27T09:31:51Z</time>
      </trkpt>
      <trkpt lat="45.92873" lon="4.63859">
        <ele>327</ele>
        <time>2016-09-27T09:31:52Z</time>
      </trkpt>
      <trkpt lat="45.92875" lon="4.63852">
        <ele>327</ele>
        <time>2016-09-27T09:31:53Z</time>
      </trkpt>
      <trkpt lat="45.92878" lon="4.63845">
        <ele>327</ele>
        <time>2016-09-27T09:31:54Z</time>
      </trkpt>
      <trkpt lat="45.92879" lon="4.63838">
        <ele>327</ele>
        <time>2016-09-27T09:31:55Z</time>
      </trkpt>
      <trkpt lat="45.92881" lon="4.6383">
        <ele>326</ele>
        <time>2016-09-27T09:31:56Z</time>
      </trkpt>
      <trkpt lat="45.92882" lon="4.63822">
        <ele>326</ele>
        <time>2016-09-27T09:31:57Z</time>
      </trkpt>
      <trkpt lat="45.92883" lon="4.63813">
        <ele>326</ele>
        <time>2016-09-27T09:31:58Z</time>
      </trkpt>
      <trkpt lat="45.92883" lon="4.63803">
        <ele>326</ele>
        <time>2016-09-27T09:31:59Z</time>
      </trkpt>
      <trkpt lat="45.92883" lon="4.63793">
        <ele>326</ele>
        <time>2016-09-27T09:32:00Z</time>
      </trkpt>
      <trkpt lat="45.92881" lon="4.63783">
        <ele>326</ele>
        <time>2016-09-27T09:32:01Z</time>
      </trkpt>
      <trkpt lat="45.9288" lon="4.63773">
        <ele>326</ele>
        <time>2016-09-27T09:32:02Z</time>
      </trkpt>
      <trkpt lat="45.92879" lon="4.63764">
        <ele>326</ele>
        <time>2016-09-27T09:32:03Z</time>
      </trkpt>
      <trkpt lat="45.92877" lon="4.63756">
        <ele>326</ele>
        <time>2016-09-27T09:32:04Z</time>
      </trkpt>
      <trkpt lat="45.92874" lon="4.63749">
        <ele>326</ele>
        <time>2016-09-27T09:32:05Z</time>
      </trkpt>
      <trkpt lat="45.9287" lon="4.63743">
        <ele>326</ele>
        <time>2016-09-27T09:32:06Z</time>
      </trkpt>
      <trkpt lat="45.92866" lon="4.63739">
        <ele>326</ele>
        <time>2016-09-27T09:32:07Z</time>
      </trkpt>
      <trkpt lat="45.92862" lon="4.63735">
        <ele>327</ele>
        <time>2016-09-27T09:32:08Z</time>
      </trkpt>
      <trkpt lat="45.92857" lon="4.63727">
        <ele>327</ele>
        <time>2016-09-27T09:32:10Z</time>
      </trkpt>
      <trkpt lat="45.92854" lon="4.63723">
        <ele>327</ele>
        <time>2016-09-27T09:32:11Z</time>
      </trkpt>
      <trkpt lat="45.92849" lon="4.63715">
        <ele>327</ele>
        <time>2016-09-27T09:32:13Z</time>
      </trkpt>
      <trkpt lat="45.92846" lon="4.63711">
        <ele>327</ele>
        <time>2016-09-27T09:32:14Z</time>
      </trkpt>
      <trkpt lat="45.92842" lon="4.63703">
        <ele>327</ele>
        <time>2016-09-27T09:32:16Z</time>
      </trkpt>
      <trkpt lat="45.92839" lon="4.63699">
        <ele>328</ele>
        <time>2016-09-27T09:32:17Z</time>
      </trkpt>
      <trkpt lat="45.92834" lon="4.63691">
        <ele>328</ele>
        <time>2016-09-27T09:32:19Z</time>
      </trkpt>
      <trkpt lat="45.92832" lon="4.63687">
        <ele>330</ele>
        <time>2016-09-27T09:32:20Z</time>
      </trkpt>
      <trkpt lat="45.92827" lon="4.6368">
        <ele>330</ele>
        <time>2016-09-27T09:32:22Z</time>
      </trkpt>
      <trkpt lat="45.92824" lon="4.63677">
        <ele>330</ele>
        <time>2016-09-27T09:32:23Z</time>
      </trkpt>
      <trkpt lat="45.9282" lon="4.6367">
        <ele>330</ele>
        <time>2016-09-27T09:32:25Z</time>
      </trkpt>
      <trkpt lat="45.92818" lon="4.63666">
        <ele>330</ele>
        <time>2016-09-27T09:32:26Z</time>
      </trkpt>
      <trkpt lat="45.92813" lon="4.63659">
        <ele>331</ele>
        <time>2016-09-27T09:32:28Z</time>
      </trkpt>
      <trkpt lat="45.92811" lon="4.63655">
        <ele>331</ele>
        <time>2016-09-27T09:32:29Z</time>
      </trkpt>
      <trkpt lat="45.92807" lon="4.63649">
        <ele>331</ele>
        <time>2016-09-27T09:32:31Z</time>
      </trkpt>
      <trkpt lat="45.92805" lon="4.63645">
        <ele>331</ele>
        <time>2016-09-27T09:32:32Z</time>
      </trkpt>
      <trkpt lat="45.92801" lon="4.63639">
        <ele>331</ele>
        <time>2016-09-27T09:32:34Z</time>
      </trkpt>
      <trkpt lat="45.92798" lon="4.63635">
        <ele>331</ele>
        <time>2016-09-27T09:32:35Z</time>
      </trkpt>
      <trkpt lat="45.92794" lon="4.63629">
        <ele>331</ele>
        <time>2016-09-27T09:32:37Z</time>
      </trkpt>
      <trkpt lat="45.92791" lon="4.63626">
        <ele>331</ele>
        <time>2016-09-27T09:32:38Z</time>
      </trkpt>
      <trkpt lat="45.92786" lon="4.6362">
        <ele>331</ele>
        <time>2016-09-27T09:32:40Z</time>
      </trkpt>
      <trkpt lat="45.92783" lon="4.63618">
        <ele>331</ele>
        <time>2016-09-27T09:32:41Z</time>
      </trkpt>
      <trkpt lat="45.92778" lon="4.63613">
        <ele>331</ele>
        <time>2016-09-27T09:32:43Z</time>
      </trkpt>
      <trkpt lat="45.92776" lon="4.63609">
        <ele>331</ele>
        <time>2016-09-27T09:32:44Z</time>
      </trkpt>
      <trkpt lat="45.92773" lon="4.63601">
        <ele>332</ele>
        <time>2016-09-27T09:32:46Z</time>
      </trkpt>
      <trkpt lat="45.92773" lon="4.63596">
        <ele>332</ele>
        <time>2016-09-27T09:32:47Z</time>
      </trkpt>
      <trkpt lat="45.92773" lon="4.63587">
        <ele>332</ele>
        <time>2016-09-27T09:32:49Z</time>
      </trkpt>
      <trkpt lat="45.92772" lon="4.63582">
        <ele>333</ele>
        <time>2016-09-27T09:32:50Z</time>
      </trkpt>
      <trkpt lat="45.92771" lon="4.63572">
        <ele>333</ele>
        <time>2016-09-27T09:32:52Z</time>
      </trkpt>
      <trkpt lat="45.9277" lon="4.63567">
        <ele>333</ele>
        <time>2016-09-27T09:32:53Z</time>
      </trkpt>
      <trkpt lat="45.9277" lon="4.63556">
        <ele>333</ele>
        <time>2016-09-27T09:32:55Z</time>
      </trkpt>
      <trkpt lat="45.92769" lon="4.63552">
        <ele>333</ele>
        <time>2016-09-27T09:32:56Z</time>
      </trkpt>
      <trkpt lat="45.92768" lon="4.63541">
        <ele>333</ele>
        <time>2016-09-27T09:32:58Z</time>
      </trkpt>
      <trkpt lat="45.92767" lon="4.63535">
        <ele>333</ele>
        <time>2016-09-27T09:32:59Z</time>
      </trkpt>
      <trkpt lat="45.92768" lon="4.63526">
        <ele>333</ele>
        <time>2016-09-27T09:33:01Z</time>
      </trkpt>
      <trkpt lat="45.92768" lon="4.63521">
        <ele>333</ele>
        <time>2016-09-27T09:33:02Z</time>
      </trkpt>
      <trkpt lat="45.92769" lon="4.63512">
        <ele>333</ele>
        <time>2016-09-27T09:33:04Z</time>
      </trkpt>
      <trkpt lat="45.92769" lon="4.63507">
        <ele>333</ele>
        <time>2016-09-27T09:33:05Z</time>
      </trkpt>
      <trkpt lat="45.92769" lon="4.63498">
        <ele>334</ele>
        <time>2016-09-27T09:33:07Z</time>
      </trkpt>
      <trkpt lat="45.9277" lon="4.63493">
        <ele>334</ele>
        <time>2016-09-27T09:33:08Z</time>
      </trkpt>
      <trkpt lat="45.92771" lon="4.63483">
        <ele>334</ele>
        <time>2016-09-27T09:33:10Z</time>
      </trkpt>
      <trkpt lat="45.92771" lon="4.63478">
        <ele>334</ele>
        <time>2016-09-27T09:33:11Z</time>
      </trkpt>
      <trkpt lat="45.9277" lon="4.63468">
        <ele>334</ele>
        <time>2016-09-27T09:33:13Z</time>
      </trkpt>
      <trkpt lat="45.9277" lon="4.63463">
        <ele>334</ele>
        <time>2016-09-27T09:33:14Z</time>
      </trkpt>
      <trkpt lat="45.9277" lon="4.63453">
        <ele>334</ele>
        <time>2016-09-27T09:33:16Z</time>
      </trkpt>
      <trkpt lat="45.9277" lon="4.63447">
        <ele>334</ele>
        <time>2016-09-27T09:33:17Z</time>
      </trkpt>
      <trkpt lat="45.92769" lon="4.63437">
        <ele>334</ele>
        <time>2016-09-27T09:33:19Z</time>
      </trkpt>
      <trkpt lat="45.92769" lon="4.63432">
        <ele>334</ele>
        <time>2016-09-27T09:33:20Z</time>
      </trkpt>
      <trkpt lat="45.92767" lon="4.63422">
        <ele>334</ele>
        <time>2016-09-27T09:33:22Z</time>
      </trkpt>
      <trkpt lat="45.92766" lon="4.63417">
        <ele>334</ele>
        <time>2016-09-27T09:33:23Z</time>
      </trkpt>
      <trkpt lat="45.92766" lon="4.63406">
        <ele>334</ele>
        <time>2016-09-27T09:33:25Z</time>
      </trkpt>
      <trkpt lat="45.92766" lon="4.63401">
        <ele>334</ele>
        <time>2016-09-27T09:33:26Z</time>
      </trkpt>
      <trkpt lat="45.92764" lon="4.63391">
        <ele>334</ele>
        <time>2016-09-27T09:33:28Z</time>
      </trkpt>
      <trkpt lat="45.92764" lon="4.63386">
        <ele>334</ele>
        <time>2016-09-27T09:33:29Z</time>
      </trkpt>
      <trkpt lat="45.92763" lon="4.63375">
        <ele>334</ele>
        <time>2016-09-27T09:33:31Z</time>
      </trkpt>
      <trkpt lat="45.92763" lon="4.6337">
        <ele>335</ele>
        <time>2016-09-27T09:33:32Z</time>
      </trkpt>
      <trkpt lat="45.92761" lon="4.6336">
        <ele>335</ele>
        <time>2016-09-27T09:33:34Z</time>
      </trkpt>
      <trkpt lat="45.92761" lon="4.63355">
        <ele>335</ele>
        <time>2016-09-27T09:33:35Z</time>
      </trkpt>
      <trkpt lat="45.9276" lon="4.63344">
        <ele>335</ele>
        <time>2016-09-27T09:33:37Z</time>
      </trkpt>
      <trkpt lat="45.92759" lon="4.63339">
        <ele>335</ele>
        <time>2016-09-27T09:33:38Z</time>
      </trkpt>
      <trkpt lat="45.92759" lon="4.63328">
        <ele>335</ele>
        <time>2016-09-27T09:33:40Z</time>
      </trkpt>
      <trkpt lat="45.92759" lon="4.63323">
        <ele>335</ele>
        <time>2016-09-27T09:33:41Z</time>
      </trkpt>
      <trkpt lat="45.92758" lon="4.63313">
        <ele>335</ele>
        <time>2016-09-27T09:33:43Z</time>
      </trkpt>
      <trkpt lat="45.92758" lon="4.63308">
        <ele>335</ele>
        <time>2016-09-27T09:33:44Z</time>
      </trkpt>
      <trkpt lat="45.92758" lon="4.63298">
        <ele>336</ele>
        <time>2016-09-27T09:33:46Z</time>
      </trkpt>
      <trkpt lat="45.92758" lon="4.63292">
        <ele>336</ele>
        <time>2016-09-27T09:33:47Z</time>
      </trkpt>
      <trkpt lat="45.92758" lon="4.63282">
        <ele>336</ele>
        <time>2016-09-27T09:33:49Z</time>
      </trkpt>
      <trkpt lat="45.92758" lon="4.63277">
        <ele>336</ele>
        <time>2016-09-27T09:33:50Z</time>
      </trkpt>
      <trkpt lat="45.92759" lon="4.63266">
        <ele>336</ele>
        <time>2016-09-27T09:33:52Z</time>
      </trkpt>
      <trkpt lat="45.92759" lon="4.63261">
        <ele>336</ele>
        <time>2016-09-27T09:33:53Z</time>
      </trkpt>
      <trkpt lat="45.9276" lon="4.63251">
        <ele>336</ele>
        <time>2016-09-27T09:33:55Z</time>
      </trkpt>
      <trkpt lat="45.92761" lon="4.63246">
        <ele>337</ele>
        <time>2016-09-27T09:33:56Z</time>
      </trkpt>
      <trkpt lat="45.9276" lon="4.63236">
        <ele>337</ele>
        <time>2016-09-27T09:33:58Z</time>
      </trkpt>
      <trkpt lat="45.9276" lon="4.63231">
        <ele>337</ele>
        <time>2016-09-27T09:33:59Z</time>
      </trkpt>
      <trkpt lat="45.92761" lon="4.6322">
        <ele>337</ele>
        <time>2016-09-27T09:34:01Z</time>
      </trkpt>
      <trkpt lat="45.92762" lon="4.63215">
        <ele>337</ele>
        <time>2016-09-27T09:34:02Z</time>
      </trkpt>
      <trkpt lat="45.92762" lon="4.63206">
        <ele>338</ele>
        <time>2016-09-27T09:34:04Z</time>
      </trkpt>
      <trkpt lat="45.92762" lon="4.63201">
        <ele>338</ele>
        <time>2016-09-27T09:34:05Z</time>
      </trkpt>
      <trkpt lat="45.92763" lon="4.63191">
        <ele>338</ele>
        <time>2016-09-27T09:34:07Z</time>
      </trkpt>
      <trkpt lat="45.92763" lon="4.63187">
        <ele>338</ele>
        <time>2016-09-27T09:34:08Z</time>
      </trkpt>
      <trkpt lat="45.92764" lon="4.63177">
        <ele>338</ele>
        <time>2016-09-27T09:34:10Z</time>
      </trkpt>
      <trkpt lat="45.92765" lon="4.63172">
        <ele>338</ele>
        <time>2016-09-27T09:34:11Z</time>
      </trkpt>
      <trkpt lat="45.92765" lon="4.63162">
        <ele>339</ele>
        <time>2016-09-27T09:34:13Z</time>
      </trkpt>
      <trkpt lat="45.92765" lon="4.63157">
        <ele>339</ele>
        <time>2016-09-27T09:34:14Z</time>
      </trkpt>
      <trkpt lat="45.92766" lon="4.63148">
        <ele>340</ele>
        <time>2016-09-27T09:34:16Z</time>
      </trkpt>
      <trkpt lat="45.92766" lon="4.63143">
        <ele>340</ele>
        <time>2016-09-27T09:34:17Z</time>
      </trkpt>
      <trkpt lat="45.92767" lon="4.63134">
        <ele>340</ele>
        <time>2016-09-27T09:34:19Z</time>
      </trkpt>
      <trkpt lat="45.92767" lon="4.6313">
        <ele>340</ele>
        <time>2016-09-27T09:34:20Z</time>
      </trkpt>
      <trkpt lat="45.92769" lon="4.63121">
        <ele>340</ele>
        <time>2016-09-27T09:34:22Z</time>
      </trkpt>
      <trkpt lat="45.92769" lon="4.63117">
        <ele>340</ele>
        <time>2016-09-27T09:34:23Z</time>
      </trkpt>
      <trkpt lat="45.9277" lon="4.63108">
        <ele>341</ele>
        <time>2016-09-27T09:34:25Z</time>
      </trkpt>
      <trkpt lat="45.92772" lon="4.63104">
        <ele>341</ele>
        <time>2016-09-27T09:34:26Z</time>
      </trkpt>
      <trkpt lat="45.92773" lon="4.63096">
        <ele>341</ele>
        <time>2016-09-27T09:34:28Z</time>
      </trkpt>
      <trkpt lat="45.92774" lon="4.63091">
        <ele>341</ele>
        <time>2016-09-27T09:34:29Z</time>
      </trkpt>
      <trkpt lat="45.92774" lon="4.63082">
        <ele>342</ele>
        <time>2016-09-27T09:34:31Z</time>
      </trkpt>
      <trkpt lat="45.92775" lon="4.63078">
        <ele>342</ele>
        <time>2016-09-27T09:34:32Z</time>
      </trkpt>
      <trkpt lat="45.92775" lon="4.63069">
        <ele>342</ele>
        <time>2016-09-27T09:34:34Z</time>
      </trkpt>
      <trkpt lat="45.92775" lon="4.63064">
        <ele>342</ele>
        <time>2016-09-27T09:34:35Z</time>
      </trkpt>
      <trkpt lat="45.92776" lon="4.63055">
        <ele>343</ele>
        <time>2016-09-27T09:34:37Z</time>
      </trkpt>
      <trkpt lat="45.92776" lon="4.6305">
        <ele>343</ele>
        <time>2016-09-27T09:34:38Z</time>
      </trkpt>
      <trkpt lat="45.92775" lon="4.63041">
        <ele>343</ele>
        <time>2016-09-27T09:34:40Z</time>
      </trkpt>
      <trkpt lat="45.92776" lon="4.63037">
        <ele>343</ele>
        <time>2016-09-27T09:34:41Z</time>
      </trkpt>
      <trkpt lat="45.92777" lon="4.63028">
        <ele>343</ele>
        <time>2016-09-27T09:34:43Z</time>
      </trkpt>
      <trkpt lat="45.92777" lon="4.63024">
        <ele>343</ele>
        <time>2016-09-27T09:34:44Z</time>
      </trkpt>
      <trkpt lat="45.92776" lon="4.63014">
        <ele>343</ele>
        <time>2016-09-27T09:34:46Z</time>
      </trkpt>
      <trkpt lat="45.92776" lon="4.63009">
        <ele>343</ele>
        <time>2016-09-27T09:34:47Z</time>
      </trkpt>
      <trkpt lat="45.92775" lon="4.62998">
        <ele>344</ele>
        <time>2016-09-27T09:34:49Z</time>
      </trkpt>
      <trkpt lat="45.92775" lon="4.62994">
        <ele>344</ele>
        <time>2016-09-27T09:34:50Z</time>
      </trkpt>
      <trkpt lat="45.92774" lon="4.62984">
        <ele>345</ele>
        <time>2016-09-27T09:34:52Z</time>
      </trkpt>
      <trkpt lat="45.92774" lon="4.62979">
        <ele>345</ele>
        <time>2016-09-27T09:34:53Z</time>
      </trkpt>
      <trkpt lat="45.92774" lon="4.6297">
        <ele>345</ele>
        <time>2016-09-27T09:34:55Z</time>
      </trkpt>
      <trkpt lat="45.92773" lon="4.62965">
        <ele>345</ele>
        <time>2016-09-27T09:34:56Z</time>
      </trkpt>
      <trkpt lat="45.92773" lon="4.62956">
        <ele>345</ele>
        <time>2016-09-27T09:34:58Z</time>
      </trkpt>
      <trkpt lat="45.92772" lon="4.62951">
        <ele>345</ele>
        <time>2016-09-27T09:34:59Z</time>
      </trkpt>
      <trkpt lat="45.92771" lon="4.62943">
        <ele>345</ele>
        <time>2016-09-27T09:35:01Z</time>
      </trkpt>
      <trkpt lat="45.92771" lon="4.62938">
        <ele>345</ele>
        <time>2016-09-27T09:35:02Z</time>
      </trkpt>
      <trkpt lat="45.92771" lon="4.62925">
        <ele>346</ele>
        <time>2016-09-27T09:35:05Z</time>
      </trkpt>
      <trkpt lat="45.92771" lon="4.62921">
        <ele>346</ele>
        <time>2016-09-27T09:35:06Z</time>
      </trkpt>
      <trkpt lat="45.92771" lon="4.6291">
        <ele>347</ele>
        <time>2016-09-27T09:35:09Z</time>
      </trkpt>
      <trkpt lat="45.92771" lon="4.62906">
        <ele>348</ele>
        <time>2016-09-27T09:35:10Z</time>
      </trkpt>
      <trkpt lat="45.9277" lon="4.62895">
        <ele>348</ele>
        <time>2016-09-27T09:35:13Z</time>
      </trkpt>
      <trkpt lat="45.9277" lon="4.62891">
        <ele>348</ele>
        <time>2016-09-27T09:35:14Z</time>
      </trkpt>
      <trkpt lat="45.92772" lon="4.6288">
        <ele>348</ele>
        <time>2016-09-27T09:35:17Z</time>
      </trkpt>
      <trkpt lat="45.92772" lon="4.62876">
        <ele>348</ele>
        <time>2016-09-27T09:35:18Z</time>
      </trkpt>
      <trkpt lat="45.92772" lon="4.62864">
        <ele>349</ele>
        <time>2016-09-27T09:35:21Z</time>
      </trkpt>
      <trkpt lat="45.92772" lon="4.62859">
        <ele>349</ele>
        <time>2016-09-27T09:35:22Z</time>
      </trkpt>
      <trkpt lat="45.92771" lon="4.62849">
        <ele>349</ele>
        <time>2016-09-27T09:35:25Z</time>
      </trkpt>
      <trkpt lat="45.92771" lon="4.62846">
        <ele>349</ele>
        <time>2016-09-27T09:35:26Z</time>
      </trkpt>
      <trkpt lat="45.92772" lon="4.62833">
        <ele>352</ele>
        <time>2016-09-27T09:35:30Z</time>
      </trkpt>
      <trkpt lat="45.92772" lon="4.6283">
        <ele>352</ele>
        <time>2016-09-27T09:35:31Z</time>
      </trkpt>
      <trkpt lat="45.92771" lon="4.62819">
        <ele>352</ele>
        <time>2016-09-27T09:35:34Z</time>
      </trkpt>
      <trkpt lat="45.92771" lon="4.62816">
        <ele>352</ele>
        <time>2016-09-27T09:35:35Z</time>
      </trkpt>
      <trkpt lat="45.92769" lon="4.62805">
        <ele>353</ele>
        <time>2016-09-27T09:35:38Z</time>
      </trkpt>
      <trkpt lat="45.92769" lon="4.62801">
        <ele>353</ele>
        <time>2016-09-27T09:35:39Z</time>
      </trkpt>
      <trkpt lat="45.92766" lon="4.62791">
        <ele>353</ele>
        <time>2016-09-27T09:35:42Z</time>
      </trkpt>
      <trkpt lat="45.92765" lon="4.62788">
        <ele>353</ele>
        <time>2016-09-27T09:35:43Z</time>
      </trkpt>
      <trkpt lat="45.92762" lon="4.62779">
        <ele>353</ele>
        <time>2016-09-27T09:35:46Z</time>
      </trkpt>
      <trkpt lat="45.9276" lon="4.62777">
        <ele>354</ele>
        <time>2016-09-27T09:35:47Z</time>
      </trkpt>
      <trkpt lat="45.92755" lon="4.62767">
        <ele>354</ele>
        <time>2016-09-27T09:35:51Z</time>
      </trkpt>
      <trkpt lat="45.92754" lon="4.62764">
        <ele>354</ele>
        <time>2016-09-27T09:35:52Z</time>
      </trkpt>
      <trkpt lat="45.92752" lon="4.62755">
        <ele>355</ele>
        <time>2016-09-27T09:35:55Z</time>
      </trkpt>
      <trkpt lat="45.92751" lon="4.62752">
        <ele>355</ele>
        <time>2016-09-27T09:35:56Z</time>
      </trkpt>
      <trkpt lat="45.92749" lon="4.62743">
        <ele>355</ele>
        <time>2016-09-27T09:35:59Z</time>
      </trkpt>
      <trkpt lat="45.92748" lon="4.6274">
        <ele>355</ele>
        <time>2016-09-27T09:36:00Z</time>
      </trkpt>
      <trkpt lat="45.92748" lon="4.62729">
        <ele>355</ele>
        <time>2016-09-27T09:36:03Z</time>
      </trkpt>
      <trkpt lat="45.92748" lon="4.62725">
        <ele>356</ele>
        <time>2016-09-27T09:36:04Z</time>
      </trkpt>
      <trkpt lat="45.92747" lon="4.62715">
        <ele>356</ele>
        <time>2016-09-27T09:36:07Z</time>
      </trkpt>
      <trkpt lat="45.92747" lon="4.62711">
        <ele>356</ele>
        <time>2016-09-27T09:36:08Z</time>
      </trkpt>
      <trkpt lat="45.92747" lon="4.62701">
        <ele>356</ele>
        <time>2016-09-27T09:36:11Z</time>
      </trkpt>
      <trkpt lat="45.92747" lon="4.62698">
        <ele>356</ele>
        <time>2016-09-27T09:36:12Z</time>
      </trkpt>
      <trkpt lat="45.92747" lon="4.62685">
        <ele>357</ele>
        <time>2016-09-27T09:36:16Z</time>
      </trkpt>
      <trkpt lat="45.92747" lon="4.62682">
        <ele>357</ele>
        <time>2016-09-27T09:36:17Z</time>
      </trkpt>
      <trkpt lat="45.92746" lon="4.62672">
        <ele>358</ele>
        <time>2016-09-27T09:36:20Z</time>
      </trkpt>
      <trkpt lat="45.92745" lon="4.62668">
        <ele>358</ele>
        <time>2016-09-27T09:36:21Z</time>
      </trkpt>
      <trkpt lat="45.92744" lon="4.62657">
        <ele>360</ele>
        <time>2016-09-27T09:36:25Z</time>
      </trkpt>
      <trkpt lat="45.92744" lon="4.62653">
        <ele>360</ele>
        <time>2016-09-27T09:36:26Z</time>
      </trkpt>
      <trkpt lat="45.92742" lon="4.62641">
        <ele>361</ele>
        <time>2016-09-27T09:36:30Z</time>
      </trkpt>
      <trkpt lat="45.92743" lon="4.62639">
        <ele>361</ele>
        <time>2016-09-27T09:36:31Z</time>
      </trkpt>
      <trkpt lat="45.92741" lon="4.62629">
        <ele>361</ele>
        <time>2016-09-27T09:36:34Z</time>
      </trkpt>
      <trkpt lat="45.9274" lon="4.62626">
        <ele>361</ele>
        <time>2016-09-27T09:36:35Z</time>
      </trkpt>
      <trkpt lat="45.92738" lon="4.62615">
        <ele>362</ele>
        <time>2016-09-27T09:36:39Z</time>
      </trkpt>
      <trkpt lat="45.92737" lon="4.62612">
        <ele>362</ele>
        <time>2016-09-27T09:36:40Z</time>
      </trkpt>
      <trkpt lat="45.92736" lon="4.62599">
        <ele>363</ele>
        <time>2016-09-27T09:36:44Z</time>
      </trkpt>
      <trkpt lat="45.92735" lon="4.62596">
        <ele>363</ele>
        <time>2016-09-27T09:36:45Z</time>
      </trkpt>
      <trkpt lat="45.92734" lon="4.62586">
        <ele>363</ele>
        <time>2016-09-27T09:36:48Z</time>
      </trkpt>
      <trkpt lat="45.92733" lon="4.62582">
        <ele>365</ele>
        <time>2016-09-27T09:36:49Z</time>
      </trkpt>
      <trkpt lat="45.92731" lon="4.6257">
        <ele>366</ele>
        <time>2016-09-27T09:36:53Z</time>
      </trkpt>
      <trkpt lat="45.92731" lon="4.62567">
        <ele>366</ele>
        <time>2016-09-27T09:36:54Z</time>
      </trkpt>
      <trkpt lat="45.92731" lon="4.62555">
        <ele>366</ele>
        <time>2016-09-27T09:36:58Z</time>
      </trkpt>
      <trkpt lat="45.92731" lon="4.62552">
        <ele>366</ele>
        <time>2016-09-27T09:36:59Z</time>
      </trkpt>
      <trkpt lat="45.92731" lon="4.62541">
        <ele>366</ele>
        <time>2016-09-27T09:37:02Z</time>
      </trkpt>
      <trkpt lat="45.92732" lon="4.62538">
        <ele>366</ele>
        <time>2016-09-27T09:37:03Z</time>
      </trkpt>
      <trkpt lat="45.92731" lon="4.62527">
        <ele>367</ele>
        <time>2016-09-27T09:37:07Z</time>
      </trkpt>
      <trkpt lat="45.9273" lon="4.62524">
        <ele>367</ele>
        <time>2016-09-27T09:37:08Z</time>
      </trkpt>
      <trkpt lat="45.92729" lon="4.62512">
        <ele>367</ele>
        <time>2016-09-27T09:37:12Z</time>
      </trkpt>
      <trkpt lat="45.92729" lon="4.62509">
        <ele>367</ele>
        <time>2016-09-27T09:37:13Z</time>
      </trkpt>
      <trkpt lat="45.92731" lon="4.62498">
        <ele>369</ele>
        <time>2016-09-27T09:37:17Z</time>
      </trkpt>
      <trkpt lat="45.92731" lon="4.62495">
        <ele>369</ele>
        <time>2016-09-27T09:37:18Z</time>
      </trkpt>
      <trkpt lat="45.9273" lon="4.62483">
        <ele>369</ele>
        <time>2016-09-27T09:37:22Z</time>
      </trkpt>
      <trkpt lat="45.92731" lon="4.62481">
        <ele>369</ele>
        <time>2016-09-27T09:37:23Z</time>
      </trkpt>
      <trkpt lat="45.9273" lon="4.62471">
        <ele>370</ele>
        <time>2016-09-27T09:37:26Z</time>
      </trkpt>
      <trkpt lat="45.92731" lon="4.62467">
        <ele>370</ele>
        <time>2016-09-27T09:37:27Z</time>
      </trkpt>
      <trkpt lat="45.92731" lon="4.62456">
        <ele>370</ele>
        <time>2016-09-27T09:37:30Z</time>
      </trkpt>
      <trkpt lat="45.92731" lon="4.62452">
        <ele>370</ele>
        <time>2016-09-27T09:37:31Z</time>
      </trkpt>
      <trkpt lat="45.92732" lon="4.62442">
        <ele>371</ele>
        <time>2016-09-27T09:37:34Z</time>
      </trkpt>
      <trkpt lat="45.92732" lon="4.62438">
        <ele>371</ele>
        <time>2016-09-27T09:37:35Z</time>
      </trkpt>
      <trkpt lat="45.92732" lon="4.62428">
        <ele>371</ele>
        <time>2016-09-27T09:37:38Z</time>
      </trkpt>
      <trkpt lat="45.92732" lon="4.62425">
        <ele>371</ele>
        <time>2016-09-27T09:37:39Z</time>
      </trkpt>
      <trkpt lat="45.92733" lon="4.62414">
        <ele>373</ele>
        <time>2016-09-27T09:37:42Z</time>
      </trkpt>
      <trkpt lat="45.92733" lon="4.6241">
        <ele>373</ele>
        <time>2016-09-27T09:37:43Z</time>
      </trkpt>
      <trkpt lat="45.92732" lon="4.62399">
        <ele>373</ele>
        <time>2016-09-27T09:37:46Z</time>
      </trkpt>
      <trkpt lat="45.92732" lon="4.62395">
        <ele>373</ele>
        <time>2016-09-27T09:37:47Z</time>
      </trkpt>
      <trkpt lat="45.92732" lon="4.62383">
        <ele>373</ele>
        <time>2016-09-27T09:37:50Z</time>
      </trkpt>
      <trkpt lat="45.92732" lon="4.62379">
        <ele>373</ele>
        <time>2016-09-27T09:37:51Z</time>
      </trkpt>
      <trkpt lat="45.9273" lon="4.62368">
        <ele>373</ele>
        <time>2016-09-27T09:37:54Z</time>
      </trkpt>
      <trkpt lat="45.9273" lon="4.62365">
        <ele>373</ele>
        <time>2016-09-27T09:37:55Z</time>
      </trkpt>
      <trkpt lat="45.92729" lon="4.62355">
        <ele>374</ele>
        <time>2016-09-27T09:37:58Z</time>
      </trkpt>
      <trkpt lat="45.92728" lon="4.62351">
        <ele>374</ele>
        <time>2016-09-27T09:37:59Z</time>
      </trkpt>
      <trkpt lat="45.92726" lon="4.62341">
        <ele>374</ele>
        <time>2016-09-27T09:38:02Z</time>
      </trkpt>
      <trkpt lat="45.92727" lon="4.62336">
        <ele>374</ele>
        <time>2016-09-27T09:38:03Z</time>
      </trkpt>
      <trkpt lat="45.92725" lon="4.62327">
        <ele>375</ele>
        <time>2016-09-27T09:38:06Z</time>
      </trkpt>
      <trkpt lat="45.92723" lon="4.62324">
        <ele>375</ele>
        <time>2016-09-27T09:38:07Z</time>
      </trkpt>
      <trkpt lat="45.92718" lon="4.62313">
        <ele>375</ele>
        <time>2016-09-27T09:38:10Z</time>
      </trkpt>
      <trkpt lat="45.92719" lon="4.62308">
        <ele>375</ele>
        <time>2016-09-27T09:38:11Z</time>
      </trkpt>
      <trkpt lat="45.92714" lon="4.62297">
        <ele>375</ele>
        <time>2016-09-27T09:38:14Z</time>
      </trkpt>
      <trkpt lat="45.92713" lon="4.62293">
        <ele>375</ele>
        <time>2016-09-27T09:38:15Z</time>
      </trkpt>
      <trkpt lat="45.92711" lon="4.62281">
        <ele>375</ele>
        <time>2016-09-27T09:38:18Z</time>
      </trkpt>
      <trkpt lat="45.9271" lon="4.62277">
        <ele>375</ele>
        <time>2016-09-27T09:38:19Z</time>
      </trkpt>
      <trkpt lat="45.92709" lon="4.62264">
        <ele>375</ele>
        <time>2016-09-27T09:38:22Z</time>
      </trkpt>
      <trkpt lat="45.92709" lon="4.6226">
        <ele>375</ele>
        <time>2016-09-27T09:38:23Z</time>
      </trkpt>
      <trkpt lat="45.92706" lon="4.62248">
        <ele>375</ele>
        <time>2016-09-27T09:38:26Z</time>
      </trkpt>
      <trkpt lat="45.92707" lon="4.62244">
        <ele>375</ele>
        <time>2016-09-27T09:38:27Z</time>
      </trkpt>
      <trkpt lat="45.92706" lon="4.62234">
        <ele>375</ele>
        <time>2016-09-27T09:38:29Z</time>
      </trkpt>
      <trkpt lat="45.92707" lon="4.62229">
        <ele>375</ele>
        <time>2016-09-27T09:38:30Z</time>
      </trkpt>
      <trkpt lat="45.92702" lon="4.62219">
        <ele>375</ele>
        <time>2016-09-27T09:38:32Z</time>
      </trkpt>
      <trkpt lat="45.92701" lon="4.62214">
        <ele>375</ele>
        <time>2016-09-27T09:38:33Z</time>
      </trkpt>
      <trkpt lat="45.92699" lon="4.62204">
        <ele>375</ele>
        <time>2016-09-27T09:38:35Z</time>
      </trkpt>
      <trkpt lat="45.92698" lon="4.622">
        <ele>375</ele>
        <time>2016-09-27T09:38:36Z</time>
      </trkpt>
      <trkpt lat="45.92698" lon="4.62187">
        <ele>375</ele>
        <time>2016-09-27T09:38:39Z</time>
      </trkpt>
      <trkpt lat="45.92698" lon="4.62183">
        <ele>375</ele>
        <time>2016-09-27T09:38:40Z</time>
      </trkpt>
      <trkpt lat="45.92696" lon="4.62175">
        <ele>375</ele>
        <time>2016-09-27T09:38:42Z</time>
      </trkpt>
      <trkpt lat="45.92695" lon="4.62171">
        <ele>375</ele>
        <time>2016-09-27T09:38:43Z</time>
      </trkpt>
      <trkpt lat="45.92693" lon="4.62161">
        <ele>375</ele>
        <time>2016-09-27T09:38:45Z</time>
      </trkpt>
      <trkpt lat="45.92695" lon="4.62156">
        <ele>375</ele>
        <time>2016-09-27T09:38:46Z</time>
      </trkpt>
      <trkpt lat="45.92695" lon="4.62145">
        <ele>375</ele>
        <time>2016-09-27T09:38:48Z</time>
      </trkpt>
      <trkpt lat="45.92695" lon="4.6214">
        <ele>375</ele>
        <time>2016-09-27T09:38:49Z</time>
      </trkpt>
      <trkpt lat="45.92696" lon="4.62129">
        <ele>375</ele>
        <time>2016-09-27T09:38:51Z</time>
      </trkpt>
      <trkpt lat="45.92696" lon="4.62124">
        <ele>375</ele>
        <time>2016-09-27T09:38:52Z</time>
      </trkpt>
      <trkpt lat="45.92698" lon="4.62114">
        <ele>375</ele>
        <time>2016-09-27T09:38:54Z</time>
      </trkpt>
      <trkpt lat="45.92699" lon="4.62109">
        <ele>375</ele>
        <time>2016-09-27T09:38:55Z</time>
      </trkpt>
      <trkpt lat="45.927" lon="4.62099">
        <ele>375</ele>
        <time>2016-09-27T09:38:57Z</time>
      </trkpt>
      <trkpt lat="45.92701" lon="4.62094">
        <ele>375</ele>
        <time>2016-09-27T09:38:58Z</time>
      </trkpt>
      <trkpt lat="45.92703" lon="4.62084">
        <ele>375</ele>
        <time>2016-09-27T09:39:00Z</time>
      </trkpt>
      <trkpt lat="45.92705" lon="4.62079">
        <ele>374</ele>
        <time>2016-09-27T09:39:01Z</time>
      </trkpt>
      <trkpt lat="45.92707" lon="4.62069">
        <ele>374</ele>
        <time>2016-09-27T09:39:03Z</time>
      </trkpt>
      <trkpt lat="45.92708" lon="4.62063">
        <ele>374</ele>
        <time>2016-09-27T09:39:04Z</time>
      </trkpt>
      <trkpt lat="45.9271" lon="4.62052">
        <ele>374</ele>
        <time>2016-09-27T09:39:06Z</time>
      </trkpt>
      <trkpt lat="45.92711" lon="4.62047">
        <ele>374</ele>
        <time>2016-09-27T09:39:07Z</time>
      </trkpt>
      <trkpt lat="45.92715" lon="4.62036">
        <ele>374</ele>
        <time>2016-09-27T09:39:09Z</time>
      </trkpt>
      <trkpt lat="45.92718" lon="4.62031">
        <ele>374</ele>
        <time>2016-09-27T09:39:10Z</time>
      </trkpt>
      <trkpt lat="45.92723" lon="4.62021">
        <ele>374</ele>
        <time>2016-09-27T09:39:12Z</time>
      </trkpt>
      <trkpt lat="45.92725" lon="4.62015">
        <ele>374</ele>
        <time>2016-09-27T09:39:13Z</time>
      </trkpt>
      <trkpt lat="45.92729" lon="4.62005">
        <ele>374</ele>
        <time>2016-09-27T09:39:15Z</time>
      </trkpt>
      <trkpt lat="45.92731" lon="4.62">
        <ele>375</ele>
        <time>2016-09-27T09:39:16Z</time>
      </trkpt>
      <trkpt lat="45.92735" lon="4.6199">
        <ele>374</ele>
        <time>2016-09-27T09:39:18Z</time>
      </trkpt>
      <trkpt lat="45.92737" lon="4.61985">
        <ele>374</ele>
        <time>2016-09-27T09:39:19Z</time>
      </trkpt>
      <trkpt lat="45.92742" lon="4.61976">
        <ele>374</ele>
        <time>2016-09-27T09:39:21Z</time>
      </trkpt>
      <trkpt lat="45.92744" lon="4.61972">
        <ele>374</ele>
        <time>2016-09-27T09:39:22Z</time>
      </trkpt>
      <trkpt lat="45.92749" lon="4.61962">
        <ele>374</ele>
        <time>2016-09-27T09:39:24Z</time>
      </trkpt>
      <trkpt lat="45.92751" lon="4.61957">
        <ele>375</ele>
        <time>2016-09-27T09:39:25Z</time>
      </trkpt>
      <trkpt lat="45.92756" lon="4.61946">
        <ele>375</ele>
        <time>2016-09-27T09:39:27Z</time>
      </trkpt>
      <trkpt lat="45.92758" lon="4.61941">
        <ele>375</ele>
        <time>2016-09-27T09:39:28Z</time>
      </trkpt>
      <trkpt lat="45.92761" lon="4.6193">
        <ele>375</ele>
        <time>2016-09-27T09:39:30Z</time>
      </trkpt>
      <trkpt lat="45.92761" lon="4.61925">
        <ele>375</ele>
        <time>2016-09-27T09:39:31Z</time>
      </trkpt>
      <trkpt lat="45.92759" lon="4.61913">
        <ele>376</ele>
        <time>2016-09-27T09:39:33Z</time>
      </trkpt>
      <trkpt lat="45.92759" lon="4.61908">
        <ele>376</ele>
        <time>2016-09-27T09:39:34Z</time>
      </trkpt>
      <trkpt lat="45.92757" lon="4.61898">
        <ele>377</ele>
        <time>2016-09-27T09:39:36Z</time>
      </trkpt>
      <trkpt lat="45.92757" lon="4.61893">
        <ele>377</ele>
        <time>2016-09-27T09:39:37Z</time>
      </trkpt>
      <trkpt lat="45.92764" lon="4.61893">
        <ele>377</ele>
        <time>2016-09-27T09:39:38Z</time>
      </trkpt>
      <trkpt lat="45.92767" lon="4.61891">
        <ele>377</ele>
        <time>2016-09-27T09:39:39Z</time>
      </trkpt>
      <trkpt lat="45.92765" lon="4.61882">
        <ele>377</ele>
        <time>2016-09-27T09:39:42Z</time>
      </trkpt>
      <trkpt lat="45.92764" lon="4.61878">
        <ele>377</ele>
        <time>2016-09-27T09:39:43Z</time>
      </trkpt>
      <trkpt lat="45.92762" lon="4.61874">
        <ele>377</ele>
        <time>2016-09-27T09:39:44Z</time>
      </trkpt>
      <trkpt lat="45.92759" lon="4.61863">
        <ele>377</ele>
        <time>2016-09-27T09:39:45Z</time>
      </trkpt>
      <trkpt lat="45.92766" lon="4.6186">
        <ele>377</ele>
        <time>2016-09-27T09:39:47Z</time>
      </trkpt>
      <trkpt lat="45.92771" lon="4.61863">
        <ele>377</ele>
        <time>2016-09-27T09:39:48Z</time>
      </trkpt>
      <trkpt lat="45.92777" lon="4.6187">
        <ele>377</ele>
        <time>2016-09-27T09:39:49Z</time>
      </trkpt>
      <trkpt lat="45.92784" lon="4.61876">
        <ele>377</ele>
        <time>2016-09-27T09:39:50Z</time>
      </trkpt>
      <trkpt lat="45.9279" lon="4.6188">
        <ele>377</ele>
        <time>2016-09-27T09:39:51Z</time>
      </trkpt>
      <trkpt lat="45.92796" lon="4.61882">
        <ele>377</ele>
        <time>2016-09-27T09:39:52Z</time>
      </trkpt>
      <trkpt lat="45.92801" lon="4.61884">
        <ele>377</ele>
        <time>2016-09-27T09:39:53Z</time>
      </trkpt>
      <trkpt lat="45.92806" lon="4.61887">
        <ele>377</ele>
        <time>2016-09-27T09:39:54Z</time>
      </trkpt>
      <trkpt lat="45.92814" lon="4.61887">
        <ele>377</ele>
        <time>2016-09-27T09:39:56Z</time>
      </trkpt>
      <trkpt lat="45.92818" lon="4.61885">
        <ele>377</ele>
        <time>2016-09-27T09:39:57Z</time>
      </trkpt>
      <trkpt lat="45.92825" lon="4.61887">
        <ele>377</ele>
        <time>2016-09-27T09:39:58Z</time>
      </trkpt>
      <trkpt lat="45.9283" lon="4.61887">
        <ele>377</ele>
        <time>2016-09-27T09:39:59Z</time>
      </trkpt>
      <trkpt lat="45.92838" lon="4.61886">
        <ele>376</ele>
        <time>2016-09-27T09:40:01Z</time>
      </trkpt>
      <trkpt lat="45.92842" lon="4.61886">
        <ele>376</ele>
        <time>2016-09-27T09:40:02Z</time>
      </trkpt>
      <trkpt lat="45.9285" lon="4.61882">
        <ele>376</ele>
        <time>2016-09-27T09:40:04Z</time>
      </trkpt>
      <trkpt lat="45.92855" lon="4.61882">
        <ele>376</ele>
        <time>2016-09-27T09:40:05Z</time>
      </trkpt>
      <trkpt lat="45.9286" lon="4.61881">
        <ele>376</ele>
        <time>2016-09-27T09:40:06Z</time>
      </trkpt>
      <trkpt lat="45.92864" lon="4.61881">
        <ele>376</ele>
        <time>2016-09-27T09:40:07Z</time>
      </trkpt>
      <trkpt lat="45.92869" lon="4.61881">
        <ele>376</ele>
        <time>2016-09-27T09:40:08Z</time>
      </trkpt>
      <trkpt lat="45.92875" lon="4.61883">
        <ele>376</ele>
        <time>2016-09-27T09:40:09Z</time>
      </trkpt>
      <trkpt lat="45.9288" lon="4.61883">
        <ele>376</ele>
        <time>2016-09-27T09:40:10Z</time>
      </trkpt>
      <trkpt lat="45.92886" lon="4.61882">
        <ele>376</ele>
        <time>2016-09-27T09:40:11Z</time>
      </trkpt>
      <trkpt lat="45.92892" lon="4.61881">
        <ele>375</ele>
        <time>2016-09-27T09:40:12Z</time>
      </trkpt>
      <trkpt lat="45.92898" lon="4.61882">
        <ele>375</ele>
        <time>2016-09-27T09:40:13Z</time>
      </trkpt>
      <trkpt lat="45.92904" lon="4.61882">
        <ele>375</ele>
        <time>2016-09-27T09:40:14Z</time>
      </trkpt>
      <trkpt lat="45.92911" lon="4.61882">
        <ele>375</ele>
        <time>2016-09-27T09:40:15Z</time>
      </trkpt>
      <trkpt lat="45.92918" lon="4.61881">
        <ele>372</ele>
        <time>2016-09-27T09:40:16Z</time>
      </trkpt>
      <trkpt lat="45.92925" lon="4.61881">
        <ele>372</ele>
        <time>2016-09-27T09:40:17Z</time>
      </trkpt>
      <trkpt lat="45.92932" lon="4.61881">
        <ele>372</ele>
        <time>2016-09-27T09:40:18Z</time>
      </trkpt>
      <trkpt lat="45.92939" lon="4.6188">
        <ele>372</ele>
        <time>2016-09-27T09:40:19Z</time>
      </trkpt>
      <trkpt lat="45.92947" lon="4.61878">
        <ele>371</ele>
        <time>2016-09-27T09:40:20Z</time>
      </trkpt>
      <trkpt lat="45.92954" lon="4.61876">
        <ele>371</ele>
        <time>2016-09-27T09:40:21Z</time>
      </trkpt>
      <trkpt lat="45.92961" lon="4.61873">
        <ele>371</ele>
        <time>2016-09-27T09:40:22Z</time>
      </trkpt>
      <trkpt lat="45.92969" lon="4.6187">
        <ele>371</ele>
        <time>2016-09-27T09:40:23Z</time>
      </trkpt>
      <trkpt lat="45.92976" lon="4.61866">
        <ele>370</ele>
        <time>2016-09-27T09:40:24Z</time>
      </trkpt>
      <trkpt lat="45.92983" lon="4.61859">
        <ele>370</ele>
        <time>2016-09-27T09:40:25Z</time>
      </trkpt>
      <trkpt lat="45.92989" lon="4.61851">
        <ele>370</ele>
        <time>2016-09-27T09:40:26Z</time>
      </trkpt>
      <trkpt lat="45.92995" lon="4.61842">
        <ele>370</ele>
        <time>2016-09-27T09:40:27Z</time>
      </trkpt>
      <trkpt lat="45.93001" lon="4.61833">
        <ele>369</ele>
        <time>2016-09-27T09:40:28Z</time>
      </trkpt>
      <trkpt lat="45.93006" lon="4.61824">
        <ele>367</ele>
        <time>2016-09-27T09:40:29Z</time>
      </trkpt>
      <trkpt lat="45.93011" lon="4.61815">
        <ele>366</ele>
        <time>2016-09-27T09:40:30Z</time>
      </trkpt>
      <trkpt lat="45.93015" lon="4.61807">
        <ele>366</ele>
        <time>2016-09-27T09:40:31Z</time>
      </trkpt>
      <trkpt lat="45.93019" lon="4.61798">
        <ele>366</ele>
        <time>2016-09-27T09:40:32Z</time>
      </trkpt>
      <trkpt lat="45.93023" lon="4.6179">
        <ele>366</ele>
        <time>2016-09-27T09:40:33Z</time>
      </trkpt>
      <trkpt lat="45.93027" lon="4.61783">
        <ele>366</ele>
        <time>2016-09-27T09:40:34Z</time>
      </trkpt>
      <trkpt lat="45.93031" lon="4.61775">
        <ele>365</ele>
        <time>2016-09-27T09:40:35Z</time>
      </trkpt>
      <trkpt lat="45.93036" lon="4.61769">
        <ele>365</ele>
        <time>2016-09-27T09:40:36Z</time>
      </trkpt>
      <trkpt lat="45.9304" lon="4.61763">
        <ele>365</ele>
        <time>2016-09-27T09:40:37Z</time>
      </trkpt>
      <trkpt lat="45.93044" lon="4.61755">
        <ele>365</ele>
        <time>2016-09-27T09:40:38Z</time>
      </trkpt>
      <trkpt lat="45.93046" lon="4.61746">
        <ele>368</ele>
        <time>2016-09-27T09:40:39Z</time>
      </trkpt>
      <trkpt lat="45.93047" lon="4.61737">
        <ele>369</ele>
        <time>2016-09-27T09:40:40Z</time>
      </trkpt>
      <trkpt lat="45.93048" lon="4.61729">
        <ele>369</ele>
        <time>2016-09-27T09:40:41Z</time>
      </trkpt>
      <trkpt lat="45.93049" lon="4.61722">
        <ele>369</ele>
        <time>2016-09-27T09:40:42Z</time>
      </trkpt>
      <trkpt lat="45.93051" lon="4.61715">
        <ele>369</ele>
        <time>2016-09-27T09:40:43Z</time>
      </trkpt>
      <trkpt lat="45.93055" lon="4.61705">
        <ele>370</ele>
        <time>2016-09-27T09:40:45Z</time>
      </trkpt>
      <trkpt lat="45.93057" lon="4.61701">
        <ele>370</ele>
        <time>2016-09-27T09:40:46Z</time>
      </trkpt>
      <trkpt lat="45.93062" lon="4.61692">
        <ele>370</ele>
        <time>2016-09-27T09:40:48Z</time>
      </trkpt>
      <trkpt lat="45.93064" lon="4.61688">
        <ele>370</ele>
        <time>2016-09-27T09:40:49Z</time>
      </trkpt>
      <trkpt lat="45.93067" lon="4.61683">
        <ele>370</ele>
        <time>2016-09-27T09:40:50Z</time>
      </trkpt>
      <trkpt lat="45.9307" lon="4.61678">
        <ele>370</ele>
        <time>2016-09-27T09:40:51Z</time>
      </trkpt>
      <trkpt lat="45.93075" lon="4.61667">
        <ele>370</ele>
        <time>2016-09-27T09:40:53Z</time>
      </trkpt>
      <trkpt lat="45.93078" lon="4.61662">
        <ele>372</ele>
        <time>2016-09-27T09:40:54Z</time>
      </trkpt>
      <trkpt lat="45.93083" lon="4.61653">
        <ele>374</ele>
        <time>2016-09-27T09:40:56Z</time>
      </trkpt>
      <trkpt lat="45.93086" lon="4.61648">
        <ele>372</ele>
        <time>2016-09-27T09:40:57Z</time>
      </trkpt>
      <trkpt lat="45.93093" lon="4.61642">
        <ele>372</ele>
        <time>2016-09-27T09:40:59Z</time>
      </trkpt>
      <trkpt lat="45.93096" lon="4.61639">
        <ele>372</ele>
        <time>2016-09-27T09:41:00Z</time>
      </trkpt>
      <trkpt lat="45.93102" lon="4.61634">
        <ele>373</ele>
        <time>2016-09-27T09:41:02Z</time>
      </trkpt>
      <trkpt lat="45.93106" lon="4.61632">
        <ele>373</ele>
        <time>2016-09-27T09:41:03Z</time>
      </trkpt>
      <trkpt lat="45.93112" lon="4.61628">
        <ele>373</ele>
        <time>2016-09-27T09:41:05Z</time>
      </trkpt>
      <trkpt lat="45.93116" lon="4.61627">
        <ele>373</ele>
        <time>2016-09-27T09:41:06Z</time>
      </trkpt>
      <trkpt lat="45.93122" lon="4.61623">
        <ele>373</ele>
        <time>2016-09-27T09:41:08Z</time>
      </trkpt>
      <trkpt lat="45.93126" lon="4.61621">
        <ele>373</ele>
        <time>2016-09-27T09:41:09Z</time>
      </trkpt>
      <trkpt lat="45.93131" lon="4.61616">
        <ele>373</ele>
        <time>2016-09-27T09:41:11Z</time>
      </trkpt>
      <trkpt lat="45.93134" lon="4.61614">
        <ele>373</ele>
        <time>2016-09-27T09:41:12Z</time>
      </trkpt>
      <trkpt lat="45.93139" lon="4.6161">
        <ele>373</ele>
        <time>2016-09-27T09:41:14Z</time>
      </trkpt>
      <trkpt lat="45.93142" lon="4.61608">
        <ele>373</ele>
        <time>2016-09-27T09:41:15Z</time>
      </trkpt>
      <trkpt lat="45.9315" lon="4.61605">
        <ele>374</ele>
        <time>2016-09-27T09:41:18Z</time>
      </trkpt>
      <trkpt lat="45.93153" lon="4.61604">
        <ele>374</ele>
        <time>2016-09-27T09:41:19Z</time>
      </trkpt>
      <trkpt lat="45.93159" lon="4.61601">
        <ele>374</ele>
        <time>2016-09-27T09:41:21Z</time>
      </trkpt>
      <trkpt lat="45.93162" lon="4.61599">
        <ele>375</ele>
        <time>2016-09-27T09:41:22Z</time>
      </trkpt>
      <trkpt lat="45.93169" lon="4.61595">
        <ele>373</ele>
        <time>2016-09-27T09:41:25Z</time>
      </trkpt>
      <trkpt lat="45.93171" lon="4.61593">
        <ele>373</ele>
        <time>2016-09-27T09:41:26Z</time>
      </trkpt>
      <trkpt lat="45.93178" lon="4.61587">
        <ele>373</ele>
        <time>2016-09-27T09:41:29Z</time>
      </trkpt>
      <trkpt lat="45.9318" lon="4.61586">
        <ele>372</ele>
        <time>2016-09-27T09:41:30Z</time>
      </trkpt>
      <trkpt lat="45.93188" lon="4.61582">
        <ele>377</ele>
        <time>2016-09-27T09:41:33Z</time>
      </trkpt>
      <trkpt lat="45.93191" lon="4.61579">
        <ele>377</ele>
        <time>2016-09-27T09:41:34Z</time>
      </trkpt>
      <trkpt lat="45.93196" lon="4.61575">
        <ele>376</ele>
        <time>2016-09-27T09:41:36Z</time>
      </trkpt>
      <trkpt lat="45.93199" lon="4.61572">
        <ele>376</ele>
        <time>2016-09-27T09:41:37Z</time>
      </trkpt>
      <trkpt lat="45.93205" lon="4.61565">
        <ele>376</ele>
        <time>2016-09-27T09:41:40Z</time>
      </trkpt>
      <trkpt lat="45.93207" lon="4.61563">
        <ele>376</ele>
        <time>2016-09-27T09:41:41Z</time>
      </trkpt>
      <trkpt lat="45.93214" lon="4.61556">
        <ele>376</ele>
        <time>2016-09-27T09:41:44Z</time>
      </trkpt>
      <trkpt lat="45.93217" lon="4.61554">
        <ele>376</ele>
        <time>2016-09-27T09:41:45Z</time>
      </trkpt>
      <trkpt lat="45.93223" lon="4.61547">
        <ele>376</ele>
        <time>2016-09-27T09:41:48Z</time>
      </trkpt>
      <trkpt lat="45.93226" lon="4.61545">
        <ele>376</ele>
        <time>2016-09-27T09:41:49Z</time>
      </trkpt>
      <trkpt lat="45.93233" lon="4.61538">
        <ele>377</ele>
        <time>2016-09-27T09:41:52Z</time>
      </trkpt>
      <trkpt lat="45.93235" lon="4.61536">
        <ele>377</ele>
        <time>2016-09-27T09:41:53Z</time>
      </trkpt>
      <trkpt lat="45.9324" lon="4.6153">
        <ele>377</ele>
        <time>2016-09-27T09:41:55Z</time>
      </trkpt>
      <trkpt lat="45.93243" lon="4.61528">
        <ele>377</ele>
        <time>2016-09-27T09:41:56Z</time>
      </trkpt>
      <trkpt lat="45.93249" lon="4.6152">
        <ele>378</ele>
        <time>2016-09-27T09:41:59Z</time>
      </trkpt>
      <trkpt lat="45.93251" lon="4.61518">
        <ele>374</ele>
        <time>2016-09-27T09:42:00Z</time>
      </trkpt>
      <trkpt lat="45.93257" lon="4.61511">
        <ele>375</ele>
        <time>2016-09-27T09:42:03Z</time>
      </trkpt>
      <trkpt lat="45.93258" lon="4.61508">
        <ele>375</ele>
        <time>2016-09-27T09:42:04Z</time>
      </trkpt>
      <trkpt lat="45.93264" lon="4.615">
        <ele>375</ele>
        <time>2016-09-27T09:42:07Z</time>
      </trkpt>
      <trkpt lat="45.93265" lon="4.61498">
        <ele>379</ele>
        <time>2016-09-27T09:42:08Z</time>
      </trkpt>
      <trkpt lat="45.9327" lon="4.61488">
        <ele>379</ele>
        <time>2016-09-27T09:42:12Z</time>
      </trkpt>
      <trkpt lat="45.93272" lon="4.61485">
        <ele>379</ele>
        <time>2016-09-27T09:42:13Z</time>
      </trkpt>
      <trkpt lat="45.93277" lon="4.61475">
        <ele>379</ele>
        <time>2016-09-27T09:42:16Z</time>
      </trkpt>
      <trkpt lat="45.93279" lon="4.61471">
        <ele>379</ele>
        <time>2016-09-27T09:42:17Z</time>
      </trkpt>
      <trkpt lat="45.93285" lon="4.61462">
        <ele>379</ele>
        <time>2016-09-27T09:42:20Z</time>
      </trkpt>
      <trkpt lat="45.93287" lon="4.61459">
        <ele>379</ele>
        <time>2016-09-27T09:42:21Z</time>
      </trkpt>
      <trkpt lat="45.93291" lon="4.6145">
        <ele>380</ele>
        <time>2016-09-27T09:42:24Z</time>
      </trkpt>
      <trkpt lat="45.93293" lon="4.61447">
        <ele>380</ele>
        <time>2016-09-27T09:42:25Z</time>
      </trkpt>
      <trkpt lat="45.933" lon="4.6144">
        <ele>380</ele>
        <time>2016-09-27T09:42:28Z</time>
      </trkpt>
      <trkpt lat="45.93302" lon="4.61437">
        <ele>380</ele>
        <time>2016-09-27T09:42:29Z</time>
      </trkpt>
      <trkpt lat="45.93307" lon="4.61429">
        <ele>380</ele>
        <time>2016-09-27T09:42:32Z</time>
      </trkpt>
      <trkpt lat="45.93309" lon="4.61427">
        <ele>380</ele>
        <time>2016-09-27T09:42:33Z</time>
      </trkpt>
      <trkpt lat="45.93317" lon="4.6142">
        <ele>380</ele>
        <time>2016-09-27T09:42:36Z</time>
      </trkpt>
      <trkpt lat="45.93319" lon="4.61417">
        <ele>380</ele>
        <time>2016-09-27T09:42:37Z</time>
      </trkpt>
      <trkpt lat="45.93325" lon="4.61411">
        <ele>385</ele>
        <time>2016-09-27T09:42:39Z</time>
      </trkpt>
      <trkpt lat="45.93328" lon="4.61408">
        <ele>385</ele>
        <time>2016-09-27T09:42:40Z</time>
      </trkpt>
      <trkpt lat="45.93335" lon="4.61405">
        <ele>383</ele>
        <time>2016-09-27T09:42:42Z</time>
      </trkpt>
      <trkpt lat="45.93337" lon="4.61403">
        <ele>383</ele>
        <time>2016-09-27T09:42:43Z</time>
      </trkpt>
      <trkpt lat="45.93344" lon="4.61397">
        <ele>384</ele>
        <time>2016-09-27T09:42:46Z</time>
      </trkpt>
      <trkpt lat="45.93347" lon="4.61395">
        <ele>385</ele>
        <time>2016-09-27T09:42:47Z</time>
      </trkpt>
      <trkpt lat="45.93353" lon="4.6139">
        <ele>385</ele>
        <time>2016-09-27T09:42:50Z</time>
      </trkpt>
      <trkpt lat="45.93355" lon="4.61389">
        <ele>385</ele>
        <time>2016-09-27T09:42:51Z</time>
      </trkpt>
      <trkpt lat="45.93362" lon="4.61383">
        <ele>386</ele>
        <time>2016-09-27T09:42:54Z</time>
      </trkpt>
      <trkpt lat="45.93364" lon="4.61381">
        <ele>386</ele>
        <time>2016-09-27T09:42:55Z</time>
      </trkpt>
      <trkpt lat="45.93372" lon="4.61375">
        <ele>387</ele>
        <time>2016-09-27T09:42:59Z</time>
      </trkpt>
      <trkpt lat="45.93374" lon="4.61373">
        <ele>387</ele>
        <time>2016-09-27T09:43:00Z</time>
      </trkpt>
      <trkpt lat="45.93381" lon="4.61369">
        <ele>387</ele>
        <time>2016-09-27T09:43:03Z</time>
      </trkpt>
      <trkpt lat="45.93383" lon="4.61366">
        <ele>387</ele>
        <time>2016-09-27T09:43:04Z</time>
      </trkpt>
      <trkpt lat="45.9339" lon="4.61363">
        <ele>387</ele>
        <time>2016-09-27T09:43:07Z</time>
      </trkpt>
      <trkpt lat="45.93392" lon="4.61363">
        <ele>387</ele>
        <time>2016-09-27T09:43:08Z</time>
      </trkpt>
      <trkpt lat="45.934" lon="4.61361">
        <ele>387</ele>
        <time>2016-09-27T09:43:11Z</time>
      </trkpt>
      <trkpt lat="45.93403" lon="4.61361">
        <ele>388</ele>
        <time>2016-09-27T09:43:12Z</time>
      </trkpt>
      <trkpt lat="45.93409" lon="4.61358">
        <ele>388</ele>
        <time>2016-09-27T09:43:14Z</time>
      </trkpt>
      <trkpt lat="45.93411" lon="4.61356">
        <ele>388</ele>
        <time>2016-09-27T09:43:15Z</time>
      </trkpt>
      <trkpt lat="45.93419" lon="4.61352">
        <ele>386</ele>
        <time>2016-09-27T09:43:18Z</time>
      </trkpt>
      <trkpt lat="45.93422" lon="4.61351">
        <ele>386</ele>
        <time>2016-09-27T09:43:19Z</time>
      </trkpt>
      <trkpt lat="45.93429" lon="4.61349">
        <ele>386</ele>
        <time>2016-09-27T09:43:22Z</time>
      </trkpt>
      <trkpt lat="45.93431" lon="4.61348">
        <ele>386</ele>
        <time>2016-09-27T09:43:23Z</time>
      </trkpt>
      <trkpt lat="45.93438" lon="4.61345">
        <ele>386</ele>
        <time>2016-09-27T09:43:26Z</time>
      </trkpt>
      <trkpt lat="45.93441" lon="4.61343">
        <ele>385</ele>
        <time>2016-09-27T09:43:27Z</time>
      </trkpt>
      <trkpt lat="45.93448" lon="4.61338">
        <ele>385</ele>
        <time>2016-09-27T09:43:30Z</time>
      </trkpt>
      <trkpt lat="45.9345" lon="4.61337">
        <ele>385</ele>
        <time>2016-09-27T09:43:31Z</time>
      </trkpt>
      <trkpt lat="45.93458" lon="4.61333">
        <ele>393</ele>
        <time>2016-09-27T09:43:34Z</time>
      </trkpt>
      <trkpt lat="45.9346" lon="4.61331">
        <ele>392</ele>
        <time>2016-09-27T09:43:35Z</time>
      </trkpt>
      <trkpt lat="45.93467" lon="4.61325">
        <ele>392</ele>
        <time>2016-09-27T09:43:38Z</time>
      </trkpt>
      <trkpt lat="45.9347" lon="4.61323">
        <ele>392</ele>
        <time>2016-09-27T09:43:39Z</time>
      </trkpt>
      <trkpt lat="45.93475" lon="4.61317">
        <ele>392</ele>
        <time>2016-09-27T09:43:41Z</time>
      </trkpt>
      <trkpt lat="45.93477" lon="4.61315">
        <ele>392</ele>
        <time>2016-09-27T09:43:42Z</time>
      </trkpt>
      <trkpt lat="45.93483" lon="4.61307">
        <ele>392</ele>
        <time>2016-09-27T09:43:45Z</time>
      </trkpt>
      <trkpt lat="45.93485" lon="4.61305">
        <ele>392</ele>
        <time>2016-09-27T09:43:46Z</time>
      </trkpt>
      <trkpt lat="45.93491" lon="4.61296">
        <ele>393</ele>
        <time>2016-09-27T09:43:49Z</time>
      </trkpt>
      <trkpt lat="45.93494" lon="4.61294">
        <ele>393</ele>
        <time>2016-09-27T09:43:50Z</time>
      </trkpt>
      <trkpt lat="45.93501" lon="4.61286">
        <ele>390</ele>
        <time>2016-09-27T09:43:53Z</time>
      </trkpt>
      <trkpt lat="45.93503" lon="4.61283">
        <ele>390</ele>
        <time>2016-09-27T09:43:54Z</time>
      </trkpt>
      <trkpt lat="45.9351" lon="4.61277">
        <ele>391</ele>
        <time>2016-09-27T09:43:57Z</time>
      </trkpt>
      <trkpt lat="45.93512" lon="4.61274">
        <ele>391</ele>
        <time>2016-09-27T09:43:58Z</time>
      </trkpt>
      <trkpt lat="45.93516" lon="4.61264">
        <ele>392</ele>
        <time>2016-09-27T09:44:01Z</time>
      </trkpt>
      <trkpt lat="45.93518" lon="4.61261">
        <ele>392</ele>
        <time>2016-09-27T09:44:02Z</time>
      </trkpt>
      <trkpt lat="45.93524" lon="4.61254">
        <ele>392</ele>
        <time>2016-09-27T09:44:05Z</time>
      </trkpt>
      <trkpt lat="45.93526" lon="4.61251">
        <ele>392</ele>
        <time>2016-09-27T09:44:06Z</time>
      </trkpt>
      <trkpt lat="45.93533" lon="4.61244">
        <ele>397</ele>
        <time>2016-09-27T09:44:09Z</time>
      </trkpt>
      <trkpt lat="45.93535" lon="4.61241">
        <ele>397</ele>
        <time>2016-09-27T09:44:10Z</time>
      </trkpt>
      <trkpt lat="45.93539" lon="4.61234">
        <ele>397</ele>
        <time>2016-09-27T09:44:13Z</time>
      </trkpt>
      <trkpt lat="45.93541" lon="4.61231">
        <ele>397</ele>
        <time>2016-09-27T09:44:14Z</time>
      </trkpt>
      <trkpt lat="45.93548" lon="4.61223">
        <ele>397</ele>
        <time>2016-09-27T09:44:17Z</time>
      </trkpt>
      <trkpt lat="45.9355" lon="4.6122">
        <ele>397</ele>
        <time>2016-09-27T09:44:18Z</time>
      </trkpt>
      <trkpt lat="45.93556" lon="4.61212">
        <ele>397</ele>
        <time>2016-09-27T09:44:21Z</time>
      </trkpt>
      <trkpt lat="45.93559" lon="4.61209">
        <ele>397</ele>
        <time>2016-09-27T09:44:22Z</time>
      </trkpt>
      <trkpt lat="45.93565" lon="4.61202">
        <ele>397</ele>
        <time>2016-09-27T09:44:25Z</time>
      </trkpt>
      <trkpt lat="45.93567" lon="4.61199">
        <ele>397</ele>
        <time>2016-09-27T09:44:26Z</time>
      </trkpt>
      <trkpt lat="45.93573" lon="4.61192">
        <ele>397</ele>
        <time>2016-09-27T09:44:29Z</time>
      </trkpt>
      <trkpt lat="45.93575" lon="4.61189">
        <ele>397</ele>
        <time>2016-09-27T09:44:30Z</time>
      </trkpt>
      <trkpt lat="45.9358" lon="4.61181">
        <ele>397</ele>
        <time>2016-09-27T09:44:33Z</time>
      </trkpt>
      <trkpt lat="45.93582" lon="4.61178">
        <ele>397</ele>
        <time>2016-09-27T09:44:34Z</time>
      </trkpt>
      <trkpt lat="45.93587" lon="4.61168">
        <ele>396</ele>
        <time>2016-09-27T09:44:37Z</time>
      </trkpt>
      <trkpt lat="45.93589" lon="4.61165">
        <ele>397</ele>
        <time>2016-09-27T09:44:38Z</time>
      </trkpt>
      <trkpt lat="45.93593" lon="4.61157">
        <ele>398</ele>
        <time>2016-09-27T09:44:41Z</time>
      </trkpt>
      <trkpt lat="45.93596" lon="4.61156">
        <ele>398</ele>
        <time>2016-09-27T09:44:42Z</time>
      </trkpt>
      <trkpt lat="45.936" lon="4.61149">
        <ele>398</ele>
        <time>2016-09-27T09:44:44Z</time>
      </trkpt>
      <trkpt lat="45.93602" lon="4.61146">
        <ele>398</ele>
        <time>2016-09-27T09:44:45Z</time>
      </trkpt>
      <trkpt lat="45.93606" lon="4.61138">
        <ele>399</ele>
        <time>2016-09-27T09:44:47Z</time>
      </trkpt>
      <trkpt lat="45.93608" lon="4.61134">
        <ele>399</ele>
        <time>2016-09-27T09:44:48Z</time>
      </trkpt>
      <trkpt lat="45.93614" lon="4.61125">
        <ele>399</ele>
        <time>2016-09-27T09:44:51Z</time>
      </trkpt>
      <trkpt lat="45.93616" lon="4.61122">
        <ele>399</ele>
        <time>2016-09-27T09:44:52Z</time>
      </trkpt>
      <trkpt lat="45.93621" lon="4.61116">
        <ele>399</ele>
        <time>2016-09-27T09:44:54Z</time>
      </trkpt>
      <trkpt lat="45.93623" lon="4.61113">
        <ele>399</ele>
        <time>2016-09-27T09:44:55Z</time>
      </trkpt>
      <trkpt lat="45.93628" lon="4.61107">
        <ele>399</ele>
        <time>2016-09-27T09:44:57Z</time>
      </trkpt>
      <trkpt lat="45.9363" lon="4.61104">
        <ele>399</ele>
        <time>2016-09-27T09:44:58Z</time>
      </trkpt>
      <trkpt lat="45.93636" lon="4.61095">
        <ele>399</ele>
        <time>2016-09-27T09:45:01Z</time>
      </trkpt>
      <trkpt lat="45.93639" lon="4.61092">
        <ele>399</ele>
        <time>2016-09-27T09:45:02Z</time>
      </trkpt>
      <trkpt lat="45.93644" lon="4.61082">
        <ele>404</ele>
        <time>2016-09-27T09:45:05Z</time>
      </trkpt>
      <trkpt lat="45.93647" lon="4.61079">
        <ele>404</ele>
        <time>2016-09-27T09:45:06Z</time>
      </trkpt>
      <trkpt lat="45.93652" lon="4.61071">
        <ele>403</ele>
        <time>2016-09-27T09:45:09Z</time>
      </trkpt>
      <trkpt lat="45.93654" lon="4.61069">
        <ele>404</ele>
        <time>2016-09-27T09:45:10Z</time>
      </trkpt>
      <trkpt lat="45.93658" lon="4.61062">
        <ele>404</ele>
        <time>2016-09-27T09:45:12Z</time>
      </trkpt>
      <trkpt lat="45.9366" lon="4.61059">
        <ele>404</ele>
        <time>2016-09-27T09:45:13Z</time>
      </trkpt>
      <trkpt lat="45.93664" lon="4.61051">
        <ele>405</ele>
        <time>2016-09-27T09:45:15Z</time>
      </trkpt>
      <trkpt lat="45.93666" lon="4.61048">
        <ele>405</ele>
        <time>2016-09-27T09:45:16Z</time>
      </trkpt>
      <trkpt lat="45.93672" lon="4.6104">
        <ele>403</ele>
        <time>2016-09-27T09:45:19Z</time>
      </trkpt>
      <trkpt lat="45.93674" lon="4.61037">
        <ele>403</ele>
        <time>2016-09-27T09:45:20Z</time>
      </trkpt>
      <trkpt lat="45.9368" lon="4.6103">
        <ele>403</ele>
        <time>2016-09-27T09:45:23Z</time>
      </trkpt>
      <trkpt lat="45.93682" lon="4.61028">
        <ele>403</ele>
        <time>2016-09-27T09:45:24Z</time>
      </trkpt>
      <trkpt lat="45.93689" lon="4.6102">
        <ele>403</ele>
        <time>2016-09-27T09:45:27Z</time>
      </trkpt>
      <trkpt lat="45.93691" lon="4.61019">
        <ele>403</ele>
        <time>2016-09-27T09:45:28Z</time>
      </trkpt>
      <trkpt lat="45.93697" lon="4.61013">
        <ele>403</ele>
        <time>2016-09-27T09:45:31Z</time>
      </trkpt>
      <trkpt lat="45.93699" lon="4.6101">
        <ele>403</ele>
        <time>2016-09-27T09:45:32Z</time>
      </trkpt>
      <trkpt lat="45.93705" lon="4.61004">
        <ele>403</ele>
        <time>2016-09-27T09:45:35Z</time>
      </trkpt>
      <trkpt lat="45.93708" lon="4.61002">
        <ele>403</ele>
        <time>2016-09-27T09:45:36Z</time>
      </trkpt>
      <trkpt lat="45.93713" lon="4.60996">
        <ele>407</ele>
        <time>2016-09-27T09:45:38Z</time>
      </trkpt>
      <trkpt lat="45.93716" lon="4.60994">
        <ele>407</ele>
        <time>2016-09-27T09:45:39Z</time>
      </trkpt>
      <trkpt lat="45.93721" lon="4.60988">
        <ele>407</ele>
        <time>2016-09-27T09:45:41Z</time>
      </trkpt>
      <trkpt lat="45.93724" lon="4.60987">
        <ele>407</ele>
        <time>2016-09-27T09:45:42Z</time>
      </trkpt>
      <trkpt lat="45.9373" lon="4.60982">
        <ele>407</ele>
        <time>2016-09-27T09:45:44Z</time>
      </trkpt>
      <trkpt lat="45.93733" lon="4.60978">
        <ele>407</ele>
        <time>2016-09-27T09:45:45Z</time>
      </trkpt>
      <trkpt lat="45.93739" lon="4.6097">
        <ele>408</ele>
        <time>2016-09-27T09:45:48Z</time>
      </trkpt>
      <trkpt lat="45.93741" lon="4.60967">
        <ele>408</ele>
        <time>2016-09-27T09:45:49Z</time>
      </trkpt>
      <trkpt lat="45.93746" lon="4.60962">
        <ele>408</ele>
        <time>2016-09-27T09:45:51Z</time>
      </trkpt>
      <trkpt lat="45.93749" lon="4.6096">
        <ele>409</ele>
        <time>2016-09-27T09:45:52Z</time>
      </trkpt>
      <trkpt lat="45.93754" lon="4.60955">
        <ele>410</ele>
        <time>2016-09-27T09:45:54Z</time>
      </trkpt>
      <trkpt lat="45.93757" lon="4.60953">
        <ele>410</ele>
        <time>2016-09-27T09:45:55Z</time>
      </trkpt>
      <trkpt lat="45.93763" lon="4.60946">
        <ele>410</ele>
        <time>2016-09-27T09:45:57Z</time>
      </trkpt>
      <trkpt lat="45.93766" lon="4.60944">
        <ele>410</ele>
        <time>2016-09-27T09:45:58Z</time>
      </trkpt>
      <trkpt lat="45.93772" lon="4.60939">
        <ele>411</ele>
        <time>2016-09-27T09:46:00Z</time>
      </trkpt>
      <trkpt lat="45.93776" lon="4.60936">
        <ele>411</ele>
        <time>2016-09-27T09:46:01Z</time>
      </trkpt>
      <trkpt lat="45.93782" lon="4.60932">
        <ele>411</ele>
        <time>2016-09-27T09:46:03Z</time>
      </trkpt>
      <trkpt lat="45.93785" lon="4.6093">
        <ele>411</ele>
        <time>2016-09-27T09:46:04Z</time>
      </trkpt>
      <trkpt lat="45.93792" lon="4.60929">
        <ele>411</ele>
        <time>2016-09-27T09:46:06Z</time>
      </trkpt>
      <trkpt lat="45.93795" lon="4.6093">
        <ele>411</ele>
        <time>2016-09-27T09:46:07Z</time>
      </trkpt>
      <trkpt lat="45.93803" lon="4.6093">
        <ele>411</ele>
        <time>2016-09-27T09:46:09Z</time>
      </trkpt>
      <trkpt lat="45.93807" lon="4.60931">
        <ele>411</ele>
        <time>2016-09-27T09:46:10Z</time>
      </trkpt>
      <trkpt lat="45.93813" lon="4.60934">
        <ele>411</ele>
        <time>2016-09-27T09:46:12Z</time>
      </trkpt>
      <trkpt lat="45.93816" lon="4.60938">
        <ele>411</ele>
        <time>2016-09-27T09:46:13Z</time>
      </trkpt>
      <trkpt lat="45.93821" lon="4.60945">
        <ele>411</ele>
        <time>2016-09-27T09:46:15Z</time>
      </trkpt>
      <trkpt lat="45.93824" lon="4.60948">
        <ele>411</ele>
        <time>2016-09-27T09:46:16Z</time>
      </trkpt>
      <trkpt lat="45.93826" lon="4.60957">
        <ele>411</ele>
        <time>2016-09-27T09:46:18Z</time>
      </trkpt>
      <trkpt lat="45.93828" lon="4.60961">
        <ele>411</ele>
        <time>2016-09-27T09:46:19Z</time>
      </trkpt>
      <trkpt lat="45.93829" lon="4.60974">
        <ele>412</ele>
        <time>2016-09-27T09:46:22Z</time>
      </trkpt>
      <trkpt lat="45.93829" lon="4.60978">
        <ele>412</ele>
        <time>2016-09-27T09:46:23Z</time>
      </trkpt>
      <trkpt lat="45.93827" lon="4.60987">
        <ele>412</ele>
        <time>2016-09-27T09:46:25Z</time>
      </trkpt>
      <trkpt lat="45.93827" lon="4.60992">
        <ele>413</ele>
        <time>2016-09-27T09:46:26Z</time>
      </trkpt>
      <trkpt lat="45.93827" lon="4.60999">
        <ele>413</ele>
        <time>2016-09-27T09:46:28Z</time>
      </trkpt>
      <trkpt lat="45.93829" lon="4.61005">
        <ele>413</ele>
        <time>2016-09-27T09:46:29Z</time>
      </trkpt>
      <trkpt lat="45.9383" lon="4.61016">
        <ele>412</ele>
        <time>2016-09-27T09:46:32Z</time>
      </trkpt>
      <trkpt lat="45.9383" lon="4.61019">
        <ele>412</ele>
        <time>2016-09-27T09:46:33Z</time>
      </trkpt>
      <trkpt lat="45.93824" lon="4.61029">
        <ele>411</ele>
        <time>2016-09-27T09:46:36Z</time>
      </trkpt>
      <trkpt lat="45.93823" lon="4.61032">
        <ele>411</ele>
        <time>2016-09-27T09:46:37Z</time>
      </trkpt>
      <trkpt lat="45.9382" lon="4.61042">
        <ele>411</ele>
        <time>2016-09-27T09:46:40Z</time>
      </trkpt>
      <trkpt lat="45.93819" lon="4.61045">
        <ele>411</ele>
        <time>2016-09-27T09:46:41Z</time>
      </trkpt>
      <trkpt lat="45.93818" lon="4.61056">
        <ele>411</ele>
        <time>2016-09-27T09:46:44Z</time>
      </trkpt>
      <trkpt lat="45.93817" lon="4.61061">
        <ele>412</ele>
        <time>2016-09-27T09:46:45Z</time>
      </trkpt>
      <trkpt lat="45.93814" lon="4.61069">
        <ele>412</ele>
        <time>2016-09-27T09:46:48Z</time>
      </trkpt>
      <trkpt lat="45.93813" lon="4.61073">
        <ele>412</ele>
        <time>2016-09-27T09:46:49Z</time>
      </trkpt>
      <trkpt lat="45.9381" lon="4.61082">
        <ele>412</ele>
        <time>2016-09-27T09:46:52Z</time>
      </trkpt>
      <trkpt lat="45.93809" lon="4.61086">
        <ele>415</ele>
        <time>2016-09-27T09:46:53Z</time>
      </trkpt>
      <trkpt lat="45.93808" lon="4.61096">
        <ele>415</ele>
        <time>2016-09-27T09:46:56Z</time>
      </trkpt>
      <trkpt lat="45.93807" lon="4.61099">
        <ele>414</ele>
        <time>2016-09-27T09:46:57Z</time>
      </trkpt>
      <trkpt lat="45.93805" lon="4.61111">
        <ele>415</ele>
        <time>2016-09-27T09:47:01Z</time>
      </trkpt>
      <trkpt lat="45.93805" lon="4.61114">
        <ele>415</ele>
        <time>2016-09-27T09:47:02Z</time>
      </trkpt>
      <trkpt lat="45.93804" lon="4.61125">
        <ele>415</ele>
        <time>2016-09-27T09:47:05Z</time>
      </trkpt>
      <trkpt lat="45.93803" lon="4.61129">
        <ele>415</ele>
        <time>2016-09-27T09:47:06Z</time>
      </trkpt>
      <trkpt lat="45.938" lon="4.61139">
        <ele>416</ele>
        <time>2016-09-27T09:47:09Z</time>
      </trkpt>
      <trkpt lat="45.93799" lon="4.61143">
        <ele>416</ele>
        <time>2016-09-27T09:47:10Z</time>
      </trkpt>
      <trkpt lat="45.93796" lon="4.61154">
        <ele>416</ele>
        <time>2016-09-27T09:47:13Z</time>
      </trkpt>
      <trkpt lat="45.93794" lon="4.61157">
        <ele>416</ele>
        <time>2016-09-27T09:47:14Z</time>
      </trkpt>
      <trkpt lat="45.93791" lon="4.61166">
        <ele>415</ele>
        <time>2016-09-27T09:47:17Z</time>
      </trkpt>
      <trkpt lat="45.9379" lon="4.6117">
        <ele>421</ele>
        <time>2016-09-27T09:47:18Z</time>
      </trkpt>
      <trkpt lat="45.93787" lon="4.6118">
        <ele>420</ele>
        <time>2016-09-27T09:47:21Z</time>
      </trkpt>
      <trkpt lat="45.93786" lon="4.61182">
        <ele>420</ele>
        <time>2016-09-27T09:47:22Z</time>
      </trkpt>
      <trkpt lat="45.93782" lon="4.6119">
        <ele>420</ele>
        <time>2016-09-27T09:47:25Z</time>
      </trkpt>
      <trkpt lat="45.9378" lon="4.61193">
        <ele>420</ele>
        <time>2016-09-27T09:47:26Z</time>
      </trkpt>
      <trkpt lat="45.93776" lon="4.61201">
        <ele>420</ele>
        <time>2016-09-27T09:47:29Z</time>
      </trkpt>
      <trkpt lat="45.93775" lon="4.61203">
        <ele>420</ele>
        <time>2016-09-27T09:47:30Z</time>
      </trkpt>
      <trkpt lat="45.93768" lon="4.61212">
        <ele>420</ele>
        <time>2016-09-27T09:47:34Z</time>
      </trkpt>
      <trkpt lat="45.93767" lon="4.61215">
        <ele>420</ele>
        <time>2016-09-27T09:47:35Z</time>
      </trkpt>
      <trkpt lat="45.93762" lon="4.61223">
        <ele>420</ele>
        <time>2016-09-27T09:47:38Z</time>
      </trkpt>
      <trkpt lat="45.9376" lon="4.61225">
        <ele>420</ele>
        <time>2016-09-27T09:47:39Z</time>
      </trkpt>
      <trkpt lat="45.93756" lon="4.61233">
        <ele>420</ele>
        <time>2016-09-27T09:47:42Z</time>
      </trkpt>
      <trkpt lat="45.93754" lon="4.61235">
        <ele>420</ele>
        <time>2016-09-27T09:47:43Z</time>
      </trkpt>
      <trkpt lat="45.93748" lon="4.61243">
        <ele>414</ele>
        <time>2016-09-27T09:47:47Z</time>
      </trkpt>
      <trkpt lat="45.93747" lon="4.61246">
        <ele>415</ele>
        <time>2016-09-27T09:47:48Z</time>
      </trkpt>
      <trkpt lat="45.93746" lon="4.61258">
        <ele>415</ele>
        <time>2016-09-27T09:47:51Z</time>
      </trkpt>
      <trkpt lat="45.93746" lon="4.61262">
        <ele>415</ele>
        <time>2016-09-27T09:47:52Z</time>
      </trkpt>
      <trkpt lat="45.93746" lon="4.61273">
        <ele>413</ele>
        <time>2016-09-27T09:47:55Z</time>
      </trkpt>
      <trkpt lat="45.93745" lon="4.61277">
        <ele>413</ele>
        <time>2016-09-27T09:47:56Z</time>
      </trkpt>
      <trkpt lat="45.93749" lon="4.61287">
        <ele>413</ele>
        <time>2016-09-27T09:47:59Z</time>
      </trkpt>
      <trkpt lat="45.93751" lon="4.61291">
        <ele>425</ele>
        <time>2016-09-27T09:48:00Z</time>
      </trkpt>
      <trkpt lat="45.93759" lon="4.61298">
        <ele>425</ele>
        <time>2016-09-27T09:48:03Z</time>
      </trkpt>
      <trkpt lat="45.93761" lon="4.61301">
        <ele>425</ele>
        <time>2016-09-27T09:48:04Z</time>
      </trkpt>
      <trkpt lat="45.93767" lon="4.61308">
        <ele>425</ele>
        <time>2016-09-27T09:48:07Z</time>
      </trkpt>
      <trkpt lat="45.93769" lon="4.61311">
        <ele>426</ele>
        <time>2016-09-27T09:48:08Z</time>
      </trkpt>
      <trkpt lat="45.93774" lon="4.6132">
        <ele>426</ele>
        <time>2016-09-27T09:48:11Z</time>
      </trkpt>
      <trkpt lat="45.93776" lon="4.61322">
        <ele>426</ele>
        <time>2016-09-27T09:48:12Z</time>
      </trkpt>
      <trkpt lat="45.9378" lon="4.61331">
        <ele>426</ele>
        <time>2016-09-27T09:48:15Z</time>
      </trkpt>
      <trkpt lat="45.93781" lon="4.61335">
        <ele>427</ele>
        <time>2016-09-27T09:48:16Z</time>
      </trkpt>
      <trkpt lat="45.93786" lon="4.61343">
        <ele>427</ele>
        <time>2016-09-27T09:48:19Z</time>
      </trkpt>
      <trkpt lat="45.93789" lon="4.61346">
        <ele>428</ele>
        <time>2016-09-27T09:48:20Z</time>
      </trkpt>
      <trkpt lat="45.93796" lon="4.61353">
        <ele>428</ele>
        <time>2016-09-27T09:48:23Z</time>
      </trkpt>
      <trkpt lat="45.93798" lon="4.61356">
        <ele>428</ele>
        <time>2016-09-27T09:48:24Z</time>
      </trkpt>
      <trkpt lat="45.93804" lon="4.61365">
        <ele>429</ele>
        <time>2016-09-27T09:48:27Z</time>
      </trkpt>
      <trkpt lat="45.93805" lon="4.61368">
        <ele>429</ele>
        <time>2016-09-27T09:48:28Z</time>
      </trkpt>
      <trkpt lat="45.9381" lon="4.61377">
        <ele>429</ele>
        <time>2016-09-27T09:48:30Z</time>
      </trkpt>
      <trkpt lat="45.93814" lon="4.6138">
        <ele>429</ele>
        <time>2016-09-27T09:48:31Z</time>
      </trkpt>
      <trkpt lat="45.9382" lon="4.61389">
        <ele>430</ele>
        <time>2016-09-27T09:48:36Z</time>
      </trkpt>
      <trkpt lat="45.93821" lon="4.6139">
        <ele>430</ele>
        <time>2016-09-27T09:48:37Z</time>
      </trkpt>
      <trkpt lat="45.93823" lon="4.61401">
        <ele>431</ele>
        <time>2016-09-27T09:48:41Z</time>
      </trkpt>
      <trkpt lat="45.93822" lon="4.61411">
        <ele>431</ele>
        <time>2016-09-27T09:48:42Z</time>
      </trkpt>
      <trkpt lat="45.93824" lon="4.61421">
        <ele>432</ele>
        <time>2016-09-27T09:48:45Z</time>
      </trkpt>
      <trkpt lat="45.93825" lon="4.61424">
        <ele>432</ele>
        <time>2016-09-27T09:48:46Z</time>
      </trkpt>
      <trkpt lat="45.93827" lon="4.61436">
        <ele>431</ele>
        <time>2016-09-27T09:48:49Z</time>
      </trkpt>
      <trkpt lat="45.93828" lon="4.61446">
        <ele>430</ele>
        <time>2016-09-27T09:48:50Z</time>
      </trkpt>
      <trkpt lat="45.93827" lon="4.61455">
        <ele>430</ele>
        <time>2016-09-27T09:48:52Z</time>
      </trkpt>
      <trkpt lat="45.93828" lon="4.6146">
        <ele>430</ele>
        <time>2016-09-27T09:48:53Z</time>
      </trkpt>
      <trkpt lat="45.93828" lon="4.61472">
        <ele>431</ele>
        <time>2016-09-27T09:48:58Z</time>
      </trkpt>
      <trkpt lat="45.93827" lon="4.61474">
        <ele>431</ele>
        <time>2016-09-27T09:48:59Z</time>
      </trkpt>
      <trkpt lat="45.93834" lon="4.61479">
        <ele>438</ele>
        <time>2016-09-27T09:49:01Z</time>
      </trkpt>
      <trkpt lat="45.93836" lon="4.6148">
        <ele>438</ele>
        <time>2016-09-27T09:49:02Z</time>
      </trkpt>
      <trkpt lat="45.9384" lon="4.61489">
        <ele>437</ele>
        <time>2016-09-27T09:49:08Z</time>
      </trkpt>
      <trkpt lat="45.9384" lon="4.61493">
        <ele>437</ele>
        <time>2016-09-27T09:49:09Z</time>
      </trkpt>
      <trkpt lat="45.93841" lon="4.61505">
        <ele>437</ele>
        <time>2016-09-27T09:49:13Z</time>
      </trkpt>
      <trkpt lat="45.93841" lon="4.61508">
        <ele>437</ele>
        <time>2016-09-27T09:49:14Z</time>
      </trkpt>
      <trkpt lat="45.93841" lon="4.61519">
        <ele>439</ele>
        <time>2016-09-27T09:49:17Z</time>
      </trkpt>
      <trkpt lat="45.93842" lon="4.61522">
        <ele>439</ele>
        <time>2016-09-27T09:49:18Z</time>
      </trkpt>
      <trkpt lat="45.93842" lon="4.61532">
        <ele>439</ele>
        <time>2016-09-27T09:49:21Z</time>
      </trkpt>
      <trkpt lat="45.93841" lon="4.61535">
        <ele>440</ele>
        <time>2016-09-27T09:49:22Z</time>
      </trkpt>
      <trkpt lat="45.93843" lon="4.61545">
        <ele>440</ele>
        <time>2016-09-27T09:49:25Z</time>
      </trkpt>
      <trkpt lat="45.93843" lon="4.61549">
        <ele>440</ele>
        <time>2016-09-27T09:49:26Z</time>
      </trkpt>
      <trkpt lat="45.93846" lon="4.6156">
        <ele>440</ele>
        <time>2016-09-27T09:49:29Z</time>
      </trkpt>
      <trkpt lat="45.93847" lon="4.61564">
        <ele>439</ele>
        <time>2016-09-27T09:49:30Z</time>
      </trkpt>
      <trkpt lat="45.93849" lon="4.61576">
        <ele>439</ele>
        <time>2016-09-27T09:49:33Z</time>
      </trkpt>
      <trkpt lat="45.9385" lon="4.61581">
        <ele>439</ele>
        <time>2016-09-27T09:49:34Z</time>
      </trkpt>
      <trkpt lat="45.9385" lon="4.6159">
        <ele>440</ele>
        <time>2016-09-27T09:49:36Z</time>
      </trkpt>
      <trkpt lat="45.93851" lon="4.61594">
        <ele>440</ele>
        <time>2016-09-27T09:49:37Z</time>
      </trkpt>
      <trkpt lat="45.93852" lon="4.61605">
        <ele>441</ele>
        <time>2016-09-27T09:49:40Z</time>
      </trkpt>
      <trkpt lat="45.93853" lon="4.61608">
        <ele>441</ele>
        <time>2016-09-27T09:49:41Z</time>
      </trkpt>
      <trkpt lat="45.93855" lon="4.6162">
        <ele>441</ele>
        <time>2016-09-27T09:49:45Z</time>
      </trkpt>
      <trkpt lat="45.93856" lon="4.61623">
        <ele>442</ele>
        <time>2016-09-27T09:49:46Z</time>
      </trkpt>
      <trkpt lat="45.93861" lon="4.61632">
        <ele>442</ele>
        <time>2016-09-27T09:49:49Z</time>
      </trkpt>
      <trkpt lat="45.93859" lon="4.61635">
        <ele>442</ele>
        <time>2016-09-27T09:49:50Z</time>
      </trkpt>
      <trkpt lat="45.9386" lon="4.61644">
        <ele>442</ele>
        <time>2016-09-27T09:49:52Z</time>
      </trkpt>
      <trkpt lat="45.93861" lon="4.61645">
        <ele>442</ele>
        <time>2016-09-27T09:49:53Z</time>
      </trkpt>
      <trkpt lat="45.93863" lon="4.61644">
        <ele>442</ele>
        <time>2016-09-27T09:49:54Z</time>
      </trkpt>
      <trkpt lat="45.93865" lon="4.61644">
        <ele>442</ele>
        <time>2016-09-27T09:49:55Z</time>
      </trkpt>
      <trkpt lat="45.9387" lon="4.61637">
        <ele>443</ele>
        <time>2016-09-27T09:49:58Z</time>
      </trkpt>
      <trkpt lat="45.93872" lon="4.61635">
        <ele>443</ele>
        <time>2016-09-27T09:49:59Z</time>
      </trkpt>
      <trkpt lat="45.93877" lon="4.61628">
        <ele>443</ele>
        <time>2016-09-27T09:50:02Z</time>
      </trkpt>
      <trkpt lat="45.93879" lon="4.61626">
        <ele>443</ele>
        <time>2016-09-27T09:50:03Z</time>
      </trkpt>
      <trkpt lat="45.93884" lon="4.61619">
        <ele>444</ele>
        <time>2016-09-27T09:50:06Z</time>
      </trkpt>
      <trkpt lat="45.93886" lon="4.61617">
        <ele>444</ele>
        <time>2016-09-27T09:50:07Z</time>
      </trkpt>
      <trkpt lat="45.93892" lon="4.61612">
        <ele>444</ele>
        <time>2016-09-27T09:50:10Z</time>
      </trkpt>
      <trkpt lat="45.93895" lon="4.61609">
        <ele>444</ele>
        <time>2016-09-27T09:50:11Z</time>
      </trkpt>
      <trkpt lat="45.93903" lon="4.6161">
        <ele>445</ele>
        <time>2016-09-27T09:50:15Z</time>
      </trkpt>
      <trkpt lat="45.93905" lon="4.61604">
        <ele>445</ele>
        <time>2016-09-27T09:50:16Z</time>
      </trkpt>
      <trkpt lat="45.93913" lon="4.61604">
        <ele>446</ele>
        <time>2016-09-27T09:50:24Z</time>
      </trkpt>
      <trkpt lat="45.93914" lon="4.61606">
        <ele>446</ele>
        <time>2016-09-27T09:50:25Z</time>
      </trkpt>
      <trkpt lat="45.93922" lon="4.61605">
        <ele>452</ele>
        <time>2016-09-27T09:50:29Z</time>
      </trkpt>
      <trkpt lat="45.93924" lon="4.61604">
        <ele>452</ele>
        <time>2016-09-27T09:50:30Z</time>
      </trkpt>
      <trkpt lat="45.93928" lon="4.61595">
        <ele>451</ele>
        <time>2016-09-27T09:50:33Z</time>
      </trkpt>
      <trkpt lat="45.93929" lon="4.61591">
        <ele>451</ele>
        <time>2016-09-27T09:50:34Z</time>
      </trkpt>
      <trkpt lat="45.93936" lon="4.61584">
        <ele>452</ele>
        <time>2016-09-27T09:50:37Z</time>
      </trkpt>
      <trkpt lat="45.93938" lon="4.61582">
        <ele>451</ele>
        <time>2016-09-27T09:50:38Z</time>
      </trkpt>
      <trkpt lat="45.9394" lon="4.6157">
        <ele>452</ele>
        <time>2016-09-27T09:50:43Z</time>
      </trkpt>
      <trkpt lat="45.9394" lon="4.61568">
        <ele>452</ele>
        <time>2016-09-27T09:50:44Z</time>
      </trkpt>
      <trkpt lat="45.93944" lon="4.61559">
        <ele>452</ele>
        <time>2016-09-27T09:50:48Z</time>
      </trkpt>
      <trkpt lat="45.93945" lon="4.61556">
        <ele>452</ele>
        <time>2016-09-27T09:50:49Z</time>
      </trkpt>
      <trkpt lat="45.93948" lon="4.61547">
        <ele>452</ele>
        <time>2016-09-27T09:50:52Z</time>
      </trkpt>
      <trkpt lat="45.93949" lon="4.61542">
        <ele>452</ele>
        <time>2016-09-27T09:50:53Z</time>
      </trkpt>
      <trkpt lat="45.93953" lon="4.61531">
        <ele>453</ele>
        <time>2016-09-27T09:50:56Z</time>
      </trkpt>
      <trkpt lat="45.93955" lon="4.61528">
        <ele>453</ele>
        <time>2016-09-27T09:50:57Z</time>
      </trkpt>
      <trkpt lat="45.93959" lon="4.61517">
        <ele>453</ele>
        <time>2016-09-27T09:51:00Z</time>
      </trkpt>
      <trkpt lat="45.9396" lon="4.61514">
        <ele>453</ele>
        <time>2016-09-27T09:51:01Z</time>
      </trkpt>
      <trkpt lat="45.93963" lon="4.61504">
        <ele>453</ele>
        <time>2016-09-27T09:51:04Z</time>
      </trkpt>
      <trkpt lat="45.93964" lon="4.61501">
        <ele>453</ele>
        <time>2016-09-27T09:51:05Z</time>
      </trkpt>
      <trkpt lat="45.93967" lon="4.61492">
        <ele>453</ele>
        <time>2016-09-27T09:51:08Z</time>
      </trkpt>
      <trkpt lat="45.93967" lon="4.61488">
        <ele>453</ele>
        <time>2016-09-27T09:51:09Z</time>
      </trkpt>
      <trkpt lat="45.93971" lon="4.61479">
        <ele>453</ele>
        <time>2016-09-27T09:51:12Z</time>
      </trkpt>
      <trkpt lat="45.93972" lon="4.61477">
        <ele>453</ele>
        <time>2016-09-27T09:51:13Z</time>
      </trkpt>
      <trkpt lat="45.93978" lon="4.61467">
        <ele>453</ele>
        <time>2016-09-27T09:51:18Z</time>
      </trkpt>
      <trkpt lat="45.9398" lon="4.61465">
        <ele>453</ele>
        <time>2016-09-27T09:51:19Z</time>
      </trkpt>
      <trkpt lat="45.93986" lon="4.61459">
        <ele>454</ele>
        <time>2016-09-27T09:51:22Z</time>
      </trkpt>
      <trkpt lat="45.93987" lon="4.61455">
        <ele>454</ele>
        <time>2016-09-27T09:51:23Z</time>
      </trkpt>
      <trkpt lat="45.93989" lon="4.61443">
        <ele>454</ele>
        <time>2016-09-27T09:51:26Z</time>
      </trkpt>
      <trkpt lat="45.9399" lon="4.6144">
        <ele>454</ele>
        <time>2016-09-27T09:51:27Z</time>
      </trkpt>
      <trkpt lat="45.93993" lon="4.61431">
        <ele>455</ele>
        <time>2016-09-27T09:51:30Z</time>
      </trkpt>
      <trkpt lat="45.93994" lon="4.61428">
        <ele>455</ele>
        <time>2016-09-27T09:51:31Z</time>
      </trkpt>
      <trkpt lat="45.93997" lon="4.61418">
        <ele>456</ele>
        <time>2016-09-27T09:51:34Z</time>
      </trkpt>
      <trkpt lat="45.93997" lon="4.61415">
        <ele>456</ele>
        <time>2016-09-27T09:51:35Z</time>
      </trkpt>
      <trkpt lat="45.93999" lon="4.61404">
        <ele>455</ele>
        <time>2016-09-27T09:51:38Z</time>
      </trkpt>
      <trkpt lat="45.94" lon="4.61402">
        <ele>459</ele>
        <time>2016-09-27T09:51:39Z</time>
      </trkpt>
      <trkpt lat="45.94005" lon="4.61392">
        <ele>460</ele>
        <time>2016-09-27T09:51:42Z</time>
      </trkpt>
      <trkpt lat="45.94008" lon="4.6139">
        <ele>460</ele>
        <time>2016-09-27T09:51:43Z</time>
      </trkpt>
      <trkpt lat="45.94013" lon="4.61383">
        <ele>460</ele>
        <time>2016-09-27T09:51:46Z</time>
      </trkpt>
      <trkpt lat="45.94014" lon="4.61381">
        <ele>461</ele>
        <time>2016-09-27T09:51:47Z</time>
      </trkpt>
      <trkpt lat="45.94019" lon="4.61371">
        <ele>461</ele>
        <time>2016-09-27T09:51:51Z</time>
      </trkpt>
      <trkpt lat="45.94021" lon="4.61369">
        <ele>461</ele>
        <time>2016-09-27T09:51:52Z</time>
      </trkpt>
      <trkpt lat="45.94026" lon="4.61361">
        <ele>461</ele>
        <time>2016-09-27T09:51:55Z</time>
      </trkpt>
      <trkpt lat="45.94027" lon="4.61359">
        <ele>461</ele>
        <time>2016-09-27T09:51:56Z</time>
      </trkpt>
      <trkpt lat="45.94031" lon="4.61351">
        <ele>461</ele>
        <time>2016-09-27T09:51:59Z</time>
      </trkpt>
      <trkpt lat="45.94032" lon="4.61348">
        <ele>461</ele>
        <time>2016-09-27T09:52:00Z</time>
      </trkpt>
      <trkpt lat="45.94037" lon="4.6134">
        <ele>461</ele>
        <time>2016-09-27T09:52:03Z</time>
      </trkpt>
      <trkpt lat="45.94038" lon="4.61337">
        <ele>462</ele>
        <time>2016-09-27T09:52:04Z</time>
      </trkpt>
      <trkpt lat="45.9404" lon="4.61327">
        <ele>462</ele>
        <time>2016-09-27T09:52:07Z</time>
      </trkpt>
      <trkpt lat="45.94042" lon="4.61325">
        <ele>462</ele>
        <time>2016-09-27T09:52:08Z</time>
      </trkpt>
      <trkpt lat="45.94044" lon="4.61314">
        <ele>463</ele>
        <time>2016-09-27T09:52:11Z</time>
      </trkpt>
      <trkpt lat="45.94045" lon="4.6131">
        <ele>463</ele>
        <time>2016-09-27T09:52:12Z</time>
      </trkpt>
      <trkpt lat="45.94048" lon="4.61304">
        <ele>463</ele>
        <time>2016-09-27T09:52:13Z</time>
      </trkpt>
      <trkpt lat="45.9405" lon="4.61298">
        <ele>463</ele>
        <time>2016-09-27T09:52:14Z</time>
      </trkpt>
      <trkpt lat="45.94051" lon="4.61286">
        <ele>463</ele>
        <time>2016-09-27T09:52:18Z</time>
      </trkpt>
      <trkpt lat="45.94052" lon="4.61282">
        <ele>464</ele>
        <time>2016-09-27T09:52:19Z</time>
      </trkpt>
      <trkpt lat="45.94053" lon="4.61272">
        <ele>464</ele>
        <time>2016-09-27T09:52:22Z</time>
      </trkpt>
      <trkpt lat="45.94055" lon="4.61269">
        <ele>464</ele>
        <time>2016-09-27T09:52:23Z</time>
      </trkpt>
      <trkpt lat="45.94055" lon="4.61257">
        <ele>464</ele>
        <time>2016-09-27T09:52:27Z</time>
      </trkpt>
      <trkpt lat="45.94054" lon="4.61253">
        <ele>464</ele>
        <time>2016-09-27T09:52:28Z</time>
      </trkpt>
      <trkpt lat="45.94053" lon="4.61244">
        <ele>466</ele>
        <time>2016-09-27T09:52:31Z</time>
      </trkpt>
      <trkpt lat="45.94052" lon="4.61241">
        <ele>466</ele>
        <time>2016-09-27T09:52:32Z</time>
      </trkpt>
      <trkpt lat="45.94051" lon="4.61228">
        <ele>465</ele>
        <time>2016-09-27T09:52:36Z</time>
      </trkpt>
      <trkpt lat="45.9405" lon="4.61225">
        <ele>465</ele>
        <time>2016-09-27T09:52:37Z</time>
      </trkpt>
      <trkpt lat="45.9405" lon="4.61215">
        <ele>465</ele>
        <time>2016-09-27T09:52:40Z</time>
      </trkpt>
      <trkpt lat="45.94049" lon="4.61212">
        <ele>465</ele>
        <time>2016-09-27T09:52:41Z</time>
      </trkpt>
      <trkpt lat="45.94048" lon="4.61201">
        <ele>465</ele>
        <time>2016-09-27T09:52:45Z</time>
      </trkpt>
      <trkpt lat="45.94047" lon="4.61198">
        <ele>466</ele>
        <time>2016-09-27T09:52:46Z</time>
      </trkpt>
      <trkpt lat="45.94047" lon="4.61188">
        <ele>466</ele>
        <time>2016-09-27T09:52:49Z</time>
      </trkpt>
      <trkpt lat="45.94046" lon="4.61184">
        <ele>466</ele>
        <time>2016-09-27T09:52:50Z</time>
      </trkpt>
      <trkpt lat="45.94044" lon="4.61174">
        <ele>466</ele>
        <time>2016-09-27T09:52:53Z</time>
      </trkpt>
      <trkpt lat="45.94045" lon="4.61171">
        <ele>466</ele>
        <time>2016-09-27T09:52:54Z</time>
      </trkpt>
      <trkpt lat="45.94042" lon="4.61161">
        <ele>467</ele>
        <time>2016-09-27T09:52:57Z</time>
      </trkpt>
      <trkpt lat="45.94041" lon="4.61158">
        <ele>467</ele>
        <time>2016-09-27T09:52:58Z</time>
      </trkpt>
      <trkpt lat="45.94039" lon="4.61149">
        <ele>467</ele>
        <time>2016-09-27T09:53:01Z</time>
      </trkpt>
      <trkpt lat="45.94039" lon="4.61145">
        <ele>467</ele>
        <time>2016-09-27T09:53:02Z</time>
      </trkpt>
      <trkpt lat="45.94038" lon="4.61135">
        <ele>467</ele>
        <time>2016-09-27T09:53:05Z</time>
      </trkpt>
      <trkpt lat="45.94037" lon="4.61132">
        <ele>467</ele>
        <time>2016-09-27T09:53:06Z</time>
      </trkpt>
      <trkpt lat="45.94034" lon="4.6112">
        <ele>467</ele>
        <time>2016-09-27T09:53:10Z</time>
      </trkpt>
      <trkpt lat="45.94033" lon="4.61118">
        <ele>467</ele>
        <time>2016-09-27T09:53:11Z</time>
      </trkpt>
      <trkpt lat="45.94031" lon="4.61107">
        <ele>467</ele>
        <time>2016-09-27T09:53:15Z</time>
      </trkpt>
      <trkpt lat="45.94031" lon="4.61104">
        <ele>467</ele>
        <time>2016-09-27T09:53:16Z</time>
      </trkpt>
      <trkpt lat="45.9403" lon="4.61093">
        <ele>467</ele>
        <time>2016-09-27T09:53:19Z</time>
      </trkpt>
      <trkpt lat="45.9403" lon="4.61089">
        <ele>467</ele>
        <time>2016-09-27T09:53:20Z</time>
      </trkpt>
      <trkpt lat="45.94031" lon="4.61078">
        <ele>468</ele>
        <time>2016-09-27T09:53:23Z</time>
      </trkpt>
      <trkpt lat="45.9403" lon="4.61074">
        <ele>468</ele>
        <time>2016-09-27T09:53:24Z</time>
      </trkpt>
      <trkpt lat="45.94033" lon="4.61062">
        <ele>468</ele>
        <time>2016-09-27T09:53:28Z</time>
      </trkpt>
      <trkpt lat="45.94034" lon="4.6106">
        <ele>468</ele>
        <time>2016-09-27T09:53:29Z</time>
      </trkpt>
      <trkpt lat="45.94039" lon="4.61051">
        <ele>468</ele>
        <time>2016-09-27T09:53:34Z</time>
      </trkpt>
      <trkpt lat="45.9404" lon="4.61048">
        <ele>468</ele>
        <time>2016-09-27T09:53:35Z</time>
      </trkpt>
      <trkpt lat="45.94044" lon="4.6104">
        <ele>469</ele>
        <time>2016-09-27T09:53:38Z</time>
      </trkpt>
      <trkpt lat="45.94045" lon="4.61036">
        <ele>469</ele>
        <time>2016-09-27T09:53:39Z</time>
      </trkpt>
      <trkpt lat="45.94051" lon="4.61031">
        <ele>469</ele>
        <time>2016-09-27T09:53:42Z</time>
      </trkpt>
      <trkpt lat="45.94053" lon="4.61028">
        <ele>470</ele>
        <time>2016-09-27T09:53:43Z</time>
      </trkpt>
      <trkpt lat="45.94058" lon="4.6102">
        <ele>470</ele>
        <time>2016-09-27T09:53:46Z</time>
      </trkpt>
      <trkpt lat="45.94059" lon="4.61019">
        <ele>470</ele>
        <time>2016-09-27T09:53:47Z</time>
      </trkpt>
      <trkpt lat="45.94065" lon="4.61012">
        <ele>472</ele>
        <time>2016-09-27T09:53:51Z</time>
      </trkpt>
      <trkpt lat="45.94066" lon="4.6101">
        <ele>472</ele>
        <time>2016-09-27T09:53:52Z</time>
      </trkpt>
      <trkpt lat="45.94072" lon="4.61003">
        <ele>474</ele>
        <time>2016-09-27T09:53:55Z</time>
      </trkpt>
      <trkpt lat="45.94074" lon="4.61001">
        <ele>474</ele>
        <time>2016-09-27T09:53:56Z</time>
      </trkpt>
      <trkpt lat="45.94079" lon="4.60994">
        <ele>474</ele>
        <time>2016-09-27T09:53:59Z</time>
      </trkpt>
      <trkpt lat="45.94081" lon="4.60991">
        <ele>473</ele>
        <time>2016-09-27T09:54:00Z</time>
      </trkpt>
      <trkpt lat="45.94085" lon="4.60983">
        <ele>479</ele>
        <time>2016-09-27T09:54:03Z</time>
      </trkpt>
      <trkpt lat="45.94086" lon="4.6098">
        <ele>479</ele>
        <time>2016-09-27T09:54:04Z</time>
      </trkpt>
      <trkpt lat="45.9409" lon="4.60973">
        <ele>479</ele>
        <time>2016-09-27T09:54:07Z</time>
      </trkpt>
      <trkpt lat="45.94094" lon="4.6097">
        <ele>479</ele>
        <time>2016-09-27T09:54:08Z</time>
      </trkpt>
      <trkpt lat="45.94102" lon="4.60971">
        <ele>480</ele>
        <time>2016-09-27T09:54:11Z</time>
      </trkpt>
      <trkpt lat="45.94105" lon="4.60973">
        <ele>480</ele>
        <time>2016-09-27T09:54:12Z</time>
      </trkpt>
      <trkpt lat="45.94102" lon="4.60963">
        <ele>479</ele>
        <time>2016-09-27T09:54:13Z</time>
      </trkpt>
      <trkpt lat="45.94101" lon="4.60959">
        <ele>479</ele>
        <time>2016-09-27T09:54:14Z</time>
      </trkpt>
      <trkpt lat="45.94106" lon="4.60948">
        <ele>479</ele>
        <time>2016-09-27T09:54:18Z</time>
      </trkpt>
      <trkpt lat="45.94107" lon="4.60947">
        <ele>479</ele>
        <time>2016-09-27T09:54:19Z</time>
      </trkpt>
      <trkpt lat="45.94112" lon="4.60937">
        <ele>479</ele>
        <time>2016-09-27T09:54:24Z</time>
      </trkpt>
      <trkpt lat="45.94113" lon="4.60934">
        <ele>479</ele>
        <time>2016-09-27T09:54:25Z</time>
      </trkpt>
      <trkpt lat="45.94118" lon="4.60925">
        <ele>480</ele>
        <time>2016-09-27T09:54:29Z</time>
      </trkpt>
      <trkpt lat="45.9412" lon="4.60923">
        <ele>480</ele>
        <time>2016-09-27T09:54:30Z</time>
      </trkpt>
      <trkpt lat="45.94125" lon="4.60915">
        <ele>478</ele>
        <time>2016-09-27T09:54:33Z</time>
      </trkpt>
      <trkpt lat="45.94126" lon="4.60912">
        <ele>478</ele>
        <time>2016-09-27T09:54:34Z</time>
      </trkpt>
      <trkpt lat="45.94132" lon="4.60905">
        <ele>479</ele>
        <time>2016-09-27T09:54:37Z</time>
      </trkpt>
      <trkpt lat="45.94134" lon="4.60902">
        <ele>479</ele>
        <time>2016-09-27T09:54:38Z</time>
      </trkpt>
      <trkpt lat="45.94139" lon="4.60896">
        <ele>479</ele>
        <time>2016-09-27T09:54:41Z</time>
      </trkpt>
      <trkpt lat="45.94141" lon="4.60894">
        <ele>479</ele>
        <time>2016-09-27T09:54:42Z</time>
      </trkpt>
      <trkpt lat="45.94148" lon="4.60888">
        <ele>480</ele>
        <time>2016-09-27T09:54:45Z</time>
      </trkpt>
      <trkpt lat="45.9415" lon="4.60885">
        <ele>480</ele>
        <time>2016-09-27T09:54:46Z</time>
      </trkpt>
      <trkpt lat="45.94158" lon="4.6088">
        <ele>480</ele>
        <time>2016-09-27T09:54:51Z</time>
      </trkpt>
      <trkpt lat="45.9416" lon="4.60879">
        <ele>480</ele>
        <time>2016-09-27T09:54:52Z</time>
      </trkpt>
      <trkpt lat="45.94165" lon="4.60873">
        <ele>480</ele>
        <time>2016-09-27T09:54:55Z</time>
      </trkpt>
      <trkpt lat="45.94167" lon="4.6087">
        <ele>489</ele>
        <time>2016-09-27T09:54:56Z</time>
      </trkpt>
      <trkpt lat="45.94173" lon="4.60863">
        <ele>488</ele>
        <time>2016-09-27T09:54:59Z</time>
      </trkpt>
      <trkpt lat="45.94175" lon="4.60859">
        <ele>488</ele>
        <time>2016-09-27T09:55:00Z</time>
      </trkpt>
      <trkpt lat="45.9418" lon="4.60852">
        <ele>488</ele>
        <time>2016-09-27T09:55:03Z</time>
      </trkpt>
      <trkpt lat="45.94181" lon="4.60852">
        <ele>488</ele>
        <time>2016-09-27T09:55:04Z</time>
      </trkpt>
      <trkpt lat="45.94183" lon="4.60851">
        <ele>488</ele>
        <time>2016-09-27T09:55:05Z</time>
      </trkpt>
      <trkpt lat="45.94188" lon="4.60844">
        <ele>488</ele>
        <time>2016-09-27T09:55:08Z</time>
      </trkpt>
      <trkpt lat="45.94191" lon="4.60842">
        <ele>488</ele>
        <time>2016-09-27T09:55:09Z</time>
      </trkpt>
      <trkpt lat="45.94197" lon="4.60835">
        <ele>489</ele>
        <time>2016-09-27T09:55:12Z</time>
      </trkpt>
      <trkpt lat="45.94199" lon="4.60833">
        <ele>486</ele>
        <time>2016-09-27T09:55:13Z</time>
      </trkpt>
      <trkpt lat="45.94204" lon="4.60826">
        <ele>487</ele>
        <time>2016-09-27T09:55:16Z</time>
      </trkpt>
      <trkpt lat="45.94206" lon="4.60824">
        <ele>487</ele>
        <time>2016-09-27T09:55:17Z</time>
      </trkpt>
      <trkpt lat="45.94212" lon="4.60818">
        <ele>488</ele>
        <time>2016-09-27T09:55:20Z</time>
      </trkpt>
      <trkpt lat="45.94213" lon="4.60815">
        <ele>488</ele>
        <time>2016-09-27T09:55:21Z</time>
      </trkpt>
      <trkpt lat="45.94218" lon="4.60809">
        <ele>488</ele>
        <time>2016-09-27T09:55:24Z</time>
      </trkpt>
      <trkpt lat="45.9422" lon="4.60806">
        <ele>488</ele>
        <time>2016-09-27T09:55:25Z</time>
      </trkpt>
      <trkpt lat="45.94226" lon="4.60801">
        <ele>488</ele>
        <time>2016-09-27T09:55:28Z</time>
      </trkpt>
      <trkpt lat="45.94229" lon="4.60798">
        <ele>488</ele>
        <time>2016-09-27T09:55:29Z</time>
      </trkpt>
      <trkpt lat="45.94234" lon="4.60792">
        <ele>489</ele>
        <time>2016-09-27T09:55:32Z</time>
      </trkpt>
      <trkpt lat="45.94236" lon="4.60791">
        <ele>489</ele>
        <time>2016-09-27T09:55:33Z</time>
      </trkpt>
      <trkpt lat="45.94242" lon="4.60784">
        <ele>489</ele>
        <time>2016-09-27T09:55:37Z</time>
      </trkpt>
      <trkpt lat="45.94245" lon="4.60782">
        <ele>489</ele>
        <time>2016-09-27T09:55:38Z</time>
      </trkpt>
      <trkpt lat="45.94252" lon="4.60777">
        <ele>497</ele>
        <time>2016-09-27T09:55:41Z</time>
      </trkpt>
      <trkpt lat="45.94254" lon="4.60775">
        <ele>497</ele>
        <time>2016-09-27T09:55:42Z</time>
      </trkpt>
      <trkpt lat="45.9426" lon="4.60769">
        <ele>497</ele>
        <time>2016-09-27T09:55:45Z</time>
      </trkpt>
      <trkpt lat="45.94262" lon="4.60766">
        <ele>497</ele>
        <time>2016-09-27T09:55:46Z</time>
      </trkpt>
      <trkpt lat="45.94268" lon="4.60758">
        <ele>497</ele>
        <time>2016-09-27T09:55:49Z</time>
      </trkpt>
      <trkpt lat="45.9427" lon="4.60756">
        <ele>497</ele>
        <time>2016-09-27T09:55:50Z</time>
      </trkpt>
      <trkpt lat="45.94275" lon="4.6075">
        <ele>494</ele>
        <time>2016-09-27T09:55:53Z</time>
      </trkpt>
      <trkpt lat="45.94277" lon="4.60748">
        <ele>494</ele>
        <time>2016-09-27T09:55:54Z</time>
      </trkpt>
      <trkpt lat="45.94281" lon="4.6074">
        <ele>494</ele>
        <time>2016-09-27T09:55:57Z</time>
      </trkpt>
      <trkpt lat="45.94283" lon="4.60737">
        <ele>494</ele>
        <time>2016-09-27T09:55:58Z</time>
      </trkpt>
      <trkpt lat="45.94288" lon="4.60729">
        <ele>494</ele>
        <time>2016-09-27T09:56:01Z</time>
      </trkpt>
      <trkpt lat="45.94289" lon="4.60727">
        <ele>494</ele>
        <time>2016-09-27T09:56:02Z</time>
      </trkpt>
      <trkpt lat="45.94295" lon="4.60718">
        <ele>495</ele>
        <time>2016-09-27T09:56:06Z</time>
      </trkpt>
      <trkpt lat="45.94297" lon="4.60715">
        <ele>495</ele>
        <time>2016-09-27T09:56:07Z</time>
      </trkpt>
      <trkpt lat="45.94303" lon="4.60707">
        <ele>495</ele>
        <time>2016-09-27T09:56:10Z</time>
      </trkpt>
      <trkpt lat="45.94305" lon="4.60704">
        <ele>495</ele>
        <time>2016-09-27T09:56:11Z</time>
      </trkpt>
      <trkpt lat="45.94311" lon="4.60697">
        <ele>495</ele>
        <time>2016-09-27T09:56:14Z</time>
      </trkpt>
      <trkpt lat="45.94312" lon="4.60695">
        <ele>495</ele>
        <time>2016-09-27T09:56:15Z</time>
      </trkpt>
      <trkpt lat="45.94318" lon="4.60689">
        <ele>496</ele>
        <time>2016-09-27T09:56:18Z</time>
      </trkpt>
      <trkpt lat="45.9432" lon="4.60687">
        <ele>496</ele>
        <time>2016-09-27T09:56:19Z</time>
      </trkpt>
      <trkpt lat="45.94326" lon="4.60681">
        <ele>497</ele>
        <time>2016-09-27T09:56:22Z</time>
      </trkpt>
      <trkpt lat="45.94328" lon="4.60679">
        <ele>497</ele>
        <time>2016-09-27T09:56:23Z</time>
      </trkpt>
      <trkpt lat="45.94334" lon="4.60672">
        <ele>500</ele>
        <time>2016-09-27T09:56:26Z</time>
      </trkpt>
      <trkpt lat="45.94336" lon="4.60668">
        <ele>500</ele>
        <time>2016-09-27T09:56:27Z</time>
      </trkpt>
      <trkpt lat="45.94343" lon="4.6066">
        <ele>499</ele>
        <time>2016-09-27T09:56:30Z</time>
      </trkpt>
      <trkpt lat="45.94346" lon="4.60657">
        <ele>499</ele>
        <time>2016-09-27T09:56:31Z</time>
      </trkpt>
      <trkpt lat="45.9435" lon="4.60651">
        <ele>498</ele>
        <time>2016-09-27T09:56:33Z</time>
      </trkpt>
      <trkpt lat="45.94353" lon="4.60649">
        <ele>498</ele>
        <time>2016-09-27T09:56:34Z</time>
      </trkpt>
      <trkpt lat="45.94359" lon="4.60642">
        <ele>498</ele>
        <time>2016-09-27T09:56:37Z</time>
      </trkpt>
      <trkpt lat="45.94362" lon="4.6064">
        <ele>498</ele>
        <time>2016-09-27T09:56:38Z</time>
      </trkpt>
      <trkpt lat="45.94369" lon="4.60634">
        <ele>498</ele>
        <time>2016-09-27T09:56:41Z</time>
      </trkpt>
      <trkpt lat="45.94371" lon="4.60633">
        <ele>498</ele>
        <time>2016-09-27T09:56:42Z</time>
      </trkpt>
      <trkpt lat="45.94377" lon="4.60627">
        <ele>499</ele>
        <time>2016-09-27T09:56:45Z</time>
      </trkpt>
      <trkpt lat="45.9438" lon="4.60625">
        <ele>499</ele>
        <time>2016-09-27T09:56:46Z</time>
      </trkpt>
      <trkpt lat="45.94386" lon="4.60619">
        <ele>499</ele>
        <time>2016-09-27T09:56:49Z</time>
      </trkpt>
      <trkpt lat="45.94387" lon="4.60617">
        <ele>499</ele>
        <time>2016-09-27T09:56:50Z</time>
      </trkpt>
      <trkpt lat="45.94392" lon="4.6061">
        <ele>499</ele>
        <time>2016-09-27T09:56:53Z</time>
      </trkpt>
      <trkpt lat="45.94395" lon="4.60609">
        <ele>499</ele>
        <time>2016-09-27T09:56:54Z</time>
      </trkpt>
      <trkpt lat="45.944" lon="4.60604">
        <ele>499</ele>
        <time>2016-09-27T09:56:56Z</time>
      </trkpt>
      <trkpt lat="45.94403" lon="4.60602">
        <ele>499</ele>
        <time>2016-09-27T09:56:57Z</time>
      </trkpt>
      <trkpt lat="45.94408" lon="4.60598">
        <ele>500</ele>
        <time>2016-09-27T09:56:59Z</time>
      </trkpt>
      <trkpt lat="45.94411" lon="4.60596">
        <ele>500</ele>
        <time>2016-09-27T09:57:00Z</time>
      </trkpt>
      <trkpt lat="45.94417" lon="4.60591">
        <ele>504</ele>
        <time>2016-09-27T09:57:03Z</time>
      </trkpt>
      <trkpt lat="45.9442" lon="4.60589">
        <ele>503</ele>
        <time>2016-09-27T09:57:04Z</time>
      </trkpt>
      <trkpt lat="45.94426" lon="4.60584">
        <ele>504</ele>
        <time>2016-09-27T09:57:07Z</time>
      </trkpt>
      <trkpt lat="45.94428" lon="4.60581">
        <ele>501</ele>
        <time>2016-09-27T09:57:08Z</time>
      </trkpt>
      <trkpt lat="45.94435" lon="4.60574">
        <ele>502</ele>
        <time>2016-09-27T09:57:11Z</time>
      </trkpt>
      <trkpt lat="45.94436" lon="4.60573">
        <ele>502</ele>
        <time>2016-09-27T09:57:12Z</time>
      </trkpt>
      <trkpt lat="45.94442" lon="4.60568">
        <ele>502</ele>
        <time>2016-09-27T09:57:15Z</time>
      </trkpt>
      <trkpt lat="45.94444" lon="4.60566">
        <ele>502</ele>
        <time>2016-09-27T09:57:16Z</time>
      </trkpt>
      <trkpt lat="45.94451" lon="4.6056">
        <ele>503</ele>
        <time>2016-09-27T09:57:19Z</time>
      </trkpt>
      <trkpt lat="45.94453" lon="4.60557">
        <ele>503</ele>
        <time>2016-09-27T09:57:20Z</time>
      </trkpt>
      <trkpt lat="45.94459" lon="4.60552">
        <ele>503</ele>
        <time>2016-09-27T09:57:22Z</time>
      </trkpt>
      <trkpt lat="45.94462" lon="4.6055">
        <ele>503</ele>
        <time>2016-09-27T09:57:23Z</time>
      </trkpt>
      <trkpt lat="45.94469" lon="4.60544">
        <ele>503</ele>
        <time>2016-09-27T09:57:26Z</time>
      </trkpt>
      <trkpt lat="45.94471" lon="4.60542">
        <ele>503</ele>
        <time>2016-09-27T09:57:27Z</time>
      </trkpt>
      <trkpt lat="45.94477" lon="4.60536">
        <ele>503</ele>
        <time>2016-09-27T09:57:30Z</time>
      </trkpt>
      <trkpt lat="45.9448" lon="4.60535">
        <ele>504</ele>
        <time>2016-09-27T09:57:31Z</time>
      </trkpt>
      <trkpt lat="45.94487" lon="4.6053">
        <ele>504</ele>
        <time>2016-09-27T09:57:34Z</time>
      </trkpt>
      <trkpt lat="45.94489" lon="4.60527">
        <ele>504</ele>
        <time>2016-09-27T09:57:35Z</time>
      </trkpt>
      <trkpt lat="45.94496" lon="4.60521">
        <ele>504</ele>
        <time>2016-09-27T09:57:38Z</time>
      </trkpt>
      <trkpt lat="45.94497" lon="4.60519">
        <ele>504</ele>
        <time>2016-09-27T09:57:39Z</time>
      </trkpt>
      <trkpt lat="45.94503" lon="4.60513">
        <ele>510</ele>
        <time>2016-09-27T09:57:42Z</time>
      </trkpt>
      <trkpt lat="45.94505" lon="4.60511">
        <ele>510</ele>
        <time>2016-09-27T09:57:43Z</time>
      </trkpt>
      <trkpt lat="45.94513" lon="4.60505">
        <ele>510</ele>
        <time>2016-09-27T09:57:46Z</time>
      </trkpt>
      <trkpt lat="45.94515" lon="4.60503">
        <ele>511</ele>
        <time>2016-09-27T09:57:47Z</time>
      </trkpt>
      <trkpt lat="45.94523" lon="4.60496">
        <ele>507</ele>
        <time>2016-09-27T09:57:50Z</time>
      </trkpt>
      <trkpt lat="45.94525" lon="4.60494">
        <ele>507</ele>
        <time>2016-09-27T09:57:51Z</time>
      </trkpt>
      <trkpt lat="45.94532" lon="4.60489">
        <ele>508</ele>
        <time>2016-09-27T09:57:54Z</time>
      </trkpt>
      <trkpt lat="45.94535" lon="4.60486">
        <ele>508</ele>
        <time>2016-09-27T09:57:55Z</time>
      </trkpt>
      <trkpt lat="45.94541" lon="4.60481">
        <ele>508</ele>
        <time>2016-09-27T09:57:57Z</time>
      </trkpt>
      <trkpt lat="45.94544" lon="4.60479">
        <ele>508</ele>
        <time>2016-09-27T09:57:58Z</time>
      </trkpt>
      <trkpt lat="45.9455" lon="4.60475">
        <ele>509</ele>
        <time>2016-09-27T09:58:00Z</time>
      </trkpt>
      <trkpt lat="45.94552" lon="4.60473">
        <ele>509</ele>
        <time>2016-09-27T09:58:01Z</time>
      </trkpt>
      <trkpt lat="45.94558" lon="4.60468">
        <ele>509</ele>
        <time>2016-09-27T09:58:03Z</time>
      </trkpt>
      <trkpt lat="45.94561" lon="4.60465">
        <ele>509</ele>
        <time>2016-09-27T09:58:04Z</time>
      </trkpt>
      <trkpt lat="45.94567" lon="4.60463">
        <ele>509</ele>
        <time>2016-09-27T09:58:06Z</time>
      </trkpt>
      <trkpt lat="45.9457" lon="4.60462">
        <ele>510</ele>
        <time>2016-09-27T09:58:07Z</time>
      </trkpt>
      <trkpt lat="45.94576" lon="4.60457">
        <ele>510</ele>
        <time>2016-09-27T09:58:09Z</time>
      </trkpt>
      <trkpt lat="45.94578" lon="4.60455">
        <ele>510</ele>
        <time>2016-09-27T09:58:10Z</time>
      </trkpt>
      <trkpt lat="45.94583" lon="4.60449">
        <ele>510</ele>
        <time>2016-09-27T09:58:12Z</time>
      </trkpt>
      <trkpt lat="45.94585" lon="4.60445">
        <ele>518</ele>
        <time>2016-09-27T09:58:13Z</time>
      </trkpt>
      <trkpt lat="45.94589" lon="4.60435">
        <ele>517</ele>
        <time>2016-09-27T09:58:16Z</time>
      </trkpt>
      <trkpt lat="45.94593" lon="4.60425">
        <ele>516</ele>
        <time>2016-09-27T09:58:17Z</time>
      </trkpt>
      <trkpt lat="45.94598" lon="4.60419">
        <ele>516</ele>
        <time>2016-09-27T09:58:19Z</time>
      </trkpt>
      <trkpt lat="45.946" lon="4.60416">
        <ele>513</ele>
        <time>2016-09-27T09:58:20Z</time>
      </trkpt>
      <trkpt lat="45.94608" lon="4.60409">
        <ele>513</ele>
        <time>2016-09-27T09:58:22Z</time>
      </trkpt>
      <trkpt lat="45.9461" lon="4.60407">
        <ele>513</ele>
        <time>2016-09-27T09:58:23Z</time>
      </trkpt>
      <trkpt lat="45.94616" lon="4.604">
        <ele>514</ele>
        <time>2016-09-27T09:58:26Z</time>
      </trkpt>
      <trkpt lat="45.94618" lon="4.60397">
        <ele>514</ele>
        <time>2016-09-27T09:58:27Z</time>
      </trkpt>
      <trkpt lat="45.94623" lon="4.60392">
        <ele>514</ele>
        <time>2016-09-27T09:58:29Z</time>
      </trkpt>
      <trkpt lat="45.94626" lon="4.60389">
        <ele>514</ele>
        <time>2016-09-27T09:58:30Z</time>
      </trkpt>
      <trkpt lat="45.9463" lon="4.60381">
        <ele>514</ele>
        <time>2016-09-27T09:58:32Z</time>
      </trkpt>
      <trkpt lat="45.94632" lon="4.60379">
        <ele>514</ele>
        <time>2016-09-27T09:58:33Z</time>
      </trkpt>
      <trkpt lat="45.94638" lon="4.60372">
        <ele>514</ele>
        <time>2016-09-27T09:58:35Z</time>
      </trkpt>
      <trkpt lat="45.9464" lon="4.60368">
        <ele>514</ele>
        <time>2016-09-27T09:58:36Z</time>
      </trkpt>
      <trkpt lat="45.94645" lon="4.60362">
        <ele>514</ele>
        <time>2016-09-27T09:58:38Z</time>
      </trkpt>
      <trkpt lat="45.94647" lon="4.60359">
        <ele>514</ele>
        <time>2016-09-27T09:58:39Z</time>
      </trkpt>
      <trkpt lat="45.94652" lon="4.60352">
        <ele>514</ele>
        <time>2016-09-27T09:58:41Z</time>
      </trkpt>
      <trkpt lat="45.94654" lon="4.60349">
        <ele>514</ele>
        <time>2016-09-27T09:58:42Z</time>
      </trkpt>
      <trkpt lat="45.94661" lon="4.60342">
        <ele>515</ele>
        <time>2016-09-27T09:58:45Z</time>
      </trkpt>
      <trkpt lat="45.94664" lon="4.60338">
        <ele>515</ele>
        <time>2016-09-27T09:58:46Z</time>
      </trkpt>
      <trkpt lat="45.9467" lon="4.60333">
        <ele>516</ele>
        <time>2016-09-27T09:58:48Z</time>
      </trkpt>
      <trkpt lat="45.94673" lon="4.60332">
        <ele>517</ele>
        <time>2016-09-27T09:58:49Z</time>
      </trkpt>
      <trkpt lat="45.94678" lon="4.60325">
        <ele>518</ele>
        <time>2016-09-27T09:58:51Z</time>
      </trkpt>
      <trkpt lat="45.94681" lon="4.60322">
        <ele>518</ele>
        <time>2016-09-27T09:58:52Z</time>
      </trkpt>
      <trkpt lat="45.94686" lon="4.60314">
        <ele>519</ele>
        <time>2016-09-27T09:58:55Z</time>
      </trkpt>
      <trkpt lat="45.94689" lon="4.60311">
        <ele>519</ele>
        <time>2016-09-27T09:58:56Z</time>
      </trkpt>
      <trkpt lat="45.94694" lon="4.60303">
        <ele>519</ele>
        <time>2016-09-27T09:58:59Z</time>
      </trkpt>
      <trkpt lat="45.94695" lon="4.603">
        <ele>519</ele>
        <time>2016-09-27T09:59:00Z</time>
      </trkpt>
      <trkpt lat="45.94699" lon="4.60293">
        <ele>519</ele>
        <time>2016-09-27T09:59:02Z</time>
      </trkpt>
      <trkpt lat="45.94701" lon="4.6029">
        <ele>519</ele>
        <time>2016-09-27T09:59:03Z</time>
      </trkpt>
      <trkpt lat="45.94707" lon="4.60281">
        <ele>520</ele>
        <time>2016-09-27T09:59:06Z</time>
      </trkpt>
      <trkpt lat="45.94709" lon="4.60277">
        <ele>520</ele>
        <time>2016-09-27T09:59:07Z</time>
      </trkpt>
      <trkpt lat="45.94713" lon="4.60269">
        <ele>520</ele>
        <time>2016-09-27T09:59:09Z</time>
      </trkpt>
      <trkpt lat="45.94714" lon="4.60265">
        <ele>520</ele>
        <time>2016-09-27T09:59:10Z</time>
      </trkpt>
      <trkpt lat="45.94719" lon="4.60257">
        <ele>520</ele>
        <time>2016-09-27T09:59:12Z</time>
      </trkpt>
      <trkpt lat="45.9472" lon="4.60253">
        <ele>521</ele>
        <time>2016-09-27T09:59:13Z</time>
      </trkpt>
      <trkpt lat="45.94723" lon="4.60245">
        <ele>518</ele>
        <time>2016-09-27T09:59:15Z</time>
      </trkpt>
      <trkpt lat="45.94725" lon="4.60242">
        <ele>518</ele>
        <time>2016-09-27T09:59:16Z</time>
      </trkpt>
      <trkpt lat="45.94729" lon="4.60233">
        <ele>518</ele>
        <time>2016-09-27T09:59:18Z</time>
      </trkpt>
      <trkpt lat="45.94731" lon="4.60229">
        <ele>519</ele>
        <time>2016-09-27T09:59:19Z</time>
      </trkpt>
      <trkpt lat="45.94734" lon="4.60218">
        <ele>518</ele>
        <time>2016-09-27T09:59:22Z</time>
      </trkpt>
      <trkpt lat="45.94735" lon="4.60215">
        <ele>518</ele>
        <time>2016-09-27T09:59:23Z</time>
      </trkpt>
      <trkpt lat="45.94738" lon="4.60208">
        <ele>518</ele>
        <time>2016-09-27T09:59:25Z</time>
      </trkpt>
      <trkpt lat="45.9474" lon="4.60203">
        <ele>518</ele>
        <time>2016-09-27T09:59:26Z</time>
      </trkpt>
      <trkpt lat="45.94743" lon="4.60195">
        <ele>519</ele>
        <time>2016-09-27T09:59:28Z</time>
      </trkpt>
      <trkpt lat="45.94745" lon="4.60191">
        <ele>519</ele>
        <time>2016-09-27T09:59:29Z</time>
      </trkpt>
      <trkpt lat="45.94748" lon="4.60183">
        <ele>520</ele>
        <time>2016-09-27T09:59:31Z</time>
      </trkpt>
      <trkpt lat="45.9475" lon="4.60179">
        <ele>521</ele>
        <time>2016-09-27T09:59:32Z</time>
      </trkpt>
      <trkpt lat="45.94754" lon="4.60168">
        <ele>525</ele>
        <time>2016-09-27T09:59:35Z</time>
      </trkpt>
      <trkpt lat="45.94756" lon="4.60164">
        <ele>525</ele>
        <time>2016-09-27T09:59:36Z</time>
      </trkpt>
      <trkpt lat="45.94759" lon="4.60156">
        <ele>525</ele>
        <time>2016-09-27T09:59:38Z</time>
      </trkpt>
      <trkpt lat="45.94761" lon="4.60152">
        <ele>525</ele>
        <time>2016-09-27T09:59:39Z</time>
      </trkpt>
      <trkpt lat="45.94764" lon="4.60143">
        <ele>526</ele>
        <time>2016-09-27T09:59:41Z</time>
      </trkpt>
      <trkpt lat="45.94766" lon="4.60139">
        <ele>526</ele>
        <time>2016-09-27T09:59:42Z</time>
      </trkpt>
      <trkpt lat="45.9477" lon="4.6013">
        <ele>526</ele>
        <time>2016-09-27T09:59:44Z</time>
      </trkpt>
      <trkpt lat="45.94772" lon="4.60126">
        <ele>526</ele>
        <time>2016-09-27T09:59:45Z</time>
      </trkpt>
      <trkpt lat="45.94775" lon="4.60118">
        <ele>526</ele>
        <time>2016-09-27T09:59:47Z</time>
      </trkpt>
      <trkpt lat="45.94777" lon="4.60114">
        <ele>526</ele>
        <time>2016-09-27T09:59:48Z</time>
      </trkpt>
      <trkpt lat="45.9478" lon="4.60107">
        <ele>526</ele>
        <time>2016-09-27T09:59:50Z</time>
      </trkpt>
      <trkpt lat="45.94782" lon="4.60102">
        <ele>526</ele>
        <time>2016-09-27T09:59:51Z</time>
      </trkpt>
      <trkpt lat="45.94786" lon="4.60093">
        <ele>526</ele>
        <time>2016-09-27T09:59:53Z</time>
      </trkpt>
      <trkpt lat="45.94788" lon="4.60088">
        <ele>526</ele>
        <time>2016-09-27T09:59:54Z</time>
      </trkpt>
      <trkpt lat="45.94792" lon="4.60078">
        <ele>524</ele>
        <time>2016-09-27T09:59:56Z</time>
      </trkpt>
      <trkpt lat="45.94795" lon="4.60073">
        <ele>524</ele>
        <time>2016-09-27T09:59:57Z</time>
      </trkpt>
      <trkpt lat="45.94799" lon="4.60065">
        <ele>524</ele>
        <time>2016-09-27T09:59:59Z</time>
      </trkpt>
      <trkpt lat="45.94801" lon="4.60061">
        <ele>524</ele>
        <time>2016-09-27T10:00:00Z</time>
      </trkpt>
      <trkpt lat="45.94805" lon="4.60051">
        <ele>524</ele>
        <time>2016-09-27T10:00:02Z</time>
      </trkpt>
      <trkpt lat="45.94807" lon="4.60046">
        <ele>524</ele>
        <time>2016-09-27T10:00:03Z</time>
      </trkpt>
      <trkpt lat="45.94812" lon="4.60037">
        <ele>525</ele>
        <time>2016-09-27T10:00:05Z</time>
      </trkpt>
      <trkpt lat="45.94814" lon="4.60032">
        <ele>525</ele>
        <time>2016-09-27T10:00:06Z</time>
      </trkpt>
      <trkpt lat="45.94818" lon="4.60022">
        <ele>525</ele>
        <time>2016-09-27T10:00:08Z</time>
      </trkpt>
      <trkpt lat="45.9482" lon="4.60016">
        <ele>526</ele>
        <time>2016-09-27T10:00:09Z</time>
      </trkpt>
      <trkpt lat="45.94824" lon="4.60005">
        <ele>527</ele>
        <time>2016-09-27T10:00:11Z</time>
      </trkpt>
      <trkpt lat="45.94826" lon="4.6">
        <ele>526</ele>
        <time>2016-09-27T10:00:12Z</time>
      </trkpt>
      <trkpt lat="45.94828" lon="4.59994">
        <ele>526</ele>
        <time>2016-09-27T10:00:13Z</time>
      </trkpt>
      <trkpt lat="45.9483" lon="4.59988">
        <ele>525</ele>
        <time>2016-09-27T10:00:14Z</time>
      </trkpt>
      <trkpt lat="45.94832" lon="4.59982">
        <ele>524</ele>
        <time>2016-09-27T10:00:15Z</time>
      </trkpt>
      <trkpt lat="45.94835" lon="4.59976">
        <ele>530</ele>
        <time>2016-09-27T10:00:16Z</time>
      </trkpt>
      <trkpt lat="45.94837" lon="4.5997">
        <ele>530</ele>
        <time>2016-09-27T10:00:17Z</time>
      </trkpt>
      <trkpt lat="45.94839" lon="4.59964">
        <ele>530</ele>
        <time>2016-09-27T10:00:18Z</time>
      </trkpt>
      <trkpt lat="45.9484" lon="4.59958">
        <ele>530</ele>
        <time>2016-09-27T10:00:19Z</time>
      </trkpt>
      <trkpt lat="45.94843" lon="4.59952">
        <ele>530</ele>
        <time>2016-09-27T10:00:20Z</time>
      </trkpt>
      <trkpt lat="45.94845" lon="4.59946">
        <ele>530</ele>
        <time>2016-09-27T10:00:21Z</time>
      </trkpt>
      <trkpt lat="45.94848" lon="4.59939">
        <ele>529</ele>
        <time>2016-09-27T10:00:22Z</time>
      </trkpt>
      <trkpt lat="45.9485" lon="4.59931">
        <ele>529</ele>
        <time>2016-09-27T10:00:23Z</time>
      </trkpt>
      <trkpt lat="45.94852" lon="4.59924">
        <ele>529</ele>
        <time>2016-09-27T10:00:24Z</time>
      </trkpt>
      <trkpt lat="45.94855" lon="4.59916">
        <ele>527</ele>
        <time>2016-09-27T10:00:25Z</time>
      </trkpt>
      <trkpt lat="45.94856" lon="4.59909">
        <ele>527</ele>
        <time>2016-09-27T10:00:26Z</time>
      </trkpt>
      <trkpt lat="45.94859" lon="4.59902">
        <ele>527</ele>
        <time>2016-09-27T10:00:27Z</time>
      </trkpt>
      <trkpt lat="45.94861" lon="4.59895">
        <ele>528</ele>
        <time>2016-09-27T10:00:28Z</time>
      </trkpt>
      <trkpt lat="45.94863" lon="4.59888">
        <ele>528</ele>
        <time>2016-09-27T10:00:29Z</time>
      </trkpt>
      <trkpt lat="45.94865" lon="4.59881">
        <ele>528</ele>
        <time>2016-09-27T10:00:30Z</time>
      </trkpt>
      <trkpt lat="45.94866" lon="4.59874">
        <ele>528</ele>
        <time>2016-09-27T10:00:31Z</time>
      </trkpt>
      <trkpt lat="45.94868" lon="4.59867">
        <ele>528</ele>
        <time>2016-09-27T10:00:32Z</time>
      </trkpt>
      <trkpt lat="45.9487" lon="4.59861">
        <ele>528</ele>
        <time>2016-09-27T10:00:33Z</time>
      </trkpt>
      <trkpt lat="45.94872" lon="4.59853">
        <ele>528</ele>
        <time>2016-09-27T10:00:34Z</time>
      </trkpt>
      <trkpt lat="45.94874" lon="4.59847">
        <ele>528</ele>
        <time>2016-09-27T10:00:35Z</time>
      </trkpt>
      <trkpt lat="45.94876" lon="4.5984">
        <ele>528</ele>
        <time>2016-09-27T10:00:36Z</time>
      </trkpt>
      <trkpt lat="45.94877" lon="4.59834">
        <ele>528</ele>
        <time>2016-09-27T10:00:37Z</time>
      </trkpt>
      <trkpt lat="45.94879" lon="4.59827">
        <ele>527</ele>
        <time>2016-09-27T10:00:38Z</time>
      </trkpt>
      <trkpt lat="45.9488" lon="4.5982">
        <ele>527</ele>
        <time>2016-09-27T10:00:39Z</time>
      </trkpt>
      <trkpt lat="45.94882" lon="4.59813">
        <ele>527</ele>
        <time>2016-09-27T10:00:40Z</time>
      </trkpt>
      <trkpt lat="45.94883" lon="4.59804">
        <ele>527</ele>
        <time>2016-09-27T10:00:41Z</time>
      </trkpt>
      <trkpt lat="45.94884" lon="4.59796">
        <ele>526</ele>
        <time>2016-09-27T10:00:42Z</time>
      </trkpt>
      <trkpt lat="45.94885" lon="4.59787">
        <ele>526</ele>
        <time>2016-09-27T10:00:43Z</time>
      </trkpt>
      <trkpt lat="45.94886" lon="4.59778">
        <ele>526</ele>
        <time>2016-09-27T10:00:44Z</time>
      </trkpt>
      <trkpt lat="45.94887" lon="4.5977">
        <ele>527</ele>
        <time>2016-09-27T10:00:45Z</time>
      </trkpt>
      <trkpt lat="45.94888" lon="4.59761">
        <ele>527</ele>
        <time>2016-09-27T10:00:46Z</time>
      </trkpt>
      <trkpt lat="45.94889" lon="4.59752">
        <ele>527</ele>
        <time>2016-09-27T10:00:47Z</time>
      </trkpt>
      <trkpt lat="45.9489" lon="4.59744">
        <ele>527</ele>
        <time>2016-09-27T10:00:48Z</time>
      </trkpt>
      <trkpt lat="45.94891" lon="4.59735">
        <ele>527</ele>
        <time>2016-09-27T10:00:49Z</time>
      </trkpt>
      <trkpt lat="45.94892" lon="4.59727">
        <ele>527</ele>
        <time>2016-09-27T10:00:50Z</time>
      </trkpt>
      <trkpt lat="45.94892" lon="4.59719">
        <ele>527</ele>
        <time>2016-09-27T10:00:51Z</time>
      </trkpt>
      <trkpt lat="45.94891" lon="4.59711">
        <ele>527</ele>
        <time>2016-09-27T10:00:52Z</time>
      </trkpt>
      <trkpt lat="45.94891" lon="4.59704">
        <ele>527</ele>
        <time>2016-09-27T10:00:53Z</time>
      </trkpt>
      <trkpt lat="45.9489" lon="4.59696">
        <ele>527</ele>
        <time>2016-09-27T10:00:54Z</time>
      </trkpt>
      <trkpt lat="45.94888" lon="4.59688">
        <ele>527</ele>
        <time>2016-09-27T10:00:55Z</time>
      </trkpt>
      <trkpt lat="45.94886" lon="4.5968">
        <ele>527</ele>
        <time>2016-09-27T10:00:56Z</time>
      </trkpt>
      <trkpt lat="45.94884" lon="4.59672">
        <ele>527</ele>
        <time>2016-09-27T10:00:57Z</time>
      </trkpt>
      <trkpt lat="45.94881" lon="4.59664">
        <ele>530</ele>
        <time>2016-09-27T10:00:58Z</time>
      </trkpt>
      <trkpt lat="45.94878" lon="4.59656">
        <ele>529</ele>
        <time>2016-09-27T10:00:59Z</time>
      </trkpt>
      <trkpt lat="45.94874" lon="4.59649">
        <ele>529</ele>
        <time>2016-09-27T10:01:00Z</time>
      </trkpt>
      <trkpt lat="45.94871" lon="4.59642">
        <ele>529</ele>
        <time>2016-09-27T10:01:01Z</time>
      </trkpt>
      <trkpt lat="45.94868" lon="4.59635">
        <ele>529</ele>
        <time>2016-09-27T10:01:02Z</time>
      </trkpt>
      <trkpt lat="45.94866" lon="4.59629">
        <ele>529</ele>
        <time>2016-09-27T10:01:03Z</time>
      </trkpt>
      <trkpt lat="45.94863" lon="4.59623">
        <ele>529</ele>
        <time>2016-09-27T10:01:04Z</time>
      </trkpt>
      <trkpt lat="45.94861" lon="4.59618">
        <ele>530</ele>
        <time>2016-09-27T10:01:05Z</time>
      </trkpt>
      <trkpt lat="45.94859" lon="4.59611">
        <ele>530</ele>
        <time>2016-09-27T10:01:06Z</time>
      </trkpt>
      <trkpt lat="45.94856" lon="4.59606">
        <ele>530</ele>
        <time>2016-09-27T10:01:07Z</time>
      </trkpt>
      <trkpt lat="45.94852" lon="4.59601">
        <ele>529</ele>
        <time>2016-09-27T10:01:08Z</time>
      </trkpt>
      <trkpt lat="45.94848" lon="4.59595">
        <ele>529</ele>
        <time>2016-09-27T10:01:09Z</time>
      </trkpt>
      <trkpt lat="45.94845" lon="4.59589">
        <ele>529</ele>
        <time>2016-09-27T10:01:10Z</time>
      </trkpt>
      <trkpt lat="45.94841" lon="4.59583">
        <ele>531</ele>
        <time>2016-09-27T10:01:11Z</time>
      </trkpt>
      <trkpt lat="45.94838" lon="4.59577">
        <ele>531</ele>
        <time>2016-09-27T10:01:12Z</time>
      </trkpt>
      <trkpt lat="45.94834" lon="4.59571">
        <ele>532</ele>
        <time>2016-09-27T10:01:13Z</time>
      </trkpt>
      <trkpt lat="45.9483" lon="4.59565">
        <ele>528</ele>
        <time>2016-09-27T10:01:14Z</time>
      </trkpt>
      <trkpt lat="45.94827" lon="4.59559">
        <ele>528</ele>
        <time>2016-09-27T10:01:15Z</time>
      </trkpt>
      <trkpt lat="45.94823" lon="4.59553">
        <ele>528</ele>
        <time>2016-09-27T10:01:16Z</time>
      </trkpt>
      <trkpt lat="45.9482" lon="4.59547">
        <ele>528</ele>
        <time>2016-09-27T10:01:17Z</time>
      </trkpt>
      <trkpt lat="45.94816" lon="4.59543">
        <ele>529</ele>
        <time>2016-09-27T10:01:18Z</time>
      </trkpt>
      <trkpt lat="45.94812" lon="4.59533">
        <ele>529</ele>
        <time>2016-09-27T10:01:20Z</time>
      </trkpt>
      <trkpt lat="45.94811" lon="4.59529">
        <ele>529</ele>
        <time>2016-09-27T10:01:21Z</time>
      </trkpt>
      <trkpt lat="45.94805" lon="4.59519">
        <ele>530</ele>
        <time>2016-09-27T10:01:23Z</time>
      </trkpt>
      <trkpt lat="45.948" lon="4.59514">
        <ele>529</ele>
        <time>2016-09-27T10:01:24Z</time>
      </trkpt>
      <trkpt lat="45.94796" lon="4.59504">
        <ele>529</ele>
        <time>2016-09-27T10:01:26Z</time>
      </trkpt>
      <trkpt lat="45.94792" lon="4.59498">
        <ele>535</ele>
        <time>2016-09-27T10:01:27Z</time>
      </trkpt>
      <trkpt lat="45.94787" lon="4.59493">
        <ele>535</ele>
        <time>2016-09-27T10:01:28Z</time>
      </trkpt>
      <trkpt lat="45.94782" lon="4.59487">
        <ele>534</ele>
        <time>2016-09-27T10:01:29Z</time>
      </trkpt>
      <trkpt lat="45.94777" lon="4.59482">
        <ele>534</ele>
        <time>2016-09-27T10:01:30Z</time>
      </trkpt>
      <trkpt lat="45.94774" lon="4.59477">
        <ele>534</ele>
        <time>2016-09-27T10:01:31Z</time>
      </trkpt>
      <trkpt lat="45.94771" lon="4.59472">
        <ele>534</ele>
        <time>2016-09-27T10:01:32Z</time>
      </trkpt>
      <trkpt lat="45.94766" lon="4.59468">
        <ele>534</ele>
        <time>2016-09-27T10:01:33Z</time>
      </trkpt>
      <trkpt lat="45.94763" lon="4.59463">
        <ele>535</ele>
        <time>2016-09-27T10:01:34Z</time>
      </trkpt>
      <trkpt lat="45.94754" lon="4.59458">
        <ele>535</ele>
        <time>2016-09-27T10:01:35Z</time>
      </trkpt>
      <trkpt lat="45.94748" lon="4.59453">
        <ele>530</ele>
        <time>2016-09-27T10:01:36Z</time>
      </trkpt>
      <trkpt lat="45.94744" lon="4.59448">
        <ele>530</ele>
        <time>2016-09-27T10:01:37Z</time>
      </trkpt>
      <trkpt lat="45.94741" lon="4.59443">
        <ele>531</ele>
        <time>2016-09-27T10:01:38Z</time>
      </trkpt>
      <trkpt lat="45.94738" lon="4.59437">
        <ele>531</ele>
        <time>2016-09-27T10:01:39Z</time>
      </trkpt>
      <trkpt lat="45.94736" lon="4.59431">
        <ele>531</ele>
        <time>2016-09-27T10:01:40Z</time>
      </trkpt>
      <trkpt lat="45.94734" lon="4.59423">
        <ele>532</ele>
        <time>2016-09-27T10:01:41Z</time>
      </trkpt>
      <trkpt lat="45.94733" lon="4.59415">
        <ele>533</ele>
        <time>2016-09-27T10:01:42Z</time>
      </trkpt>
      <trkpt lat="45.94731" lon="4.59407">
        <ele>533</ele>
        <time>2016-09-27T10:01:43Z</time>
      </trkpt>
      <trkpt lat="45.9473" lon="4.594">
        <ele>533</ele>
        <time>2016-09-27T10:01:44Z</time>
      </trkpt>
      <trkpt lat="45.94729" lon="4.59392">
        <ele>532</ele>
        <time>2016-09-27T10:01:45Z</time>
      </trkpt>
      <trkpt lat="45.94729" lon="4.59384">
        <ele>532</ele>
        <time>2016-09-27T10:01:46Z</time>
      </trkpt>
      <trkpt lat="45.9473" lon="4.59377">
        <ele>532</ele>
        <time>2016-09-27T10:01:47Z</time>
      </trkpt>
      <trkpt lat="45.94731" lon="4.59369">
        <ele>532</ele>
        <time>2016-09-27T10:01:48Z</time>
      </trkpt>
      <trkpt lat="45.9473" lon="4.59362">
        <ele>532</ele>
        <time>2016-09-27T10:01:49Z</time>
      </trkpt>
      <trkpt lat="45.9473" lon="4.59354">
        <ele>532</ele>
        <time>2016-09-27T10:01:50Z</time>
      </trkpt>
      <trkpt lat="45.94731" lon="4.59346">
        <ele>533</ele>
        <time>2016-09-27T10:01:51Z</time>
      </trkpt>
      <trkpt lat="45.94733" lon="4.59337">
        <ele>533</ele>
        <time>2016-09-27T10:01:52Z</time>
      </trkpt>
      <trkpt lat="45.94735" lon="4.59328">
        <ele>532</ele>
        <time>2016-09-27T10:01:53Z</time>
      </trkpt>
      <trkpt lat="45.94737" lon="4.59319">
        <ele>532</ele>
        <time>2016-09-27T10:01:54Z</time>
      </trkpt>
      <trkpt lat="45.9474" lon="4.59309">
        <ele>531</ele>
        <time>2016-09-27T10:01:55Z</time>
      </trkpt>
      <trkpt lat="45.94742" lon="4.593">
        <ele>531</ele>
        <time>2016-09-27T10:01:56Z</time>
      </trkpt>
      <trkpt lat="45.94744" lon="4.59291">
        <ele>530</ele>
        <time>2016-09-27T10:01:57Z</time>
      </trkpt>
      <trkpt lat="45.94748" lon="4.59283">
        <ele>530</ele>
        <time>2016-09-27T10:01:58Z</time>
      </trkpt>
      <trkpt lat="45.9475" lon="4.59274">
        <ele>537</ele>
        <time>2016-09-27T10:01:59Z</time>
      </trkpt>
      <trkpt lat="45.94753" lon="4.59266">
        <ele>536</ele>
        <time>2016-09-27T10:02:00Z</time>
      </trkpt>
      <trkpt lat="45.94755" lon="4.59257">
        <ele>535</ele>
        <time>2016-09-27T10:02:01Z</time>
      </trkpt>
      <trkpt lat="45.94758" lon="4.59248">
        <ele>534</ele>
        <time>2016-09-27T10:02:02Z</time>
      </trkpt>
      <trkpt lat="45.9476" lon="4.5924">
        <ele>535</ele>
        <time>2016-09-27T10:02:03Z</time>
      </trkpt>
      <trkpt lat="45.94762" lon="4.59231">
        <ele>535</ele>
        <time>2016-09-27T10:02:04Z</time>
      </trkpt>
      <trkpt lat="45.94764" lon="4.59222">
        <ele>536</ele>
        <time>2016-09-27T10:02:05Z</time>
      </trkpt>
      <trkpt lat="45.94767" lon="4.59213">
        <ele>536</ele>
        <time>2016-09-27T10:02:06Z</time>
      </trkpt>
      <trkpt lat="45.94768" lon="4.59205">
        <ele>536</ele>
        <time>2016-09-27T10:02:07Z</time>
      </trkpt>
      <trkpt lat="45.94769" lon="4.59197">
        <ele>535</ele>
        <time>2016-09-27T10:02:08Z</time>
      </trkpt>
      <trkpt lat="45.94772" lon="4.59189">
        <ele>535</ele>
        <time>2016-09-27T10:02:09Z</time>
      </trkpt>
      <trkpt lat="45.94774" lon="4.59181">
        <ele>535</ele>
        <time>2016-09-27T10:02:10Z</time>
      </trkpt>
      <trkpt lat="45.94777" lon="4.59173">
        <ele>535</ele>
        <time>2016-09-27T10:02:11Z</time>
      </trkpt>
      <trkpt lat="45.9478" lon="4.59164">
        <ele>533</ele>
        <time>2016-09-27T10:02:12Z</time>
      </trkpt>
      <trkpt lat="45.94782" lon="4.59155">
        <ele>533</ele>
        <time>2016-09-27T10:02:13Z</time>
      </trkpt>
      <trkpt lat="45.94784" lon="4.59147">
        <ele>533</ele>
        <time>2016-09-27T10:02:14Z</time>
      </trkpt>
      <trkpt lat="45.94786" lon="4.59138">
        <ele>534</ele>
        <time>2016-09-27T10:02:15Z</time>
      </trkpt>
      <trkpt lat="45.94788" lon="4.5913">
        <ele>534</ele>
        <time>2016-09-27T10:02:16Z</time>
      </trkpt>
      <trkpt lat="45.9479" lon="4.59121">
        <ele>534</ele>
        <time>2016-09-27T10:02:17Z</time>
      </trkpt>
      <trkpt lat="45.94792" lon="4.59113">
        <ele>534</ele>
        <time>2016-09-27T10:02:18Z</time>
      </trkpt>
      <trkpt lat="45.94795" lon="4.59106">
        <ele>534</ele>
        <time>2016-09-27T10:02:19Z</time>
      </trkpt>
      <trkpt lat="45.94796" lon="4.59098">
        <ele>534</ele>
        <time>2016-09-27T10:02:20Z</time>
      </trkpt>
      <trkpt lat="45.94799" lon="4.5909">
        <ele>534</ele>
        <time>2016-09-27T10:02:21Z</time>
      </trkpt>
      <trkpt lat="45.94801" lon="4.59082">
        <ele>532</ele>
        <time>2016-09-27T10:02:22Z</time>
      </trkpt>
      <trkpt lat="45.94803" lon="4.59073">
        <ele>532</ele>
        <time>2016-09-27T10:02:23Z</time>
      </trkpt>
      <trkpt lat="45.94805" lon="4.59064">
        <ele>532</ele>
        <time>2016-09-27T10:02:24Z</time>
      </trkpt>
      <trkpt lat="45.94807" lon="4.59055">
        <ele>532</ele>
        <time>2016-09-27T10:02:25Z</time>
      </trkpt>
      <trkpt lat="45.9481" lon="4.59047">
        <ele>532</ele>
        <time>2016-09-27T10:02:26Z</time>
      </trkpt>
      <trkpt lat="45.94811" lon="4.59038">
        <ele>532</ele>
        <time>2016-09-27T10:02:27Z</time>
      </trkpt>
      <trkpt lat="45.94813" lon="4.59029">
        <ele>532</ele>
        <time>2016-09-27T10:02:28Z</time>
      </trkpt>
      <trkpt lat="45.94815" lon="4.59021">
        <ele>532</ele>
        <time>2016-09-27T10:02:29Z</time>
      </trkpt>
      <trkpt lat="45.94817" lon="4.59013">
        <ele>532</ele>
        <time>2016-09-27T10:02:30Z</time>
      </trkpt>
      <trkpt lat="45.94819" lon="4.59005">
        <ele>533</ele>
        <time>2016-09-27T10:02:31Z</time>
      </trkpt>
      <trkpt lat="45.94821" lon="4.58997">
        <ele>532</ele>
        <time>2016-09-27T10:02:32Z</time>
      </trkpt>
      <trkpt lat="45.94823" lon="4.58989">
        <ele>531</ele>
        <time>2016-09-27T10:02:33Z</time>
      </trkpt>
      <trkpt lat="45.94826" lon="4.58981">
        <ele>531</ele>
        <time>2016-09-27T10:02:34Z</time>
      </trkpt>
      <trkpt lat="45.94827" lon="4.58972">
        <ele>530</ele>
        <time>2016-09-27T10:02:35Z</time>
      </trkpt>
      <trkpt lat="45.94829" lon="4.58964">
        <ele>530</ele>
        <time>2016-09-27T10:02:36Z</time>
      </trkpt>
      <trkpt lat="45.9483" lon="4.58956">
        <ele>529</ele>
        <time>2016-09-27T10:02:37Z</time>
      </trkpt>
      <trkpt lat="45.94832" lon="4.58948">
        <ele>529</ele>
        <time>2016-09-27T10:02:38Z</time>
      </trkpt>
      <trkpt lat="45.94834" lon="4.58939">
        <ele>533</ele>
        <time>2016-09-27T10:02:39Z</time>
      </trkpt>
      <trkpt lat="45.94836" lon="4.58931">
        <ele>532</ele>
        <time>2016-09-27T10:02:40Z</time>
      </trkpt>
      <trkpt lat="45.94838" lon="4.58923">
        <ele>532</ele>
        <time>2016-09-27T10:02:41Z</time>
      </trkpt>
      <trkpt lat="45.94841" lon="4.58915">
        <ele>530</ele>
        <time>2016-09-27T10:02:42Z</time>
      </trkpt>
      <trkpt lat="45.94843" lon="4.58907">
        <ele>530</ele>
        <time>2016-09-27T10:02:43Z</time>
      </trkpt>
      <trkpt lat="45.94846" lon="4.58898">
        <ele>530</ele>
        <time>2016-09-27T10:02:44Z</time>
      </trkpt>
      <trkpt lat="45.94849" lon="4.58889">
        <ele>529</ele>
        <time>2016-09-27T10:02:45Z</time>
      </trkpt>
      <trkpt lat="45.94852" lon="4.58881">
        <ele>529</ele>
        <time>2016-09-27T10:02:46Z</time>
      </trkpt>
      <trkpt lat="45.94856" lon="4.58871">
        <ele>528</ele>
        <time>2016-09-27T10:02:47Z</time>
      </trkpt>
      <trkpt lat="45.94859" lon="4.58862">
        <ele>528</ele>
        <time>2016-09-27T10:02:48Z</time>
      </trkpt>
      <trkpt lat="45.94863" lon="4.58853">
        <ele>527</ele>
        <time>2016-09-27T10:02:49Z</time>
      </trkpt>
      <trkpt lat="45.94867" lon="4.58843">
        <ele>527</ele>
        <time>2016-09-27T10:02:50Z</time>
      </trkpt>
      <trkpt lat="45.94871" lon="4.58834">
        <ele>527</ele>
        <time>2016-09-27T10:02:51Z</time>
      </trkpt>
      <trkpt lat="45.94876" lon="4.58824">
        <ele>522</ele>
        <time>2016-09-27T10:02:52Z</time>
      </trkpt>
      <trkpt lat="45.94882" lon="4.58815">
        <ele>522</ele>
        <time>2016-09-27T10:02:53Z</time>
      </trkpt>
      <trkpt lat="45.94888" lon="4.58805">
        <ele>522</ele>
        <time>2016-09-27T10:02:54Z</time>
      </trkpt>
      <trkpt lat="45.94894" lon="4.58795">
        <ele>521</ele>
        <time>2016-09-27T10:02:55Z</time>
      </trkpt>
      <trkpt lat="45.949" lon="4.58785">
        <ele>521</ele>
        <time>2016-09-27T10:02:56Z</time>
      </trkpt>
      <trkpt lat="45.94907" lon="4.58775">
        <ele>521</ele>
        <time>2016-09-27T10:02:57Z</time>
      </trkpt>
      <trkpt lat="45.94913" lon="4.58766">
        <ele>521</ele>
        <time>2016-09-27T10:02:58Z</time>
      </trkpt>
      <trkpt lat="45.9492" lon="4.58757">
        <ele>524</ele>
        <time>2016-09-27T10:02:59Z</time>
      </trkpt>
      <trkpt lat="45.94925" lon="4.58747">
        <ele>523</ele>
        <time>2016-09-27T10:03:00Z</time>
      </trkpt>
      <trkpt lat="45.94931" lon="4.58739">
        <ele>523</ele>
        <time>2016-09-27T10:03:01Z</time>
      </trkpt>
      <trkpt lat="45.94936" lon="4.58732">
        <ele>523</ele>
        <time>2016-09-27T10:03:02Z</time>
      </trkpt>
      <trkpt lat="45.9494" lon="4.58724">
        <ele>523</ele>
        <time>2016-09-27T10:03:03Z</time>
      </trkpt>
      <trkpt lat="45.94944" lon="4.58715">
        <ele>523</ele>
        <time>2016-09-27T10:03:04Z</time>
      </trkpt>
      <trkpt lat="45.94948" lon="4.58708">
        <ele>523</ele>
        <time>2016-09-27T10:03:05Z</time>
      </trkpt>
      <trkpt lat="45.94951" lon="4.587">
        <ele>523</ele>
        <time>2016-09-27T10:03:06Z</time>
      </trkpt>
      <trkpt lat="45.94953" lon="4.58691">
        <ele>523</ele>
        <time>2016-09-27T10:03:07Z</time>
      </trkpt>
      <trkpt lat="45.94954" lon="4.58682">
        <ele>523</ele>
        <time>2016-09-27T10:03:08Z</time>
      </trkpt>
      <trkpt lat="45.94955" lon="4.58674">
        <ele>523</ele>
        <time>2016-09-27T10:03:09Z</time>
      </trkpt>
      <trkpt lat="45.94956" lon="4.58666">
        <ele>522</ele>
        <time>2016-09-27T10:03:10Z</time>
      </trkpt>
      <trkpt lat="45.94959" lon="4.58659">
        <ele>523</ele>
        <time>2016-09-27T10:03:11Z</time>
      </trkpt>
      <trkpt lat="45.94957" lon="4.5865">
        <ele>523</ele>
        <time>2016-09-27T10:03:12Z</time>
      </trkpt>
      <trkpt lat="45.94956" lon="4.58641">
        <ele>523</ele>
        <time>2016-09-27T10:03:13Z</time>
      </trkpt>
      <trkpt lat="45.94955" lon="4.58632">
        <ele>523</ele>
        <time>2016-09-27T10:03:14Z</time>
      </trkpt>
      <trkpt lat="45.94954" lon="4.58623">
        <ele>523</ele>
        <time>2016-09-27T10:03:15Z</time>
      </trkpt>
      <trkpt lat="45.94954" lon="4.58614">
        <ele>523</ele>
        <time>2016-09-27T10:03:16Z</time>
      </trkpt>
      <trkpt lat="45.94953" lon="4.58604">
        <ele>523</ele>
        <time>2016-09-27T10:03:17Z</time>
      </trkpt>
      <trkpt lat="45.94952" lon="4.58594">
        <ele>523</ele>
        <time>2016-09-27T10:03:18Z</time>
      </trkpt>
      <trkpt lat="45.94951" lon="4.58585">
        <ele>523</ele>
        <time>2016-09-27T10:03:19Z</time>
      </trkpt>
      <trkpt lat="45.94948" lon="4.58576">
        <ele>525</ele>
        <time>2016-09-27T10:03:20Z</time>
      </trkpt>
      <trkpt lat="45.94946" lon="4.58566">
        <ele>525</ele>
        <time>2016-09-27T10:03:21Z</time>
      </trkpt>
      <trkpt lat="45.94943" lon="4.58558">
        <ele>526</ele>
        <time>2016-09-27T10:03:22Z</time>
      </trkpt>
      <trkpt lat="45.9494" lon="4.58549">
        <ele>526</ele>
        <time>2016-09-27T10:03:23Z</time>
      </trkpt>
      <trkpt lat="45.94937" lon="4.58542">
        <ele>526</ele>
        <time>2016-09-27T10:03:24Z</time>
      </trkpt>
      <trkpt lat="45.94933" lon="4.58534">
        <ele>526</ele>
        <time>2016-09-27T10:03:25Z</time>
      </trkpt>
      <trkpt lat="45.9493" lon="4.58527">
        <ele>527</ele>
        <time>2016-09-27T10:03:26Z</time>
      </trkpt>
      <trkpt lat="45.94928" lon="4.58519">
        <ele>527</ele>
        <time>2016-09-27T10:03:27Z</time>
      </trkpt>
      <trkpt lat="45.94925" lon="4.58511">
        <ele>527</ele>
        <time>2016-09-27T10:03:28Z</time>
      </trkpt>
      <trkpt lat="45.94922" lon="4.58503">
        <ele>526</ele>
        <time>2016-09-27T10:03:29Z</time>
      </trkpt>
      <trkpt lat="45.94919" lon="4.58494">
        <ele>527</ele>
        <time>2016-09-27T10:03:30Z</time>
      </trkpt>
      <trkpt lat="45.94917" lon="4.58487">
        <ele>524</ele>
        <time>2016-09-27T10:03:31Z</time>
      </trkpt>
      <trkpt lat="45.94914" lon="4.5848">
        <ele>524</ele>
        <time>2016-09-27T10:03:32Z</time>
      </trkpt>
      <trkpt lat="45.94912" lon="4.58472">
        <ele>523</ele>
        <time>2016-09-27T10:03:33Z</time>
      </trkpt>
      <trkpt lat="45.94911" lon="4.58464">
        <ele>523</ele>
        <time>2016-09-27T10:03:34Z</time>
      </trkpt>
      <trkpt lat="45.94909" lon="4.58456">
        <ele>523</ele>
        <time>2016-09-27T10:03:35Z</time>
      </trkpt>
      <trkpt lat="45.94908" lon="4.58449">
        <ele>523</ele>
        <time>2016-09-27T10:03:36Z</time>
      </trkpt>
      <trkpt lat="45.94907" lon="4.58443">
        <ele>524</ele>
        <time>2016-09-27T10:03:37Z</time>
      </trkpt>
      <trkpt lat="45.94906" lon="4.5843">
        <ele>525</ele>
        <time>2016-09-27T10:03:39Z</time>
      </trkpt>
      <trkpt lat="45.94906" lon="4.58424">
        <ele>525</ele>
        <time>2016-09-27T10:03:40Z</time>
      </trkpt>
      <trkpt lat="45.94902" lon="4.58415">
        <ele>527</ele>
        <time>2016-09-27T10:03:42Z</time>
      </trkpt>
      <trkpt lat="45.94902" lon="4.58408">
        <ele>527</ele>
        <time>2016-09-27T10:03:43Z</time>
      </trkpt>
      <trkpt lat="45.94903" lon="4.58401">
        <ele>527</ele>
        <time>2016-09-27T10:03:44Z</time>
      </trkpt>
      <trkpt lat="45.94904" lon="4.58394">
        <ele>527</ele>
        <time>2016-09-27T10:03:45Z</time>
      </trkpt>
      <trkpt lat="45.94904" lon="4.58385">
        <ele>527</ele>
        <time>2016-09-27T10:03:46Z</time>
      </trkpt>
      <trkpt lat="45.94905" lon="4.58379">
        <ele>527</ele>
        <time>2016-09-27T10:03:47Z</time>
      </trkpt>
      <trkpt lat="45.94905" lon="4.58367">
        <ele>527</ele>
        <time>2016-09-27T10:03:49Z</time>
      </trkpt>
      <trkpt lat="45.94905" lon="4.58356">
        <ele>527</ele>
        <time>2016-09-27T10:03:51Z</time>
      </trkpt>
      <trkpt lat="45.94905" lon="4.58351">
        <ele>527</ele>
        <time>2016-09-27T10:03:52Z</time>
      </trkpt>
      <trkpt lat="45.9491" lon="4.58337">
        <ele>527</ele>
        <time>2016-09-27T10:03:55Z</time>
      </trkpt>
      <trkpt lat="45.94914" lon="4.58333">
        <ele>527</ele>
        <time>2016-09-27T10:03:56Z</time>
      </trkpt>
      <trkpt lat="45.9492" lon="4.58328">
        <ele>526</ele>
        <time>2016-09-27T10:03:58Z</time>
      </trkpt>
      <trkpt lat="45.94925" lon="4.58326">
        <ele>526</ele>
        <time>2016-09-27T10:03:59Z</time>
      </trkpt>
      <trkpt lat="45.94929" lon="4.58324">
        <ele>525</ele>
        <time>2016-09-27T10:04:00Z</time>
      </trkpt>
      <trkpt lat="45.94934" lon="4.5832">
        <ele>525</ele>
        <time>2016-09-27T10:04:01Z</time>
      </trkpt>
      <trkpt lat="45.94939" lon="4.58317">
        <ele>525</ele>
        <time>2016-09-27T10:04:02Z</time>
      </trkpt>
      <trkpt lat="45.94944" lon="4.58314">
        <ele>524</ele>
        <time>2016-09-27T10:04:03Z</time>
      </trkpt>
      <trkpt lat="45.94949" lon="4.58311">
        <ele>524</ele>
        <time>2016-09-27T10:04:04Z</time>
      </trkpt>
      <trkpt lat="45.94952" lon="4.58308">
        <ele>524</ele>
        <time>2016-09-27T10:04:05Z</time>
      </trkpt>
      <trkpt lat="45.94958" lon="4.58308">
        <ele>524</ele>
        <time>2016-09-27T10:04:06Z</time>
      </trkpt>
      <trkpt lat="45.94964" lon="4.58306">
        <ele>524</ele>
        <time>2016-09-27T10:04:07Z</time>
      </trkpt>
      <trkpt lat="45.94969" lon="4.58305">
        <ele>524</ele>
        <time>2016-09-27T10:04:08Z</time>
      </trkpt>
      <trkpt lat="45.94975" lon="4.58303">
        <ele>524</ele>
        <time>2016-09-27T10:04:09Z</time>
      </trkpt>
      <trkpt lat="45.9498" lon="4.58301">
        <ele>524</ele>
        <time>2016-09-27T10:04:10Z</time>
      </trkpt>
      <trkpt lat="45.94985" lon="4.58302">
        <ele>524</ele>
        <time>2016-09-27T10:04:11Z</time>
      </trkpt>
      <trkpt lat="45.94989" lon="4.58304">
        <ele>524</ele>
        <time>2016-09-27T10:04:12Z</time>
      </trkpt>
      <trkpt lat="45.94995" lon="4.58303">
        <ele>524</ele>
        <time>2016-09-27T10:04:13Z</time>
      </trkpt>
      <trkpt lat="45.95" lon="4.58302">
        <ele>523</ele>
        <time>2016-09-27T10:04:14Z</time>
      </trkpt>
      <trkpt lat="45.95009" lon="4.58304">
        <ele>523</ele>
        <time>2016-09-27T10:04:16Z</time>
      </trkpt>
      <trkpt lat="45.95013" lon="4.58305">
        <ele>523</ele>
        <time>2016-09-27T10:04:17Z</time>
      </trkpt>
      <trkpt lat="45.95017" lon="4.58305">
        <ele>523</ele>
        <time>2016-09-27T10:04:18Z</time>
      </trkpt>
      <trkpt lat="45.95021" lon="4.58307">
        <ele>523</ele>
        <time>2016-09-27T10:04:19Z</time>
      </trkpt>
      <trkpt lat="45.95026" lon="4.58309">
        <ele>523</ele>
        <time>2016-09-27T10:04:20Z</time>
      </trkpt>
      <trkpt lat="45.95031" lon="4.58309">
        <ele>523</ele>
        <time>2016-09-27T10:04:21Z</time>
      </trkpt>
      <trkpt lat="45.95036" lon="4.5831">
        <ele>523</ele>
        <time>2016-09-27T10:04:22Z</time>
      </trkpt>
      <trkpt lat="45.9504" lon="4.58314">
        <ele>523</ele>
        <time>2016-09-27T10:04:23Z</time>
      </trkpt>
      <trkpt lat="45.95045" lon="4.58315">
        <ele>523</ele>
        <time>2016-09-27T10:04:24Z</time>
      </trkpt>
      <trkpt lat="45.9505" lon="4.58315">
        <ele>523</ele>
        <time>2016-09-27T10:04:25Z</time>
      </trkpt>
      <trkpt lat="45.95055" lon="4.58316">
        <ele>523</ele>
        <time>2016-09-27T10:04:26Z</time>
      </trkpt>
      <trkpt lat="45.9506" lon="4.58317">
        <ele>523</ele>
        <time>2016-09-27T10:04:27Z</time>
      </trkpt>
      <trkpt lat="45.95065" lon="4.5832">
        <ele>523</ele>
        <time>2016-09-27T10:04:28Z</time>
      </trkpt>
      <trkpt lat="45.9507" lon="4.58322">
        <ele>524</ele>
        <time>2016-09-27T10:04:29Z</time>
      </trkpt>
      <trkpt lat="45.95075" lon="4.58323">
        <ele>524</ele>
        <time>2016-09-27T10:04:30Z</time>
      </trkpt>
      <trkpt lat="45.9508" lon="4.58323">
        <ele>524</ele>
        <time>2016-09-27T10:04:31Z</time>
      </trkpt>
      <trkpt lat="45.95085" lon="4.58325">
        <ele>524</ele>
        <time>2016-09-27T10:04:32Z</time>
      </trkpt>
      <trkpt lat="45.9509" lon="4.58325">
        <ele>524</ele>
        <time>2016-09-27T10:04:33Z</time>
      </trkpt>
      <trkpt lat="45.95095" lon="4.58326">
        <ele>523</ele>
        <time>2016-09-27T10:04:34Z</time>
      </trkpt>
      <trkpt lat="45.95101" lon="4.58327">
        <ele>523</ele>
        <time>2016-09-27T10:04:35Z</time>
      </trkpt>
      <trkpt lat="45.95107" lon="4.58328">
        <ele>523</ele>
        <time>2016-09-27T10:04:36Z</time>
      </trkpt>
      <trkpt lat="45.95112" lon="4.5833">
        <ele>522</ele>
        <time>2016-09-27T10:04:37Z</time>
      </trkpt>
      <trkpt lat="45.95118" lon="4.58329">
        <ele>522</ele>
        <time>2016-09-27T10:04:38Z</time>
      </trkpt>
      <trkpt lat="45.95124" lon="4.5833">
        <ele>522</ele>
        <time>2016-09-27T10:04:39Z</time>
      </trkpt>
      <trkpt lat="45.95129" lon="4.5833">
        <ele>522</ele>
        <time>2016-09-27T10:04:40Z</time>
      </trkpt>
      <trkpt lat="45.95135" lon="4.58329">
        <ele>522</ele>
        <time>2016-09-27T10:04:41Z</time>
      </trkpt>
      <trkpt lat="45.95141" lon="4.5833">
        <ele>523</ele>
        <time>2016-09-27T10:04:42Z</time>
      </trkpt>
      <trkpt lat="45.95147" lon="4.58331">
        <ele>523</ele>
        <time>2016-09-27T10:04:43Z</time>
      </trkpt>
      <trkpt lat="45.95153" lon="4.58331">
        <ele>524</ele>
        <time>2016-09-27T10:04:44Z</time>
      </trkpt>
      <trkpt lat="45.95159" lon="4.58332">
        <ele>525</ele>
        <time>2016-09-27T10:04:45Z</time>
      </trkpt>
      <trkpt lat="45.95164" lon="4.58332">
        <ele>526</ele>
        <time>2016-09-27T10:04:46Z</time>
      </trkpt>
      <trkpt lat="45.95169" lon="4.58333">
        <ele>526</ele>
        <time>2016-09-27T10:04:47Z</time>
      </trkpt>
      <trkpt lat="45.95174" lon="4.58333">
        <ele>524</ele>
        <time>2016-09-27T10:04:48Z</time>
      </trkpt>
      <trkpt lat="45.95179" lon="4.58333">
        <ele>523</ele>
        <time>2016-09-27T10:04:49Z</time>
      </trkpt>
      <trkpt lat="45.95185" lon="4.58334">
        <ele>528</ele>
        <time>2016-09-27T10:04:50Z</time>
      </trkpt>
      <trkpt lat="45.95191" lon="4.58333">
        <ele>521</ele>
        <time>2016-09-27T10:04:51Z</time>
      </trkpt>
      <trkpt lat="45.95196" lon="4.58334">
        <ele>528</ele>
        <time>2016-09-27T10:04:52Z</time>
      </trkpt>
      <trkpt lat="45.95202" lon="4.58334">
        <ele>528</ele>
        <time>2016-09-27T10:04:53Z</time>
      </trkpt>
      <trkpt lat="45.95208" lon="4.58335">
        <ele>528</ele>
        <time>2016-09-27T10:04:54Z</time>
      </trkpt>
      <trkpt lat="45.95214" lon="4.58336">
        <ele>528</ele>
        <time>2016-09-27T10:04:55Z</time>
      </trkpt>
      <trkpt lat="45.9522" lon="4.58337">
        <ele>527</ele>
        <time>2016-09-27T10:04:56Z</time>
      </trkpt>
      <trkpt lat="45.95225" lon="4.58338">
        <ele>527</ele>
        <time>2016-09-27T10:04:57Z</time>
      </trkpt>
      <trkpt lat="45.9523" lon="4.5834">
        <ele>526</ele>
        <time>2016-09-27T10:04:58Z</time>
      </trkpt>
      <trkpt lat="45.95236" lon="4.58342">
        <ele>525</ele>
        <time>2016-09-27T10:04:59Z</time>
      </trkpt>
      <trkpt lat="45.95241" lon="4.58343">
        <ele>525</ele>
        <time>2016-09-27T10:05:00Z</time>
      </trkpt>
      <trkpt lat="45.95246" lon="4.58344">
        <ele>524</ele>
        <time>2016-09-27T10:05:01Z</time>
      </trkpt>
      <trkpt lat="45.95251" lon="4.58345">
        <ele>522</ele>
        <time>2016-09-27T10:05:02Z</time>
      </trkpt>
      <trkpt lat="45.95256" lon="4.58347">
        <ele>522</ele>
        <time>2016-09-27T10:05:03Z</time>
      </trkpt>
      <trkpt lat="45.9526" lon="4.58349">
        <ele>522</ele>
        <time>2016-09-27T10:05:04Z</time>
      </trkpt>
      <trkpt lat="45.95265" lon="4.5835">
        <ele>522</ele>
        <time>2016-09-27T10:05:05Z</time>
      </trkpt>
      <trkpt lat="45.9527" lon="4.58353">
        <ele>522</ele>
        <time>2016-09-27T10:05:06Z</time>
      </trkpt>
      <trkpt lat="45.95274" lon="4.58355">
        <ele>522</ele>
        <time>2016-09-27T10:05:07Z</time>
      </trkpt>
      <trkpt lat="45.95279" lon="4.58359">
        <ele>522</ele>
        <time>2016-09-27T10:05:08Z</time>
      </trkpt>
      <trkpt lat="45.95285" lon="4.58359">
        <ele>522</ele>
        <time>2016-09-27T10:05:09Z</time>
      </trkpt>
      <trkpt lat="45.9529" lon="4.58363">
        <ele>522</ele>
        <time>2016-09-27T10:05:10Z</time>
      </trkpt>
      <trkpt lat="45.95296" lon="4.58366">
        <ele>522</ele>
        <time>2016-09-27T10:05:11Z</time>
      </trkpt>
      <trkpt lat="45.95301" lon="4.58369">
        <ele>522</ele>
        <time>2016-09-27T10:05:12Z</time>
      </trkpt>
      <trkpt lat="45.95306" lon="4.58374">
        <ele>522</ele>
        <time>2016-09-27T10:05:13Z</time>
      </trkpt>
      <trkpt lat="45.95311" lon="4.58378">
        <ele>522</ele>
        <time>2016-09-27T10:05:14Z</time>
      </trkpt>
      <trkpt lat="45.95315" lon="4.5838">
        <ele>522</ele>
        <time>2016-09-27T10:05:15Z</time>
      </trkpt>
      <trkpt lat="45.95319" lon="4.58384">
        <ele>523</ele>
        <time>2016-09-27T10:05:16Z</time>
      </trkpt>
      <trkpt lat="45.95324" lon="4.58387">
        <ele>523</ele>
        <time>2016-09-27T10:05:17Z</time>
      </trkpt>
      <trkpt lat="45.95328" lon="4.58394">
        <ele>523</ele>
        <time>2016-09-27T10:05:18Z</time>
      </trkpt>
      <trkpt lat="45.95332" lon="4.58398">
        <ele>524</ele>
        <time>2016-09-27T10:05:19Z</time>
      </trkpt>
      <trkpt lat="45.95336" lon="4.58404">
        <ele>520</ele>
        <time>2016-09-27T10:05:20Z</time>
      </trkpt>
      <trkpt lat="45.95341" lon="4.58409">
        <ele>521</ele>
        <time>2016-09-27T10:05:21Z</time>
      </trkpt>
      <trkpt lat="45.95345" lon="4.58413">
        <ele>520</ele>
        <time>2016-09-27T10:05:22Z</time>
      </trkpt>
      <trkpt lat="45.95349" lon="4.58417">
        <ele>525</ele>
        <time>2016-09-27T10:05:23Z</time>
      </trkpt>
      <trkpt lat="45.95354" lon="4.58422">
        <ele>524</ele>
        <time>2016-09-27T10:05:24Z</time>
      </trkpt>
      <trkpt lat="45.95358" lon="4.58427">
        <ele>524</ele>
        <time>2016-09-27T10:05:25Z</time>
      </trkpt>
      <trkpt lat="45.95362" lon="4.58432">
        <ele>524</ele>
        <time>2016-09-27T10:05:26Z</time>
      </trkpt>
      <trkpt lat="45.95367" lon="4.58439">
        <ele>524</ele>
        <time>2016-09-27T10:05:27Z</time>
      </trkpt>
      <trkpt lat="45.95372" lon="4.58445">
        <ele>524</ele>
        <time>2016-09-27T10:05:28Z</time>
      </trkpt>
      <trkpt lat="45.95376" lon="4.58449">
        <ele>524</ele>
        <time>2016-09-27T10:05:29Z</time>
      </trkpt>
      <trkpt lat="45.95381" lon="4.58453">
        <ele>524</ele>
        <time>2016-09-27T10:05:30Z</time>
      </trkpt>
      <trkpt lat="45.95386" lon="4.58458">
        <ele>524</ele>
        <time>2016-09-27T10:05:31Z</time>
      </trkpt>
      <trkpt lat="45.95391" lon="4.58462">
        <ele>524</ele>
        <time>2016-09-27T10:05:32Z</time>
      </trkpt>
      <trkpt lat="45.95395" lon="4.58467">
        <ele>524</ele>
        <time>2016-09-27T10:05:33Z</time>
      </trkpt>
      <trkpt lat="45.95399" lon="4.58471">
        <ele>525</ele>
        <time>2016-09-27T10:05:34Z</time>
      </trkpt>
      <trkpt lat="45.95403" lon="4.58475">
        <ele>525</ele>
        <time>2016-09-27T10:05:35Z</time>
      </trkpt>
      <trkpt lat="45.95407" lon="4.58478">
        <ele>525</ele>
        <time>2016-09-27T10:05:36Z</time>
      </trkpt>
      <trkpt lat="45.95411" lon="4.58482">
        <ele>525</ele>
        <time>2016-09-27T10:05:37Z</time>
      </trkpt>
      <trkpt lat="45.95415" lon="4.58486">
        <ele>526</ele>
        <time>2016-09-27T10:05:38Z</time>
      </trkpt>
      <trkpt lat="45.95419" lon="4.5849">
        <ele>521</ele>
        <time>2016-09-27T10:05:39Z</time>
      </trkpt>
      <trkpt lat="45.95426" lon="4.58498">
        <ele>521</ele>
        <time>2016-09-27T10:05:41Z</time>
      </trkpt>
      <trkpt lat="45.95429" lon="4.58502">
        <ele>524</ele>
        <time>2016-09-27T10:05:42Z</time>
      </trkpt>
      <trkpt lat="45.95435" lon="4.5851">
        <ele>522</ele>
        <time>2016-09-27T10:05:44Z</time>
      </trkpt>
      <trkpt lat="45.95439" lon="4.58516">
        <ele>521</ele>
        <time>2016-09-27T10:05:45Z</time>
      </trkpt>
      <trkpt lat="45.95443" lon="4.58521">
        <ele>521</ele>
        <time>2016-09-27T10:05:46Z</time>
      </trkpt>
      <trkpt lat="45.95447" lon="4.58529">
        <ele>520</ele>
        <time>2016-09-27T10:05:47Z</time>
      </trkpt>
      <trkpt lat="45.95451" lon="4.5854">
        <ele>520</ele>
        <time>2016-09-27T10:05:49Z</time>
      </trkpt>
      <trkpt lat="45.95453" lon="4.58546">
        <ele>520</ele>
        <time>2016-09-27T10:05:50Z</time>
      </trkpt>
      <trkpt lat="45.95456" lon="4.58554">
        <ele>520</ele>
        <time>2016-09-27T10:05:51Z</time>
      </trkpt>
      <trkpt lat="45.95458" lon="4.58561">
        <ele>520</ele>
        <time>2016-09-27T10:05:52Z</time>
      </trkpt>
      <trkpt lat="45.95461" lon="4.5857">
        <ele>520</ele>
        <time>2016-09-27T10:05:53Z</time>
      </trkpt>
      <trkpt lat="45.95465" lon="4.58578">
        <ele>519</ele>
        <time>2016-09-27T10:05:54Z</time>
      </trkpt>
      <trkpt lat="45.95467" lon="4.58586">
        <ele>522</ele>
        <time>2016-09-27T10:05:55Z</time>
      </trkpt>
      <trkpt lat="45.95469" lon="4.58593">
        <ele>521</ele>
        <time>2016-09-27T10:05:56Z</time>
      </trkpt>
      <trkpt lat="45.95472" lon="4.586">
        <ele>521</ele>
        <time>2016-09-27T10:05:57Z</time>
      </trkpt>
      <trkpt lat="45.95474" lon="4.58609">
        <ele>521</ele>
        <time>2016-09-27T10:05:58Z</time>
      </trkpt>
      <trkpt lat="45.95476" lon="4.58617">
        <ele>521</ele>
        <time>2016-09-27T10:05:59Z</time>
      </trkpt>
      <trkpt lat="45.95479" lon="4.58626">
        <ele>521</ele>
        <time>2016-09-27T10:06:00Z</time>
      </trkpt>
      <trkpt lat="45.95481" lon="4.58635">
        <ele>521</ele>
        <time>2016-09-27T10:06:01Z</time>
      </trkpt>
      <trkpt lat="45.95482" lon="4.58643">
        <ele>521</ele>
        <time>2016-09-27T10:06:02Z</time>
      </trkpt>
      <trkpt lat="45.95484" lon="4.58651">
        <ele>520</ele>
        <time>2016-09-27T10:06:03Z</time>
      </trkpt>
      <trkpt lat="45.95486" lon="4.58659">
        <ele>519</ele>
        <time>2016-09-27T10:06:04Z</time>
      </trkpt>
      <trkpt lat="45.95488" lon="4.58668">
        <ele>520</ele>
        <time>2016-09-27T10:06:05Z</time>
      </trkpt>
      <trkpt lat="45.95489" lon="4.58676">
        <ele>520</ele>
        <time>2016-09-27T10:06:06Z</time>
      </trkpt>
      <trkpt lat="45.9549" lon="4.58685">
        <ele>521</ele>
        <time>2016-09-27T10:06:07Z</time>
      </trkpt>
      <trkpt lat="45.95491" lon="4.58692">
        <ele>522</ele>
        <time>2016-09-27T10:06:08Z</time>
      </trkpt>
      <trkpt lat="45.95492" lon="4.587">
        <ele>523</ele>
        <time>2016-09-27T10:06:09Z</time>
      </trkpt>
      <trkpt lat="45.95492" lon="4.58707">
        <ele>523</ele>
        <time>2016-09-27T10:06:10Z</time>
      </trkpt>
      <trkpt lat="45.95493" lon="4.58714">
        <ele>523</ele>
        <time>2016-09-27T10:06:11Z</time>
      </trkpt>
      <trkpt lat="45.95493" lon="4.58722">
        <ele>523</ele>
        <time>2016-09-27T10:06:12Z</time>
      </trkpt>
      <trkpt lat="45.95494" lon="4.58729">
        <ele>523</ele>
        <time>2016-09-27T10:06:13Z</time>
      </trkpt>
      <trkpt lat="45.95493" lon="4.58736">
        <ele>523</ele>
        <time>2016-09-27T10:06:14Z</time>
      </trkpt>
      <trkpt lat="45.95491" lon="4.58744">
        <ele>522</ele>
        <time>2016-09-27T10:06:15Z</time>
      </trkpt>
      <trkpt lat="45.9549" lon="4.58752">
        <ele>524</ele>
        <time>2016-09-27T10:06:16Z</time>
      </trkpt>
      <trkpt lat="45.9549" lon="4.58761">
        <ele>525</ele>
        <time>2016-09-27T10:06:17Z</time>
      </trkpt>
      <trkpt lat="45.95491" lon="4.58771">
        <ele>526</ele>
        <time>2016-09-27T10:06:18Z</time>
      </trkpt>
      <trkpt lat="45.95493" lon="4.5878">
        <ele>527</ele>
        <time>2016-09-27T10:06:19Z</time>
      </trkpt>
      <trkpt lat="45.95496" lon="4.58789">
        <ele>528</ele>
        <time>2016-09-27T10:06:20Z</time>
      </trkpt>
      <trkpt lat="45.95499" lon="4.58798">
        <ele>528</ele>
        <time>2016-09-27T10:06:21Z</time>
      </trkpt>
      <trkpt lat="45.95502" lon="4.58806">
        <ele>520</ele>
        <time>2016-09-27T10:06:22Z</time>
      </trkpt>
      <trkpt lat="45.95505" lon="4.58814">
        <ele>521</ele>
        <time>2016-09-27T10:06:23Z</time>
      </trkpt>
      <trkpt lat="45.95509" lon="4.58821">
        <ele>522</ele>
        <time>2016-09-27T10:06:24Z</time>
      </trkpt>
      <trkpt lat="45.95513" lon="4.58829">
        <ele>522</ele>
        <time>2016-09-27T10:06:25Z</time>
      </trkpt>
      <trkpt lat="45.95518" lon="4.58837">
        <ele>527</ele>
        <time>2016-09-27T10:06:26Z</time>
      </trkpt>
      <trkpt lat="45.95522" lon="4.58843">
        <ele>527</ele>
        <time>2016-09-27T10:06:27Z</time>
      </trkpt>
      <trkpt lat="45.95526" lon="4.58849">
        <ele>527</ele>
        <time>2016-09-27T10:06:28Z</time>
      </trkpt>
      <trkpt lat="45.95531" lon="4.58853">
        <ele>527</ele>
        <time>2016-09-27T10:06:29Z</time>
      </trkpt>
      <trkpt lat="45.95536" lon="4.58857">
        <ele>527</ele>
        <time>2016-09-27T10:06:30Z</time>
      </trkpt>
      <trkpt lat="45.95541" lon="4.58862">
        <ele>527</ele>
        <time>2016-09-27T10:06:31Z</time>
      </trkpt>
      <trkpt lat="45.95546" lon="4.58865">
        <ele>527</ele>
        <time>2016-09-27T10:06:32Z</time>
      </trkpt>
      <trkpt lat="45.95552" lon="4.58868">
        <ele>527</ele>
        <time>2016-09-27T10:06:33Z</time>
      </trkpt>
      <trkpt lat="45.95558" lon="4.5887">
        <ele>527</ele>
        <time>2016-09-27T10:06:34Z</time>
      </trkpt>
      <trkpt lat="45.95564" lon="4.58871">
        <ele>527</ele>
        <time>2016-09-27T10:06:35Z</time>
      </trkpt>
      <trkpt lat="45.9557" lon="4.58871">
        <ele>527</ele>
        <time>2016-09-27T10:06:36Z</time>
      </trkpt>
      <trkpt lat="45.95575" lon="4.58872">
        <ele>527</ele>
        <time>2016-09-27T10:06:37Z</time>
      </trkpt>
      <trkpt lat="45.95581" lon="4.58872">
        <ele>527</ele>
        <time>2016-09-27T10:06:38Z</time>
      </trkpt>
      <trkpt lat="45.95587" lon="4.58873">
        <ele>526</ele>
        <time>2016-09-27T10:06:39Z</time>
      </trkpt>
      <trkpt lat="45.95592" lon="4.58873">
        <ele>526</ele>
        <time>2016-09-27T10:06:40Z</time>
      </trkpt>
      <trkpt lat="45.95597" lon="4.58873">
        <ele>526</ele>
        <time>2016-09-27T10:06:41Z</time>
      </trkpt>
      <trkpt lat="45.95602" lon="4.58873">
        <ele>526</ele>
        <time>2016-09-27T10:06:42Z</time>
      </trkpt>
      <trkpt lat="45.95607" lon="4.58873">
        <ele>526</ele>
        <time>2016-09-27T10:06:43Z</time>
      </trkpt>
      <trkpt lat="45.95612" lon="4.58874">
        <ele>527</ele>
        <time>2016-09-27T10:06:44Z</time>
      </trkpt>
      <trkpt lat="45.95617" lon="4.58874">
        <ele>527</ele>
        <time>2016-09-27T10:06:45Z</time>
      </trkpt>
      <trkpt lat="45.95622" lon="4.58873">
        <ele>527</ele>
        <time>2016-09-27T10:06:46Z</time>
      </trkpt>
      <trkpt lat="45.95627" lon="4.58872">
        <ele>527</ele>
        <time>2016-09-27T10:06:47Z</time>
      </trkpt>
      <trkpt lat="45.95632" lon="4.58872">
        <ele>527</ele>
        <time>2016-09-27T10:06:48Z</time>
      </trkpt>
      <trkpt lat="45.95638" lon="4.58871">
        <ele>527</ele>
        <time>2016-09-27T10:06:49Z</time>
      </trkpt>
      <trkpt lat="45.95644" lon="4.58869">
        <ele>526</ele>
        <time>2016-09-27T10:06:50Z</time>
      </trkpt>
      <trkpt lat="45.9565" lon="4.58868">
        <ele>526</ele>
        <time>2016-09-27T10:06:51Z</time>
      </trkpt>
      <trkpt lat="45.95657" lon="4.58866">
        <ele>526</ele>
        <time>2016-09-27T10:06:52Z</time>
      </trkpt>
      <trkpt lat="45.95662" lon="4.58865">
        <ele>525</ele>
        <time>2016-09-27T10:06:53Z</time>
      </trkpt>
      <trkpt lat="45.95668" lon="4.58864">
        <ele>529</ele>
        <time>2016-09-27T10:06:54Z</time>
      </trkpt>
      <trkpt lat="45.95673" lon="4.58862">
        <ele>529</ele>
        <time>2016-09-27T10:06:55Z</time>
      </trkpt>
      <trkpt lat="45.95677" lon="4.58859">
        <ele>528</ele>
        <time>2016-09-27T10:06:56Z</time>
      </trkpt>
      <trkpt lat="45.95682" lon="4.58858">
        <ele>529</ele>
        <time>2016-09-27T10:06:57Z</time>
      </trkpt>
      <trkpt lat="45.95687" lon="4.58857">
        <ele>529</ele>
        <time>2016-09-27T10:06:58Z</time>
      </trkpt>
      <trkpt lat="45.95692" lon="4.58855">
        <ele>529</ele>
        <time>2016-09-27T10:06:59Z</time>
      </trkpt>
      <trkpt lat="45.95698" lon="4.58852">
        <ele>530</ele>
        <time>2016-09-27T10:07:00Z</time>
      </trkpt>
      <trkpt lat="45.95703" lon="4.5885">
        <ele>530</ele>
        <time>2016-09-27T10:07:01Z</time>
      </trkpt>
      <trkpt lat="45.95708" lon="4.58847">
        <ele>530</ele>
        <time>2016-09-27T10:07:02Z</time>
      </trkpt>
      <trkpt lat="45.95713" lon="4.58844">
        <ele>531</ele>
        <time>2016-09-27T10:07:03Z</time>
      </trkpt>
      <trkpt lat="45.95718" lon="4.5884">
        <ele>531</ele>
        <time>2016-09-27T10:07:04Z</time>
      </trkpt>
      <trkpt lat="45.95723" lon="4.58835">
        <ele>530</ele>
        <time>2016-09-27T10:07:05Z</time>
      </trkpt>
      <trkpt lat="45.95727" lon="4.5883">
        <ele>520</ele>
        <time>2016-09-27T10:07:06Z</time>
      </trkpt>
      <trkpt lat="45.95732" lon="4.58826">
        <ele>521</ele>
        <time>2016-09-27T10:07:07Z</time>
      </trkpt>
      <trkpt lat="45.95736" lon="4.58822">
        <ele>521</ele>
        <time>2016-09-27T10:07:08Z</time>
      </trkpt>
      <trkpt lat="45.95741" lon="4.58818">
        <ele>521</ele>
        <time>2016-09-27T10:07:09Z</time>
      </trkpt>
      <trkpt lat="45.95745" lon="4.58814">
        <ele>521</ele>
        <time>2016-09-27T10:07:10Z</time>
      </trkpt>
      <trkpt lat="45.9575" lon="4.5881">
        <ele>520</ele>
        <time>2016-09-27T10:07:11Z</time>
      </trkpt>
      <trkpt lat="45.95754" lon="4.58808">
        <ele>526</ele>
        <time>2016-09-27T10:07:12Z</time>
      </trkpt>
      <trkpt lat="45.95759" lon="4.58807">
        <ele>526</ele>
        <time>2016-09-27T10:07:13Z</time>
      </trkpt>
      <trkpt lat="45.95764" lon="4.58804">
        <ele>526</ele>
        <time>2016-09-27T10:07:14Z</time>
      </trkpt>
      <trkpt lat="45.95769" lon="4.588">
        <ele>525</ele>
        <time>2016-09-27T10:07:15Z</time>
      </trkpt>
      <trkpt lat="45.95773" lon="4.58796">
        <ele>525</ele>
        <time>2016-09-27T10:07:16Z</time>
      </trkpt>
      <trkpt lat="45.95778" lon="4.58793">
        <ele>525</ele>
        <time>2016-09-27T10:07:17Z</time>
      </trkpt>
      <trkpt lat="45.95782" lon="4.5879">
        <ele>525</ele>
        <time>2016-09-27T10:07:18Z</time>
      </trkpt>
      <trkpt lat="45.95787" lon="4.58788">
        <ele>525</ele>
        <time>2016-09-27T10:07:19Z</time>
      </trkpt>
      <trkpt lat="45.95791" lon="4.58786">
        <ele>525</ele>
        <time>2016-09-27T10:07:20Z</time>
      </trkpt>
      <trkpt lat="45.95799" lon="4.58782">
        <ele>526</ele>
        <time>2016-09-27T10:07:22Z</time>
      </trkpt>
      <trkpt lat="45.95803" lon="4.5878">
        <ele>526</ele>
        <time>2016-09-27T10:07:23Z</time>
      </trkpt>
      <trkpt lat="45.95809" lon="4.58775">
        <ele>526</ele>
        <time>2016-09-27T10:07:25Z</time>
      </trkpt>
      <trkpt lat="45.95812" lon="4.58773">
        <ele>525</ele>
        <time>2016-09-27T10:07:26Z</time>
      </trkpt>
      <trkpt lat="45.95819" lon="4.58768">
        <ele>525</ele>
        <time>2016-09-27T10:07:28Z</time>
      </trkpt>
      <trkpt lat="45.95822" lon="4.58766">
        <ele>525</ele>
        <time>2016-09-27T10:07:29Z</time>
      </trkpt>
      <trkpt lat="45.95826" lon="4.58763">
        <ele>525</ele>
        <time>2016-09-27T10:07:30Z</time>
      </trkpt>
      <trkpt lat="45.9583" lon="4.5876">
        <ele>525</ele>
        <time>2016-09-27T10:07:31Z</time>
      </trkpt>
      <trkpt lat="45.95834" lon="4.58758">
        <ele>529</ele>
        <time>2016-09-27T10:07:32Z</time>
      </trkpt>
      <trkpt lat="45.95839" lon="4.58754">
        <ele>529</ele>
        <time>2016-09-27T10:07:33Z</time>
      </trkpt>
      <trkpt lat="45.95843" lon="4.58751">
        <ele>531</ele>
        <time>2016-09-27T10:07:34Z</time>
      </trkpt>
      <trkpt lat="45.95848" lon="4.58747">
        <ele>526</ele>
        <time>2016-09-27T10:07:35Z</time>
      </trkpt>
      <trkpt lat="45.95852" lon="4.58743">
        <ele>527</ele>
        <time>2016-09-27T10:07:36Z</time>
      </trkpt>
      <trkpt lat="45.95856" lon="4.58738">
        <ele>527</ele>
        <time>2016-09-27T10:07:37Z</time>
      </trkpt>
      <trkpt lat="45.95861" lon="4.58734">
        <ele>528</ele>
        <time>2016-09-27T10:07:38Z</time>
      </trkpt>
      <trkpt lat="45.95865" lon="4.58729">
        <ele>528</ele>
        <time>2016-09-27T10:07:39Z</time>
      </trkpt>
      <trkpt lat="45.95868" lon="4.58723">
        <ele>528</ele>
        <time>2016-09-27T10:07:40Z</time>
      </trkpt>
      <trkpt lat="45.95872" lon="4.58717">
        <ele>528</ele>
        <time>2016-09-27T10:07:41Z</time>
      </trkpt>
      <trkpt lat="45.95875" lon="4.58711">
        <ele>528</ele>
        <time>2016-09-27T10:07:42Z</time>
      </trkpt>
      <trkpt lat="45.95879" lon="4.58706">
        <ele>528</ele>
        <time>2016-09-27T10:07:43Z</time>
      </trkpt>
      <trkpt lat="45.95882" lon="4.587">
        <ele>528</ele>
        <time>2016-09-27T10:07:44Z</time>
      </trkpt>
      <trkpt lat="45.95886" lon="4.58694">
        <ele>528</ele>
        <time>2016-09-27T10:07:45Z</time>
      </trkpt>
      <trkpt lat="45.95889" lon="4.58686">
        <ele>528</ele>
        <time>2016-09-27T10:07:46Z</time>
      </trkpt>
      <trkpt lat="45.95893" lon="4.58677">
        <ele>528</ele>
        <time>2016-09-27T10:07:47Z</time>
      </trkpt>
      <trkpt lat="45.95897" lon="4.58671">
        <ele>528</ele>
        <time>2016-09-27T10:07:48Z</time>
      </trkpt>
      <trkpt lat="45.95901" lon="4.58666">
        <ele>522</ele>
        <time>2016-09-27T10:07:49Z</time>
      </trkpt>
      <trkpt lat="45.95905" lon="4.5866">
        <ele>522</ele>
        <time>2016-09-27T10:07:50Z</time>
      </trkpt>
      <trkpt lat="45.95908" lon="4.58654">
        <ele>522</ele>
        <time>2016-09-27T10:07:51Z</time>
      </trkpt>
      <trkpt lat="45.95912" lon="4.58648">
        <ele>520</ele>
        <time>2016-09-27T10:07:52Z</time>
      </trkpt>
      <trkpt lat="45.95915" lon="4.58643">
        <ele>519</ele>
        <time>2016-09-27T10:07:53Z</time>
      </trkpt>
      <trkpt lat="45.95919" lon="4.58637">
        <ele>527</ele>
        <time>2016-09-27T10:07:54Z</time>
      </trkpt>
      <trkpt lat="45.95923" lon="4.58631">
        <ele>527</ele>
        <time>2016-09-27T10:07:55Z</time>
      </trkpt>
      <trkpt lat="45.95927" lon="4.58626">
        <ele>526</ele>
        <time>2016-09-27T10:07:56Z</time>
      </trkpt>
      <trkpt lat="45.9593" lon="4.5862">
        <ele>525</ele>
        <time>2016-09-27T10:07:57Z</time>
      </trkpt>
      <trkpt lat="45.95935" lon="4.58615">
        <ele>525</ele>
        <time>2016-09-27T10:07:58Z</time>
      </trkpt>
      <trkpt lat="45.95939" lon="4.58611">
        <ele>524</ele>
        <time>2016-09-27T10:07:59Z</time>
      </trkpt>
      <trkpt lat="45.95941" lon="4.58604">
        <ele>524</ele>
        <time>2016-09-27T10:08:00Z</time>
      </trkpt>
      <trkpt lat="45.95943" lon="4.58598">
        <ele>523</ele>
        <time>2016-09-27T10:08:01Z</time>
      </trkpt>
      <trkpt lat="45.95947" lon="4.58593">
        <ele>523</ele>
        <time>2016-09-27T10:08:02Z</time>
      </trkpt>
      <trkpt lat="45.95952" lon="4.58588">
        <ele>523</ele>
        <time>2016-09-27T10:08:03Z</time>
      </trkpt>
      <trkpt lat="45.95958" lon="4.58584">
        <ele>524</ele>
        <time>2016-09-27T10:08:04Z</time>
      </trkpt>
      <trkpt lat="45.95963" lon="4.58581">
        <ele>514</ele>
        <time>2016-09-27T10:08:05Z</time>
      </trkpt>
      <trkpt lat="45.95968" lon="4.58579">
        <ele>514</ele>
        <time>2016-09-27T10:08:06Z</time>
      </trkpt>
      <trkpt lat="45.95976" lon="4.58581">
        <ele>515</ele>
        <time>2016-09-27T10:08:07Z</time>
      </trkpt>
      <trkpt lat="45.95982" lon="4.58583">
        <ele>516</ele>
        <time>2016-09-27T10:08:08Z</time>
      </trkpt>
      <trkpt lat="45.95989" lon="4.58586">
        <ele>522</ele>
        <time>2016-09-27T10:08:09Z</time>
      </trkpt>
      <trkpt lat="45.95997" lon="4.58591">
        <ele>522</ele>
        <time>2016-09-27T10:08:10Z</time>
      </trkpt>
      <trkpt lat="45.96004" lon="4.58596">
        <ele>523</ele>
        <time>2016-09-27T10:08:11Z</time>
      </trkpt>
      <trkpt lat="45.9601" lon="4.58601">
        <ele>524</ele>
        <time>2016-09-27T10:08:12Z</time>
      </trkpt>
      <trkpt lat="45.96017" lon="4.58606">
        <ele>525</ele>
        <time>2016-09-27T10:08:13Z</time>
      </trkpt>
      <trkpt lat="45.96022" lon="4.58611">
        <ele>526</ele>
        <time>2016-09-27T10:08:14Z</time>
      </trkpt>
      <trkpt lat="45.96027" lon="4.58617">
        <ele>527</ele>
        <time>2016-09-27T10:08:15Z</time>
      </trkpt>
      <trkpt lat="45.96034" lon="4.58623">
        <ele>527</ele>
        <time>2016-09-27T10:08:16Z</time>
      </trkpt>
      <trkpt lat="45.96041" lon="4.58629">
        <ele>528</ele>
        <time>2016-09-27T10:08:17Z</time>
      </trkpt>
      <trkpt lat="45.96047" lon="4.58631">
        <ele>528</ele>
        <time>2016-09-27T10:08:18Z</time>
      </trkpt>
      <trkpt lat="45.96053" lon="4.58634">
        <ele>528</ele>
        <time>2016-09-27T10:08:19Z</time>
      </trkpt>
      <trkpt lat="45.96059" lon="4.58637">
        <ele>528</ele>
        <time>2016-09-27T10:08:20Z</time>
      </trkpt>
      <trkpt lat="45.96064" lon="4.5864">
        <ele>529</ele>
        <time>2016-09-27T10:08:21Z</time>
      </trkpt>
      <trkpt lat="45.9607" lon="4.58641">
        <ele>529</ele>
        <time>2016-09-27T10:08:22Z</time>
      </trkpt>
      <trkpt lat="45.96076" lon="4.58643">
        <ele>530</ele>
        <time>2016-09-27T10:08:23Z</time>
      </trkpt>
      <trkpt lat="45.96081" lon="4.58644">
        <ele>530</ele>
        <time>2016-09-27T10:08:24Z</time>
      </trkpt>
      <trkpt lat="45.96088" lon="4.58644">
        <ele>533</ele>
        <time>2016-09-27T10:08:25Z</time>
      </trkpt>
      <trkpt lat="45.96094" lon="4.58643">
        <ele>533</ele>
        <time>2016-09-27T10:08:26Z</time>
      </trkpt>
      <trkpt lat="45.96101" lon="4.58641">
        <ele>533</ele>
        <time>2016-09-27T10:08:27Z</time>
      </trkpt>
      <trkpt lat="45.96108" lon="4.58638">
        <ele>533</ele>
        <time>2016-09-27T10:08:28Z</time>
      </trkpt>
      <trkpt lat="45.96114" lon="4.58635">
        <ele>533</ele>
        <time>2016-09-27T10:08:29Z</time>
      </trkpt>
      <trkpt lat="45.96119" lon="4.5863">
        <ele>533</ele>
        <time>2016-09-27T10:08:30Z</time>
      </trkpt>
      <trkpt lat="45.96124" lon="4.58627">
        <ele>533</ele>
        <time>2016-09-27T10:08:31Z</time>
      </trkpt>
      <trkpt lat="45.96128" lon="4.58621">
        <ele>533</ele>
        <time>2016-09-27T10:08:32Z</time>
      </trkpt>
      <trkpt lat="45.96133" lon="4.58615">
        <ele>533</ele>
        <time>2016-09-27T10:08:33Z</time>
      </trkpt>
      <trkpt lat="45.96138" lon="4.58609">
        <ele>532</ele>
        <time>2016-09-27T10:08:34Z</time>
      </trkpt>
      <trkpt lat="45.96143" lon="4.58601">
        <ele>532</ele>
        <time>2016-09-27T10:08:35Z</time>
      </trkpt>
      <trkpt lat="45.96147" lon="4.58594">
        <ele>532</ele>
        <time>2016-09-27T10:08:36Z</time>
      </trkpt>
      <trkpt lat="45.96152" lon="4.58586">
        <ele>531</ele>
        <time>2016-09-27T10:08:37Z</time>
      </trkpt>
      <trkpt lat="45.96156" lon="4.5858">
        <ele>524</ele>
        <time>2016-09-27T10:08:38Z</time>
      </trkpt>
      <trkpt lat="45.9616" lon="4.58573">
        <ele>523</ele>
        <time>2016-09-27T10:08:39Z</time>
      </trkpt>
      <trkpt lat="45.96164" lon="4.58567">
        <ele>522</ele>
        <time>2016-09-27T10:08:40Z</time>
      </trkpt>
      <trkpt lat="45.96168" lon="4.58561">
        <ele>527</ele>
        <time>2016-09-27T10:08:41Z</time>
      </trkpt>
      <trkpt lat="45.96172" lon="4.58555">
        <ele>526</ele>
        <time>2016-09-27T10:08:42Z</time>
      </trkpt>
      <trkpt lat="45.96176" lon="4.5855">
        <ele>525</ele>
        <time>2016-09-27T10:08:43Z</time>
      </trkpt>
      <trkpt lat="45.9618" lon="4.58546">
        <ele>525</ele>
        <time>2016-09-27T10:08:44Z</time>
      </trkpt>
      <trkpt lat="45.96184" lon="4.58541">
        <ele>524</ele>
        <time>2016-09-27T10:08:45Z</time>
      </trkpt>
      <trkpt lat="45.96189" lon="4.58538">
        <ele>524</ele>
        <time>2016-09-27T10:08:46Z</time>
      </trkpt>
      <trkpt lat="45.96194" lon="4.58535">
        <ele>524</ele>
        <time>2016-09-27T10:08:47Z</time>
      </trkpt>
      <trkpt lat="45.962" lon="4.5853">
        <ele>523</ele>
        <time>2016-09-27T10:08:48Z</time>
      </trkpt>
      <trkpt lat="45.96206" lon="4.58527">
        <ele>524</ele>
        <time>2016-09-27T10:08:49Z</time>
      </trkpt>
      <trkpt lat="45.96212" lon="4.58523">
        <ele>523</ele>
        <time>2016-09-27T10:08:50Z</time>
      </trkpt>
      <trkpt lat="45.96218" lon="4.5852">
        <ele>523</ele>
        <time>2016-09-27T10:08:51Z</time>
      </trkpt>
      <trkpt lat="45.96223" lon="4.58518">
        <ele>523</ele>
        <time>2016-09-27T10:08:52Z</time>
      </trkpt>
      <trkpt lat="45.96229" lon="4.58516">
        <ele>523</ele>
        <time>2016-09-27T10:08:53Z</time>
      </trkpt>
      <trkpt lat="45.96234" lon="4.58514">
        <ele>522</ele>
        <time>2016-09-27T10:08:54Z</time>
      </trkpt>
      <trkpt lat="45.96239" lon="4.58513">
        <ele>522</ele>
        <time>2016-09-27T10:08:55Z</time>
      </trkpt>
      <trkpt lat="45.96244" lon="4.58513">
        <ele>522</ele>
        <time>2016-09-27T10:08:56Z</time>
      </trkpt>
      <trkpt lat="45.96248" lon="4.58514">
        <ele>522</ele>
        <time>2016-09-27T10:08:57Z</time>
      </trkpt>
      <trkpt lat="45.96253" lon="4.58515">
        <ele>523</ele>
        <time>2016-09-27T10:08:58Z</time>
      </trkpt>
      <trkpt lat="45.96258" lon="4.58516">
        <ele>523</ele>
        <time>2016-09-27T10:08:59Z</time>
      </trkpt>
      <trkpt lat="45.96262" lon="4.58519">
        <ele>524</ele>
        <time>2016-09-27T10:09:00Z</time>
      </trkpt>
      <trkpt lat="45.96268" lon="4.58522">
        <ele>525</ele>
        <time>2016-09-27T10:09:01Z</time>
      </trkpt>
      <trkpt lat="45.96274" lon="4.58526">
        <ele>526</ele>
        <time>2016-09-27T10:09:02Z</time>
      </trkpt>
      <trkpt lat="45.96278" lon="4.58528">
        <ele>526</ele>
        <time>2016-09-27T10:09:03Z</time>
      </trkpt>
      <trkpt lat="45.96283" lon="4.58529">
        <ele>526</ele>
        <time>2016-09-27T10:09:04Z</time>
      </trkpt>
      <trkpt lat="45.96288" lon="4.58532">
        <ele>526</ele>
        <time>2016-09-27T10:09:05Z</time>
      </trkpt>
      <trkpt lat="45.96293" lon="4.58534">
        <ele>526</ele>
        <time>2016-09-27T10:09:06Z</time>
      </trkpt>
      <trkpt lat="45.96299" lon="4.58537">
        <ele>527</ele>
        <time>2016-09-27T10:09:07Z</time>
      </trkpt>
      <trkpt lat="45.96304" lon="4.5854">
        <ele>527</ele>
        <time>2016-09-27T10:09:08Z</time>
      </trkpt>
      <trkpt lat="45.9631" lon="4.58543">
        <ele>527</ele>
        <time>2016-09-27T10:09:09Z</time>
      </trkpt>
      <trkpt lat="45.96315" lon="4.58545">
        <ele>528</ele>
        <time>2016-09-27T10:09:10Z</time>
      </trkpt>
      <trkpt lat="45.9632" lon="4.58547">
        <ele>528</ele>
        <time>2016-09-27T10:09:11Z</time>
      </trkpt>
      <trkpt lat="45.96325" lon="4.58549">
        <ele>528</ele>
        <time>2016-09-27T10:09:12Z</time>
      </trkpt>
      <trkpt lat="45.9633" lon="4.58549">
        <ele>528</ele>
        <time>2016-09-27T10:09:13Z</time>
      </trkpt>
      <trkpt lat="45.96335" lon="4.5855">
        <ele>532</ele>
        <time>2016-09-27T10:09:14Z</time>
      </trkpt>
      <trkpt lat="45.96339" lon="4.58549">
        <ele>532</ele>
        <time>2016-09-27T10:09:15Z</time>
      </trkpt>
      <trkpt lat="45.96346" lon="4.58549">
        <ele>532</ele>
        <time>2016-09-27T10:09:17Z</time>
      </trkpt>
      <trkpt lat="45.9635" lon="4.58548">
        <ele>532</ele>
        <time>2016-09-27T10:09:18Z</time>
      </trkpt>
      <trkpt lat="45.96357" lon="4.58543">
        <ele>532</ele>
        <time>2016-09-27T10:09:20Z</time>
      </trkpt>
      <trkpt lat="45.9636" lon="4.58541">
        <ele>532</ele>
        <time>2016-09-27T10:09:21Z</time>
      </trkpt>
      <trkpt lat="45.96367" lon="4.58535">
        <ele>532</ele>
        <time>2016-09-27T10:09:23Z</time>
      </trkpt>
      <trkpt lat="45.96371" lon="4.58532">
        <ele>532</ele>
        <time>2016-09-27T10:09:24Z</time>
      </trkpt>
      <trkpt lat="45.96375" lon="4.58529">
        <ele>532</ele>
        <time>2016-09-27T10:09:25Z</time>
      </trkpt>
      <trkpt lat="45.96379" lon="4.58525">
        <ele>532</ele>
        <time>2016-09-27T10:09:26Z</time>
      </trkpt>
      <trkpt lat="45.96383" lon="4.58521">
        <ele>532</ele>
        <time>2016-09-27T10:09:27Z</time>
      </trkpt>
      <trkpt lat="45.96388" lon="4.58516">
        <ele>532</ele>
        <time>2016-09-27T10:09:28Z</time>
      </trkpt>
      <trkpt lat="45.96392" lon="4.58511">
        <ele>533</ele>
        <time>2016-09-27T10:09:29Z</time>
      </trkpt>
      <trkpt lat="45.96396" lon="4.58506">
        <ele>533</ele>
        <time>2016-09-27T10:09:30Z</time>
      </trkpt>
      <trkpt lat="45.964" lon="4.58502">
        <ele>533</ele>
        <time>2016-09-27T10:09:31Z</time>
      </trkpt>
      <trkpt lat="45.96404" lon="4.58497">
        <ele>525</ele>
        <time>2016-09-27T10:09:32Z</time>
      </trkpt>
      <trkpt lat="45.96411" lon="4.5849">
        <ele>526</ele>
        <time>2016-09-27T10:09:34Z</time>
      </trkpt>
      <trkpt lat="45.96414" lon="4.58486">
        <ele>524</ele>
        <time>2016-09-27T10:09:35Z</time>
      </trkpt>
      <trkpt lat="45.9642" lon="4.58478">
        <ele>531</ele>
        <time>2016-09-27T10:09:37Z</time>
      </trkpt>
      <trkpt lat="45.96423" lon="4.58474">
        <ele>531</ele>
        <time>2016-09-27T10:09:38Z</time>
      </trkpt>
      <trkpt lat="45.96427" lon="4.58469">
        <ele>530</ele>
        <time>2016-09-27T10:09:39Z</time>
      </trkpt>
      <trkpt lat="45.9643" lon="4.58465">
        <ele>530</ele>
        <time>2016-09-27T10:09:40Z</time>
      </trkpt>
      <trkpt lat="45.96435" lon="4.58462">
        <ele>529</ele>
        <time>2016-09-27T10:09:41Z</time>
      </trkpt>
      <trkpt lat="45.96439" lon="4.58457">
        <ele>529</ele>
        <time>2016-09-27T10:09:42Z</time>
      </trkpt>
      <trkpt lat="45.96444" lon="4.58453">
        <ele>529</ele>
        <time>2016-09-27T10:09:43Z</time>
      </trkpt>
      <trkpt lat="45.96448" lon="4.58449">
        <ele>528</ele>
        <time>2016-09-27T10:09:44Z</time>
      </trkpt>
      <trkpt lat="45.96454" lon="4.5844">
        <ele>528</ele>
        <time>2016-09-27T10:09:46Z</time>
      </trkpt>
      <trkpt lat="45.96456" lon="4.58437">
        <ele>528</ele>
        <time>2016-09-27T10:09:47Z</time>
      </trkpt>
      <trkpt lat="45.96463" lon="4.5843">
        <ele>528</ele>
        <time>2016-09-27T10:09:49Z</time>
      </trkpt>
      <trkpt lat="45.96467" lon="4.58424">
        <ele>528</ele>
        <time>2016-09-27T10:09:50Z</time>
      </trkpt>
      <trkpt lat="45.96472" lon="4.5842">
        <ele>528</ele>
        <time>2016-09-27T10:09:51Z</time>
      </trkpt>
      <trkpt lat="45.96477" lon="4.58417">
        <ele>528</ele>
        <time>2016-09-27T10:09:52Z</time>
      </trkpt>
      <trkpt lat="45.96482" lon="4.58415">
        <ele>518</ele>
        <time>2016-09-27T10:09:53Z</time>
      </trkpt>
      <trkpt lat="45.96488" lon="4.58412">
        <ele>520</ele>
        <time>2016-09-27T10:09:54Z</time>
      </trkpt>
      <trkpt lat="45.96493" lon="4.58412">
        <ele>522</ele>
        <time>2016-09-27T10:09:55Z</time>
      </trkpt>
      <trkpt lat="45.96497" lon="4.58411">
        <ele>523</ele>
        <time>2016-09-27T10:09:56Z</time>
      </trkpt>
      <trkpt lat="45.96506" lon="4.58411">
        <ele>522</ele>
        <time>2016-09-27T10:09:58Z</time>
      </trkpt>
      <trkpt lat="45.9651" lon="4.58412">
        <ele>521</ele>
        <time>2016-09-27T10:09:59Z</time>
      </trkpt>
      <trkpt lat="45.96515" lon="4.58413">
        <ele>520</ele>
        <time>2016-09-27T10:10:00Z</time>
      </trkpt>
      <trkpt lat="45.9652" lon="4.58415">
        <ele>518</ele>
        <time>2016-09-27T10:10:01Z</time>
      </trkpt>
      <trkpt lat="45.96524" lon="4.58418">
        <ele>529</ele>
        <time>2016-09-27T10:10:02Z</time>
      </trkpt>
      <trkpt lat="45.96529" lon="4.5842">
        <ele>529</ele>
        <time>2016-09-27T10:10:03Z</time>
      </trkpt>
      <trkpt lat="45.96532" lon="4.58423">
        <ele>529</ele>
        <time>2016-09-27T10:10:04Z</time>
      </trkpt>
      <trkpt lat="45.96537" lon="4.58426">
        <ele>529</ele>
        <time>2016-09-27T10:10:05Z</time>
      </trkpt>
      <trkpt lat="45.96542" lon="4.58429">
        <ele>528</ele>
        <time>2016-09-27T10:10:06Z</time>
      </trkpt>
      <trkpt lat="45.96546" lon="4.58432">
        <ele>528</ele>
        <time>2016-09-27T10:10:07Z</time>
      </trkpt>
      <trkpt lat="45.9655" lon="4.58435">
        <ele>528</ele>
        <time>2016-09-27T10:10:08Z</time>
      </trkpt>
      <trkpt lat="45.96554" lon="4.58438">
        <ele>528</ele>
        <time>2016-09-27T10:10:09Z</time>
      </trkpt>
      <trkpt lat="45.96558" lon="4.58442">
        <ele>528</ele>
        <time>2016-09-27T10:10:10Z</time>
      </trkpt>
      <trkpt lat="45.96562" lon="4.58445">
        <ele>528</ele>
        <time>2016-09-27T10:10:11Z</time>
      </trkpt>
      <trkpt lat="45.96567" lon="4.58448">
        <ele>528</ele>
        <time>2016-09-27T10:10:12Z</time>
      </trkpt>
      <trkpt lat="45.96571" lon="4.58451">
        <ele>528</ele>
        <time>2016-09-27T10:10:13Z</time>
      </trkpt>
      <trkpt lat="45.96576" lon="4.58454">
        <ele>528</ele>
        <time>2016-09-27T10:10:14Z</time>
      </trkpt>
      <trkpt lat="45.96582" lon="4.58456">
        <ele>529</ele>
        <time>2016-09-27T10:10:15Z</time>
      </trkpt>
      <trkpt lat="45.96587" lon="4.5846">
        <ele>520</ele>
        <time>2016-09-27T10:10:16Z</time>
      </trkpt>
      <trkpt lat="45.96592" lon="4.58464">
        <ele>521</ele>
        <time>2016-09-27T10:10:17Z</time>
      </trkpt>
      <trkpt lat="45.96596" lon="4.58468">
        <ele>521</ele>
        <time>2016-09-27T10:10:18Z</time>
      </trkpt>
      <trkpt lat="45.96601" lon="4.58471">
        <ele>522</ele>
        <time>2016-09-27T10:10:19Z</time>
      </trkpt>
      <trkpt lat="45.96606" lon="4.58475">
        <ele>522</ele>
        <time>2016-09-27T10:10:20Z</time>
      </trkpt>
      <trkpt lat="45.9661" lon="4.58479">
        <ele>522</ele>
        <time>2016-09-27T10:10:21Z</time>
      </trkpt>
      <trkpt lat="45.96614" lon="4.58483">
        <ele>522</ele>
        <time>2016-09-27T10:10:22Z</time>
      </trkpt>
      <trkpt lat="45.96618" lon="4.58488">
        <ele>522</ele>
        <time>2016-09-27T10:10:23Z</time>
      </trkpt>
      <trkpt lat="45.96623" lon="4.58492">
        <ele>521</ele>
        <time>2016-09-27T10:10:24Z</time>
      </trkpt>
      <trkpt lat="45.96627" lon="4.58496">
        <ele>521</ele>
        <time>2016-09-27T10:10:25Z</time>
      </trkpt>
      <trkpt lat="45.96631" lon="4.58501">
        <ele>533</ele>
        <time>2016-09-27T10:10:26Z</time>
      </trkpt>
      <trkpt lat="45.96635" lon="4.58506">
        <ele>532</ele>
        <time>2016-09-27T10:10:27Z</time>
      </trkpt>
      <trkpt lat="45.96639" lon="4.58511">
        <ele>532</ele>
        <time>2016-09-27T10:10:28Z</time>
      </trkpt>
      <trkpt lat="45.96642" lon="4.58516">
        <ele>532</ele>
        <time>2016-09-27T10:10:29Z</time>
      </trkpt>
      <trkpt lat="45.96647" lon="4.58521">
        <ele>532</ele>
        <time>2016-09-27T10:10:30Z</time>
      </trkpt>
      <trkpt lat="45.96651" lon="4.58526">
        <ele>532</ele>
        <time>2016-09-27T10:10:31Z</time>
      </trkpt>
      <trkpt lat="45.96655" lon="4.5853">
        <ele>533</ele>
        <time>2016-09-27T10:10:32Z</time>
      </trkpt>
      <trkpt lat="45.9666" lon="4.58535">
        <ele>534</ele>
        <time>2016-09-27T10:10:33Z</time>
      </trkpt>
      <trkpt lat="45.96665" lon="4.58539">
        <ele>534</ele>
        <time>2016-09-27T10:10:34Z</time>
      </trkpt>
      <trkpt lat="45.96669" lon="4.58542">
        <ele>533</ele>
        <time>2016-09-27T10:10:35Z</time>
      </trkpt>
      <trkpt lat="45.96674" lon="4.58544">
        <ele>533</ele>
        <time>2016-09-27T10:10:36Z</time>
      </trkpt>
      <trkpt lat="45.96678" lon="4.58546">
        <ele>534</ele>
        <time>2016-09-27T10:10:37Z</time>
      </trkpt>
      <trkpt lat="45.96683" lon="4.58547">
        <ele>534</ele>
        <time>2016-09-27T10:10:38Z</time>
      </trkpt>
      <trkpt lat="45.96688" lon="4.58548">
        <ele>534</ele>
        <time>2016-09-27T10:10:39Z</time>
      </trkpt>
      <trkpt lat="45.96694" lon="4.58548">
        <ele>535</ele>
        <time>2016-09-27T10:10:40Z</time>
      </trkpt>
      <trkpt lat="45.96699" lon="4.58548">
        <ele>535</ele>
        <time>2016-09-27T10:10:41Z</time>
      </trkpt>
      <trkpt lat="45.96704" lon="4.58547">
        <ele>535</ele>
        <time>2016-09-27T10:10:42Z</time>
      </trkpt>
      <trkpt lat="45.9671" lon="4.58546">
        <ele>535</ele>
        <time>2016-09-27T10:10:43Z</time>
      </trkpt>
      <trkpt lat="45.96714" lon="4.58543">
        <ele>536</ele>
        <time>2016-09-27T10:10:44Z</time>
      </trkpt>
      <trkpt lat="45.96719" lon="4.5854">
        <ele>536</ele>
        <time>2016-09-27T10:10:45Z</time>
      </trkpt>
      <trkpt lat="45.96723" lon="4.58536">
        <ele>535</ele>
        <time>2016-09-27T10:10:46Z</time>
      </trkpt>
      <trkpt lat="45.96727" lon="4.58531">
        <ele>535</ele>
        <time>2016-09-27T10:10:47Z</time>
      </trkpt>
      <trkpt lat="45.96731" lon="4.58527">
        <ele>535</ele>
        <time>2016-09-27T10:10:48Z</time>
      </trkpt>
      <trkpt lat="45.96734" lon="4.58522">
        <ele>535</ele>
        <time>2016-09-27T10:10:49Z</time>
      </trkpt>
      <trkpt lat="45.96737" lon="4.58516">
        <ele>535</ele>
        <time>2016-09-27T10:10:50Z</time>
      </trkpt>
      <trkpt lat="45.9674" lon="4.5851">
        <ele>535</ele>
        <time>2016-09-27T10:10:51Z</time>
      </trkpt>
      <trkpt lat="45.96742" lon="4.58502">
        <ele>535</ele>
        <time>2016-09-27T10:10:52Z</time>
      </trkpt>
      <trkpt lat="45.96745" lon="4.58495">
        <ele>532</ele>
        <time>2016-09-27T10:10:53Z</time>
      </trkpt>
      <trkpt lat="45.96748" lon="4.58488">
        <ele>530</ele>
        <time>2016-09-27T10:10:54Z</time>
      </trkpt>
      <trkpt lat="45.96751" lon="4.58481">
        <ele>543</ele>
        <time>2016-09-27T10:10:55Z</time>
      </trkpt>
      <trkpt lat="45.96754" lon="4.58469">
        <ele>545</ele>
        <time>2016-09-27T10:10:57Z</time>
      </trkpt>
      <trkpt lat="45.96755" lon="4.58462">
        <ele>545</ele>
        <time>2016-09-27T10:10:58Z</time>
      </trkpt>
      <trkpt lat="45.96756" lon="4.58456">
        <ele>545</ele>
        <time>2016-09-27T10:10:59Z</time>
      </trkpt>
      <trkpt lat="45.96757" lon="4.58449">
        <ele>545</ele>
        <time>2016-09-27T10:11:00Z</time>
      </trkpt>
      <trkpt lat="45.96757" lon="4.58438">
        <ele>542</ele>
        <time>2016-09-27T10:11:02Z</time>
      </trkpt>
      <trkpt lat="45.96757" lon="4.58432">
        <ele>541</ele>
        <time>2016-09-27T10:11:03Z</time>
      </trkpt>
      <trkpt lat="45.96758" lon="4.58426">
        <ele>538</ele>
        <time>2016-09-27T10:11:04Z</time>
      </trkpt>
      <trkpt lat="45.96758" lon="4.58419">
        <ele>536</ele>
        <time>2016-09-27T10:11:05Z</time>
      </trkpt>
      <trkpt lat="45.96758" lon="4.58413">
        <ele>537</ele>
        <time>2016-09-27T10:11:06Z</time>
      </trkpt>
      <trkpt lat="45.96757" lon="4.58404">
        <ele>539</ele>
        <time>2016-09-27T10:11:07Z</time>
      </trkpt>
      <trkpt lat="45.96757" lon="4.58398">
        <ele>542</ele>
        <time>2016-09-27T10:11:08Z</time>
      </trkpt>
      <trkpt lat="45.96756" lon="4.58391">
        <ele>544</ele>
        <time>2016-09-27T10:11:09Z</time>
      </trkpt>
      <trkpt lat="45.96754" lon="4.58384">
        <ele>545</ele>
        <time>2016-09-27T10:11:10Z</time>
      </trkpt>
      <trkpt lat="45.96754" lon="4.58376">
        <ele>546</ele>
        <time>2016-09-27T10:11:11Z</time>
      </trkpt>
      <trkpt lat="45.96754" lon="4.58368">
        <ele>546</ele>
        <time>2016-09-27T10:11:12Z</time>
      </trkpt>
      <trkpt lat="45.96753" lon="4.58361">
        <ele>545</ele>
        <time>2016-09-27T10:11:13Z</time>
      </trkpt>
      <trkpt lat="45.96751" lon="4.58353">
        <ele>544</ele>
        <time>2016-09-27T10:11:14Z</time>
      </trkpt>
      <trkpt lat="45.9675" lon="4.58346">
        <ele>542</ele>
        <time>2016-09-27T10:11:15Z</time>
      </trkpt>
      <trkpt lat="45.96749" lon="4.5834">
        <ele>531</ele>
        <time>2016-09-27T10:11:16Z</time>
      </trkpt>
      <trkpt lat="45.96748" lon="4.58334">
        <ele>533</ele>
        <time>2016-09-27T10:11:17Z</time>
      </trkpt>
      <trkpt lat="45.96744" lon="4.58324">
        <ele>529</ele>
        <time>2016-09-27T10:11:19Z</time>
      </trkpt>
      <trkpt lat="45.96743" lon="4.58318">
        <ele>527</ele>
        <time>2016-09-27T10:11:20Z</time>
      </trkpt>
      <trkpt lat="45.9674" lon="4.58307">
        <ele>525</ele>
        <time>2016-09-27T10:11:22Z</time>
      </trkpt>
      <trkpt lat="45.96739" lon="4.58301">
        <ele>524</ele>
        <time>2016-09-27T10:11:23Z</time>
      </trkpt>
      <trkpt lat="45.96737" lon="4.58294">
        <ele>524</ele>
        <time>2016-09-27T10:11:24Z</time>
      </trkpt>
      <trkpt lat="45.96737" lon="4.58286">
        <ele>524</ele>
        <time>2016-09-27T10:11:25Z</time>
      </trkpt>
      <trkpt lat="45.96736" lon="4.58279">
        <ele>525</ele>
        <time>2016-09-27T10:11:26Z</time>
      </trkpt>
      <trkpt lat="45.96735" lon="4.58272">
        <ele>526</ele>
        <time>2016-09-27T10:11:27Z</time>
      </trkpt>
      <trkpt lat="45.96733" lon="4.58264">
        <ele>527</ele>
        <time>2016-09-27T10:11:28Z</time>
      </trkpt>
      <trkpt lat="45.96733" lon="4.58257">
        <ele>528</ele>
        <time>2016-09-27T10:11:29Z</time>
      </trkpt>
      <trkpt lat="45.96733" lon="4.5825">
        <ele>528</ele>
        <time>2016-09-27T10:11:30Z</time>
      </trkpt>
      <trkpt lat="45.96732" lon="4.58243">
        <ele>527</ele>
        <time>2016-09-27T10:11:31Z</time>
      </trkpt>
      <trkpt lat="45.96733" lon="4.58235">
        <ele>526</ele>
        <time>2016-09-27T10:11:32Z</time>
      </trkpt>
      <trkpt lat="45.96732" lon="4.58229">
        <ele>524</ele>
        <time>2016-09-27T10:11:33Z</time>
      </trkpt>
      <trkpt lat="45.96733" lon="4.58223">
        <ele>523</ele>
        <time>2016-09-27T10:11:34Z</time>
      </trkpt>
      <trkpt lat="45.96735" lon="4.58216">
        <ele>523</ele>
        <time>2016-09-27T10:11:35Z</time>
      </trkpt>
      <trkpt lat="45.96736" lon="4.58209">
        <ele>522</ele>
        <time>2016-09-27T10:11:36Z</time>
      </trkpt>
      <trkpt lat="45.96738" lon="4.58201">
        <ele>522</ele>
        <time>2016-09-27T10:11:37Z</time>
      </trkpt>
      <trkpt lat="45.9674" lon="4.58194">
        <ele>523</ele>
        <time>2016-09-27T10:11:38Z</time>
      </trkpt>
      <trkpt lat="45.96742" lon="4.58187">
        <ele>523</ele>
        <time>2016-09-27T10:11:39Z</time>
      </trkpt>
      <trkpt lat="45.96746" lon="4.58176">
        <ele>526</ele>
        <time>2016-09-27T10:11:41Z</time>
      </trkpt>
      <trkpt lat="45.96747" lon="4.5817">
        <ele>528</ele>
        <time>2016-09-27T10:11:42Z</time>
      </trkpt>
      <trkpt lat="45.96752" lon="4.58159">
        <ele>531</ele>
        <time>2016-09-27T10:11:44Z</time>
      </trkpt>
      <trkpt lat="45.96754" lon="4.58154">
        <ele>532</ele>
        <time>2016-09-27T10:11:45Z</time>
      </trkpt>
      <trkpt lat="45.96759" lon="4.58143">
        <ele>532</ele>
        <time>2016-09-27T10:11:47Z</time>
      </trkpt>
      <trkpt lat="45.96762" lon="4.58137">
        <ele>532</ele>
        <time>2016-09-27T10:11:48Z</time>
      </trkpt>
      <trkpt lat="45.96767" lon="4.58127">
        <ele>532</ele>
        <time>2016-09-27T10:11:50Z</time>
      </trkpt>
      <trkpt lat="45.96769" lon="4.58122">
        <ele>532</ele>
        <time>2016-09-27T10:11:51Z</time>
      </trkpt>
      <trkpt lat="45.96774" lon="4.58113">
        <ele>531</ele>
        <time>2016-09-27T10:11:53Z</time>
      </trkpt>
      <trkpt lat="45.96776" lon="4.58109">
        <ele>531</ele>
        <time>2016-09-27T10:11:54Z</time>
      </trkpt>
      <trkpt lat="45.96781" lon="4.58098">
        <ele>531</ele>
        <time>2016-09-27T10:11:56Z</time>
      </trkpt>
      <trkpt lat="45.96783" lon="4.58093">
        <ele>531</ele>
        <time>2016-09-27T10:11:57Z</time>
      </trkpt>
      <trkpt lat="45.96787" lon="4.58083">
        <ele>523</ele>
        <time>2016-09-27T10:11:59Z</time>
      </trkpt>
      <trkpt lat="45.96789" lon="4.58077">
        <ele>523</ele>
        <time>2016-09-27T10:12:00Z</time>
      </trkpt>
      <trkpt lat="45.96794" lon="4.58067">
        <ele>523</ele>
        <time>2016-09-27T10:12:02Z</time>
      </trkpt>
      <trkpt lat="45.96796" lon="4.58062">
        <ele>523</ele>
        <time>2016-09-27T10:12:03Z</time>
      </trkpt>
      <trkpt lat="45.96801" lon="4.58054">
        <ele>524</ele>
        <time>2016-09-27T10:12:05Z</time>
      </trkpt>
      <trkpt lat="45.96804" lon="4.5805">
        <ele>524</ele>
        <time>2016-09-27T10:12:06Z</time>
      </trkpt>
      <trkpt lat="45.9681" lon="4.58043">
        <ele>523</ele>
        <time>2016-09-27T10:12:08Z</time>
      </trkpt>
      <trkpt lat="45.96813" lon="4.58039">
        <ele>523</ele>
        <time>2016-09-27T10:12:09Z</time>
      </trkpt>
      <trkpt lat="45.9682" lon="4.58031">
        <ele>523</ele>
        <time>2016-09-27T10:12:11Z</time>
      </trkpt>
      <trkpt lat="45.96823" lon="4.58028">
        <ele>523</ele>
        <time>2016-09-27T10:12:12Z</time>
      </trkpt>
      <trkpt lat="45.9683" lon="4.58023">
        <ele>523</ele>
        <time>2016-09-27T10:12:14Z</time>
      </trkpt>
      <trkpt lat="45.96834" lon="4.58021">
        <ele>528</ele>
        <time>2016-09-27T10:12:15Z</time>
      </trkpt>
      <trkpt lat="45.96842" lon="4.58018">
        <ele>527</ele>
        <time>2016-09-27T10:12:17Z</time>
      </trkpt>
      <trkpt lat="45.96846" lon="4.58017">
        <ele>527</ele>
        <time>2016-09-27T10:12:18Z</time>
      </trkpt>
      <trkpt lat="45.96854" lon="4.58017">
        <ele>528</ele>
        <time>2016-09-27T10:12:20Z</time>
      </trkpt>
      <trkpt lat="45.96858" lon="4.58016">
        <ele>528</ele>
        <time>2016-09-27T10:12:21Z</time>
      </trkpt>
      <trkpt lat="45.96866" lon="4.58018">
        <ele>528</ele>
        <time>2016-09-27T10:12:23Z</time>
      </trkpt>
      <trkpt lat="45.96869" lon="4.58019">
        <ele>528</ele>
        <time>2016-09-27T10:12:24Z</time>
      </trkpt>
      <trkpt lat="45.96876" lon="4.58022">
        <ele>529</ele>
        <time>2016-09-27T10:12:26Z</time>
      </trkpt>
      <trkpt lat="45.9688" lon="4.58024">
        <ele>529</ele>
        <time>2016-09-27T10:12:27Z</time>
      </trkpt>
      <trkpt lat="45.96887" lon="4.58028">
        <ele>529</ele>
        <time>2016-09-27T10:12:29Z</time>
      </trkpt>
      <trkpt lat="45.9689" lon="4.58031">
        <ele>529</ele>
        <time>2016-09-27T10:12:30Z</time>
      </trkpt>
      <trkpt lat="45.96897" lon="4.58035">
        <ele>530</ele>
        <time>2016-09-27T10:12:32Z</time>
      </trkpt>
      <trkpt lat="45.96901" lon="4.58038">
        <ele>530</ele>
        <time>2016-09-27T10:12:33Z</time>
      </trkpt>
      <trkpt lat="45.96907" lon="4.58045">
        <ele>531</ele>
        <time>2016-09-27T10:12:35Z</time>
      </trkpt>
      <trkpt lat="45.9691" lon="4.58048">
        <ele>531</ele>
        <time>2016-09-27T10:12:36Z</time>
      </trkpt>
      <trkpt lat="45.96918" lon="4.58052">
        <ele>530</ele>
        <time>2016-09-27T10:12:38Z</time>
      </trkpt>
      <trkpt lat="45.96921" lon="4.58056">
        <ele>530</ele>
        <time>2016-09-27T10:12:39Z</time>
      </trkpt>
      <trkpt lat="45.96926" lon="4.58064">
        <ele>532</ele>
        <time>2016-09-27T10:12:41Z</time>
      </trkpt>
      <trkpt lat="45.9693" lon="4.58068">
        <ele>532</ele>
        <time>2016-09-27T10:12:42Z</time>
      </trkpt>
      <trkpt lat="45.96935" lon="4.58075">
        <ele>532</ele>
        <time>2016-09-27T10:12:44Z</time>
      </trkpt>
      <trkpt lat="45.96938" lon="4.58078">
        <ele>532</ele>
        <time>2016-09-27T10:12:45Z</time>
      </trkpt>
      <trkpt lat="45.96943" lon="4.58085">
        <ele>542</ele>
        <time>2016-09-27T10:12:47Z</time>
      </trkpt>
      <trkpt lat="45.96945" lon="4.58089">
        <ele>542</ele>
        <time>2016-09-27T10:12:48Z</time>
      </trkpt>
      <trkpt lat="45.96951" lon="4.58098">
        <ele>543</ele>
        <time>2016-09-27T10:12:51Z</time>
      </trkpt>
      <trkpt lat="45.96954" lon="4.58102">
        <ele>543</ele>
        <time>2016-09-27T10:12:52Z</time>
      </trkpt>
      <trkpt lat="45.96961" lon="4.58109">
        <ele>544</ele>
        <time>2016-09-27T10:12:54Z</time>
      </trkpt>
      <trkpt lat="45.96965" lon="4.58113">
        <ele>544</ele>
        <time>2016-09-27T10:12:55Z</time>
      </trkpt>
      <trkpt lat="45.96971" lon="4.58118">
        <ele>544</ele>
        <time>2016-09-27T10:12:57Z</time>
      </trkpt>
      <trkpt lat="45.96974" lon="4.58121">
        <ele>545</ele>
        <time>2016-09-27T10:12:58Z</time>
      </trkpt>
      <trkpt lat="45.96978" lon="4.58124">
        <ele>545</ele>
        <time>2016-09-27T10:12:59Z</time>
      </trkpt>
      <trkpt lat="45.96983" lon="4.58125">
        <ele>545</ele>
        <time>2016-09-27T10:13:00Z</time>
      </trkpt>
      <trkpt lat="45.9699" lon="4.58127">
        <ele>545</ele>
        <time>2016-09-27T10:13:02Z</time>
      </trkpt>
      <trkpt lat="45.96994" lon="4.58127">
        <ele>545</ele>
        <time>2016-09-27T10:13:03Z</time>
      </trkpt>
      <trkpt lat="45.97" lon="4.58125">
        <ele>545</ele>
        <time>2016-09-27T10:13:05Z</time>
      </trkpt>
      <trkpt lat="45.97003" lon="4.58124">
        <ele>547</ele>
        <time>2016-09-27T10:13:06Z</time>
      </trkpt>
      <trkpt lat="45.9701" lon="4.58121">
        <ele>546</ele>
        <time>2016-09-27T10:13:08Z</time>
      </trkpt>
      <trkpt lat="45.97013" lon="4.58118">
        <ele>546</ele>
        <time>2016-09-27T10:13:09Z</time>
      </trkpt>
      <trkpt lat="45.9702" lon="4.5811">
        <ele>545</ele>
        <time>2016-09-27T10:13:11Z</time>
      </trkpt>
      <trkpt lat="45.97023" lon="4.58105">
        <ele>545</ele>
        <time>2016-09-27T10:13:12Z</time>
      </trkpt>
      <trkpt lat="45.97028" lon="4.58101">
        <ele>545</ele>
        <time>2016-09-27T10:13:13Z</time>
      </trkpt>
      <trkpt lat="45.97031" lon="4.58097">
        <ele>545</ele>
        <time>2016-09-27T10:13:14Z</time>
      </trkpt>
      <trkpt lat="45.97037" lon="4.58088">
        <ele>545</ele>
        <time>2016-09-27T10:13:16Z</time>
      </trkpt>
      <trkpt lat="45.9704" lon="4.58085">
        <ele>545</ele>
        <time>2016-09-27T10:13:17Z</time>
      </trkpt>
      <trkpt lat="45.97047" lon="4.5808">
        <ele>534</ele>
        <time>2016-09-27T10:13:19Z</time>
      </trkpt>
      <trkpt lat="45.9705" lon="4.58077">
        <ele>535</ele>
        <time>2016-09-27T10:13:20Z</time>
      </trkpt>
      <trkpt lat="45.97057" lon="4.5807">
        <ele>535</ele>
        <time>2016-09-27T10:13:22Z</time>
      </trkpt>
      <trkpt lat="45.9706" lon="4.58067">
        <ele>535</ele>
        <time>2016-09-27T10:13:23Z</time>
      </trkpt>
      <trkpt lat="45.97066" lon="4.58059">
        <ele>535</ele>
        <time>2016-09-27T10:13:25Z</time>
      </trkpt>
      <trkpt lat="45.97069" lon="4.58055">
        <ele>535</ele>
        <time>2016-09-27T10:13:26Z</time>
      </trkpt>
      <trkpt lat="45.97075" lon="4.58047">
        <ele>534</ele>
        <time>2016-09-27T10:13:28Z</time>
      </trkpt>
      <trkpt lat="45.97077" lon="4.58044">
        <ele>533</ele>
        <time>2016-09-27T10:13:29Z</time>
      </trkpt>
      <trkpt lat="45.97083" lon="4.58038">
        <ele>533</ele>
        <time>2016-09-27T10:13:31Z</time>
      </trkpt>
      <trkpt lat="45.97086" lon="4.58034">
        <ele>538</ele>
        <time>2016-09-27T10:13:32Z</time>
      </trkpt>
      <trkpt lat="45.97093" lon="4.58028">
        <ele>537</ele>
        <time>2016-09-27T10:13:34Z</time>
      </trkpt>
      <trkpt lat="45.97097" lon="4.58026">
        <ele>537</ele>
        <time>2016-09-27T10:13:35Z</time>
      </trkpt>
      <trkpt lat="45.97105" lon="4.58022">
        <ele>537</ele>
        <time>2016-09-27T10:13:37Z</time>
      </trkpt>
      <trkpt lat="45.97109" lon="4.5802">
        <ele>537</ele>
        <time>2016-09-27T10:13:38Z</time>
      </trkpt>
      <trkpt lat="45.97118" lon="4.58017">
        <ele>537</ele>
        <time>2016-09-27T10:13:40Z</time>
      </trkpt>
      <trkpt lat="45.97122" lon="4.58017">
        <ele>537</ele>
        <time>2016-09-27T10:13:41Z</time>
      </trkpt>
      <trkpt lat="45.97127" lon="4.58016">
        <ele>537</ele>
        <time>2016-09-27T10:13:42Z</time>
      </trkpt>
      <trkpt lat="45.97131" lon="4.58016">
        <ele>537</ele>
        <time>2016-09-27T10:13:43Z</time>
      </trkpt>
      <trkpt lat="45.97139" lon="4.58017">
        <ele>537</ele>
        <time>2016-09-27T10:13:45Z</time>
      </trkpt>
      <trkpt lat="45.97144" lon="4.58018">
        <ele>537</ele>
        <time>2016-09-27T10:13:46Z</time>
      </trkpt>
      <trkpt lat="45.97149" lon="4.5802">
        <ele>537</ele>
        <time>2016-09-27T10:13:47Z</time>
      </trkpt>
      <trkpt lat="45.97153" lon="4.58022">
        <ele>537</ele>
        <time>2016-09-27T10:13:48Z</time>
      </trkpt>
      <trkpt lat="45.97162" lon="4.58025">
        <ele>537</ele>
        <time>2016-09-27T10:13:50Z</time>
      </trkpt>
      <trkpt lat="45.97165" lon="4.58028">
        <ele>538</ele>
        <time>2016-09-27T10:13:51Z</time>
      </trkpt>
      <trkpt lat="45.97172" lon="4.58034">
        <ele>537</ele>
        <time>2016-09-27T10:13:53Z</time>
      </trkpt>
      <trkpt lat="45.97175" lon="4.58037">
        <ele>538</ele>
        <time>2016-09-27T10:13:54Z</time>
      </trkpt>
      <trkpt lat="45.97183" lon="4.58041">
        <ele>538</ele>
        <time>2016-09-27T10:13:56Z</time>
      </trkpt>
      <trkpt lat="45.97186" lon="4.58044">
        <ele>538</ele>
        <time>2016-09-27T10:13:57Z</time>
      </trkpt>
      <trkpt lat="45.97192" lon="4.5805">
        <ele>539</ele>
        <time>2016-09-27T10:13:59Z</time>
      </trkpt>
      <trkpt lat="45.97196" lon="4.5805">
        <ele>539</ele>
        <time>2016-09-27T10:14:00Z</time>
      </trkpt>
      <trkpt lat="45.97203" lon="4.58057">
        <ele>539</ele>
        <time>2016-09-27T10:14:02Z</time>
      </trkpt>
      <trkpt lat="45.97206" lon="4.58061">
        <ele>539</ele>
        <time>2016-09-27T10:14:03Z</time>
      </trkpt>
      <trkpt lat="45.97212" lon="4.58068">
        <ele>540</ele>
        <time>2016-09-27T10:14:05Z</time>
      </trkpt>
      <trkpt lat="45.97215" lon="4.58072">
        <ele>540</ele>
        <time>2016-09-27T10:14:06Z</time>
      </trkpt>
      <trkpt lat="45.97221" lon="4.58081">
        <ele>540</ele>
        <time>2016-09-27T10:14:08Z</time>
      </trkpt>
      <trkpt lat="45.97224" lon="4.58086">
        <ele>551</ele>
        <time>2016-09-27T10:14:09Z</time>
      </trkpt>
      <trkpt lat="45.97228" lon="4.58091">
        <ele>551</ele>
        <time>2016-09-27T10:14:10Z</time>
      </trkpt>
      <trkpt lat="45.97232" lon="4.58095">
        <ele>551</ele>
        <time>2016-09-27T10:14:11Z</time>
      </trkpt>
      <trkpt lat="45.97235" lon="4.58099">
        <ele>551</ele>
        <time>2016-09-27T10:14:12Z</time>
      </trkpt>
      <trkpt lat="45.97239" lon="4.58103">
        <ele>551</ele>
        <time>2016-09-27T10:14:13Z</time>
      </trkpt>
      <trkpt lat="45.97246" lon="4.58109">
        <ele>552</ele>
        <time>2016-09-27T10:14:15Z</time>
      </trkpt>
      <trkpt lat="45.9725" lon="4.58111">
        <ele>552</ele>
        <time>2016-09-27T10:14:16Z</time>
      </trkpt>
      <trkpt lat="45.97257" lon="4.58113">
        <ele>551</ele>
        <time>2016-09-27T10:14:18Z</time>
      </trkpt>
      <trkpt lat="45.9726" lon="4.58114">
        <ele>552</ele>
        <time>2016-09-27T10:14:19Z</time>
      </trkpt>
      <trkpt lat="45.97268" lon="4.58115">
        <ele>552</ele>
        <time>2016-09-27T10:14:21Z</time>
      </trkpt>
      <trkpt lat="45.97272" lon="4.58117">
        <ele>552</ele>
        <time>2016-09-27T10:14:22Z</time>
      </trkpt>
      <trkpt lat="45.97276" lon="4.58117">
        <ele>552</ele>
        <time>2016-09-27T10:14:23Z</time>
      </trkpt>
      <trkpt lat="45.97281" lon="4.58118">
        <ele>553</ele>
        <time>2016-09-27T10:14:24Z</time>
      </trkpt>
      <trkpt lat="45.97285" lon="4.58116">
        <ele>552</ele>
        <time>2016-09-27T10:14:25Z</time>
      </trkpt>
      <trkpt lat="45.9729" lon="4.58115">
        <ele>552</ele>
        <time>2016-09-27T10:14:26Z</time>
      </trkpt>
      <trkpt lat="45.97295" lon="4.58106">
        <ele>551</ele>
        <time>2016-09-27T10:14:28Z</time>
      </trkpt>
      <trkpt lat="45.97298" lon="4.58103">
        <ele>551</ele>
        <time>2016-09-27T10:14:29Z</time>
      </trkpt>
      <trkpt lat="45.97305" lon="4.58095">
        <ele>550</ele>
        <time>2016-09-27T10:14:31Z</time>
      </trkpt>
      <trkpt lat="45.97309" lon="4.58092">
        <ele>550</ele>
        <time>2016-09-27T10:14:32Z</time>
      </trkpt>
      <trkpt lat="45.97313" lon="4.58087">
        <ele>549</ele>
        <time>2016-09-27T10:14:33Z</time>
      </trkpt>
      <trkpt lat="45.97316" lon="4.58083">
        <ele>539</ele>
        <time>2016-09-27T10:14:34Z</time>
      </trkpt>
      <trkpt lat="45.97322" lon="4.58075">
        <ele>540</ele>
        <time>2016-09-27T10:14:36Z</time>
      </trkpt>
      <trkpt lat="45.97325" lon="4.58071">
        <ele>539</ele>
        <time>2016-09-27T10:14:37Z</time>
      </trkpt>
      <trkpt lat="45.97332" lon="4.58066">
        <ele>538</ele>
        <time>2016-09-27T10:14:39Z</time>
      </trkpt>
      <trkpt lat="45.97335" lon="4.58063">
        <ele>539</ele>
        <time>2016-09-27T10:14:40Z</time>
      </trkpt>
      <trkpt lat="45.97342" lon="4.58058">
        <ele>538</ele>
        <time>2016-09-27T10:14:42Z</time>
      </trkpt>
      <trkpt lat="45.97346" lon="4.58056">
        <ele>537</ele>
        <time>2016-09-27T10:14:43Z</time>
      </trkpt>
      <trkpt lat="45.97351" lon="4.58052">
        <ele>536</ele>
        <time>2016-09-27T10:14:45Z</time>
      </trkpt>
      <trkpt lat="45.97355" lon="4.58051">
        <ele>536</ele>
        <time>2016-09-27T10:14:46Z</time>
      </trkpt>
      <trkpt lat="45.97363" lon="4.5805">
        <ele>536</ele>
        <time>2016-09-27T10:14:48Z</time>
      </trkpt>
      <trkpt lat="45.97367" lon="4.5805">
        <ele>536</ele>
        <time>2016-09-27T10:14:49Z</time>
      </trkpt>
      <trkpt lat="45.97375" lon="4.58052">
        <ele>537</ele>
        <time>2016-09-27T10:14:51Z</time>
      </trkpt>
      <trkpt lat="45.97379" lon="4.58053">
        <ele>537</ele>
        <time>2016-09-27T10:14:52Z</time>
      </trkpt>
      <trkpt lat="45.97384" lon="4.58055">
        <ele>537</ele>
        <time>2016-09-27T10:14:53Z</time>
      </trkpt>
      <trkpt lat="45.97388" lon="4.58057">
        <ele>537</ele>
        <time>2016-09-27T10:14:54Z</time>
      </trkpt>
      <trkpt lat="45.97392" lon="4.58059">
        <ele>538</ele>
        <time>2016-09-27T10:14:55Z</time>
      </trkpt>
      <trkpt lat="45.97396" lon="4.58062">
        <ele>538</ele>
        <time>2016-09-27T10:14:56Z</time>
      </trkpt>
      <trkpt lat="45.97401" lon="4.58065">
        <ele>539</ele>
        <time>2016-09-27T10:14:57Z</time>
      </trkpt>
      <trkpt lat="45.97405" lon="4.58069">
        <ele>540</ele>
        <time>2016-09-27T10:14:58Z</time>
      </trkpt>
      <trkpt lat="45.97409" lon="4.58072">
        <ele>541</ele>
        <time>2016-09-27T10:14:59Z</time>
      </trkpt>
      <trkpt lat="45.97413" lon="4.58076">
        <ele>542</ele>
        <time>2016-09-27T10:15:00Z</time>
      </trkpt>
      <trkpt lat="45.97416" lon="4.5808">
        <ele>543</ele>
        <time>2016-09-27T10:15:01Z</time>
      </trkpt>
      <trkpt lat="45.9742" lon="4.58084">
        <ele>544</ele>
        <time>2016-09-27T10:15:02Z</time>
      </trkpt>
      <trkpt lat="45.97426" lon="4.5809">
        <ele>545</ele>
        <time>2016-09-27T10:15:04Z</time>
      </trkpt>
      <trkpt lat="45.97429" lon="4.58094">
        <ele>545</ele>
        <time>2016-09-27T10:15:05Z</time>
      </trkpt>
      <trkpt lat="45.97436" lon="4.58101">
        <ele>545</ele>
        <time>2016-09-27T10:15:07Z</time>
      </trkpt>
      <trkpt lat="45.97439" lon="4.58104">
        <ele>545</ele>
        <time>2016-09-27T10:15:08Z</time>
      </trkpt>
      <trkpt lat="45.97446" lon="4.58112">
        <ele>546</ele>
        <time>2016-09-27T10:15:10Z</time>
      </trkpt>
      <trkpt lat="45.97449" lon="4.58115">
        <ele>546</ele>
        <time>2016-09-27T10:15:11Z</time>
      </trkpt>
      <trkpt lat="45.97453" lon="4.58118">
        <ele>546</ele>
        <time>2016-09-27T10:15:12Z</time>
      </trkpt>
      <trkpt lat="45.97457" lon="4.58121">
        <ele>546</ele>
        <time>2016-09-27T10:15:13Z</time>
      </trkpt>
      <trkpt lat="45.97461" lon="4.58124">
        <ele>546</ele>
        <time>2016-09-27T10:15:14Z</time>
      </trkpt>
      <trkpt lat="45.97466" lon="4.58127">
        <ele>546</ele>
        <time>2016-09-27T10:15:15Z</time>
      </trkpt>
      <trkpt lat="45.97473" lon="4.58134">
        <ele>546</ele>
        <time>2016-09-27T10:15:17Z</time>
      </trkpt>
      <trkpt lat="45.97477" lon="4.58136">
        <ele>546</ele>
        <time>2016-09-27T10:15:18Z</time>
      </trkpt>
      <trkpt lat="45.97485" lon="4.58141">
        <ele>547</ele>
        <time>2016-09-27T10:15:20Z</time>
      </trkpt>
      <trkpt lat="45.97489" lon="4.58144">
        <ele>547</ele>
        <time>2016-09-27T10:15:21Z</time>
      </trkpt>
      <trkpt lat="45.97497" lon="4.58148">
        <ele>548</ele>
        <time>2016-09-27T10:15:23Z</time>
      </trkpt>
      <trkpt lat="45.97501" lon="4.5815">
        <ele>544</ele>
        <time>2016-09-27T10:15:24Z</time>
      </trkpt>
      <trkpt lat="45.97509" lon="4.58154">
        <ele>544</ele>
        <time>2016-09-27T10:15:26Z</time>
      </trkpt>
      <trkpt lat="45.97513" lon="4.58156">
        <ele>544</ele>
        <time>2016-09-27T10:15:27Z</time>
      </trkpt>
      <trkpt lat="45.97521" lon="4.58159">
        <ele>543</ele>
        <time>2016-09-27T10:15:29Z</time>
      </trkpt>
      <trkpt lat="45.97526" lon="4.58161">
        <ele>542</ele>
        <time>2016-09-27T10:15:30Z</time>
      </trkpt>
      <trkpt lat="45.97534" lon="4.58166">
        <ele>541</ele>
        <time>2016-09-27T10:15:32Z</time>
      </trkpt>
      <trkpt lat="45.97538" lon="4.58168">
        <ele>550</ele>
        <time>2016-09-27T10:15:33Z</time>
      </trkpt>
      <trkpt lat="45.97543" lon="4.58169">
        <ele>550</ele>
        <time>2016-09-27T10:15:34Z</time>
      </trkpt>
      <trkpt lat="45.97548" lon="4.58171">
        <ele>549</ele>
        <time>2016-09-27T10:15:35Z</time>
      </trkpt>
      <trkpt lat="45.97552" lon="4.58172">
        <ele>549</ele>
        <time>2016-09-27T10:15:36Z</time>
      </trkpt>
      <trkpt lat="45.97557" lon="4.58174">
        <ele>548</ele>
        <time>2016-09-27T10:15:37Z</time>
      </trkpt>
      <trkpt lat="45.97566" lon="4.58175">
        <ele>547</ele>
        <time>2016-09-27T10:15:39Z</time>
      </trkpt>
      <trkpt lat="45.9757" lon="4.58175">
        <ele>546</ele>
        <time>2016-09-27T10:15:40Z</time>
      </trkpt>
      <trkpt lat="45.97578" lon="4.58176">
        <ele>545</ele>
        <time>2016-09-27T10:15:42Z</time>
      </trkpt>
      <trkpt lat="45.97582" lon="4.58176">
        <ele>545</ele>
        <time>2016-09-27T10:15:43Z</time>
      </trkpt>
      <trkpt lat="45.97589" lon="4.58179">
        <ele>544</ele>
        <time>2016-09-27T10:15:45Z</time>
      </trkpt>
      <trkpt lat="45.97592" lon="4.58181">
        <ele>545</ele>
        <time>2016-09-27T10:15:46Z</time>
      </trkpt>
      <trkpt lat="45.976" lon="4.58182">
        <ele>545</ele>
        <time>2016-09-27T10:15:48Z</time>
      </trkpt>
      <trkpt lat="45.97604" lon="4.58182">
        <ele>545</ele>
        <time>2016-09-27T10:15:49Z</time>
      </trkpt>
      <trkpt lat="45.97612" lon="4.58181">
        <ele>546</ele>
        <time>2016-09-27T10:15:51Z</time>
      </trkpt>
      <trkpt lat="45.97616" lon="4.58181">
        <ele>546</ele>
        <time>2016-09-27T10:15:52Z</time>
      </trkpt>
      <trkpt lat="45.97624" lon="4.58181">
        <ele>546</ele>
        <time>2016-09-27T10:15:54Z</time>
      </trkpt>
      <trkpt lat="45.97628" lon="4.58182">
        <ele>546</ele>
        <time>2016-09-27T10:15:55Z</time>
      </trkpt>
      <trkpt lat="45.97636" lon="4.58183">
        <ele>546</ele>
        <time>2016-09-27T10:15:57Z</time>
      </trkpt>
      <trkpt lat="45.9764" lon="4.58184">
        <ele>546</ele>
        <time>2016-09-27T10:15:58Z</time>
      </trkpt>
      <trkpt lat="45.97648" lon="4.58185">
        <ele>546</ele>
        <time>2016-09-27T10:16:00Z</time>
      </trkpt>
      <trkpt lat="45.97652" lon="4.58187">
        <ele>546</ele>
        <time>2016-09-27T10:16:01Z</time>
      </trkpt>
      <trkpt lat="45.9766" lon="4.58188">
        <ele>546</ele>
        <time>2016-09-27T10:16:03Z</time>
      </trkpt>
      <trkpt lat="45.97664" lon="4.58187">
        <ele>545</ele>
        <time>2016-09-27T10:16:04Z</time>
      </trkpt>
      <trkpt lat="45.97669" lon="4.58188">
        <ele>545</ele>
        <time>2016-09-27T10:16:05Z</time>
      </trkpt>
      <trkpt lat="45.97674" lon="4.58189">
        <ele>546</ele>
        <time>2016-09-27T10:16:06Z</time>
      </trkpt>
      <trkpt lat="45.97682" lon="4.58191">
        <ele>546</ele>
        <time>2016-09-27T10:16:08Z</time>
      </trkpt>
      <trkpt lat="45.97686" lon="4.58192">
        <ele>546</ele>
        <time>2016-09-27T10:16:09Z</time>
      </trkpt>
      <trkpt lat="45.97694" lon="4.58195">
        <ele>547</ele>
        <time>2016-09-27T10:16:11Z</time>
      </trkpt>
      <trkpt lat="45.97698" lon="4.58197">
        <ele>547</ele>
        <time>2016-09-27T10:16:12Z</time>
      </trkpt>
      <trkpt lat="45.97705" lon="4.582">
        <ele>547</ele>
        <time>2016-09-27T10:16:14Z</time>
      </trkpt>
      <trkpt lat="45.97709" lon="4.58202">
        <ele>547</ele>
        <time>2016-09-27T10:16:15Z</time>
      </trkpt>
      <trkpt lat="45.97717" lon="4.58206">
        <ele>547</ele>
        <time>2016-09-27T10:16:17Z</time>
      </trkpt>
      <trkpt lat="45.9772" lon="4.58207">
        <ele>547</ele>
        <time>2016-09-27T10:16:18Z</time>
      </trkpt>
      <trkpt lat="45.97727" lon="4.58211">
        <ele>548</ele>
        <time>2016-09-27T10:16:20Z</time>
      </trkpt>
      <trkpt lat="45.9773" lon="4.58213">
        <ele>548</ele>
        <time>2016-09-27T10:16:21Z</time>
      </trkpt>
      <trkpt lat="45.97738" lon="4.58218">
        <ele>548</ele>
        <time>2016-09-27T10:16:23Z</time>
      </trkpt>
      <trkpt lat="45.97742" lon="4.58221">
        <ele>548</ele>
        <time>2016-09-27T10:16:24Z</time>
      </trkpt>
      <trkpt lat="45.9775" lon="4.58226">
        <ele>549</ele>
        <time>2016-09-27T10:16:26Z</time>
      </trkpt>
      <trkpt lat="45.97753" lon="4.58229">
        <ele>549</ele>
        <time>2016-09-27T10:16:27Z</time>
      </trkpt>
      <trkpt lat="45.9776" lon="4.58235">
        <ele>550</ele>
        <time>2016-09-27T10:16:29Z</time>
      </trkpt>
      <trkpt lat="45.97763" lon="4.58238">
        <ele>550</ele>
        <time>2016-09-27T10:16:30Z</time>
      </trkpt>
      <trkpt lat="45.9777" lon="4.58244">
        <ele>550</ele>
        <time>2016-09-27T10:16:32Z</time>
      </trkpt>
      <trkpt lat="45.97773" lon="4.58248">
        <ele>550</ele>
        <time>2016-09-27T10:16:33Z</time>
      </trkpt>
      <trkpt lat="45.9778" lon="4.58255">
        <ele>551</ele>
        <time>2016-09-27T10:16:35Z</time>
      </trkpt>
      <trkpt lat="45.97783" lon="4.58259">
        <ele>551</ele>
        <time>2016-09-27T10:16:36Z</time>
      </trkpt>
      <trkpt lat="45.97789" lon="4.58266">
        <ele>551</ele>
        <time>2016-09-27T10:16:38Z</time>
      </trkpt>
      <trkpt lat="45.97792" lon="4.5827">
        <ele>551</ele>
        <time>2016-09-27T10:16:39Z</time>
      </trkpt>
      <trkpt lat="45.97797" lon="4.58278">
        <ele>551</ele>
        <time>2016-09-27T10:16:41Z</time>
      </trkpt>
      <trkpt lat="45.97799" lon="4.58282">
        <ele>551</ele>
        <time>2016-09-27T10:16:42Z</time>
      </trkpt>
      <trkpt lat="45.97803" lon="4.5829">
        <ele>551</ele>
        <time>2016-09-27T10:16:44Z</time>
      </trkpt>
      <trkpt lat="45.97804" lon="4.58295">
        <ele>551</ele>
        <time>2016-09-27T10:16:45Z</time>
      </trkpt>
      <trkpt lat="45.97806" lon="4.58304">
        <ele>551</ele>
        <time>2016-09-27T10:16:47Z</time>
      </trkpt>
      <trkpt lat="45.97807" lon="4.58309">
        <ele>551</ele>
        <time>2016-09-27T10:16:48Z</time>
      </trkpt>
      <trkpt lat="45.97809" lon="4.58316">
        <ele>551</ele>
        <time>2016-09-27T10:16:50Z</time>
      </trkpt>
      <trkpt lat="45.9781" lon="4.58321">
        <ele>551</ele>
        <time>2016-09-27T10:16:51Z</time>
      </trkpt>
      <trkpt lat="45.97812" lon="4.5833">
        <ele>551</ele>
        <time>2016-09-27T10:16:53Z</time>
      </trkpt>
      <trkpt lat="45.97813" lon="4.58334">
        <ele>551</ele>
        <time>2016-09-27T10:16:54Z</time>
      </trkpt>
      <trkpt lat="45.97817" lon="4.58344">
        <ele>551</ele>
        <time>2016-09-27T10:16:57Z</time>
      </trkpt>
      <trkpt lat="45.97819" lon="4.58348">
        <ele>551</ele>
        <time>2016-09-27T10:16:58Z</time>
      </trkpt>
      <trkpt lat="45.97823" lon="4.58359">
        <ele>551</ele>
        <time>2016-09-27T10:17:01Z</time>
      </trkpt>
      <trkpt lat="45.97823" lon="4.58364">
        <ele>551</ele>
        <time>2016-09-27T10:17:02Z</time>
      </trkpt>
      <trkpt lat="45.97824" lon="4.58374">
        <ele>551</ele>
        <time>2016-09-27T10:17:04Z</time>
      </trkpt>
      <trkpt lat="45.97824" lon="4.58378">
        <ele>551</ele>
        <time>2016-09-27T10:17:05Z</time>
      </trkpt>
      <trkpt lat="45.97825" lon="4.58388">
        <ele>551</ele>
        <time>2016-09-27T10:17:07Z</time>
      </trkpt>
      <trkpt lat="45.97824" lon="4.58393">
        <ele>551</ele>
        <time>2016-09-27T10:17:08Z</time>
      </trkpt>
      <trkpt lat="45.97823" lon="4.58404">
        <ele>551</ele>
        <time>2016-09-27T10:17:10Z</time>
      </trkpt>
      <trkpt lat="45.97822" lon="4.58409">
        <ele>551</ele>
        <time>2016-09-27T10:17:11Z</time>
      </trkpt>
      <trkpt lat="45.97822" lon="4.58416">
        <ele>551</ele>
        <time>2016-09-27T10:17:12Z</time>
      </trkpt>
      <trkpt lat="45.97822" lon="4.58423">
        <ele>550</ele>
        <time>2016-09-27T10:17:13Z</time>
      </trkpt>
      <trkpt lat="45.97822" lon="4.58431">
        <ele>550</ele>
        <time>2016-09-27T10:17:14Z</time>
      </trkpt>
      <trkpt lat="45.97822" lon="4.58439">
        <ele>549</ele>
        <time>2016-09-27T10:17:15Z</time>
      </trkpt>
      <trkpt lat="45.97822" lon="4.58447">
        <ele>549</ele>
        <time>2016-09-27T10:17:16Z</time>
      </trkpt>
      <trkpt lat="45.97822" lon="4.58456">
        <ele>549</ele>
        <time>2016-09-27T10:17:17Z</time>
      </trkpt>
      <trkpt lat="45.97822" lon="4.58466">
        <ele>548</ele>
        <time>2016-09-27T10:17:18Z</time>
      </trkpt>
      <trkpt lat="45.97822" lon="4.58476">
        <ele>548</ele>
        <time>2016-09-27T10:17:19Z</time>
      </trkpt>
      <trkpt lat="45.97822" lon="4.58486">
        <ele>547</ele>
        <time>2016-09-27T10:17:20Z</time>
      </trkpt>
      <trkpt lat="45.97822" lon="4.58497">
        <ele>546</ele>
        <time>2016-09-27T10:17:21Z</time>
      </trkpt>
      <trkpt lat="45.97824" lon="4.58508">
        <ele>545</ele>
        <time>2016-09-27T10:17:22Z</time>
      </trkpt>
      <trkpt lat="45.97826" lon="4.58519">
        <ele>544</ele>
        <time>2016-09-27T10:17:23Z</time>
      </trkpt>
      <trkpt lat="45.9783" lon="4.58529">
        <ele>544</ele>
        <time>2016-09-27T10:17:24Z</time>
      </trkpt>
      <trkpt lat="45.97836" lon="4.58539">
        <ele>541</ele>
        <time>2016-09-27T10:17:25Z</time>
      </trkpt>
      <trkpt lat="45.97843" lon="4.58547">
        <ele>541</ele>
        <time>2016-09-27T10:17:26Z</time>
      </trkpt>
      <trkpt lat="45.97852" lon="4.58551">
        <ele>540</ele>
        <time>2016-09-27T10:17:27Z</time>
      </trkpt>
      <trkpt lat="45.97861" lon="4.58553">
        <ele>540</ele>
        <time>2016-09-27T10:17:28Z</time>
      </trkpt>
      <trkpt lat="45.97871" lon="4.58553">
        <ele>540</ele>
        <time>2016-09-27T10:17:29Z</time>
      </trkpt>
      <trkpt lat="45.97881" lon="4.58553">
        <ele>540</ele>
        <time>2016-09-27T10:17:30Z</time>
      </trkpt>
      <trkpt lat="45.97891" lon="4.58552">
        <ele>540</ele>
        <time>2016-09-27T10:17:31Z</time>
      </trkpt>
      <trkpt lat="45.979" lon="4.58552">
        <ele>539</ele>
        <time>2016-09-27T10:17:32Z</time>
      </trkpt>
      <trkpt lat="45.97911" lon="4.58553">
        <ele>539</ele>
        <time>2016-09-27T10:17:33Z</time>
      </trkpt>
      <trkpt lat="45.97921" lon="4.58552">
        <ele>536</ele>
        <time>2016-09-27T10:17:34Z</time>
      </trkpt>
      <trkpt lat="45.97931" lon="4.58551">
        <ele>536</ele>
        <time>2016-09-27T10:17:35Z</time>
      </trkpt>
      <trkpt lat="45.97941" lon="4.58551">
        <ele>536</ele>
        <time>2016-09-27T10:17:36Z</time>
      </trkpt>
      <trkpt lat="45.97952" lon="4.58551">
        <ele>535</ele>
        <time>2016-09-27T10:17:37Z</time>
      </trkpt>
      <trkpt lat="45.97962" lon="4.5855">
        <ele>535</ele>
        <time>2016-09-27T10:17:38Z</time>
      </trkpt>
      <trkpt lat="45.97972" lon="4.5855">
        <ele>534</ele>
        <time>2016-09-27T10:17:39Z</time>
      </trkpt>
      <trkpt lat="45.97982" lon="4.58551">
        <ele>534</ele>
        <time>2016-09-27T10:17:40Z</time>
      </trkpt>
      <trkpt lat="45.97993" lon="4.5855">
        <ele>534</ele>
        <time>2016-09-27T10:17:41Z</time>
      </trkpt>
      <trkpt lat="45.98003" lon="4.5855">
        <ele>530</ele>
        <time>2016-09-27T10:17:42Z</time>
      </trkpt>
      <trkpt lat="45.98014" lon="4.5855">
        <ele>530</ele>
        <time>2016-09-27T10:17:43Z</time>
      </trkpt>
      <trkpt lat="45.98024" lon="4.5855">
        <ele>530</ele>
        <time>2016-09-27T10:17:44Z</time>
      </trkpt>
      <trkpt lat="45.98035" lon="4.5855">
        <ele>529</ele>
        <time>2016-09-27T10:17:45Z</time>
      </trkpt>
      <trkpt lat="45.98045" lon="4.5855">
        <ele>529</ele>
        <time>2016-09-27T10:17:46Z</time>
      </trkpt>
      <trkpt lat="45.98056" lon="4.58552">
        <ele>529</ele>
        <time>2016-09-27T10:17:47Z</time>
      </trkpt>
      <trkpt lat="45.98066" lon="4.58556">
        <ele>528</ele>
        <time>2016-09-27T10:17:48Z</time>
      </trkpt>
      <trkpt lat="45.98077" lon="4.58558">
        <ele>527</ele>
        <time>2016-09-27T10:17:49Z</time>
      </trkpt>
      <trkpt lat="45.98088" lon="4.58561">
        <ele>525</ele>
        <time>2016-09-27T10:17:50Z</time>
      </trkpt>
      <trkpt lat="45.98099" lon="4.58563">
        <ele>524</ele>
        <time>2016-09-27T10:17:51Z</time>
      </trkpt>
      <trkpt lat="45.9811" lon="4.58566">
        <ele>524</ele>
        <time>2016-09-27T10:17:52Z</time>
      </trkpt>
      <trkpt lat="45.98122" lon="4.58568">
        <ele>524</ele>
        <time>2016-09-27T10:17:53Z</time>
      </trkpt>
      <trkpt lat="45.98134" lon="4.5857">
        <ele>524</ele>
        <time>2016-09-27T10:17:54Z</time>
      </trkpt>
      <trkpt lat="45.98146" lon="4.58572">
        <ele>523</ele>
        <time>2016-09-27T10:17:55Z</time>
      </trkpt>
      <trkpt lat="45.98157" lon="4.58573">
        <ele>521</ele>
        <time>2016-09-27T10:17:56Z</time>
      </trkpt>
      <trkpt lat="45.98169" lon="4.58576">
        <ele>520</ele>
        <time>2016-09-27T10:17:57Z</time>
      </trkpt>
      <trkpt lat="45.98181" lon="4.58578">
        <ele>521</ele>
        <time>2016-09-27T10:17:58Z</time>
      </trkpt>
      <trkpt lat="45.98193" lon="4.5858">
        <ele>521</ele>
        <time>2016-09-27T10:17:59Z</time>
      </trkpt>
      <trkpt lat="45.98205" lon="4.58582">
        <ele>522</ele>
        <time>2016-09-27T10:18:00Z</time>
      </trkpt>
      <trkpt lat="45.98217" lon="4.58584">
        <ele>515</ele>
        <time>2016-09-27T10:18:01Z</time>
      </trkpt>
      <trkpt lat="45.98229" lon="4.58586">
        <ele>515</ele>
        <time>2016-09-27T10:18:02Z</time>
      </trkpt>
      <trkpt lat="45.9824" lon="4.5859">
        <ele>516</ele>
        <time>2016-09-27T10:18:03Z</time>
      </trkpt>
      <trkpt lat="45.98252" lon="4.58591">
        <ele>515</ele>
        <time>2016-09-27T10:18:04Z</time>
      </trkpt>
      <trkpt lat="45.98264" lon="4.58592">
        <ele>514</ele>
        <time>2016-09-27T10:18:05Z</time>
      </trkpt>
      <trkpt lat="45.98275" lon="4.58592">
        <ele>512</ele>
        <time>2016-09-27T10:18:06Z</time>
      </trkpt>
      <trkpt lat="45.98287" lon="4.58592">
        <ele>511</ele>
        <time>2016-09-27T10:18:07Z</time>
      </trkpt>
      <trkpt lat="45.98298" lon="4.58591">
        <ele>510</ele>
        <time>2016-09-27T10:18:08Z</time>
      </trkpt>
      <trkpt lat="45.98308" lon="4.5859">
        <ele>510</ele>
        <time>2016-09-27T10:18:09Z</time>
      </trkpt>
      <trkpt lat="45.98318" lon="4.58589">
        <ele>510</ele>
        <time>2016-09-27T10:18:10Z</time>
      </trkpt>
      <trkpt lat="45.98328" lon="4.58588">
        <ele>510</ele>
        <time>2016-09-27T10:18:11Z</time>
      </trkpt>
      <trkpt lat="45.98337" lon="4.58586">
        <ele>509</ele>
        <time>2016-09-27T10:18:12Z</time>
      </trkpt>
      <trkpt lat="45.98345" lon="4.58585">
        <ele>507</ele>
        <time>2016-09-27T10:18:13Z</time>
      </trkpt>
      <trkpt lat="45.98353" lon="4.58583">
        <ele>510</ele>
        <time>2016-09-27T10:18:14Z</time>
      </trkpt>
      <trkpt lat="45.98359" lon="4.58581">
        <ele>510</ele>
        <time>2016-09-27T10:18:15Z</time>
      </trkpt>
      <trkpt lat="45.98366" lon="4.58582">
        <ele>510</ele>
        <time>2016-09-27T10:18:16Z</time>
      </trkpt>
      <trkpt lat="45.98373" lon="4.58584">
        <ele>504</ele>
        <time>2016-09-27T10:18:17Z</time>
      </trkpt>
      <trkpt lat="45.98378" lon="4.58589">
        <ele>504</ele>
        <time>2016-09-27T10:18:18Z</time>
      </trkpt>
      <trkpt lat="45.98383" lon="4.58594">
        <ele>504</ele>
        <time>2016-09-27T10:18:19Z</time>
      </trkpt>
      <trkpt lat="45.98385" lon="4.58603">
        <ele>503</ele>
        <time>2016-09-27T10:18:20Z</time>
      </trkpt>
      <trkpt lat="45.98384" lon="4.58613">
        <ele>503</ele>
        <time>2016-09-27T10:18:21Z</time>
      </trkpt>
      <trkpt lat="45.9838" lon="4.58623">
        <ele>503</ele>
        <time>2016-09-27T10:18:22Z</time>
      </trkpt>
      <trkpt lat="45.98375" lon="4.58631">
        <ele>502</ele>
        <time>2016-09-27T10:18:23Z</time>
      </trkpt>
      <trkpt lat="45.98369" lon="4.58637">
        <ele>502</ele>
        <time>2016-09-27T10:18:24Z</time>
      </trkpt>
      <trkpt lat="45.98362" lon="4.58642">
        <ele>502</ele>
        <time>2016-09-27T10:18:25Z</time>
      </trkpt>
      <trkpt lat="45.98355" lon="4.58647">
        <ele>503</ele>
        <time>2016-09-27T10:18:26Z</time>
      </trkpt>
      <trkpt lat="45.98348" lon="4.58652">
        <ele>502</ele>
        <time>2016-09-27T10:18:27Z</time>
      </trkpt>
      <trkpt lat="45.98341" lon="4.58657">
        <ele>502</ele>
        <time>2016-09-27T10:18:28Z</time>
      </trkpt>
      <trkpt lat="45.98334" lon="4.58663">
        <ele>502</ele>
        <time>2016-09-27T10:18:29Z</time>
      </trkpt>
      <trkpt lat="45.98327" lon="4.58669">
        <ele>501</ele>
        <time>2016-09-27T10:18:30Z</time>
      </trkpt>
      <trkpt lat="45.9832" lon="4.58676">
        <ele>500</ele>
        <time>2016-09-27T10:18:31Z</time>
      </trkpt>
      <trkpt lat="45.98313" lon="4.58682">
        <ele>500</ele>
        <time>2016-09-27T10:18:32Z</time>
      </trkpt>
      <trkpt lat="45.98306" lon="4.58688">
        <ele>500</ele>
        <time>2016-09-27T10:18:33Z</time>
      </trkpt>
      <trkpt lat="45.98298" lon="4.58694">
        <ele>499</ele>
        <time>2016-09-27T10:18:34Z</time>
      </trkpt>
      <trkpt lat="45.9829" lon="4.58701">
        <ele>499</ele>
        <time>2016-09-27T10:18:35Z</time>
      </trkpt>
      <trkpt lat="45.98283" lon="4.58707">
        <ele>499</ele>
        <time>2016-09-27T10:18:36Z</time>
      </trkpt>
      <trkpt lat="45.98275" lon="4.58714">
        <ele>498</ele>
        <time>2016-09-27T10:18:37Z</time>
      </trkpt>
      <trkpt lat="45.98267" lon="4.5872">
        <ele>498</ele>
        <time>2016-09-27T10:18:38Z</time>
      </trkpt>
      <trkpt lat="45.98259" lon="4.58727">
        <ele>497</ele>
        <time>2016-09-27T10:18:39Z</time>
      </trkpt>
      <trkpt lat="45.98251" lon="4.58734">
        <ele>496</ele>
        <time>2016-09-27T10:18:40Z</time>
      </trkpt>
      <trkpt lat="45.98242" lon="4.5874">
        <ele>497</ele>
        <time>2016-09-27T10:18:41Z</time>
      </trkpt>
      <trkpt lat="45.98234" lon="4.58748">
        <ele>498</ele>
        <time>2016-09-27T10:18:42Z</time>
      </trkpt>
      <trkpt lat="45.98226" lon="4.58755">
        <ele>493</ele>
        <time>2016-09-27T10:18:43Z</time>
      </trkpt>
      <trkpt lat="45.98218" lon="4.58762">
        <ele>493</ele>
        <time>2016-09-27T10:18:44Z</time>
      </trkpt>
      <trkpt lat="45.98209" lon="4.58769">
        <ele>493</ele>
        <time>2016-09-27T10:18:45Z</time>
      </trkpt>
      <trkpt lat="45.98201" lon="4.58776">
        <ele>493</ele>
        <time>2016-09-27T10:18:46Z</time>
      </trkpt>
      <trkpt lat="45.98192" lon="4.58783">
        <ele>493</ele>
        <time>2016-09-27T10:18:47Z</time>
      </trkpt>
      <trkpt lat="45.98184" lon="4.5879">
        <ele>493</ele>
        <time>2016-09-27T10:18:48Z</time>
      </trkpt>
      <trkpt lat="45.98174" lon="4.58796">
        <ele>492</ele>
        <time>2016-09-27T10:18:49Z</time>
      </trkpt>
      <trkpt lat="45.98166" lon="4.58803">
        <ele>494</ele>
        <time>2016-09-27T10:18:50Z</time>
      </trkpt>
      <trkpt lat="45.98157" lon="4.58811">
        <ele>493</ele>
        <time>2016-09-27T10:18:51Z</time>
      </trkpt>
      <trkpt lat="45.98149" lon="4.58818">
        <ele>493</ele>
        <time>2016-09-27T10:18:52Z</time>
      </trkpt>
      <trkpt lat="45.98141" lon="4.58825">
        <ele>493</ele>
        <time>2016-09-27T10:18:53Z</time>
      </trkpt>
      <trkpt lat="45.98132" lon="4.58833">
        <ele>493</ele>
        <time>2016-09-27T10:18:54Z</time>
      </trkpt>
      <trkpt lat="45.98123" lon="4.5884">
        <ele>486</ele>
        <time>2016-09-27T10:18:55Z</time>
      </trkpt>
      <trkpt lat="45.98115" lon="4.58848">
        <ele>486</ele>
        <time>2016-09-27T10:18:56Z</time>
      </trkpt>
      <trkpt lat="45.98107" lon="4.58858">
        <ele>486</ele>
        <time>2016-09-27T10:18:57Z</time>
      </trkpt>
      <trkpt lat="45.98101" lon="4.58871">
        <ele>485</ele>
        <time>2016-09-27T10:18:58Z</time>
      </trkpt>
      <trkpt lat="45.98096" lon="4.58883">
        <ele>485</ele>
        <time>2016-09-27T10:18:59Z</time>
      </trkpt>
      <trkpt lat="45.98097" lon="4.58901">
        <ele>484</ele>
        <time>2016-09-27T10:19:00Z</time>
      </trkpt>
      <trkpt lat="45.98098" lon="4.58916">
        <ele>484</ele>
        <time>2016-09-27T10:19:01Z</time>
      </trkpt>
      <trkpt lat="45.981" lon="4.58932">
        <ele>479</ele>
        <time>2016-09-27T10:19:02Z</time>
      </trkpt>
      <trkpt lat="45.98101" lon="4.58947">
        <ele>477</ele>
        <time>2016-09-27T10:19:03Z</time>
      </trkpt>
      <trkpt lat="45.98102" lon="4.58963">
        <ele>476</ele>
        <time>2016-09-27T10:19:04Z</time>
      </trkpt>
      <trkpt lat="45.98101" lon="4.58979">
        <ele>476</ele>
        <time>2016-09-27T10:19:05Z</time>
      </trkpt>
      <trkpt lat="45.98099" lon="4.58994">
        <ele>477</ele>
        <time>2016-09-27T10:19:06Z</time>
      </trkpt>
      <trkpt lat="45.98096" lon="4.59009">
        <ele>473</ele>
        <time>2016-09-27T10:19:07Z</time>
      </trkpt>
      <trkpt lat="45.98092" lon="4.59023">
        <ele>472</ele>
        <time>2016-09-27T10:19:08Z</time>
      </trkpt>
      <trkpt lat="45.98088" lon="4.59037">
        <ele>471</ele>
        <time>2016-09-27T10:19:09Z</time>
      </trkpt>
      <trkpt lat="45.98082" lon="4.59051">
        <ele>479</ele>
        <time>2016-09-27T10:19:10Z</time>
      </trkpt>
      <trkpt lat="45.98077" lon="4.59064">
        <ele>478</ele>
        <time>2016-09-27T10:19:11Z</time>
      </trkpt>
      <trkpt lat="45.98071" lon="4.59077">
        <ele>477</ele>
        <time>2016-09-27T10:19:12Z</time>
      </trkpt>
      <trkpt lat="45.98065" lon="4.5909">
        <ele>473</ele>
        <time>2016-09-27T10:19:13Z</time>
      </trkpt>
      <trkpt lat="45.98059" lon="4.59102">
        <ele>473</ele>
        <time>2016-09-27T10:19:14Z</time>
      </trkpt>
      <trkpt lat="45.98052" lon="4.59114">
        <ele>472</ele>
        <time>2016-09-27T10:19:15Z</time>
      </trkpt>
      <trkpt lat="45.98045" lon="4.59126">
        <ele>472</ele>
        <time>2016-09-27T10:19:16Z</time>
      </trkpt>
      <trkpt lat="45.98037" lon="4.59137">
        <ele>471</ele>
        <time>2016-09-27T10:19:17Z</time>
      </trkpt>
      <trkpt lat="45.98029" lon="4.59148">
        <ele>471</ele>
        <time>2016-09-27T10:19:18Z</time>
      </trkpt>
      <trkpt lat="45.9802" lon="4.59157">
        <ele>470</ele>
        <time>2016-09-27T10:19:19Z</time>
      </trkpt>
      <trkpt lat="45.98011" lon="4.59167">
        <ele>466</ele>
        <time>2016-09-27T10:19:20Z</time>
      </trkpt>
      <trkpt lat="45.98001" lon="4.59175">
        <ele>466</ele>
        <time>2016-09-27T10:19:21Z</time>
      </trkpt>
      <trkpt lat="45.97991" lon="4.59183">
        <ele>471</ele>
        <time>2016-09-27T10:19:22Z</time>
      </trkpt>
      <trkpt lat="45.97981" lon="4.59191">
        <ele>471</ele>
        <time>2016-09-27T10:19:23Z</time>
      </trkpt>
      <trkpt lat="45.97973" lon="4.59201">
        <ele>472</ele>
        <time>2016-09-27T10:19:24Z</time>
      </trkpt>
      <trkpt lat="45.97967" lon="4.59214">
        <ele>472</ele>
        <time>2016-09-27T10:19:25Z</time>
      </trkpt>
      <trkpt lat="45.97962" lon="4.59226">
        <ele>472</ele>
        <time>2016-09-27T10:19:26Z</time>
      </trkpt>
      <trkpt lat="45.97959" lon="4.5924">
        <ele>472</ele>
        <time>2016-09-27T10:19:27Z</time>
      </trkpt>
      <trkpt lat="45.9796" lon="4.59256">
        <ele>469</ele>
        <time>2016-09-27T10:19:28Z</time>
      </trkpt>
      <trkpt lat="45.97962" lon="4.59272">
        <ele>469</ele>
        <time>2016-09-27T10:19:29Z</time>
      </trkpt>
      <trkpt lat="45.97965" lon="4.59286">
        <ele>468</ele>
        <time>2016-09-27T10:19:30Z</time>
      </trkpt>
      <trkpt lat="45.97969" lon="4.593">
        <ele>467</ele>
        <time>2016-09-27T10:19:31Z</time>
      </trkpt>
      <trkpt lat="45.97973" lon="4.59314">
        <ele>466</ele>
        <time>2016-09-27T10:19:32Z</time>
      </trkpt>
      <trkpt lat="45.97976" lon="4.59329">
        <ele>465</ele>
        <time>2016-09-27T10:19:33Z</time>
      </trkpt>
      <trkpt lat="45.97978" lon="4.59343">
        <ele>463</ele>
        <time>2016-09-27T10:19:34Z</time>
      </trkpt>
      <trkpt lat="45.9798" lon="4.59357">
        <ele>463</ele>
        <time>2016-09-27T10:19:35Z</time>
      </trkpt>
      <trkpt lat="45.97983" lon="4.59371">
        <ele>463</ele>
        <time>2016-09-27T10:19:36Z</time>
      </trkpt>
      <trkpt lat="45.97984" lon="4.59384">
        <ele>463</ele>
        <time>2016-09-27T10:19:37Z</time>
      </trkpt>
      <trkpt lat="45.97983" lon="4.59399">
        <ele>462</ele>
        <time>2016-09-27T10:19:38Z</time>
      </trkpt>
      <trkpt lat="45.97981" lon="4.59413">
        <ele>461</ele>
        <time>2016-09-27T10:19:39Z</time>
      </trkpt>
      <trkpt lat="45.97977" lon="4.59426">
        <ele>458</ele>
        <time>2016-09-27T10:19:40Z</time>
      </trkpt>
      <trkpt lat="45.97971" lon="4.59439">
        <ele>459</ele>
        <time>2016-09-27T10:19:41Z</time>
      </trkpt>
      <trkpt lat="45.97965" lon="4.5945">
        <ele>459</ele>
        <time>2016-09-27T10:19:42Z</time>
      </trkpt>
      <trkpt lat="45.9796" lon="4.59462">
        <ele>459</ele>
        <time>2016-09-27T10:19:43Z</time>
      </trkpt>
      <trkpt lat="45.97955" lon="4.59474">
        <ele>458</ele>
        <time>2016-09-27T10:19:44Z</time>
      </trkpt>
      <trkpt lat="45.9795" lon="4.59487">
        <ele>458</ele>
        <time>2016-09-27T10:19:45Z</time>
      </trkpt>
      <trkpt lat="45.97948" lon="4.59502">
        <ele>451</ele>
        <time>2016-09-27T10:19:46Z</time>
      </trkpt>
      <trkpt lat="45.97946" lon="4.59517">
        <ele>451</ele>
        <time>2016-09-27T10:19:47Z</time>
      </trkpt>
      <trkpt lat="45.97944" lon="4.59532">
        <ele>449</ele>
        <time>2016-09-27T10:19:48Z</time>
      </trkpt>
      <trkpt lat="45.97942" lon="4.59546">
        <ele>448</ele>
        <time>2016-09-27T10:19:49Z</time>
      </trkpt>
      <trkpt lat="45.97939" lon="4.59561">
        <ele>447</ele>
        <time>2016-09-27T10:19:50Z</time>
      </trkpt>
      <trkpt lat="45.97935" lon="4.59575">
        <ele>447</ele>
        <time>2016-09-27T10:19:51Z</time>
      </trkpt>
      <trkpt lat="45.97929" lon="4.59587">
        <ele>443</ele>
        <time>2016-09-27T10:19:52Z</time>
      </trkpt>
      <trkpt lat="45.97922" lon="4.59597">
        <ele>442</ele>
        <time>2016-09-27T10:19:53Z</time>
      </trkpt>
      <trkpt lat="45.97912" lon="4.59603">
        <ele>446</ele>
        <time>2016-09-27T10:19:54Z</time>
      </trkpt>
      <trkpt lat="45.97902" lon="4.59609">
        <ele>446</ele>
        <time>2016-09-27T10:19:55Z</time>
      </trkpt>
      <trkpt lat="45.97891" lon="4.59612">
        <ele>446</ele>
        <time>2016-09-27T10:19:56Z</time>
      </trkpt>
      <trkpt lat="45.9788" lon="4.59616">
        <ele>446</ele>
        <time>2016-09-27T10:19:57Z</time>
      </trkpt>
      <trkpt lat="45.9787" lon="4.5962">
        <ele>447</ele>
        <time>2016-09-27T10:19:58Z</time>
      </trkpt>
      <trkpt lat="45.97859" lon="4.59625">
        <ele>447</ele>
        <time>2016-09-27T10:19:59Z</time>
      </trkpt>
      <trkpt lat="45.97849" lon="4.59631">
        <ele>446</ele>
        <time>2016-09-27T10:20:00Z</time>
      </trkpt>
      <trkpt lat="45.97839" lon="4.59638">
        <ele>445</ele>
        <time>2016-09-27T10:20:01Z</time>
      </trkpt>
      <trkpt lat="45.9783" lon="4.59647">
        <ele>447</ele>
        <time>2016-09-27T10:20:02Z</time>
      </trkpt>
      <trkpt lat="45.97822" lon="4.59656">
        <ele>446</ele>
        <time>2016-09-27T10:20:03Z</time>
      </trkpt>
      <trkpt lat="45.97813" lon="4.59665">
        <ele>447</ele>
        <time>2016-09-27T10:20:04Z</time>
      </trkpt>
      <trkpt lat="45.97805" lon="4.59678">
        <ele>441</ele>
        <time>2016-09-27T10:20:05Z</time>
      </trkpt>
      <trkpt lat="45.97798" lon="4.59691">
        <ele>441</ele>
        <time>2016-09-27T10:20:06Z</time>
      </trkpt>
      <trkpt lat="45.97793" lon="4.59705">
        <ele>441</ele>
        <time>2016-09-27T10:20:07Z</time>
      </trkpt>
      <trkpt lat="45.97788" lon="4.59719">
        <ele>440</ele>
        <time>2016-09-27T10:20:08Z</time>
      </trkpt>
      <trkpt lat="45.97785" lon="4.59734">
        <ele>440</ele>
        <time>2016-09-27T10:20:09Z</time>
      </trkpt>
      <trkpt lat="45.97783" lon="4.59749">
        <ele>440</ele>
        <time>2016-09-27T10:20:10Z</time>
      </trkpt>
      <trkpt lat="45.97782" lon="4.59765">
        <ele>436</ele>
        <time>2016-09-27T10:20:11Z</time>
      </trkpt>
      <trkpt lat="45.9778" lon="4.5978">
        <ele>435</ele>
        <time>2016-09-27T10:20:12Z</time>
      </trkpt>
      <trkpt lat="45.97778" lon="4.59795">
        <ele>435</ele>
        <time>2016-09-27T10:20:13Z</time>
      </trkpt>
      <trkpt lat="45.97776" lon="4.59811">
        <ele>435</ele>
        <time>2016-09-27T10:20:14Z</time>
      </trkpt>
      <trkpt lat="45.97774" lon="4.59827">
        <ele>435</ele>
        <time>2016-09-27T10:20:15Z</time>
      </trkpt>
      <trkpt lat="45.97773" lon="4.59842">
        <ele>432</ele>
        <time>2016-09-27T10:20:16Z</time>
      </trkpt>
      <trkpt lat="45.97771" lon="4.59858">
        <ele>431</ele>
        <time>2016-09-27T10:20:17Z</time>
      </trkpt>
      <trkpt lat="45.9777" lon="4.59874">
        <ele>430</ele>
        <time>2016-09-27T10:20:18Z</time>
      </trkpt>
      <trkpt lat="45.97769" lon="4.5989">
        <ele>430</ele>
        <time>2016-09-27T10:20:19Z</time>
      </trkpt>
      <trkpt lat="45.97767" lon="4.59903">
        <ele>430</ele>
        <time>2016-09-27T10:20:20Z</time>
      </trkpt>
      <trkpt lat="45.97766" lon="4.59918">
        <ele>427</ele>
        <time>2016-09-27T10:20:21Z</time>
      </trkpt>
      <trkpt lat="45.97764" lon="4.59934">
        <ele>426</ele>
        <time>2016-09-27T10:20:22Z</time>
      </trkpt>
      <trkpt lat="45.97761" lon="4.5995">
        <ele>425</ele>
        <time>2016-09-27T10:20:23Z</time>
      </trkpt>
      <trkpt lat="45.97759" lon="4.59966">
        <ele>425</ele>
        <time>2016-09-27T10:20:24Z</time>
      </trkpt>
      <trkpt lat="45.97757" lon="4.59982">
        <ele>424</ele>
        <time>2016-09-27T10:20:25Z</time>
      </trkpt>
      <trkpt lat="45.97755" lon="4.59999">
        <ele>425</ele>
        <time>2016-09-27T10:20:26Z</time>
      </trkpt>
      <trkpt lat="45.97753" lon="4.60015">
        <ele>421</ele>
        <time>2016-09-27T10:20:27Z</time>
      </trkpt>
      <trkpt lat="45.97751" lon="4.60031">
        <ele>420</ele>
        <time>2016-09-27T10:20:28Z</time>
      </trkpt>
      <trkpt lat="45.97748" lon="4.60046">
        <ele>424</ele>
        <time>2016-09-27T10:20:29Z</time>
      </trkpt>
      <trkpt lat="45.97746" lon="4.60062">
        <ele>423</ele>
        <time>2016-09-27T10:20:30Z</time>
      </trkpt>
      <trkpt lat="45.97743" lon="4.60077">
        <ele>421</ele>
        <time>2016-09-27T10:20:31Z</time>
      </trkpt>
      <trkpt lat="45.9774" lon="4.60092">
        <ele>420</ele>
        <time>2016-09-27T10:20:32Z</time>
      </trkpt>
      <trkpt lat="45.97736" lon="4.60106">
        <ele>420</ele>
        <time>2016-09-27T10:20:33Z</time>
      </trkpt>
      <trkpt lat="45.97733" lon="4.6012">
        <ele>420</ele>
        <time>2016-09-27T10:20:34Z</time>
      </trkpt>
      <trkpt lat="45.97729" lon="4.60133">
        <ele>419</ele>
        <time>2016-09-27T10:20:35Z</time>
      </trkpt>
      <trkpt lat="45.97725" lon="4.60146">
        <ele>419</ele>
        <time>2016-09-27T10:20:36Z</time>
      </trkpt>
      <trkpt lat="45.97721" lon="4.60159">
        <ele>419</ele>
        <time>2016-09-27T10:20:37Z</time>
      </trkpt>
      <trkpt lat="45.97717" lon="4.60172">
        <ele>417</ele>
        <time>2016-09-27T10:20:38Z</time>
      </trkpt>
      <trkpt lat="45.97713" lon="4.60184">
        <ele>417</ele>
        <time>2016-09-27T10:20:39Z</time>
      </trkpt>
      <trkpt lat="45.97709" lon="4.60196">
        <ele>417</ele>
        <time>2016-09-27T10:20:40Z</time>
      </trkpt>
      <trkpt lat="45.97705" lon="4.60208">
        <ele>417</ele>
        <time>2016-09-27T10:20:41Z</time>
      </trkpt>
      <trkpt lat="45.97702" lon="4.6022">
        <ele>417</ele>
        <time>2016-09-27T10:20:42Z</time>
      </trkpt>
      <trkpt lat="45.97698" lon="4.60232">
        <ele>417</ele>
        <time>2016-09-27T10:20:43Z</time>
      </trkpt>
      <trkpt lat="45.97694" lon="4.60244">
        <ele>417</ele>
        <time>2016-09-27T10:20:44Z</time>
      </trkpt>
      <trkpt lat="45.9769" lon="4.60256">
        <ele>415</ele>
        <time>2016-09-27T10:20:45Z</time>
      </trkpt>
      <trkpt lat="45.97686" lon="4.60268">
        <ele>415</ele>
        <time>2016-09-27T10:20:46Z</time>
      </trkpt>
      <trkpt lat="45.97682" lon="4.6028">
        <ele>414</ele>
        <time>2016-09-27T10:20:47Z</time>
      </trkpt>
      <trkpt lat="45.97678" lon="4.60292">
        <ele>414</ele>
        <time>2016-09-27T10:20:48Z</time>
      </trkpt>
      <trkpt lat="45.97674" lon="4.60304">
        <ele>413</ele>
        <time>2016-09-27T10:20:49Z</time>
      </trkpt>
      <trkpt lat="45.97671" lon="4.60316">
        <ele>413</ele>
        <time>2016-09-27T10:20:50Z</time>
      </trkpt>
      <trkpt lat="45.97667" lon="4.60328">
        <ele>413</ele>
        <time>2016-09-27T10:20:51Z</time>
      </trkpt>
      <trkpt lat="45.97663" lon="4.6034">
        <ele>413</ele>
        <time>2016-09-27T10:20:52Z</time>
      </trkpt>
      <trkpt lat="45.97659" lon="4.60352">
        <ele>414</ele>
        <time>2016-09-27T10:20:53Z</time>
      </trkpt>
      <trkpt lat="45.97655" lon="4.60364">
        <ele>414</ele>
        <time>2016-09-27T10:20:54Z</time>
      </trkpt>
      <trkpt lat="45.97652" lon="4.60376">
        <ele>413</ele>
        <time>2016-09-27T10:20:55Z</time>
      </trkpt>
      <trkpt lat="45.97648" lon="4.60388">
        <ele>413</ele>
        <time>2016-09-27T10:20:56Z</time>
      </trkpt>
      <trkpt lat="45.97644" lon="4.604">
        <ele>413</ele>
        <time>2016-09-27T10:20:57Z</time>
      </trkpt>
      <trkpt lat="45.97641" lon="4.60411">
        <ele>412</ele>
        <time>2016-09-27T10:20:58Z</time>
      </trkpt>
      <trkpt lat="45.97637" lon="4.60423">
        <ele>410</ele>
        <time>2016-09-27T10:20:59Z</time>
      </trkpt>
      <trkpt lat="45.97633" lon="4.60434">
        <ele>410</ele>
        <time>2016-09-27T10:21:00Z</time>
      </trkpt>
      <trkpt lat="45.97629" lon="4.60446">
        <ele>410</ele>
        <time>2016-09-27T10:21:01Z</time>
      </trkpt>
      <trkpt lat="45.97625" lon="4.60457">
        <ele>410</ele>
        <time>2016-09-27T10:21:02Z</time>
      </trkpt>
      <trkpt lat="45.9762" lon="4.60467">
        <ele>409</ele>
        <time>2016-09-27T10:21:03Z</time>
      </trkpt>
      <trkpt lat="45.97615" lon="4.60478">
        <ele>409</ele>
        <time>2016-09-27T10:21:04Z</time>
      </trkpt>
      <trkpt lat="45.97609" lon="4.60488">
        <ele>409</ele>
        <time>2016-09-27T10:21:05Z</time>
      </trkpt>
      <trkpt lat="45.97604" lon="4.60498">
        <ele>410</ele>
        <time>2016-09-27T10:21:06Z</time>
      </trkpt>
      <trkpt lat="45.97599" lon="4.60509">
        <ele>407</ele>
        <time>2016-09-27T10:21:07Z</time>
      </trkpt>
      <trkpt lat="45.97593" lon="4.6052">
        <ele>406</ele>
        <time>2016-09-27T10:21:08Z</time>
      </trkpt>
      <trkpt lat="45.97588" lon="4.60531">
        <ele>406</ele>
        <time>2016-09-27T10:21:09Z</time>
      </trkpt>
      <trkpt lat="45.97582" lon="4.60542">
        <ele>406</ele>
        <time>2016-09-27T10:21:10Z</time>
      </trkpt>
      <trkpt lat="45.97577" lon="4.60553">
        <ele>405</ele>
        <time>2016-09-27T10:21:11Z</time>
      </trkpt>
      <trkpt lat="45.97571" lon="4.60564">
        <ele>405</ele>
        <time>2016-09-27T10:21:12Z</time>
      </trkpt>
      <trkpt lat="45.97565" lon="4.60575">
        <ele>404</ele>
        <time>2016-09-27T10:21:13Z</time>
      </trkpt>
      <trkpt lat="45.97559" lon="4.60586">
        <ele>402</ele>
        <time>2016-09-27T10:21:14Z</time>
      </trkpt>
      <trkpt lat="45.97553" lon="4.60597">
        <ele>402</ele>
        <time>2016-09-27T10:21:15Z</time>
      </trkpt>
      <trkpt lat="45.97548" lon="4.60608">
        <ele>402</ele>
        <time>2016-09-27T10:21:16Z</time>
      </trkpt>
      <trkpt lat="45.97543" lon="4.60619">
        <ele>402</ele>
        <time>2016-09-27T10:21:17Z</time>
      </trkpt>
      <trkpt lat="45.97537" lon="4.6063">
        <ele>402</ele>
        <time>2016-09-27T10:21:18Z</time>
      </trkpt>
      <trkpt lat="45.97532" lon="4.6064">
        <ele>402</ele>
        <time>2016-09-27T10:21:19Z</time>
      </trkpt>
      <trkpt lat="45.97529" lon="4.60648">
        <ele>402</ele>
        <time>2016-09-27T10:21:20Z</time>
      </trkpt>
      <trkpt lat="45.97524" lon="4.60658">
        <ele>402</ele>
        <time>2016-09-27T10:21:21Z</time>
      </trkpt>
      <trkpt lat="45.97519" lon="4.60669">
        <ele>399</ele>
        <time>2016-09-27T10:21:22Z</time>
      </trkpt>
      <trkpt lat="45.97513" lon="4.60678">
        <ele>399</ele>
        <time>2016-09-27T10:21:23Z</time>
      </trkpt>
      <trkpt lat="45.97505" lon="4.60686">
        <ele>399</ele>
        <time>2016-09-27T10:21:24Z</time>
      </trkpt>
      <trkpt lat="45.97499" lon="4.60694">
        <ele>403</ele>
        <time>2016-09-27T10:21:25Z</time>
      </trkpt>
      <trkpt lat="45.97496" lon="4.60704">
        <ele>403</ele>
        <time>2016-09-27T10:21:26Z</time>
      </trkpt>
      <trkpt lat="45.97492" lon="4.60714">
        <ele>403</ele>
        <time>2016-09-27T10:21:27Z</time>
      </trkpt>
      <trkpt lat="45.97489" lon="4.60725">
        <ele>403</ele>
        <time>2016-09-27T10:21:28Z</time>
      </trkpt>
      <trkpt lat="45.97485" lon="4.60735">
        <ele>402</ele>
        <time>2016-09-27T10:21:29Z</time>
      </trkpt>
      <trkpt lat="45.97482" lon="4.60746">
        <ele>402</ele>
        <time>2016-09-27T10:21:30Z</time>
      </trkpt>
      <trkpt lat="45.97479" lon="4.60756">
        <ele>402</ele>
        <time>2016-09-27T10:21:31Z</time>
      </trkpt>
      <trkpt lat="45.97476" lon="4.60767">
        <ele>403</ele>
        <time>2016-09-27T10:21:32Z</time>
      </trkpt>
      <trkpt lat="45.97474" lon="4.60778">
        <ele>404</ele>
        <time>2016-09-27T10:21:33Z</time>
      </trkpt>
      <trkpt lat="45.97472" lon="4.60789">
        <ele>404</ele>
        <time>2016-09-27T10:21:34Z</time>
      </trkpt>
      <trkpt lat="45.97472" lon="4.60799">
        <ele>404</ele>
        <time>2016-09-27T10:21:35Z</time>
      </trkpt>
      <trkpt lat="45.97469" lon="4.60809">
        <ele>404</ele>
        <time>2016-09-27T10:21:36Z</time>
      </trkpt>
      <trkpt lat="45.9747" lon="4.60818">
        <ele>403</ele>
        <time>2016-09-27T10:21:37Z</time>
      </trkpt>
      <trkpt lat="45.97469" lon="4.60829">
        <ele>403</ele>
        <time>2016-09-27T10:21:38Z</time>
      </trkpt>
      <trkpt lat="45.97469" lon="4.6084">
        <ele>401</ele>
        <time>2016-09-27T10:21:39Z</time>
      </trkpt>
      <trkpt lat="45.97469" lon="4.60852">
        <ele>401</ele>
        <time>2016-09-27T10:21:40Z</time>
      </trkpt>
      <trkpt lat="45.97468" lon="4.60863">
        <ele>401</ele>
        <time>2016-09-27T10:21:41Z</time>
      </trkpt>
      <trkpt lat="45.97467" lon="4.60874">
        <ele>401</ele>
        <time>2016-09-27T10:21:42Z</time>
      </trkpt>
      <trkpt lat="45.97464" lon="4.60884">
        <ele>401</ele>
        <time>2016-09-27T10:21:43Z</time>
      </trkpt>
      <trkpt lat="45.97462" lon="4.60894">
        <ele>401</ele>
        <time>2016-09-27T10:21:44Z</time>
      </trkpt>
      <trkpt lat="45.9746" lon="4.60904">
        <ele>401</ele>
        <time>2016-09-27T10:21:45Z</time>
      </trkpt>
      <trkpt lat="45.97458" lon="4.60913">
        <ele>401</ele>
        <time>2016-09-27T10:21:46Z</time>
      </trkpt>
      <trkpt lat="45.97456" lon="4.60924">
        <ele>398</ele>
        <time>2016-09-27T10:21:47Z</time>
      </trkpt>
      <trkpt lat="45.97454" lon="4.60934">
        <ele>398</ele>
        <time>2016-09-27T10:21:48Z</time>
      </trkpt>
      <trkpt lat="45.97452" lon="4.60945">
        <ele>398</ele>
        <time>2016-09-27T10:21:49Z</time>
      </trkpt>
      <trkpt lat="45.97449" lon="4.60956">
        <ele>398</ele>
        <time>2016-09-27T10:21:50Z</time>
      </trkpt>
      <trkpt lat="45.97446" lon="4.60968">
        <ele>398</ele>
        <time>2016-09-27T10:21:51Z</time>
      </trkpt>
      <trkpt lat="45.97444" lon="4.60983">
        <ele>399</ele>
        <time>2016-09-27T10:21:52Z</time>
      </trkpt>
      <trkpt lat="45.97445" lon="4.61002">
        <ele>394</ele>
        <time>2016-09-27T10:21:53Z</time>
      </trkpt>
      <trkpt lat="45.97444" lon="4.61016">
        <ele>394</ele>
        <time>2016-09-27T10:21:54Z</time>
      </trkpt>
      <trkpt lat="45.97442" lon="4.61028">
        <ele>393</ele>
        <time>2016-09-27T10:21:55Z</time>
      </trkpt>
      <trkpt lat="45.97439" lon="4.61037">
        <ele>392</ele>
        <time>2016-09-27T10:21:56Z</time>
      </trkpt>
      <trkpt lat="45.97436" lon="4.61047">
        <ele>392</ele>
        <time>2016-09-27T10:21:57Z</time>
      </trkpt>
      <trkpt lat="45.97432" lon="4.61056">
        <ele>392</ele>
        <time>2016-09-27T10:21:58Z</time>
      </trkpt>
      <trkpt lat="45.97428" lon="4.61065">
        <ele>392</ele>
        <time>2016-09-27T10:21:59Z</time>
      </trkpt>
      <trkpt lat="45.97425" lon="4.61075">
        <ele>392</ele>
        <time>2016-09-27T10:22:00Z</time>
      </trkpt>
      <trkpt lat="45.97423" lon="4.61086">
        <ele>391</ele>
        <time>2016-09-27T10:22:01Z</time>
      </trkpt>
      <trkpt lat="45.9742" lon="4.61096">
        <ele>389</ele>
        <time>2016-09-27T10:22:02Z</time>
      </trkpt>
      <trkpt lat="45.97416" lon="4.61106">
        <ele>396</ele>
        <time>2016-09-27T10:22:03Z</time>
      </trkpt>
      <trkpt lat="45.97413" lon="4.61116">
        <ele>397</ele>
        <time>2016-09-27T10:22:04Z</time>
      </trkpt>
      <trkpt lat="45.9741" lon="4.61126">
        <ele>396</ele>
        <time>2016-09-27T10:22:05Z</time>
      </trkpt>
      <trkpt lat="45.97407" lon="4.61137">
        <ele>396</ele>
        <time>2016-09-27T10:22:06Z</time>
      </trkpt>
      <trkpt lat="45.97404" lon="4.61148">
        <ele>395</ele>
        <time>2016-09-27T10:22:07Z</time>
      </trkpt>
      <trkpt lat="45.97401" lon="4.61159">
        <ele>394</ele>
        <time>2016-09-27T10:22:08Z</time>
      </trkpt>
      <trkpt lat="45.97399" lon="4.6117">
        <ele>392</ele>
        <time>2016-09-27T10:22:09Z</time>
      </trkpt>
      <trkpt lat="45.97398" lon="4.6118">
        <ele>393</ele>
        <time>2016-09-27T10:22:10Z</time>
      </trkpt>
      <trkpt lat="45.97397" lon="4.61191">
        <ele>394</ele>
        <time>2016-09-27T10:22:11Z</time>
      </trkpt>
      <trkpt lat="45.97396" lon="4.61202">
        <ele>395</ele>
        <time>2016-09-27T10:22:12Z</time>
      </trkpt>
      <trkpt lat="45.97396" lon="4.61212">
        <ele>395</ele>
        <time>2016-09-27T10:22:13Z</time>
      </trkpt>
      <trkpt lat="45.97396" lon="4.61223">
        <ele>395</ele>
        <time>2016-09-27T10:22:14Z</time>
      </trkpt>
      <trkpt lat="45.97397" lon="4.61233">
        <ele>395</ele>
        <time>2016-09-27T10:22:15Z</time>
      </trkpt>
      <trkpt lat="45.97398" lon="4.61243">
        <ele>394</ele>
        <time>2016-09-27T10:22:16Z</time>
      </trkpt>
      <trkpt lat="45.974" lon="4.61253">
        <ele>395</ele>
        <time>2016-09-27T10:22:17Z</time>
      </trkpt>
      <trkpt lat="45.97402" lon="4.61263">
        <ele>396</ele>
        <time>2016-09-27T10:22:18Z</time>
      </trkpt>
      <trkpt lat="45.97404" lon="4.61273">
        <ele>396</ele>
        <time>2016-09-27T10:22:19Z</time>
      </trkpt>
      <trkpt lat="45.97406" lon="4.61282">
        <ele>397</ele>
        <time>2016-09-27T10:22:20Z</time>
      </trkpt>
      <trkpt lat="45.97408" lon="4.61292">
        <ele>397</ele>
        <time>2016-09-27T10:22:21Z</time>
      </trkpt>
      <trkpt lat="45.97411" lon="4.61302">
        <ele>397</ele>
        <time>2016-09-27T10:22:22Z</time>
      </trkpt>
      <trkpt lat="45.97413" lon="4.61311">
        <ele>397</ele>
        <time>2016-09-27T10:22:23Z</time>
      </trkpt>
      <trkpt lat="45.97416" lon="4.61319">
        <ele>397</ele>
        <time>2016-09-27T10:22:24Z</time>
      </trkpt>
      <trkpt lat="45.97419" lon="4.61328">
        <ele>394</ele>
        <time>2016-09-27T10:22:25Z</time>
      </trkpt>
      <trkpt lat="45.97421" lon="4.61336">
        <ele>395</ele>
        <time>2016-09-27T10:22:26Z</time>
      </trkpt>
      <trkpt lat="45.97423" lon="4.61344">
        <ele>394</ele>
        <time>2016-09-27T10:22:27Z</time>
      </trkpt>
      <trkpt lat="45.97425" lon="4.61353">
        <ele>394</ele>
        <time>2016-09-27T10:22:28Z</time>
      </trkpt>
      <trkpt lat="45.97426" lon="4.61361">
        <ele>394</ele>
        <time>2016-09-27T10:22:29Z</time>
      </trkpt>
      <trkpt lat="45.97428" lon="4.61369">
        <ele>394</ele>
        <time>2016-09-27T10:22:30Z</time>
      </trkpt>
      <trkpt lat="45.9743" lon="4.61376">
        <ele>394</ele>
        <time>2016-09-27T10:22:31Z</time>
      </trkpt>
      <trkpt lat="45.97432" lon="4.61384">
        <ele>394</ele>
        <time>2016-09-27T10:22:32Z</time>
      </trkpt>
      <trkpt lat="45.97434" lon="4.61392">
        <ele>394</ele>
        <time>2016-09-27T10:22:33Z</time>
      </trkpt>
      <trkpt lat="45.97435" lon="4.61401">
        <ele>395</ele>
        <time>2016-09-27T10:22:34Z</time>
      </trkpt>
      <trkpt lat="45.97437" lon="4.61409">
        <ele>395</ele>
        <time>2016-09-27T10:22:35Z</time>
      </trkpt>
      <trkpt lat="45.97438" lon="4.61418">
        <ele>396</ele>
        <time>2016-09-27T10:22:36Z</time>
      </trkpt>
      <trkpt lat="45.9744" lon="4.61426">
        <ele>396</ele>
        <time>2016-09-27T10:22:37Z</time>
      </trkpt>
      <trkpt lat="45.97441" lon="4.61435">
        <ele>396</ele>
        <time>2016-09-27T10:22:38Z</time>
      </trkpt>
      <trkpt lat="45.97443" lon="4.61443">
        <ele>395</ele>
        <time>2016-09-27T10:22:39Z</time>
      </trkpt>
      <trkpt lat="45.97445" lon="4.61451">
        <ele>395</ele>
        <time>2016-09-27T10:22:40Z</time>
      </trkpt>
      <trkpt lat="45.97446" lon="4.61459">
        <ele>395</ele>
        <time>2016-09-27T10:22:41Z</time>
      </trkpt>
      <trkpt lat="45.97448" lon="4.61467">
        <ele>395</ele>
        <time>2016-09-27T10:22:42Z</time>
      </trkpt>
      <trkpt lat="45.97449" lon="4.61475">
        <ele>395</ele>
        <time>2016-09-27T10:22:43Z</time>
      </trkpt>
      <trkpt lat="45.97451" lon="4.61484">
        <ele>395</ele>
        <time>2016-09-27T10:22:44Z</time>
      </trkpt>
      <trkpt lat="45.97452" lon="4.61492">
        <ele>395</ele>
        <time>2016-09-27T10:22:45Z</time>
      </trkpt>
      <trkpt lat="45.97454" lon="4.61501">
        <ele>396</ele>
        <time>2016-09-27T10:22:46Z</time>
      </trkpt>
      <trkpt lat="45.97455" lon="4.6151">
        <ele>396</ele>
        <time>2016-09-27T10:22:47Z</time>
      </trkpt>
      <trkpt lat="45.97457" lon="4.61519">
        <ele>396</ele>
        <time>2016-09-27T10:22:48Z</time>
      </trkpt>
      <trkpt lat="45.97458" lon="4.61528">
        <ele>396</ele>
        <time>2016-09-27T10:22:49Z</time>
      </trkpt>
      <trkpt lat="45.9746" lon="4.61537">
        <ele>395</ele>
        <time>2016-09-27T10:22:50Z</time>
      </trkpt>
      <trkpt lat="45.97461" lon="4.61546">
        <ele>395</ele>
        <time>2016-09-27T10:22:51Z</time>
      </trkpt>
      <trkpt lat="45.97462" lon="4.61555">
        <ele>395</ele>
        <time>2016-09-27T10:22:52Z</time>
      </trkpt>
      <trkpt lat="45.97463" lon="4.61564">
        <ele>395</ele>
        <time>2016-09-27T10:22:53Z</time>
      </trkpt>
      <trkpt lat="45.97464" lon="4.61573">
        <ele>395</ele>
        <time>2016-09-27T10:22:54Z</time>
      </trkpt>
      <trkpt lat="45.97464" lon="4.61584">
        <ele>394</ele>
        <time>2016-09-27T10:22:55Z</time>
      </trkpt>
      <trkpt lat="45.97465" lon="4.61593">
        <ele>394</ele>
        <time>2016-09-27T10:22:56Z</time>
      </trkpt>
      <trkpt lat="45.97464" lon="4.61602">
        <ele>394</ele>
        <time>2016-09-27T10:22:57Z</time>
      </trkpt>
      <trkpt lat="45.97464" lon="4.6161">
        <ele>394</ele>
        <time>2016-09-27T10:22:58Z</time>
      </trkpt>
      <trkpt lat="45.97464" lon="4.61619">
        <ele>394</ele>
        <time>2016-09-27T10:22:59Z</time>
      </trkpt>
      <trkpt lat="45.97465" lon="4.61627">
        <ele>393</ele>
        <time>2016-09-27T10:23:00Z</time>
      </trkpt>
      <trkpt lat="45.97465" lon="4.61636">
        <ele>393</ele>
        <time>2016-09-27T10:23:01Z</time>
      </trkpt>
      <trkpt lat="45.97465" lon="4.61645">
        <ele>393</ele>
        <time>2016-09-27T10:23:02Z</time>
      </trkpt>
      <trkpt lat="45.97464" lon="4.61655">
        <ele>393</ele>
        <time>2016-09-27T10:23:03Z</time>
      </trkpt>
      <trkpt lat="45.97464" lon="4.61664">
        <ele>393</ele>
        <time>2016-09-27T10:23:04Z</time>
      </trkpt>
      <trkpt lat="45.97463" lon="4.61675">
        <ele>390</ele>
        <time>2016-09-27T10:23:05Z</time>
      </trkpt>
      <trkpt lat="45.97463" lon="4.61685">
        <ele>390</ele>
        <time>2016-09-27T10:23:06Z</time>
      </trkpt>
      <trkpt lat="45.97462" lon="4.61695">
        <ele>390</ele>
        <time>2016-09-27T10:23:07Z</time>
      </trkpt>
      <trkpt lat="45.9746" lon="4.61705">
        <ele>390</ele>
        <time>2016-09-27T10:23:08Z</time>
      </trkpt>
      <trkpt lat="45.97459" lon="4.61716">
        <ele>390</ele>
        <time>2016-09-27T10:23:09Z</time>
      </trkpt>
      <trkpt lat="45.97457" lon="4.61727">
        <ele>390</ele>
        <time>2016-09-27T10:23:10Z</time>
      </trkpt>
      <trkpt lat="45.97456" lon="4.61737">
        <ele>390</ele>
        <time>2016-09-27T10:23:11Z</time>
      </trkpt>
      <trkpt lat="45.97453" lon="4.61748">
        <ele>390</ele>
        <time>2016-09-27T10:23:12Z</time>
      </trkpt>
      <trkpt lat="45.9745" lon="4.61759">
        <ele>387</ele>
        <time>2016-09-27T10:23:13Z</time>
      </trkpt>
      <trkpt lat="45.97447" lon="4.61769">
        <ele>387</ele>
        <time>2016-09-27T10:23:14Z</time>
      </trkpt>
      <trkpt lat="45.97444" lon="4.6178">
        <ele>387</ele>
        <time>2016-09-27T10:23:15Z</time>
      </trkpt>
      <trkpt lat="45.97441" lon="4.61791">
        <ele>387</ele>
        <time>2016-09-27T10:23:16Z</time>
      </trkpt>
      <trkpt lat="45.97438" lon="4.61803">
        <ele>387</ele>
        <time>2016-09-27T10:23:17Z</time>
      </trkpt>
      <trkpt lat="45.97436" lon="4.61815">
        <ele>386</ele>
        <time>2016-09-27T10:23:18Z</time>
      </trkpt>
      <trkpt lat="45.97434" lon="4.61828">
        <ele>386</ele>
        <time>2016-09-27T10:23:19Z</time>
      </trkpt>
      <trkpt lat="45.97434" lon="4.6184">
        <ele>385</ele>
        <time>2016-09-27T10:23:20Z</time>
      </trkpt>
      <trkpt lat="45.97434" lon="4.61853">
        <ele>384</ele>
        <time>2016-09-27T10:23:21Z</time>
      </trkpt>
      <trkpt lat="45.97435" lon="4.61865">
        <ele>384</ele>
        <time>2016-09-27T10:23:22Z</time>
      </trkpt>
      <trkpt lat="45.97436" lon="4.61878">
        <ele>383</ele>
        <time>2016-09-27T10:23:23Z</time>
      </trkpt>
      <trkpt lat="45.97436" lon="4.61891">
        <ele>383</ele>
        <time>2016-09-27T10:23:24Z</time>
      </trkpt>
      <trkpt lat="45.97436" lon="4.61905">
        <ele>383</ele>
        <time>2016-09-27T10:23:25Z</time>
      </trkpt>
      <trkpt lat="45.97437" lon="4.61918">
        <ele>382</ele>
        <time>2016-09-27T10:23:26Z</time>
      </trkpt>
      <trkpt lat="45.97438" lon="4.61932">
        <ele>381</ele>
        <time>2016-09-27T10:23:27Z</time>
      </trkpt>
      <trkpt lat="45.97438" lon="4.61946">
        <ele>381</ele>
        <time>2016-09-27T10:23:28Z</time>
      </trkpt>
      <trkpt lat="45.97439" lon="4.6196">
        <ele>380</ele>
        <time>2016-09-27T10:23:29Z</time>
      </trkpt>
      <trkpt lat="45.97439" lon="4.61974">
        <ele>380</ele>
        <time>2016-09-27T10:23:30Z</time>
      </trkpt>
      <trkpt lat="45.9744" lon="4.61988">
        <ele>380</ele>
        <time>2016-09-27T10:23:31Z</time>
      </trkpt>
      <trkpt lat="45.97441" lon="4.62002">
        <ele>379</ele>
        <time>2016-09-27T10:23:32Z</time>
      </trkpt>
      <trkpt lat="45.97441" lon="4.62017">
        <ele>379</ele>
        <time>2016-09-27T10:23:33Z</time>
      </trkpt>
      <trkpt lat="45.97442" lon="4.62031">
        <ele>379</ele>
        <time>2016-09-27T10:23:34Z</time>
      </trkpt>
      <trkpt lat="45.97442" lon="4.62045">
        <ele>379</ele>
        <time>2016-09-27T10:23:35Z</time>
      </trkpt>
      <trkpt lat="45.97443" lon="4.62059">
        <ele>379</ele>
        <time>2016-09-27T10:23:36Z</time>
      </trkpt>
      <trkpt lat="45.97443" lon="4.62073">
        <ele>379</ele>
        <time>2016-09-27T10:23:37Z</time>
      </trkpt>
      <trkpt lat="45.97442" lon="4.62087">
        <ele>377</ele>
        <time>2016-09-27T10:23:38Z</time>
      </trkpt>
      <trkpt lat="45.97441" lon="4.62102">
        <ele>377</ele>
        <time>2016-09-27T10:23:39Z</time>
      </trkpt>
      <trkpt lat="45.97441" lon="4.62116">
        <ele>376</ele>
        <time>2016-09-27T10:23:40Z</time>
      </trkpt>
      <trkpt lat="45.9744" lon="4.6213">
        <ele>376</ele>
        <time>2016-09-27T10:23:41Z</time>
      </trkpt>
      <trkpt lat="45.97439" lon="4.62144">
        <ele>375</ele>
        <time>2016-09-27T10:23:42Z</time>
      </trkpt>
      <trkpt lat="45.97438" lon="4.62158">
        <ele>375</ele>
        <time>2016-09-27T10:23:43Z</time>
      </trkpt>
      <trkpt lat="45.97437" lon="4.62173">
        <ele>372</ele>
        <time>2016-09-27T10:23:44Z</time>
      </trkpt>
      <trkpt lat="45.97436" lon="4.62187">
        <ele>371</ele>
        <time>2016-09-27T10:23:45Z</time>
      </trkpt>
      <trkpt lat="45.97435" lon="4.62201">
        <ele>371</ele>
        <time>2016-09-27T10:23:46Z</time>
      </trkpt>
      <trkpt lat="45.97435" lon="4.62216">
        <ele>370</ele>
        <time>2016-09-27T10:23:47Z</time>
      </trkpt>
      <trkpt lat="45.97434" lon="4.6223">
        <ele>370</ele>
        <time>2016-09-27T10:23:48Z</time>
      </trkpt>
      <trkpt lat="45.97433" lon="4.62244">
        <ele>370</ele>
        <time>2016-09-27T10:23:49Z</time>
      </trkpt>
      <trkpt lat="45.97432" lon="4.62258">
        <ele>368</ele>
        <time>2016-09-27T10:23:50Z</time>
      </trkpt>
      <trkpt lat="45.97431" lon="4.62272">
        <ele>368</ele>
        <time>2016-09-27T10:23:51Z</time>
      </trkpt>
      <trkpt lat="45.97429" lon="4.62286">
        <ele>367</ele>
        <time>2016-09-27T10:23:52Z</time>
      </trkpt>
      <trkpt lat="45.97429" lon="4.623">
        <ele>367</ele>
        <time>2016-09-27T10:23:53Z</time>
      </trkpt>
      <trkpt lat="45.97427" lon="4.62313">
        <ele>367</ele>
        <time>2016-09-27T10:23:54Z</time>
      </trkpt>
      <trkpt lat="45.97426" lon="4.62326">
        <ele>367</ele>
        <time>2016-09-27T10:23:55Z</time>
      </trkpt>
      <trkpt lat="45.97424" lon="4.62341">
        <ele>366</ele>
        <time>2016-09-27T10:23:56Z</time>
      </trkpt>
      <trkpt lat="45.97423" lon="4.62355">
        <ele>364</ele>
        <time>2016-09-27T10:23:57Z</time>
      </trkpt>
      <trkpt lat="45.97422" lon="4.62368">
        <ele>363</ele>
        <time>2016-09-27T10:23:58Z</time>
      </trkpt>
      <trkpt lat="45.9742" lon="4.62382">
        <ele>362</ele>
        <time>2016-09-27T10:23:59Z</time>
      </trkpt>
      <trkpt lat="45.97418" lon="4.62395">
        <ele>362</ele>
        <time>2016-09-27T10:24:00Z</time>
      </trkpt>
      <trkpt lat="45.97416" lon="4.62409">
        <ele>365</ele>
        <time>2016-09-27T10:24:01Z</time>
      </trkpt>
      <trkpt lat="45.97413" lon="4.62423">
        <ele>364</ele>
        <time>2016-09-27T10:24:02Z</time>
      </trkpt>
      <trkpt lat="45.9741" lon="4.62437">
        <ele>364</ele>
        <time>2016-09-27T10:24:03Z</time>
      </trkpt>
      <trkpt lat="45.97407" lon="4.6245">
        <ele>364</ele>
        <time>2016-09-27T10:24:04Z</time>
      </trkpt>
      <trkpt lat="45.97404" lon="4.62464">
        <ele>364</ele>
        <time>2016-09-27T10:24:05Z</time>
      </trkpt>
      <trkpt lat="45.97401" lon="4.62478">
        <ele>363</ele>
        <time>2016-09-27T10:24:06Z</time>
      </trkpt>
      <trkpt lat="45.97398" lon="4.62492">
        <ele>363</ele>
        <time>2016-09-27T10:24:07Z</time>
      </trkpt>
      <trkpt lat="45.97396" lon="4.62506">
        <ele>361</ele>
        <time>2016-09-27T10:24:08Z</time>
      </trkpt>
      <trkpt lat="45.97395" lon="4.6252">
        <ele>361</ele>
        <time>2016-09-27T10:24:09Z</time>
      </trkpt>
      <trkpt lat="45.97394" lon="4.62534">
        <ele>361</ele>
        <time>2016-09-27T10:24:10Z</time>
      </trkpt>
      <trkpt lat="45.97394" lon="4.62549">
        <ele>360</ele>
        <time>2016-09-27T10:24:11Z</time>
      </trkpt>
      <trkpt lat="45.97394" lon="4.62564">
        <ele>360</ele>
        <time>2016-09-27T10:24:12Z</time>
      </trkpt>
      <trkpt lat="45.97395" lon="4.62578">
        <ele>359</ele>
        <time>2016-09-27T10:24:13Z</time>
      </trkpt>
      <trkpt lat="45.97397" lon="4.62592">
        <ele>357</ele>
        <time>2016-09-27T10:24:14Z</time>
      </trkpt>
      <trkpt lat="45.97399" lon="4.62606">
        <ele>357</ele>
        <time>2016-09-27T10:24:15Z</time>
      </trkpt>
      <trkpt lat="45.97402" lon="4.6262">
        <ele>357</ele>
        <time>2016-09-27T10:24:16Z</time>
      </trkpt>
      <trkpt lat="45.97405" lon="4.62634">
        <ele>356</ele>
        <time>2016-09-27T10:24:17Z</time>
      </trkpt>
      <trkpt lat="45.97408" lon="4.62647">
        <ele>355</ele>
        <time>2016-09-27T10:24:18Z</time>
      </trkpt>
      <trkpt lat="45.9741" lon="4.62661">
        <ele>354</ele>
        <time>2016-09-27T10:24:19Z</time>
      </trkpt>
      <trkpt lat="45.97413" lon="4.62675">
        <ele>353</ele>
        <time>2016-09-27T10:24:20Z</time>
      </trkpt>
      <trkpt lat="45.97416" lon="4.62688">
        <ele>354</ele>
        <time>2016-09-27T10:24:21Z</time>
      </trkpt>
      <trkpt lat="45.97418" lon="4.62702">
        <ele>350</ele>
        <time>2016-09-27T10:24:22Z</time>
      </trkpt>
      <trkpt lat="45.97421" lon="4.62715">
        <ele>349</ele>
        <time>2016-09-27T10:24:23Z</time>
      </trkpt>
      <trkpt lat="45.97423" lon="4.62727">
        <ele>350</ele>
        <time>2016-09-27T10:24:24Z</time>
      </trkpt>
      <trkpt lat="45.97426" lon="4.6274">
        <ele>350</ele>
        <time>2016-09-27T10:24:25Z</time>
      </trkpt>
      <trkpt lat="45.97429" lon="4.62753">
        <ele>350</ele>
        <time>2016-09-27T10:24:26Z</time>
      </trkpt>
      <trkpt lat="45.97432" lon="4.62767">
        <ele>349</ele>
        <time>2016-09-27T10:24:27Z</time>
      </trkpt>
      <trkpt lat="45.97434" lon="4.6278">
        <ele>348</ele>
        <time>2016-09-27T10:24:28Z</time>
      </trkpt>
      <trkpt lat="45.97437" lon="4.62793">
        <ele>348</ele>
        <time>2016-09-27T10:24:29Z</time>
      </trkpt>
      <trkpt lat="45.9744" lon="4.62806">
        <ele>347</ele>
        <time>2016-09-27T10:24:30Z</time>
      </trkpt>
      <trkpt lat="45.97442" lon="4.62819">
        <ele>347</ele>
        <time>2016-09-27T10:24:31Z</time>
      </trkpt>
      <trkpt lat="45.97445" lon="4.62832">
        <ele>347</ele>
        <time>2016-09-27T10:24:32Z</time>
      </trkpt>
      <trkpt lat="45.97448" lon="4.62845">
        <ele>346</ele>
        <time>2016-09-27T10:24:33Z</time>
      </trkpt>
      <trkpt lat="45.9745" lon="4.62857">
        <ele>346</ele>
        <time>2016-09-27T10:24:34Z</time>
      </trkpt>
      <trkpt lat="45.97453" lon="4.62869">
        <ele>346</ele>
        <time>2016-09-27T10:24:35Z</time>
      </trkpt>
      <trkpt lat="45.97455" lon="4.62882">
        <ele>346</ele>
        <time>2016-09-27T10:24:36Z</time>
      </trkpt>
      <trkpt lat="45.97457" lon="4.62894">
        <ele>345</ele>
        <time>2016-09-27T10:24:37Z</time>
      </trkpt>
      <trkpt lat="45.97459" lon="4.62907">
        <ele>345</ele>
        <time>2016-09-27T10:24:38Z</time>
      </trkpt>
      <trkpt lat="45.97463" lon="4.62917">
        <ele>345</ele>
        <time>2016-09-27T10:24:39Z</time>
      </trkpt>
      <trkpt lat="45.97464" lon="4.62928">
        <ele>345</ele>
        <time>2016-09-27T10:24:40Z</time>
      </trkpt>
      <trkpt lat="45.97467" lon="4.6294">
        <ele>345</ele>
        <time>2016-09-27T10:24:41Z</time>
      </trkpt>
      <trkpt lat="45.97469" lon="4.62951">
        <ele>345</ele>
        <time>2016-09-27T10:24:42Z</time>
      </trkpt>
      <trkpt lat="45.97471" lon="4.62962">
        <ele>345</ele>
        <time>2016-09-27T10:24:43Z</time>
      </trkpt>
      <trkpt lat="45.97475" lon="4.62974">
        <ele>345</ele>
        <time>2016-09-27T10:24:44Z</time>
      </trkpt>
      <trkpt lat="45.97477" lon="4.62985">
        <ele>345</ele>
        <time>2016-09-27T10:24:45Z</time>
      </trkpt>
      <trkpt lat="45.9748" lon="4.62996">
        <ele>345</ele>
        <time>2016-09-27T10:24:46Z</time>
      </trkpt>
      <trkpt lat="45.97484" lon="4.63007">
        <ele>344</ele>
        <time>2016-09-27T10:24:47Z</time>
      </trkpt>
      <trkpt lat="45.97486" lon="4.63019">
        <ele>344</ele>
        <time>2016-09-27T10:24:48Z</time>
      </trkpt>
      <trkpt lat="45.97489" lon="4.6303">
        <ele>344</ele>
        <time>2016-09-27T10:24:49Z</time>
      </trkpt>
      <trkpt lat="45.9749" lon="4.63042">
        <ele>344</ele>
        <time>2016-09-27T10:24:50Z</time>
      </trkpt>
      <trkpt lat="45.97492" lon="4.63053">
        <ele>344</ele>
        <time>2016-09-27T10:24:51Z</time>
      </trkpt>
      <trkpt lat="45.97494" lon="4.63066">
        <ele>343</ele>
        <time>2016-09-27T10:24:52Z</time>
      </trkpt>
      <trkpt lat="45.97496" lon="4.63078">
        <ele>341</ele>
        <time>2016-09-27T10:24:53Z</time>
      </trkpt>
      <trkpt lat="45.97498" lon="4.6309">
        <ele>341</ele>
        <time>2016-09-27T10:24:54Z</time>
      </trkpt>
      <trkpt lat="45.97499" lon="4.63103">
        <ele>342</ele>
        <time>2016-09-27T10:24:55Z</time>
      </trkpt>
      <trkpt lat="45.975" lon="4.63115">
        <ele>337</ele>
        <time>2016-09-27T10:24:56Z</time>
      </trkpt>
      <trkpt lat="45.97501" lon="4.63127">
        <ele>337</ele>
        <time>2016-09-27T10:24:57Z</time>
      </trkpt>
      <trkpt lat="45.97502" lon="4.63139">
        <ele>337</ele>
        <time>2016-09-27T10:24:58Z</time>
      </trkpt>
      <trkpt lat="45.97503" lon="4.6315">
        <ele>338</ele>
        <time>2016-09-27T10:24:59Z</time>
      </trkpt>
      <trkpt lat="45.97504" lon="4.63162">
        <ele>338</ele>
        <time>2016-09-27T10:25:00Z</time>
      </trkpt>
      <trkpt lat="45.97506" lon="4.63173">
        <ele>338</ele>
        <time>2016-09-27T10:25:01Z</time>
      </trkpt>
      <trkpt lat="45.97507" lon="4.63184">
        <ele>337</ele>
        <time>2016-09-27T10:25:02Z</time>
      </trkpt>
      <trkpt lat="45.97508" lon="4.63196">
        <ele>336</ele>
        <time>2016-09-27T10:25:03Z</time>
      </trkpt>
      <trkpt lat="45.97509" lon="4.63208">
        <ele>336</ele>
        <time>2016-09-27T10:25:04Z</time>
      </trkpt>
      <trkpt lat="45.9751" lon="4.63218">
        <ele>336</ele>
        <time>2016-09-27T10:25:05Z</time>
      </trkpt>
      <trkpt lat="45.97512" lon="4.63232">
        <ele>337</ele>
        <time>2016-09-27T10:25:06Z</time>
      </trkpt>
      <trkpt lat="45.97513" lon="4.63244">
        <ele>337</ele>
        <time>2016-09-27T10:25:07Z</time>
      </trkpt>
      <trkpt lat="45.97515" lon="4.63256">
        <ele>337</ele>
        <time>2016-09-27T10:25:08Z</time>
      </trkpt>
      <trkpt lat="45.97516" lon="4.63267">
        <ele>336</ele>
        <time>2016-09-27T10:25:09Z</time>
      </trkpt>
      <trkpt lat="45.97517" lon="4.63278">
        <ele>335</ele>
        <time>2016-09-27T10:25:10Z</time>
      </trkpt>
      <trkpt lat="45.97517" lon="4.63288">
        <ele>335</ele>
        <time>2016-09-27T10:25:11Z</time>
      </trkpt>
      <trkpt lat="45.97518" lon="4.633">
        <ele>335</ele>
        <time>2016-09-27T10:25:12Z</time>
      </trkpt>
      <trkpt lat="45.97519" lon="4.6331">
        <ele>335</ele>
        <time>2016-09-27T10:25:13Z</time>
      </trkpt>
      <trkpt lat="45.97521" lon="4.63321">
        <ele>335</ele>
        <time>2016-09-27T10:25:14Z</time>
      </trkpt>
      <trkpt lat="45.97522" lon="4.63332">
        <ele>335</ele>
        <time>2016-09-27T10:25:15Z</time>
      </trkpt>
      <trkpt lat="45.97523" lon="4.63342">
        <ele>334</ele>
        <time>2016-09-27T10:25:16Z</time>
      </trkpt>
      <trkpt lat="45.97524" lon="4.63353">
        <ele>334</ele>
        <time>2016-09-27T10:25:17Z</time>
      </trkpt>
      <trkpt lat="45.97525" lon="4.63364">
        <ele>333</ele>
        <time>2016-09-27T10:25:18Z</time>
      </trkpt>
      <trkpt lat="45.97526" lon="4.63375">
        <ele>333</ele>
        <time>2016-09-27T10:25:19Z</time>
      </trkpt>
      <trkpt lat="45.97527" lon="4.63387">
        <ele>333</ele>
        <time>2016-09-27T10:25:20Z</time>
      </trkpt>
      <trkpt lat="45.97529" lon="4.63398">
        <ele>333</ele>
        <time>2016-09-27T10:25:21Z</time>
      </trkpt>
      <trkpt lat="45.9753" lon="4.63409">
        <ele>333</ele>
        <time>2016-09-27T10:25:22Z</time>
      </trkpt>
      <trkpt lat="45.97532" lon="4.63421">
        <ele>332</ele>
        <time>2016-09-27T10:25:23Z</time>
      </trkpt>
      <trkpt lat="45.97533" lon="4.63434">
        <ele>332</ele>
        <time>2016-09-27T10:25:24Z</time>
      </trkpt>
      <trkpt lat="45.97534" lon="4.63446">
        <ele>331</ele>
        <time>2016-09-27T10:25:25Z</time>
      </trkpt>
      <trkpt lat="45.97536" lon="4.63458">
        <ele>331</ele>
        <time>2016-09-27T10:25:26Z</time>
      </trkpt>
      <trkpt lat="45.97537" lon="4.6347">
        <ele>331</ele>
        <time>2016-09-27T10:25:27Z</time>
      </trkpt>
      <trkpt lat="45.97538" lon="4.63483">
        <ele>331</ele>
        <time>2016-09-27T10:25:28Z</time>
      </trkpt>
      <trkpt lat="45.9754" lon="4.63495">
        <ele>331</ele>
        <time>2016-09-27T10:25:29Z</time>
      </trkpt>
      <trkpt lat="45.97541" lon="4.63508">
        <ele>329</ele>
        <time>2016-09-27T10:25:30Z</time>
      </trkpt>
      <trkpt lat="45.97543" lon="4.6352">
        <ele>329</ele>
        <time>2016-09-27T10:25:31Z</time>
      </trkpt>
      <trkpt lat="45.97544" lon="4.63533">
        <ele>329</ele>
        <time>2016-09-27T10:25:32Z</time>
      </trkpt>
      <trkpt lat="45.97546" lon="4.63546">
        <ele>329</ele>
        <time>2016-09-27T10:25:33Z</time>
      </trkpt>
      <trkpt lat="45.97547" lon="4.63559">
        <ele>329</ele>
        <time>2016-09-27T10:25:34Z</time>
      </trkpt>
      <trkpt lat="45.97549" lon="4.63572">
        <ele>328</ele>
        <time>2016-09-27T10:25:35Z</time>
      </trkpt>
      <trkpt lat="45.97551" lon="4.63585">
        <ele>327</ele>
        <time>2016-09-27T10:25:36Z</time>
      </trkpt>
      <trkpt lat="45.97553" lon="4.63598">
        <ele>327</ele>
        <time>2016-09-27T10:25:37Z</time>
      </trkpt>
      <trkpt lat="45.97555" lon="4.63611">
        <ele>327</ele>
        <time>2016-09-27T10:25:38Z</time>
      </trkpt>
      <trkpt lat="45.97557" lon="4.63624">
        <ele>327</ele>
        <time>2016-09-27T10:25:39Z</time>
      </trkpt>
      <trkpt lat="45.97558" lon="4.63637">
        <ele>327</ele>
        <time>2016-09-27T10:25:40Z</time>
      </trkpt>
      <trkpt lat="45.97559" lon="4.63651">
        <ele>326</ele>
        <time>2016-09-27T10:25:41Z</time>
      </trkpt>
      <trkpt lat="45.97561" lon="4.63664">
        <ele>326</ele>
        <time>2016-09-27T10:25:42Z</time>
      </trkpt>
      <trkpt lat="45.97563" lon="4.63677">
        <ele>325</ele>
        <time>2016-09-27T10:25:43Z</time>
      </trkpt>
      <trkpt lat="45.97564" lon="4.6369">
        <ele>325</ele>
        <time>2016-09-27T10:25:44Z</time>
      </trkpt>
      <trkpt lat="45.97565" lon="4.63703">
        <ele>325</ele>
        <time>2016-09-27T10:25:45Z</time>
      </trkpt>
      <trkpt lat="45.97566" lon="4.63716">
        <ele>325</ele>
        <time>2016-09-27T10:25:46Z</time>
      </trkpt>
      <trkpt lat="45.97568" lon="4.63729">
        <ele>324</ele>
        <time>2016-09-27T10:25:47Z</time>
      </trkpt>
      <trkpt lat="45.97569" lon="4.63742">
        <ele>323</ele>
        <time>2016-09-27T10:25:48Z</time>
      </trkpt>
      <trkpt lat="45.9757" lon="4.63755">
        <ele>322</ele>
        <time>2016-09-27T10:25:49Z</time>
      </trkpt>
      <trkpt lat="45.97571" lon="4.63768">
        <ele>322</ele>
        <time>2016-09-27T10:25:50Z</time>
      </trkpt>
      <trkpt lat="45.97573" lon="4.63781">
        <ele>322</ele>
        <time>2016-09-27T10:25:51Z</time>
      </trkpt>
      <trkpt lat="45.97575" lon="4.63794">
        <ele>321</ele>
        <time>2016-09-27T10:25:52Z</time>
      </trkpt>
      <trkpt lat="45.97577" lon="4.63807">
        <ele>321</ele>
        <time>2016-09-27T10:25:53Z</time>
      </trkpt>
      <trkpt lat="45.97578" lon="4.6382">
        <ele>320</ele>
        <time>2016-09-27T10:25:54Z</time>
      </trkpt>
      <trkpt lat="45.9758" lon="4.63833">
        <ele>319</ele>
        <time>2016-09-27T10:25:55Z</time>
      </trkpt>
      <trkpt lat="45.97581" lon="4.63846">
        <ele>318</ele>
        <time>2016-09-27T10:25:56Z</time>
      </trkpt>
      <trkpt lat="45.97582" lon="4.63858">
        <ele>318</ele>
        <time>2016-09-27T10:25:57Z</time>
      </trkpt>
      <trkpt lat="45.97583" lon="4.6387">
        <ele>318</ele>
        <time>2016-09-27T10:25:58Z</time>
      </trkpt>
      <trkpt lat="45.97584" lon="4.63883">
        <ele>314</ele>
        <time>2016-09-27T10:25:59Z</time>
      </trkpt>
      <trkpt lat="45.97585" lon="4.63896">
        <ele>315</ele>
        <time>2016-09-27T10:26:00Z</time>
      </trkpt>
      <trkpt lat="45.97587" lon="4.63909">
        <ele>315</ele>
        <time>2016-09-27T10:26:01Z</time>
      </trkpt>
      <trkpt lat="45.97589" lon="4.63922">
        <ele>315</ele>
        <time>2016-09-27T10:26:02Z</time>
      </trkpt>
      <trkpt lat="45.9759" lon="4.63934">
        <ele>313</ele>
        <time>2016-09-27T10:26:03Z</time>
      </trkpt>
      <trkpt lat="45.97592" lon="4.63947">
        <ele>313</ele>
        <time>2016-09-27T10:26:04Z</time>
      </trkpt>
      <trkpt lat="45.97593" lon="4.6396">
        <ele>312</ele>
        <time>2016-09-27T10:26:05Z</time>
      </trkpt>
      <trkpt lat="45.97594" lon="4.63972">
        <ele>312</ele>
        <time>2016-09-27T10:26:06Z</time>
      </trkpt>
      <trkpt lat="45.97595" lon="4.63985">
        <ele>312</ele>
        <time>2016-09-27T10:26:07Z</time>
      </trkpt>
      <trkpt lat="45.97597" lon="4.63998">
        <ele>312</ele>
        <time>2016-09-27T10:26:08Z</time>
      </trkpt>
      <trkpt lat="45.97599" lon="4.6401">
        <ele>311</ele>
        <time>2016-09-27T10:26:09Z</time>
      </trkpt>
      <trkpt lat="45.976" lon="4.64023">
        <ele>310</ele>
        <time>2016-09-27T10:26:10Z</time>
      </trkpt>
      <trkpt lat="45.97602" lon="4.64036">
        <ele>310</ele>
        <time>2016-09-27T10:26:11Z</time>
      </trkpt>
      <trkpt lat="45.97603" lon="4.6405">
        <ele>310</ele>
        <time>2016-09-27T10:26:12Z</time>
      </trkpt>
      <trkpt lat="45.97605" lon="4.64063">
        <ele>310</ele>
        <time>2016-09-27T10:26:13Z</time>
      </trkpt>
      <trkpt lat="45.97606" lon="4.64076">
        <ele>310</ele>
        <time>2016-09-27T10:26:14Z</time>
      </trkpt>
      <trkpt lat="45.97607" lon="4.64088">
        <ele>308</ele>
        <time>2016-09-27T10:26:15Z</time>
      </trkpt>
      <trkpt lat="45.97608" lon="4.64101">
        <ele>308</ele>
        <time>2016-09-27T10:26:16Z</time>
      </trkpt>
      <trkpt lat="45.9761" lon="4.64113">
        <ele>307</ele>
        <time>2016-09-27T10:26:17Z</time>
      </trkpt>
      <trkpt lat="45.97611" lon="4.64126">
        <ele>307</ele>
        <time>2016-09-27T10:26:18Z</time>
      </trkpt>
      <trkpt lat="45.97612" lon="4.64138">
        <ele>307</ele>
        <time>2016-09-27T10:26:19Z</time>
      </trkpt>
      <trkpt lat="45.97614" lon="4.64151">
        <ele>307</ele>
        <time>2016-09-27T10:26:20Z</time>
      </trkpt>
      <trkpt lat="45.97615" lon="4.64163">
        <ele>307</ele>
        <time>2016-09-27T10:26:21Z</time>
      </trkpt>
      <trkpt lat="45.97616" lon="4.64175">
        <ele>306</ele>
        <time>2016-09-27T10:26:22Z</time>
      </trkpt>
      <trkpt lat="45.97618" lon="4.64187">
        <ele>306</ele>
        <time>2016-09-27T10:26:23Z</time>
      </trkpt>
      <trkpt lat="45.97619" lon="4.64199">
        <ele>306</ele>
        <time>2016-09-27T10:26:24Z</time>
      </trkpt>
      <trkpt lat="45.9762" lon="4.64211">
        <ele>306</ele>
        <time>2016-09-27T10:26:25Z</time>
      </trkpt>
      <trkpt lat="45.97622" lon="4.64223">
        <ele>306</ele>
        <time>2016-09-27T10:26:26Z</time>
      </trkpt>
      <trkpt lat="45.97623" lon="4.64235">
        <ele>306</ele>
        <time>2016-09-27T10:26:27Z</time>
      </trkpt>
      <trkpt lat="45.97625" lon="4.64248">
        <ele>306</ele>
        <time>2016-09-27T10:26:28Z</time>
      </trkpt>
      <trkpt lat="45.97626" lon="4.6426">
        <ele>305</ele>
        <time>2016-09-27T10:26:29Z</time>
      </trkpt>
      <trkpt lat="45.97627" lon="4.64273">
        <ele>305</ele>
        <time>2016-09-27T10:26:30Z</time>
      </trkpt>
      <trkpt lat="45.97629" lon="4.64285">
        <ele>305</ele>
        <time>2016-09-27T10:26:31Z</time>
      </trkpt>
      <trkpt lat="45.9763" lon="4.64297">
        <ele>304</ele>
        <time>2016-09-27T10:26:32Z</time>
      </trkpt>
      <trkpt lat="45.97631" lon="4.64309">
        <ele>304</ele>
        <time>2016-09-27T10:26:33Z</time>
      </trkpt>
      <trkpt lat="45.97632" lon="4.64321">
        <ele>304</ele>
        <time>2016-09-27T10:26:34Z</time>
      </trkpt>
      <trkpt lat="45.97634" lon="4.64334">
        <ele>303</ele>
        <time>2016-09-27T10:26:35Z</time>
      </trkpt>
      <trkpt lat="45.97635" lon="4.64346">
        <ele>303</ele>
        <time>2016-09-27T10:26:36Z</time>
      </trkpt>
      <trkpt lat="45.97635" lon="4.64358">
        <ele>303</ele>
        <time>2016-09-27T10:26:37Z</time>
      </trkpt>
      <trkpt lat="45.97636" lon="4.6437">
        <ele>303</ele>
        <time>2016-09-27T10:26:38Z</time>
      </trkpt>
      <trkpt lat="45.97638" lon="4.64382">
        <ele>303</ele>
        <time>2016-09-27T10:26:39Z</time>
      </trkpt>
      <trkpt lat="45.97639" lon="4.64394">
        <ele>303</ele>
        <time>2016-09-27T10:26:40Z</time>
      </trkpt>
      <trkpt lat="45.97641" lon="4.64405">
        <ele>302</ele>
        <time>2016-09-27T10:26:41Z</time>
      </trkpt>
      <trkpt lat="45.97642" lon="4.64417">
        <ele>302</ele>
        <time>2016-09-27T10:26:42Z</time>
      </trkpt>
      <trkpt lat="45.97644" lon="4.64429">
        <ele>302</ele>
        <time>2016-09-27T10:26:43Z</time>
      </trkpt>
      <trkpt lat="45.97645" lon="4.64441">
        <ele>302</ele>
        <time>2016-09-27T10:26:44Z</time>
      </trkpt>
      <trkpt lat="45.97646" lon="4.64453">
        <ele>302</ele>
        <time>2016-09-27T10:26:45Z</time>
      </trkpt>
      <trkpt lat="45.97648" lon="4.64464">
        <ele>302</ele>
        <time>2016-09-27T10:26:46Z</time>
      </trkpt>
      <trkpt lat="45.97649" lon="4.64476">
        <ele>302</ele>
        <time>2016-09-27T10:26:47Z</time>
      </trkpt>
      <trkpt lat="45.97651" lon="4.64487">
        <ele>302</ele>
        <time>2016-09-27T10:26:48Z</time>
      </trkpt>
      <trkpt lat="45.97652" lon="4.64499">
        <ele>302</ele>
        <time>2016-09-27T10:26:49Z</time>
      </trkpt>
      <trkpt lat="45.97654" lon="4.6451">
        <ele>301</ele>
        <time>2016-09-27T10:26:50Z</time>
      </trkpt>
      <trkpt lat="45.97655" lon="4.64522">
        <ele>300</ele>
        <time>2016-09-27T10:26:51Z</time>
      </trkpt>
      <trkpt lat="45.97656" lon="4.64534">
        <ele>299</ele>
        <time>2016-09-27T10:26:52Z</time>
      </trkpt>
      <trkpt lat="45.97657" lon="4.64546">
        <ele>299</ele>
        <time>2016-09-27T10:26:53Z</time>
      </trkpt>
      <trkpt lat="45.97659" lon="4.64557">
        <ele>299</ele>
        <time>2016-09-27T10:26:54Z</time>
      </trkpt>
      <trkpt lat="45.9766" lon="4.64569">
        <ele>298</ele>
        <time>2016-09-27T10:26:55Z</time>
      </trkpt>
      <trkpt lat="45.97662" lon="4.64581">
        <ele>297</ele>
        <time>2016-09-27T10:26:56Z</time>
      </trkpt>
      <trkpt lat="45.97663" lon="4.64594">
        <ele>296</ele>
        <time>2016-09-27T10:26:57Z</time>
      </trkpt>
      <trkpt lat="45.97665" lon="4.64607">
        <ele>296</ele>
        <time>2016-09-27T10:26:58Z</time>
      </trkpt>
      <trkpt lat="45.97666" lon="4.6462">
        <ele>295</ele>
        <time>2016-09-27T10:26:59Z</time>
      </trkpt>
      <trkpt lat="45.97668" lon="4.64633">
        <ele>294</ele>
        <time>2016-09-27T10:27:00Z</time>
      </trkpt>
      <trkpt lat="45.97669" lon="4.64645">
        <ele>293</ele>
        <time>2016-09-27T10:27:01Z</time>
      </trkpt>
      <trkpt lat="45.9767" lon="4.64658">
        <ele>293</ele>
        <time>2016-09-27T10:27:02Z</time>
      </trkpt>
      <trkpt lat="45.97672" lon="4.64671">
        <ele>292</ele>
        <time>2016-09-27T10:27:03Z</time>
      </trkpt>
      <trkpt lat="45.97674" lon="4.64684">
        <ele>291</ele>
        <time>2016-09-27T10:27:04Z</time>
      </trkpt>
      <trkpt lat="45.97675" lon="4.64697">
        <ele>291</ele>
        <time>2016-09-27T10:27:05Z</time>
      </trkpt>
      <trkpt lat="45.97677" lon="4.64709">
        <ele>291</ele>
        <time>2016-09-27T10:27:06Z</time>
      </trkpt>
      <trkpt lat="45.97678" lon="4.64721">
        <ele>291</ele>
        <time>2016-09-27T10:27:07Z</time>
      </trkpt>
      <trkpt lat="45.97679" lon="4.64734">
        <ele>291</ele>
        <time>2016-09-27T10:27:08Z</time>
      </trkpt>
      <trkpt lat="45.9768" lon="4.64746">
        <ele>291</ele>
        <time>2016-09-27T10:27:09Z</time>
      </trkpt>
      <trkpt lat="45.97682" lon="4.6476">
        <ele>290</ele>
        <time>2016-09-27T10:27:10Z</time>
      </trkpt>
      <trkpt lat="45.97683" lon="4.64773">
        <ele>290</ele>
        <time>2016-09-27T10:27:11Z</time>
      </trkpt>
      <trkpt lat="45.97685" lon="4.64785">
        <ele>290</ele>
        <time>2016-09-27T10:27:12Z</time>
      </trkpt>
      <trkpt lat="45.97686" lon="4.64798">
        <ele>290</ele>
        <time>2016-09-27T10:27:13Z</time>
      </trkpt>
      <trkpt lat="45.97688" lon="4.64811">
        <ele>290</ele>
        <time>2016-09-27T10:27:14Z</time>
      </trkpt>
      <trkpt lat="45.9769" lon="4.64824">
        <ele>289</ele>
        <time>2016-09-27T10:27:15Z</time>
      </trkpt>
      <trkpt lat="45.97691" lon="4.64836">
        <ele>289</ele>
        <time>2016-09-27T10:27:16Z</time>
      </trkpt>
      <trkpt lat="45.97693" lon="4.64849">
        <ele>289</ele>
        <time>2016-09-27T10:27:17Z</time>
      </trkpt>
      <trkpt lat="45.97694" lon="4.64862">
        <ele>289</ele>
        <time>2016-09-27T10:27:18Z</time>
      </trkpt>
      <trkpt lat="45.97696" lon="4.64875">
        <ele>289</ele>
        <time>2016-09-27T10:27:19Z</time>
      </trkpt>
      <trkpt lat="45.97697" lon="4.64888">
        <ele>288</ele>
        <time>2016-09-27T10:27:20Z</time>
      </trkpt>
      <trkpt lat="45.97699" lon="4.64902">
        <ele>288</ele>
        <time>2016-09-27T10:27:21Z</time>
      </trkpt>
      <trkpt lat="45.97699" lon="4.64915">
        <ele>288</ele>
        <time>2016-09-27T10:27:22Z</time>
      </trkpt>
      <trkpt lat="45.97701" lon="4.64929">
        <ele>287</ele>
        <time>2016-09-27T10:27:23Z</time>
      </trkpt>
      <trkpt lat="45.97703" lon="4.64942">
        <ele>287</ele>
        <time>2016-09-27T10:27:24Z</time>
      </trkpt>
      <trkpt lat="45.97705" lon="4.64956">
        <ele>287</ele>
        <time>2016-09-27T10:27:25Z</time>
      </trkpt>
      <trkpt lat="45.97706" lon="4.64969">
        <ele>287</ele>
        <time>2016-09-27T10:27:26Z</time>
      </trkpt>
      <trkpt lat="45.97708" lon="4.64981">
        <ele>287</ele>
        <time>2016-09-27T10:27:27Z</time>
      </trkpt>
      <trkpt lat="45.97709" lon="4.64993">
        <ele>287</ele>
        <time>2016-09-27T10:27:28Z</time>
      </trkpt>
      <trkpt lat="45.9771" lon="4.65004">
        <ele>286</ele>
        <time>2016-09-27T10:27:29Z</time>
      </trkpt>
      <trkpt lat="45.97711" lon="4.65014">
        <ele>286</ele>
        <time>2016-09-27T10:27:30Z</time>
      </trkpt>
      <trkpt lat="45.97711" lon="4.65023">
        <ele>286</ele>
        <time>2016-09-27T10:27:31Z</time>
      </trkpt>
      <trkpt lat="45.97711" lon="4.65032">
        <ele>286</ele>
        <time>2016-09-27T10:27:32Z</time>
      </trkpt>
      <trkpt lat="45.97712" lon="4.65042">
        <ele>286</ele>
        <time>2016-09-27T10:27:33Z</time>
      </trkpt>
      <trkpt lat="45.97713" lon="4.65051">
        <ele>285</ele>
        <time>2016-09-27T10:27:34Z</time>
      </trkpt>
      <trkpt lat="45.97715" lon="4.6506">
        <ele>285</ele>
        <time>2016-09-27T10:27:35Z</time>
      </trkpt>
      <trkpt lat="45.97717" lon="4.65069">
        <ele>285</ele>
        <time>2016-09-27T10:27:36Z</time>
      </trkpt>
      <trkpt lat="45.97719" lon="4.65078">
        <ele>285</ele>
        <time>2016-09-27T10:27:37Z</time>
      </trkpt>
      <trkpt lat="45.97721" lon="4.65088">
        <ele>285</ele>
        <time>2016-09-27T10:27:38Z</time>
      </trkpt>
      <trkpt lat="45.97722" lon="4.65098">
        <ele>285</ele>
        <time>2016-09-27T10:27:39Z</time>
      </trkpt>
      <trkpt lat="45.97724" lon="4.65108">
        <ele>285</ele>
        <time>2016-09-27T10:27:40Z</time>
      </trkpt>
      <trkpt lat="45.97725" lon="4.65117">
        <ele>285</ele>
        <time>2016-09-27T10:27:41Z</time>
      </trkpt>
      <trkpt lat="45.97726" lon="4.65127">
        <ele>285</ele>
        <time>2016-09-27T10:27:42Z</time>
      </trkpt>
      <trkpt lat="45.97727" lon="4.65137">
        <ele>285</ele>
        <time>2016-09-27T10:27:43Z</time>
      </trkpt>
      <trkpt lat="45.97727" lon="4.65147">
        <ele>285</ele>
        <time>2016-09-27T10:27:44Z</time>
      </trkpt>
      <trkpt lat="45.97728" lon="4.65157">
        <ele>285</ele>
        <time>2016-09-27T10:27:45Z</time>
      </trkpt>
      <trkpt lat="45.97728" lon="4.65167">
        <ele>284</ele>
        <time>2016-09-27T10:27:46Z</time>
      </trkpt>
      <trkpt lat="45.97729" lon="4.65177">
        <ele>284</ele>
        <time>2016-09-27T10:27:47Z</time>
      </trkpt>
      <trkpt lat="45.97729" lon="4.65187">
        <ele>284</ele>
        <time>2016-09-27T10:27:48Z</time>
      </trkpt>
      <trkpt lat="45.9773" lon="4.65196">
        <ele>284</ele>
        <time>2016-09-27T10:27:49Z</time>
      </trkpt>
      <trkpt lat="45.97731" lon="4.65205">
        <ele>284</ele>
        <time>2016-09-27T10:27:50Z</time>
      </trkpt>
      <trkpt lat="45.97732" lon="4.65214">
        <ele>284</ele>
        <time>2016-09-27T10:27:51Z</time>
      </trkpt>
      <trkpt lat="45.97732" lon="4.65223">
        <ele>284</ele>
        <time>2016-09-27T10:27:52Z</time>
      </trkpt>
      <trkpt lat="45.97733" lon="4.65232">
        <ele>284</ele>
        <time>2016-09-27T10:27:53Z</time>
      </trkpt>
      <trkpt lat="45.97734" lon="4.65241">
        <ele>284</ele>
        <time>2016-09-27T10:27:54Z</time>
      </trkpt>
      <trkpt lat="45.97735" lon="4.6525">
        <ele>284</ele>
        <time>2016-09-27T10:27:55Z</time>
      </trkpt>
      <trkpt lat="45.97736" lon="4.65259">
        <ele>283</ele>
        <time>2016-09-27T10:27:56Z</time>
      </trkpt>
      <trkpt lat="45.97737" lon="4.65267">
        <ele>283</ele>
        <time>2016-09-27T10:27:57Z</time>
      </trkpt>
      <trkpt lat="45.97738" lon="4.65276">
        <ele>283</ele>
        <time>2016-09-27T10:27:58Z</time>
      </trkpt>
      <trkpt lat="45.9774" lon="4.65284">
        <ele>283</ele>
        <time>2016-09-27T10:27:59Z</time>
      </trkpt>
      <trkpt lat="45.97741" lon="4.65293">
        <ele>282</ele>
        <time>2016-09-27T10:28:00Z</time>
      </trkpt>
      <trkpt lat="45.97743" lon="4.65301">
        <ele>282</ele>
        <time>2016-09-27T10:28:01Z</time>
      </trkpt>
      <trkpt lat="45.97744" lon="4.65309">
        <ele>282</ele>
        <time>2016-09-27T10:28:02Z</time>
      </trkpt>
      <trkpt lat="45.97747" lon="4.65317">
        <ele>282</ele>
        <time>2016-09-27T10:28:03Z</time>
      </trkpt>
      <trkpt lat="45.97749" lon="4.65325">
        <ele>282</ele>
        <time>2016-09-27T10:28:04Z</time>
      </trkpt>
      <trkpt lat="45.97752" lon="4.65333">
        <ele>282</ele>
        <time>2016-09-27T10:28:05Z</time>
      </trkpt>
      <trkpt lat="45.97755" lon="4.65342">
        <ele>282</ele>
        <time>2016-09-27T10:28:06Z</time>
      </trkpt>
      <trkpt lat="45.97758" lon="4.65351">
        <ele>282</ele>
        <time>2016-09-27T10:28:07Z</time>
      </trkpt>
      <trkpt lat="45.97761" lon="4.6536">
        <ele>282</ele>
        <time>2016-09-27T10:28:08Z</time>
      </trkpt>
      <trkpt lat="45.97764" lon="4.65369">
        <ele>282</ele>
        <time>2016-09-27T10:28:09Z</time>
      </trkpt>
      <trkpt lat="45.97768" lon="4.65378">
        <ele>282</ele>
        <time>2016-09-27T10:28:10Z</time>
      </trkpt>
      <trkpt lat="45.97771" lon="4.65388">
        <ele>282</ele>
        <time>2016-09-27T10:28:11Z</time>
      </trkpt>
      <trkpt lat="45.97775" lon="4.65397">
        <ele>282</ele>
        <time>2016-09-27T10:28:12Z</time>
      </trkpt>
      <trkpt lat="45.97778" lon="4.65407">
        <ele>282</ele>
        <time>2016-09-27T10:28:13Z</time>
      </trkpt>
      <trkpt lat="45.97782" lon="4.65417">
        <ele>282</ele>
        <time>2016-09-27T10:28:14Z</time>
      </trkpt>
      <trkpt lat="45.97785" lon="4.65426">
        <ele>281</ele>
        <time>2016-09-27T10:28:15Z</time>
      </trkpt>
      <trkpt lat="45.97788" lon="4.65435">
        <ele>281</ele>
        <time>2016-09-27T10:28:16Z</time>
      </trkpt>
      <trkpt lat="45.97792" lon="4.65444">
        <ele>281</ele>
        <time>2016-09-27T10:28:17Z</time>
      </trkpt>
      <trkpt lat="45.97795" lon="4.65453">
        <ele>281</ele>
        <time>2016-09-27T10:28:18Z</time>
      </trkpt>
      <trkpt lat="45.97798" lon="4.65461">
        <ele>281</ele>
        <time>2016-09-27T10:28:19Z</time>
      </trkpt>
      <trkpt lat="45.97801" lon="4.65469">
        <ele>281</ele>
        <time>2016-09-27T10:28:20Z</time>
      </trkpt>
      <trkpt lat="45.97804" lon="4.65478">
        <ele>281</ele>
        <time>2016-09-27T10:28:21Z</time>
      </trkpt>
      <trkpt lat="45.97806" lon="4.65486">
        <ele>281</ele>
        <time>2016-09-27T10:28:22Z</time>
      </trkpt>
      <trkpt lat="45.97809" lon="4.65495">
        <ele>280</ele>
        <time>2016-09-27T10:28:23Z</time>
      </trkpt>
      <trkpt lat="45.97812" lon="4.65504">
        <ele>280</ele>
        <time>2016-09-27T10:28:24Z</time>
      </trkpt>
      <trkpt lat="45.97815" lon="4.65513">
        <ele>280</ele>
        <time>2016-09-27T10:28:25Z</time>
      </trkpt>
      <trkpt lat="45.97817" lon="4.65522">
        <ele>280</ele>
        <time>2016-09-27T10:28:26Z</time>
      </trkpt>
      <trkpt lat="45.9782" lon="4.65532">
        <ele>280</ele>
        <time>2016-09-27T10:28:27Z</time>
      </trkpt>
      <trkpt lat="45.97822" lon="4.65541">
        <ele>280</ele>
        <time>2016-09-27T10:28:28Z</time>
      </trkpt>
      <trkpt lat="45.97823" lon="4.6555">
        <ele>280</ele>
        <time>2016-09-27T10:28:29Z</time>
      </trkpt>
      <trkpt lat="45.97825" lon="4.65559">
        <ele>280</ele>
        <time>2016-09-27T10:28:30Z</time>
      </trkpt>
      <trkpt lat="45.97826" lon="4.65568">
        <ele>280</ele>
        <time>2016-09-27T10:28:31Z</time>
      </trkpt>
      <trkpt lat="45.97828" lon="4.65577">
        <ele>280</ele>
        <time>2016-09-27T10:28:32Z</time>
      </trkpt>
      <trkpt lat="45.9783" lon="4.65586">
        <ele>280</ele>
        <time>2016-09-27T10:28:33Z</time>
      </trkpt>
      <trkpt lat="45.97833" lon="4.65596">
        <ele>280</ele>
        <time>2016-09-27T10:28:34Z</time>
      </trkpt>
      <trkpt lat="45.97835" lon="4.65606">
        <ele>280</ele>
        <time>2016-09-27T10:28:35Z</time>
      </trkpt>
      <trkpt lat="45.97838" lon="4.65616">
        <ele>279</ele>
        <time>2016-09-27T10:28:36Z</time>
      </trkpt>
      <trkpt lat="45.97842" lon="4.65626">
        <ele>279</ele>
        <time>2016-09-27T10:28:37Z</time>
      </trkpt>
      <trkpt lat="45.97844" lon="4.65636">
        <ele>279</ele>
        <time>2016-09-27T10:28:38Z</time>
      </trkpt>
      <trkpt lat="45.97848" lon="4.65646">
        <ele>279</ele>
        <time>2016-09-27T10:28:39Z</time>
      </trkpt>
      <trkpt lat="45.97851" lon="4.65656">
        <ele>279</ele>
        <time>2016-09-27T10:28:40Z</time>
      </trkpt>
      <trkpt lat="45.97854" lon="4.65666">
        <ele>279</ele>
        <time>2016-09-27T10:28:41Z</time>
      </trkpt>
      <trkpt lat="45.97858" lon="4.65675">
        <ele>278</ele>
        <time>2016-09-27T10:28:42Z</time>
      </trkpt>
      <trkpt lat="45.97861" lon="4.65685">
        <ele>278</ele>
        <time>2016-09-27T10:28:43Z</time>
      </trkpt>
      <trkpt lat="45.97864" lon="4.65694">
        <ele>278</ele>
        <time>2016-09-27T10:28:44Z</time>
      </trkpt>
      <trkpt lat="45.97867" lon="4.65703">
        <ele>278</ele>
        <time>2016-09-27T10:28:45Z</time>
      </trkpt>
      <trkpt lat="45.97869" lon="4.65712">
        <ele>278</ele>
        <time>2016-09-27T10:28:46Z</time>
      </trkpt>
      <trkpt lat="45.97872" lon="4.6572">
        <ele>278</ele>
        <time>2016-09-27T10:28:47Z</time>
      </trkpt>
      <trkpt lat="45.97874" lon="4.65728">
        <ele>278</ele>
        <time>2016-09-27T10:28:48Z</time>
      </trkpt>
      <trkpt lat="45.97877" lon="4.65736">
        <ele>278</ele>
        <time>2016-09-27T10:28:49Z</time>
      </trkpt>
      <trkpt lat="45.97879" lon="4.65744">
        <ele>278</ele>
        <time>2016-09-27T10:28:50Z</time>
      </trkpt>
      <trkpt lat="45.97882" lon="4.65753">
        <ele>277</ele>
        <time>2016-09-27T10:28:51Z</time>
      </trkpt>
      <trkpt lat="45.97884" lon="4.65761">
        <ele>277</ele>
        <time>2016-09-27T10:28:52Z</time>
      </trkpt>
      <trkpt lat="45.97886" lon="4.6577">
        <ele>277</ele>
        <time>2016-09-27T10:28:53Z</time>
      </trkpt>
      <trkpt lat="45.97888" lon="4.65779">
        <ele>277</ele>
        <time>2016-09-27T10:28:54Z</time>
      </trkpt>
      <trkpt lat="45.97891" lon="4.65789">
        <ele>277</ele>
        <time>2016-09-27T10:28:55Z</time>
      </trkpt>
      <trkpt lat="45.97894" lon="4.65798">
        <ele>277</ele>
        <time>2016-09-27T10:28:56Z</time>
      </trkpt>
      <trkpt lat="45.97897" lon="4.65807">
        <ele>277</ele>
        <time>2016-09-27T10:28:57Z</time>
      </trkpt>
      <trkpt lat="45.979" lon="4.65815">
        <ele>277</ele>
        <time>2016-09-27T10:28:58Z</time>
      </trkpt>
      <trkpt lat="45.97903" lon="4.65824">
        <ele>277</ele>
        <time>2016-09-27T10:28:59Z</time>
      </trkpt>
      <trkpt lat="45.97905" lon="4.65832">
        <ele>278</ele>
        <time>2016-09-27T10:29:00Z</time>
      </trkpt>
      <trkpt lat="45.97908" lon="4.65841">
        <ele>277</ele>
        <time>2016-09-27T10:29:01Z</time>
      </trkpt>
      <trkpt lat="45.97911" lon="4.65849">
        <ele>277</ele>
        <time>2016-09-27T10:29:02Z</time>
      </trkpt>
      <trkpt lat="45.97914" lon="4.65858">
        <ele>277</ele>
        <time>2016-09-27T10:29:03Z</time>
      </trkpt>
      <trkpt lat="45.97917" lon="4.65866">
        <ele>276</ele>
        <time>2016-09-27T10:29:04Z</time>
      </trkpt>
      <trkpt lat="45.9792" lon="4.65875">
        <ele>276</ele>
        <time>2016-09-27T10:29:05Z</time>
      </trkpt>
      <trkpt lat="45.97922" lon="4.65885">
        <ele>276</ele>
        <time>2016-09-27T10:29:06Z</time>
      </trkpt>
      <trkpt lat="45.97925" lon="4.65895">
        <ele>276</ele>
        <time>2016-09-27T10:29:07Z</time>
      </trkpt>
      <trkpt lat="45.97927" lon="4.65904">
        <ele>276</ele>
        <time>2016-09-27T10:29:08Z</time>
      </trkpt>
      <trkpt lat="45.97928" lon="4.65915">
        <ele>276</ele>
        <time>2016-09-27T10:29:09Z</time>
      </trkpt>
      <trkpt lat="45.97928" lon="4.65926">
        <ele>275</ele>
        <time>2016-09-27T10:29:10Z</time>
      </trkpt>
      <trkpt lat="45.97929" lon="4.65936">
        <ele>274</ele>
        <time>2016-09-27T10:29:11Z</time>
      </trkpt>
      <trkpt lat="45.97929" lon="4.65947">
        <ele>273</ele>
        <time>2016-09-27T10:29:12Z</time>
      </trkpt>
      <trkpt lat="45.97929" lon="4.65957">
        <ele>272</ele>
        <time>2016-09-27T10:29:13Z</time>
      </trkpt>
      <trkpt lat="45.97929" lon="4.65968">
        <ele>272</ele>
        <time>2016-09-27T10:29:14Z</time>
      </trkpt>
      <trkpt lat="45.97929" lon="4.65977">
        <ele>272</ele>
        <time>2016-09-27T10:29:15Z</time>
      </trkpt>
      <trkpt lat="45.9793" lon="4.65987">
        <ele>272</ele>
        <time>2016-09-27T10:29:16Z</time>
      </trkpt>
      <trkpt lat="45.97929" lon="4.65997">
        <ele>272</ele>
        <time>2016-09-27T10:29:17Z</time>
      </trkpt>
      <trkpt lat="45.97929" lon="4.66008">
        <ele>271</ele>
        <time>2016-09-27T10:29:18Z</time>
      </trkpt>
      <trkpt lat="45.97929" lon="4.66018">
        <ele>270</ele>
        <time>2016-09-27T10:29:19Z</time>
      </trkpt>
      <trkpt lat="45.97928" lon="4.66029">
        <ele>270</ele>
        <time>2016-09-27T10:29:20Z</time>
      </trkpt>
      <trkpt lat="45.97928" lon="4.6604">
        <ele>270</ele>
        <time>2016-09-27T10:29:21Z</time>
      </trkpt>
      <trkpt lat="45.97927" lon="4.66051">
        <ele>270</ele>
        <time>2016-09-27T10:29:22Z</time>
      </trkpt>
      <trkpt lat="45.97927" lon="4.66062">
        <ele>270</ele>
        <time>2016-09-27T10:29:23Z</time>
      </trkpt>
      <trkpt lat="45.97927" lon="4.66072">
        <ele>270</ele>
        <time>2016-09-27T10:29:24Z</time>
      </trkpt>
      <trkpt lat="45.97928" lon="4.66083">
        <ele>270</ele>
        <time>2016-09-27T10:29:25Z</time>
      </trkpt>
      <trkpt lat="45.97929" lon="4.66093">
        <ele>270</ele>
        <time>2016-09-27T10:29:26Z</time>
      </trkpt>
      <trkpt lat="45.97931" lon="4.66104">
        <ele>270</ele>
        <time>2016-09-27T10:29:27Z</time>
      </trkpt>
      <trkpt lat="45.97933" lon="4.66114">
        <ele>269</ele>
        <time>2016-09-27T10:29:28Z</time>
      </trkpt>
      <trkpt lat="45.97936" lon="4.66125">
        <ele>269</ele>
        <time>2016-09-27T10:29:29Z</time>
      </trkpt>
      <trkpt lat="45.97938" lon="4.66135">
        <ele>269</ele>
        <time>2016-09-27T10:29:30Z</time>
      </trkpt>
      <trkpt lat="45.9794" lon="4.66146">
        <ele>269</ele>
        <time>2016-09-27T10:29:31Z</time>
      </trkpt>
      <trkpt lat="45.97942" lon="4.66155">
        <ele>269</ele>
        <time>2016-09-27T10:29:32Z</time>
      </trkpt>
      <trkpt lat="45.97943" lon="4.66165">
        <ele>269</ele>
        <time>2016-09-27T10:29:33Z</time>
      </trkpt>
      <trkpt lat="45.97945" lon="4.66174">
        <ele>270</ele>
        <time>2016-09-27T10:29:34Z</time>
      </trkpt>
      <trkpt lat="45.97946" lon="4.66183">
        <ele>270</ele>
        <time>2016-09-27T10:29:35Z</time>
      </trkpt>
      <trkpt lat="45.97948" lon="4.66192">
        <ele>270</ele>
        <time>2016-09-27T10:29:36Z</time>
      </trkpt>
      <trkpt lat="45.9795" lon="4.66202">
        <ele>270</ele>
        <time>2016-09-27T10:29:37Z</time>
      </trkpt>
      <trkpt lat="45.97953" lon="4.66211">
        <ele>270</ele>
        <time>2016-09-27T10:29:38Z</time>
      </trkpt>
      <trkpt lat="45.97955" lon="4.66221">
        <ele>270</ele>
        <time>2016-09-27T10:29:39Z</time>
      </trkpt>
      <trkpt lat="45.97958" lon="4.66231">
        <ele>270</ele>
        <time>2016-09-27T10:29:40Z</time>
      </trkpt>
      <trkpt lat="45.97963" lon="4.6624">
        <ele>270</ele>
        <time>2016-09-27T10:29:41Z</time>
      </trkpt>
      <trkpt lat="45.97968" lon="4.66248">
        <ele>270</ele>
        <time>2016-09-27T10:29:42Z</time>
      </trkpt>
      <trkpt lat="45.97973" lon="4.66256">
        <ele>270</ele>
        <time>2016-09-27T10:29:43Z</time>
      </trkpt>
      <trkpt lat="45.97978" lon="4.66263">
        <ele>270</ele>
        <time>2016-09-27T10:29:44Z</time>
      </trkpt>
      <trkpt lat="45.97983" lon="4.66269">
        <ele>270</ele>
        <time>2016-09-27T10:29:45Z</time>
      </trkpt>
      <trkpt lat="45.97988" lon="4.66275">
        <ele>270</ele>
        <time>2016-09-27T10:29:46Z</time>
      </trkpt>
      <trkpt lat="45.97994" lon="4.66281">
        <ele>270</ele>
        <time>2016-09-27T10:29:47Z</time>
      </trkpt>
      <trkpt lat="45.97999" lon="4.66287">
        <ele>270</ele>
        <time>2016-09-27T10:29:48Z</time>
      </trkpt>
      <trkpt lat="45.98004" lon="4.66292">
        <ele>268</ele>
        <time>2016-09-27T10:29:49Z</time>
      </trkpt>
      <trkpt lat="45.9801" lon="4.66297">
        <ele>268</ele>
        <time>2016-09-27T10:29:50Z</time>
      </trkpt>
      <trkpt lat="45.98015" lon="4.66303">
        <ele>268</ele>
        <time>2016-09-27T10:29:51Z</time>
      </trkpt>
      <trkpt lat="45.9802" lon="4.66309">
        <ele>268</ele>
        <time>2016-09-27T10:29:52Z</time>
      </trkpt>
      <trkpt lat="45.98025" lon="4.66315">
        <ele>268</ele>
        <time>2016-09-27T10:29:53Z</time>
      </trkpt>
      <trkpt lat="45.98029" lon="4.66324">
        <ele>268</ele>
        <time>2016-09-27T10:29:54Z</time>
      </trkpt>
      <trkpt lat="45.98033" lon="4.66333">
        <ele>268</ele>
        <time>2016-09-27T10:29:55Z</time>
      </trkpt>
      <trkpt lat="45.98037" lon="4.66341">
        <ele>267</ele>
        <time>2016-09-27T10:29:56Z</time>
      </trkpt>
      <trkpt lat="45.98041" lon="4.6635">
        <ele>267</ele>
        <time>2016-09-27T10:29:57Z</time>
      </trkpt>
      <trkpt lat="45.98044" lon="4.66358">
        <ele>267</ele>
        <time>2016-09-27T10:29:58Z</time>
      </trkpt>
      <trkpt lat="45.98047" lon="4.66367">
        <ele>267</ele>
        <time>2016-09-27T10:29:59Z</time>
      </trkpt>
      <trkpt lat="45.9805" lon="4.66377">
        <ele>267</ele>
        <time>2016-09-27T10:30:00Z</time>
      </trkpt>
      <trkpt lat="45.98053" lon="4.66386">
        <ele>267</ele>
        <time>2016-09-27T10:30:01Z</time>
      </trkpt>
      <trkpt lat="45.98056" lon="4.66395">
        <ele>267</ele>
        <time>2016-09-27T10:30:02Z</time>
      </trkpt>
      <trkpt lat="45.98059" lon="4.66405">
        <ele>266</ele>
        <time>2016-09-27T10:30:03Z</time>
      </trkpt>
      <trkpt lat="45.98061" lon="4.66415">
        <ele>266</ele>
        <time>2016-09-27T10:30:04Z</time>
      </trkpt>
      <trkpt lat="45.98064" lon="4.66425">
        <ele>266</ele>
        <time>2016-09-27T10:30:05Z</time>
      </trkpt>
      <trkpt lat="45.98067" lon="4.66435">
        <ele>266</ele>
        <time>2016-09-27T10:30:06Z</time>
      </trkpt>
      <trkpt lat="45.98069" lon="4.66446">
        <ele>266</ele>
        <time>2016-09-27T10:30:07Z</time>
      </trkpt>
      <trkpt lat="45.98071" lon="4.66458">
        <ele>266</ele>
        <time>2016-09-27T10:30:08Z</time>
      </trkpt>
      <trkpt lat="45.98072" lon="4.66469">
        <ele>266</ele>
        <time>2016-09-27T10:30:09Z</time>
      </trkpt>
      <trkpt lat="45.98072" lon="4.66479">
        <ele>266</ele>
        <time>2016-09-27T10:30:10Z</time>
      </trkpt>
      <trkpt lat="45.98073" lon="4.6649">
        <ele>265</ele>
        <time>2016-09-27T10:30:11Z</time>
      </trkpt>
      <trkpt lat="45.98074" lon="4.66501">
        <ele>265</ele>
        <time>2016-09-27T10:30:12Z</time>
      </trkpt>
      <trkpt lat="45.98074" lon="4.66511">
        <ele>265</ele>
        <time>2016-09-27T10:30:13Z</time>
      </trkpt>
      <trkpt lat="45.98075" lon="4.66521">
        <ele>264</ele>
        <time>2016-09-27T10:30:14Z</time>
      </trkpt>
      <trkpt lat="45.98076" lon="4.66531">
        <ele>264</ele>
        <time>2016-09-27T10:30:15Z</time>
      </trkpt>
      <trkpt lat="45.98077" lon="4.66541">
        <ele>264</ele>
        <time>2016-09-27T10:30:16Z</time>
      </trkpt>
      <trkpt lat="45.98077" lon="4.66551">
        <ele>264</ele>
        <time>2016-09-27T10:30:17Z</time>
      </trkpt>
      <trkpt lat="45.98078" lon="4.66562">
        <ele>263</ele>
        <time>2016-09-27T10:30:18Z</time>
      </trkpt>
      <trkpt lat="45.9808" lon="4.66573">
        <ele>263</ele>
        <time>2016-09-27T10:30:19Z</time>
      </trkpt>
      <trkpt lat="45.98081" lon="4.66583">
        <ele>262</ele>
        <time>2016-09-27T10:30:20Z</time>
      </trkpt>
      <trkpt lat="45.98083" lon="4.66594">
        <ele>262</ele>
        <time>2016-09-27T10:30:21Z</time>
      </trkpt>
      <trkpt lat="45.98085" lon="4.66606">
        <ele>260</ele>
        <time>2016-09-27T10:30:22Z</time>
      </trkpt>
      <trkpt lat="45.98087" lon="4.66617">
        <ele>260</ele>
        <time>2016-09-27T10:30:23Z</time>
      </trkpt>
      <trkpt lat="45.9809" lon="4.66629">
        <ele>259</ele>
        <time>2016-09-27T10:30:24Z</time>
      </trkpt>
      <trkpt lat="45.98092" lon="4.6664">
        <ele>259</ele>
        <time>2016-09-27T10:30:25Z</time>
      </trkpt>
      <trkpt lat="45.98094" lon="4.66653">
        <ele>259</ele>
        <time>2016-09-27T10:30:26Z</time>
      </trkpt>
      <trkpt lat="45.98097" lon="4.66665">
        <ele>259</ele>
        <time>2016-09-27T10:30:27Z</time>
      </trkpt>
      <trkpt lat="45.98099" lon="4.66677">
        <ele>258</ele>
        <time>2016-09-27T10:30:28Z</time>
      </trkpt>
      <trkpt lat="45.98101" lon="4.66689">
        <ele>257</ele>
        <time>2016-09-27T10:30:29Z</time>
      </trkpt>
      <trkpt lat="45.98103" lon="4.66701">
        <ele>257</ele>
        <time>2016-09-27T10:30:30Z</time>
      </trkpt>
      <trkpt lat="45.98106" lon="4.66714">
        <ele>257</ele>
        <time>2016-09-27T10:30:31Z</time>
      </trkpt>
      <trkpt lat="45.98108" lon="4.66726">
        <ele>257</ele>
        <time>2016-09-27T10:30:32Z</time>
      </trkpt>
      <trkpt lat="45.98111" lon="4.66738">
        <ele>257</ele>
        <time>2016-09-27T10:30:33Z</time>
      </trkpt>
      <trkpt lat="45.98113" lon="4.6675">
        <ele>255</ele>
        <time>2016-09-27T10:30:34Z</time>
      </trkpt>
      <trkpt lat="45.98115" lon="4.66762">
        <ele>255</ele>
        <time>2016-09-27T10:30:35Z</time>
      </trkpt>
      <trkpt lat="45.98117" lon="4.66774">
        <ele>255</ele>
        <time>2016-09-27T10:30:36Z</time>
      </trkpt>
      <trkpt lat="45.98119" lon="4.66786">
        <ele>255</ele>
        <time>2016-09-27T10:30:37Z</time>
      </trkpt>
      <trkpt lat="45.98122" lon="4.66798">
        <ele>255</ele>
        <time>2016-09-27T10:30:38Z</time>
      </trkpt>
      <trkpt lat="45.98124" lon="4.6681">
        <ele>254</ele>
        <time>2016-09-27T10:30:39Z</time>
      </trkpt>
      <trkpt lat="45.98126" lon="4.66821">
        <ele>254</ele>
        <time>2016-09-27T10:30:40Z</time>
      </trkpt>
      <trkpt lat="45.98128" lon="4.66832">
        <ele>254</ele>
        <time>2016-09-27T10:30:41Z</time>
      </trkpt>
      <trkpt lat="45.9813" lon="4.66844">
        <ele>254</ele>
        <time>2016-09-27T10:30:42Z</time>
      </trkpt>
      <trkpt lat="45.98132" lon="4.66855">
        <ele>254</ele>
        <time>2016-09-27T10:30:43Z</time>
      </trkpt>
      <trkpt lat="45.98133" lon="4.66867">
        <ele>254</ele>
        <time>2016-09-27T10:30:44Z</time>
      </trkpt>
      <trkpt lat="45.98134" lon="4.66878">
        <ele>254</ele>
        <time>2016-09-27T10:30:45Z</time>
      </trkpt>
      <trkpt lat="45.98136" lon="4.6689">
        <ele>254</ele>
        <time>2016-09-27T10:30:46Z</time>
      </trkpt>
      <trkpt lat="45.98136" lon="4.66902">
        <ele>254</ele>
        <time>2016-09-27T10:30:47Z</time>
      </trkpt>
      <trkpt lat="45.98137" lon="4.66914">
        <ele>254</ele>
        <time>2016-09-27T10:30:48Z</time>
      </trkpt>
      <trkpt lat="45.98137" lon="4.66926">
        <ele>253</ele>
        <time>2016-09-27T10:30:49Z</time>
      </trkpt>
      <trkpt lat="45.98137" lon="4.66937">
        <ele>253</ele>
        <time>2016-09-27T10:30:50Z</time>
      </trkpt>
      <trkpt lat="45.98137" lon="4.66949">
        <ele>253</ele>
        <time>2016-09-27T10:30:51Z</time>
      </trkpt>
      <trkpt lat="45.98137" lon="4.6696">
        <ele>253</ele>
        <time>2016-09-27T10:30:52Z</time>
      </trkpt>
      <trkpt lat="45.98137" lon="4.66971">
        <ele>253</ele>
        <time>2016-09-27T10:30:53Z</time>
      </trkpt>
      <trkpt lat="45.98137" lon="4.66981">
        <ele>253</ele>
        <time>2016-09-27T10:30:54Z</time>
      </trkpt>
      <trkpt lat="45.98137" lon="4.66992">
        <ele>253</ele>
        <time>2016-09-27T10:30:55Z</time>
      </trkpt>
      <trkpt lat="45.98137" lon="4.67003">
        <ele>251</ele>
        <time>2016-09-27T10:30:56Z</time>
      </trkpt>
      <trkpt lat="45.98138" lon="4.67014">
        <ele>251</ele>
        <time>2016-09-27T10:30:57Z</time>
      </trkpt>
      <trkpt lat="45.98138" lon="4.67024">
        <ele>251</ele>
        <time>2016-09-27T10:30:58Z</time>
      </trkpt>
      <trkpt lat="45.98139" lon="4.67035">
        <ele>251</ele>
        <time>2016-09-27T10:30:59Z</time>
      </trkpt>
      <trkpt lat="45.98141" lon="4.67044">
        <ele>251</ele>
        <time>2016-09-27T10:31:00Z</time>
      </trkpt>
      <trkpt lat="45.98143" lon="4.67054">
        <ele>251</ele>
        <time>2016-09-27T10:31:01Z</time>
      </trkpt>
      <trkpt lat="45.98146" lon="4.67063">
        <ele>251</ele>
        <time>2016-09-27T10:31:02Z</time>
      </trkpt>
      <trkpt lat="45.98149" lon="4.67072">
        <ele>251</ele>
        <time>2016-09-27T10:31:03Z</time>
      </trkpt>
      <trkpt lat="45.98152" lon="4.67082">
        <ele>251</ele>
        <time>2016-09-27T10:31:04Z</time>
      </trkpt>
      <trkpt lat="45.98154" lon="4.67091">
        <ele>251</ele>
        <time>2016-09-27T10:31:05Z</time>
      </trkpt>
      <trkpt lat="45.98157" lon="4.67101">
        <ele>251</ele>
        <time>2016-09-27T10:31:06Z</time>
      </trkpt>
      <trkpt lat="45.9816" lon="4.6711">
        <ele>251</ele>
        <time>2016-09-27T10:31:07Z</time>
      </trkpt>
      <trkpt lat="45.98163" lon="4.67119">
        <ele>251</ele>
        <time>2016-09-27T10:31:08Z</time>
      </trkpt>
      <trkpt lat="45.98165" lon="4.67128">
        <ele>251</ele>
        <time>2016-09-27T10:31:09Z</time>
      </trkpt>
      <trkpt lat="45.98168" lon="4.67137">
        <ele>249</ele>
        <time>2016-09-27T10:31:10Z</time>
      </trkpt>
      <trkpt lat="45.9817" lon="4.67146">
        <ele>250</ele>
        <time>2016-09-27T10:31:11Z</time>
      </trkpt>
      <trkpt lat="45.98173" lon="4.67155">
        <ele>250</ele>
        <time>2016-09-27T10:31:12Z</time>
      </trkpt>
      <trkpt lat="45.98175" lon="4.67163">
        <ele>251</ele>
        <time>2016-09-27T10:31:13Z</time>
      </trkpt>
      <trkpt lat="45.98177" lon="4.67173">
        <ele>251</ele>
        <time>2016-09-27T10:31:14Z</time>
      </trkpt>
      <trkpt lat="45.98179" lon="4.67181">
        <ele>250</ele>
        <time>2016-09-27T10:31:15Z</time>
      </trkpt>
      <trkpt lat="45.98182" lon="4.6719">
        <ele>250</ele>
        <time>2016-09-27T10:31:16Z</time>
      </trkpt>
      <trkpt lat="45.98184" lon="4.67199">
        <ele>250</ele>
        <time>2016-09-27T10:31:17Z</time>
      </trkpt>
      <trkpt lat="45.98186" lon="4.67208">
        <ele>250</ele>
        <time>2016-09-27T10:31:18Z</time>
      </trkpt>
      <trkpt lat="45.98188" lon="4.67217">
        <ele>250</ele>
        <time>2016-09-27T10:31:19Z</time>
      </trkpt>
      <trkpt lat="45.9819" lon="4.67226">
        <ele>250</ele>
        <time>2016-09-27T10:31:20Z</time>
      </trkpt>
      <trkpt lat="45.98192" lon="4.67236">
        <ele>250</ele>
        <time>2016-09-27T10:31:21Z</time>
      </trkpt>
      <trkpt lat="45.98194" lon="4.67245">
        <ele>250</ele>
        <time>2016-09-27T10:31:22Z</time>
      </trkpt>
      <trkpt lat="45.98195" lon="4.67255">
        <ele>250</ele>
        <time>2016-09-27T10:31:23Z</time>
      </trkpt>
      <trkpt lat="45.98196" lon="4.67265">
        <ele>250</ele>
        <time>2016-09-27T10:31:24Z</time>
      </trkpt>
      <trkpt lat="45.98196" lon="4.67275">
        <ele>249</ele>
        <time>2016-09-27T10:31:25Z</time>
      </trkpt>
      <trkpt lat="45.98197" lon="4.67285">
        <ele>249</ele>
        <time>2016-09-27T10:31:26Z</time>
      </trkpt>
      <trkpt lat="45.98198" lon="4.67296">
        <ele>249</ele>
        <time>2016-09-27T10:31:27Z</time>
      </trkpt>
      <trkpt lat="45.98199" lon="4.67305">
        <ele>249</ele>
        <time>2016-09-27T10:31:28Z</time>
      </trkpt>
      <trkpt lat="45.98199" lon="4.67315">
        <ele>249</ele>
        <time>2016-09-27T10:31:29Z</time>
      </trkpt>
      <trkpt lat="45.98199" lon="4.67325">
        <ele>249</ele>
        <time>2016-09-27T10:31:30Z</time>
      </trkpt>
      <trkpt lat="45.98199" lon="4.67335">
        <ele>248</ele>
        <time>2016-09-27T10:31:31Z</time>
      </trkpt>
      <trkpt lat="45.982" lon="4.67344">
        <ele>248</ele>
        <time>2016-09-27T10:31:32Z</time>
      </trkpt>
      <trkpt lat="45.982" lon="4.67354">
        <ele>248</ele>
        <time>2016-09-27T10:31:33Z</time>
      </trkpt>
      <trkpt lat="45.982" lon="4.67362">
        <ele>248</ele>
        <time>2016-09-27T10:31:34Z</time>
      </trkpt>
      <trkpt lat="45.982" lon="4.67371">
        <ele>248</ele>
        <time>2016-09-27T10:31:35Z</time>
      </trkpt>
      <trkpt lat="45.982" lon="4.6738">
        <ele>248</ele>
        <time>2016-09-27T10:31:36Z</time>
      </trkpt>
      <trkpt lat="45.982" lon="4.67389">
        <ele>248</ele>
        <time>2016-09-27T10:31:37Z</time>
      </trkpt>
      <trkpt lat="45.98201" lon="4.67398">
        <ele>248</ele>
        <time>2016-09-27T10:31:38Z</time>
      </trkpt>
      <trkpt lat="45.98201" lon="4.67408">
        <ele>248</ele>
        <time>2016-09-27T10:31:39Z</time>
      </trkpt>
      <trkpt lat="45.98201" lon="4.67418">
        <ele>247</ele>
        <time>2016-09-27T10:31:40Z</time>
      </trkpt>
      <trkpt lat="45.98202" lon="4.67429">
        <ele>247</ele>
        <time>2016-09-27T10:31:41Z</time>
      </trkpt>
      <trkpt lat="45.98202" lon="4.67439">
        <ele>247</ele>
        <time>2016-09-27T10:31:42Z</time>
      </trkpt>
      <trkpt lat="45.98203" lon="4.67449">
        <ele>247</ele>
        <time>2016-09-27T10:31:43Z</time>
      </trkpt>
      <trkpt lat="45.98203" lon="4.67459">
        <ele>247</ele>
        <time>2016-09-27T10:31:44Z</time>
      </trkpt>
      <trkpt lat="45.98203" lon="4.67468">
        <ele>247</ele>
        <time>2016-09-27T10:31:45Z</time>
      </trkpt>
      <trkpt lat="45.98204" lon="4.67477">
        <ele>247</ele>
        <time>2016-09-27T10:31:46Z</time>
      </trkpt>
      <trkpt lat="45.98204" lon="4.67487">
        <ele>247</ele>
        <time>2016-09-27T10:31:47Z</time>
      </trkpt>
      <trkpt lat="45.98205" lon="4.67496">
        <ele>247</ele>
        <time>2016-09-27T10:31:48Z</time>
      </trkpt>
      <trkpt lat="45.98205" lon="4.67506">
        <ele>247</ele>
        <time>2016-09-27T10:31:49Z</time>
      </trkpt>
      <trkpt lat="45.98206" lon="4.67515">
        <ele>247</ele>
        <time>2016-09-27T10:31:50Z</time>
      </trkpt>
      <trkpt lat="45.98206" lon="4.67524">
        <ele>247</ele>
        <time>2016-09-27T10:31:51Z</time>
      </trkpt>
      <trkpt lat="45.98207" lon="4.67534">
        <ele>247</ele>
        <time>2016-09-27T10:31:52Z</time>
      </trkpt>
      <trkpt lat="45.98207" lon="4.67544">
        <ele>247</ele>
        <time>2016-09-27T10:31:53Z</time>
      </trkpt>
      <trkpt lat="45.98208" lon="4.67554">
        <ele>247</ele>
        <time>2016-09-27T10:31:54Z</time>
      </trkpt>
      <trkpt lat="45.98209" lon="4.67564">
        <ele>247</ele>
        <time>2016-09-27T10:31:55Z</time>
      </trkpt>
      <trkpt lat="45.9821" lon="4.67573">
        <ele>247</ele>
        <time>2016-09-27T10:31:56Z</time>
      </trkpt>
      <trkpt lat="45.98212" lon="4.67583">
        <ele>247</ele>
        <time>2016-09-27T10:31:57Z</time>
      </trkpt>
      <trkpt lat="45.98213" lon="4.67593">
        <ele>246</ele>
        <time>2016-09-27T10:31:58Z</time>
      </trkpt>
      <trkpt lat="45.98214" lon="4.67602">
        <ele>246</ele>
        <time>2016-09-27T10:31:59Z</time>
      </trkpt>
      <trkpt lat="45.98216" lon="4.67612">
        <ele>246</ele>
        <time>2016-09-27T10:32:00Z</time>
      </trkpt>
      <trkpt lat="45.98218" lon="4.67622">
        <ele>246</ele>
        <time>2016-09-27T10:32:01Z</time>
      </trkpt>
      <trkpt lat="45.9822" lon="4.67633">
        <ele>246</ele>
        <time>2016-09-27T10:32:02Z</time>
      </trkpt>
      <trkpt lat="45.98222" lon="4.67643">
        <ele>246</ele>
        <time>2016-09-27T10:32:03Z</time>
      </trkpt>
      <trkpt lat="45.98224" lon="4.67653">
        <ele>246</ele>
        <time>2016-09-27T10:32:04Z</time>
      </trkpt>
      <trkpt lat="45.98226" lon="4.67664">
        <ele>246</ele>
        <time>2016-09-27T10:32:05Z</time>
      </trkpt>
      <trkpt lat="45.98227" lon="4.67675">
        <ele>244</ele>
        <time>2016-09-27T10:32:06Z</time>
      </trkpt>
      <trkpt lat="45.98229" lon="4.67686">
        <ele>244</ele>
        <time>2016-09-27T10:32:07Z</time>
      </trkpt>
      <trkpt lat="45.98231" lon="4.67698">
        <ele>243</ele>
        <time>2016-09-27T10:32:08Z</time>
      </trkpt>
      <trkpt lat="45.98231" lon="4.6771">
        <ele>243</ele>
        <time>2016-09-27T10:32:09Z</time>
      </trkpt>
      <trkpt lat="45.98231" lon="4.67722">
        <ele>243</ele>
        <time>2016-09-27T10:32:10Z</time>
      </trkpt>
      <trkpt lat="45.98231" lon="4.67735">
        <ele>242</ele>
        <time>2016-09-27T10:32:11Z</time>
      </trkpt>
      <trkpt lat="45.9823" lon="4.67748">
        <ele>242</ele>
        <time>2016-09-27T10:32:12Z</time>
      </trkpt>
      <trkpt lat="45.98228" lon="4.67761">
        <ele>239</ele>
        <time>2016-09-27T10:32:13Z</time>
      </trkpt>
      <trkpt lat="45.98226" lon="4.67774">
        <ele>239</ele>
        <time>2016-09-27T10:32:14Z</time>
      </trkpt>
      <trkpt lat="45.98223" lon="4.67786">
        <ele>238</ele>
        <time>2016-09-27T10:32:15Z</time>
      </trkpt>
      <trkpt lat="45.9822" lon="4.67799">
        <ele>238</ele>
        <time>2016-09-27T10:32:16Z</time>
      </trkpt>
      <trkpt lat="45.98217" lon="4.67812">
        <ele>237</ele>
        <time>2016-09-27T10:32:17Z</time>
      </trkpt>
      <trkpt lat="45.98214" lon="4.67825">
        <ele>237</ele>
        <time>2016-09-27T10:32:18Z</time>
      </trkpt>
      <trkpt lat="45.98212" lon="4.67839">
        <ele>234</ele>
        <time>2016-09-27T10:32:19Z</time>
      </trkpt>
      <trkpt lat="45.98211" lon="4.67852">
        <ele>233</ele>
        <time>2016-09-27T10:32:20Z</time>
      </trkpt>
      <trkpt lat="45.98211" lon="4.67866">
        <ele>233</ele>
        <time>2016-09-27T10:32:21Z</time>
      </trkpt>
      <trkpt lat="45.98212" lon="4.67881">
        <ele>232</ele>
        <time>2016-09-27T10:32:22Z</time>
      </trkpt>
      <trkpt lat="45.98214" lon="4.67896">
        <ele>232</ele>
        <time>2016-09-27T10:32:23Z</time>
      </trkpt>
      <trkpt lat="45.98215" lon="4.67911">
        <ele>232</ele>
        <time>2016-09-27T10:32:24Z</time>
      </trkpt>
      <trkpt lat="45.98217" lon="4.67926">
        <ele>230</ele>
        <time>2016-09-27T10:32:25Z</time>
      </trkpt>
      <trkpt lat="45.98218" lon="4.67941">
        <ele>229</ele>
        <time>2016-09-27T10:32:26Z</time>
      </trkpt>
      <trkpt lat="45.98219" lon="4.67956">
        <ele>229</ele>
        <time>2016-09-27T10:32:27Z</time>
      </trkpt>
      <trkpt lat="45.98219" lon="4.67971">
        <ele>229</ele>
        <time>2016-09-27T10:32:28Z</time>
      </trkpt>
      <trkpt lat="45.98219" lon="4.67986">
        <ele>229</ele>
        <time>2016-09-27T10:32:29Z</time>
      </trkpt>
      <trkpt lat="45.98219" lon="4.68001">
        <ele>228</ele>
        <time>2016-09-27T10:32:30Z</time>
      </trkpt>
      <trkpt lat="45.98219" lon="4.68015">
        <ele>228</ele>
        <time>2016-09-27T10:32:31Z</time>
      </trkpt>
      <trkpt lat="45.98219" lon="4.68029">
        <ele>228</ele>
        <time>2016-09-27T10:32:32Z</time>
      </trkpt>
      <trkpt lat="45.98218" lon="4.68042">
        <ele>228</ele>
        <time>2016-09-27T10:32:33Z</time>
      </trkpt>
      <trkpt lat="45.98218" lon="4.68055">
        <ele>228</ele>
        <time>2016-09-27T10:32:34Z</time>
      </trkpt>
      <trkpt lat="45.98218" lon="4.68068">
        <ele>228</ele>
        <time>2016-09-27T10:32:35Z</time>
      </trkpt>
      <trkpt lat="45.98218" lon="4.6808">
        <ele>228</ele>
        <time>2016-09-27T10:32:36Z</time>
      </trkpt>
      <trkpt lat="45.98218" lon="4.68092">
        <ele>228</ele>
        <time>2016-09-27T10:32:37Z</time>
      </trkpt>
      <trkpt lat="45.98218" lon="4.68104">
        <ele>228</ele>
        <time>2016-09-27T10:32:38Z</time>
      </trkpt>
      <trkpt lat="45.98218" lon="4.68116">
        <ele>228</ele>
        <time>2016-09-27T10:32:39Z</time>
      </trkpt>
      <trkpt lat="45.98219" lon="4.68128">
        <ele>228</ele>
        <time>2016-09-27T10:32:40Z</time>
      </trkpt>
      <trkpt lat="45.9822" lon="4.68139">
        <ele>228</ele>
        <time>2016-09-27T10:32:41Z</time>
      </trkpt>
      <trkpt lat="45.98221" lon="4.6815">
        <ele>228</ele>
        <time>2016-09-27T10:32:42Z</time>
      </trkpt>
      <trkpt lat="45.98222" lon="4.68162">
        <ele>228</ele>
        <time>2016-09-27T10:32:43Z</time>
      </trkpt>
      <trkpt lat="45.98222" lon="4.68174">
        <ele>227</ele>
        <time>2016-09-27T10:32:44Z</time>
      </trkpt>
      <trkpt lat="45.98223" lon="4.68185">
        <ele>227</ele>
        <time>2016-09-27T10:32:45Z</time>
      </trkpt>
      <trkpt lat="45.98223" lon="4.68197">
        <ele>226</ele>
        <time>2016-09-27T10:32:46Z</time>
      </trkpt>
      <trkpt lat="45.98223" lon="4.68208">
        <ele>226</ele>
        <time>2016-09-27T10:32:47Z</time>
      </trkpt>
      <trkpt lat="45.98224" lon="4.68219">
        <ele>226</ele>
        <time>2016-09-27T10:32:48Z</time>
      </trkpt>
      <trkpt lat="45.98225" lon="4.68231">
        <ele>226</ele>
        <time>2016-09-27T10:32:49Z</time>
      </trkpt>
      <trkpt lat="45.98226" lon="4.68243">
        <ele>225</ele>
        <time>2016-09-27T10:32:50Z</time>
      </trkpt>
      <trkpt lat="45.98228" lon="4.68255">
        <ele>223</ele>
        <time>2016-09-27T10:32:51Z</time>
      </trkpt>
      <trkpt lat="45.9823" lon="4.68267">
        <ele>223</ele>
        <time>2016-09-27T10:32:52Z</time>
      </trkpt>
      <trkpt lat="45.9823" lon="4.68279">
        <ele>222</ele>
        <time>2016-09-27T10:32:53Z</time>
      </trkpt>
      <trkpt lat="45.9823" lon="4.68292">
        <ele>222</ele>
        <time>2016-09-27T10:32:54Z</time>
      </trkpt>
      <trkpt lat="45.98231" lon="4.68304">
        <ele>221</ele>
        <time>2016-09-27T10:32:55Z</time>
      </trkpt>
      <trkpt lat="45.98231" lon="4.68316">
        <ele>221</ele>
        <time>2016-09-27T10:32:56Z</time>
      </trkpt>
      <trkpt lat="45.98231" lon="4.68329">
        <ele>221</ele>
        <time>2016-09-27T10:32:57Z</time>
      </trkpt>
      <trkpt lat="45.98231" lon="4.68343">
        <ele>218</ele>
        <time>2016-09-27T10:32:58Z</time>
      </trkpt>
      <trkpt lat="45.98231" lon="4.68356">
        <ele>218</ele>
        <time>2016-09-27T10:32:59Z</time>
      </trkpt>
      <trkpt lat="45.9823" lon="4.68369">
        <ele>218</ele>
        <time>2016-09-27T10:33:00Z</time>
      </trkpt>
      <trkpt lat="45.9823" lon="4.68383">
        <ele>217</ele>
        <time>2016-09-27T10:33:01Z</time>
      </trkpt>
      <trkpt lat="45.98229" lon="4.68397">
        <ele>217</ele>
        <time>2016-09-27T10:33:02Z</time>
      </trkpt>
      <trkpt lat="45.98228" lon="4.68412">
        <ele>217</ele>
        <time>2016-09-27T10:33:03Z</time>
      </trkpt>
      <trkpt lat="45.98228" lon="4.68427">
        <ele>214</ele>
        <time>2016-09-27T10:33:04Z</time>
      </trkpt>
      <trkpt lat="45.98228" lon="4.68442">
        <ele>214</ele>
        <time>2016-09-27T10:33:05Z</time>
      </trkpt>
      <trkpt lat="45.98227" lon="4.68457">
        <ele>213</ele>
        <time>2016-09-27T10:33:06Z</time>
      </trkpt>
      <trkpt lat="45.98226" lon="4.68473">
        <ele>213</ele>
        <time>2016-09-27T10:33:07Z</time>
      </trkpt>
      <trkpt lat="45.98226" lon="4.68488">
        <ele>213</ele>
        <time>2016-09-27T10:33:08Z</time>
      </trkpt>
      <trkpt lat="45.98225" lon="4.68503">
        <ele>211</ele>
        <time>2016-09-27T10:33:09Z</time>
      </trkpt>
      <trkpt lat="45.98225" lon="4.68518">
        <ele>210</ele>
        <time>2016-09-27T10:33:10Z</time>
      </trkpt>
      <trkpt lat="45.98225" lon="4.68534">
        <ele>210</ele>
        <time>2016-09-27T10:33:11Z</time>
      </trkpt>
      <trkpt lat="45.98226" lon="4.68549">
        <ele>210</ele>
        <time>2016-09-27T10:33:12Z</time>
      </trkpt>
      <trkpt lat="45.98227" lon="4.68564">
        <ele>210</ele>
        <time>2016-09-27T10:33:13Z</time>
      </trkpt>
      <trkpt lat="45.98229" lon="4.6858">
        <ele>210</ele>
        <time>2016-09-27T10:33:14Z</time>
      </trkpt>
      <trkpt lat="45.9823" lon="4.68594">
        <ele>209</ele>
        <time>2016-09-27T10:33:15Z</time>
      </trkpt>
      <trkpt lat="45.98231" lon="4.68609">
        <ele>208</ele>
        <time>2016-09-27T10:33:16Z</time>
      </trkpt>
      <trkpt lat="45.98231" lon="4.68624">
        <ele>208</ele>
        <time>2016-09-27T10:33:17Z</time>
      </trkpt>
      <trkpt lat="45.9823" lon="4.68639">
        <ele>208</ele>
        <time>2016-09-27T10:33:18Z</time>
      </trkpt>
      <trkpt lat="45.98228" lon="4.68653">
        <ele>208</ele>
        <time>2016-09-27T10:33:19Z</time>
      </trkpt>
      <trkpt lat="45.98226" lon="4.68667">
        <ele>207</ele>
        <time>2016-09-27T10:33:20Z</time>
      </trkpt>
      <trkpt lat="45.98223" lon="4.68681">
        <ele>207</ele>
        <time>2016-09-27T10:33:21Z</time>
      </trkpt>
      <trkpt lat="45.9822" lon="4.68696">
        <ele>207</ele>
        <time>2016-09-27T10:33:22Z</time>
      </trkpt>
      <trkpt lat="45.98218" lon="4.68711">
        <ele>206</ele>
        <time>2016-09-27T10:33:23Z</time>
      </trkpt>
      <trkpt lat="45.98216" lon="4.68725">
        <ele>206</ele>
        <time>2016-09-27T10:33:24Z</time>
      </trkpt>
      <trkpt lat="45.98213" lon="4.68739">
        <ele>206</ele>
        <time>2016-09-27T10:33:25Z</time>
      </trkpt>
      <trkpt lat="45.98211" lon="4.68753">
        <ele>205</ele>
        <time>2016-09-27T10:33:26Z</time>
      </trkpt>
      <trkpt lat="45.98209" lon="4.68766">
        <ele>204</ele>
        <time>2016-09-27T10:33:27Z</time>
      </trkpt>
      <trkpt lat="45.98208" lon="4.6878">
        <ele>204</ele>
        <time>2016-09-27T10:33:28Z</time>
      </trkpt>
      <trkpt lat="45.98206" lon="4.68793">
        <ele>204</ele>
        <time>2016-09-27T10:33:29Z</time>
      </trkpt>
      <trkpt lat="45.98205" lon="4.68806">
        <ele>204</ele>
        <time>2016-09-27T10:33:30Z</time>
      </trkpt>
      <trkpt lat="45.98204" lon="4.68818">
        <ele>204</ele>
        <time>2016-09-27T10:33:31Z</time>
      </trkpt>
      <trkpt lat="45.98203" lon="4.6883">
        <ele>203</ele>
        <time>2016-09-27T10:33:32Z</time>
      </trkpt>
      <trkpt lat="45.98202" lon="4.68842">
        <ele>203</ele>
        <time>2016-09-27T10:33:33Z</time>
      </trkpt>
      <trkpt lat="45.98201" lon="4.68854">
        <ele>203</ele>
        <time>2016-09-27T10:33:34Z</time>
      </trkpt>
      <trkpt lat="45.982" lon="4.68865">
        <ele>203</ele>
        <time>2016-09-27T10:33:35Z</time>
      </trkpt>
      <trkpt lat="45.98199" lon="4.68876">
        <ele>202</ele>
        <time>2016-09-27T10:33:36Z</time>
      </trkpt>
      <trkpt lat="45.98198" lon="4.68886">
        <ele>202</ele>
        <time>2016-09-27T10:33:37Z</time>
      </trkpt>
      <trkpt lat="45.98196" lon="4.68896">
        <ele>202</ele>
        <time>2016-09-27T10:33:38Z</time>
      </trkpt>
      <trkpt lat="45.98195" lon="4.68907">
        <ele>202</ele>
        <time>2016-09-27T10:33:39Z</time>
      </trkpt>
      <trkpt lat="45.98194" lon="4.68918">
        <ele>202</ele>
        <time>2016-09-27T10:33:40Z</time>
      </trkpt>
      <trkpt lat="45.98193" lon="4.6893">
        <ele>202</ele>
        <time>2016-09-27T10:33:41Z</time>
      </trkpt>
      <trkpt lat="45.98192" lon="4.6894">
        <ele>202</ele>
        <time>2016-09-27T10:33:42Z</time>
      </trkpt>
      <trkpt lat="45.98191" lon="4.68951">
        <ele>202</ele>
        <time>2016-09-27T10:33:43Z</time>
      </trkpt>
      <trkpt lat="45.9819" lon="4.68962">
        <ele>202</ele>
        <time>2016-09-27T10:33:44Z</time>
      </trkpt>
      <trkpt lat="45.9819" lon="4.68972">
        <ele>202</ele>
        <time>2016-09-27T10:33:45Z</time>
      </trkpt>
      <trkpt lat="45.98189" lon="4.68983">
        <ele>202</ele>
        <time>2016-09-27T10:33:46Z</time>
      </trkpt>
      <trkpt lat="45.98188" lon="4.68993">
        <ele>201</ele>
        <time>2016-09-27T10:33:47Z</time>
      </trkpt>
      <trkpt lat="45.98187" lon="4.69003">
        <ele>201</ele>
        <time>2016-09-27T10:33:48Z</time>
      </trkpt>
      <trkpt lat="45.98187" lon="4.69012">
        <ele>201</ele>
        <time>2016-09-27T10:33:49Z</time>
      </trkpt>
      <trkpt lat="45.98188" lon="4.69022">
        <ele>201</ele>
        <time>2016-09-27T10:33:50Z</time>
      </trkpt>
      <trkpt lat="45.98189" lon="4.69031">
        <ele>201</ele>
        <time>2016-09-27T10:33:51Z</time>
      </trkpt>
      <trkpt lat="45.98191" lon="4.69042">
        <ele>201</ele>
        <time>2016-09-27T10:33:52Z</time>
      </trkpt>
      <trkpt lat="45.98195" lon="4.69052">
        <ele>201</ele>
        <time>2016-09-27T10:33:53Z</time>
      </trkpt>
      <trkpt lat="45.98197" lon="4.6906">
        <ele>201</ele>
        <time>2016-09-27T10:33:54Z</time>
      </trkpt>
      <trkpt lat="45.98201" lon="4.69068">
        <ele>201</ele>
        <time>2016-09-27T10:33:55Z</time>
      </trkpt>
      <trkpt lat="45.98205" lon="4.69076">
        <ele>201</ele>
        <time>2016-09-27T10:33:56Z</time>
      </trkpt>
      <trkpt lat="45.98208" lon="4.69084">
        <ele>200</ele>
        <time>2016-09-27T10:33:57Z</time>
      </trkpt>
      <trkpt lat="45.98212" lon="4.69092">
        <ele>200</ele>
        <time>2016-09-27T10:33:58Z</time>
      </trkpt>
      <trkpt lat="45.98215" lon="4.69101">
        <ele>200</ele>
        <time>2016-09-27T10:33:59Z</time>
      </trkpt>
      <trkpt lat="45.98214" lon="4.6911">
        <ele>200</ele>
        <time>2016-09-27T10:34:00Z</time>
      </trkpt>
      <trkpt lat="45.98216" lon="4.6912">
        <ele>199</ele>
        <time>2016-09-27T10:34:01Z</time>
      </trkpt>
      <trkpt lat="45.98218" lon="4.69129">
        <ele>199</ele>
        <time>2016-09-27T10:34:02Z</time>
      </trkpt>
      <trkpt lat="45.98222" lon="4.69138">
        <ele>199</ele>
        <time>2016-09-27T10:34:03Z</time>
      </trkpt>
      <trkpt lat="45.98223" lon="4.69149">
        <ele>199</ele>
        <time>2016-09-27T10:34:04Z</time>
      </trkpt>
      <trkpt lat="45.98225" lon="4.69159">
        <ele>199</ele>
        <time>2016-09-27T10:34:05Z</time>
      </trkpt>
      <trkpt lat="45.98225" lon="4.6917">
        <ele>197</ele>
        <time>2016-09-27T10:34:06Z</time>
      </trkpt>
      <trkpt lat="45.98227" lon="4.6918">
        <ele>197</ele>
        <time>2016-09-27T10:34:07Z</time>
      </trkpt>
      <trkpt lat="45.98226" lon="4.6919">
        <ele>197</ele>
        <time>2016-09-27T10:34:08Z</time>
      </trkpt>
      <trkpt lat="45.98225" lon="4.692">
        <ele>196</ele>
        <time>2016-09-27T10:34:09Z</time>
      </trkpt>
      <trkpt lat="45.98225" lon="4.69208">
        <ele>196</ele>
        <time>2016-09-27T10:34:10Z</time>
      </trkpt>
      <trkpt lat="45.98225" lon="4.69218">
        <ele>196</ele>
        <time>2016-09-27T10:34:11Z</time>
      </trkpt>
      <trkpt lat="45.98224" lon="4.69229">
        <ele>196</ele>
        <time>2016-09-27T10:34:12Z</time>
      </trkpt>
      <trkpt lat="45.98224" lon="4.6924">
        <ele>195</ele>
        <time>2016-09-27T10:34:13Z</time>
      </trkpt>
      <trkpt lat="45.98222" lon="4.69253">
        <ele>194</ele>
        <time>2016-09-27T10:34:14Z</time>
      </trkpt>
      <trkpt lat="45.9822" lon="4.69265">
        <ele>194</ele>
        <time>2016-09-27T10:34:15Z</time>
      </trkpt>
      <trkpt lat="45.98217" lon="4.69277">
        <ele>194</ele>
        <time>2016-09-27T10:34:16Z</time>
      </trkpt>
      <trkpt lat="45.98215" lon="4.69288">
        <ele>194</ele>
        <time>2016-09-27T10:34:17Z</time>
      </trkpt>
      <trkpt lat="45.98212" lon="4.69298">
        <ele>194</ele>
        <time>2016-09-27T10:34:18Z</time>
      </trkpt>
      <trkpt lat="45.9821" lon="4.69306">
        <ele>194</ele>
        <time>2016-09-27T10:34:19Z</time>
      </trkpt>
      <trkpt lat="45.98207" lon="4.69313">
        <ele>194</ele>
        <time>2016-09-27T10:34:20Z</time>
      </trkpt>
      <trkpt lat="45.98205" lon="4.6932">
        <ele>194</ele>
        <time>2016-09-27T10:34:21Z</time>
      </trkpt>
      <trkpt lat="45.98202" lon="4.69328">
        <ele>194</ele>
        <time>2016-09-27T10:34:22Z</time>
      </trkpt>
      <trkpt lat="45.982" lon="4.69336">
        <ele>193</ele>
        <time>2016-09-27T10:34:23Z</time>
      </trkpt>
      <trkpt lat="45.98199" lon="4.69346">
        <ele>193</ele>
        <time>2016-09-27T10:34:24Z</time>
      </trkpt>
      <trkpt lat="45.98197" lon="4.69354">
        <ele>193</ele>
        <time>2016-09-27T10:34:25Z</time>
      </trkpt>
      <trkpt lat="45.98196" lon="4.69362">
        <ele>193</ele>
        <time>2016-09-27T10:34:26Z</time>
      </trkpt>
      <trkpt lat="45.98193" lon="4.69369">
        <ele>193</ele>
        <time>2016-09-27T10:34:27Z</time>
      </trkpt>
      <trkpt lat="45.98191" lon="4.69376">
        <ele>194</ele>
        <time>2016-09-27T10:34:28Z</time>
      </trkpt>
      <trkpt lat="45.98189" lon="4.69384">
        <ele>194</ele>
        <time>2016-09-27T10:34:29Z</time>
      </trkpt>
      <trkpt lat="45.98186" lon="4.69391">
        <ele>194</ele>
        <time>2016-09-27T10:34:30Z</time>
      </trkpt>
      <trkpt lat="45.98184" lon="4.69399">
        <ele>194</ele>
        <time>2016-09-27T10:34:31Z</time>
      </trkpt>
      <trkpt lat="45.98182" lon="4.69407">
        <ele>194</ele>
        <time>2016-09-27T10:34:32Z</time>
      </trkpt>
      <trkpt lat="45.9818" lon="4.69414">
        <ele>194</ele>
        <time>2016-09-27T10:34:33Z</time>
      </trkpt>
      <trkpt lat="45.98177" lon="4.69422">
        <ele>194</ele>
        <time>2016-09-27T10:34:34Z</time>
      </trkpt>
      <trkpt lat="45.98176" lon="4.6943">
        <ele>194</ele>
        <time>2016-09-27T10:34:35Z</time>
      </trkpt>
      <trkpt lat="45.98174" lon="4.69438">
        <ele>194</ele>
        <time>2016-09-27T10:34:36Z</time>
      </trkpt>
      <trkpt lat="45.98171" lon="4.69445">
        <ele>194</ele>
        <time>2016-09-27T10:34:37Z</time>
      </trkpt>
      <trkpt lat="45.98169" lon="4.69452">
        <ele>194</ele>
        <time>2016-09-27T10:34:38Z</time>
      </trkpt>
      <trkpt lat="45.98166" lon="4.69458">
        <ele>195</ele>
        <time>2016-09-27T10:34:39Z</time>
      </trkpt>
      <trkpt lat="45.98162" lon="4.69464">
        <ele>195</ele>
        <time>2016-09-27T10:34:40Z</time>
      </trkpt>
      <trkpt lat="45.98158" lon="4.69469">
        <ele>195</ele>
        <time>2016-09-27T10:34:41Z</time>
      </trkpt>
      <trkpt lat="45.98157" lon="4.69478">
        <ele>195</ele>
        <time>2016-09-27T10:34:42Z</time>
      </trkpt>
      <trkpt lat="45.98157" lon="4.69486">
        <ele>195</ele>
        <time>2016-09-27T10:34:43Z</time>
      </trkpt>
      <trkpt lat="45.98156" lon="4.69494">
        <ele>195</ele>
        <time>2016-09-27T10:34:44Z</time>
      </trkpt>
      <trkpt lat="45.98154" lon="4.69501">
        <ele>196</ele>
        <time>2016-09-27T10:34:45Z</time>
      </trkpt>
      <trkpt lat="45.98152" lon="4.69509">
        <ele>196</ele>
        <time>2016-09-27T10:34:46Z</time>
      </trkpt>
      <trkpt lat="45.9815" lon="4.69516">
        <ele>196</ele>
        <time>2016-09-27T10:34:47Z</time>
      </trkpt>
      <trkpt lat="45.98148" lon="4.69523">
        <ele>196</ele>
        <time>2016-09-27T10:34:48Z</time>
      </trkpt>
      <trkpt lat="45.98146" lon="4.6953">
        <ele>196</ele>
        <time>2016-09-27T10:34:49Z</time>
      </trkpt>
      <trkpt lat="45.98143" lon="4.69537">
        <ele>197</ele>
        <time>2016-09-27T10:34:50Z</time>
      </trkpt>
      <trkpt lat="45.9814" lon="4.69544">
        <ele>197</ele>
        <time>2016-09-27T10:34:51Z</time>
      </trkpt>
      <trkpt lat="45.98139" lon="4.6955">
        <ele>197</ele>
        <time>2016-09-27T10:34:52Z</time>
      </trkpt>
      <trkpt lat="45.98137" lon="4.69557">
        <ele>197</ele>
        <time>2016-09-27T10:34:53Z</time>
      </trkpt>
      <trkpt lat="45.98135" lon="4.69565">
        <ele>197</ele>
        <time>2016-09-27T10:34:54Z</time>
      </trkpt>
      <trkpt lat="45.98134" lon="4.69573">
        <ele>197</ele>
        <time>2016-09-27T10:34:55Z</time>
      </trkpt>
      <trkpt lat="45.98132" lon="4.6958">
        <ele>197</ele>
        <time>2016-09-27T10:34:56Z</time>
      </trkpt>
      <trkpt lat="45.9813" lon="4.69587">
        <ele>198</ele>
        <time>2016-09-27T10:34:57Z</time>
      </trkpt>
      <trkpt lat="45.98128" lon="4.69594">
        <ele>198</ele>
        <time>2016-09-27T10:34:58Z</time>
      </trkpt>
      <trkpt lat="45.98126" lon="4.69601">
        <ele>198</ele>
        <time>2016-09-27T10:34:59Z</time>
      </trkpt>
      <trkpt lat="45.98124" lon="4.69607">
        <ele>198</ele>
        <time>2016-09-27T10:35:00Z</time>
      </trkpt>
      <trkpt lat="45.98121" lon="4.69619">
        <ele>198</ele>
        <time>2016-09-27T10:35:02Z</time>
      </trkpt>
      <trkpt lat="45.9812" lon="4.69624">
        <ele>199</ele>
        <time>2016-09-27T10:35:03Z</time>
      </trkpt>
      <trkpt lat="45.98116" lon="4.69635">
        <ele>199</ele>
        <time>2016-09-27T10:35:05Z</time>
      </trkpt>
      <trkpt lat="45.98115" lon="4.6964">
        <ele>199</ele>
        <time>2016-09-27T10:35:06Z</time>
      </trkpt>
      <trkpt lat="45.98112" lon="4.6965">
        <ele>199</ele>
        <time>2016-09-27T10:35:08Z</time>
      </trkpt>
      <trkpt lat="45.98109" lon="4.69655">
        <ele>199</ele>
        <time>2016-09-27T10:35:09Z</time>
      </trkpt>
      <trkpt lat="45.98105" lon="4.69663">
        <ele>199</ele>
        <time>2016-09-27T10:35:11Z</time>
      </trkpt>
      <trkpt lat="45.98102" lon="4.69665">
        <ele>199</ele>
        <time>2016-09-27T10:35:12Z</time>
      </trkpt>
      <trkpt lat="45.98096" lon="4.69671">
        <ele>200</ele>
        <time>2016-09-27T10:35:14Z</time>
      </trkpt>
      <trkpt lat="45.98094" lon="4.69675">
        <ele>200</ele>
        <time>2016-09-27T10:35:15Z</time>
      </trkpt>
      <trkpt lat="45.98089" lon="4.69685">
        <ele>200</ele>
        <time>2016-09-27T10:35:17Z</time>
      </trkpt>
      <trkpt lat="45.98084" lon="4.69698">
        <ele>200</ele>
        <time>2016-09-27T10:35:20Z</time>
      </trkpt>
      <trkpt lat="45.98074" lon="4.69715">
        <ele>202</ele>
        <time>2016-09-27T10:35:24Z</time>
      </trkpt>
      <trkpt lat="45.98067" lon="4.69728">
        <ele>202</ele>
        <time>2016-09-27T10:35:27Z</time>
      </trkpt>
      <trkpt lat="45.9806" lon="4.69738">
        <ele>203</ele>
        <time>2016-09-27T10:35:30Z</time>
      </trkpt>
      <trkpt lat="45.98056" lon="4.69746">
        <ele>203</ele>
        <time>2016-09-27T10:35:32Z</time>
      </trkpt>
      <trkpt lat="45.98054" lon="4.6975">
        <ele>203</ele>
        <time>2016-09-27T10:35:33Z</time>
      </trkpt>
      <trkpt lat="45.98052" lon="4.69754">
        <ele>205</ele>
        <time>2016-09-27T10:35:34Z</time>
      </trkpt>
      <trkpt lat="45.98041" lon="4.6977">
        <ele>206</ele>
        <time>2016-09-27T10:35:39Z</time>
      </trkpt>
      <trkpt lat="45.98037" lon="4.69779">
        <ele>206</ele>
        <time>2016-09-27T10:35:41Z</time>
      </trkpt>
      <trkpt lat="45.98035" lon="4.69782">
        <ele>206</ele>
        <time>2016-09-27T10:35:42Z</time>
      </trkpt>
      <trkpt lat="45.98029" lon="4.69787">
        <ele>206</ele>
        <time>2016-09-27T10:35:44Z</time>
      </trkpt>
      <trkpt lat="45.98027" lon="4.6979">
        <ele>206</ele>
        <time>2016-09-27T10:35:45Z</time>
      </trkpt>
      <trkpt lat="45.98019" lon="4.69796">
        <ele>206</ele>
        <time>2016-09-27T10:35:48Z</time>
      </trkpt>
      <trkpt lat="45.98016" lon="4.69798">
        <ele>206</ele>
        <time>2016-09-27T10:35:49Z</time>
      </trkpt>
      <trkpt lat="45.98011" lon="4.69805">
        <ele>207</ele>
        <time>2016-09-27T10:35:51Z</time>
      </trkpt>
      <trkpt lat="45.98008" lon="4.69809">
        <ele>207</ele>
        <time>2016-09-27T10:35:52Z</time>
      </trkpt>
      <trkpt lat="45.98002" lon="4.69814">
        <ele>207</ele>
        <time>2016-09-27T10:35:54Z</time>
      </trkpt>
      <trkpt lat="45.97998" lon="4.69814">
        <ele>207</ele>
        <time>2016-09-27T10:35:55Z</time>
      </trkpt>
      <trkpt lat="45.97994" lon="4.69816">
        <ele>207</ele>
        <time>2016-09-27T10:35:56Z</time>
      </trkpt>
      <trkpt lat="45.97989" lon="4.6982">
        <ele>207</ele>
        <time>2016-09-27T10:35:57Z</time>
      </trkpt>
      <trkpt lat="45.97981" lon="4.69827">
        <ele>207</ele>
        <time>2016-09-27T10:35:59Z</time>
      </trkpt>
      <trkpt lat="45.97975" lon="4.69832">
        <ele>207</ele>
        <time>2016-09-27T10:36:01Z</time>
      </trkpt>
      <trkpt lat="45.9797" lon="4.69839">
        <ele>208</ele>
        <time>2016-09-27T10:36:03Z</time>
      </trkpt>
      <trkpt lat="45.97965" lon="4.69845">
        <ele>209</ele>
        <time>2016-09-27T10:36:05Z</time>
      </trkpt>
      <trkpt lat="45.97962" lon="4.69848">
        <ele>209</ele>
        <time>2016-09-27T10:36:06Z</time>
      </trkpt>
      <trkpt lat="45.97957" lon="4.69854">
        <ele>209</ele>
        <time>2016-09-27T10:36:08Z</time>
      </trkpt>
      <trkpt lat="45.97955" lon="4.69858">
        <ele>209</ele>
        <time>2016-09-27T10:36:09Z</time>
      </trkpt>
      <trkpt lat="45.97949" lon="4.69864">
        <ele>209</ele>
        <time>2016-09-27T10:36:11Z</time>
      </trkpt>
      <trkpt lat="45.97944" lon="4.69871">
        <ele>209</ele>
        <time>2016-09-27T10:36:13Z</time>
      </trkpt>
      <trkpt lat="45.97942" lon="4.69875">
        <ele>209</ele>
        <time>2016-09-27T10:36:14Z</time>
      </trkpt>
      <trkpt lat="45.97936" lon="4.69881">
        <ele>209</ele>
        <time>2016-09-27T10:36:16Z</time>
      </trkpt>
      <trkpt lat="45.97934" lon="4.69884">
        <ele>209</ele>
        <time>2016-09-27T10:36:17Z</time>
      </trkpt>
      <trkpt lat="45.97929" lon="4.69891">
        <ele>210</ele>
        <time>2016-09-27T10:36:19Z</time>
      </trkpt>
      <trkpt lat="45.97926" lon="4.69894">
        <ele>210</ele>
        <time>2016-09-27T10:36:20Z</time>
      </trkpt>
      <trkpt lat="45.97921" lon="4.69901">
        <ele>210</ele>
        <time>2016-09-27T10:36:22Z</time>
      </trkpt>
      <trkpt lat="45.97919" lon="4.69904">
        <ele>210</ele>
        <time>2016-09-27T10:36:23Z</time>
      </trkpt>
      <trkpt lat="45.97914" lon="4.69909">
        <ele>210</ele>
        <time>2016-09-27T10:36:25Z</time>
      </trkpt>
      <trkpt lat="45.97911" lon="4.69911">
        <ele>211</ele>
        <time>2016-09-27T10:36:26Z</time>
      </trkpt>
      <trkpt lat="45.97908" lon="4.69921">
        <ele>212</ele>
        <time>2016-09-27T10:36:30Z</time>
      </trkpt>
      <trkpt lat="45.97906" lon="4.69924">
        <ele>212</ele>
        <time>2016-09-27T10:36:31Z</time>
      </trkpt>
      <trkpt lat="45.97902" lon="4.69933">
        <ele>213</ele>
        <time>2016-09-27T10:36:33Z</time>
      </trkpt>
      <trkpt lat="45.979" lon="4.69936">
        <ele>213</ele>
        <time>2016-09-27T10:36:34Z</time>
      </trkpt>
      <trkpt lat="45.97894" lon="4.69941">
        <ele>213</ele>
        <time>2016-09-27T10:36:36Z</time>
      </trkpt>
      <trkpt lat="45.97892" lon="4.69944">
        <ele>214</ele>
        <time>2016-09-27T10:36:37Z</time>
      </trkpt>
      <trkpt lat="45.97886" lon="4.69953">
        <ele>214</ele>
        <time>2016-09-27T10:36:40Z</time>
      </trkpt>
      <trkpt lat="45.97884" lon="4.69957">
        <ele>214</ele>
        <time>2016-09-27T10:36:41Z</time>
      </trkpt>
      <trkpt lat="45.97877" lon="4.69962">
        <ele>214</ele>
        <time>2016-09-27T10:36:44Z</time>
      </trkpt>
      <trkpt lat="45.97874" lon="4.69965">
        <ele>214</ele>
        <time>2016-09-27T10:36:45Z</time>
      </trkpt>
      <trkpt lat="45.97868" lon="4.69972">
        <ele>215</ele>
        <time>2016-09-27T10:36:48Z</time>
      </trkpt>
      <trkpt lat="45.97866" lon="4.69974">
        <ele>215</ele>
        <time>2016-09-27T10:36:49Z</time>
      </trkpt>
      <trkpt lat="45.97859" lon="4.69982">
        <ele>215</ele>
        <time>2016-09-27T10:36:52Z</time>
      </trkpt>
      <trkpt lat="45.97857" lon="4.69985">
        <ele>215</ele>
        <time>2016-09-27T10:36:53Z</time>
      </trkpt>
      <trkpt lat="45.9785" lon="4.69991">
        <ele>216</ele>
        <time>2016-09-27T10:36:55Z</time>
      </trkpt>
      <trkpt lat="45.97847" lon="4.69993">
        <ele>216</ele>
        <time>2016-09-27T10:36:56Z</time>
      </trkpt>
      <trkpt lat="45.97842" lon="4.69997">
        <ele>216</ele>
        <time>2016-09-27T10:36:58Z</time>
      </trkpt>
      <trkpt lat="45.97839" lon="4.69999">
        <ele>216</ele>
        <time>2016-09-27T10:36:59Z</time>
      </trkpt>
      <trkpt lat="45.97832" lon="4.70006">
        <ele>217</ele>
        <time>2016-09-27T10:37:02Z</time>
      </trkpt>
      <trkpt lat="45.97829" lon="4.70008">
        <ele>218</ele>
        <time>2016-09-27T10:37:03Z</time>
      </trkpt>
      <trkpt lat="45.97825" lon="4.70016">
        <ele>218</ele>
        <time>2016-09-27T10:37:06Z</time>
      </trkpt>
      <trkpt lat="45.97823" lon="4.70019">
        <ele>218</ele>
        <time>2016-09-27T10:37:07Z</time>
      </trkpt>
      <trkpt lat="45.97819" lon="4.70026">
        <ele>218</ele>
        <time>2016-09-27T10:37:09Z</time>
      </trkpt>
      <trkpt lat="45.97817" lon="4.70028">
        <ele>218</ele>
        <time>2016-09-27T10:37:10Z</time>
      </trkpt>
      <trkpt lat="45.97813" lon="4.70039">
        <ele>219</ele>
        <time>2016-09-27T10:37:13Z</time>
      </trkpt>
      <trkpt lat="45.97813" lon="4.70042">
        <ele>219</ele>
        <time>2016-09-27T10:37:14Z</time>
      </trkpt>
      <trkpt lat="45.97811" lon="4.70053">
        <ele>219</ele>
        <time>2016-09-27T10:37:17Z</time>
      </trkpt>
      <trkpt lat="45.97812" lon="4.70057">
        <ele>219</ele>
        <time>2016-09-27T10:37:18Z</time>
      </trkpt>
      <trkpt lat="45.97812" lon="4.7007">
        <ele>219</ele>
        <time>2016-09-27T10:37:21Z</time>
      </trkpt>
      <trkpt lat="45.97812" lon="4.70075">
        <ele>219</ele>
        <time>2016-09-27T10:37:22Z</time>
      </trkpt>
      <trkpt lat="45.97813" lon="4.70084">
        <ele>220</ele>
        <time>2016-09-27T10:37:24Z</time>
      </trkpt>
      <trkpt lat="45.97813" lon="4.70088">
        <ele>220</ele>
        <time>2016-09-27T10:37:25Z</time>
      </trkpt>
      <trkpt lat="45.97815" lon="4.70099">
        <ele>221</ele>
        <time>2016-09-27T10:37:27Z</time>
      </trkpt>
      <trkpt lat="45.97815" lon="4.70105">
        <ele>221</ele>
        <time>2016-09-27T10:37:28Z</time>
      </trkpt>
      <trkpt lat="45.97816" lon="4.70116">
        <ele>221</ele>
        <time>2016-09-27T10:37:30Z</time>
      </trkpt>
      <trkpt lat="45.97816" lon="4.70122">
        <ele>221</ele>
        <time>2016-09-27T10:37:31Z</time>
      </trkpt>
      <trkpt lat="45.97816" lon="4.70133">
        <ele>221</ele>
        <time>2016-09-27T10:37:33Z</time>
      </trkpt>
      <trkpt lat="45.97815" lon="4.70138">
        <ele>221</ele>
        <time>2016-09-27T10:37:34Z</time>
      </trkpt>
      <trkpt lat="45.97815" lon="4.70149">
        <ele>221</ele>
        <time>2016-09-27T10:37:36Z</time>
      </trkpt>
      <trkpt lat="45.97814" lon="4.70154">
        <ele>221</ele>
        <time>2016-09-27T10:37:37Z</time>
      </trkpt>
      <trkpt lat="45.97815" lon="4.70163">
        <ele>221</ele>
        <time>2016-09-27T10:37:39Z</time>
      </trkpt>
      <trkpt lat="45.97814" lon="4.70167">
        <ele>222</ele>
        <time>2016-09-27T10:37:40Z</time>
      </trkpt>
      <trkpt lat="45.97814" lon="4.70177">
        <ele>222</ele>
        <time>2016-09-27T10:37:42Z</time>
      </trkpt>
      <trkpt lat="45.97814" lon="4.70182">
        <ele>222</ele>
        <time>2016-09-27T10:37:43Z</time>
      </trkpt>
      <trkpt lat="45.97814" lon="4.70192">
        <ele>223</ele>
        <time>2016-09-27T10:37:45Z</time>
      </trkpt>
      <trkpt lat="45.97814" lon="4.70198">
        <ele>223</ele>
        <time>2016-09-27T10:37:46Z</time>
      </trkpt>
      <trkpt lat="45.97814" lon="4.7021">
        <ele>223</ele>
        <time>2016-09-27T10:37:48Z</time>
      </trkpt>
      <trkpt lat="45.97813" lon="4.70216">
        <ele>223</ele>
        <time>2016-09-27T10:37:49Z</time>
      </trkpt>
      <trkpt lat="45.97813" lon="4.70228">
        <ele>223</ele>
        <time>2016-09-27T10:37:51Z</time>
      </trkpt>
      <trkpt lat="45.97813" lon="4.70233">
        <ele>223</ele>
        <time>2016-09-27T10:37:52Z</time>
      </trkpt>
      <trkpt lat="45.97813" lon="4.70244">
        <ele>223</ele>
        <time>2016-09-27T10:37:54Z</time>
      </trkpt>
      <trkpt lat="45.97813" lon="4.70249">
        <ele>223</ele>
        <time>2016-09-27T10:37:55Z</time>
      </trkpt>
      <trkpt lat="45.97813" lon="4.7026">
        <ele>223</ele>
        <time>2016-09-27T10:37:57Z</time>
      </trkpt>
      <trkpt lat="45.97813" lon="4.70266">
        <ele>223</ele>
        <time>2016-09-27T10:37:58Z</time>
      </trkpt>
      <trkpt lat="45.97812" lon="4.70277">
        <ele>223</ele>
        <time>2016-09-27T10:38:00Z</time>
      </trkpt>
      <trkpt lat="45.97813" lon="4.70283">
        <ele>223</ele>
        <time>2016-09-27T10:38:01Z</time>
      </trkpt>
      <trkpt lat="45.97813" lon="4.70294">
        <ele>223</ele>
        <time>2016-09-27T10:38:03Z</time>
      </trkpt>
      <trkpt lat="45.97812" lon="4.70301">
        <ele>223</ele>
        <time>2016-09-27T10:38:04Z</time>
      </trkpt>
      <trkpt lat="45.97811" lon="4.70308">
        <ele>223</ele>
        <time>2016-09-27T10:38:05Z</time>
      </trkpt>
      <trkpt lat="45.97811" lon="4.70316">
        <ele>223</ele>
        <time>2016-09-27T10:38:06Z</time>
      </trkpt>
      <trkpt lat="45.9781" lon="4.70324">
        <ele>223</ele>
        <time>2016-09-27T10:38:07Z</time>
      </trkpt>
      <trkpt lat="45.97809" lon="4.70331">
        <ele>223</ele>
        <time>2016-09-27T10:38:08Z</time>
      </trkpt>
      <trkpt lat="45.97807" lon="4.70338">
        <ele>222</ele>
        <time>2016-09-27T10:38:09Z</time>
      </trkpt>
      <trkpt lat="45.97807" lon="4.70346">
        <ele>222</ele>
        <time>2016-09-27T10:38:10Z</time>
      </trkpt>
      <trkpt lat="45.97805" lon="4.70353">
        <ele>222</ele>
        <time>2016-09-27T10:38:11Z</time>
      </trkpt>
      <trkpt lat="45.97804" lon="4.7036">
        <ele>222</ele>
        <time>2016-09-27T10:38:12Z</time>
      </trkpt>
      <trkpt lat="45.97803" lon="4.70369">
        <ele>222</ele>
        <time>2016-09-27T10:38:13Z</time>
      </trkpt>
      <trkpt lat="45.97802" lon="4.70377">
        <ele>222</ele>
        <time>2016-09-27T10:38:14Z</time>
      </trkpt>
      <trkpt lat="45.97801" lon="4.70385">
        <ele>222</ele>
        <time>2016-09-27T10:38:15Z</time>
      </trkpt>
      <trkpt lat="45.97799" lon="4.70393">
        <ele>222</ele>
        <time>2016-09-27T10:38:16Z</time>
      </trkpt>
      <trkpt lat="45.97798" lon="4.704">
        <ele>222</ele>
        <time>2016-09-27T10:38:17Z</time>
      </trkpt>
      <trkpt lat="45.97797" lon="4.70407">
        <ele>222</ele>
        <time>2016-09-27T10:38:18Z</time>
      </trkpt>
      <trkpt lat="45.97794" lon="4.70417">
        <ele>221</ele>
        <time>2016-09-27T10:38:20Z</time>
      </trkpt>
      <trkpt lat="45.97792" lon="4.70422">
        <ele>221</ele>
        <time>2016-09-27T10:38:21Z</time>
      </trkpt>
      <trkpt lat="45.9779" lon="4.70433">
        <ele>222</ele>
        <time>2016-09-27T10:38:23Z</time>
      </trkpt>
      <trkpt lat="45.97789" lon="4.7044">
        <ele>222</ele>
        <time>2016-09-27T10:38:24Z</time>
      </trkpt>
      <trkpt lat="45.97786" lon="4.70452">
        <ele>222</ele>
        <time>2016-09-27T10:38:26Z</time>
      </trkpt>
      <trkpt lat="45.97785" lon="4.70461">
        <ele>222</ele>
        <time>2016-09-27T10:38:27Z</time>
      </trkpt>
      <trkpt lat="45.97786" lon="4.7047">
        <ele>222</ele>
        <time>2016-09-27T10:38:28Z</time>
      </trkpt>
      <trkpt lat="45.97787" lon="4.70478">
        <ele>222</ele>
        <time>2016-09-27T10:38:29Z</time>
      </trkpt>
      <trkpt lat="45.97787" lon="4.70487">
        <ele>222</ele>
        <time>2016-09-27T10:38:30Z</time>
      </trkpt>
      <trkpt lat="45.97788" lon="4.70495">
        <ele>222</ele>
        <time>2016-09-27T10:38:31Z</time>
      </trkpt>
      <trkpt lat="45.97788" lon="4.70502">
        <ele>222</ele>
        <time>2016-09-27T10:38:32Z</time>
      </trkpt>
      <trkpt lat="45.97788" lon="4.70509">
        <ele>222</ele>
        <time>2016-09-27T10:38:33Z</time>
      </trkpt>
      <trkpt lat="45.97788" lon="4.70516">
        <ele>222</ele>
        <time>2016-09-27T10:38:34Z</time>
      </trkpt>
      <trkpt lat="45.97787" lon="4.70523">
        <ele>222</ele>
        <time>2016-09-27T10:38:35Z</time>
      </trkpt>
      <trkpt lat="45.97787" lon="4.70531">
        <ele>222</ele>
        <time>2016-09-27T10:38:36Z</time>
      </trkpt>
      <trkpt lat="45.97786" lon="4.70539">
        <ele>222</ele>
        <time>2016-09-27T10:38:37Z</time>
      </trkpt>
      <trkpt lat="45.97786" lon="4.70548">
        <ele>222</ele>
        <time>2016-09-27T10:38:38Z</time>
      </trkpt>
      <trkpt lat="45.97786" lon="4.70556">
        <ele>222</ele>
        <time>2016-09-27T10:38:39Z</time>
      </trkpt>
      <trkpt lat="45.97786" lon="4.70565">
        <ele>223</ele>
        <time>2016-09-27T10:38:40Z</time>
      </trkpt>
      <trkpt lat="45.97787" lon="4.70573">
        <ele>223</ele>
        <time>2016-09-27T10:38:41Z</time>
      </trkpt>
      <trkpt lat="45.97787" lon="4.70582">
        <ele>223</ele>
        <time>2016-09-27T10:38:42Z</time>
      </trkpt>
      <trkpt lat="45.97787" lon="4.7059">
        <ele>223</ele>
        <time>2016-09-27T10:38:43Z</time>
      </trkpt>
      <trkpt lat="45.97788" lon="4.70599">
        <ele>223</ele>
        <time>2016-09-27T10:38:44Z</time>
      </trkpt>
      <trkpt lat="45.97787" lon="4.70607">
        <ele>223</ele>
        <time>2016-09-27T10:38:45Z</time>
      </trkpt>
      <trkpt lat="45.97787" lon="4.70615">
        <ele>223</ele>
        <time>2016-09-27T10:38:46Z</time>
      </trkpt>
      <trkpt lat="45.97786" lon="4.70623">
        <ele>223</ele>
        <time>2016-09-27T10:38:47Z</time>
      </trkpt>
      <trkpt lat="45.97786" lon="4.7063">
        <ele>223</ele>
        <time>2016-09-27T10:38:48Z</time>
      </trkpt>
      <trkpt lat="45.97786" lon="4.70638">
        <ele>223</ele>
        <time>2016-09-27T10:38:49Z</time>
      </trkpt>
      <trkpt lat="45.97785" lon="4.70646">
        <ele>222</ele>
        <time>2016-09-27T10:38:50Z</time>
      </trkpt>
      <trkpt lat="45.97785" lon="4.70655">
        <ele>222</ele>
        <time>2016-09-27T10:38:51Z</time>
      </trkpt>
      <trkpt lat="45.97785" lon="4.70664">
        <ele>222</ele>
        <time>2016-09-27T10:38:52Z</time>
      </trkpt>
      <trkpt lat="45.97785" lon="4.70673">
        <ele>222</ele>
        <time>2016-09-27T10:38:53Z</time>
      </trkpt>
      <trkpt lat="45.97785" lon="4.70681">
        <ele>222</ele>
        <time>2016-09-27T10:38:54Z</time>
      </trkpt>
      <trkpt lat="45.97784" lon="4.7069">
        <ele>222</ele>
        <time>2016-09-27T10:38:55Z</time>
      </trkpt>
      <trkpt lat="45.97784" lon="4.70699">
        <ele>222</ele>
        <time>2016-09-27T10:38:56Z</time>
      </trkpt>
      <trkpt lat="45.97784" lon="4.70708">
        <ele>222</ele>
        <time>2016-09-27T10:38:57Z</time>
      </trkpt>
      <trkpt lat="45.97784" lon="4.70717">
        <ele>222</ele>
        <time>2016-09-27T10:38:58Z</time>
      </trkpt>
      <trkpt lat="45.97782" lon="4.70726">
        <ele>222</ele>
        <time>2016-09-27T10:38:59Z</time>
      </trkpt>
      <trkpt lat="45.97781" lon="4.70734">
        <ele>222</ele>
        <time>2016-09-27T10:39:00Z</time>
      </trkpt>
      <trkpt lat="45.97781" lon="4.70742">
        <ele>222</ele>
        <time>2016-09-27T10:39:01Z</time>
      </trkpt>
      <trkpt lat="45.9778" lon="4.70749">
        <ele>222</ele>
        <time>2016-09-27T10:39:02Z</time>
      </trkpt>
      <trkpt lat="45.97778" lon="4.70757">
        <ele>221</ele>
        <time>2016-09-27T10:39:03Z</time>
      </trkpt>
      <trkpt lat="45.97778" lon="4.70765">
        <ele>221</ele>
        <time>2016-09-27T10:39:04Z</time>
      </trkpt>
      <trkpt lat="45.97779" lon="4.70773">
        <ele>221</ele>
        <time>2016-09-27T10:39:05Z</time>
      </trkpt>
      <trkpt lat="45.97781" lon="4.70782">
        <ele>221</ele>
        <time>2016-09-27T10:39:06Z</time>
      </trkpt>
      <trkpt lat="45.97784" lon="4.70791">
        <ele>221</ele>
        <time>2016-09-27T10:39:07Z</time>
      </trkpt>
      <trkpt lat="45.97789" lon="4.70799">
        <ele>221</ele>
        <time>2016-09-27T10:39:08Z</time>
      </trkpt>
      <trkpt lat="45.97794" lon="4.70806">
        <ele>221</ele>
        <time>2016-09-27T10:39:09Z</time>
      </trkpt>
      <trkpt lat="45.97799" lon="4.70812">
        <ele>221</ele>
        <time>2016-09-27T10:39:10Z</time>
      </trkpt>
      <trkpt lat="45.97803" lon="4.70819">
        <ele>221</ele>
        <time>2016-09-27T10:39:11Z</time>
      </trkpt>
      <trkpt lat="45.97806" lon="4.70825">
        <ele>221</ele>
        <time>2016-09-27T10:39:12Z</time>
      </trkpt>
      <trkpt lat="45.97809" lon="4.70832">
        <ele>221</ele>
        <time>2016-09-27T10:39:13Z</time>
      </trkpt>
      <trkpt lat="45.97812" lon="4.7084">
        <ele>220</ele>
        <time>2016-09-27T10:39:14Z</time>
      </trkpt>
      <trkpt lat="45.97814" lon="4.70849">
        <ele>220</ele>
        <time>2016-09-27T10:39:15Z</time>
      </trkpt>
      <trkpt lat="45.97816" lon="4.70857">
        <ele>220</ele>
        <time>2016-09-27T10:39:16Z</time>
      </trkpt>
      <trkpt lat="45.97817" lon="4.70866">
        <ele>220</ele>
        <time>2016-09-27T10:39:17Z</time>
      </trkpt>
      <trkpt lat="45.97818" lon="4.70875">
        <ele>220</ele>
        <time>2016-09-27T10:39:18Z</time>
      </trkpt>
      <trkpt lat="45.97818" lon="4.70884">
        <ele>220</ele>
        <time>2016-09-27T10:39:19Z</time>
      </trkpt>
      <trkpt lat="45.97819" lon="4.70893">
        <ele>220</ele>
        <time>2016-09-27T10:39:20Z</time>
      </trkpt>
      <trkpt lat="45.97818" lon="4.70902">
        <ele>220</ele>
        <time>2016-09-27T10:39:21Z</time>
      </trkpt>
      <trkpt lat="45.97817" lon="4.70911">
        <ele>219</ele>
        <time>2016-09-27T10:39:22Z</time>
      </trkpt>
      <trkpt lat="45.97817" lon="4.7092">
        <ele>219</ele>
        <time>2016-09-27T10:39:23Z</time>
      </trkpt>
      <trkpt lat="45.97818" lon="4.7093">
        <ele>219</ele>
        <time>2016-09-27T10:39:24Z</time>
      </trkpt>
      <trkpt lat="45.97821" lon="4.70939">
        <ele>218</ele>
        <time>2016-09-27T10:39:25Z</time>
      </trkpt>
      <trkpt lat="45.97825" lon="4.70948">
        <ele>218</ele>
        <time>2016-09-27T10:39:26Z</time>
      </trkpt>
      <trkpt lat="45.97828" lon="4.70957">
        <ele>218</ele>
        <time>2016-09-27T10:39:27Z</time>
      </trkpt>
      <trkpt lat="45.9783" lon="4.70967">
        <ele>218</ele>
        <time>2016-09-27T10:39:28Z</time>
      </trkpt>
      <trkpt lat="45.97831" lon="4.70977">
        <ele>217</ele>
        <time>2016-09-27T10:39:29Z</time>
      </trkpt>
      <trkpt lat="45.97833" lon="4.70988">
        <ele>217</ele>
        <time>2016-09-27T10:39:30Z</time>
      </trkpt>
      <trkpt lat="45.97835" lon="4.70998">
        <ele>216</ele>
        <time>2016-09-27T10:39:31Z</time>
      </trkpt>
      <trkpt lat="45.97836" lon="4.71009">
        <ele>216</ele>
        <time>2016-09-27T10:39:32Z</time>
      </trkpt>
      <trkpt lat="45.97836" lon="4.71019">
        <ele>216</ele>
        <time>2016-09-27T10:39:33Z</time>
      </trkpt>
      <trkpt lat="45.97837" lon="4.7103">
        <ele>216</ele>
        <time>2016-09-27T10:39:34Z</time>
      </trkpt>
      <trkpt lat="45.97838" lon="4.71041">
        <ele>215</ele>
        <time>2016-09-27T10:39:35Z</time>
      </trkpt>
      <trkpt lat="45.9784" lon="4.71053">
        <ele>215</ele>
        <time>2016-09-27T10:39:36Z</time>
      </trkpt>
      <trkpt lat="45.97841" lon="4.71065">
        <ele>215</ele>
        <time>2016-09-27T10:39:37Z</time>
      </trkpt>
      <trkpt lat="45.97843" lon="4.71076">
        <ele>215</ele>
        <time>2016-09-27T10:39:38Z</time>
      </trkpt>
      <trkpt lat="45.97844" lon="4.71087">
        <ele>214</ele>
        <time>2016-09-27T10:39:39Z</time>
      </trkpt>
      <trkpt lat="45.97845" lon="4.71097">
        <ele>213</ele>
        <time>2016-09-27T10:39:40Z</time>
      </trkpt>
      <trkpt lat="45.97846" lon="4.71107">
        <ele>213</ele>
        <time>2016-09-27T10:39:41Z</time>
      </trkpt>
      <trkpt lat="45.97846" lon="4.71116">
        <ele>213</ele>
        <time>2016-09-27T10:39:42Z</time>
      </trkpt>
      <trkpt lat="45.97845" lon="4.71125">
        <ele>213</ele>
        <time>2016-09-27T10:39:43Z</time>
      </trkpt>
      <trkpt lat="45.97845" lon="4.71134">
        <ele>212</ele>
        <time>2016-09-27T10:39:44Z</time>
      </trkpt>
      <trkpt lat="45.97847" lon="4.71143">
        <ele>212</ele>
        <time>2016-09-27T10:39:45Z</time>
      </trkpt>
      <trkpt lat="45.97848" lon="4.71152">
        <ele>212</ele>
        <time>2016-09-27T10:39:46Z</time>
      </trkpt>
      <trkpt lat="45.97848" lon="4.71161">
        <ele>212</ele>
        <time>2016-09-27T10:39:47Z</time>
      </trkpt>
      <trkpt lat="45.97849" lon="4.7117">
        <ele>210</ele>
        <time>2016-09-27T10:39:48Z</time>
      </trkpt>
      <trkpt lat="45.9785" lon="4.7118">
        <ele>209</ele>
        <time>2016-09-27T10:39:49Z</time>
      </trkpt>
      <trkpt lat="45.97851" lon="4.7119">
        <ele>209</ele>
        <time>2016-09-27T10:39:50Z</time>
      </trkpt>
      <trkpt lat="45.97851" lon="4.712">
        <ele>209</ele>
        <time>2016-09-27T10:39:51Z</time>
      </trkpt>
      <trkpt lat="45.97852" lon="4.71209">
        <ele>209</ele>
        <time>2016-09-27T10:39:52Z</time>
      </trkpt>
      <trkpt lat="45.97852" lon="4.71219">
        <ele>208</ele>
        <time>2016-09-27T10:39:53Z</time>
      </trkpt>
      <trkpt lat="45.97852" lon="4.71229">
        <ele>208</ele>
        <time>2016-09-27T10:39:54Z</time>
      </trkpt>
      <trkpt lat="45.97852" lon="4.71239">
        <ele>208</ele>
        <time>2016-09-27T10:39:55Z</time>
      </trkpt>
      <trkpt lat="45.97852" lon="4.71249">
        <ele>208</ele>
        <time>2016-09-27T10:39:56Z</time>
      </trkpt>
      <trkpt lat="45.97851" lon="4.71259">
        <ele>207</ele>
        <time>2016-09-27T10:39:57Z</time>
      </trkpt>
      <trkpt lat="45.97852" lon="4.7127">
        <ele>206</ele>
        <time>2016-09-27T10:39:58Z</time>
      </trkpt>
      <trkpt lat="45.97851" lon="4.7128">
        <ele>206</ele>
        <time>2016-09-27T10:39:59Z</time>
      </trkpt>
      <trkpt lat="45.97851" lon="4.71289">
        <ele>206</ele>
        <time>2016-09-27T10:40:00Z</time>
      </trkpt>
      <trkpt lat="45.9785" lon="4.71301">
        <ele>206</ele>
        <time>2016-09-27T10:40:01Z</time>
      </trkpt>
      <trkpt lat="45.97851" lon="4.71313">
        <ele>205</ele>
        <time>2016-09-27T10:40:02Z</time>
      </trkpt>
      <trkpt lat="45.97851" lon="4.71324">
        <ele>205</ele>
        <time>2016-09-27T10:40:03Z</time>
      </trkpt>
      <trkpt lat="45.97851" lon="4.71335">
        <ele>204</ele>
        <time>2016-09-27T10:40:04Z</time>
      </trkpt>
      <trkpt lat="45.97851" lon="4.71346">
        <ele>204</ele>
        <time>2016-09-27T10:40:05Z</time>
      </trkpt>
      <trkpt lat="45.9785" lon="4.71357">
        <ele>204</ele>
        <time>2016-09-27T10:40:06Z</time>
      </trkpt>
      <trkpt lat="45.97849" lon="4.71368">
        <ele>203</ele>
        <time>2016-09-27T10:40:07Z</time>
      </trkpt>
      <trkpt lat="45.97851" lon="4.71399">
        <ele>203</ele>
        <time>2016-09-27T10:40:10Z</time>
      </trkpt>
      <trkpt lat="45.97853" lon="4.71418">
        <ele>202</ele>
        <time>2016-09-27T10:40:12Z</time>
      </trkpt>
      <trkpt lat="45.97854" lon="4.71428">
        <ele>201</ele>
        <time>2016-09-27T10:40:13Z</time>
      </trkpt>
      <trkpt lat="45.97856" lon="4.71438">
        <ele>201</ele>
        <time>2016-09-27T10:40:14Z</time>
      </trkpt>
      <trkpt lat="45.97857" lon="4.71447">
        <ele>201</ele>
        <time>2016-09-27T10:40:15Z</time>
      </trkpt>
      <trkpt lat="45.97859" lon="4.71457">
        <ele>201</ele>
        <time>2016-09-27T10:40:16Z</time>
      </trkpt>
      <trkpt lat="45.97861" lon="4.71467">
        <ele>201</ele>
        <time>2016-09-27T10:40:17Z</time>
      </trkpt>
      <trkpt lat="45.97863" lon="4.71477">
        <ele>201</ele>
        <time>2016-09-27T10:40:18Z</time>
      </trkpt>
      <trkpt lat="45.97864" lon="4.71487">
        <ele>201</ele>
        <time>2016-09-27T10:40:19Z</time>
      </trkpt>
      <trkpt lat="45.97866" lon="4.71496">
        <ele>201</ele>
        <time>2016-09-27T10:40:20Z</time>
      </trkpt>
      <trkpt lat="45.97869" lon="4.71506">
        <ele>199</ele>
        <time>2016-09-27T10:40:21Z</time>
      </trkpt>
      <trkpt lat="45.9787" lon="4.71517">
        <ele>199</ele>
        <time>2016-09-27T10:40:22Z</time>
      </trkpt>
      <trkpt lat="45.97872" lon="4.71527">
        <ele>199</ele>
        <time>2016-09-27T10:40:23Z</time>
      </trkpt>
      <trkpt lat="45.97874" lon="4.71537">
        <ele>199</ele>
        <time>2016-09-27T10:40:24Z</time>
      </trkpt>
      <trkpt lat="45.97876" lon="4.71547">
        <ele>199</ele>
        <time>2016-09-27T10:40:25Z</time>
      </trkpt>
      <trkpt lat="45.97877" lon="4.71557">
        <ele>198</ele>
        <time>2016-09-27T10:40:26Z</time>
      </trkpt>
      <trkpt lat="45.97878" lon="4.71567">
        <ele>198</ele>
        <time>2016-09-27T10:40:27Z</time>
      </trkpt>
      <trkpt lat="45.9788" lon="4.71578">
        <ele>198</ele>
        <time>2016-09-27T10:40:28Z</time>
      </trkpt>
      <trkpt lat="45.97881" lon="4.71589">
        <ele>197</ele>
        <time>2016-09-27T10:40:29Z</time>
      </trkpt>
      <trkpt lat="45.97881" lon="4.71599">
        <ele>197</ele>
        <time>2016-09-27T10:40:30Z</time>
      </trkpt>
      <trkpt lat="45.97881" lon="4.7161">
        <ele>197</ele>
        <time>2016-09-27T10:40:31Z</time>
      </trkpt>
      <trkpt lat="45.97883" lon="4.71621">
        <ele>197</ele>
        <time>2016-09-27T10:40:32Z</time>
      </trkpt>
      <trkpt lat="45.97882" lon="4.71631">
        <ele>197</ele>
        <time>2016-09-27T10:40:33Z</time>
      </trkpt>
      <trkpt lat="45.97882" lon="4.7164">
        <ele>197</ele>
        <time>2016-09-27T10:40:34Z</time>
      </trkpt>
      <trkpt lat="45.97881" lon="4.71649">
        <ele>197</ele>
        <time>2016-09-27T10:40:35Z</time>
      </trkpt>
      <trkpt lat="45.97879" lon="4.71659">
        <ele>197</ele>
        <time>2016-09-27T10:40:36Z</time>
      </trkpt>
      <trkpt lat="45.97877" lon="4.71668">
        <ele>196</ele>
        <time>2016-09-27T10:40:37Z</time>
      </trkpt>
      <trkpt lat="45.97874" lon="4.71677">
        <ele>196</ele>
        <time>2016-09-27T10:40:38Z</time>
      </trkpt>
      <trkpt lat="45.97872" lon="4.71686">
        <ele>196</ele>
        <time>2016-09-27T10:40:39Z</time>
      </trkpt>
      <trkpt lat="45.9787" lon="4.71695">
        <ele>196</ele>
        <time>2016-09-27T10:40:40Z</time>
      </trkpt>
      <trkpt lat="45.97868" lon="4.71703">
        <ele>196</ele>
        <time>2016-09-27T10:40:41Z</time>
      </trkpt>
      <trkpt lat="45.97867" lon="4.71709">
        <ele>196</ele>
        <time>2016-09-27T10:40:42Z</time>
      </trkpt>
      <trkpt lat="45.97863" lon="4.71714">
        <ele>196</ele>
        <time>2016-09-27T10:40:43Z</time>
      </trkpt>
      <trkpt lat="45.9786" lon="4.71718">
        <ele>196</ele>
        <time>2016-09-27T10:40:44Z</time>
      </trkpt>
      <trkpt lat="45.97856" lon="4.71723">
        <ele>196</ele>
        <time>2016-09-27T10:40:45Z</time>
      </trkpt>
      <trkpt lat="45.97853" lon="4.71729">
        <ele>196</ele>
        <time>2016-09-27T10:40:46Z</time>
      </trkpt>
      <trkpt lat="45.9785" lon="4.71734">
        <ele>196</ele>
        <time>2016-09-27T10:40:47Z</time>
      </trkpt>
      <trkpt lat="45.97847" lon="4.7174">
        <ele>195</ele>
        <time>2016-09-27T10:40:48Z</time>
      </trkpt>
      <trkpt lat="45.97843" lon="4.71745">
        <ele>195</ele>
        <time>2016-09-27T10:40:49Z</time>
      </trkpt>
      <trkpt lat="45.97837" lon="4.71747">
        <ele>195</ele>
        <time>2016-09-27T10:40:50Z</time>
      </trkpt>
      <trkpt lat="45.97831" lon="4.71747">
        <ele>195</ele>
        <time>2016-09-27T10:40:51Z</time>
      </trkpt>
      <trkpt lat="45.97825" lon="4.71746">
        <ele>195</ele>
        <time>2016-09-27T10:40:52Z</time>
      </trkpt>
      <trkpt lat="45.97818" lon="4.71744">
        <ele>196</ele>
        <time>2016-09-27T10:40:53Z</time>
      </trkpt>
      <trkpt lat="45.97812" lon="4.71743">
        <ele>196</ele>
        <time>2016-09-27T10:40:54Z</time>
      </trkpt>
      <trkpt lat="45.97806" lon="4.71742">
        <ele>196</ele>
        <time>2016-09-27T10:40:55Z</time>
      </trkpt>
      <trkpt lat="45.978" lon="4.71742">
        <ele>196</ele>
        <time>2016-09-27T10:40:56Z</time>
      </trkpt>
      <trkpt lat="45.97794" lon="4.71742">
        <ele>196</ele>
        <time>2016-09-27T10:40:57Z</time>
      </trkpt>
      <trkpt lat="45.97788" lon="4.71742">
        <ele>196</ele>
        <time>2016-09-27T10:40:58Z</time>
      </trkpt>
      <trkpt lat="45.97782" lon="4.71741">
        <ele>196</ele>
        <time>2016-09-27T10:40:59Z</time>
      </trkpt>
      <trkpt lat="45.97776" lon="4.7174">
        <ele>196</ele>
        <time>2016-09-27T10:41:00Z</time>
      </trkpt>
      <trkpt lat="45.9777" lon="4.71739">
        <ele>196</ele>
        <time>2016-09-27T10:41:01Z</time>
      </trkpt>
      <trkpt lat="45.97764" lon="4.71737">
        <ele>196</ele>
        <time>2016-09-27T10:41:02Z</time>
      </trkpt>
      <trkpt lat="45.97758" lon="4.71734">
        <ele>196</ele>
        <time>2016-09-27T10:41:03Z</time>
      </trkpt>
      <trkpt lat="45.97752" lon="4.71734">
        <ele>196</ele>
        <time>2016-09-27T10:41:04Z</time>
      </trkpt>
      <trkpt lat="45.97746" lon="4.71734">
        <ele>196</ele>
        <time>2016-09-27T10:41:05Z</time>
      </trkpt>
      <trkpt lat="45.97741" lon="4.71734">
        <ele>196</ele>
        <time>2016-09-27T10:41:06Z</time>
      </trkpt>
      <trkpt lat="45.97735" lon="4.71734">
        <ele>196</ele>
        <time>2016-09-27T10:41:07Z</time>
      </trkpt>
      <trkpt lat="45.97729" lon="4.71734">
        <ele>196</ele>
        <time>2016-09-27T10:41:08Z</time>
      </trkpt>
      <trkpt lat="45.97723" lon="4.71734">
        <ele>196</ele>
        <time>2016-09-27T10:41:09Z</time>
      </trkpt>
      <trkpt lat="45.97716" lon="4.71733">
        <ele>196</ele>
        <time>2016-09-27T10:41:10Z</time>
      </trkpt>
      <trkpt lat="45.9771" lon="4.71733">
        <ele>196</ele>
        <time>2016-09-27T10:41:11Z</time>
      </trkpt>
      <trkpt lat="45.97703" lon="4.71732">
        <ele>196</ele>
        <time>2016-09-27T10:41:12Z</time>
      </trkpt>
      <trkpt lat="45.97696" lon="4.71731">
        <ele>196</ele>
        <time>2016-09-27T10:41:13Z</time>
      </trkpt>
      <trkpt lat="45.97689" lon="4.71731">
        <ele>196</ele>
        <time>2016-09-27T10:41:14Z</time>
      </trkpt>
      <trkpt lat="45.97683" lon="4.7173">
        <ele>196</ele>
        <time>2016-09-27T10:41:15Z</time>
      </trkpt>
      <trkpt lat="45.97677" lon="4.71729">
        <ele>196</ele>
        <time>2016-09-27T10:41:16Z</time>
      </trkpt>
      <trkpt lat="45.97671" lon="4.71729">
        <ele>196</ele>
        <time>2016-09-27T10:41:17Z</time>
      </trkpt>
      <trkpt lat="45.97665" lon="4.71728">
        <ele>196</ele>
        <time>2016-09-27T10:41:18Z</time>
      </trkpt>
      <trkpt lat="45.97659" lon="4.71727">
        <ele>196</ele>
        <time>2016-09-27T10:41:19Z</time>
      </trkpt>
      <trkpt lat="45.97654" lon="4.71727">
        <ele>196</ele>
        <time>2016-09-27T10:41:20Z</time>
      </trkpt>
      <trkpt lat="45.97649" lon="4.71727">
        <ele>196</ele>
        <time>2016-09-27T10:41:21Z</time>
      </trkpt>
      <trkpt lat="45.97644" lon="4.71728">
        <ele>196</ele>
        <time>2016-09-27T10:41:22Z</time>
      </trkpt>
      <trkpt lat="45.97636" lon="4.71724">
        <ele>196</ele>
        <time>2016-09-27T10:41:24Z</time>
      </trkpt>
      <trkpt lat="45.97632" lon="4.71718">
        <ele>197</ele>
        <time>2016-09-27T10:41:25Z</time>
      </trkpt>
      <trkpt lat="45.97626" lon="4.71713">
        <ele>197</ele>
        <time>2016-09-27T10:41:26Z</time>
      </trkpt>
      <trkpt lat="45.97621" lon="4.71711">
        <ele>197</ele>
        <time>2016-09-27T10:41:27Z</time>
      </trkpt>
      <trkpt lat="45.97614" lon="4.71711">
        <ele>197</ele>
        <time>2016-09-27T10:41:28Z</time>
      </trkpt>
      <trkpt lat="45.97608" lon="4.71713">
        <ele>197</ele>
        <time>2016-09-27T10:41:29Z</time>
      </trkpt>
      <trkpt lat="45.97602" lon="4.71715">
        <ele>197</ele>
        <time>2016-09-27T10:41:30Z</time>
      </trkpt>
      <trkpt lat="45.97596" lon="4.71718">
        <ele>197</ele>
        <time>2016-09-27T10:41:31Z</time>
      </trkpt>
      <trkpt lat="45.9759" lon="4.71721">
        <ele>197</ele>
        <time>2016-09-27T10:41:32Z</time>
      </trkpt>
      <trkpt lat="45.97584" lon="4.71722">
        <ele>197</ele>
        <time>2016-09-27T10:41:33Z</time>
      </trkpt>
      <trkpt lat="45.97578" lon="4.71724">
        <ele>197</ele>
        <time>2016-09-27T10:41:34Z</time>
      </trkpt>
      <trkpt lat="45.97572" lon="4.71724">
        <ele>197</ele>
        <time>2016-09-27T10:41:35Z</time>
      </trkpt>
      <trkpt lat="45.97566" lon="4.71724">
        <ele>198</ele>
        <time>2016-09-27T10:41:36Z</time>
      </trkpt>
      <trkpt lat="45.97561" lon="4.71724">
        <ele>198</ele>
        <time>2016-09-27T10:41:37Z</time>
      </trkpt>
      <trkpt lat="45.97555" lon="4.71725">
        <ele>198</ele>
        <time>2016-09-27T10:41:38Z</time>
      </trkpt>
      <trkpt lat="45.9755" lon="4.71725">
        <ele>198</ele>
        <time>2016-09-27T10:41:39Z</time>
      </trkpt>
      <trkpt lat="45.97544" lon="4.71724">
        <ele>198</ele>
        <time>2016-09-27T10:41:40Z</time>
      </trkpt>
      <trkpt lat="45.97541" lon="4.71723">
        <ele>198</ele>
        <time>2016-09-27T10:41:41Z</time>
      </trkpt>
      <trkpt lat="45.97536" lon="4.71725">
        <ele>198</ele>
        <time>2016-09-27T10:41:42Z</time>
      </trkpt>
      <trkpt lat="45.9753" lon="4.71724">
        <ele>198</ele>
        <time>2016-09-27T10:41:43Z</time>
      </trkpt>
      <trkpt lat="45.97525" lon="4.71722">
        <ele>198</ele>
        <time>2016-09-27T10:41:44Z</time>
      </trkpt>
      <trkpt lat="45.97519" lon="4.71721">
        <ele>198</ele>
        <time>2016-09-27T10:41:45Z</time>
      </trkpt>
      <trkpt lat="45.97513" lon="4.71721">
        <ele>198</ele>
        <time>2016-09-27T10:41:46Z</time>
      </trkpt>
      <trkpt lat="45.97506" lon="4.71721">
        <ele>198</ele>
        <time>2016-09-27T10:41:47Z</time>
      </trkpt>
      <trkpt lat="45.975" lon="4.7172">
        <ele>198</ele>
        <time>2016-09-27T10:41:48Z</time>
      </trkpt>
      <trkpt lat="45.97494" lon="4.7172">
        <ele>197</ele>
        <time>2016-09-27T10:41:49Z</time>
      </trkpt>
      <trkpt lat="45.97489" lon="4.71721">
        <ele>197</ele>
        <time>2016-09-27T10:41:50Z</time>
      </trkpt>
      <trkpt lat="45.97484" lon="4.71721">
        <ele>197</ele>
        <time>2016-09-27T10:41:51Z</time>
      </trkpt>
      <trkpt lat="45.97478" lon="4.71722">
        <ele>197</ele>
        <time>2016-09-27T10:41:52Z</time>
      </trkpt>
      <trkpt lat="45.97472" lon="4.71721">
        <ele>197</ele>
        <time>2016-09-27T10:41:53Z</time>
      </trkpt>
      <trkpt lat="45.97467" lon="4.71719">
        <ele>197</ele>
        <time>2016-09-27T10:41:54Z</time>
      </trkpt>
      <trkpt lat="45.97461" lon="4.71718">
        <ele>197</ele>
        <time>2016-09-27T10:41:55Z</time>
      </trkpt>
      <trkpt lat="45.97455" lon="4.71717">
        <ele>197</ele>
        <time>2016-09-27T10:41:56Z</time>
      </trkpt>
      <trkpt lat="45.9745" lon="4.71718">
        <ele>197</ele>
        <time>2016-09-27T10:41:57Z</time>
      </trkpt>
      <trkpt lat="45.97445" lon="4.71718">
        <ele>197</ele>
        <time>2016-09-27T10:41:58Z</time>
      </trkpt>
      <trkpt lat="45.97439" lon="4.71717">
        <ele>196</ele>
        <time>2016-09-27T10:41:59Z</time>
      </trkpt>
      <trkpt lat="45.97434" lon="4.71716">
        <ele>196</ele>
        <time>2016-09-27T10:42:00Z</time>
      </trkpt>
      <trkpt lat="45.97428" lon="4.71716">
        <ele>196</ele>
        <time>2016-09-27T10:42:01Z</time>
      </trkpt>
      <trkpt lat="45.97422" lon="4.71716">
        <ele>196</ele>
        <time>2016-09-27T10:42:02Z</time>
      </trkpt>
      <trkpt lat="45.97416" lon="4.71715">
        <ele>195</ele>
        <time>2016-09-27T10:42:03Z</time>
      </trkpt>
      <trkpt lat="45.9741" lon="4.71714">
        <ele>195</ele>
        <time>2016-09-27T10:42:04Z</time>
      </trkpt>
      <trkpt lat="45.97404" lon="4.71713">
        <ele>195</ele>
        <time>2016-09-27T10:42:05Z</time>
      </trkpt>
      <trkpt lat="45.974" lon="4.71713">
        <ele>195</ele>
        <time>2016-09-27T10:42:06Z</time>
      </trkpt>
      <trkpt lat="45.97394" lon="4.71712">
        <ele>195</ele>
        <time>2016-09-27T10:42:07Z</time>
      </trkpt>
      <trkpt lat="45.97389" lon="4.71707">
        <ele>195</ele>
        <time>2016-09-27T10:42:08Z</time>
      </trkpt>
      <trkpt lat="45.97384" lon="4.71707">
        <ele>195</ele>
        <time>2016-09-27T10:42:09Z</time>
      </trkpt>
      <trkpt lat="45.97378" lon="4.71707">
        <ele>195</ele>
        <time>2016-09-27T10:42:10Z</time>
      </trkpt>
      <trkpt lat="45.97372" lon="4.71707">
        <ele>195</ele>
        <time>2016-09-27T10:42:11Z</time>
      </trkpt>
      <trkpt lat="45.97366" lon="4.71707">
        <ele>195</ele>
        <time>2016-09-27T10:42:12Z</time>
      </trkpt>
      <trkpt lat="45.9736" lon="4.71707">
        <ele>195</ele>
        <time>2016-09-27T10:42:13Z</time>
      </trkpt>
      <trkpt lat="45.97353" lon="4.71707">
        <ele>195</ele>
        <time>2016-09-27T10:42:14Z</time>
      </trkpt>
      <trkpt lat="45.97347" lon="4.71707">
        <ele>195</ele>
        <time>2016-09-27T10:42:15Z</time>
      </trkpt>
      <trkpt lat="45.9734" lon="4.71707">
        <ele>195</ele>
        <time>2016-09-27T10:42:16Z</time>
      </trkpt>
      <trkpt lat="45.97334" lon="4.71706">
        <ele>195</ele>
        <time>2016-09-27T10:42:17Z</time>
      </trkpt>
      <trkpt lat="45.97329" lon="4.71705">
        <ele>196</ele>
        <time>2016-09-27T10:42:18Z</time>
      </trkpt>
      <trkpt lat="45.97323" lon="4.71702">
        <ele>196</ele>
        <time>2016-09-27T10:42:19Z</time>
      </trkpt>
      <trkpt lat="45.97317" lon="4.71698">
        <ele>196</ele>
        <time>2016-09-27T10:42:20Z</time>
      </trkpt>
      <trkpt lat="45.97311" lon="4.71695">
        <ele>196</ele>
        <time>2016-09-27T10:42:21Z</time>
      </trkpt>
      <trkpt lat="45.97304" lon="4.71695">
        <ele>196</ele>
        <time>2016-09-27T10:42:22Z</time>
      </trkpt>
      <trkpt lat="45.97298" lon="4.71695">
        <ele>196</ele>
        <time>2016-09-27T10:42:23Z</time>
      </trkpt>
      <trkpt lat="45.97291" lon="4.71698">
        <ele>196</ele>
        <time>2016-09-27T10:42:24Z</time>
      </trkpt>
      <trkpt lat="45.97284" lon="4.717">
        <ele>196</ele>
        <time>2016-09-27T10:42:25Z</time>
      </trkpt>
      <trkpt lat="45.97277" lon="4.71702">
        <ele>197</ele>
        <time>2016-09-27T10:42:26Z</time>
      </trkpt>
      <trkpt lat="45.9727" lon="4.71703">
        <ele>197</ele>
        <time>2016-09-27T10:42:27Z</time>
      </trkpt>
      <trkpt lat="45.97263" lon="4.71702">
        <ele>197</ele>
        <time>2016-09-27T10:42:28Z</time>
      </trkpt>
      <trkpt lat="45.97256" lon="4.71699">
        <ele>197</ele>
        <time>2016-09-27T10:42:29Z</time>
      </trkpt>
      <trkpt lat="45.97249" lon="4.71698">
        <ele>197</ele>
        <time>2016-09-27T10:42:30Z</time>
      </trkpt>
      <trkpt lat="45.97242" lon="4.71696">
        <ele>197</ele>
        <time>2016-09-27T10:42:31Z</time>
      </trkpt>
      <trkpt lat="45.97235" lon="4.71695">
        <ele>197</ele>
        <time>2016-09-27T10:42:32Z</time>
      </trkpt>
      <trkpt lat="45.97229" lon="4.71695">
        <ele>197</ele>
        <time>2016-09-27T10:42:33Z</time>
      </trkpt>
      <trkpt lat="45.97222" lon="4.71694">
        <ele>197</ele>
        <time>2016-09-27T10:42:34Z</time>
      </trkpt>
      <trkpt lat="45.97216" lon="4.71693">
        <ele>197</ele>
        <time>2016-09-27T10:42:35Z</time>
      </trkpt>
      <trkpt lat="45.9721" lon="4.71692">
        <ele>197</ele>
        <time>2016-09-27T10:42:36Z</time>
      </trkpt>
      <trkpt lat="45.97203" lon="4.71691">
        <ele>197</ele>
        <time>2016-09-27T10:42:37Z</time>
      </trkpt>
      <trkpt lat="45.97196" lon="4.71691">
        <ele>197</ele>
        <time>2016-09-27T10:42:38Z</time>
      </trkpt>
      <trkpt lat="45.97189" lon="4.7169">
        <ele>197</ele>
        <time>2016-09-27T10:42:39Z</time>
      </trkpt>
      <trkpt lat="45.97181" lon="4.7169">
        <ele>197</ele>
        <time>2016-09-27T10:42:40Z</time>
      </trkpt>
      <trkpt lat="45.97174" lon="4.71689">
        <ele>197</ele>
        <time>2016-09-27T10:42:41Z</time>
      </trkpt>
      <trkpt lat="45.97166" lon="4.71689">
        <ele>196</ele>
        <time>2016-09-27T10:42:42Z</time>
      </trkpt>
      <trkpt lat="45.97158" lon="4.71687">
        <ele>196</ele>
        <time>2016-09-27T10:42:43Z</time>
      </trkpt>
      <trkpt lat="45.9715" lon="4.71686">
        <ele>195</ele>
        <time>2016-09-27T10:42:44Z</time>
      </trkpt>
      <trkpt lat="45.97143" lon="4.71685">
        <ele>195</ele>
        <time>2016-09-27T10:42:45Z</time>
      </trkpt>
      <trkpt lat="45.97136" lon="4.71685">
        <ele>195</ele>
        <time>2016-09-27T10:42:46Z</time>
      </trkpt>
      <trkpt lat="45.97129" lon="4.71684">
        <ele>195</ele>
        <time>2016-09-27T10:42:47Z</time>
      </trkpt>
      <trkpt lat="45.97122" lon="4.71682">
        <ele>195</ele>
        <time>2016-09-27T10:42:48Z</time>
      </trkpt>
      <trkpt lat="45.97115" lon="4.71682">
        <ele>195</ele>
        <time>2016-09-27T10:42:49Z</time>
      </trkpt>
      <trkpt lat="45.97108" lon="4.71681">
        <ele>194</ele>
        <time>2016-09-27T10:42:50Z</time>
      </trkpt>
      <trkpt lat="45.97102" lon="4.7168">
        <ele>194</ele>
        <time>2016-09-27T10:42:51Z</time>
      </trkpt>
      <trkpt lat="45.97094" lon="4.71679">
        <ele>194</ele>
        <time>2016-09-27T10:42:52Z</time>
      </trkpt>
      <trkpt lat="45.97087" lon="4.71678">
        <ele>195</ele>
        <time>2016-09-27T10:42:53Z</time>
      </trkpt>
      <trkpt lat="45.97079" lon="4.71677">
        <ele>194</ele>
        <time>2016-09-27T10:42:54Z</time>
      </trkpt>
      <trkpt lat="45.97071" lon="4.71676">
        <ele>194</ele>
        <time>2016-09-27T10:42:55Z</time>
      </trkpt>
      <trkpt lat="45.97064" lon="4.71675">
        <ele>193</ele>
        <time>2016-09-27T10:42:56Z</time>
      </trkpt>
      <trkpt lat="45.97056" lon="4.71674">
        <ele>193</ele>
        <time>2016-09-27T10:42:57Z</time>
      </trkpt>
      <trkpt lat="45.97049" lon="4.71673">
        <ele>193</ele>
        <time>2016-09-27T10:42:58Z</time>
      </trkpt>
      <trkpt lat="45.97042" lon="4.71673">
        <ele>193</ele>
        <time>2016-09-27T10:42:59Z</time>
      </trkpt>
      <trkpt lat="45.97035" lon="4.71672">
        <ele>193</ele>
        <time>2016-09-27T10:43:00Z</time>
      </trkpt>
      <trkpt lat="45.97028" lon="4.71672">
        <ele>193</ele>
        <time>2016-09-27T10:43:01Z</time>
      </trkpt>
      <trkpt lat="45.97022" lon="4.71672">
        <ele>193</ele>
        <time>2016-09-27T10:43:02Z</time>
      </trkpt>
      <trkpt lat="45.97015" lon="4.71672">
        <ele>193</ele>
        <time>2016-09-27T10:43:03Z</time>
      </trkpt>
      <trkpt lat="45.97008" lon="4.71672">
        <ele>193</ele>
        <time>2016-09-27T10:43:04Z</time>
      </trkpt>
      <trkpt lat="45.97001" lon="4.71671">
        <ele>194</ele>
        <time>2016-09-27T10:43:05Z</time>
      </trkpt>
      <trkpt lat="45.96994" lon="4.71672">
        <ele>193</ele>
        <time>2016-09-27T10:43:06Z</time>
      </trkpt>
      <trkpt lat="45.96986" lon="4.71672">
        <ele>193</ele>
        <time>2016-09-27T10:43:07Z</time>
      </trkpt>
      <trkpt lat="45.96979" lon="4.71672">
        <ele>192</ele>
        <time>2016-09-27T10:43:08Z</time>
      </trkpt>
      <trkpt lat="45.96973" lon="4.71671">
        <ele>192</ele>
        <time>2016-09-27T10:43:09Z</time>
      </trkpt>
      <trkpt lat="45.96966" lon="4.71671">
        <ele>192</ele>
        <time>2016-09-27T10:43:10Z</time>
      </trkpt>
      <trkpt lat="45.9696" lon="4.7167">
        <ele>192</ele>
        <time>2016-09-27T10:43:11Z</time>
      </trkpt>
      <trkpt lat="45.96953" lon="4.7167">
        <ele>192</ele>
        <time>2016-09-27T10:43:12Z</time>
      </trkpt>
      <trkpt lat="45.96946" lon="4.71669">
        <ele>192</ele>
        <time>2016-09-27T10:43:13Z</time>
      </trkpt>
      <trkpt lat="45.96939" lon="4.71668">
        <ele>193</ele>
        <time>2016-09-27T10:43:14Z</time>
      </trkpt>
      <trkpt lat="45.96932" lon="4.71667">
        <ele>193</ele>
        <time>2016-09-27T10:43:15Z</time>
      </trkpt>
      <trkpt lat="45.96924" lon="4.71667">
        <ele>195</ele>
        <time>2016-09-27T10:43:16Z</time>
      </trkpt>
      <trkpt lat="45.96917" lon="4.71667">
        <ele>195</ele>
        <time>2016-09-27T10:43:17Z</time>
      </trkpt>
      <trkpt lat="45.96909" lon="4.71667">
        <ele>195</ele>
        <time>2016-09-27T10:43:18Z</time>
      </trkpt>
      <trkpt lat="45.96902" lon="4.71666">
        <ele>195</ele>
        <time>2016-09-27T10:43:19Z</time>
      </trkpt>
      <trkpt lat="45.96895" lon="4.71665">
        <ele>195</ele>
        <time>2016-09-27T10:43:20Z</time>
      </trkpt>
      <trkpt lat="45.96887" lon="4.71665">
        <ele>195</ele>
        <time>2016-09-27T10:43:21Z</time>
      </trkpt>
      <trkpt lat="45.9688" lon="4.71664">
        <ele>195</ele>
        <time>2016-09-27T10:43:22Z</time>
      </trkpt>
      <trkpt lat="45.96872" lon="4.71664">
        <ele>195</ele>
        <time>2016-09-27T10:43:23Z</time>
      </trkpt>
      <trkpt lat="45.96865" lon="4.71663">
        <ele>195</ele>
        <time>2016-09-27T10:43:24Z</time>
      </trkpt>
      <trkpt lat="45.96857" lon="4.71662">
        <ele>194</ele>
        <time>2016-09-27T10:43:25Z</time>
      </trkpt>
      <trkpt lat="45.9685" lon="4.71662">
        <ele>194</ele>
        <time>2016-09-27T10:43:26Z</time>
      </trkpt>
      <trkpt lat="45.96843" lon="4.71661">
        <ele>193</ele>
        <time>2016-09-27T10:43:27Z</time>
      </trkpt>
      <trkpt lat="45.96836" lon="4.71661">
        <ele>193</ele>
        <time>2016-09-27T10:43:28Z</time>
      </trkpt>
      <trkpt lat="45.96829" lon="4.71659">
        <ele>192</ele>
        <time>2016-09-27T10:43:29Z</time>
      </trkpt>
      <trkpt lat="45.96822" lon="4.71658">
        <ele>193</ele>
        <time>2016-09-27T10:43:30Z</time>
      </trkpt>
      <trkpt lat="45.96815" lon="4.71657">
        <ele>193</ele>
        <time>2016-09-27T10:43:31Z</time>
      </trkpt>
      <trkpt lat="45.96808" lon="4.71655">
        <ele>193</ele>
        <time>2016-09-27T10:43:32Z</time>
      </trkpt>
      <trkpt lat="45.96801" lon="4.71654">
        <ele>193</ele>
        <time>2016-09-27T10:43:33Z</time>
      </trkpt>
      <trkpt lat="45.96793" lon="4.71653">
        <ele>192</ele>
        <time>2016-09-27T10:43:34Z</time>
      </trkpt>
      <trkpt lat="45.96786" lon="4.71652">
        <ele>192</ele>
        <time>2016-09-27T10:43:35Z</time>
      </trkpt>
      <trkpt lat="45.96779" lon="4.71651">
        <ele>192</ele>
        <time>2016-09-27T10:43:36Z</time>
      </trkpt>
      <trkpt lat="45.96772" lon="4.7165">
        <ele>192</ele>
        <time>2016-09-27T10:43:37Z</time>
      </trkpt>
      <trkpt lat="45.96764" lon="4.71649">
        <ele>192</ele>
        <time>2016-09-27T10:43:38Z</time>
      </trkpt>
      <trkpt lat="45.96756" lon="4.71648">
        <ele>191</ele>
        <time>2016-09-27T10:43:39Z</time>
      </trkpt>
      <trkpt lat="45.96749" lon="4.71647">
        <ele>190</ele>
        <time>2016-09-27T10:43:40Z</time>
      </trkpt>
      <trkpt lat="45.96741" lon="4.71645">
        <ele>190</ele>
        <time>2016-09-27T10:43:41Z</time>
      </trkpt>
      <trkpt lat="45.96734" lon="4.71644">
        <ele>190</ele>
        <time>2016-09-27T10:43:42Z</time>
      </trkpt>
      <trkpt lat="45.96727" lon="4.71643">
        <ele>190</ele>
        <time>2016-09-27T10:43:43Z</time>
      </trkpt>
      <trkpt lat="45.9672" lon="4.71642">
        <ele>190</ele>
        <time>2016-09-27T10:43:44Z</time>
      </trkpt>
      <trkpt lat="45.96713" lon="4.7164">
        <ele>190</ele>
        <time>2016-09-27T10:43:45Z</time>
      </trkpt>
      <trkpt lat="45.96706" lon="4.71639">
        <ele>190</ele>
        <time>2016-09-27T10:43:46Z</time>
      </trkpt>
      <trkpt lat="45.96698" lon="4.71638">
        <ele>190</ele>
        <time>2016-09-27T10:43:47Z</time>
      </trkpt>
      <trkpt lat="45.9669" lon="4.71637">
        <ele>190</ele>
        <time>2016-09-27T10:43:48Z</time>
      </trkpt>
      <trkpt lat="45.96683" lon="4.71635">
        <ele>190</ele>
        <time>2016-09-27T10:43:49Z</time>
      </trkpt>
      <trkpt lat="45.96675" lon="4.71634">
        <ele>190</ele>
        <time>2016-09-27T10:43:50Z</time>
      </trkpt>
      <trkpt lat="45.96667" lon="4.71634">
        <ele>190</ele>
        <time>2016-09-27T10:43:51Z</time>
      </trkpt>
      <trkpt lat="45.9666" lon="4.71633">
        <ele>188</ele>
        <time>2016-09-27T10:43:52Z</time>
      </trkpt>
      <trkpt lat="45.96652" lon="4.71632">
        <ele>188</ele>
        <time>2016-09-27T10:43:53Z</time>
      </trkpt>
      <trkpt lat="45.96644" lon="4.71631">
        <ele>188</ele>
        <time>2016-09-27T10:43:54Z</time>
      </trkpt>
      <trkpt lat="45.96637" lon="4.71629">
        <ele>188</ele>
        <time>2016-09-27T10:43:55Z</time>
      </trkpt>
      <trkpt lat="45.9663" lon="4.71628">
        <ele>188</ele>
        <time>2016-09-27T10:43:56Z</time>
      </trkpt>
      <trkpt lat="45.96622" lon="4.71627">
        <ele>188</ele>
        <time>2016-09-27T10:43:57Z</time>
      </trkpt>
      <trkpt lat="45.96615" lon="4.71625">
        <ele>188</ele>
        <time>2016-09-27T10:43:58Z</time>
      </trkpt>
      <trkpt lat="45.96608" lon="4.71624">
        <ele>187</ele>
        <time>2016-09-27T10:43:59Z</time>
      </trkpt>
      <trkpt lat="45.96601" lon="4.71622">
        <ele>187</ele>
        <time>2016-09-27T10:44:00Z</time>
      </trkpt>
      <trkpt lat="45.96593" lon="4.71621">
        <ele>187</ele>
        <time>2016-09-27T10:44:01Z</time>
      </trkpt>
      <trkpt lat="45.96586" lon="4.71621">
        <ele>187</ele>
        <time>2016-09-27T10:44:02Z</time>
      </trkpt>
      <trkpt lat="45.96579" lon="4.7162">
        <ele>185</ele>
        <time>2016-09-27T10:44:03Z</time>
      </trkpt>
      <trkpt lat="45.96572" lon="4.71618">
        <ele>185</ele>
        <time>2016-09-27T10:44:04Z</time>
      </trkpt>
      <trkpt lat="45.96565" lon="4.71617">
        <ele>185</ele>
        <time>2016-09-27T10:44:05Z</time>
      </trkpt>
      <trkpt lat="45.96558" lon="4.71616">
        <ele>185</ele>
        <time>2016-09-27T10:44:06Z</time>
      </trkpt>
      <trkpt lat="45.96551" lon="4.71613">
        <ele>185</ele>
        <time>2016-09-27T10:44:07Z</time>
      </trkpt>
      <trkpt lat="45.96545" lon="4.71609">
        <ele>185</ele>
        <time>2016-09-27T10:44:08Z</time>
      </trkpt>
      <trkpt lat="45.96542" lon="4.71605">
        <ele>185</ele>
        <time>2016-09-27T10:44:09Z</time>
      </trkpt>
      <trkpt lat="45.96538" lon="4.71601">
        <ele>185</ele>
        <time>2016-09-27T10:44:10Z</time>
      </trkpt>
      <trkpt lat="45.96533" lon="4.71598">
        <ele>185</ele>
        <time>2016-09-27T10:44:11Z</time>
      </trkpt>
      <trkpt lat="45.96527" lon="4.71597">
        <ele>185</ele>
        <time>2016-09-27T10:44:12Z</time>
      </trkpt>
      <trkpt lat="45.96521" lon="4.71597">
        <ele>185</ele>
        <time>2016-09-27T10:44:13Z</time>
      </trkpt>
      <trkpt lat="45.96516" lon="4.71599">
        <ele>185</ele>
        <time>2016-09-27T10:44:14Z</time>
      </trkpt>
      <trkpt lat="45.96511" lon="4.71601">
        <ele>185</ele>
        <time>2016-09-27T10:44:15Z</time>
      </trkpt>
      <trkpt lat="45.96505" lon="4.71603">
        <ele>184</ele>
        <time>2016-09-27T10:44:16Z</time>
      </trkpt>
      <trkpt lat="45.96498" lon="4.71603">
        <ele>184</ele>
        <time>2016-09-27T10:44:17Z</time>
      </trkpt>
      <trkpt lat="45.96491" lon="4.71603">
        <ele>184</ele>
        <time>2016-09-27T10:44:18Z</time>
      </trkpt>
      <trkpt lat="45.96484" lon="4.71602">
        <ele>183</ele>
        <time>2016-09-27T10:44:19Z</time>
      </trkpt>
      <trkpt lat="45.96477" lon="4.71601">
        <ele>183</ele>
        <time>2016-09-27T10:44:20Z</time>
      </trkpt>
      <trkpt lat="45.9647" lon="4.716">
        <ele>183</ele>
        <time>2016-09-27T10:44:21Z</time>
      </trkpt>
      <trkpt lat="45.96462" lon="4.716">
        <ele>183</ele>
        <time>2016-09-27T10:44:22Z</time>
      </trkpt>
      <trkpt lat="45.96455" lon="4.716">
        <ele>183</ele>
        <time>2016-09-27T10:44:23Z</time>
      </trkpt>
      <trkpt lat="45.96448" lon="4.71598">
        <ele>183</ele>
        <time>2016-09-27T10:44:24Z</time>
      </trkpt>
      <trkpt lat="45.96441" lon="4.71597">
        <ele>183</ele>
        <time>2016-09-27T10:44:25Z</time>
      </trkpt>
      <trkpt lat="45.96434" lon="4.71597">
        <ele>184</ele>
        <time>2016-09-27T10:44:26Z</time>
      </trkpt>
      <trkpt lat="45.96427" lon="4.71595">
        <ele>184</ele>
        <time>2016-09-27T10:44:27Z</time>
      </trkpt>
      <trkpt lat="45.9642" lon="4.71594">
        <ele>184</ele>
        <time>2016-09-27T10:44:28Z</time>
      </trkpt>
      <trkpt lat="45.96413" lon="4.71592">
        <ele>184</ele>
        <time>2016-09-27T10:44:29Z</time>
      </trkpt>
      <trkpt lat="45.96406" lon="4.71591">
        <ele>184</ele>
        <time>2016-09-27T10:44:30Z</time>
      </trkpt>
      <trkpt lat="45.964" lon="4.7159">
        <ele>183</ele>
        <time>2016-09-27T10:44:31Z</time>
      </trkpt>
      <trkpt lat="45.96393" lon="4.71589">
        <ele>183</ele>
        <time>2016-09-27T10:44:32Z</time>
      </trkpt>
      <trkpt lat="45.96387" lon="4.71588">
        <ele>183</ele>
        <time>2016-09-27T10:44:33Z</time>
      </trkpt>
      <trkpt lat="45.9638" lon="4.71586">
        <ele>183</ele>
        <time>2016-09-27T10:44:34Z</time>
      </trkpt>
      <trkpt lat="45.96373" lon="4.71585">
        <ele>182</ele>
        <time>2016-09-27T10:44:35Z</time>
      </trkpt>
      <trkpt lat="45.96367" lon="4.71584">
        <ele>182</ele>
        <time>2016-09-27T10:44:36Z</time>
      </trkpt>
      <trkpt lat="45.9636" lon="4.71584">
        <ele>182</ele>
        <time>2016-09-27T10:44:37Z</time>
      </trkpt>
      <trkpt lat="45.96353" lon="4.71583">
        <ele>185</ele>
        <time>2016-09-27T10:44:38Z</time>
      </trkpt>
      <trkpt lat="45.96346" lon="4.71582">
        <ele>184</ele>
        <time>2016-09-27T10:44:39Z</time>
      </trkpt>
      <trkpt lat="45.9634" lon="4.71582">
        <ele>184</ele>
        <time>2016-09-27T10:44:40Z</time>
      </trkpt>
      <trkpt lat="45.96333" lon="4.7158">
        <ele>183</ele>
        <time>2016-09-27T10:44:41Z</time>
      </trkpt>
      <trkpt lat="45.96325" lon="4.71579">
        <ele>184</ele>
        <time>2016-09-27T10:44:42Z</time>
      </trkpt>
      <trkpt lat="45.96319" lon="4.71578">
        <ele>184</ele>
        <time>2016-09-27T10:44:43Z</time>
      </trkpt>
      <trkpt lat="45.96312" lon="4.71577">
        <ele>184</ele>
        <time>2016-09-27T10:44:44Z</time>
      </trkpt>
      <trkpt lat="45.96304" lon="4.71576">
        <ele>184</ele>
        <time>2016-09-27T10:44:45Z</time>
      </trkpt>
      <trkpt lat="45.96298" lon="4.71575">
        <ele>184</ele>
        <time>2016-09-27T10:44:46Z</time>
      </trkpt>
      <trkpt lat="45.96291" lon="4.71574">
        <ele>184</ele>
        <time>2016-09-27T10:44:47Z</time>
      </trkpt>
      <trkpt lat="45.96285" lon="4.71573">
        <ele>184</ele>
        <time>2016-09-27T10:44:48Z</time>
      </trkpt>
      <trkpt lat="45.96279" lon="4.71573">
        <ele>184</ele>
        <time>2016-09-27T10:44:49Z</time>
      </trkpt>
      <trkpt lat="45.96272" lon="4.71571">
        <ele>184</ele>
        <time>2016-09-27T10:44:50Z</time>
      </trkpt>
      <trkpt lat="45.96266" lon="4.7157">
        <ele>183</ele>
        <time>2016-09-27T10:44:51Z</time>
      </trkpt>
      <trkpt lat="45.96259" lon="4.71568">
        <ele>183</ele>
        <time>2016-09-27T10:44:52Z</time>
      </trkpt>
      <trkpt lat="45.96252" lon="4.71567">
        <ele>183</ele>
        <time>2016-09-27T10:44:53Z</time>
      </trkpt>
      <trkpt lat="45.96245" lon="4.71567">
        <ele>183</ele>
        <time>2016-09-27T10:44:54Z</time>
      </trkpt>
      <trkpt lat="45.96238" lon="4.71565">
        <ele>183</ele>
        <time>2016-09-27T10:44:55Z</time>
      </trkpt>
      <trkpt lat="45.9623" lon="4.71564">
        <ele>183</ele>
        <time>2016-09-27T10:44:56Z</time>
      </trkpt>
      <trkpt lat="45.96222" lon="4.71563">
        <ele>183</ele>
        <time>2016-09-27T10:44:57Z</time>
      </trkpt>
      <trkpt lat="45.96215" lon="4.71561">
        <ele>183</ele>
        <time>2016-09-27T10:44:58Z</time>
      </trkpt>
      <trkpt lat="45.96208" lon="4.7156">
        <ele>183</ele>
        <time>2016-09-27T10:44:59Z</time>
      </trkpt>
      <trkpt lat="45.96202" lon="4.71559">
        <ele>183</ele>
        <time>2016-09-27T10:45:00Z</time>
      </trkpt>
      <trkpt lat="45.96195" lon="4.71557">
        <ele>183</ele>
        <time>2016-09-27T10:45:01Z</time>
      </trkpt>
      <trkpt lat="45.96189" lon="4.71555">
        <ele>183</ele>
        <time>2016-09-27T10:45:02Z</time>
      </trkpt>
      <trkpt lat="45.96182" lon="4.71554">
        <ele>183</ele>
        <time>2016-09-27T10:45:03Z</time>
      </trkpt>
      <trkpt lat="45.96176" lon="4.71553">
        <ele>183</ele>
        <time>2016-09-27T10:45:04Z</time>
      </trkpt>
      <trkpt lat="45.9617" lon="4.71552">
        <ele>183</ele>
        <time>2016-09-27T10:45:05Z</time>
      </trkpt>
      <trkpt lat="45.96163" lon="4.7155">
        <ele>184</ele>
        <time>2016-09-27T10:45:06Z</time>
      </trkpt>
      <trkpt lat="45.96157" lon="4.71549">
        <ele>184</ele>
        <time>2016-09-27T10:45:07Z</time>
      </trkpt>
      <trkpt lat="45.9615" lon="4.71548">
        <ele>184</ele>
        <time>2016-09-27T10:45:08Z</time>
      </trkpt>
      <trkpt lat="45.96143" lon="4.71547">
        <ele>184</ele>
        <time>2016-09-27T10:45:09Z</time>
      </trkpt>
      <trkpt lat="45.96137" lon="4.71545">
        <ele>184</ele>
        <time>2016-09-27T10:45:10Z</time>
      </trkpt>
      <trkpt lat="45.96131" lon="4.71544">
        <ele>185</ele>
        <time>2016-09-27T10:45:11Z</time>
      </trkpt>
      <trkpt lat="45.96125" lon="4.71544">
        <ele>185</ele>
        <time>2016-09-27T10:45:12Z</time>
      </trkpt>
      <trkpt lat="45.96118" lon="4.71543">
        <ele>185</ele>
        <time>2016-09-27T10:45:13Z</time>
      </trkpt>
      <trkpt lat="45.96112" lon="4.71542">
        <ele>185</ele>
        <time>2016-09-27T10:45:14Z</time>
      </trkpt>
      <trkpt lat="45.96106" lon="4.71542">
        <ele>185</ele>
        <time>2016-09-27T10:45:15Z</time>
      </trkpt>
      <trkpt lat="45.961" lon="4.7154">
        <ele>185</ele>
        <time>2016-09-27T10:45:16Z</time>
      </trkpt>
      <trkpt lat="45.96094" lon="4.71538">
        <ele>185</ele>
        <time>2016-09-27T10:45:17Z</time>
      </trkpt>
      <trkpt lat="45.96089" lon="4.71537">
        <ele>185</ele>
        <time>2016-09-27T10:45:18Z</time>
      </trkpt>
      <trkpt lat="45.96084" lon="4.71536">
        <ele>185</ele>
        <time>2016-09-27T10:45:19Z</time>
      </trkpt>
      <trkpt lat="45.96078" lon="4.71536">
        <ele>186</ele>
        <time>2016-09-27T10:45:20Z</time>
      </trkpt>
      <trkpt lat="45.96073" lon="4.71535">
        <ele>186</ele>
        <time>2016-09-27T10:45:21Z</time>
      </trkpt>
      <trkpt lat="45.96067" lon="4.71534">
        <ele>186</ele>
        <time>2016-09-27T10:45:22Z</time>
      </trkpt>
      <trkpt lat="45.96061" lon="4.71532">
        <ele>186</ele>
        <time>2016-09-27T10:45:23Z</time>
      </trkpt>
      <trkpt lat="45.96055" lon="4.71531">
        <ele>186</ele>
        <time>2016-09-27T10:45:24Z</time>
      </trkpt>
      <trkpt lat="45.96049" lon="4.7153">
        <ele>186</ele>
        <time>2016-09-27T10:45:25Z</time>
      </trkpt>
      <trkpt lat="45.96043" lon="4.71529">
        <ele>186</ele>
        <time>2016-09-27T10:45:26Z</time>
      </trkpt>
      <trkpt lat="45.96037" lon="4.71528">
        <ele>186</ele>
        <time>2016-09-27T10:45:27Z</time>
      </trkpt>
      <trkpt lat="45.96031" lon="4.71527">
        <ele>186</ele>
        <time>2016-09-27T10:45:28Z</time>
      </trkpt>
      <trkpt lat="45.96025" lon="4.71526">
        <ele>186</ele>
        <time>2016-09-27T10:45:29Z</time>
      </trkpt>
      <trkpt lat="45.96019" lon="4.71525">
        <ele>186</ele>
        <time>2016-09-27T10:45:30Z</time>
      </trkpt>
      <trkpt lat="45.96014" lon="4.71524">
        <ele>186</ele>
        <time>2016-09-27T10:45:31Z</time>
      </trkpt>
      <trkpt lat="45.96009" lon="4.71522">
        <ele>186</ele>
        <time>2016-09-27T10:45:32Z</time>
      </trkpt>
      <trkpt lat="45.96003" lon="4.71521">
        <ele>186</ele>
        <time>2016-09-27T10:45:33Z</time>
      </trkpt>
      <trkpt lat="45.95998" lon="4.71519">
        <ele>185</ele>
        <time>2016-09-27T10:45:34Z</time>
      </trkpt>
      <trkpt lat="45.95994" lon="4.71516">
        <ele>186</ele>
        <time>2016-09-27T10:45:35Z</time>
      </trkpt>
      <trkpt lat="45.95989" lon="4.71513">
        <ele>186</ele>
        <time>2016-09-27T10:45:36Z</time>
      </trkpt>
      <trkpt lat="45.95983" lon="4.7151">
        <ele>185</ele>
        <time>2016-09-27T10:45:37Z</time>
      </trkpt>
      <trkpt lat="45.95977" lon="4.7151">
        <ele>185</ele>
        <time>2016-09-27T10:45:38Z</time>
      </trkpt>
      <trkpt lat="45.95971" lon="4.71512">
        <ele>185</ele>
        <time>2016-09-27T10:45:39Z</time>
      </trkpt>
      <trkpt lat="45.95965" lon="4.71515">
        <ele>184</ele>
        <time>2016-09-27T10:45:40Z</time>
      </trkpt>
      <trkpt lat="45.95959" lon="4.71517">
        <ele>184</ele>
        <time>2016-09-27T10:45:41Z</time>
      </trkpt>
      <trkpt lat="45.95955" lon="4.71519">
        <ele>184</ele>
        <time>2016-09-27T10:45:42Z</time>
      </trkpt>
      <trkpt lat="45.95949" lon="4.7152">
        <ele>184</ele>
        <time>2016-09-27T10:45:43Z</time>
      </trkpt>
      <trkpt lat="45.95942" lon="4.7152">
        <ele>184</ele>
        <time>2016-09-27T10:45:44Z</time>
      </trkpt>
      <trkpt lat="45.95935" lon="4.71521">
        <ele>184</ele>
        <time>2016-09-27T10:45:45Z</time>
      </trkpt>
      <trkpt lat="45.95928" lon="4.71521">
        <ele>184</ele>
        <time>2016-09-27T10:45:46Z</time>
      </trkpt>
      <trkpt lat="45.95922" lon="4.7152">
        <ele>184</ele>
        <time>2016-09-27T10:45:47Z</time>
      </trkpt>
      <trkpt lat="45.95916" lon="4.7152">
        <ele>183</ele>
        <time>2016-09-27T10:45:48Z</time>
      </trkpt>
      <trkpt lat="45.95909" lon="4.7152">
        <ele>183</ele>
        <time>2016-09-27T10:45:49Z</time>
      </trkpt>
      <trkpt lat="45.95902" lon="4.7152">
        <ele>183</ele>
        <time>2016-09-27T10:45:50Z</time>
      </trkpt>
      <trkpt lat="45.95896" lon="4.7152">
        <ele>182</ele>
        <time>2016-09-27T10:45:51Z</time>
      </trkpt>
      <trkpt lat="45.95889" lon="4.7152">
        <ele>182</ele>
        <time>2016-09-27T10:45:52Z</time>
      </trkpt>
      <trkpt lat="45.95882" lon="4.71519">
        <ele>182</ele>
        <time>2016-09-27T10:45:53Z</time>
      </trkpt>
      <trkpt lat="45.95875" lon="4.71519">
        <ele>182</ele>
        <time>2016-09-27T10:45:54Z</time>
      </trkpt>
      <trkpt lat="45.95868" lon="4.71518">
        <ele>182</ele>
        <time>2016-09-27T10:45:55Z</time>
      </trkpt>
      <trkpt lat="45.95861" lon="4.71518">
        <ele>182</ele>
        <time>2016-09-27T10:45:56Z</time>
      </trkpt>
      <trkpt lat="45.95855" lon="4.71518">
        <ele>182</ele>
        <time>2016-09-27T10:45:57Z</time>
      </trkpt>
      <trkpt lat="45.95848" lon="4.71518">
        <ele>182</ele>
        <time>2016-09-27T10:45:58Z</time>
      </trkpt>
      <trkpt lat="45.95841" lon="4.71518">
        <ele>182</ele>
        <time>2016-09-27T10:45:59Z</time>
      </trkpt>
      <trkpt lat="45.95835" lon="4.71518">
        <ele>183</ele>
        <time>2016-09-27T10:46:00Z</time>
      </trkpt>
      <trkpt lat="45.95828" lon="4.71518">
        <ele>182</ele>
        <time>2016-09-27T10:46:01Z</time>
      </trkpt>
      <trkpt lat="45.95821" lon="4.71516">
        <ele>182</ele>
        <time>2016-09-27T10:46:02Z</time>
      </trkpt>
      <trkpt lat="45.95814" lon="4.71516">
        <ele>182</ele>
        <time>2016-09-27T10:46:03Z</time>
      </trkpt>
      <trkpt lat="45.95807" lon="4.71515">
        <ele>181</ele>
        <time>2016-09-27T10:46:04Z</time>
      </trkpt>
      <trkpt lat="45.958" lon="4.71515">
        <ele>181</ele>
        <time>2016-09-27T10:46:05Z</time>
      </trkpt>
      <trkpt lat="45.95793" lon="4.71515">
        <ele>181</ele>
        <time>2016-09-27T10:46:06Z</time>
      </trkpt>
      <trkpt lat="45.95787" lon="4.71514">
        <ele>181</ele>
        <time>2016-09-27T10:46:07Z</time>
      </trkpt>
      <trkpt lat="45.9578" lon="4.71514">
        <ele>181</ele>
        <time>2016-09-27T10:46:08Z</time>
      </trkpt>
      <trkpt lat="45.95772" lon="4.71513">
        <ele>181</ele>
        <time>2016-09-27T10:46:09Z</time>
      </trkpt>
      <trkpt lat="45.95765" lon="4.71513">
        <ele>181</ele>
        <time>2016-09-27T10:46:10Z</time>
      </trkpt>
      <trkpt lat="45.95757" lon="4.71513">
        <ele>181</ele>
        <time>2016-09-27T10:46:11Z</time>
      </trkpt>
      <trkpt lat="45.9575" lon="4.71512">
        <ele>181</ele>
        <time>2016-09-27T10:46:12Z</time>
      </trkpt>
      <trkpt lat="45.95743" lon="4.71512">
        <ele>181</ele>
        <time>2016-09-27T10:46:13Z</time>
      </trkpt>
      <trkpt lat="45.95736" lon="4.71512">
        <ele>181</ele>
        <time>2016-09-27T10:46:14Z</time>
      </trkpt>
      <trkpt lat="45.95729" lon="4.71511">
        <ele>181</ele>
        <time>2016-09-27T10:46:15Z</time>
      </trkpt>
      <trkpt lat="45.95722" lon="4.71511">
        <ele>180</ele>
        <time>2016-09-27T10:46:16Z</time>
      </trkpt>
      <trkpt lat="45.95716" lon="4.7151">
        <ele>180</ele>
        <time>2016-09-27T10:46:17Z</time>
      </trkpt>
      <trkpt lat="45.95709" lon="4.7151">
        <ele>180</ele>
        <time>2016-09-27T10:46:18Z</time>
      </trkpt>
      <trkpt lat="45.95701" lon="4.71509">
        <ele>180</ele>
        <time>2016-09-27T10:46:19Z</time>
      </trkpt>
      <trkpt lat="45.95694" lon="4.71509">
        <ele>180</ele>
        <time>2016-09-27T10:46:20Z</time>
      </trkpt>
      <trkpt lat="45.95687" lon="4.71509">
        <ele>181</ele>
        <time>2016-09-27T10:46:21Z</time>
      </trkpt>
      <trkpt lat="45.95679" lon="4.71508">
        <ele>181</ele>
        <time>2016-09-27T10:46:22Z</time>
      </trkpt>
      <trkpt lat="45.95671" lon="4.71508">
        <ele>181</ele>
        <time>2016-09-27T10:46:23Z</time>
      </trkpt>
      <trkpt lat="45.95663" lon="4.71508">
        <ele>181</ele>
        <time>2016-09-27T10:46:24Z</time>
      </trkpt>
      <trkpt lat="45.95655" lon="4.71507">
        <ele>181</ele>
        <time>2016-09-27T10:46:25Z</time>
      </trkpt>
      <trkpt lat="45.95647" lon="4.71506">
        <ele>180</ele>
        <time>2016-09-27T10:46:26Z</time>
      </trkpt>
      <trkpt lat="45.95637" lon="4.71504">
        <ele>180</ele>
        <time>2016-09-27T10:46:27Z</time>
      </trkpt>
      <trkpt lat="45.95629" lon="4.71503">
        <ele>180</ele>
        <time>2016-09-27T10:46:28Z</time>
      </trkpt>
      <trkpt lat="45.95621" lon="4.71503">
        <ele>180</ele>
        <time>2016-09-27T10:46:29Z</time>
      </trkpt>
      <trkpt lat="45.95613" lon="4.71501">
        <ele>179</ele>
        <time>2016-09-27T10:46:30Z</time>
      </trkpt>
      <trkpt lat="45.95605" lon="4.715">
        <ele>179</ele>
        <time>2016-09-27T10:46:31Z</time>
      </trkpt>
      <trkpt lat="45.95598" lon="4.71498">
        <ele>181</ele>
        <time>2016-09-27T10:46:32Z</time>
      </trkpt>
      <trkpt lat="45.9559" lon="4.71496">
        <ele>180</ele>
        <time>2016-09-27T10:46:33Z</time>
      </trkpt>
      <trkpt lat="45.95582" lon="4.71496">
        <ele>180</ele>
        <time>2016-09-27T10:46:34Z</time>
      </trkpt>
      <trkpt lat="45.95575" lon="4.71496">
        <ele>180</ele>
        <time>2016-09-27T10:46:35Z</time>
      </trkpt>
      <trkpt lat="45.95568" lon="4.71496">
        <ele>180</ele>
        <time>2016-09-27T10:46:36Z</time>
      </trkpt>
      <trkpt lat="45.9556" lon="4.71495">
        <ele>179</ele>
        <time>2016-09-27T10:46:37Z</time>
      </trkpt>
      <trkpt lat="45.95553" lon="4.71495">
        <ele>179</ele>
        <time>2016-09-27T10:46:38Z</time>
      </trkpt>
      <trkpt lat="45.95547" lon="4.71494">
        <ele>179</ele>
        <time>2016-09-27T10:46:39Z</time>
      </trkpt>
      <trkpt lat="45.9554" lon="4.71493">
        <ele>179</ele>
        <time>2016-09-27T10:46:40Z</time>
      </trkpt>
      <trkpt lat="45.95532" lon="4.71493">
        <ele>179</ele>
        <time>2016-09-27T10:46:41Z</time>
      </trkpt>
      <trkpt lat="45.95525" lon="4.71492">
        <ele>178</ele>
        <time>2016-09-27T10:46:42Z</time>
      </trkpt>
      <trkpt lat="45.95518" lon="4.71492">
        <ele>178</ele>
        <time>2016-09-27T10:46:43Z</time>
      </trkpt>
      <trkpt lat="45.95512" lon="4.7149">
        <ele>178</ele>
        <time>2016-09-27T10:46:44Z</time>
      </trkpt>
      <trkpt lat="45.95505" lon="4.7149">
        <ele>178</ele>
        <time>2016-09-27T10:46:45Z</time>
      </trkpt>
      <trkpt lat="45.95497" lon="4.7149">
        <ele>177</ele>
        <time>2016-09-27T10:46:46Z</time>
      </trkpt>
      <trkpt lat="45.95492" lon="4.7149">
        <ele>177</ele>
        <time>2016-09-27T10:46:47Z</time>
      </trkpt>
      <trkpt lat="45.95484" lon="4.71488">
        <ele>177</ele>
        <time>2016-09-27T10:46:48Z</time>
      </trkpt>
      <trkpt lat="45.95476" lon="4.71488">
        <ele>176</ele>
        <time>2016-09-27T10:46:49Z</time>
      </trkpt>
      <trkpt lat="45.95467" lon="4.71487">
        <ele>176</ele>
        <time>2016-09-27T10:46:50Z</time>
      </trkpt>
      <trkpt lat="45.95458" lon="4.71488">
        <ele>176</ele>
        <time>2016-09-27T10:46:51Z</time>
      </trkpt>
      <trkpt lat="45.95449" lon="4.71489">
        <ele>176</ele>
        <time>2016-09-27T10:46:52Z</time>
      </trkpt>
      <trkpt lat="45.95441" lon="4.7149">
        <ele>176</ele>
        <time>2016-09-27T10:46:53Z</time>
      </trkpt>
      <trkpt lat="45.95425" lon="4.7149">
        <ele>175</ele>
        <time>2016-09-27T10:46:55Z</time>
      </trkpt>
      <trkpt lat="45.95417" lon="4.7149">
        <ele>175</ele>
        <time>2016-09-27T10:46:56Z</time>
      </trkpt>
      <trkpt lat="45.95409" lon="4.71489">
        <ele>175</ele>
        <time>2016-09-27T10:46:57Z</time>
      </trkpt>
      <trkpt lat="45.95402" lon="4.71489">
        <ele>175</ele>
        <time>2016-09-27T10:46:58Z</time>
      </trkpt>
      <trkpt lat="45.95395" lon="4.71489">
        <ele>175</ele>
        <time>2016-09-27T10:46:59Z</time>
      </trkpt>
      <trkpt lat="45.95388" lon="4.71488">
        <ele>175</ele>
        <time>2016-09-27T10:47:00Z</time>
      </trkpt>
      <trkpt lat="45.9538" lon="4.71488">
        <ele>175</ele>
        <time>2016-09-27T10:47:01Z</time>
      </trkpt>
      <trkpt lat="45.95373" lon="4.71488">
        <ele>175</ele>
        <time>2016-09-27T10:47:02Z</time>
      </trkpt>
      <trkpt lat="45.95366" lon="4.71488">
        <ele>175</ele>
        <time>2016-09-27T10:47:03Z</time>
      </trkpt>
      <trkpt lat="45.9536" lon="4.71488">
        <ele>175</ele>
        <time>2016-09-27T10:47:04Z</time>
      </trkpt>
      <trkpt lat="45.95352" lon="4.71488">
        <ele>175</ele>
        <time>2016-09-27T10:47:05Z</time>
      </trkpt>
      <trkpt lat="45.95345" lon="4.71488">
        <ele>175</ele>
        <time>2016-09-27T10:47:06Z</time>
      </trkpt>
      <trkpt lat="45.95338" lon="4.71488">
        <ele>175</ele>
        <time>2016-09-27T10:47:07Z</time>
      </trkpt>
      <trkpt lat="45.95331" lon="4.71487">
        <ele>175</ele>
        <time>2016-09-27T10:47:08Z</time>
      </trkpt>
      <trkpt lat="45.95324" lon="4.71486">
        <ele>175</ele>
        <time>2016-09-27T10:47:09Z</time>
      </trkpt>
      <trkpt lat="45.95318" lon="4.71486">
        <ele>175</ele>
        <time>2016-09-27T10:47:10Z</time>
      </trkpt>
      <trkpt lat="45.95311" lon="4.71485">
        <ele>175</ele>
        <time>2016-09-27T10:47:11Z</time>
      </trkpt>
      <trkpt lat="45.95304" lon="4.71485">
        <ele>175</ele>
        <time>2016-09-27T10:47:12Z</time>
      </trkpt>
      <trkpt lat="45.95297" lon="4.71483">
        <ele>176</ele>
        <time>2016-09-27T10:47:13Z</time>
      </trkpt>
      <trkpt lat="45.9529" lon="4.71483">
        <ele>176</ele>
        <time>2016-09-27T10:47:14Z</time>
      </trkpt>
      <trkpt lat="45.9528" lon="4.71484">
        <ele>176</ele>
        <time>2016-09-27T10:47:15Z</time>
      </trkpt>
      <trkpt lat="45.95272" lon="4.71483">
        <ele>176</ele>
        <time>2016-09-27T10:47:16Z</time>
      </trkpt>
      <trkpt lat="45.95265" lon="4.71484">
        <ele>176</ele>
        <time>2016-09-27T10:47:17Z</time>
      </trkpt>
      <trkpt lat="45.95257" lon="4.71484">
        <ele>176</ele>
        <time>2016-09-27T10:47:18Z</time>
      </trkpt>
      <trkpt lat="45.9525" lon="4.71484">
        <ele>177</ele>
        <time>2016-09-27T10:47:19Z</time>
      </trkpt>
      <trkpt lat="45.95243" lon="4.71484">
        <ele>177</ele>
        <time>2016-09-27T10:47:20Z</time>
      </trkpt>
      <trkpt lat="45.95236" lon="4.71483">
        <ele>177</ele>
        <time>2016-09-27T10:47:21Z</time>
      </trkpt>
      <trkpt lat="45.95229" lon="4.71482">
        <ele>177</ele>
        <time>2016-09-27T10:47:22Z</time>
      </trkpt>
      <trkpt lat="45.95222" lon="4.71481">
        <ele>177</ele>
        <time>2016-09-27T10:47:23Z</time>
      </trkpt>
      <trkpt lat="45.95217" lon="4.71481">
        <ele>177</ele>
        <time>2016-09-27T10:47:24Z</time>
      </trkpt>
      <trkpt lat="45.95211" lon="4.7148">
        <ele>177</ele>
        <time>2016-09-27T10:47:25Z</time>
      </trkpt>
      <trkpt lat="45.95205" lon="4.7148">
        <ele>177</ele>
        <time>2016-09-27T10:47:26Z</time>
      </trkpt>
      <trkpt lat="45.952" lon="4.71479">
        <ele>177</ele>
        <time>2016-09-27T10:47:27Z</time>
      </trkpt>
      <trkpt lat="45.95194" lon="4.71479">
        <ele>177</ele>
        <time>2016-09-27T10:47:28Z</time>
      </trkpt>
      <trkpt lat="45.95188" lon="4.71478">
        <ele>177</ele>
        <time>2016-09-27T10:47:29Z</time>
      </trkpt>
      <trkpt lat="45.95182" lon="4.71479">
        <ele>177</ele>
        <time>2016-09-27T10:47:30Z</time>
      </trkpt>
      <trkpt lat="45.95176" lon="4.71478">
        <ele>177</ele>
        <time>2016-09-27T10:47:31Z</time>
      </trkpt>
      <trkpt lat="45.9517" lon="4.71478">
        <ele>177</ele>
        <time>2016-09-27T10:47:32Z</time>
      </trkpt>
      <trkpt lat="45.95164" lon="4.71479">
        <ele>178</ele>
        <time>2016-09-27T10:47:33Z</time>
      </trkpt>
      <trkpt lat="45.95158" lon="4.7148">
        <ele>178</ele>
        <time>2016-09-27T10:47:34Z</time>
      </trkpt>
      <trkpt lat="45.95152" lon="4.71479">
        <ele>178</ele>
        <time>2016-09-27T10:47:35Z</time>
      </trkpt>
      <trkpt lat="45.95145" lon="4.71479">
        <ele>178</ele>
        <time>2016-09-27T10:47:36Z</time>
      </trkpt>
      <trkpt lat="45.95138" lon="4.71478">
        <ele>178</ele>
        <time>2016-09-27T10:47:37Z</time>
      </trkpt>
      <trkpt lat="45.95132" lon="4.71477">
        <ele>178</ele>
        <time>2016-09-27T10:47:38Z</time>
      </trkpt>
      <trkpt lat="45.95126" lon="4.71477">
        <ele>178</ele>
        <time>2016-09-27T10:47:39Z</time>
      </trkpt>
      <trkpt lat="45.95121" lon="4.71476">
        <ele>178</ele>
        <time>2016-09-27T10:47:40Z</time>
      </trkpt>
      <trkpt lat="45.95116" lon="4.71476">
        <ele>179</ele>
        <time>2016-09-27T10:47:41Z</time>
      </trkpt>
      <trkpt lat="45.95111" lon="4.71475">
        <ele>179</ele>
        <time>2016-09-27T10:47:42Z</time>
      </trkpt>
      <trkpt lat="45.95105" lon="4.71475">
        <ele>179</ele>
        <time>2016-09-27T10:47:43Z</time>
      </trkpt>
      <trkpt lat="45.951" lon="4.71474">
        <ele>179</ele>
        <time>2016-09-27T10:47:44Z</time>
      </trkpt>
      <trkpt lat="45.95095" lon="4.71473">
        <ele>179</ele>
        <time>2016-09-27T10:47:45Z</time>
      </trkpt>
      <trkpt lat="45.95089" lon="4.71473">
        <ele>179</ele>
        <time>2016-09-27T10:47:46Z</time>
      </trkpt>
      <trkpt lat="45.95084" lon="4.71472">
        <ele>179</ele>
        <time>2016-09-27T10:47:47Z</time>
      </trkpt>
      <trkpt lat="45.9508" lon="4.7147">
        <ele>181</ele>
        <time>2016-09-27T10:47:48Z</time>
      </trkpt>
      <trkpt lat="45.95074" lon="4.71469">
        <ele>181</ele>
        <time>2016-09-27T10:47:49Z</time>
      </trkpt>
      <trkpt lat="45.95067" lon="4.71469">
        <ele>181</ele>
        <time>2016-09-27T10:47:50Z</time>
      </trkpt>
      <trkpt lat="45.95062" lon="4.71468">
        <ele>181</ele>
        <time>2016-09-27T10:47:51Z</time>
      </trkpt>
      <trkpt lat="45.95057" lon="4.71467">
        <ele>181</ele>
        <time>2016-09-27T10:47:52Z</time>
      </trkpt>
      <trkpt lat="45.95052" lon="4.71467">
        <ele>181</ele>
        <time>2016-09-27T10:47:53Z</time>
      </trkpt>
      <trkpt lat="45.95047" lon="4.71466">
        <ele>181</ele>
        <time>2016-09-27T10:47:54Z</time>
      </trkpt>
      <trkpt lat="45.95042" lon="4.71466">
        <ele>182</ele>
        <time>2016-09-27T10:47:55Z</time>
      </trkpt>
      <trkpt lat="45.95037" lon="4.71467">
        <ele>182</ele>
        <time>2016-09-27T10:47:56Z</time>
      </trkpt>
      <trkpt lat="45.95032" lon="4.71467">
        <ele>182</ele>
        <time>2016-09-27T10:47:57Z</time>
      </trkpt>
      <trkpt lat="45.95027" lon="4.71466">
        <ele>182</ele>
        <time>2016-09-27T10:47:58Z</time>
      </trkpt>
      <trkpt lat="45.95022" lon="4.71465">
        <ele>182</ele>
        <time>2016-09-27T10:47:59Z</time>
      </trkpt>
      <trkpt lat="45.95017" lon="4.71464">
        <ele>182</ele>
        <time>2016-09-27T10:48:00Z</time>
      </trkpt>
      <trkpt lat="45.95012" lon="4.71464">
        <ele>182</ele>
        <time>2016-09-27T10:48:01Z</time>
      </trkpt>
      <trkpt lat="45.95007" lon="4.71463">
        <ele>182</ele>
        <time>2016-09-27T10:48:02Z</time>
      </trkpt>
      <trkpt lat="45.95002" lon="4.71463">
        <ele>182</ele>
        <time>2016-09-27T10:48:03Z</time>
      </trkpt>
      <trkpt lat="45.94997" lon="4.71461">
        <ele>183</ele>
        <time>2016-09-27T10:48:04Z</time>
      </trkpt>
      <trkpt lat="45.94993" lon="4.71457">
        <ele>184</ele>
        <time>2016-09-27T10:48:05Z</time>
      </trkpt>
      <trkpt lat="45.94989" lon="4.71452">
        <ele>184</ele>
        <time>2016-09-27T10:48:06Z</time>
      </trkpt>
      <trkpt lat="45.94985" lon="4.71447">
        <ele>184</ele>
        <time>2016-09-27T10:48:07Z</time>
      </trkpt>
      <trkpt lat="45.94981" lon="4.71442">
        <ele>184</ele>
        <time>2016-09-27T10:48:08Z</time>
      </trkpt>
      <trkpt lat="45.94975" lon="4.71438">
        <ele>184</ele>
        <time>2016-09-27T10:48:09Z</time>
      </trkpt>
      <trkpt lat="45.94969" lon="4.71436">
        <ele>184</ele>
        <time>2016-09-27T10:48:10Z</time>
      </trkpt>
      <trkpt lat="45.94963" lon="4.71436">
        <ele>184</ele>
        <time>2016-09-27T10:48:11Z</time>
      </trkpt>
      <trkpt lat="45.94958" lon="4.71438">
        <ele>184</ele>
        <time>2016-09-27T10:48:12Z</time>
      </trkpt>
      <trkpt lat="45.94953" lon="4.71443">
        <ele>184</ele>
        <time>2016-09-27T10:48:13Z</time>
      </trkpt>
      <trkpt lat="45.94947" lon="4.71447">
        <ele>184</ele>
        <time>2016-09-27T10:48:14Z</time>
      </trkpt>
      <trkpt lat="45.94942" lon="4.71451">
        <ele>184</ele>
        <time>2016-09-27T10:48:15Z</time>
      </trkpt>
      <trkpt lat="45.94936" lon="4.71454">
        <ele>184</ele>
        <time>2016-09-27T10:48:16Z</time>
      </trkpt>
      <trkpt lat="45.94929" lon="4.71456">
        <ele>184</ele>
        <time>2016-09-27T10:48:17Z</time>
      </trkpt>
      <trkpt lat="45.94924" lon="4.71457">
        <ele>184</ele>
        <time>2016-09-27T10:48:18Z</time>
      </trkpt>
      <trkpt lat="45.94918" lon="4.71458">
        <ele>184</ele>
        <time>2016-09-27T10:48:19Z</time>
      </trkpt>
      <trkpt lat="45.94912" lon="4.71458">
        <ele>184</ele>
        <time>2016-09-27T10:48:20Z</time>
      </trkpt>
      <trkpt lat="45.94907" lon="4.71457">
        <ele>184</ele>
        <time>2016-09-27T10:48:21Z</time>
      </trkpt>
      <trkpt lat="45.94901" lon="4.71457">
        <ele>184</ele>
        <time>2016-09-27T10:48:22Z</time>
      </trkpt>
      <trkpt lat="45.94895" lon="4.71457">
        <ele>184</ele>
        <time>2016-09-27T10:48:23Z</time>
      </trkpt>
      <trkpt lat="45.9489" lon="4.71456">
        <ele>184</ele>
        <time>2016-09-27T10:48:24Z</time>
      </trkpt>
      <trkpt lat="45.94885" lon="4.71456">
        <ele>184</ele>
        <time>2016-09-27T10:48:25Z</time>
      </trkpt>
      <trkpt lat="45.94879" lon="4.71457">
        <ele>184</ele>
        <time>2016-09-27T10:48:26Z</time>
      </trkpt>
      <trkpt lat="45.94874" lon="4.71456">
        <ele>184</ele>
        <time>2016-09-27T10:48:27Z</time>
      </trkpt>
      <trkpt lat="45.94868" lon="4.71455">
        <ele>184</ele>
        <time>2016-09-27T10:48:28Z</time>
      </trkpt>
      <trkpt lat="45.94863" lon="4.71454">
        <ele>184</ele>
        <time>2016-09-27T10:48:29Z</time>
      </trkpt>
      <trkpt lat="45.94858" lon="4.71454">
        <ele>184</ele>
        <time>2016-09-27T10:48:30Z</time>
      </trkpt>
      <trkpt lat="45.94852" lon="4.71454">
        <ele>184</ele>
        <time>2016-09-27T10:48:31Z</time>
      </trkpt>
      <trkpt lat="45.94847" lon="4.71453">
        <ele>184</ele>
        <time>2016-09-27T10:48:32Z</time>
      </trkpt>
      <trkpt lat="45.94842" lon="4.71453">
        <ele>184</ele>
        <time>2016-09-27T10:48:33Z</time>
      </trkpt>
      <trkpt lat="45.94836" lon="4.71452">
        <ele>184</ele>
        <time>2016-09-27T10:48:34Z</time>
      </trkpt>
      <trkpt lat="45.94831" lon="4.71452">
        <ele>184</ele>
        <time>2016-09-27T10:48:35Z</time>
      </trkpt>
      <trkpt lat="45.94826" lon="4.71451">
        <ele>184</ele>
        <time>2016-09-27T10:48:36Z</time>
      </trkpt>
      <trkpt lat="45.94821" lon="4.7145">
        <ele>184</ele>
        <time>2016-09-27T10:48:37Z</time>
      </trkpt>
      <trkpt lat="45.94816" lon="4.71449">
        <ele>184</ele>
        <time>2016-09-27T10:48:38Z</time>
      </trkpt>
      <trkpt lat="45.94811" lon="4.71448">
        <ele>184</ele>
        <time>2016-09-27T10:48:39Z</time>
      </trkpt>
      <trkpt lat="45.94806" lon="4.71448">
        <ele>183</ele>
        <time>2016-09-27T10:48:40Z</time>
      </trkpt>
      <trkpt lat="45.94801" lon="4.71447">
        <ele>183</ele>
        <time>2016-09-27T10:48:41Z</time>
      </trkpt>
      <trkpt lat="45.94795" lon="4.71446">
        <ele>183</ele>
        <time>2016-09-27T10:48:42Z</time>
      </trkpt>
      <trkpt lat="45.94791" lon="4.71445">
        <ele>183</ele>
        <time>2016-09-27T10:48:43Z</time>
      </trkpt>
      <trkpt lat="45.94786" lon="4.71445">
        <ele>183</ele>
        <time>2016-09-27T10:48:44Z</time>
      </trkpt>
      <trkpt lat="45.94781" lon="4.71445">
        <ele>183</ele>
        <time>2016-09-27T10:48:45Z</time>
      </trkpt>
      <trkpt lat="45.94776" lon="4.71445">
        <ele>183</ele>
        <time>2016-09-27T10:48:46Z</time>
      </trkpt>
      <trkpt lat="45.9477" lon="4.71443">
        <ele>184</ele>
        <time>2016-09-27T10:48:47Z</time>
      </trkpt>
      <trkpt lat="45.94763" lon="4.71443">
        <ele>184</ele>
        <time>2016-09-27T10:48:48Z</time>
      </trkpt>
      <trkpt lat="45.94757" lon="4.71443">
        <ele>184</ele>
        <time>2016-09-27T10:48:49Z</time>
      </trkpt>
      <trkpt lat="45.94751" lon="4.71442">
        <ele>184</ele>
        <time>2016-09-27T10:48:50Z</time>
      </trkpt>
      <trkpt lat="45.94745" lon="4.71442">
        <ele>183</ele>
        <time>2016-09-27T10:48:51Z</time>
      </trkpt>
      <trkpt lat="45.94739" lon="4.71442">
        <ele>183</ele>
        <time>2016-09-27T10:48:52Z</time>
      </trkpt>
      <trkpt lat="45.94733" lon="4.71442">
        <ele>183</ele>
        <time>2016-09-27T10:48:53Z</time>
      </trkpt>
      <trkpt lat="45.94727" lon="4.71442">
        <ele>183</ele>
        <time>2016-09-27T10:48:54Z</time>
      </trkpt>
      <trkpt lat="45.94722" lon="4.71442">
        <ele>182</ele>
        <time>2016-09-27T10:48:55Z</time>
      </trkpt>
      <trkpt lat="45.94716" lon="4.71442">
        <ele>182</ele>
        <time>2016-09-27T10:48:56Z</time>
      </trkpt>
      <trkpt lat="45.94711" lon="4.71441">
        <ele>182</ele>
        <time>2016-09-27T10:48:57Z</time>
      </trkpt>
      <trkpt lat="45.94705" lon="4.71441">
        <ele>182</ele>
        <time>2016-09-27T10:48:58Z</time>
      </trkpt>
      <trkpt lat="45.94699" lon="4.7144">
        <ele>182</ele>
        <time>2016-09-27T10:48:59Z</time>
      </trkpt>
      <trkpt lat="45.94694" lon="4.7144">
        <ele>182</ele>
        <time>2016-09-27T10:49:00Z</time>
      </trkpt>
      <trkpt lat="45.94688" lon="4.7144">
        <ele>182</ele>
        <time>2016-09-27T10:49:01Z</time>
      </trkpt>
      <trkpt lat="45.94683" lon="4.71434">
        <ele>182</ele>
        <time>2016-09-27T10:49:03Z</time>
      </trkpt>
      <trkpt lat="45.94677" lon="4.71433">
        <ele>183</ele>
        <time>2016-09-27T10:49:04Z</time>
      </trkpt>
      <trkpt lat="45.94672" lon="4.71432">
        <ele>183</ele>
        <time>2016-09-27T10:49:05Z</time>
      </trkpt>
      <trkpt lat="45.94666" lon="4.71431">
        <ele>182</ele>
        <time>2016-09-27T10:49:06Z</time>
      </trkpt>
      <trkpt lat="45.9466" lon="4.71431">
        <ele>182</ele>
        <time>2016-09-27T10:49:07Z</time>
      </trkpt>
      <trkpt lat="45.94655" lon="4.71432">
        <ele>182</ele>
        <time>2016-09-27T10:49:08Z</time>
      </trkpt>
      <trkpt lat="45.94649" lon="4.71435">
        <ele>182</ele>
        <time>2016-09-27T10:49:09Z</time>
      </trkpt>
      <trkpt lat="45.94644" lon="4.71438">
        <ele>182</ele>
        <time>2016-09-27T10:49:10Z</time>
      </trkpt>
      <trkpt lat="45.94638" lon="4.71437">
        <ele>182</ele>
        <time>2016-09-27T10:49:11Z</time>
      </trkpt>
      <trkpt lat="45.94631" lon="4.71437">
        <ele>181</ele>
        <time>2016-09-27T10:49:12Z</time>
      </trkpt>
      <trkpt lat="45.94624" lon="4.71436">
        <ele>182</ele>
        <time>2016-09-27T10:49:13Z</time>
      </trkpt>
      <trkpt lat="45.94617" lon="4.71435">
        <ele>182</ele>
        <time>2016-09-27T10:49:14Z</time>
      </trkpt>
      <trkpt lat="45.94611" lon="4.71435">
        <ele>182</ele>
        <time>2016-09-27T10:49:15Z</time>
      </trkpt>
      <trkpt lat="45.94604" lon="4.71434">
        <ele>182</ele>
        <time>2016-09-27T10:49:16Z</time>
      </trkpt>
      <trkpt lat="45.94598" lon="4.71433">
        <ele>182</ele>
        <time>2016-09-27T10:49:17Z</time>
      </trkpt>
      <trkpt lat="45.94592" lon="4.71432">
        <ele>183</ele>
        <time>2016-09-27T10:49:18Z</time>
      </trkpt>
      <trkpt lat="45.94585" lon="4.71436">
        <ele>182</ele>
        <time>2016-09-27T10:49:19Z</time>
      </trkpt>
      <trkpt lat="45.94579" lon="4.71436">
        <ele>182</ele>
        <time>2016-09-27T10:49:20Z</time>
      </trkpt>
      <trkpt lat="45.94572" lon="4.71437">
        <ele>182</ele>
        <time>2016-09-27T10:49:21Z</time>
      </trkpt>
      <trkpt lat="45.94565" lon="4.71437">
        <ele>182</ele>
        <time>2016-09-27T10:49:22Z</time>
      </trkpt>
      <trkpt lat="45.94558" lon="4.71439">
        <ele>181</ele>
        <time>2016-09-27T10:49:23Z</time>
      </trkpt>
      <trkpt lat="45.94552" lon="4.71442">
        <ele>181</ele>
        <time>2016-09-27T10:49:24Z</time>
      </trkpt>
      <trkpt lat="45.94547" lon="4.71446">
        <ele>181</ele>
        <time>2016-09-27T10:49:25Z</time>
      </trkpt>
      <trkpt lat="45.9454" lon="4.71449">
        <ele>180</ele>
        <time>2016-09-27T10:49:26Z</time>
      </trkpt>
      <trkpt lat="45.94533" lon="4.7145">
        <ele>180</ele>
        <time>2016-09-27T10:49:27Z</time>
      </trkpt>
      <trkpt lat="45.94524" lon="4.71451">
        <ele>180</ele>
        <time>2016-09-27T10:49:28Z</time>
      </trkpt>
      <trkpt lat="45.94517" lon="4.71457">
        <ele>180</ele>
        <time>2016-09-27T10:49:29Z</time>
      </trkpt>
      <trkpt lat="45.94509" lon="4.71462">
        <ele>180</ele>
        <time>2016-09-27T10:49:30Z</time>
      </trkpt>
      <trkpt lat="45.94501" lon="4.71466">
        <ele>179</ele>
        <time>2016-09-27T10:49:31Z</time>
      </trkpt>
      <trkpt lat="45.94495" lon="4.71467">
        <ele>179</ele>
        <time>2016-09-27T10:49:32Z</time>
      </trkpt>
      <trkpt lat="45.94488" lon="4.71469">
        <ele>179</ele>
        <time>2016-09-27T10:49:33Z</time>
      </trkpt>
      <trkpt lat="45.94482" lon="4.71471">
        <ele>179</ele>
        <time>2016-09-27T10:49:34Z</time>
      </trkpt>
      <trkpt lat="45.94475" lon="4.71473">
        <ele>179</ele>
        <time>2016-09-27T10:49:35Z</time>
      </trkpt>
      <trkpt lat="45.94468" lon="4.71474">
        <ele>179</ele>
        <time>2016-09-27T10:49:36Z</time>
      </trkpt>
      <trkpt lat="45.94462" lon="4.71476">
        <ele>179</ele>
        <time>2016-09-27T10:49:37Z</time>
      </trkpt>
      <trkpt lat="45.94454" lon="4.71476">
        <ele>179</ele>
        <time>2016-09-27T10:49:38Z</time>
      </trkpt>
      <trkpt lat="45.94447" lon="4.71477">
        <ele>179</ele>
        <time>2016-09-27T10:49:39Z</time>
      </trkpt>
      <trkpt lat="45.9444" lon="4.7148">
        <ele>179</ele>
        <time>2016-09-27T10:49:40Z</time>
      </trkpt>
      <trkpt lat="45.94434" lon="4.71483">
        <ele>179</ele>
        <time>2016-09-27T10:49:41Z</time>
      </trkpt>
      <trkpt lat="45.94428" lon="4.71486">
        <ele>178</ele>
        <time>2016-09-27T10:49:42Z</time>
      </trkpt>
      <trkpt lat="45.9442" lon="4.71488">
        <ele>178</ele>
        <time>2016-09-27T10:49:43Z</time>
      </trkpt>
      <trkpt lat="45.94413" lon="4.7149">
        <ele>178</ele>
        <time>2016-09-27T10:49:44Z</time>
      </trkpt>
      <trkpt lat="45.94407" lon="4.71493">
        <ele>178</ele>
        <time>2016-09-27T10:49:45Z</time>
      </trkpt>
      <trkpt lat="45.944" lon="4.71495">
        <ele>178</ele>
        <time>2016-09-27T10:49:46Z</time>
      </trkpt>
      <trkpt lat="45.94393" lon="4.71497">
        <ele>177</ele>
        <time>2016-09-27T10:49:47Z</time>
      </trkpt>
      <trkpt lat="45.94388" lon="4.71498">
        <ele>177</ele>
        <time>2016-09-27T10:49:48Z</time>
      </trkpt>
      <trkpt lat="45.9438" lon="4.71501">
        <ele>177</ele>
        <time>2016-09-27T10:49:49Z</time>
      </trkpt>
      <trkpt lat="45.94373" lon="4.71503">
        <ele>176</ele>
        <time>2016-09-27T10:49:50Z</time>
      </trkpt>
      <trkpt lat="45.94366" lon="4.71505">
        <ele>176</ele>
        <time>2016-09-27T10:49:51Z</time>
      </trkpt>
      <trkpt lat="45.9436" lon="4.71508">
        <ele>176</ele>
        <time>2016-09-27T10:49:52Z</time>
      </trkpt>
      <trkpt lat="45.94353" lon="4.7151">
        <ele>176</ele>
        <time>2016-09-27T10:49:53Z</time>
      </trkpt>
      <trkpt lat="45.94347" lon="4.71515">
        <ele>176</ele>
        <time>2016-09-27T10:49:54Z</time>
      </trkpt>
      <trkpt lat="45.94339" lon="4.71522">
        <ele>176</ele>
        <time>2016-09-27T10:49:55Z</time>
      </trkpt>
      <trkpt lat="45.94331" lon="4.71526">
        <ele>176</ele>
        <time>2016-09-27T10:49:56Z</time>
      </trkpt>
      <trkpt lat="45.94323" lon="4.71529">
        <ele>176</ele>
        <time>2016-09-27T10:49:57Z</time>
      </trkpt>
      <trkpt lat="45.94315" lon="4.71532">
        <ele>175</ele>
        <time>2016-09-27T10:49:58Z</time>
      </trkpt>
      <trkpt lat="45.94307" lon="4.71535">
        <ele>175</ele>
        <time>2016-09-27T10:49:59Z</time>
      </trkpt>
      <trkpt lat="45.94299" lon="4.71538">
        <ele>175</ele>
        <time>2016-09-27T10:50:00Z</time>
      </trkpt>
      <trkpt lat="45.94292" lon="4.7154">
        <ele>175</ele>
        <time>2016-09-27T10:50:01Z</time>
      </trkpt>
      <trkpt lat="45.94284" lon="4.71544">
        <ele>175</ele>
        <time>2016-09-27T10:50:02Z</time>
      </trkpt>
      <trkpt lat="45.94276" lon="4.71546">
        <ele>175</ele>
        <time>2016-09-27T10:50:03Z</time>
      </trkpt>
      <trkpt lat="45.9427" lon="4.71549">
        <ele>175</ele>
        <time>2016-09-27T10:50:04Z</time>
      </trkpt>
      <trkpt lat="45.94262" lon="4.7155">
        <ele>175</ele>
        <time>2016-09-27T10:50:05Z</time>
      </trkpt>
      <trkpt lat="45.94255" lon="4.71552">
        <ele>175</ele>
        <time>2016-09-27T10:50:06Z</time>
      </trkpt>
      <trkpt lat="45.94248" lon="4.71554">
        <ele>174</ele>
        <time>2016-09-27T10:50:07Z</time>
      </trkpt>
      <trkpt lat="45.94241" lon="4.71556">
        <ele>174</ele>
        <time>2016-09-27T10:50:08Z</time>
      </trkpt>
      <trkpt lat="45.94234" lon="4.71558">
        <ele>174</ele>
        <time>2016-09-27T10:50:09Z</time>
      </trkpt>
      <trkpt lat="45.94227" lon="4.71561">
        <ele>174</ele>
        <time>2016-09-27T10:50:10Z</time>
      </trkpt>
      <trkpt lat="45.9422" lon="4.71563">
        <ele>174</ele>
        <time>2016-09-27T10:50:11Z</time>
      </trkpt>
      <trkpt lat="45.94214" lon="4.71565">
        <ele>174</ele>
        <time>2016-09-27T10:50:12Z</time>
      </trkpt>
      <trkpt lat="45.94208" lon="4.71567">
        <ele>174</ele>
        <time>2016-09-27T10:50:13Z</time>
      </trkpt>
      <trkpt lat="45.94202" lon="4.71569">
        <ele>174</ele>
        <time>2016-09-27T10:50:14Z</time>
      </trkpt>
      <trkpt lat="45.94196" lon="4.71571">
        <ele>174</ele>
        <time>2016-09-27T10:50:15Z</time>
      </trkpt>
      <trkpt lat="45.94191" lon="4.71573">
        <ele>174</ele>
        <time>2016-09-27T10:50:16Z</time>
      </trkpt>
      <trkpt lat="45.94185" lon="4.71576">
        <ele>174</ele>
        <time>2016-09-27T10:50:17Z</time>
      </trkpt>
      <trkpt lat="45.94179" lon="4.71578">
        <ele>174</ele>
        <time>2016-09-27T10:50:18Z</time>
      </trkpt>
      <trkpt lat="45.94172" lon="4.7158">
        <ele>174</ele>
        <time>2016-09-27T10:50:19Z</time>
      </trkpt>
      <trkpt lat="45.94165" lon="4.71582">
        <ele>174</ele>
        <time>2016-09-27T10:50:20Z</time>
      </trkpt>
      <trkpt lat="45.94157" lon="4.71584">
        <ele>174</ele>
        <time>2016-09-27T10:50:21Z</time>
      </trkpt>
      <trkpt lat="45.94149" lon="4.71586">
        <ele>173</ele>
        <time>2016-09-27T10:50:22Z</time>
      </trkpt>
      <trkpt lat="45.94143" lon="4.71589">
        <ele>173</ele>
        <time>2016-09-27T10:50:23Z</time>
      </trkpt>
      <trkpt lat="45.94136" lon="4.71591">
        <ele>173</ele>
        <time>2016-09-27T10:50:24Z</time>
      </trkpt>
      <trkpt lat="45.94129" lon="4.71594">
        <ele>173</ele>
        <time>2016-09-27T10:50:25Z</time>
      </trkpt>
      <trkpt lat="45.94122" lon="4.71596">
        <ele>173</ele>
        <time>2016-09-27T10:50:26Z</time>
      </trkpt>
      <trkpt lat="45.94116" lon="4.71598">
        <ele>173</ele>
        <time>2016-09-27T10:50:27Z</time>
      </trkpt>
      <trkpt lat="45.9411" lon="4.71601">
        <ele>173</ele>
        <time>2016-09-27T10:50:28Z</time>
      </trkpt>
      <trkpt lat="45.94104" lon="4.71603">
        <ele>173</ele>
        <time>2016-09-27T10:50:29Z</time>
      </trkpt>
      <trkpt lat="45.94097" lon="4.71605">
        <ele>173</ele>
        <time>2016-09-27T10:50:30Z</time>
      </trkpt>
      <trkpt lat="45.94092" lon="4.71608">
        <ele>173</ele>
        <time>2016-09-27T10:50:31Z</time>
      </trkpt>
      <trkpt lat="45.94086" lon="4.71611">
        <ele>173</ele>
        <time>2016-09-27T10:50:32Z</time>
      </trkpt>
      <trkpt lat="45.94081" lon="4.71615">
        <ele>174</ele>
        <time>2016-09-27T10:50:33Z</time>
      </trkpt>
      <trkpt lat="45.94075" lon="4.71617">
        <ele>174</ele>
        <time>2016-09-27T10:50:34Z</time>
      </trkpt>
      <trkpt lat="45.94068" lon="4.71619">
        <ele>174</ele>
        <time>2016-09-27T10:50:35Z</time>
      </trkpt>
      <trkpt lat="45.94061" lon="4.7162">
        <ele>174</ele>
        <time>2016-09-27T10:50:36Z</time>
      </trkpt>
      <trkpt lat="45.94055" lon="4.71622">
        <ele>174</ele>
        <time>2016-09-27T10:50:37Z</time>
      </trkpt>
      <trkpt lat="45.94049" lon="4.71625">
        <ele>175</ele>
        <time>2016-09-27T10:50:38Z</time>
      </trkpt>
      <trkpt lat="45.94044" lon="4.71628">
        <ele>175</ele>
        <time>2016-09-27T10:50:39Z</time>
      </trkpt>
      <trkpt lat="45.94038" lon="4.7163">
        <ele>175</ele>
        <time>2016-09-27T10:50:40Z</time>
      </trkpt>
      <trkpt lat="45.94033" lon="4.71633">
        <ele>175</ele>
        <time>2016-09-27T10:50:41Z</time>
      </trkpt>
      <trkpt lat="45.94027" lon="4.71635">
        <ele>175</ele>
        <time>2016-09-27T10:50:42Z</time>
      </trkpt>
      <trkpt lat="45.94022" lon="4.71638">
        <ele>175</ele>
        <time>2016-09-27T10:50:43Z</time>
      </trkpt>
      <trkpt lat="45.94017" lon="4.7164">
        <ele>175</ele>
        <time>2016-09-27T10:50:44Z</time>
      </trkpt>
      <trkpt lat="45.94013" lon="4.71642">
        <ele>176</ele>
        <time>2016-09-27T10:50:45Z</time>
      </trkpt>
      <trkpt lat="45.94008" lon="4.71645">
        <ele>176</ele>
        <time>2016-09-27T10:50:46Z</time>
      </trkpt>
      <trkpt lat="45.94004" lon="4.71648">
        <ele>176</ele>
        <time>2016-09-27T10:50:47Z</time>
      </trkpt>
      <trkpt lat="45.93999" lon="4.71651">
        <ele>177</ele>
        <time>2016-09-27T10:50:48Z</time>
      </trkpt>
      <trkpt lat="45.93995" lon="4.71654">
        <ele>177</ele>
        <time>2016-09-27T10:50:49Z</time>
      </trkpt>
      <trkpt lat="45.93989" lon="4.71658">
        <ele>177</ele>
        <time>2016-09-27T10:50:50Z</time>
      </trkpt>
      <trkpt lat="45.93983" lon="4.71663">
        <ele>177</ele>
        <time>2016-09-27T10:50:51Z</time>
      </trkpt>
      <trkpt lat="45.93976" lon="4.71668">
        <ele>176</ele>
        <time>2016-09-27T10:50:52Z</time>
      </trkpt>
      <trkpt lat="45.9397" lon="4.71671">
        <ele>175</ele>
        <time>2016-09-27T10:50:53Z</time>
      </trkpt>
      <trkpt lat="45.93964" lon="4.71674">
        <ele>175</ele>
        <time>2016-09-27T10:50:54Z</time>
      </trkpt>
      <trkpt lat="45.93958" lon="4.71675">
        <ele>175</ele>
        <time>2016-09-27T10:50:55Z</time>
      </trkpt>
      <trkpt lat="45.93951" lon="4.71679">
        <ele>175</ele>
        <time>2016-09-27T10:50:56Z</time>
      </trkpt>
      <trkpt lat="45.93947" lon="4.7168">
        <ele>175</ele>
        <time>2016-09-27T10:50:57Z</time>
      </trkpt>
      <trkpt lat="45.93941" lon="4.71681">
        <ele>175</ele>
        <time>2016-09-27T10:50:58Z</time>
      </trkpt>
      <trkpt lat="45.93936" lon="4.71681">
        <ele>175</ele>
        <time>2016-09-27T10:50:59Z</time>
      </trkpt>
      <trkpt lat="45.93932" lon="4.71681">
        <ele>175</ele>
        <time>2016-09-27T10:51:00Z</time>
      </trkpt>
      <trkpt lat="45.93927" lon="4.7168">
        <ele>175</ele>
        <time>2016-09-27T10:51:01Z</time>
      </trkpt>
      <trkpt lat="45.93921" lon="4.71682">
        <ele>175</ele>
        <time>2016-09-27T10:51:02Z</time>
      </trkpt>
      <trkpt lat="45.93916" lon="4.71684">
        <ele>175</ele>
        <time>2016-09-27T10:51:03Z</time>
      </trkpt>
      <trkpt lat="45.93911" lon="4.71686">
        <ele>174</ele>
        <time>2016-09-27T10:51:04Z</time>
      </trkpt>
      <trkpt lat="45.93906" lon="4.71687">
        <ele>174</ele>
        <time>2016-09-27T10:51:05Z</time>
      </trkpt>
      <trkpt lat="45.93901" lon="4.71688">
        <ele>174</ele>
        <time>2016-09-27T10:51:06Z</time>
      </trkpt>
      <trkpt lat="45.93896" lon="4.7169">
        <ele>174</ele>
        <time>2016-09-27T10:51:07Z</time>
      </trkpt>
      <trkpt lat="45.93891" lon="4.71692">
        <ele>174</ele>
        <time>2016-09-27T10:51:08Z</time>
      </trkpt>
      <trkpt lat="45.93886" lon="4.71694">
        <ele>174</ele>
        <time>2016-09-27T10:51:09Z</time>
      </trkpt>
      <trkpt lat="45.93881" lon="4.71695">
        <ele>174</ele>
        <time>2016-09-27T10:51:10Z</time>
      </trkpt>
      <trkpt lat="45.93875" lon="4.71697">
        <ele>174</ele>
        <time>2016-09-27T10:51:11Z</time>
      </trkpt>
      <trkpt lat="45.93869" lon="4.717">
        <ele>174</ele>
        <time>2016-09-27T10:51:12Z</time>
      </trkpt>
      <trkpt lat="45.93863" lon="4.71702">
        <ele>174</ele>
        <time>2016-09-27T10:51:13Z</time>
      </trkpt>
      <trkpt lat="45.93857" lon="4.71705">
        <ele>174</ele>
        <time>2016-09-27T10:51:14Z</time>
      </trkpt>
      <trkpt lat="45.93851" lon="4.71707">
        <ele>174</ele>
        <time>2016-09-27T10:51:15Z</time>
      </trkpt>
      <trkpt lat="45.93844" lon="4.7171">
        <ele>174</ele>
        <time>2016-09-27T10:51:16Z</time>
      </trkpt>
      <trkpt lat="45.93839" lon="4.71713">
        <ele>175</ele>
        <time>2016-09-27T10:51:17Z</time>
      </trkpt>
      <trkpt lat="45.93833" lon="4.71715">
        <ele>175</ele>
        <time>2016-09-27T10:51:18Z</time>
      </trkpt>
      <trkpt lat="45.93827" lon="4.71717">
        <ele>175</ele>
        <time>2016-09-27T10:51:19Z</time>
      </trkpt>
      <trkpt lat="45.93822" lon="4.71719">
        <ele>175</ele>
        <time>2016-09-27T10:51:20Z</time>
      </trkpt>
      <trkpt lat="45.93817" lon="4.71721">
        <ele>175</ele>
        <time>2016-09-27T10:51:21Z</time>
      </trkpt>
      <trkpt lat="45.93811" lon="4.71723">
        <ele>175</ele>
        <time>2016-09-27T10:51:22Z</time>
      </trkpt>
      <trkpt lat="45.93806" lon="4.71725">
        <ele>175</ele>
        <time>2016-09-27T10:51:23Z</time>
      </trkpt>
      <trkpt lat="45.93801" lon="4.71729">
        <ele>175</ele>
        <time>2016-09-27T10:51:24Z</time>
      </trkpt>
      <trkpt lat="45.93795" lon="4.71732">
        <ele>175</ele>
        <time>2016-09-27T10:51:25Z</time>
      </trkpt>
      <trkpt lat="45.9379" lon="4.71734">
        <ele>175</ele>
        <time>2016-09-27T10:51:26Z</time>
      </trkpt>
      <trkpt lat="45.93784" lon="4.71737">
        <ele>175</ele>
        <time>2016-09-27T10:51:27Z</time>
      </trkpt>
      <trkpt lat="45.93779" lon="4.71741">
        <ele>175</ele>
        <time>2016-09-27T10:51:28Z</time>
      </trkpt>
      <trkpt lat="45.93773" lon="4.71741">
        <ele>175</ele>
        <time>2016-09-27T10:51:29Z</time>
      </trkpt>
      <trkpt lat="45.93768" lon="4.71741">
        <ele>175</ele>
        <time>2016-09-27T10:51:30Z</time>
      </trkpt>
      <trkpt lat="45.93763" lon="4.71742">
        <ele>175</ele>
        <time>2016-09-27T10:51:31Z</time>
      </trkpt>
      <trkpt lat="45.93756" lon="4.71743">
        <ele>175</ele>
        <time>2016-09-27T10:51:32Z</time>
      </trkpt>
      <trkpt lat="45.9375" lon="4.71746">
        <ele>175</ele>
        <time>2016-09-27T10:51:33Z</time>
      </trkpt>
      <trkpt lat="45.93743" lon="4.7175">
        <ele>175</ele>
        <time>2016-09-27T10:51:34Z</time>
      </trkpt>
      <trkpt lat="45.93736" lon="4.71752">
        <ele>176</ele>
        <time>2016-09-27T10:51:35Z</time>
      </trkpt>
      <trkpt lat="45.9373" lon="4.71755">
        <ele>176</ele>
        <time>2016-09-27T10:51:36Z</time>
      </trkpt>
      <trkpt lat="45.93725" lon="4.7176">
        <ele>176</ele>
        <time>2016-09-27T10:51:37Z</time>
      </trkpt>
      <trkpt lat="45.9372" lon="4.71767">
        <ele>176</ele>
        <time>2016-09-27T10:51:38Z</time>
      </trkpt>
      <trkpt lat="45.93717" lon="4.71773">
        <ele>176</ele>
        <time>2016-09-27T10:51:39Z</time>
      </trkpt>
      <trkpt lat="45.93713" lon="4.71781">
        <ele>176</ele>
        <time>2016-09-27T10:51:40Z</time>
      </trkpt>
      <trkpt lat="45.9371" lon="4.71789">
        <ele>176</ele>
        <time>2016-09-27T10:51:41Z</time>
      </trkpt>
      <trkpt lat="45.93705" lon="4.71807">
        <ele>176</ele>
        <time>2016-09-27T10:51:43Z</time>
      </trkpt>
      <trkpt lat="45.93698" lon="4.71832">
        <ele>176</ele>
        <time>2016-09-27T10:51:46Z</time>
      </trkpt>
      <trkpt lat="45.93695" lon="4.7184">
        <ele>175</ele>
        <time>2016-09-27T10:51:47Z</time>
      </trkpt>
      <trkpt lat="45.93686" lon="4.71861">
        <ele>175</ele>
        <time>2016-09-27T10:51:50Z</time>
      </trkpt>
      <trkpt lat="45.9368" lon="4.71873">
        <ele>175</ele>
        <time>2016-09-27T10:51:52Z</time>
      </trkpt>
      <trkpt lat="45.93677" lon="4.7188">
        <ele>175</ele>
        <time>2016-09-27T10:51:53Z</time>
      </trkpt>
      <trkpt lat="45.93674" lon="4.71887">
        <ele>175</ele>
        <time>2016-09-27T10:51:54Z</time>
      </trkpt>
      <trkpt lat="45.93666" lon="4.71905">
        <ele>176</ele>
        <time>2016-09-27T10:51:56Z</time>
      </trkpt>
      <trkpt lat="45.93662" lon="4.71914">
        <ele>176</ele>
        <time>2016-09-27T10:51:57Z</time>
      </trkpt>
      <trkpt lat="45.93661" lon="4.71924">
        <ele>175</ele>
        <time>2016-09-27T10:51:58Z</time>
      </trkpt>
      <trkpt lat="45.93652" lon="4.71953">
        <ele>175</ele>
        <time>2016-09-27T10:52:01Z</time>
      </trkpt>
      <trkpt lat="45.93648" lon="4.71962">
        <ele>175</ele>
        <time>2016-09-27T10:52:02Z</time>
      </trkpt>
      <trkpt lat="45.93644" lon="4.7197">
        <ele>175</ele>
        <time>2016-09-27T10:52:03Z</time>
      </trkpt>
      <trkpt lat="45.93641" lon="4.71979">
        <ele>175</ele>
        <time>2016-09-27T10:52:04Z</time>
      </trkpt>
      <trkpt lat="45.93638" lon="4.71988">
        <ele>175</ele>
        <time>2016-09-27T10:52:05Z</time>
      </trkpt>
      <trkpt lat="45.93635" lon="4.71996">
        <ele>175</ele>
        <time>2016-09-27T10:52:06Z</time>
      </trkpt>
      <trkpt lat="45.93633" lon="4.72003">
        <ele>174</ele>
        <time>2016-09-27T10:52:07Z</time>
      </trkpt>
      <trkpt lat="45.93629" lon="4.7201">
        <ele>175</ele>
        <time>2016-09-27T10:52:08Z</time>
      </trkpt>
      <trkpt lat="45.93625" lon="4.72018">
        <ele>175</ele>
        <time>2016-09-27T10:52:09Z</time>
      </trkpt>
      <trkpt lat="45.9362" lon="4.72025">
        <ele>175</ele>
        <time>2016-09-27T10:52:10Z</time>
      </trkpt>
      <trkpt lat="45.93616" lon="4.72033">
        <ele>175</ele>
        <time>2016-09-27T10:52:11Z</time>
      </trkpt>
      <trkpt lat="45.93613" lon="4.7204">
        <ele>175</ele>
        <time>2016-09-27T10:52:12Z</time>
      </trkpt>
      <trkpt lat="45.93611" lon="4.72048">
        <ele>175</ele>
        <time>2016-09-27T10:52:13Z</time>
      </trkpt>
      <trkpt lat="45.93607" lon="4.72057">
        <ele>175</ele>
        <time>2016-09-27T10:52:14Z</time>
      </trkpt>
      <trkpt lat="45.93604" lon="4.72064">
        <ele>175</ele>
        <time>2016-09-27T10:52:15Z</time>
      </trkpt>
      <trkpt lat="45.93601" lon="4.72072">
        <ele>175</ele>
        <time>2016-09-27T10:52:16Z</time>
      </trkpt>
      <trkpt lat="45.93598" lon="4.72079">
        <ele>175</ele>
        <time>2016-09-27T10:52:17Z</time>
      </trkpt>
      <trkpt lat="45.93595" lon="4.72087">
        <ele>175</ele>
        <time>2016-09-27T10:52:18Z</time>
      </trkpt>
      <trkpt lat="45.93592" lon="4.72094">
        <ele>175</ele>
        <time>2016-09-27T10:52:19Z</time>
      </trkpt>
      <trkpt lat="45.93588" lon="4.72101">
        <ele>175</ele>
        <time>2016-09-27T10:52:20Z</time>
      </trkpt>
      <trkpt lat="45.93586" lon="4.72108">
        <ele>174</ele>
        <time>2016-09-27T10:52:21Z</time>
      </trkpt>
      <trkpt lat="45.93584" lon="4.72115">
        <ele>174</ele>
        <time>2016-09-27T10:52:22Z</time>
      </trkpt>
      <trkpt lat="45.93581" lon="4.72122">
        <ele>175</ele>
        <time>2016-09-27T10:52:23Z</time>
      </trkpt>
      <trkpt lat="45.93583" lon="4.7213">
        <ele>174</ele>
        <time>2016-09-27T10:52:24Z</time>
      </trkpt>
      <trkpt lat="45.93579" lon="4.72137">
        <ele>174</ele>
        <time>2016-09-27T10:52:25Z</time>
      </trkpt>
      <trkpt lat="45.93575" lon="4.72144">
        <ele>174</ele>
        <time>2016-09-27T10:52:26Z</time>
      </trkpt>
      <trkpt lat="45.93572" lon="4.72151">
        <ele>174</ele>
        <time>2016-09-27T10:52:27Z</time>
      </trkpt>
      <trkpt lat="45.93571" lon="4.7216">
        <ele>174</ele>
        <time>2016-09-27T10:52:28Z</time>
      </trkpt>
      <trkpt lat="45.93569" lon="4.72167">
        <ele>173</ele>
        <time>2016-09-27T10:52:29Z</time>
      </trkpt>
      <trkpt lat="45.93565" lon="4.72177">
        <ele>173</ele>
        <time>2016-09-27T10:52:30Z</time>
      </trkpt>
      <trkpt lat="45.93563" lon="4.72184">
        <ele>173</ele>
        <time>2016-09-27T10:52:31Z</time>
      </trkpt>
      <trkpt lat="45.93561" lon="4.7219">
        <ele>173</ele>
        <time>2016-09-27T10:52:32Z</time>
      </trkpt>
      <trkpt lat="45.93557" lon="4.72196">
        <ele>173</ele>
        <time>2016-09-27T10:52:33Z</time>
      </trkpt>
      <trkpt lat="45.93556" lon="4.72203">
        <ele>173</ele>
        <time>2016-09-27T10:52:34Z</time>
      </trkpt>
      <trkpt lat="45.93554" lon="4.72208">
        <ele>173</ele>
        <time>2016-09-27T10:52:35Z</time>
      </trkpt>
      <trkpt lat="45.93551" lon="4.72214">
        <ele>173</ele>
        <time>2016-09-27T10:52:36Z</time>
      </trkpt>
      <trkpt lat="45.93548" lon="4.72221">
        <ele>172</ele>
        <time>2016-09-27T10:52:37Z</time>
      </trkpt>
      <trkpt lat="45.93545" lon="4.72227">
        <ele>172</ele>
        <time>2016-09-27T10:52:38Z</time>
      </trkpt>
      <trkpt lat="45.93542" lon="4.72232">
        <ele>172</ele>
        <time>2016-09-27T10:52:39Z</time>
      </trkpt>
      <trkpt lat="45.9354" lon="4.72238">
        <ele>172</ele>
        <time>2016-09-27T10:52:40Z</time>
      </trkpt>
      <trkpt lat="45.93537" lon="4.72243">
        <ele>172</ele>
        <time>2016-09-27T10:52:41Z</time>
      </trkpt>
      <trkpt lat="45.93534" lon="4.7225">
        <ele>172</ele>
        <time>2016-09-27T10:52:42Z</time>
      </trkpt>
      <trkpt lat="45.93532" lon="4.72256">
        <ele>172</ele>
        <time>2016-09-27T10:52:43Z</time>
      </trkpt>
      <trkpt lat="45.93528" lon="4.72263">
        <ele>172</ele>
        <time>2016-09-27T10:52:44Z</time>
      </trkpt>
      <trkpt lat="45.93526" lon="4.72269">
        <ele>172</ele>
        <time>2016-09-27T10:52:45Z</time>
      </trkpt>
      <trkpt lat="45.93523" lon="4.72276">
        <ele>172</ele>
        <time>2016-09-27T10:52:46Z</time>
      </trkpt>
      <trkpt lat="45.93521" lon="4.72282">
        <ele>172</ele>
        <time>2016-09-27T10:52:47Z</time>
      </trkpt>
      <trkpt lat="45.93518" lon="4.72289">
        <ele>172</ele>
        <time>2016-09-27T10:52:48Z</time>
      </trkpt>
      <trkpt lat="45.93515" lon="4.72295">
        <ele>172</ele>
        <time>2016-09-27T10:52:49Z</time>
      </trkpt>
      <trkpt lat="45.93511" lon="4.72301">
        <ele>172</ele>
        <time>2016-09-27T10:52:50Z</time>
      </trkpt>
      <trkpt lat="45.93507" lon="4.72306">
        <ele>173</ele>
        <time>2016-09-27T10:52:51Z</time>
      </trkpt>
      <trkpt lat="45.93503" lon="4.7231">
        <ele>173</ele>
        <time>2016-09-27T10:52:52Z</time>
      </trkpt>
      <trkpt lat="45.93498" lon="4.72315">
        <ele>173</ele>
        <time>2016-09-27T10:52:53Z</time>
      </trkpt>
      <trkpt lat="45.93495" lon="4.72322">
        <ele>173</ele>
        <time>2016-09-27T10:52:54Z</time>
      </trkpt>
      <trkpt lat="45.93493" lon="4.72329">
        <ele>173</ele>
        <time>2016-09-27T10:52:55Z</time>
      </trkpt>
      <trkpt lat="45.93491" lon="4.72336">
        <ele>173</ele>
        <time>2016-09-27T10:52:56Z</time>
      </trkpt>
      <trkpt lat="45.93489" lon="4.72344">
        <ele>173</ele>
        <time>2016-09-27T10:52:57Z</time>
      </trkpt>
      <trkpt lat="45.93483" lon="4.72352">
        <ele>173</ele>
        <time>2016-09-27T10:52:58Z</time>
      </trkpt>
      <trkpt lat="45.93476" lon="4.72356">
        <ele>173</ele>
        <time>2016-09-27T10:52:59Z</time>
      </trkpt>
      <trkpt lat="45.9347" lon="4.72362">
        <ele>173</ele>
        <time>2016-09-27T10:53:00Z</time>
      </trkpt>
      <trkpt lat="45.93461" lon="4.7237">
        <ele>173</ele>
        <time>2016-09-27T10:53:01Z</time>
      </trkpt>
      <trkpt lat="45.93455" lon="4.72376">
        <ele>173</ele>
        <time>2016-09-27T10:53:02Z</time>
      </trkpt>
      <trkpt lat="45.93449" lon="4.72382">
        <ele>173</ele>
        <time>2016-09-27T10:53:03Z</time>
      </trkpt>
      <trkpt lat="45.93443" lon="4.72387">
        <ele>173</ele>
        <time>2016-09-27T10:53:04Z</time>
      </trkpt>
      <trkpt lat="45.93437" lon="4.72392">
        <ele>173</ele>
        <time>2016-09-27T10:53:05Z</time>
      </trkpt>
      <trkpt lat="45.93432" lon="4.72396">
        <ele>173</ele>
        <time>2016-09-27T10:53:06Z</time>
      </trkpt>
      <trkpt lat="45.93427" lon="4.72399">
        <ele>174</ele>
        <time>2016-09-27T10:53:07Z</time>
      </trkpt>
      <trkpt lat="45.9342" lon="4.72401">
        <ele>174</ele>
        <time>2016-09-27T10:53:08Z</time>
      </trkpt>
      <trkpt lat="45.93414" lon="4.72403">
        <ele>174</ele>
        <time>2016-09-27T10:53:09Z</time>
      </trkpt>
      <trkpt lat="45.93408" lon="4.72404">
        <ele>174</ele>
        <time>2016-09-27T10:53:10Z</time>
      </trkpt>
      <trkpt lat="45.93404" lon="4.72404">
        <ele>174</ele>
        <time>2016-09-27T10:53:11Z</time>
      </trkpt>
      <trkpt lat="45.93399" lon="4.72404">
        <ele>174</ele>
        <time>2016-09-27T10:53:12Z</time>
      </trkpt>
      <trkpt lat="45.93394" lon="4.72403">
        <ele>174</ele>
        <time>2016-09-27T10:53:13Z</time>
      </trkpt>
      <trkpt lat="45.9339" lon="4.72404">
        <ele>174</ele>
        <time>2016-09-27T10:53:14Z</time>
      </trkpt>
      <trkpt lat="45.93386" lon="4.72408">
        <ele>174</ele>
        <time>2016-09-27T10:53:15Z</time>
      </trkpt>
      <trkpt lat="45.93383" lon="4.72414">
        <ele>174</ele>
        <time>2016-09-27T10:53:16Z</time>
      </trkpt>
      <trkpt lat="45.93383" lon="4.72421">
        <ele>173</ele>
        <time>2016-09-27T10:53:17Z</time>
      </trkpt>
      <trkpt lat="45.93384" lon="4.72427">
        <ele>173</ele>
        <time>2016-09-27T10:53:18Z</time>
      </trkpt>
      <trkpt lat="45.93386" lon="4.72434">
        <ele>173</ele>
        <time>2016-09-27T10:53:19Z</time>
      </trkpt>
      <trkpt lat="45.93389" lon="4.72441">
        <ele>173</ele>
        <time>2016-09-27T10:53:20Z</time>
      </trkpt>
      <trkpt lat="45.9339" lon="4.72448">
        <ele>173</ele>
        <time>2016-09-27T10:53:21Z</time>
      </trkpt>
      <trkpt lat="45.93389" lon="4.72456">
        <ele>173</ele>
        <time>2016-09-27T10:53:22Z</time>
      </trkpt>
      <trkpt lat="45.93385" lon="4.72463">
        <ele>173</ele>
        <time>2016-09-27T10:53:23Z</time>
      </trkpt>
      <trkpt lat="45.93381" lon="4.72469">
        <ele>173</ele>
        <time>2016-09-27T10:53:24Z</time>
      </trkpt>
      <trkpt lat="45.93377" lon="4.72474">
        <ele>173</ele>
        <time>2016-09-27T10:53:25Z</time>
      </trkpt>
      <trkpt lat="45.93372" lon="4.72479">
        <ele>173</ele>
        <time>2016-09-27T10:53:26Z</time>
      </trkpt>
      <trkpt lat="45.93367" lon="4.72485">
        <ele>173</ele>
        <time>2016-09-27T10:53:27Z</time>
      </trkpt>
      <trkpt lat="45.93362" lon="4.72492">
        <ele>173</ele>
        <time>2016-09-27T10:53:28Z</time>
      </trkpt>
      <trkpt lat="45.93358" lon="4.72498">
        <ele>173</ele>
        <time>2016-09-27T10:53:29Z</time>
      </trkpt>
      <trkpt lat="45.93353" lon="4.72503">
        <ele>172</ele>
        <time>2016-09-27T10:53:30Z</time>
      </trkpt>
      <trkpt lat="45.93348" lon="4.72509">
        <ele>172</ele>
        <time>2016-09-27T10:53:31Z</time>
      </trkpt>
      <trkpt lat="45.93343" lon="4.72516">
        <ele>172</ele>
        <time>2016-09-27T10:53:32Z</time>
      </trkpt>
      <trkpt lat="45.93337" lon="4.72521">
        <ele>172</ele>
        <time>2016-09-27T10:53:33Z</time>
      </trkpt>
      <trkpt lat="45.93333" lon="4.72526">
        <ele>172</ele>
        <time>2016-09-27T10:53:34Z</time>
      </trkpt>
      <trkpt lat="45.93329" lon="4.72531">
        <ele>172</ele>
        <time>2016-09-27T10:53:35Z</time>
      </trkpt>
      <trkpt lat="45.93324" lon="4.72536">
        <ele>172</ele>
        <time>2016-09-27T10:53:36Z</time>
      </trkpt>
      <trkpt lat="45.9332" lon="4.72541">
        <ele>172</ele>
        <time>2016-09-27T10:53:37Z</time>
      </trkpt>
      <trkpt lat="45.93315" lon="4.72546">
        <ele>172</ele>
        <time>2016-09-27T10:53:38Z</time>
      </trkpt>
      <trkpt lat="45.93312" lon="4.72552">
        <ele>172</ele>
        <time>2016-09-27T10:53:39Z</time>
      </trkpt>
      <trkpt lat="45.93308" lon="4.72556">
        <ele>172</ele>
        <time>2016-09-27T10:53:40Z</time>
      </trkpt>
      <trkpt lat="45.93304" lon="4.72563">
        <ele>172</ele>
        <time>2016-09-27T10:53:41Z</time>
      </trkpt>
      <trkpt lat="45.93299" lon="4.72568">
        <ele>171</ele>
        <time>2016-09-27T10:53:42Z</time>
      </trkpt>
      <trkpt lat="45.93294" lon="4.72573">
        <ele>171</ele>
        <time>2016-09-27T10:53:43Z</time>
      </trkpt>
      <trkpt lat="45.93289" lon="4.72578">
        <ele>171</ele>
        <time>2016-09-27T10:53:44Z</time>
      </trkpt>
      <trkpt lat="45.93285" lon="4.72582">
        <ele>171</ele>
        <time>2016-09-27T10:53:45Z</time>
      </trkpt>
      <trkpt lat="45.93281" lon="4.72587">
        <ele>170</ele>
        <time>2016-09-27T10:53:46Z</time>
      </trkpt>
      <trkpt lat="45.93277" lon="4.72591">
        <ele>170</ele>
        <time>2016-09-27T10:53:47Z</time>
      </trkpt>
      <trkpt lat="45.93273" lon="4.72595">
        <ele>170</ele>
        <time>2016-09-27T10:53:48Z</time>
      </trkpt>
      <trkpt lat="45.93269" lon="4.72599">
        <ele>170</ele>
        <time>2016-09-27T10:53:49Z</time>
      </trkpt>
      <trkpt lat="45.93265" lon="4.72604">
        <ele>170</ele>
        <time>2016-09-27T10:53:50Z</time>
      </trkpt>
      <trkpt lat="45.93262" lon="4.72608">
        <ele>170</ele>
        <time>2016-09-27T10:53:51Z</time>
      </trkpt>
      <trkpt lat="45.93258" lon="4.72613">
        <ele>170</ele>
        <time>2016-09-27T10:53:52Z</time>
      </trkpt>
      <trkpt lat="45.93254" lon="4.72618">
        <ele>170</ele>
        <time>2016-09-27T10:53:53Z</time>
      </trkpt>
      <trkpt lat="45.9325" lon="4.72622">
        <ele>170</ele>
        <time>2016-09-27T10:53:54Z</time>
      </trkpt>
      <trkpt lat="45.93247" lon="4.72626">
        <ele>170</ele>
        <time>2016-09-27T10:53:55Z</time>
      </trkpt>
      <trkpt lat="45.93242" lon="4.7263">
        <ele>170</ele>
        <time>2016-09-27T10:53:56Z</time>
      </trkpt>
      <trkpt lat="45.93237" lon="4.72634">
        <ele>170</ele>
        <time>2016-09-27T10:53:57Z</time>
      </trkpt>
      <trkpt lat="45.93232" lon="4.7264">
        <ele>170</ele>
        <time>2016-09-27T10:53:58Z</time>
      </trkpt>
      <trkpt lat="45.93228" lon="4.72646">
        <ele>170</ele>
        <time>2016-09-27T10:53:59Z</time>
      </trkpt>
      <trkpt lat="45.93224" lon="4.72651">
        <ele>170</ele>
        <time>2016-09-27T10:54:00Z</time>
      </trkpt>
      <trkpt lat="45.93219" lon="4.72657">
        <ele>170</ele>
        <time>2016-09-27T10:54:01Z</time>
      </trkpt>
      <trkpt lat="45.93215" lon="4.72662">
        <ele>170</ele>
        <time>2016-09-27T10:54:02Z</time>
      </trkpt>
      <trkpt lat="45.9321" lon="4.72668">
        <ele>169</ele>
        <time>2016-09-27T10:54:03Z</time>
      </trkpt>
      <trkpt lat="45.93206" lon="4.72672">
        <ele>169</ele>
        <time>2016-09-27T10:54:04Z</time>
      </trkpt>
      <trkpt lat="45.93201" lon="4.72677">
        <ele>169</ele>
        <time>2016-09-27T10:54:05Z</time>
      </trkpt>
      <trkpt lat="45.93196" lon="4.72682">
        <ele>169</ele>
        <time>2016-09-27T10:54:06Z</time>
      </trkpt>
      <trkpt lat="45.93192" lon="4.72687">
        <ele>169</ele>
        <time>2016-09-27T10:54:07Z</time>
      </trkpt>
      <trkpt lat="45.93187" lon="4.72692">
        <ele>169</ele>
        <time>2016-09-27T10:54:08Z</time>
      </trkpt>
      <trkpt lat="45.93182" lon="4.72696">
        <ele>169</ele>
        <time>2016-09-27T10:54:09Z</time>
      </trkpt>
      <trkpt lat="45.93178" lon="4.72701">
        <ele>170</ele>
        <time>2016-09-27T10:54:10Z</time>
      </trkpt>
      <trkpt lat="45.93174" lon="4.72707">
        <ele>170</ele>
        <time>2016-09-27T10:54:11Z</time>
      </trkpt>
      <trkpt lat="45.93169" lon="4.7271">
        <ele>170</ele>
        <time>2016-09-27T10:54:12Z</time>
      </trkpt>
      <trkpt lat="45.93165" lon="4.72714">
        <ele>170</ele>
        <time>2016-09-27T10:54:13Z</time>
      </trkpt>
      <trkpt lat="45.93161" lon="4.72718">
        <ele>170</ele>
        <time>2016-09-27T10:54:14Z</time>
      </trkpt>
      <trkpt lat="45.93157" lon="4.72722">
        <ele>170</ele>
        <time>2016-09-27T10:54:15Z</time>
      </trkpt>
      <trkpt lat="45.93154" lon="4.72726">
        <ele>170</ele>
        <time>2016-09-27T10:54:16Z</time>
      </trkpt>
      <trkpt lat="45.9315" lon="4.72731">
        <ele>170</ele>
        <time>2016-09-27T10:54:17Z</time>
      </trkpt>
      <trkpt lat="45.93147" lon="4.72735">
        <ele>170</ele>
        <time>2016-09-27T10:54:18Z</time>
      </trkpt>
      <trkpt lat="45.93143" lon="4.7274">
        <ele>170</ele>
        <time>2016-09-27T10:54:19Z</time>
      </trkpt>
      <trkpt lat="45.93137" lon="4.72747">
        <ele>170</ele>
        <time>2016-09-27T10:54:21Z</time>
      </trkpt>
      <trkpt lat="45.93134" lon="4.7275">
        <ele>170</ele>
        <time>2016-09-27T10:54:22Z</time>
      </trkpt>
      <trkpt lat="45.93128" lon="4.72756">
        <ele>171</ele>
        <time>2016-09-27T10:54:25Z</time>
      </trkpt>
      <trkpt lat="45.93126" lon="4.72759">
        <ele>171</ele>
        <time>2016-09-27T10:54:26Z</time>
      </trkpt>
      <trkpt lat="45.93123" lon="4.72762">
        <ele>171</ele>
        <time>2016-09-27T10:54:28Z</time>
      </trkpt>
      <trkpt lat="45.93123" lon="4.72763">
        <ele>171</ele>
        <time>2016-09-27T10:54:29Z</time>
      </trkpt>
      <trkpt lat="45.93123" lon="4.72764">
        <ele>171</ele>
        <time>2016-09-27T10:55:26Z</time>
      </trkpt>
      <trkpt lat="45.93122" lon="4.72765">
        <ele>171</ele>
        <time>2016-09-27T10:55:27Z</time>
      </trkpt>
      <trkpt lat="45.93116" lon="4.7277">
        <ele>171</ele>
        <time>2016-09-27T10:55:30Z</time>
      </trkpt>
      <trkpt lat="45.93114" lon="4.72773">
        <ele>171</ele>
        <time>2016-09-27T10:55:31Z</time>
      </trkpt>
      <trkpt lat="45.93109" lon="4.7278">
        <ele>171</ele>
        <time>2016-09-27T10:55:33Z</time>
      </trkpt>
      <trkpt lat="45.93106" lon="4.72784">
        <ele>171</ele>
        <time>2016-09-27T10:55:34Z</time>
      </trkpt>
      <trkpt lat="45.93099" lon="4.72793">
        <ele>171</ele>
        <time>2016-09-27T10:55:36Z</time>
      </trkpt>
      <trkpt lat="45.93096" lon="4.72798">
        <ele>171</ele>
        <time>2016-09-27T10:55:37Z</time>
      </trkpt>
      <trkpt lat="45.93092" lon="4.72802">
        <ele>171</ele>
        <time>2016-09-27T10:55:38Z</time>
      </trkpt>
      <trkpt lat="45.93089" lon="4.72807">
        <ele>172</ele>
        <time>2016-09-27T10:55:39Z</time>
      </trkpt>
      <trkpt lat="45.93085" lon="4.72812">
        <ele>172</ele>
        <time>2016-09-27T10:55:40Z</time>
      </trkpt>
      <trkpt lat="45.93082" lon="4.72816">
        <ele>172</ele>
        <time>2016-09-27T10:55:41Z</time>
      </trkpt>
      <trkpt lat="45.93076" lon="4.72823">
        <ele>173</ele>
        <time>2016-09-27T10:55:43Z</time>
      </trkpt>
      <trkpt lat="45.93071" lon="4.72826">
        <ele>173</ele>
        <time>2016-09-27T10:55:44Z</time>
      </trkpt>
      <trkpt lat="45.93067" lon="4.7283">
        <ele>173</ele>
        <time>2016-09-27T10:55:45Z</time>
      </trkpt>
      <trkpt lat="45.93063" lon="4.72833">
        <ele>173</ele>
        <time>2016-09-27T10:55:46Z</time>
      </trkpt>
      <trkpt lat="45.9306" lon="4.72837">
        <ele>173</ele>
        <time>2016-09-27T10:55:47Z</time>
      </trkpt>
      <trkpt lat="45.93057" lon="4.72844">
        <ele>172</ele>
        <time>2016-09-27T10:55:48Z</time>
      </trkpt>
      <trkpt lat="45.93052" lon="4.72847">
        <ele>172</ele>
        <time>2016-09-27T10:55:49Z</time>
      </trkpt>
      <trkpt lat="45.93045" lon="4.72851">
        <ele>172</ele>
        <time>2016-09-27T10:55:50Z</time>
      </trkpt>
      <trkpt lat="45.9304" lon="4.72855">
        <ele>172</ele>
        <time>2016-09-27T10:55:51Z</time>
      </trkpt>
      <trkpt lat="45.93036" lon="4.7286">
        <ele>172</ele>
        <time>2016-09-27T10:55:52Z</time>
      </trkpt>
      <trkpt lat="45.93031" lon="4.72867">
        <ele>172</ele>
        <time>2016-09-27T10:55:53Z</time>
      </trkpt>
      <trkpt lat="45.93026" lon="4.72872">
        <ele>172</ele>
        <time>2016-09-27T10:55:54Z</time>
      </trkpt>
      <trkpt lat="45.93022" lon="4.72878">
        <ele>172</ele>
        <time>2016-09-27T10:55:55Z</time>
      </trkpt>
      <trkpt lat="45.93018" lon="4.72883">
        <ele>172</ele>
        <time>2016-09-27T10:55:56Z</time>
      </trkpt>
      <trkpt lat="45.93013" lon="4.72888">
        <ele>172</ele>
        <time>2016-09-27T10:55:57Z</time>
      </trkpt>
      <trkpt lat="45.93009" lon="4.72892">
        <ele>172</ele>
        <time>2016-09-27T10:55:58Z</time>
      </trkpt>
      <trkpt lat="45.93004" lon="4.72895">
        <ele>172</ele>
        <time>2016-09-27T10:55:59Z</time>
      </trkpt>
      <trkpt lat="45.93" lon="4.729">
        <ele>172</ele>
        <time>2016-09-27T10:56:00Z</time>
      </trkpt>
      <trkpt lat="45.92996" lon="4.72906">
        <ele>172</ele>
        <time>2016-09-27T10:56:01Z</time>
      </trkpt>
      <trkpt lat="45.92992" lon="4.72912">
        <ele>171</ele>
        <time>2016-09-27T10:56:02Z</time>
      </trkpt>
      <trkpt lat="45.92987" lon="4.72918">
        <ele>171</ele>
        <time>2016-09-27T10:56:03Z</time>
      </trkpt>
      <trkpt lat="45.92983" lon="4.72924">
        <ele>171</ele>
        <time>2016-09-27T10:56:04Z</time>
      </trkpt>
      <trkpt lat="45.92978" lon="4.72929">
        <ele>171</ele>
        <time>2016-09-27T10:56:05Z</time>
      </trkpt>
      <trkpt lat="45.92974" lon="4.72935">
        <ele>171</ele>
        <time>2016-09-27T10:56:06Z</time>
      </trkpt>
      <trkpt lat="45.9297" lon="4.72941">
        <ele>171</ele>
        <time>2016-09-27T10:56:07Z</time>
      </trkpt>
      <trkpt lat="45.92965" lon="4.72946">
        <ele>171</ele>
        <time>2016-09-27T10:56:08Z</time>
      </trkpt>
      <trkpt lat="45.92961" lon="4.72951">
        <ele>171</ele>
        <time>2016-09-27T10:56:09Z</time>
      </trkpt>
      <trkpt lat="45.92957" lon="4.72957">
        <ele>171</ele>
        <time>2016-09-27T10:56:10Z</time>
      </trkpt>
      <trkpt lat="45.92953" lon="4.72962">
        <ele>171</ele>
        <time>2016-09-27T10:56:11Z</time>
      </trkpt>
      <trkpt lat="45.92949" lon="4.72967">
        <ele>171</ele>
        <time>2016-09-27T10:56:12Z</time>
      </trkpt>
      <trkpt lat="45.92945" lon="4.72973">
        <ele>171</ele>
        <time>2016-09-27T10:56:13Z</time>
      </trkpt>
      <trkpt lat="45.9294" lon="4.72976">
        <ele>171</ele>
        <time>2016-09-27T10:56:14Z</time>
      </trkpt>
      <trkpt lat="45.92936" lon="4.7298">
        <ele>171</ele>
        <time>2016-09-27T10:56:15Z</time>
      </trkpt>
      <trkpt lat="45.92931" lon="4.72985">
        <ele>172</ele>
        <time>2016-09-27T10:56:16Z</time>
      </trkpt>
      <trkpt lat="45.92927" lon="4.7299">
        <ele>172</ele>
        <time>2016-09-27T10:56:17Z</time>
      </trkpt>
      <trkpt lat="45.92923" lon="4.72995">
        <ele>172</ele>
        <time>2016-09-27T10:56:18Z</time>
      </trkpt>
      <trkpt lat="45.92919" lon="4.73">
        <ele>172</ele>
        <time>2016-09-27T10:56:19Z</time>
      </trkpt>
      <trkpt lat="45.92916" lon="4.73006">
        <ele>172</ele>
        <time>2016-09-27T10:56:20Z</time>
      </trkpt>
      <trkpt lat="45.92911" lon="4.73011">
        <ele>172</ele>
        <time>2016-09-27T10:56:21Z</time>
      </trkpt>
      <trkpt lat="45.92907" lon="4.73016">
        <ele>172</ele>
        <time>2016-09-27T10:56:22Z</time>
      </trkpt>
      <trkpt lat="45.92903" lon="4.73023">
        <ele>172</ele>
        <time>2016-09-27T10:56:23Z</time>
      </trkpt>
      <trkpt lat="45.92899" lon="4.73028">
        <ele>172</ele>
        <time>2016-09-27T10:56:24Z</time>
      </trkpt>
      <trkpt lat="45.92895" lon="4.73035">
        <ele>172</ele>
        <time>2016-09-27T10:56:25Z</time>
      </trkpt>
      <trkpt lat="45.92891" lon="4.73042">
        <ele>172</ele>
        <time>2016-09-27T10:56:26Z</time>
      </trkpt>
      <trkpt lat="45.92887" lon="4.73048">
        <ele>172</ele>
        <time>2016-09-27T10:56:27Z</time>
      </trkpt>
      <trkpt lat="45.92883" lon="4.73055">
        <ele>172</ele>
        <time>2016-09-27T10:56:28Z</time>
      </trkpt>
      <trkpt lat="45.9288" lon="4.73063">
        <ele>172</ele>
        <time>2016-09-27T10:56:29Z</time>
      </trkpt>
      <trkpt lat="45.92876" lon="4.7307">
        <ele>172</ele>
        <time>2016-09-27T10:56:30Z</time>
      </trkpt>
      <trkpt lat="45.92874" lon="4.7308">
        <ele>172</ele>
        <time>2016-09-27T10:56:31Z</time>
      </trkpt>
      <trkpt lat="45.92873" lon="4.73089">
        <ele>172</ele>
        <time>2016-09-27T10:56:32Z</time>
      </trkpt>
      <trkpt lat="45.9287" lon="4.73096">
        <ele>172</ele>
        <time>2016-09-27T10:56:33Z</time>
      </trkpt>
      <trkpt lat="45.92867" lon="4.73102">
        <ele>172</ele>
        <time>2016-09-27T10:56:34Z</time>
      </trkpt>
      <trkpt lat="45.92863" lon="4.7311">
        <ele>171</ele>
        <time>2016-09-27T10:56:35Z</time>
      </trkpt>
      <trkpt lat="45.92861" lon="4.73119">
        <ele>171</ele>
        <time>2016-09-27T10:56:36Z</time>
      </trkpt>
      <trkpt lat="45.92859" lon="4.73128">
        <ele>171</ele>
        <time>2016-09-27T10:56:37Z</time>
      </trkpt>
      <trkpt lat="45.92859" lon="4.73139">
        <ele>171</ele>
        <time>2016-09-27T10:56:38Z</time>
      </trkpt>
      <trkpt lat="45.92858" lon="4.73149">
        <ele>171</ele>
        <time>2016-09-27T10:56:39Z</time>
      </trkpt>
      <trkpt lat="45.92857" lon="4.73158">
        <ele>171</ele>
        <time>2016-09-27T10:56:40Z</time>
      </trkpt>
      <trkpt lat="45.92856" lon="4.73166">
        <ele>171</ele>
        <time>2016-09-27T10:56:41Z</time>
      </trkpt>
      <trkpt lat="45.92855" lon="4.73175">
        <ele>171</ele>
        <time>2016-09-27T10:56:42Z</time>
      </trkpt>
      <trkpt lat="45.92854" lon="4.73184">
        <ele>171</ele>
        <time>2016-09-27T10:56:43Z</time>
      </trkpt>
      <trkpt lat="45.92854" lon="4.73193">
        <ele>171</ele>
        <time>2016-09-27T10:56:44Z</time>
      </trkpt>
      <trkpt lat="45.92853" lon="4.73202">
        <ele>171</ele>
        <time>2016-09-27T10:56:45Z</time>
      </trkpt>
      <trkpt lat="45.92851" lon="4.7321">
        <ele>171</ele>
        <time>2016-09-27T10:56:46Z</time>
      </trkpt>
      <trkpt lat="45.92851" lon="4.73219">
        <ele>171</ele>
        <time>2016-09-27T10:56:47Z</time>
      </trkpt>
      <trkpt lat="45.9285" lon="4.73227">
        <ele>171</ele>
        <time>2016-09-27T10:56:48Z</time>
      </trkpt>
      <trkpt lat="45.9285" lon="4.73237">
        <ele>171</ele>
        <time>2016-09-27T10:56:49Z</time>
      </trkpt>
      <trkpt lat="45.92849" lon="4.73245">
        <ele>170</ele>
        <time>2016-09-27T10:56:50Z</time>
      </trkpt>
      <trkpt lat="45.92847" lon="4.73254">
        <ele>171</ele>
        <time>2016-09-27T10:56:51Z</time>
      </trkpt>
      <trkpt lat="45.92846" lon="4.73263">
        <ele>171</ele>
        <time>2016-09-27T10:56:52Z</time>
      </trkpt>
      <trkpt lat="45.92845" lon="4.73271">
        <ele>171</ele>
        <time>2016-09-27T10:56:53Z</time>
      </trkpt>
      <trkpt lat="45.92845" lon="4.7328">
        <ele>171</ele>
        <time>2016-09-27T10:56:54Z</time>
      </trkpt>
      <trkpt lat="45.92844" lon="4.73288">
        <ele>171</ele>
        <time>2016-09-27T10:56:55Z</time>
      </trkpt>
      <trkpt lat="45.92843" lon="4.73297">
        <ele>171</ele>
        <time>2016-09-27T10:56:56Z</time>
      </trkpt>
      <trkpt lat="45.92842" lon="4.73306">
        <ele>171</ele>
        <time>2016-09-27T10:56:57Z</time>
      </trkpt>
      <trkpt lat="45.92841" lon="4.73315">
        <ele>171</ele>
        <time>2016-09-27T10:56:58Z</time>
      </trkpt>
      <trkpt lat="45.9284" lon="4.73323">
        <ele>171</ele>
        <time>2016-09-27T10:56:59Z</time>
      </trkpt>
      <trkpt lat="45.9284" lon="4.73333">
        <ele>171</ele>
        <time>2016-09-27T10:57:00Z</time>
      </trkpt>
      <trkpt lat="45.92838" lon="4.73341">
        <ele>171</ele>
        <time>2016-09-27T10:57:01Z</time>
      </trkpt>
      <trkpt lat="45.92837" lon="4.73351">
        <ele>171</ele>
        <time>2016-09-27T10:57:02Z</time>
      </trkpt>
      <trkpt lat="45.92836" lon="4.73359">
        <ele>171</ele>
        <time>2016-09-27T10:57:03Z</time>
      </trkpt>
      <trkpt lat="45.92835" lon="4.73367">
        <ele>171</ele>
        <time>2016-09-27T10:57:04Z</time>
      </trkpt>
      <trkpt lat="45.92834" lon="4.73375">
        <ele>172</ele>
        <time>2016-09-27T10:57:05Z</time>
      </trkpt>
      <trkpt lat="45.92833" lon="4.73383">
        <ele>171</ele>
        <time>2016-09-27T10:57:06Z</time>
      </trkpt>
      <trkpt lat="45.92832" lon="4.73391">
        <ele>172</ele>
        <time>2016-09-27T10:57:07Z</time>
      </trkpt>
      <trkpt lat="45.92831" lon="4.734">
        <ele>172</ele>
        <time>2016-09-27T10:57:08Z</time>
      </trkpt>
      <trkpt lat="45.9283" lon="4.73408">
        <ele>172</ele>
        <time>2016-09-27T10:57:09Z</time>
      </trkpt>
      <trkpt lat="45.92829" lon="4.73417">
        <ele>172</ele>
        <time>2016-09-27T10:57:10Z</time>
      </trkpt>
      <trkpt lat="45.92828" lon="4.73426">
        <ele>172</ele>
        <time>2016-09-27T10:57:11Z</time>
      </trkpt>
      <trkpt lat="45.92827" lon="4.73435">
        <ele>172</ele>
        <time>2016-09-27T10:57:12Z</time>
      </trkpt>
      <trkpt lat="45.92826" lon="4.73444">
        <ele>172</ele>
        <time>2016-09-27T10:57:13Z</time>
      </trkpt>
      <trkpt lat="45.92826" lon="4.73453">
        <ele>172</ele>
        <time>2016-09-27T10:57:14Z</time>
      </trkpt>
      <trkpt lat="45.92825" lon="4.73461">
        <ele>171</ele>
        <time>2016-09-27T10:57:15Z</time>
      </trkpt>
      <trkpt lat="45.92824" lon="4.73472">
        <ele>172</ele>
        <time>2016-09-27T10:57:16Z</time>
      </trkpt>
      <trkpt lat="45.92822" lon="4.73481">
        <ele>172</ele>
        <time>2016-09-27T10:57:17Z</time>
      </trkpt>
      <trkpt lat="45.92821" lon="4.73489">
        <ele>172</ele>
        <time>2016-09-27T10:57:18Z</time>
      </trkpt>
      <trkpt lat="45.9282" lon="4.73497">
        <ele>172</ele>
        <time>2016-09-27T10:57:19Z</time>
      </trkpt>
      <trkpt lat="45.9282" lon="4.73506">
        <ele>172</ele>
        <time>2016-09-27T10:57:20Z</time>
      </trkpt>
      <trkpt lat="45.92819" lon="4.73515">
        <ele>172</ele>
        <time>2016-09-27T10:57:21Z</time>
      </trkpt>
      <trkpt lat="45.92818" lon="4.73525">
        <ele>172</ele>
        <time>2016-09-27T10:57:22Z</time>
      </trkpt>
      <trkpt lat="45.92818" lon="4.73535">
        <ele>172</ele>
        <time>2016-09-27T10:57:23Z</time>
      </trkpt>
      <trkpt lat="45.92817" lon="4.73544">
        <ele>171</ele>
        <time>2016-09-27T10:57:24Z</time>
      </trkpt>
      <trkpt lat="45.92816" lon="4.73553">
        <ele>171</ele>
        <time>2016-09-27T10:57:25Z</time>
      </trkpt>
      <trkpt lat="45.92816" lon="4.73562">
        <ele>171</ele>
        <time>2016-09-27T10:57:26Z</time>
      </trkpt>
      <trkpt lat="45.92816" lon="4.73569">
        <ele>171</ele>
        <time>2016-09-27T10:57:27Z</time>
      </trkpt>
      <trkpt lat="45.92816" lon="4.73577">
        <ele>171</ele>
        <time>2016-09-27T10:57:28Z</time>
      </trkpt>
      <trkpt lat="45.92816" lon="4.73586">
        <ele>171</ele>
        <time>2016-09-27T10:57:29Z</time>
      </trkpt>
      <trkpt lat="45.92815" lon="4.73594">
        <ele>171</ele>
        <time>2016-09-27T10:57:30Z</time>
      </trkpt>
      <trkpt lat="45.92814" lon="4.73609">
        <ele>172</ele>
        <time>2016-09-27T10:57:32Z</time>
      </trkpt>
      <trkpt lat="45.92813" lon="4.73616">
        <ele>172</ele>
        <time>2016-09-27T10:57:33Z</time>
      </trkpt>
      <trkpt lat="45.92812" lon="4.73623">
        <ele>172</ele>
        <time>2016-09-27T10:57:34Z</time>
      </trkpt>
      <trkpt lat="45.92809" lon="4.73628">
        <ele>172</ele>
        <time>2016-09-27T10:57:35Z</time>
      </trkpt>
      <trkpt lat="45.92805" lon="4.73633">
        <ele>172</ele>
        <time>2016-09-27T10:57:36Z</time>
      </trkpt>
      <trkpt lat="45.92801" lon="4.73639">
        <ele>172</ele>
        <time>2016-09-27T10:57:37Z</time>
      </trkpt>
      <trkpt lat="45.92798" lon="4.73646">
        <ele>172</ele>
        <time>2016-09-27T10:57:38Z</time>
      </trkpt>
      <trkpt lat="45.92796" lon="4.73654">
        <ele>172</ele>
        <time>2016-09-27T10:57:39Z</time>
      </trkpt>
      <trkpt lat="45.92795" lon="4.73662">
        <ele>172</ele>
        <time>2016-09-27T10:57:40Z</time>
      </trkpt>
      <trkpt lat="45.92792" lon="4.73674">
        <ele>172</ele>
        <time>2016-09-27T10:57:42Z</time>
      </trkpt>
      <trkpt lat="45.92791" lon="4.7368">
        <ele>172</ele>
        <time>2016-09-27T10:57:43Z</time>
      </trkpt>
      <trkpt lat="45.9279" lon="4.73687">
        <ele>172</ele>
        <time>2016-09-27T10:57:44Z</time>
      </trkpt>
      <trkpt lat="45.92792" lon="4.73696">
        <ele>172</ele>
        <time>2016-09-27T10:57:45Z</time>
      </trkpt>
      <trkpt lat="45.92791" lon="4.73704">
        <ele>172</ele>
        <time>2016-09-27T10:57:46Z</time>
      </trkpt>
      <trkpt lat="45.92791" lon="4.7371">
        <ele>172</ele>
        <time>2016-09-27T10:57:47Z</time>
      </trkpt>
      <trkpt lat="45.92789" lon="4.7372">
        <ele>172</ele>
        <time>2016-09-27T10:57:49Z</time>
      </trkpt>
      <trkpt lat="45.92787" lon="4.73725">
        <ele>172</ele>
        <time>2016-09-27T10:57:50Z</time>
      </trkpt>
      <trkpt lat="45.9278" lon="4.73732">
        <ele>172</ele>
        <time>2016-09-27T10:57:52Z</time>
      </trkpt>
      <trkpt lat="45.92776" lon="4.73732">
        <ele>172</ele>
        <time>2016-09-27T10:57:53Z</time>
      </trkpt>
      <trkpt lat="45.92771" lon="4.73729">
        <ele>172</ele>
        <time>2016-09-27T10:57:54Z</time>
      </trkpt>
      <trkpt lat="45.92766" lon="4.73727">
        <ele>172</ele>
        <time>2016-09-27T10:57:55Z</time>
      </trkpt>
      <trkpt lat="45.92761" lon="4.73726">
        <ele>172</ele>
        <time>2016-09-27T10:57:56Z</time>
      </trkpt>
      <trkpt lat="45.92756" lon="4.73724">
        <ele>172</ele>
        <time>2016-09-27T10:57:57Z</time>
      </trkpt>
      <trkpt lat="45.92752" lon="4.73722">
        <ele>172</ele>
        <time>2016-09-27T10:57:58Z</time>
      </trkpt>
      <trkpt lat="45.92747" lon="4.73719">
        <ele>173</ele>
        <time>2016-09-27T10:57:59Z</time>
      </trkpt>
      <trkpt lat="45.92742" lon="4.73716">
        <ele>173</ele>
        <time>2016-09-27T10:58:00Z</time>
      </trkpt>
      <trkpt lat="45.92736" lon="4.73714">
        <ele>173</ele>
        <time>2016-09-27T10:58:01Z</time>
      </trkpt>
      <trkpt lat="45.92731" lon="4.73713">
        <ele>173</ele>
        <time>2016-09-27T10:58:02Z</time>
      </trkpt>
      <trkpt lat="45.92725" lon="4.73711">
        <ele>173</ele>
        <time>2016-09-27T10:58:03Z</time>
      </trkpt>
      <trkpt lat="45.92719" lon="4.7371">
        <ele>173</ele>
        <time>2016-09-27T10:58:04Z</time>
      </trkpt>
      <trkpt lat="45.92713" lon="4.73708">
        <ele>173</ele>
        <time>2016-09-27T10:58:05Z</time>
      </trkpt>
      <trkpt lat="45.92707" lon="4.73707">
        <ele>173</ele>
        <time>2016-09-27T10:58:06Z</time>
      </trkpt>
      <trkpt lat="45.92701" lon="4.73706">
        <ele>173</ele>
        <time>2016-09-27T10:58:07Z</time>
      </trkpt>
      <trkpt lat="45.92695" lon="4.73705">
        <ele>173</ele>
        <time>2016-09-27T10:58:08Z</time>
      </trkpt>
      <trkpt lat="45.9269" lon="4.73703">
        <ele>173</ele>
        <time>2016-09-27T10:58:09Z</time>
      </trkpt>
      <trkpt lat="45.92685" lon="4.73702">
        <ele>173</ele>
        <time>2016-09-27T10:58:10Z</time>
      </trkpt>
      <trkpt lat="45.92678" lon="4.737">
        <ele>173</ele>
        <time>2016-09-27T10:58:11Z</time>
      </trkpt>
      <trkpt lat="45.92672" lon="4.73697">
        <ele>174</ele>
        <time>2016-09-27T10:58:12Z</time>
      </trkpt>
      <trkpt lat="45.92667" lon="4.73694">
        <ele>174</ele>
        <time>2016-09-27T10:58:13Z</time>
      </trkpt>
      <trkpt lat="45.92662" lon="4.73692">
        <ele>173</ele>
        <time>2016-09-27T10:58:14Z</time>
      </trkpt>
      <trkpt lat="45.92658" lon="4.7369">
        <ele>173</ele>
        <time>2016-09-27T10:58:15Z</time>
      </trkpt>
      <trkpt lat="45.92653" lon="4.73686">
        <ele>173</ele>
        <time>2016-09-27T10:58:16Z</time>
      </trkpt>
      <trkpt lat="45.92649" lon="4.73683">
        <ele>173</ele>
        <time>2016-09-27T10:58:17Z</time>
      </trkpt>
      <trkpt lat="45.92644" lon="4.73678">
        <ele>173</ele>
        <time>2016-09-27T10:58:18Z</time>
      </trkpt>
      <trkpt lat="45.9264" lon="4.73672">
        <ele>173</ele>
        <time>2016-09-27T10:58:19Z</time>
      </trkpt>
      <trkpt lat="45.92637" lon="4.73665">
        <ele>173</ele>
        <time>2016-09-27T10:58:20Z</time>
      </trkpt>
      <trkpt lat="45.92635" lon="4.73656">
        <ele>173</ele>
        <time>2016-09-27T10:58:21Z</time>
      </trkpt>
      <trkpt lat="45.92632" lon="4.73649">
        <ele>173</ele>
        <time>2016-09-27T10:58:22Z</time>
      </trkpt>
      <trkpt lat="45.92629" lon="4.73642">
        <ele>173</ele>
        <time>2016-09-27T10:58:23Z</time>
      </trkpt>
      <trkpt lat="45.92624" lon="4.73637">
        <ele>173</ele>
        <time>2016-09-27T10:58:24Z</time>
      </trkpt>
      <trkpt lat="45.9262" lon="4.73631">
        <ele>173</ele>
        <time>2016-09-27T10:58:25Z</time>
      </trkpt>
      <trkpt lat="45.92615" lon="4.73626">
        <ele>173</ele>
        <time>2016-09-27T10:58:26Z</time>
      </trkpt>
      <trkpt lat="45.9261" lon="4.73622">
        <ele>173</ele>
        <time>2016-09-27T10:58:27Z</time>
      </trkpt>
      <trkpt lat="45.92603" lon="4.7362">
        <ele>173</ele>
        <time>2016-09-27T10:58:28Z</time>
      </trkpt>
      <trkpt lat="45.92597" lon="4.7362">
        <ele>173</ele>
        <time>2016-09-27T10:58:29Z</time>
      </trkpt>
      <trkpt lat="45.9259" lon="4.73619">
        <ele>173</ele>
        <time>2016-09-27T10:58:30Z</time>
      </trkpt>
      <trkpt lat="45.92583" lon="4.73618">
        <ele>173</ele>
        <time>2016-09-27T10:58:31Z</time>
      </trkpt>
      <trkpt lat="45.92578" lon="4.73619">
        <ele>173</ele>
        <time>2016-09-27T10:58:32Z</time>
      </trkpt>
      <trkpt lat="45.92571" lon="4.73621">
        <ele>173</ele>
        <time>2016-09-27T10:58:33Z</time>
      </trkpt>
      <trkpt lat="45.92566" lon="4.73623">
        <ele>173</ele>
        <time>2016-09-27T10:58:34Z</time>
      </trkpt>
      <trkpt lat="45.92559" lon="4.73625">
        <ele>173</ele>
        <time>2016-09-27T10:58:35Z</time>
      </trkpt>
      <trkpt lat="45.92553" lon="4.73627">
        <ele>173</ele>
        <time>2016-09-27T10:58:36Z</time>
      </trkpt>
      <trkpt lat="45.92547" lon="4.73629">
        <ele>173</ele>
        <time>2016-09-27T10:58:37Z</time>
      </trkpt>
      <trkpt lat="45.92541" lon="4.73629">
        <ele>173</ele>
        <time>2016-09-27T10:58:38Z</time>
      </trkpt>
      <trkpt lat="45.92535" lon="4.7363">
        <ele>173</ele>
        <time>2016-09-27T10:58:39Z</time>
      </trkpt>
      <trkpt lat="45.9253" lon="4.73631">
        <ele>173</ele>
        <time>2016-09-27T10:58:40Z</time>
      </trkpt>
      <trkpt lat="45.92525" lon="4.73631">
        <ele>173</ele>
        <time>2016-09-27T10:58:41Z</time>
      </trkpt>
      <trkpt lat="45.92519" lon="4.73632">
        <ele>173</ele>
        <time>2016-09-27T10:58:42Z</time>
      </trkpt>
      <trkpt lat="45.92514" lon="4.73632">
        <ele>173</ele>
        <time>2016-09-27T10:58:43Z</time>
      </trkpt>
      <trkpt lat="45.92508" lon="4.73633">
        <ele>173</ele>
        <time>2016-09-27T10:58:44Z</time>
      </trkpt>
      <trkpt lat="45.925" lon="4.73633">
        <ele>174</ele>
        <time>2016-09-27T10:58:45Z</time>
      </trkpt>
      <trkpt lat="45.92492" lon="4.73631">
        <ele>174</ele>
        <time>2016-09-27T10:58:46Z</time>
      </trkpt>
      <trkpt lat="45.92486" lon="4.73631">
        <ele>174</ele>
        <time>2016-09-27T10:58:47Z</time>
      </trkpt>
      <trkpt lat="45.9248" lon="4.73632">
        <ele>174</ele>
        <time>2016-09-27T10:58:48Z</time>
      </trkpt>
      <trkpt lat="45.92475" lon="4.73633">
        <ele>174</ele>
        <time>2016-09-27T10:58:49Z</time>
      </trkpt>
      <trkpt lat="45.92466" lon="4.73637">
        <ele>174</ele>
        <time>2016-09-27T10:58:52Z</time>
      </trkpt>
      <trkpt lat="45.92465" lon="4.73643">
        <ele>174</ele>
        <time>2016-09-27T10:58:53Z</time>
      </trkpt>
      <trkpt lat="45.92464" lon="4.73654">
        <ele>174</ele>
        <time>2016-09-27T10:58:55Z</time>
      </trkpt>
      <trkpt lat="45.92465" lon="4.73659">
        <ele>174</ele>
        <time>2016-09-27T10:58:56Z</time>
      </trkpt>
      <trkpt lat="45.92465" lon="4.73671">
        <ele>174</ele>
        <time>2016-09-27T10:58:58Z</time>
      </trkpt>
      <trkpt lat="45.92465" lon="4.73677">
        <ele>174</ele>
        <time>2016-09-27T10:58:59Z</time>
      </trkpt>
      <trkpt lat="45.92465" lon="4.73689">
        <ele>174</ele>
        <time>2016-09-27T10:59:01Z</time>
      </trkpt>
      <trkpt lat="45.92464" lon="4.73693">
        <ele>174</ele>
        <time>2016-09-27T10:59:02Z</time>
      </trkpt>
      <trkpt lat="45.92462" lon="4.73706">
        <ele>174</ele>
        <time>2016-09-27T10:59:05Z</time>
      </trkpt>
      <trkpt lat="45.92463" lon="4.73708">
        <ele>174</ele>
        <time>2016-09-27T10:59:06Z</time>
      </trkpt>
      <trkpt lat="45.92463" lon="4.73709">
        <ele>174</ele>
        <time>2016-09-27T10:59:07Z</time>
      </trkpt>
      <trkpt lat="45.92463" lon="4.73709">
        <ele>174</ele>
        <time>2016-09-27T10:59:08Z</time>
      </trkpt>
      <trkpt lat="45.92462" lon="4.7371">
        <ele>174</ele>
        <time>2016-09-27T10:59:32.948Z</time>
      </trkpt>
    </trkseg>
  </trk>
</gpx>